
Distance (Route):
Temperature : 20.7°C
Humidity : 74.4%
Pressure : 948.3hPa| Receiver | Frames | First received | Last received |
|---|---|---|---|
| BIOWL1-15 | 679 | 2026-09-04 10:46:10 | 2026-09-04 13:01:23 |
| HSKMA3-T | 528 | 2026-09-04 11:10:33 | 2026-09-04 13:04:12 |
| DM0DOS-11 | 450 | 2026-09-04 10:46:10 | 2026-09-04 12:55:36 |
| DL1XH-west | 443 | 2026-09-04 11:05:32 | 2026-09-04 12:35:27 |
| DO2JMG | 434 | 2026-09-04 11:05:58 | 2026-09-04 12:50:48 |
| AA1-15 | 363 | 2026-09-04 11:23:01 | 2026-09-04 12:46:51 |
| DL1NUX | 325 | 2026-09-04 11:19:21 | 2026-09-04 12:55:13 |
| DF8AY | 286 | 2026-09-04 11:26:55 | 2026-09-04 12:47:57 |
| DL1XH-15 | 192 | 2026-09-04 11:20:54 | 2026-09-04 12:40:58 |
| DL1XH1-15 | 189 | 2026-09-04 11:05:20 | 2026-09-04 12:32:35 |
| DL3AQ-11 | 124 | 2026-09-04 10:58:18 | 2026-09-04 12:53:37 |
| DB0DAN | 123 | 2026-09-04 11:09:55 | 2026-09-04 13:01:10 |
| DD8BA-10 | 101 | 2026-09-04 10:53:38 | 2026-09-04 12:47:42 |
| GOEST3-10 | 96 | 2026-09-04 11:16:55 | 2026-09-04 12:30:09 |
| DL4XJ-10 | 87 | 2026-09-04 11:18:46 | 2026-09-04 12:56:46 |
| DJ2DS-15 | 74 | 2026-09-04 10:56:08 | 2026-09-04 12:28:18 |
| DO3DL | 68 | 2026-09-04 10:58:57 | 2026-09-04 12:52:19 |
| DL4BBY-15 | 57 | 2026-09-04 10:59:40 | 2026-09-04 12:39:43 |
| DO9LL-15 | 56 | 2026-09-04 10:47:09 | 2026-09-04 12:50:16 |
| DH3RM | 50 | 2026-09-04 10:47:16 | 2026-09-04 11:05:31 |
| DB0NH | 47 | 2026-09-04 11:04:54 | 2026-09-04 12:56:43 |
| DB0UT-7 | 45 | 2026-09-04 10:51:12 | 2026-09-04 12:55:42 |
| DD1CC8 | 44 | 2026-09-04 10:49:50 | 2026-09-04 12:54:03 |
| DJ2KF-10 | 43 | 2026-09-04 10:47:15 | 2026-09-04 12:46:12 |
| DO3MHA-11 | 37 | 2026-09-04 11:32:26 | 2026-09-04 12:37:58 |
| AU51GT2 | 35 | 2026-09-04 10:51:23 | 2026-09-04 12:47:45 |
| BIOWL9-15 | 32 | 2026-09-04 10:47:21 | 2026-09-04 12:53:39 |
| DO1YAY-16 | 32 | 2026-09-04 10:53:13 | 2026-09-04 12:37:47 |
| DB0ND-19 | 29 | 2026-09-04 10:55:55 | 2026-09-04 12:53:52 |
| SONCRA | 28 | 2026-09-04 11:12:09 | 2026-09-04 13:00:19 |
| DK9SH | 27 | 2026-09-04 10:54:58 | 2026-09-04 12:59:41 |
| DL1ZP-14 | 27 | 2026-09-04 11:04:01 | 2026-09-04 12:59:00 |
| BUE01 | 27 | 2026-09-04 11:04:56 | 2026-09-04 12:40:09 |
| DF2AP-13 | 27 | 2026-09-04 11:24:22 | 2026-09-04 13:00:12 |
| DD1CC1-15 | 26 | 2026-09-04 10:49:26 | 2026-09-04 12:09:03 |
| DO2KSM | 24 | 2026-09-04 10:47:07 | 2026-09-04 12:50:35 |
| WPPR-10 | 24 | 2026-09-04 10:47:22 | 2026-09-04 12:07:06 |
| DL9SK-14 | 23 | 2026-09-04 11:15:44 | 2026-09-04 12:51:00 |
| SO1NDE-10 | 23 | 2026-09-04 11:22:51 | 2026-09-04 12:54:53 |
| DO3MHA-12 | 23 | 2026-09-04 11:35:08 | 2026-09-04 12:37:24 |
| DL8OAI-8 | 21 | 2026-09-04 11:33:09 | 2026-09-04 13:00:11 |
| DD1CC3-15 | 20 | 2026-09-04 11:13:05 | 2026-09-04 12:54:04 |
| DF7PN | 20 | 2026-09-04 11:23:47 | 2026-09-04 12:50:46 |
| HTAHTA | 17 | 2026-09-04 11:04:13 | 2026-09-04 12:33:44 |
| EDDB2-11 | 17 | 2026-09-04 11:45:25 | 2026-09-04 12:41:48 |
| EDDB2-12 | 17 | 2026-09-04 11:47:17 | 2026-09-04 12:44:44 |
| DL3OBA | 14 | 2026-09-04 11:18:55 | 2026-09-04 12:54:39 |
| DJ8HS-15 | 14 | 2026-09-04 11:29:40 | 2026-09-04 12:38:40 |
| HARRO8 | 14 | 2026-09-04 11:40:29 | 2026-09-04 12:51:04 |
| BIOWL7-15 | 13 | 2026-09-04 10:47:35 | 2026-09-04 12:54:36 |
| DC6BW-12 | 13 | 2026-09-04 11:08:27 | 2026-09-04 12:37:23 |
| NBG1-10 | 13 | 2026-09-04 11:21:42 | 2026-09-04 12:38:13 |
| AM1SDL-15 | 11 | 2026-09-04 12:29:18 | 2026-09-04 12:52:37 |
| DL1CLM-18 | 10 | 2026-09-04 11:01:02 | 2026-09-04 12:41:09 |
| DK7TD | 8 | 2026-09-04 12:26:59 | 2026-09-04 12:28:26 |
| DL1LOL-11 | 6 | 2026-09-04 11:12:57 | 2026-09-04 12:23:39 |
| SONDE2-11 | 6 | 2026-09-04 11:59:46 | 2026-09-04 12:18:55 |
| DJ3KS | 4 | 2026-09-04 10:56:18 | 2026-09-04 11:08:26 |
| DF8AY-15 | 4 | 2026-09-04 11:34:46 | 2026-09-04 11:53:47 |
| SP3BTT-10 | 3 | 2026-09-04 12:15:04 | 2026-09-04 12:24:07 |
| DJTTGO | 2 | 2026-09-04 12:04:33 | 2026-09-04 12:39:37 |
| DF5WG-10 | 2 | 2026-09-04 12:13:03 | 2026-09-04 12:31:53 |
| S3001 | 1 | 2026-09-04 12:43:09 | 2026-09-04 12:43:09 |
| Receiver | Date | Latitude | Longitude | Direction | Speed | Altitude | Climb | Temperature | Humidity | Pressure | Voltage | Killtimer | Uptime | BKT | XDATA |
|---|---|---|---|---|---|---|---|---|---|---|---|---|---|---|---|
| HSKMA3-T | 2026-09-04 13:04:12 | 51.47517 | 9.57944 | 87° | 62km/h | 577m | -7.2m/s | 20.7°C | 74.4% | 948.3hPa | 2.7V | 07:57:46 | 02:45:47 | 00:00:00 | |
| HSKMA3-T | 2026-09-04 13:04:02 | 51.47523 | 9.57697 | 93° | 64km/h | 637m | -5.7m/s | 20.2°C | 76.2% | 941.8hPa | 2.7V | 07:58:37 | 02:45:37 | 00:00:00 | |
| HSKMA3-T | 2026-09-04 13:03:52 | 51.47511 | 9.57446 | 84° | 60km/h | 688m | -5.5m/s | 19.8°C | 76.5% | 936.4hPa | 2.7V | 07:58:37 | 02:45:27 | 00:00:00 | |
| HSKMA3-T | 2026-09-04 13:03:41 | 51.47486 | 9.57176 | 90° | 58km/h | 739m | -3.7m/s | 19.2°C | 79.3% | 931.1hPa | 2.7V | 07:58:37 | 02:45:16 | 00:00:00 | |
| HSKMA3-T | 2026-09-04 13:03:30 | 51.47470 | 9.56881 | 82° | 73km/h | 789m | -3.7m/s | 18.8°C | 79.9% | 925.8hPa | 2.7V | 07:58:37 | 02:45:05 | 00:00:00 | |
| HSKMA3-T | 2026-09-04 13:03:20 | 51.47432 | 9.56602 | 78° | 64km/h | 834m | -4.6m/s | 18.5°C | 81% | 921hPa | 2.7V | 07:58:37 | 02:44:55 | 00:00:00 | |
| HSKMA3-T | 2026-09-04 13:03:10 | 51.47403 | 9.56353 | 77° | 64km/h | 879m | -4.3m/s | 18°C | 82.2% | 916.1hPa | 2.7V | 07:59:28 | 02:44:45 | 00:00:00 | |
| HSKMA3-T | 2026-09-04 13:02:59 | 51.47370 | 9.56076 | 81° | 66km/h | 919m | -4.3m/s | 17.8°C | 82% | 912hPa | 2.7V | 07:59:28 | 02:44:34 | 00:00:00 | |
| HSKMA3-T | 2026-09-04 13:02:48 | 51.47348 | 9.55800 | 84° | 62km/h | 976m | -6.2m/s | 17.5°C | 84.7% | 906.1hPa | 2.7V | 07:59:28 | 02:44:23 | 00:00:00 | |
| HSKMA3-T | 2026-09-04 13:02:38 | 51.47318 | 9.55544 | 79° | 58km/h | 1032m | -5.1m/s | 16.9°C | 85.8% | 900hPa | 2.7V | 07:59:28 | 02:44:13 | 00:00:00 | |
| HSKMA3-T | 2026-09-04 13:02:27 | 51.47285 | 9.55253 | 77° | 66km/h | 1081m | -4.1m/s | 16.8°C | 81.7% | 894.9hPa | 2.6V | 08:00:19 | 02:44:02 | 00:00:00 | |
| HSKMA3-T | 2026-09-04 13:02:16 | 51.47251 | 9.54960 | 78° | 69km/h | 1137m | -5.1m/s | 16.2°C | 85.5% | 889.2hPa | 2.7V | 08:00:19 | 02:43:51 | 00:00:00 | |
| HSKMA3-T | 2026-09-04 13:02:06 | 51.47218 | 9.54698 | 77° | 64km/h | 1184m | -4.9m/s | 16°C | 84% | 884.2hPa | 2.7V | 08:00:19 | 02:43:41 | 00:00:00 | |
| HSKMA3-T | 2026-09-04 13:01:56 | 51.47191 | 9.54430 | 84° | 69km/h | 1231m | -5.4m/s | 15.5°C | 88% | 879.4hPa | 2.7V | 08:00:19 | 02:43:31 | 00:00:00 | |
| HSKMA3-T | 2026-09-04 13:01:45 | 51.47161 | 9.54121 | 77° | 73km/h | 1293m | -5.4m/s | 14.9°C | 89% | 873hPa | 2.7V | 08:00:19 | 02:43:20 | 00:00:00 | |
| HSKMA3-T | 2026-09-04 13:01:34 | 51.47129 | 9.53803 | 80° | 75km/h | 1355m | -6.4m/s | 14.5°C | 87.3% | 866.7hPa | 2.7V | 08:01:10 | 02:43:09 | 00:00:00 | |
| HSKMA3-T | 2026-09-04 13:01:23 | 51.47103 | 9.53482 | 84° | 71km/h | 1422m | -6.4m/s | 13.8°C | 89.8% | 859.8hPa | 2.6V | 08:01:10 | 02:42:58 | 00:00:00 | |
| BIOWL1-15 | 2026-09-04 13:01:23 | 51.47099 | 9.53423 | 83° | 75km/h | 1435m | -6m/s | 0°C | 0% | 0hPa | 2.7V | 18:12:15 | 02:42:56 | 00:00:00 | |
| HSKMA3-T | 2026-09-04 13:01:12 | 51.47076 | 9.53163 | 87° | 71km/h | 1490m | -6.4m/s | 13.1°C | 94% | 852.9hPa | 2.7V | 08:01:10 | 02:42:47 | 00:00:00 | |
| DB0DAN | 2026-09-04 13:01:10 | 51.47075 | 9.53104 | 88° | 71km/h | 1502m | -6.4m/s | 13°C | 89.1% | 851.61hPa | 2.7V | 00:00:00 | 00:00:00 | 00:00:00 | |
| HSKMA3-T | 2026-09-04 13:01:02 | 51.47058 | 9.52875 | 83° | 68km/h | 1551m | -6.3m/s | 12.8°C | 92.1% | 846.7hPa | 2.7V | 08:01:10 | 02:42:37 | 00:00:00 | |
| BIOWL1-15 | 2026-09-04 13:00:56 | 51.47047 | 9.52705 | 82° | 71km/h | 1584m | -5.5m/s | 12.5°C | 93.8% | 0hPa | 2.7V | 08:01:10 | 02:42:31 | 00:00:00 | |
| DB0DAN | 2026-09-04 13:00:55 | 51.47045 | 9.52676 | 83° | 68km/h | 1590m | -5.7m/s | 12.4°C | 88.5% | 842.65hPa | 2.7V | 00:00:00 | 00:00:00 | 00:00:00 | |
| BIOWL1-15 | 2026-09-04 13:00:54 | 51.47043 | 9.52648 | 84° | 71km/h | 1596m | -6.2m/s | 12.4°C | 95.2% | 0hPa | 2.6V | 08:01:10 | 02:42:29 | 00:00:00 | |
| BIOWL1-15 | 2026-09-04 13:00:52 | 51.47039 | 9.52590 | 84° | 73km/h | 1608m | -6m/s | 0°C | 0% | 0hPa | 2.7V | 08:01:10 | 02:42:27 | 00:00:00 | |
| BIOWL1-15 | 2026-09-04 13:00:51 | 51.47037 | 9.52560 | 83° | 75km/h | 1614m | -5.8m/s | 0°C | 0% | 0hPa | 2.7V | 08:01:10 | 02:42:26 | 00:00:00 | |
| BIOWL1-15 | 2026-09-04 13:00:49 | 51.47031 | 9.52501 | 80° | 73km/h | 1625m | -5.7m/s | 0°C | 0% | 0hPa | 2.7V | 08:01:10 | 02:42:24 | 00:00:00 | |
| BIOWL1-15 | 2026-09-04 13:00:47 | 51.47025 | 9.52445 | 81° | 68km/h | 1636m | -5.6m/s | 0°C | 0% | 0hPa | 2.6V | 08:01:10 | 02:42:22 | 00:00:00 | |
| BIOWL1-15 | 2026-09-04 13:00:45 | 51.47021 | 9.52391 | 84° | 68km/h | 1647m | -5.5m/s | 0°C | 0% | 0hPa | 2.7V | 18:12:15 | 02:42:20 | 00:00:00 | |
| BIOWL1-15 | 2026-09-04 13:00:43 | 51.47017 | 9.52334 | 83° | 71km/h | 1658m | -5.1m/s | 0°C | 0% | 0hPa | 2.7V | 18:12:15 | 02:42:18 | 00:00:00 | |
| HSKMA3-T | 2026-09-04 13:00:41 | 51.47011 | 9.52277 | 80° | 71km/h | 1668m | -5m/s | 11.7°C | 96.3% | 834.9hPa | 2.7V | 08:02:01 | 02:42:16 | 00:00:00 | |
| DB0DAN | 2026-09-04 13:00:40 | 51.47008 | 9.52250 | 79° | 66km/h | 1674m | -5.5m/s | 11.6°C | 92.4% | 834.33hPa | 2.6V | 00:00:00 | 00:00:00 | 00:00:00 | |
| HSKMA3-T | 2026-09-04 13:00:30 | 51.46983 | 9.51976 | 82° | 68km/h | 1725m | -5.6m/s | 11.1°C | 99.7% | 829.2hPa | 2.7V | 08:02:01 | 02:42:05 | 00:00:00 | |
| BIOWL1-15 | 2026-09-04 13:00:28 | 51.46979 | 9.51920 | 85° | 71km/h | 1736m | -5.2m/s | 0°C | 0% | 0hPa | 2.7V | 18:12:15 | 02:42:03 | 00:00:00 | |
| DB0DAN | 2026-09-04 13:00:25 | 51.46972 | 9.51833 | 80° | 69km/h | 1751m | -5.1m/s | 10.9°C | 95.9% | 826.55hPa | 2.7V | 00:00:00 | 00:00:00 | 00:00:00 | |
| BIOWL1-15 | 2026-09-04 13:00:21 | 51.46959 | 9.51721 | 80° | 68km/h | 1771m | -4.5m/s | 0°C | 0% | 0hPa | 2.7V | 18:12:15 | 02:41:56 | 00:00:00 | |
| HSKMA3-T | 2026-09-04 13:00:20 | 51.46956 | 9.51694 | 82° | 68km/h | 1775m | -4.4m/s | 10.7°C | 99% | 824.2hPa | 2.7V | 08:02:01 | 02:41:55 | 00:00:00 | |
| SONCRA | 2026-09-04 13:00:19 | 51.46954 | 9.51667 | 83° | 69km/h | 1779m | -4.1m/s | 10.7°C | 97.2% | 823.6hPa | 2.6V | 00:00:00 | 00:00:00 | 00:00:00 | |
| DF2AP-13 | 2026-09-04 13:00:12 | 51.46938 | 9.51456 | 81° | 69km/h | 1813m | -4.6m/s | 10.4°C | 98.3% | 820.4hPa | 2.6V | 00:00:00 | 02:41:47 | 00:00:00 | |
| DL8OAI-8 | 2026-09-04 13:00:11 | 51.46939 | 9.51456 | 81° | 75km/h | 1813m | -4.7m/s | 10.4°C | 98.2% | 820.5hPa | 2.6V | 08:02:00 | 00:00:00 | 00:00:00 | |
| DB0DAN | 2026-09-04 13:00:10 | 51.46931 | 9.51398 | 78° | 69km/h | 1823m | -4.9m/s | 10.4°C | 98.2% | 819.6hPa | 2.6V | 00:00:00 | 00:00:00 | 00:00:00 | |
| HSKMA3-T | 2026-09-04 13:00:10 | 51.46928 | 9.51370 | 77° | 69km/h | 1828m | -4.9m/s | 10.4°C | 100% | 819.1hPa | 2.7V | 08:02:01 | 02:41:44 | 00:00:00 | |
| HSKMA3-T | 2026-09-04 12:59:59 | 51.46899 | 9.51100 | 80° | 75km/h | 1875m | -5.1m/s | 10.4°C | 100% | 814.3hPa | 2.7V | 08:02:01 | 02:41:34 | 00:00:00 | |
| DF2AP-13 | 2026-09-04 12:59:58 | 51.46896 | 9.51070 | 80° | 73km/h | 1880m | -4.6m/s | 10.3°C | 96.2% | 813.9hPa | 2.7V | 00:00:00 | 02:41:33 | 00:00:00 | |
| DB0DAN | 2026-09-04 12:59:55 | 51.46884 | 9.50982 | 77° | 69km/h | 1894m | -4.9m/s | 10.2°C | 97% | 812.61hPa | 2.7V | 00:00:00 | 00:00:00 | 00:00:00 | |
| SONCRA | 2026-09-04 12:59:49 | 51.46858 | 9.50779 | 76° | 71km/h | 1927m | -4.4m/s | 9.8°C | 100.0% | 809.3hPa | 2.6V | 00:00:00 | 00:00:00 | 00:00:00 | |
| DF2AP-13 | 2026-09-04 12:59:48 | 51.46858 | 9.50779 | 77° | 71km/h | 1927m | -4.3m/s | 9.8°C | 0% | 809.2hPa | 2.6V | 00:00:00 | 02:41:23 | 00:00:00 | |
| HSKMA3-T | 2026-09-04 12:59:48 | 51.46858 | 9.50779 | 76° | 71km/h | 1927m | -4.4m/s | 9.8°C | 100% | 809.3hPa | 2.7V | 08:02:52 | 02:41:23 | 00:00:00 | |
| DK9SH | 2026-09-04 12:59:41 | 51.46838 | 9.50612 | 84° | 75km/h | 1955m | -4.7m/s | 9.7°C | 0% | 806.8hPa | 2.6V | 00:00:00 | 00:00:00 | 00:00:00 | |
| DB0DAN | 2026-09-04 12:59:40 | 51.46834 | 9.50551 | 83° | 73km/h | 1965m | -5.6m/s | 9.6°C | 99.9% | 805.78hPa | 2.6V | 00:00:00 | 00:00:00 | 00:00:00 | |
| HSKMA3-T | 2026-09-04 12:59:37 | 51.46826 | 9.50457 | 82° | 78km/h | 1980m | -4.1m/s | 9.5°C | 100% | 804.4hPa | 2.7V | 08:02:52 | 02:41:12 | 00:00:00 | |
| HSKMA3-T | 2026-09-04 12:59:26 | 51.46781 | 9.50133 | 79° | 66km/h | 2035m | -5m/s | 9.2°C | 100% | 799hPa | 2.7V | 08:02:52 | 02:41:01 | 00:00:00 | |
| DB0DAN | 2026-09-04 12:59:25 | 51.46778 | 9.50107 | 79° | 62km/h | 2041m | -5.2m/s | 9.2°C | 100% | 798.56hPa | 2.7V | 00:00:00 | 00:00:00 | 00:00:00 | |
| HSKMA3-T | 2026-09-04 12:59:16 | 51.46744 | 9.49849 | 78° | 78km/h | 2084m | -5.9m/s | 9°C | 100% | 794.4hPa | 2.7V | 08:02:52 | 02:40:51 | 00:00:00 | |
| DB0DAN | 2026-09-04 12:59:10 | 51.46714 | 9.49663 | 73° | 75km/h | 2117m | -5.2m/s | 8.9°C | 100% | 791.27hPa | 2.7V | 00:00:00 | 00:00:00 | 00:00:00 | |
| HSKMA3-T | 2026-09-04 12:59:05 | 51.46684 | 9.49507 | 72° | 82km/h | 2141m | -4.8m/s | 8.9°C | 100% | 789hPa | 2.7V | 08:02:52 | 02:40:40 | 00:00:00 | |
| DL1ZP-14 | 2026-09-04 12:59:00 | 51.46643 | 9.49324 | 72° | 75km/h | 2178m | -5.2m/s | 8.6°C | 100.0% | 785.3hPa | 2.7V | 00:00:00 | 00:00:00 | 00:00:00 | |
| DB0DAN | 2026-09-04 12:58:55 | 51.46621 | 9.49201 | 73° | 78km/h | 2204m | -8m/s | 8.6°C | 100% | 783.07hPa | 2.7V | 00:00:00 | 00:00:00 | 00:00:00 | |
| HSKMA3-T | 2026-09-04 12:58:54 | 51.46615 | 9.49169 | 74° | 84km/h | 2212m | -8.5m/s | 8.6°C | 100% | 782.4hPa | 2.7V | 08:03:43 | 02:40:29 | 00:00:00 | |
| SONCRA | 2026-09-04 12:58:47 | 51.46566 | 9.48894 | 74° | 91km/h | 2266m | -6.8m/s | 8.7°C | 83.4% | 777.2hPa | 2.7V | 00:00:00 | 00:00:00 | 00:00:00 | |
| HSKMA3-T | 2026-09-04 12:58:43 | 51.46550 | 9.48785 | 77° | 91km/h | 2287m | -7.1m/s | 9.7°C | 70.7% | 775.2hPa | 2.7V | 08:03:43 | 02:40:18 | 00:00:00 | |
| HSKMA3-T | 2026-09-04 12:58:33 | 51.46505 | 9.48414 | 85° | 95km/h | 2360m | -7.5m/s | 8.3°C | 80.2% | 768.3hPa | 2.7V | 08:03:43 | 02:40:08 | 00:00:00 | |
| BIOWL1-15 | 2026-09-04 12:58:28 | 51.46495 | 9.48214 | 86° | 100km/h | 2397m | -6.9m/s | 0°C | 0% | 0hPa | 2.7V | 18:12:15 | 02:40:03 | 00:00:00 | |
| HSKMA3-T | 2026-09-04 12:58:23 | 51.46488 | 9.48016 | 88° | 97km/h | 2431m | -6.4m/s | 8.7°C | 66.5% | 761.8hPa | 2.7V | 08:03:43 | 02:39:58 | 00:00:00 | |
| HSKMA3-T | 2026-09-04 12:58:12 | 51.46485 | 9.47577 | 88° | 100km/h | 2499m | -5.6m/s | 9.1°C | 39.8% | 755.5hPa | 2.6V | 08:04:34 | 02:39:47 | 00:00:00 | |
| DB0DAN | 2026-09-04 12:58:10 | 51.46482 | 9.47497 | 86° | 91km/h | 2510m | -6m/s | 9°C | 35.2% | 754.51hPa | 2.7V | 00:00:00 | 00:00:00 | 00:00:00 | |
| HSKMA3-T | 2026-09-04 12:58:01 | 51.46477 | 9.47144 | 87° | 100km/h | 2563m | -5.5m/s | 8.7°C | 44.4% | 749.7hPa | 2.6V | 08:04:34 | 02:39:36 | 00:00:00 | |
| DL1ZP-14 | 2026-09-04 12:57:57 | 51.46472 | 9.46987 | 88° | 97km/h | 2585m | -5.5m/s | 8.6°C | 41.9% | 747.5hPa | 2.7V | 00:00:00 | 00:00:00 | 00:00:00 | |
| DB0DAN | 2026-09-04 12:57:55 | 51.46471 | 9.46908 | 88° | 93km/h | 2597m | -5.7m/s | 8.5°C | 42.5% | 746.6hPa | 2.7V | 00:00:00 | 00:00:00 | 00:00:00 | |
| HSKMA3-T | 2026-09-04 12:57:51 | 51.46468 | 9.46749 | 89° | 97km/h | 2620m | -5.5m/s | 8.3°C | 51.1% | 744.5hPa | 2.7V | 08:04:34 | 02:39:26 | 00:00:00 | |
| BIOWL1-15 | 2026-09-04 12:57:48 | 51.46464 | 9.46630 | 87° | 97km/h | 2637m | -6m/s | 0°C | 0% | 0hPa | 2.7V | 18:12:15 | 02:39:23 | 00:00:00 | |
| SONCRA | 2026-09-04 12:57:45 | 51.46462 | 9.46475 | 90° | 97km/h | 2658m | -5.5m/s | 8.0°C | 55.6% | 740.9hPa | 2.7V | 00:00:00 | 00:00:00 | 00:00:00 | |
| HSKMA3-T | 2026-09-04 12:57:41 | 51.46462 | 9.46353 | 90° | 100km/h | 2675m | -5.7m/s | 7.9°C | 68.5% | 739.5hPa | 2.7V | 08:04:34 | 02:39:16 | 00:00:00 | |
| DB0DAN | 2026-09-04 12:57:40 | 51.46462 | 9.46313 | 89° | 95km/h | 2680m | -5.8m/s | 7.8°C | 63% | 739.01hPa | 2.7V | 00:00:00 | 00:00:00 | 00:00:00 | |
| HSKMA3-T | 2026-09-04 12:57:30 | 51.46449 | 9.45904 | 88° | 100km/h | 2736m | -5.1m/s | 7.3°C | 78.5% | 734hPa | 2.7V | 08:04:34 | 02:39:05 | 00:00:00 | |
| BIOWL1-15 | 2026-09-04 12:57:29 | 51.46448 | 9.45783 | 91° | 100km/h | 2752m | -5.6m/s | 0°C | 0% | 0hPa | 2.7V | 18:12:15 | 02:39:02 | 00:00:00 | |
| DF2AP-13 | 2026-09-04 12:57:27 | 51.46447 | 9.45783 | 91° | 100km/h | 2752m | -5.6m/s | 7.2°C | 75.7% | 732.6hPa | 2.7V | 00:00:00 | 02:39:02 | 00:00:00 | |
| DL8OAI-8 | 2026-09-04 12:57:26 | 51.46447 | 9.45783 | 92° | 100km/h | 2752m | -5.6m/s | 7.2°C | 75.4% | 732.6hPa | 2.6V | 08:04:00 | 00:00:00 | 00:00:00 | |
| DB0DAN | 2026-09-04 12:57:25 | 51.46448 | 9.45700 | 89° | 99km/h | 2763m | -5.6m/s | 7.1°C | 78% | 731.69hPa | 2.6V | 00:00:00 | 00:00:00 | 00:00:00 | |
| HSKMA3-T | 2026-09-04 12:57:20 | 51.46446 | 9.45498 | 91° | 99km/h | 2790m | -5.4m/s | 6.9°C | 86.6% | 729.3hPa | 2.7V | 08:05:25 | 02:38:55 | 00:00:00 | |
| BIOWL1-15 | 2026-09-04 12:57:15 | 51.46447 | 9.45299 | 92° | 97km/h | 2818m | -5.6m/s | 0°C | 0% | 0hPa | 2.7V | 18:12:15 | 02:38:50 | 00:00:00 | |
| DK9SH | 2026-09-04 12:57:14 | 51.46447 | 9.45299 | 93° | 97km/h | 2818m | -5.6m/s | 0°C | 0% | 726.9hPa | 2.7V | 08:05:00 | 00:00:00 | 00:00:00 | |
| SONCRA | 2026-09-04 12:57:13 | 51.46449 | 9.45219 | 92° | 100km/h | 2829m | -5.3m/s | 6.6°C | 81.8% | 725.9hPa | 2.7V | 00:00:00 | 00:00:00 | 00:00:00 | |
| DB0DAN | 2026-09-04 12:57:10 | 51.46451 | 9.45095 | 91° | 97km/h | 2845m | -5.4m/s | 6.5°C | 82.3% | 724.47hPa | 2.7V | 00:00:00 | 00:00:00 | 00:00:00 | |
| HSKMA3-T | 2026-09-04 12:57:09 | 51.46451 | 9.45054 | 91° | 102km/h | 2850m | -4.9m/s | 6.4°C | 87.2% | 724hPa | 2.7V | 08:05:25 | 02:38:44 | 00:00:00 | |
| HSKMA3-T | 2026-09-04 12:56:58 | 51.46456 | 9.44602 | 92° | 102km/h | 2909m | -5.3m/s | 6.1°C | 91.8% | 718.9hPa | 2.7V | 08:05:25 | 02:38:33 | 00:00:00 | |
| DB0DAN | 2026-09-04 12:56:55 | 51.46457 | 9.44476 | 89° | 99km/h | 2925m | -5.4m/s | 6°C | 88.1% | 717.48hPa | 2.7V | 00:00:00 | 00:00:00 | 00:00:00 | |
| HSKMA3-T | 2026-09-04 12:56:47 | 51.46458 | 9.44141 | 92° | 104km/h | 2970m | -5.1m/s | 5.7°C | 89.3% | 713.5hPa | 2.7V | 08:05:25 | 02:38:22 | 00:00:00 | |
| DF2AP-13 | 2026-09-04 12:56:47 | 51.46458 | 9.44141 | 92° | 104km/h | 2970m | -5.1m/s | 5.7°C | 86.2% | 713.5hPa | 2.6V | 00:00:00 | 02:38:22 | 00:00:00 | |
| DL4XJ-10 | 2026-09-04 12:56:46 | 51.46459 | 9.44099 | 92° | 108km/h | 2976m | -5.7m/s | 4.9°C | 0% | 0hPa | 2.6V | 00:00:00 | 00:00:00 | 00:00:00 | |
| DL8OAI-8 | 2026-09-04 12:56:45 | 51.46459 | 9.44099 | 93° | 106km/h | 2975m | -5.7m/s | 5.7°C | 84.3% | 713.0hPa | 2.6V | 08:05:00 | 00:00:00 | 00:00:00 | |
| DB0NH | 2026-09-04 12:56:43 | 51.46460 | 9.43928 | 92° | 106km/h | 2998m | -5.1m/s | 5.6°C | 82.0% | 711.0hPa | 2.6V | 00:00:00 | 02:38:17 | 00:00:00 | |
| DB0DAN | 2026-09-04 12:56:40 | 51.46462 | 9.43844 | 93° | 100km/h | 3009m | -5.2m/s | 5.6°C | 76.2% | 710.18hPa | 2.7V | 00:00:00 | 00:00:00 | 00:00:00 | |
| HSKMA3-T | 2026-09-04 12:56:37 | 51.46464 | 9.43715 | 91° | 106km/h | 3025m | -6m/s | 5.7°C | 72.3% | 708.8hPa | 2.7V | 08:05:25 | 02:38:12 | 00:00:00 | |
| HSKMA3-T | 2026-09-04 12:56:26 | 51.46469 | 9.43249 | 92° | 102km/h | 3088m | -6m/s | 5.3°C | 86.7% | 703.4hPa | 2.6V | 08:06:16 | 02:38:01 | 00:00:00 | |
| DB0DAN | 2026-09-04 12:56:25 | 51.46471 | 9.43208 | 94° | 99km/h | 3094m | -6.1m/s | 5.2°C | 80.8% | 702.91hPa | 2.7V | 00:00:00 | 00:00:00 | 00:00:00 | |
| BIOWL1-15 | 2026-09-04 12:56:16 | 51.46486 | 9.42810 | 94° | 111km/h | 3146m | -5.4m/s | 0°C | 0% | 0hPa | 2.7V | 18:12:15 | 02:37:51 | 00:00:00 | |
| HSKMA3-T | 2026-09-04 12:56:15 | 51.46487 | 9.42765 | 93° | 111km/h | 3152m | -6m/s | 5.3°C | 70% | 698.1hPa | 2.7V | 08:06:16 | 02:37:50 | 00:00:00 | |
| HSKMA3-T | 2026-09-04 12:56:04 | 51.46507 | 9.42275 | 94° | 110km/h | 3216m | -5.6m/s | 5.1°C | 66.9% | 692.7hPa | 2.7V | 08:06:16 | 02:37:39 | 00:00:00 | |
| BIOWL1-15 | 2026-09-04 12:55:56 | 51.46526 | 9.41901 | 96° | 119km/h | 3264m | -5.7m/s | 0°C | 0% | 0hPa | 2.6V | 18:12:15 | 02:37:31 | 00:00:00 | |
| DB0DAN | 2026-09-04 12:55:55 | 51.46529 | 9.41853 | 96° | 113km/h | 3270m | -5.9m/s | 4.8°C | 61.2% | 688.22hPa | 2.6V | 00:00:00 | 00:00:00 | 00:00:00 | |
| HSKMA3-T | 2026-09-04 12:55:54 | 51.46533 | 9.41805 | 97° | 119km/h | 3276m | -5.4m/s | 4.7°C | 66.7% | 687.7hPa | 2.7V | 08:06:16 | 02:37:29 | 00:00:00 | |
| BIOWL1-15 | 2026-09-04 12:55:45 | 51.46561 | 9.41370 | 93° | 120km/h | 3326m | -5.4m/s | 0°C | 0% | 0hPa | 2.7V | 18:12:15 | 02:37:20 | 00:00:00 | |
| HSKMA3-T | 2026-09-04 12:55:43 | 51.46565 | 9.41274 | 94° | 117km/h | 3338m | -5.6m/s | 4.6°C | 65.6% | 682.5hPa | 2.7V | 08:06:16 | 02:37:18 | 00:00:00 | |
| DB0UT-7 | 2026-09-04 12:55:42 | 51.46567 | 9.41227 | 95° | 124km/h | 3344m | -6.1m/s | 4.5°C | 64.7% | 681.9hPa | 2.6V | 00:00:00 | 00:00:00 | 00:00:00 | |
| DB0DAN | 2026-09-04 12:55:40 | 51.46572 | 9.41128 | 94° | 115km/h | 3356m | -6.1m/s | 4.5°C | 70% | 681.04hPa | 2.6V | 00:00:00 | 00:00:00 | 00:00:00 | |
| DM0DOS-11 | 2026-09-04 12:55:36 | 51.46589 | 9.40685 | 93° | 122km/h | 3411m | -6.6m/s | 4.3°C | 68% | 676.6hPa | 2.7V | 08:06:25 | 02:37:06 | 00:00:00 | |
| BIOWL1-15 | 2026-09-04 12:55:33 | 51.46588 | 9.40685 | 93° | 122km/h | 3411m | -6.6m/s | 0°C | 0% | 0hPa | 2.7V | 18:12:15 | 02:37:06 | 00:00:00 | |
| HSKMA3-T | 2026-09-04 12:55:32 | 51.46587 | 9.40735 | 94° | 122km/h | 3405m | -6.4m/s | 4.4°C | 75.7% | 677.1hPa | 2.6V | 08:07:07 | 02:37:07 | 00:00:00 | |
| DK9SH | 2026-09-04 12:55:29 | 51.46590 | 9.40636 | 94° | 122km/h | 3418m | -6.3m/s | 0°C | 0% | 0hPa | 2.6V | 00:00:00 | 00:00:00 | 00:00:00 | |
| DL4XJ-10 | 2026-09-04 12:55:28 | 51.46593 | 9.40536 | 95° | 126km/h | 3431m | -5.8m/s | 3.4°C | 0% | 0hPa | 2.6V | 00:00:00 | 00:00:00 | 00:00:00 | |
| DF2AP-13 | 2026-09-04 12:55:27 | 51.46596 | 9.40486 | 95° | 128km/h | 3437m | -6.1m/s | 4.1°C | 69.1% | 674.5hPa | 2.6V | 00:00:00 | 02:37:02 | 00:00:00 | |
| DB0DAN | 2026-09-04 12:55:25 | 51.46600 | 9.40386 | 94° | 119km/h | 3449m | -6.2m/s | 4.1°C | 0% | 673.5hPa | 2.6V | 00:00:00 | 00:00:00 | 00:00:00 | |
| HSKMA3-T | 2026-09-04 12:55:21 | 51.46608 | 9.40184 | 93° | 126km/h | 3474m | -6.2m/s | 4°C | 71.2% | 671.3hPa | 2.7V | 08:07:07 | 02:36:56 | 00:00:00 | |
| DB0NH | 2026-09-04 12:55:14 | 51.46616 | 9.39826 | 93° | 130km/h | 3519m | -6.6m/s | 3.7°C | 64.9% | 667.6hPa | 2.7V | 00:00:00 | 02:36:49 | 00:00:00 | |
| DL1NUX | 2026-09-04 12:55:13 | 51.46622 | 9.39517 | 91° | 128km/h | 3557m | -6.2m/s | 3.5°C | 94.5% | 664.5hPa | 2.7V | 08:06:48 | 02:36:43 | 00:00:00 | |
| BIOWL1-15 | 2026-09-04 12:55:13 | 51.46617 | 9.39774 | 93° | 128km/h | 3526m | -6.2m/s | 0°C | 0% | 667.1hPa | 2.7V | 18:12:15 | 02:36:48 | 00:00:00 | |
| HSKMA3-T | 2026-09-04 12:55:11 | 51.46620 | 9.39671 | 92° | 128km/h | 3538m | -6.1m/s | 3.6°C | 94.2% | 666.1hPa | 2.6V | 08:07:07 | 02:36:46 | 00:00:00 | |
| SONCRA | 2026-09-04 12:55:09 | 51.46622 | 9.39517 | 91° | 126km/h | 3557m | -6.2m/s | 3.5°C | 93.9% | 664.5hPa | 2.7V | 00:00:00 | 00:00:00 | 00:00:00 | |
| DL4XJ-10 | 2026-09-04 12:55:08 | 51.46621 | 9.39517 | 92° | 130km/h | 3557m | -6.1m/s | 2.6°C | 0% | 0hPa | 2.7V | 00:00:00 | 00:00:00 | 00:00:00 | |
| DL1NUX | 2026-09-04 12:55:07 | 51.46625 | 9.39255 | 90° | 130km/h | 3588m | -7m/s | 3.3°C | 91.3% | 661.9hPa | 2.7V | 08:06:53 | 02:36:38 | 00:00:00 | |
| HSKMA3-T | 2026-09-04 12:55:00 | 51.46626 | 9.39097 | 91° | 130km/h | 3608m | -6.2m/s | 3.2°C | 95.6% | 660.3hPa | 2.7V | 08:07:07 | 02:36:35 | 00:00:00 | |
| BIOWL1-15 | 2026-09-04 12:54:58 | 51.46627 | 9.38887 | 90° | 128km/h | 3635m | -6.5m/s | 0°C | 0% | 658.1hPa | 2.7V | 18:12:15 | 02:36:31 | 00:00:00 | |
| DL1NUX | 2026-09-04 12:54:58 | 51.46627 | 9.38992 | 90° | 131km/h | 3622m | -7m/s | 3.1°C | 91.9% | 659.2hPa | 2.6V | 08:06:58 | 02:36:33 | 00:00:00 | |
| DL1NUX | 2026-09-04 12:54:58 | 51.46627 | 9.38729 | 90° | 130km/h | 3655m | -6.4m/s | 2.9°C | 91.9% | 656.6hPa | 2.7V | 08:07:03 | 02:36:28 | 00:00:00 | |
| DF2AP-13 | 2026-09-04 12:54:57 | 51.46627 | 9.38939 | 91° | 131km/h | 3629m | -6.3m/s | 3.0°C | 92.4% | 658.7hPa | 2.6V | 00:00:00 | 02:36:32 | 00:00:00 | |
| DB0DAN | 2026-09-04 12:54:55 | 51.46627 | 9.38835 | 90° | 124km/h | 3641m | -6.8m/s | 2.9°C | 0% | 657.58hPa | 2.7V | 00:00:00 | 00:00:00 | 00:00:00 | |
| DM0DOS-11 | 2026-09-04 12:54:54 | 51.46627 | 9.38571 | 90° | 130km/h | 3674m | -6m/s | 2.8°C | 85.2% | 655hPa | 2.6V | 08:07:06 | 02:36:25 | 00:00:00 | |
| SO1NDE-10 | 2026-09-04 12:54:53 | 51.46627 | 9.38729 | 91° | 133km/h | 3655m | -6.3m/s | 2.8°C | 91.9% | 656.6hPa | 2.7V | 00:00:00 | 02:36:28 | 00:00:00 | |
| DL1NUX | 2026-09-04 12:54:52 | 51.46627 | 9.38359 | 89° | 131km/h | 3701m | -7m/s | 2.7°C | 82% | 652.9hPa | 2.7V | 08:07:10 | 02:36:21 | 00:00:00 | |
| HSKMA3-T | 2026-09-04 12:54:49 | 51.46627 | 9.38518 | 90° | 130km/h | 3681m | -6.9m/s | 2.8°C | 88.7% | 654.4hPa | 2.7V | 08:07:07 | 02:36:24 | 00:00:00 | |
| DL1NUX | 2026-09-04 12:54:47 | 51.46627 | 9.38093 | 90° | 131km/h | 3734m | -6.2m/s | 2.6°C | 83.7% | 650.1hPa | 2.7V | 08:07:15 | 02:36:16 | 00:00:00 | |
| BIOWL1-15 | 2026-09-04 12:54:44 | 51.46627 | 9.38253 | 90° | 131km/h | 3714m | -7.1m/s | 0°C | 0% | 651.8hPa | 2.6V | 18:12:15 | 02:36:19 | 00:00:00 | |
| DB0UT-7 | 2026-09-04 12:54:42 | 51.46627 | 9.38146 | 90° | 135km/h | 3728m | -7.0m/s | 2.6°C | 82.6% | 650.7hPa | 2.6V | 00:00:00 | 00:00:00 | 00:00:00 | |
| DL1NUX | 2026-09-04 12:54:41 | 51.46627 | 9.37824 | 90° | 133km/h | 3769m | -6.5m/s | 2.5°C | 78.4% | 647.5hPa | 2.6V | 08:07:20 | 02:36:11 | 00:00:00 | |
| DB0DAN | 2026-09-04 12:54:40 | 51.46627 | 9.38039 | 90° | 128km/h | 3741m | -6.8m/s | 2.6°C | 0% | 649.61hPa | 2.7V | 00:00:00 | 00:00:00 | 00:00:00 | |
| DL3OBA | 2026-09-04 12:54:39 | 51.46627 | 9.38039 | 91° | 133km/h | 3741m | -6.8m/s | 2.6°C | 81.4% | 649.6hPa | 2.6V | 08:07:00 | 00:00:00 | 00:00:00 | |
| SONCRA | 2026-09-04 12:54:38 | 51.46627 | 9.37931 | 89° | 131km/h | 3755m | -6.9m/s | 2.5°C | 79.6% | 648.5hPa | 2.6V | 00:00:00 | 00:00:00 | 00:00:00 | |
| HSKMA3-T | 2026-09-04 12:54:38 | 51.46627 | 9.37931 | 90° | 133km/h | 3755m | -6.9m/s | 2.5°C | 85.1% | 648.5hPa | 2.7V | 08:07:58 | 02:36:13 | 00:00:00 | |
| BIOWL7-15 | 2026-09-04 12:54:36 | 51.46627 | 9.37877 | 90° | 133km/h | 3762m | -7.1m/s | 0°C | 0% | 0hPa | 2.6V | 00:00:00 | 00:00:00 | 00:00:00 | |
| DL1NUX | 2026-09-04 12:54:35 | 51.46626 | 9.37554 | 89° | 133km/h | 3803m | -6.6m/s | 2.3°C | 76.2% | 644.7hPa | 2.6V | 08:07:25 | 02:36:06 | 00:00:00 | |
| BIOWL1-15 | 2026-09-04 12:54:35 | 51.46626 | 9.37662 | 89° | 133km/h | 3789m | -6.4m/s | 0°C | 0% | 0hPa | 2.7V | 18:12:15 | 02:36:08 | 00:00:00 | |
| HSKMA3-T | 2026-09-04 12:54:27 | 51.46625 | 9.37337 | 90° | 135km/h | 3831m | -6.9m/s | 2.2°C | 78.7% | 642.7hPa | 2.7V | 08:07:58 | 02:36:02 | 00:00:00 | |
| DL1NUX | 2026-09-04 12:54:26 | 51.46625 | 9.37282 | 89° | 135km/h | 3837m | -6.8m/s | 2.1°C | 75% | 642.1hPa | 2.7V | 08:07:30 | 02:36:01 | 00:00:00 | |
| DB0DAN | 2026-09-04 12:54:25 | 51.46624 | 9.37227 | 89° | 131km/h | 3844m | -6.6m/s | 2.1°C | 0% | 641.5hPa | 2.7V | 00:00:00 | 00:00:00 | 00:00:00 | |
| DM0DOS-11 | 2026-09-04 12:54:23 | 51.46622 | 9.36950 | 88° | 137km/h | 3878m | -6.9m/s | 2°C | 69.5% | 638.9hPa | 2.7V | 08:07:36 | 02:35:55 | 00:00:00 | |
| BIOWL1-15 | 2026-09-04 12:54:23 | 51.46623 | 9.37006 | 89° | 137km/h | 3872m | -6.8m/s | 0°C | 0% | 0hPa | 2.7V | 18:12:15 | 02:35:56 | 00:00:00 | |
| SO1NDE-10 | 2026-09-04 12:54:22 | 51.46623 | 9.37061 | 90° | 139km/h | 3865m | -6.5m/s | 2.0°C | 74.0% | 639.9hPa | 2.7V | 00:00:00 | 02:35:57 | 00:00:00 | |
| DL1NUX | 2026-09-04 12:54:21 | 51.46619 | 9.36728 | 88° | 139km/h | 3906m | -6.6m/s | 1.9°C | 58% | 636.8hPa | 2.7V | 08:07:40 | 02:35:51 | 00:00:00 | |
| DL8OAI-8 | 2026-09-04 12:54:20 | 51.46623 | 9.37006 | 90° | 139km/h | 3872m | -6.8m/s | 2.0°C | 71.4% | 639.4hPa | 2.7V | 08:07:00 | 00:00:00 | 00:00:00 | |
| DL3OBA | 2026-09-04 12:54:19 | 51.46622 | 9.36950 | 90° | 137km/h | 3878m | -6.9m/s | 2.0°C | 68.9% | 638.9hPa | 2.7V | 08:07:00 | 00:00:00 | 00:00:00 | |
| DM0DOS-11 | 2026-09-04 12:54:18 | 51.46619 | 9.36672 | 89° | 137km/h | 3912m | -6.6m/s | 1.8°C | 57.2% | 636.3hPa | 2.7V | 08:07:41 | 02:35:50 | 00:00:00 | |
| HSKMA3-T | 2026-09-04 12:54:16 | 51.46619 | 9.36728 | 88° | 139km/h | 3906m | -6.6m/s | 1.9°C | 63.5% | 636.8hPa | 2.7V | 08:07:58 | 02:35:51 | 00:00:00 | |
| DB0NH | 2026-09-04 12:54:14 | 51.46618 | 9.36617 | 89° | 139km/h | 3919m | -6.6m/s | 1.8°C | 54.7% | 635.6hPa | 2.7V | 00:00:00 | 02:35:49 | 00:00:00 | |
| DB0UT-7 | 2026-09-04 12:54:12 | 51.46617 | 9.36505 | 89° | 139km/h | 3933m | -7.1m/s | 1.7°C | 54.0% | 634.5hPa | 2.7V | 00:00:00 | 02:35:47 | 00:00:00 | |
| DL1NUX | 2026-09-04 12:54:11 | 51.46613 | 9.36164 | 88° | 141km/h | 3976m | -7.1m/s | 1.6°C | 53.9% | 631.3hPa | 2.7V | 08:07:50 | 02:35:41 | 00:00:00 | |
| DB0DAN | 2026-09-04 12:54:10 | 51.46615 | 9.36392 | 89° | 133km/h | 3947m | -6.8m/s | 1.7°C | 0% | 633.53hPa | 2.6V | 00:00:00 | 00:00:00 | 00:00:00 | |
| SONCRA | 2026-09-04 12:54:07 | 51.46612 | 9.36164 | 88° | 139km/h | 3976m | -7.1m/s | 1.6°C | 53.4% | 631.3hPa | 2.7V | 00:00:00 | 00:00:00 | 00:00:00 | |
| DL1NUX | 2026-09-04 12:54:06 | 51.46609 | 9.35885 | 88° | 139km/h | 4010m | -7.1m/s | 1.3°C | 54.4% | 628.6hPa | 2.7V | 08:07:55 | 02:35:36 | 00:00:00 | |
| BIOWL1-15 | 2026-09-04 12:54:05 | 51.46609 | 9.35885 | 89° | 139km/h | 4010m | -7.1m/s | 0°C | 0% | 0hPa | 2.7V | 18:12:15 | 02:35:36 | 00:00:00 | |
| HSKMA3-T | 2026-09-04 12:54:05 | 51.46612 | 9.36108 | 88° | 139km/h | 3983m | -7.3m/s | 1.5°C | 59.9% | 630.8hPa | 2.5V | 08:07:58 | 02:35:40 | 00:00:00 | |
| DD1CC3-15 | 2026-09-04 12:54:04 | 51.46611 | 9.36108 | 89° | 139km/h | 3983m | -7.3m/s | 1.5°C | 53.4% | 630.8hPa | 2.7V | 08:07:00 | 00:00:00 | 00:00:00 | |
| DD1CC8 | 2026-09-04 12:54:03 | 51.46610 | 9.35941 | 88° | 139km/h | 4003m | -6.9m/s | 1.4°C | 53.9% | 629.1hPa | 2.7V | 00:00:00 | 00:00:00 | 00:00:00 | |
| DL1NUX | 2026-09-04 12:54:01 | 51.46605 | 9.35606 | 88° | 139km/h | 4047m | -8.7m/s | 1.1°C | 55% | 625.9hPa | 2.7V | 08:08:00 | 02:35:31 | 00:00:00 | |
| HSKMA3-T | 2026-09-04 12:53:55 | 51.46604 | 9.35550 | 89° | 137km/h | 4055m | -7.6m/s | 1°C | 61.3% | 625.2hPa | 2.7V | 08:08:49 | 02:35:30 | 00:00:00 | |
| DB0ND-19 | 2026-09-04 12:53:52 | 51.46601 | 9.35326 | 88° | 139km/h | 4086m | -7.6m/s | 0.8°C | 55.7% | 622.6hPa | 2.5V | 00:00:00 | 00:00:00 | 00:00:00 | |
| DL1NUX | 2026-09-04 12:53:51 | 51.46600 | 9.35326 | 88° | 141km/h | 4086m | -7.6m/s | 0.8°C | 56.3% | 622.6hPa | 2.5V | 08:08:05 | 02:35:26 | 00:00:00 | |
| BIOWL1-15 | 2026-09-04 12:53:51 | 51.46601 | 9.35326 | 88° | 141km/h | 4086m | -7.6m/s | 0°C | 0% | 0hPa | 2.5V | 18:12:15 | 02:35:26 | 00:00:00 | |
| HSKMA3-T | 2026-09-04 12:53:44 | 51.46588 | 9.34932 | 86° | 141km/h | 4143m | -8.2m/s | 0.4°C | 63.6% | 618.4hPa | 2.7V | 08:08:49 | 02:35:19 | 00:00:00 | |
| BIOWL1-15 | 2026-09-04 12:53:43 | 51.46582 | 9.34765 | 87° | 139km/h | 4168m | -9.6m/s | 0°C | 0% | 0hPa | 2.7V | 18:12:15 | 02:35:16 | 00:00:00 | |
| DL1NUX | 2026-09-04 12:53:41 | 51.46582 | 9.34765 | 87° | 139km/h | 4168m | -9.6m/s | 0.2°C | 57.7% | 616.5hPa | 2.7V | 08:08:15 | 02:35:16 | 00:00:00 | |
| DL8OAI-8 | 2026-09-04 12:53:41 | 51.46582 | 9.34765 | 88° | 139km/h | 4168m | -9.6m/s | 0.2°C | 57.1% | 616.5hPa | 2.7V | 08:08:00 | 00:00:00 | 00:00:00 | |
| BIOWL9-15 | 2026-09-04 12:53:39 | 51.46579 | 9.34652 | 87° | 137km/h | 4184m | -7.6m/s | 0°C | -1.0% | -1.0hPa | 2.7V | 00:00:00 | 00:00:00 | 00:00:00 | |
| DL3AQ-11 | 2026-09-04 12:53:37 | 51.46575 | 9.34540 | 88° | 137km/h | 4200m | -6.9m/s | -0.1°C | 58.1% | 614.0hPa | 2.7V | 00:00:00 | 00:00:00 | 00:00:00 | |
| DL1NUX | 2026-09-04 12:53:36 | 51.46564 | 9.34204 | 85° | 139km/h | 4250m | -8.2m/s | -0.5°C | 58.3% | 610.2hPa | 2.7V | 08:08:25 | 02:35:06 | 00:00:00 | |
| HSKMA3-T | 2026-09-04 12:53:34 | 51.46570 | 9.34372 | 87° | 139km/h | 4225m | -8.4m/s | -0.3°C | 65.6% | 612.2hPa | 2.5V | 08:08:49 | 02:35:09 | 00:00:00 | |
| DL1NUX | 2026-09-04 12:53:31 | 51.46553 | 9.33926 | 86° | 139km/h | 4290m | -8.3m/s | -0.8°C | 57.8% | 607.3hPa | 2.7V | 08:08:30 | 02:35:01 | 00:00:00 | |
| BIOWL1-15 | 2026-09-04 12:53:30 | 51.46562 | 9.34148 | 87° | 137km/h | 4258m | -7.4m/s | 0°C | 0% | 0hPa | 2.7V | 18:12:15 | 02:35:05 | 00:00:00 | |
| DF2AP-13 | 2026-09-04 12:53:27 | 51.46555 | 9.33981 | 86° | 137km/h | 4282m | -7.7m/s | -0.7°C | 59.1% | 607.8hPa | 2.6V | 00:00:00 | 02:35:02 | 00:00:00 | |
| DL1NUX | 2026-09-04 12:53:26 | 51.46543 | 9.33644 | 86° | 139km/h | 4330m | -8.1m/s | -1.1°C | 54.6% | 604.1hPa | 2.5V | 08:08:35 | 02:34:56 | 00:00:00 | |
| HSKMA3-T | 2026-09-04 12:53:24 | 51.46549 | 9.33813 | 87° | 137km/h | 4307m | -7.8m/s | -0.9°C | 60.9% | 605.9hPa | 2.7V | 08:08:49 | 02:34:59 | 00:00:00 | |
| BIOWL1-15 | 2026-09-04 12:53:22 | 51.46541 | 9.33588 | 87° | 141km/h | 4338m | -8m/s | 0°C | 0% | 0hPa | 2.7V | 18:12:15 | 02:34:55 | 00:00:00 | |
| SO1NDE-10 | 2026-09-04 12:53:22 | 51.46545 | 9.33701 | 88° | 137km/h | 4322m | -7.1m/s | -1.0°C | 55.2% | 604.7hPa | 2.5V | 00:00:00 | 02:34:57 | 00:00:00 | |
| DL1NUX | 2026-09-04 12:53:21 | 51.46532 | 9.33363 | 86° | 137km/h | 4369m | -7.4m/s | -1.3°C | 52.9% | 601.3hPa | 2.5V | 08:08:40 | 02:34:51 | 00:00:00 | |
| HSKMA3-T | 2026-09-04 12:53:13 | 51.46526 | 9.33196 | 86° | 137km/h | 4392m | -8.2m/s | -1.4°C | 58.9% | 599.5hPa | 2.7V | 08:08:49 | 02:34:48 | 00:00:00 | |
| DL1NUX | 2026-09-04 12:53:11 | 51.46522 | 9.33085 | 86° | 137km/h | 4407m | -7.4m/s | -1.5°C | 52.9% | 598.3hPa | 2.6V | 08:08:45 | 02:34:46 | 00:00:00 | |
| DL1NUX | 2026-09-04 12:53:11 | 51.46510 | 9.32810 | 85° | 137km/h | 4447m | -8.5m/s | -1.8°C | 53.7% | 595.4hPa | 2.7V | 08:08:50 | 02:34:41 | 00:00:00 | |
| BIOWL1-15 | 2026-09-04 12:53:09 | 51.46517 | 9.32975 | 87° | 137km/h | 4424m | -7.4m/s | 0°C | 0% | 0hPa | 2.5V | 18:12:15 | 02:34:44 | 00:00:00 | |
| HSKMA3-T | 2026-09-04 12:53:03 | 51.46500 | 9.32588 | 87° | 137km/h | 4479m | -7.7m/s | -2°C | 62.3% | 593hPa | 2.7V | 08:09:40 | 02:34:37 | 00:00:00 | |
| DD1CC3-15 | 2026-09-04 12:53:02 | 51.46503 | 9.32644 | 87° | 139km/h | 4471m | -8.0m/s | -2.0°C | 54.7% | 593.6hPa | 2.7V | 00:00:00 | 00:00:00 | 00:00:00 | |
| DL1NUX | 2026-09-04 12:53:01 | 51.46498 | 9.32533 | 86° | 137km/h | 4488m | -8.8m/s | -2.1°C | 57% | 592.5hPa | 2.7V | 08:08:55 | 02:34:36 | 00:00:00 | |
| DL1NUX | 2026-09-04 12:53:01 | 51.46488 | 9.32255 | 86° | 139km/h | 4529m | -8.6m/s | -2.4°C | 63.9% | 589.4hPa | 2.6V | 08:09:00 | 02:34:31 | 00:00:00 | |
| DD1CC8 | 2026-09-04 12:53:00 | 51.46496 | 9.32478 | 86° | 137km/h | 4496m | -8.4m/s | -2.1°C | 55.7% | 591.7hPa | 2.7V | 00:00:00 | 00:00:00 | 00:00:00 | |
| DL8OAI-8 | 2026-09-04 12:52:59 | 51.46496 | 9.32477 | 88° | 139km/h | 4496m | -8.4m/s | -2.1°C | 55.7% | 591.7hPa | 2.7V | 08:09:00 | 00:00:00 | 00:00:00 | |
| DF2AP-13 | 2026-09-04 12:52:57 | 51.46490 | 9.32311 | 87° | 137km/h | 4520m | -8.6m/s | -2.3°C | 61.7% | 589.8hPa | 2.7V | 00:00:00 | 02:34:32 | 00:00:00 | |
| DL1NUX | 2026-09-04 12:52:56 | 51.46479 | 9.31979 | 86° | 135km/h | 4569m | -8.4m/s | -2.7°C | 64.3% | 586.4hPa | 2.7V | 08:09:05 | 02:34:26 | 00:00:00 | |
| DB0DAN | 2026-09-04 12:52:55 | 51.46487 | 9.32200 | 88° | 130km/h | 4537m | -7.8m/s | 0°C | 0% | 0hPa | 2.6V | 00:00:00 | 00:00:00 | 00:00:00 | |
| HSKMA3-T | 2026-09-04 12:52:52 | 51.46481 | 9.32034 | 88° | 135km/h | 4561m | -7.6m/s | -2.6°C | 70.5% | 586.9hPa | 2.5V | 08:09:40 | 02:34:27 | 00:00:00 | |
| SO1NDE-10 | 2026-09-04 12:52:52 | 51.46481 | 9.32034 | 88° | 137km/h | 4562m | -7.5m/s | -2.6°C | 64.3% | 586.9hPa | 2.5V | 00:00:00 | 02:34:27 | 00:00:00 | |
| DL1NUX | 2026-09-04 12:52:51 | 51.46469 | 9.31704 | 87° | 135km/h | 4610m | -7.4m/s | -3°C | 63.6% | 583.3hPa | 2.5V | 08:09:10 | 02:34:21 | 00:00:00 | |
| DB0ND-19 | 2026-09-04 12:52:49 | 51.46475 | 9.31869 | 87° | 135km/h | 4585m | -7.6m/s | -2.8°C | 63.4% | 585.1hPa | 2.5V | 00:00:00 | 00:00:00 | 00:00:00 | |
| DL1ZP-14 | 2026-09-04 12:52:47 | 51.46469 | 9.31704 | 87° | 135km/h | 4610m | -7.4m/s | -3.0°C | 62.7% | 583.3hPa | 2.5V | 00:00:00 | 00:00:00 | 00:00:00 | |
| DL1NUX | 2026-09-04 12:52:46 | 51.46459 | 9.31430 | 86° | 137km/h | 4649m | -8.5m/s | -3.2°C | 62% | 580.5hPa | 2.5V | 08:09:15 | 02:34:16 | 00:00:00 | |
| DL3AQ-11 | 2026-09-04 12:52:45 | 51.46465 | 9.31594 | 86° | 135km/h | 4626m | -8.5m/s | -3.1°C | 62.7% | 582.2hPa | 2.6V | 00:00:00 | 00:00:00 | 00:00:00 | |
| HSKMA3-T | 2026-09-04 12:52:42 | 51.46461 | 9.31484 | 87° | 135km/h | 4641m | -7.5m/s | -3.2°C | 72.5% | 581.1hPa | 2.6V | 08:09:40 | 02:34:17 | 00:00:00 | |
| DB0UT-7 | 2026-09-04 12:52:42 | 51.46461 | 9.31484 | 87° | 137km/h | 4641m | -7.5m/s | -3.1°C | 66.3% | 581.0hPa | 2.5V | 00:00:00 | 00:00:00 | 00:00:00 | |
| DD1CC3-15 | 2026-09-04 12:52:41 | 51.46461 | 9.31484 | 88° | 135km/h | 4641m | -7.5m/s | -3.2°C | 65.4% | 581.1hPa | 2.5V | 00:00:00 | 00:00:00 | 00:00:00 | |
| DB0DAN | 2026-09-04 12:52:40 | 51.46457 | 9.31375 | 87° | 130km/h | 4658m | -7.9m/s | 0°C | 0% | 0hPa | 2.5V | 00:00:00 | 00:00:00 | 00:00:00 | |
| BIOWL1-15 | 2026-09-04 12:52:38 | 51.46452 | 9.31211 | 87° | 137km/h | 4682m | -7.8m/s | 0°C | 0% | 0hPa | 2.6V | 18:12:15 | 02:34:12 | 00:00:00 | |
| AM1SDL-15 | 2026-09-04 12:52:37 | 51.46450 | 9.31156 | 88° | 137km/h | 4689m | -7.6m/s | -3.5°C | 68.1% | 577.5hPa | 2.6V | 00:00:00 | 02:34:11 | 00:00:00 | |
| DL1NUX | 2026-09-04 12:52:36 | 51.46441 | 9.30881 | 86° | 137km/h | 4729m | -8.5m/s | -3.9°C | 71.6% | 574.6hPa | 2.6V | 08:09:25 | 02:34:06 | 00:00:00 | |
| HSKMA3-T | 2026-09-04 12:52:31 | 51.46441 | 9.30881 | 86° | 137km/h | 4729m | -8.5m/s | -3.9°C | 77.4% | 574.6hPa | 2.6V | 08:09:40 | 02:34:06 | 00:00:00 | |
| BIOWL7-15 | 2026-09-04 12:52:30 | 51.46441 | 9.30881 | 87° | 137km/h | 4729m | -8.5m/s | 0°C | 0% | 0hPa | 2.6V | 00:00:00 | 00:00:00 | 00:00:00 | |
| BIOWL1-15 | 2026-09-04 12:52:30 | 51.46435 | 9.30715 | 87° | 137km/h | 4753m | -8.5m/s | 0°C | 0% | 0hPa | 2.6V | 18:12:15 | 02:34:03 | 00:00:00 | |
| DD1CC8 | 2026-09-04 12:52:29 | 51.46437 | 9.30770 | 87° | 135km/h | 4745m | -7.6m/s | -4.1°C | 71.3% | 573.4hPa | 2.6V | 00:00:00 | 00:00:00 | 00:00:00 | |
| DL1NUX | 2026-09-04 12:52:26 | 51.46431 | 9.30604 | 87° | 137km/h | 4769m | -7.9m/s | -4.2°C | 66.6% | 571.7hPa | 2.6V | 08:09:30 | 02:34:01 | 00:00:00 | |
| DL1NUX | 2026-09-04 12:52:26 | 51.46421 | 9.30326 | 86° | 139km/h | 4809m | -8.3m/s | -4.5°C | 65.3% | 568.7hPa | 2.6V | 08:09:35 | 02:33:56 | 00:00:00 | |
| AM1SDL-15 | 2026-09-04 12:52:24 | 51.46427 | 9.30492 | 87° | 139km/h | 4785m | -8.1m/s | -4.3°C | 65.4% | 570.4hPa | 2.6V | 00:00:00 | 02:33:59 | 00:00:00 | |
| SO1NDE-10 | 2026-09-04 12:52:22 | 51.46423 | 9.30382 | 87° | 139km/h | 4801m | -8.4m/s | -4.4°C | 64.7% | 569.2hPa | 2.6V | 00:00:00 | 02:33:57 | 00:00:00 | |
| DL1NUX | 2026-09-04 12:52:21 | 51.46412 | 9.30048 | 87° | 139km/h | 4850m | -8m/s | -4.7°C | 64.2% | 565.8hPa | 2.6V | 08:09:40 | 02:33:51 | 00:00:00 | |
| HSKMA3-T | 2026-09-04 12:52:20 | 51.46419 | 9.30270 | 87° | 139km/h | 4818m | -8.1m/s | -4.5°C | 71% | 568.1hPa | 2.6V | 08:09:40 | 02:33:55 | 00:00:00 | |
| DO3DL | 2026-09-04 12:52:19 | 51.46419 | 9.30270 | 88° | 139km/h | 4818m | -8.1m/s | -4.5°C | 64.3% | 568.1hPa | 2.6V | 08:09:00 | 00:00:00 | 00:00:00 | |
| DB0ND-19 | 2026-09-04 12:52:18 | 51.46416 | 9.30160 | 86° | 137km/h | 4834m | -8.7m/s | -4.6°C | 63.9% | 567.0hPa | 2.6V | 00:00:00 | 00:00:00 | 00:00:00 | |
| DL8OAI-8 | 2026-09-04 12:52:17 | 51.46416 | 9.30160 | 88° | 137km/h | 4834m | -8.7m/s | -4.6°C | 63.9% | 567.0hPa | 2.6V | 08:09:00 | 00:00:00 | 00:00:00 | |
| DL1NUX | 2026-09-04 12:52:16 | 51.46403 | 9.29769 | 85° | 141km/h | 4895m | -8.7m/s | -5°C | 61% | 562.6hPa | 2.6V | 08:09:45 | 02:33:46 | 00:00:00 | |
| DL1ZP-14 | 2026-09-04 12:52:16 | 51.46411 | 9.29993 | 86° | 137km/h | 4858m | -8.1m/s | -4.8°C | 61.4% | 565.1hPa | 2.6V | 00:00:00 | 00:00:00 | 00:00:00 | |
| DB0NH | 2026-09-04 12:52:14 | 51.46409 | 9.29937 | 87° | 141km/h | 4866m | -9.6m/s | -4.8°C | 63.0% | 564.5hPa | 2.5V | 00:00:00 | 02:33:49 | 00:00:00 | |
| DB0UT-7 | 2026-09-04 12:52:12 | 51.46405 | 9.29825 | 87° | 141km/h | 4886m | -9.7m/s | -4.9°C | 59.1% | 563.3hPa | 2.6V | 00:00:00 | 02:33:47 | 00:00:00 | |
| DL1NUX | 2026-09-04 12:52:11 | 51.46392 | 9.29486 | 86° | 141km/h | 4939m | -10.9m/s | -5.5°C | 72.5% | 559.4hPa | 2.6V | 08:09:50 | 02:33:41 | 00:00:00 | |
| HSKMA3-T | 2026-09-04 12:52:09 | 51.46399 | 9.29656 | 87° | 139km/h | 4912m | -8.3m/s | -5.2°C | 71.6% | 561.3hPa | 2.6V | 08:10:31 | 02:33:44 | 00:00:00 | |
| DL3OBA | 2026-09-04 12:52:07 | 51.46397 | 9.29599 | 87° | 141km/h | 4920m | -8.8m/s | -5.3°C | 66.8% | 560.7hPa | 2.6V | 08:10:00 | 00:00:00 | 00:00:00 | |
| DL1NUX | 2026-09-04 12:52:06 | 51.46381 | 9.29205 | 86° | 141km/h | 4994m | -11.9m/s | -5.9°C | 82.7% | 555.7hPa | 2.6V | 08:09:55 | 02:33:36 | 00:00:00 | |
| HSKMA3-T | 2026-09-04 12:51:59 | 51.46376 | 9.29091 | 85° | 141km/h | 5017m | -12m/s | -6.1°C | 88.3% | 554hPa | 2.6V | 08:10:31 | 02:33:34 | 00:00:00 | |
| DD1CC8 | 2026-09-04 12:51:58 | 51.46374 | 9.29034 | 85° | 141km/h | 5029m | -11.9m/s | -6.2°C | 85.5% | 553.1hPa | 2.6V | 00:00:00 | 00:00:00 | 00:00:00 | |
| DL1NUX | 2026-09-04 12:51:57 | 51.46360 | 9.28694 | 86° | 142km/h | 5105m | -9.8m/s | -6.9°C | 92% | 547.8hPa | 2.6V | 08:10:04 | 02:33:27 | 00:00:00 | |
| HSKMA3-T | 2026-09-04 12:51:48 | 51.46351 | 9.28466 | 86° | 141km/h | 5144m | -9.7m/s | -7.2°C | 95.9% | 545hPa | 2.6V | 08:10:31 | 02:33:23 | 00:00:00 | |
| DB0ND-19 | 2026-09-04 12:51:47 | 51.46347 | 9.28353 | 86° | 141km/h | 5163m | -9.7m/s | -7.3°C | 88.0% | 543.6hPa | 2.5V | 00:00:00 | 00:00:00 | 00:00:00 | |
| DL1NUX | 2026-09-04 12:51:47 | 51.46338 | 9.28126 | 85° | 141km/h | 5202m | -10.5m/s | -7.5°C | 85% | 540.8hPa | 2.6V | 08:10:14 | 02:33:17 | 00:00:00 | |
| DL1ZP-14 | 2026-09-04 12:51:44 | 51.46342 | 9.28239 | 85° | 141km/h | 5182m | -10.0m/s | -7.4°C | 84.8% | 542.2hPa | 2.5V | 00:00:00 | 00:00:00 | 00:00:00 | |
| HSKMA3-T | 2026-09-04 12:51:38 | 51.46328 | 9.27899 | 86° | 141km/h | 5241m | -9.7m/s | -7.5°C | 67.4% | 538.1hPa | 2.5V | 08:10:31 | 02:33:13 | 00:00:00 | |
| DL4XJ-10 | 2026-09-04 12:51:38 | 51.46328 | 9.27899 | 86° | 142km/h | 5241m | -9.6m/s | -8.2°C | 0% | 0hPa | 2.6V | 00:00:00 | 00:00:00 | 00:00:00 | |
| DL1NUX | 2026-09-04 12:51:37 | 51.46313 | 9.27557 | 85° | 142km/h | 5298m | -10.1m/s | -7.8°C | 54.9% | 534.1hPa | 2.6V | 08:10:24 | 02:33:07 | 00:00:00 | |
| HSKMA3-T | 2026-09-04 12:51:28 | 51.46303 | 9.27328 | 86° | 142km/h | 5337m | -10.2m/s | -7.8°C | 51.2% | 531.5hPa | 2.6V | 08:10:31 | 02:33:03 | 00:00:00 | |
| DF2AP-13 | 2026-09-04 12:51:27 | 51.46300 | 9.27271 | 86° | 142km/h | 5347m | -10.1m/s | -7.8°C | 43.5% | 530.8hPa | 2.6V | 00:00:00 | 02:33:02 | 00:00:00 | |
| AM1SDL-15 | 2026-09-04 12:51:26 | 51.46297 | 9.27213 | 86° | 142km/h | 5357m | -10.0m/s | -7.8°C | 43.3% | 530.1hPa | 2.6V | 00:00:00 | 02:33:01 | 00:00:00 | |
| DL3AQ-11 | 2026-09-04 12:51:25 | 51.46292 | 9.27099 | 85° | 141km/h | 5377m | -10.4m/s | -8.1°C | 48.4% | 528.9hPa | 2.6V | 00:00:00 | 00:00:00 | 00:00:00 | |
| SO1NDE-10 | 2026-09-04 12:51:22 | 51.46287 | 9.26984 | 86° | 142km/h | 5397m | -10.2m/s | -8.2°C | 59.7% | 527.5hPa | 2.6V | 00:00:00 | 02:32:57 | 00:00:00 | |
| DD1CC3-15 | 2026-09-04 12:51:19 | 51.46281 | 9.26869 | 86° | 142km/h | 5417m | -10.2m/s | -8.3°C | 60.4% | 526.2hPa | 2.6V | 08:11:00 | 00:00:00 | 00:00:00 | |
| DL4XJ-10 | 2026-09-04 12:51:18 | 51.46277 | 9.26754 | 86° | 142km/h | 5437m | -10.1m/s | -9.1°C | 0% | 0hPa | 2.6V | 00:00:00 | 00:00:00 | 00:00:00 | |
| DL1NUX | 2026-09-04 12:51:17 | 51.46260 | 9.26408 | 85° | 144km/h | 5496m | -9.6m/s | -8.8°C | 61.3% | 521.1hPa | 2.6V | 08:10:44 | 02:32:47 | 00:00:00 | |
| HSKMA3-T | 2026-09-04 12:51:17 | 51.46274 | 9.26697 | 86° | 142km/h | 5447m | -9.9m/s | -8.5°C | 67.8% | 524.3hPa | 2.6V | 08:11:22 | 02:32:52 | 00:00:00 | |
| DL8OAI-8 | 2026-09-04 12:51:15 | 51.46271 | 9.26639 | 87° | 142km/h | 5457m | -10.0m/s | -8.6°C | 61.8% | 523.6hPa | 2.6V | 08:11:00 | 00:00:00 | 00:00:00 | |
| DL3AQ-11 | 2026-09-04 12:51:14 | 51.46263 | 9.26466 | 85° | 142km/h | 5486m | -10.1m/s | -8.8°C | 61.6% | 521.7hPa | 2.6V | 00:00:00 | 00:00:00 | 00:00:00 | |
| DL1ZP-14 | 2026-09-04 12:51:13 | 51.46263 | 9.26466 | 85° | 142km/h | 5486m | -10.1m/s | -8.8°C | 61.6% | 521.7hPa | 2.6V | 00:00:00 | 00:00:00 | 00:00:00 | |
| DB0UT-7 | 2026-09-04 12:51:12 | 51.46260 | 9.26408 | 86° | 142km/h | 5496m | -9.6m/s | -8.8°C | 61.3% | 521.0hPa | 2.6V | 00:00:00 | 02:32:47 | 00:00:00 | |
| DO3DL | 2026-09-04 12:51:11 | 51.46260 | 9.26408 | 86° | 144km/h | 5496m | -9.6m/s | -8.8°C | 60.0% | 521.1hPa | 2.6V | 08:11:00 | 00:00:00 | 00:00:00 | |
| DL1NUX | 2026-09-04 12:51:07 | 51.46239 | 9.25833 | 86° | 141km/h | 5588m | -10.1m/s | -9.4°C | 59.3% | 514.7hPa | 2.6V | 08:10:54 | 02:32:37 | 00:00:00 | |
| HSKMA3-T | 2026-09-04 12:51:06 | 51.46247 | 9.26061 | 87° | 141km/h | 5551m | -9.1m/s | -9.2°C | 61.9% | 517.2hPa | 2.5V | 08:11:22 | 02:32:41 | 00:00:00 | |
| DO3DL | 2026-09-04 12:51:05 | 51.46247 | 9.26061 | 88° | 141km/h | 5552m | -9.1m/s | -9.2°C | 55.5% | 517.2hPa | 2.6V | 08:11:00 | 00:00:00 | 00:00:00 | |
| HARRO8 | 2026-09-04 12:51:04 | 51.46239 | 9.25833 | 86° | 141km/h | 5588m | -10.1m/s | -9.4°C | 58.1% | 514.7hPa | 2.6V | 00:00:00 | 00:00:00 | 00:00:00 | |
| AM1SDL-15 | 2026-09-04 12:51:02 | 51.46239 | 9.25833 | 87° | 141km/h | 5588m | -10.1m/s | -9.3°C | 59.3% | 514.7hPa | 2.6V | 00:00:00 | 02:32:37 | 00:00:00 | |
| DL9SK-14 | 2026-09-04 12:51:00 | 51.46235 | 9.25719 | 86° | 141km/h | 5607m | -10.3m/s | -9.5°C | 56.8% | 513.4hPa | 2.6V | 00:00:00 | 00:00:00 | 00:00:00 | |
| DL3AQ-11 | 2026-09-04 12:50:58 | 51.46229 | 9.25548 | 86° | 141km/h | 5637m | -10.1m/s | -9.7°C | 53.0% | 511.5hPa | 2.6V | 00:00:00 | 00:00:00 | 00:00:00 | |
| DL1NUX | 2026-09-04 12:50:57 | 51.46221 | 9.25261 | 87° | 142km/h | 5686m | -10.2m/s | -10.1°C | 58% | 508.4hPa | 2.6V | 08:11:04 | 02:32:27 | 00:00:00 | |
| HSKMA3-T | 2026-09-04 12:50:55 | 51.46226 | 9.25433 | 87° | 142km/h | 5656m | -10.1m/s | -9.8°C | 61.4% | 510.3hPa | 2.5V | 08:11:22 | 02:32:30 | 00:00:00 | |
| DO2JMG | 2026-09-04 12:50:48 | 51.46216 | 9.25029 | 88° | 144km/h | 5726m | -9.8m/s | -10.3°C | 66.1% | 505.9hPa | 2.6V | 08:13:04 | 02:32:23 | 00:00:00 | |
| DF7PN | 2026-09-04 12:50:46 | 51.46213 | 9.24912 | 87° | 144km/h | 5745m | -10.1m/s | -10.4°C | 60.7% | 504.6hPa | 2.6V | 00:00:00 | 00:00:00 | 00:00:00 | |
| DL3AQ-11 | 2026-09-04 12:50:45 | 51.46211 | 9.24795 | 88° | 144km/h | 5765m | -10.0m/s | -10.5°C | 57.9% | 503.3hPa | 2.6V | 00:00:00 | 00:00:00 | 00:00:00 | |
| DM0DOS-11 | 2026-09-04 12:50:44 | 51.46209 | 9.24678 | 89° | 144km/h | 5784m | -9.7m/s | -10.5°C | 59% | 502hPa | 2.6V | 08:11:14 | 02:32:17 | 00:00:00 | |
| HSKMA3-T | 2026-09-04 12:50:44 | 51.46211 | 9.24795 | 88° | 144km/h | 5765m | -10m/s | -10.5°C | 64.2% | 503.3hPa | 2.6V | 08:11:22 | 02:32:19 | 00:00:00 | |
| DB0NH | 2026-09-04 12:50:44 | 51.46211 | 9.24795 | 89° | 146km/h | 5765m | -10.0m/s | -10.4°C | 59.2% | 503.2hPa | 2.6V | 00:00:00 | 02:32:19 | 00:00:00 | |
| DB0UT-7 | 2026-09-04 12:50:42 | 51.46209 | 9.24677 | 90° | 146km/h | 5784m | -9.6m/s | -10.5°C | 59.0% | 502.0hPa | 2.6V | 08:11:00 | 00:00:00 | 00:00:00 | |
| DO3DL | 2026-09-04 12:50:39 | 51.46208 | 9.24561 | 90° | 142km/h | 5803m | -9.5m/s | -10.6°C | 58.1% | 500.8hPa | 2.6V | 08:11:00 | 00:00:00 | 00:00:00 | |
| DL4XJ-10 | 2026-09-04 12:50:38 | 51.46208 | 9.24446 | 90° | 146km/h | 5822m | -10.1m/s | -11.4°C | 0% | 0hPa | 2.6V | 00:00:00 | 00:00:00 | 00:00:00 | |
| DD1CC3-15 | 2026-09-04 12:50:37 | 51.46208 | 9.24446 | 90° | 142km/h | 5822m | -10.1m/s | -10.8°C | 58.7% | 499.5hPa | 2.6V | 08:11:00 | 00:00:00 | 00:00:00 | |
| DO2KSM | 2026-09-04 12:50:35 | 51.46206 | 9.24330 | 90° | 144km/h | 5842m | -10.1m/s | -10.9°C | 59.6% | 498.3hPa | 2.6V | 08:11:00 | 00:00:00 | 00:00:00 | |
| DM0DOS-11 | 2026-09-04 12:50:33 | 51.46205 | 9.24096 | 88° | 146km/h | 5882m | -10m/s | -11.2°C | 61.8% | 495.8hPa | 2.6V | 08:11:24 | 02:32:07 | 00:00:00 | |
| HSKMA3-T | 2026-09-04 12:50:33 | 51.46205 | 9.24155 | 89° | 144km/h | 5872m | -10.1m/s | -11.2°C | 67.1% | 496.4hPa | 2.5V | 08:12:13 | 02:32:08 | 00:00:00 | |
| HARRO8 | 2026-09-04 12:50:32 | 51.46204 | 9.24037 | 89° | 146km/h | 5891m | -9.8m/s | -11.3°C | 60.6% | 495.1hPa | 2.5V | 00:00:00 | 00:00:00 | 00:00:00 | |
| DL9SK-14 | 2026-09-04 12:50:30 | 51.46205 | 9.23919 | 91° | 144km/h | 5910m | -9.1m/s | -11.5°C | 62.0% | 493.9hPa | 2.5V | 00:00:00 | 00:00:00 | 00:00:00 | |
| AM1SDL-15 | 2026-09-04 12:50:27 | 51.46207 | 9.23743 | 91° | 146km/h | 5938m | -9.4m/s | -11.6°C | 61.5% | 492.0hPa | 2.5V | 00:00:00 | 02:32:01 | 00:00:00 | |
| DD1CC8 | 2026-09-04 12:50:25 | 51.46208 | 9.23685 | 90° | 144km/h | 5947m | -9.8m/s | -11.7°C | 59.4% | 491.4hPa | 2.5V | 00:00:00 | 00:00:00 | 00:00:00 | |
| DM0DOS-11 | 2026-09-04 12:50:24 | 51.46209 | 9.23510 | 90° | 146km/h | 5976m | -9.7m/s | -11.9°C | 59.8% | 489.5hPa | 2.5V | 08:11:34 | 02:31:57 | 00:00:00 | |
| DO2JMG | 2026-09-04 12:50:24 | 51.46209 | 9.23627 | 90° | 144km/h | 5957m | -10m/s | -11.8°C | 64.9% | 490.8hPa | 2.6V | 08:13:04 | 02:31:59 | 00:00:00 | |
| HSKMA3-T | 2026-09-04 12:50:23 | 51.46209 | 9.23568 | 90° | 146km/h | 5966m | -9.8m/s | -11.9°C | 64.6% | 490.1hPa | 2.5V | 08:12:13 | 02:31:58 | 00:00:00 | |
| SO1NDE-10 | 2026-09-04 12:50:22 | 51.46209 | 9.23510 | 91° | 146km/h | 5976m | -9.6m/s | -11.9°C | 59.8% | 489.5hPa | 2.6V | 00:00:00 | 02:31:57 | 00:00:00 | |
| DO3DL | 2026-09-04 12:50:20 | 51.46210 | 9.23450 | 91° | 148km/h | 5986m | -10.0m/s | -12.0°C | 58.7% | 489.0hPa | 2.6V | 08:12:00 | 00:00:00 | 00:00:00 | |
| DL3AQ-11 | 2026-09-04 12:50:18 | 51.46210 | 9.23213 | 89° | 146km/h | 6024m | -9.5m/s | -12.3°C | 63.2% | 486.5hPa | 2.6V | 00:00:00 | 00:00:00 | 00:00:00 | |
| DO9LL-15 | 2026-09-04 12:50:16 | 51.46210 | 9.23153 | 90° | 148km/h | 6034m | -9.4m/s | -12.3°C | 66.4% | 485.8hPa | 2.6V | 00:00:00 | 02:31:51 | 00:00:00 | |
| DF7PN | 2026-09-04 12:50:15 | 51.46209 | 9.23034 | 89° | 146km/h | 6053m | -9.6m/s | -12.5°C | 63.7% | 484.7hPa | 2.6V | 00:00:00 | 00:00:00 | 00:00:00 | |
| DB0NH | 2026-09-04 12:50:14 | 51.46209 | 9.23034 | 90° | 146km/h | 6053m | -9.6m/s | -12.4°C | 65.3% | 484.6hPa | 2.6V | 00:00:00 | 02:31:49 | 00:00:00 | |
| DM0DOS-11 | 2026-09-04 12:50:13 | 51.46209 | 9.22915 | 89° | 148km/h | 6072m | -9.6m/s | -12.6°C | 61.8% | 483.5hPa | 2.6V | 08:11:44 | 02:31:47 | 00:00:00 | |
| HSKMA3-T | 2026-09-04 12:50:12 | 51.46209 | 9.22915 | 90° | 148km/h | 6073m | -9.6m/s | -12.6°C | 65.8% | 483.5hPa | 2.6V | 08:12:13 | 02:31:47 | 00:00:00 | |
| DB0UT-7 | 2026-09-04 12:50:12 | 51.46209 | 9.22915 | 90° | 146km/h | 6073m | -9.6m/s | -12.6°C | 61.8% | 483.4hPa | 2.6V | 00:00:00 | 02:31:47 | 00:00:00 | |
| DL1ZP-14 | 2026-09-04 12:50:11 | 51.46209 | 9.22855 | 90° | 146km/h | 6082m | -9.8m/s | -12.7°C | 56.5% | 482.9hPa | 2.6V | 00:00:00 | 00:00:00 | 00:00:00 | |
| DL1NUX | 2026-09-04 12:50:07 | 51.46209 | 9.22320 | 90° | 146km/h | 6169m | -9.2m/s | -13.2°C | 57.3% | 477.5hPa | 2.5V | 08:11:54 | 02:31:37 | 00:00:00 | |
| HSKMA3-T | 2026-09-04 12:50:02 | 51.46209 | 9.22320 | 90° | 146km/h | 6169m | -9.3m/s | -13.2°C | 61.6% | 477.5hPa | 2.5V | 08:12:13 | 02:31:37 | 00:00:00 | |
| DO3DL | 2026-09-04 12:50:01 | 51.46209 | 9.22261 | 92° | 146km/h | 6179m | -9.2m/s | -13.3°C | 56.1% | 476.9hPa | 2.5V | 08:12:00 | 00:00:00 | 00:00:00 | |
| DL4XJ-10 | 2026-09-04 12:49:58 | 51.46210 | 9.22086 | 91° | 148km/h | 6206m | -9.0m/s | -14.2°C | 0% | 0hPa | 2.5V | 00:00:00 | 00:00:00 | 00:00:00 | |
| DF2AP-13 | 2026-09-04 12:49:57 | 51.46210 | 9.22028 | 91° | 148km/h | 6215m | -9.3m/s | -13.6°C | 58.4% | 474.4hPa | 2.5V | 00:00:00 | 02:31:32 | 00:00:00 | |
| DD1CC3-15 | 2026-09-04 12:49:56 | 51.46210 | 9.22028 | 91° | 144km/h | 6215m | -9.4m/s | -13.6°C | 56.8% | 474.4hPa | 2.5V | 08:12:00 | 00:00:00 | 00:00:00 | |
| DB0DAN | 2026-09-04 12:49:55 | 51.46211 | 9.21911 | 90° | 137km/h | 6233m | -9.5m/s | -13.8°C | 56.5% | 473.31hPa | 2.5V | 00:00:00 | 00:00:00 | 00:00:00 | |
| HSKMA3-T | 2026-09-04 12:49:52 | 51.46211 | 9.21735 | 90° | 146km/h | 6262m | -9.9m/s | -14°C | 61.2% | 471.5hPa | 2.6V | 08:12:13 | 02:31:27 | 00:00:00 | |
| SO1NDE-10 | 2026-09-04 12:49:52 | 51.46211 | 9.21735 | 90° | 150km/h | 6262m | -9.9m/s | -14.0°C | 57.6% | 471.5hPa | 2.5V | 00:00:00 | 02:31:27 | 00:00:00 | |
| DL1NUX | 2026-09-04 12:49:47 | 51.46209 | 9.21136 | 88° | 151km/h | 6359m | -10m/s | -14.3°C | 45.6% | 465.5hPa | 2.5V | 08:12:14 | 02:31:17 | 00:00:00 | |
| HSKMA3-T | 2026-09-04 12:49:42 | 51.46208 | 9.21136 | 89° | 151km/h | 6359m | -10m/s | -14.3°C | 49.3% | 465.5hPa | 2.5V | 08:13:04 | 02:31:17 | 00:00:00 | |
| DB0UT-7 | 2026-09-04 12:49:42 | 51.46208 | 9.21136 | 89° | 150km/h | 6359m | -9.9m/s | -14.2°C | 45.6% | 465.5hPa | 2.6V | 00:00:00 | 00:00:00 | 00:00:00 | |
| DB0DAN | 2026-09-04 12:49:40 | 51.46207 | 9.21014 | 89° | 144km/h | 6378m | -9.7m/s | -14.4°C | 46.4% | 464.35hPa | 2.6V | 00:00:00 | 00:00:00 | 00:00:00 | |
| DL4XJ-10 | 2026-09-04 12:49:38 | 51.46206 | 9.20892 | 89° | 150km/h | 6397m | -10.2m/s | -15.2°C | 0% | 0hPa | 2.6V | 00:00:00 | 00:00:00 | 00:00:00 | |
| DL1NUX | 2026-09-04 12:49:37 | 51.46204 | 9.20530 | 88° | 150km/h | 6457m | -11.2m/s | -14.8°C | 40.6% | 459.6hPa | 2.6V | 08:12:24 | 02:31:07 | 00:00:00 | |
| BIOWL1-15 | 2026-09-04 12:49:36 | 51.46205 | 9.20771 | 89° | 150km/h | 6418m | -10.1m/s | 0°C | 0% | 0hPa | 2.5V | 18:12:15 | 02:31:11 | 00:00:00 | |
| HSKMA3-T | 2026-09-04 12:49:31 | 51.46203 | 9.20470 | 90° | 148km/h | 6469m | -12.9m/s | -14.9°C | 45.1% | 459hPa | 2.6V | 08:13:04 | 02:31:06 | 00:00:00 | |
| HARRO8 | 2026-09-04 12:49:30 | 51.46203 | 9.20350 | 88° | 148km/h | 6495m | -12.3m/s | -15.0°C | 34.2% | 457.2hPa | 2.6V | 00:00:00 | 00:00:00 | 00:00:00 | |
| DL1NUX | 2026-09-04 12:49:27 | 51.46202 | 9.19928 | 89° | 150km/h | 6569m | -10.6m/s | -15.4°C | 36.3% | 452.7hPa | 2.6V | 08:12:34 | 02:30:57 | 00:00:00 | |
| HSKMA3-T | 2026-09-04 12:49:21 | 51.46202 | 9.19867 | 90° | 150km/h | 6579m | -10.3m/s | -15.5°C | 40.4% | 452.1hPa | 2.6V | 08:13:04 | 02:30:56 | 00:00:00 | |
| DO3DL | 2026-09-04 12:49:20 | 51.46202 | 9.19807 | 91° | 148km/h | 6589m | -10.9m/s | -15.6°C | 34.2% | 451.5hPa | 2.5V | 08:13:00 | 00:00:00 | 00:00:00 | |
| DL4XJ-10 | 2026-09-04 12:49:18 | 51.46203 | 9.19688 | 91° | 150km/h | 6611m | -9.8m/s | -16.4°C | 0% | 0hPa | 2.5V | 00:00:00 | 00:00:00 | 00:00:00 | |
| DL1NUX | 2026-09-04 12:49:17 | 51.46209 | 9.19329 | 90° | 150km/h | 6670m | -9.7m/s | -16.1°C | 36.1% | 446.8hPa | 2.5V | 08:12:44 | 02:30:47 | 00:00:00 | |
| HSKMA3-T | 2026-09-04 12:49:11 | 51.46210 | 9.19269 | 90° | 150km/h | 6679m | -9.9m/s | -16.2°C | 40.6% | 446.2hPa | 2.6V | 08:13:04 | 02:30:46 | 00:00:00 | |
| DO2JMG | 2026-09-04 12:49:08 | 51.46211 | 9.19087 | 91° | 150km/h | 6710m | -10.3m/s | -16.4°C | 40.9% | 444.4hPa | 2.5V | 08:13:04 | 02:30:43 | 00:00:00 | |
| DL1NUX | 2026-09-04 12:49:07 | 51.46218 | 9.18724 | 91° | 150km/h | 6767m | -9.8m/s | -16.9°C | 36.4% | 441hPa | 2.5V | 08:12:54 | 02:30:37 | 00:00:00 | |
| BIOWL1-15 | 2026-09-04 12:49:01 | 51.46219 | 9.18663 | 92° | 150km/h | 6777m | -9.6m/s | 0°C | 0% | 0hPa | 2.5V | 08:13:04 | 02:30:36 | 00:00:00 | |
| HSKMA3-T | 2026-09-04 12:49:01 | 51.46220 | 9.18603 | 92° | 150km/h | 6786m | -9.6m/s | -17°C | 39.7% | 439.8hPa | 2.6V | 08:13:04 | 02:30:35 | 00:00:00 | |
| BIOWL9-15 | 2026-09-04 12:49:00 | 51.46223 | 9.18481 | 91° | 150km/h | 6805m | -9.6m/s | 0°C | -1.0% | -1.0hPa | 2.6V | 00:00:00 | 00:00:00 | 00:00:00 | |
| DL3AQ-11 | 2026-09-04 12:48:58 | 51.46224 | 9.18420 | 92° | 150km/h | 6815m | -9.8m/s | -17.2°C | 33.3% | 438.2hPa | 2.6V | 00:00:00 | 00:00:00 | 00:00:00 | |
| DL1NUX | 2026-09-04 12:48:57 | 51.46233 | 9.18116 | 92° | 150km/h | 6864m | -10.4m/s | -17.4°C | 32.3% | 435.4hPa | 2.6V | 08:13:04 | 02:30:27 | 00:00:00 | |
| DO2JMG | 2026-09-04 12:48:50 | 51.46236 | 9.17996 | 93° | 148km/h | 6884m | -9.9m/s | -17.5°C | 35.9% | 434.2hPa | 2.5V | 08:14:46 | 02:30:25 | 00:00:00 | |
| BIOWL1-15 | 2026-09-04 12:48:49 | 51.46242 | 9.17816 | 93° | 148km/h | 6913m | -9.5m/s | 0°C | 0% | 0hPa | 2.5V | 18:12:15 | 02:30:22 | 00:00:00 | |
| HSKMA3-T | 2026-09-04 12:48:49 | 51.46238 | 9.17936 | 93° | 148km/h | 6893m | -9.6m/s | -17.6°C | 35.7% | 433.6hPa | 2.6V | 08:13:55 | 02:30:24 | 00:00:00 | |
| DK9SH | 2026-09-04 12:48:48 | 51.46238 | 9.17936 | 94° | 148km/h | 6893m | -9.6m/s | -17.6°C | 31.2% | 433.6hPa | 2.5V | 08:13:00 | 00:00:00 | 00:00:00 | |
| DL1NUX | 2026-09-04 12:48:47 | 51.46249 | 9.17519 | 91° | 148km/h | 6962m | -10.2m/s | -18.1°C | 32.7% | 429.8hPa | 2.5V | 08:13:14 | 02:30:17 | 00:00:00 | |
| HSKMA3-T | 2026-09-04 12:48:39 | 51.46253 | 9.17341 | 91° | 146km/h | 6991m | -9.8m/s | -18.3°C | 35% | 428.1hPa | 2.6V | 08:13:55 | 02:30:14 | 00:00:00 | |
| DM0DOS-11 | 2026-09-04 12:48:38 | 51.46254 | 9.17163 | 90° | 146km/h | 7022m | -10.8m/s | -18.5°C | 29% | 426.4hPa | 2.5V | 08:13:20 | 02:30:11 | 00:00:00 | |
| DL1NUX | 2026-09-04 12:48:37 | 51.46255 | 9.16926 | 90° | 148km/h | 7063m | -9.8m/s | -18.5°C | 20.7% | 424.2hPa | 2.6V | 08:13:24 | 02:30:07 | 00:00:00 | |
| DO2JMG | 2026-09-04 12:48:37 | 51.46254 | 9.17223 | 90° | 148km/h | 7012m | -10.4m/s | -18.5°C | 32.9% | 427hPa | 2.6V | 08:14:46 | 02:30:12 | 00:00:00 | |
| BIOWL1-15 | 2026-09-04 12:48:28 | 51.46255 | 9.16629 | 89° | 148km/h | 7112m | -10m/s | 0°C | 0% | 0hPa | 2.6V | 18:12:15 | 02:30:02 | 00:00:00 | |
| HSKMA3-T | 2026-09-04 12:48:28 | 51.46256 | 9.16688 | 90° | 148km/h | 7102m | -9.9m/s | -18.4°C | 20.1% | 421.9hPa | 2.6V | 08:13:55 | 02:30:03 | 00:00:00 | |
| DO2JMG | 2026-09-04 12:48:17 | 51.46250 | 9.16036 | 91° | 144km/h | 7212m | -9.4m/s | -19°C | 20.8% | 415.9hPa | 2.6V | 08:14:46 | 02:29:52 | 00:00:00 | |
| BIOWL1-15 | 2026-09-04 12:48:14 | 51.46252 | 9.15862 | 90° | 142km/h | 7241m | -9.8m/s | -19.2°C | 19.7% | 414.2hPa | 2.5V | 08:14:46 | 02:29:49 | 00:00:00 | |
| HSKMA3-T | 2026-09-04 12:48:06 | 51.46253 | 9.15402 | 90° | 141km/h | 7322m | -11.1m/s | -19.5°C | 15.9% | 409.7hPa | 2.6V | 08:13:55 | 02:29:41 | 00:00:00 | |
| BIOWL1-15 | 2026-09-04 12:47:58 | 51.46256 | 9.14948 | 91° | 141km/h | 7406m | -10m/s | -20.3°C | 13.2% | 405.1hPa | 2.5V | 08:14:46 | 02:29:33 | 00:00:00 | |
| DF8AY | 2026-09-04 12:47:57 | 51.46256 | 9.14892 | 91° | 141km/h | 7415m | -9.7m/s | -20.3°C | 12.8% | 404.5hPa | 2.5V | 08:15:37 | 02:29:32 | 00:00:00 | |
| HSKMA3-T | 2026-09-04 12:47:56 | 51.46256 | 9.14835 | 90° | 141km/h | 7425m | -10.1m/s | -20.4°C | 13.3% | 404hPa | 2.5V | 08:14:46 | 02:29:31 | 00:00:00 | |
| DL9SK-14 | 2026-09-04 12:47:54 | 51.46255 | 9.14665 | 89° | 139km/h | 7455m | -10.7m/s | -20.6°C | 10.8% | 402.4hPa | 2.6V | 00:00:00 | 00:00:00 | 00:00:00 | |
| DL3AQ-11 | 2026-09-04 12:47:53 | 51.46255 | 9.14665 | 89° | 139km/h | 7455m | -10.7m/s | -20.6°C | 10.8% | 402.4hPa | 2.6V | 00:00:00 | 00:00:00 | 00:00:00 | |
| DD1CC8 | 2026-09-04 12:47:50 | 51.46254 | 9.14440 | 90° | 137km/h | 7498m | -10.4m/s | -20.9°C | 10.5% | 400.2hPa | 2.6V | 00:00:00 | 00:00:00 | 00:00:00 | |
| DM0DOS-11 | 2026-09-04 12:47:48 | 51.46258 | 9.14164 | 91° | 137km/h | 7549m | -9.9m/s | -21.2°C | 9.5% | 397.4hPa | 2.6V | 08:14:12 | 02:29:19 | 00:00:00 | |
| DO2JMG | 2026-09-04 12:47:48 | 51.46255 | 9.14385 | 92° | 137km/h | 7509m | -10.3m/s | -20.9°C | 12.5% | 399.6hPa | 2.6V | 08:14:46 | 02:29:23 | 00:00:00 | |
| BIOWL1-15 | 2026-09-04 12:47:46 | 51.46256 | 9.14274 | 92° | 137km/h | 7529m | -9.7m/s | -21.1°C | 11% | 398.5hPa | 2.5V | 08:14:46 | 02:29:21 | 00:00:00 | |
| AU51GT2 | 2026-09-04 12:47:45 | 51.46257 | 9.14219 | 91° | 135km/h | 7539m | -9.9m/s | -21.1°C | 8.7% | 397.9hPa | 2.6V | 00:00:00 | 00:00:00 | 00:00:00 | |
| DB0NH | 2026-09-04 12:47:44 | 51.46258 | 9.14164 | 92° | 139km/h | 7549m | -9.9m/s | -21.1°C | 9.5% | 397.4hPa | 2.6V | 00:00:00 | 02:29:19 | 00:00:00 | |
| DD8BA-10 | 2026-09-04 12:47:42 | 51.46260 | 9.14053 | 92° | 137km/h | 7569m | -10.1m/s | -21.2°C | 9.4% | 396.3hPa | 2.5V | 08:14:00 | 00:00:00 | 00:00:00 | |
| DO9LL-15 | 2026-09-04 12:47:40 | 51.46262 | 9.13942 | 92° | 139km/h | 7589m | -9.8m/s | -21.3°C | 9.5% | 395.2hPa | 2.5V | 00:00:00 | 02:29:15 | 00:00:00 | |
| DB0ND-19 | 2026-09-04 12:47:39 | 51.46265 | 9.13831 | 91° | 137km/h | 7608m | -10.1m/s | -21.4°C | 8.9% | 394.1hPa | 2.5V | 00:00:00 | 00:00:00 | 00:00:00 | |
| DM0DOS-11 | 2026-09-04 12:47:38 | 51.46267 | 9.13607 | 90° | 137km/h | 7648m | -10.6m/s | -21.6°C | 10.5% | 391.9hPa | 2.5V | 08:14:22 | 02:29:09 | 00:00:00 | |
| HSKMA3-T | 2026-09-04 12:47:36 | 51.46266 | 9.13719 | 91° | 139km/h | 7629m | -10.4m/s | -21.5°C | 11.4% | 393.1hPa | 2.6V | 08:14:46 | 02:29:11 | 00:00:00 | |
| DL1NUX | 2026-09-04 12:47:35 | 51.46268 | 9.13496 | 91° | 137km/h | 7668m | -10.9m/s | -21.8°C | 10.6% | 390.9hPa | 2.6V | 08:14:24 | 02:29:07 | 00:00:00 | |
| BIOWL1-15 | 2026-09-04 12:47:35 | 51.46266 | 9.13663 | 91° | 139km/h | 7638m | -9.6m/s | -21.6°C | 11.8% | 392.5hPa | 2.6V | 08:14:46 | 02:29:10 | 00:00:00 | |
| DO2JMG | 2026-09-04 12:47:26 | 51.46273 | 9.13163 | 92° | 139km/h | 7729m | -10.1m/s | -22.3°C | 12.6% | 387.8hPa | 2.5V | 08:14:46 | 02:29:01 | 00:00:00 | |
| DL1NUX | 2026-09-04 12:47:25 | 51.46274 | 9.12938 | 90° | 139km/h | 7770m | -10.7m/s | -22.6°C | 11.8% | 385.6hPa | 2.5V | 08:14:34 | 02:28:57 | 00:00:00 | |
| BIOWL1-15 | 2026-09-04 12:47:25 | 51.46274 | 9.13107 | 91° | 139km/h | 7739m | -10.3m/s | -22.4°C | 13.3% | 387.2hPa | 2.5V | 08:14:46 | 02:29:00 | 00:00:00 | |
| AM1SDL-15 | 2026-09-04 12:47:24 | 51.46274 | 9.13050 | 91° | 139km/h | 7750m | -10.4m/s | -22.4°C | 11.7% | 386.6hPa | 2.6V | 00:00:00 | 02:28:59 | 00:00:00 | |
| SONCRA | 2026-09-04 12:47:23 | 51.46274 | 9.12994 | 89° | 139km/h | 7760m | -10.6m/s | -22.5°C | 10.7% | 386.1hPa | 2.6V | 00:00:00 | 00:00:00 | 00:00:00 | |
| SO1NDE-10 | 2026-09-04 12:47:22 | 51.46274 | 9.12938 | 91° | 141km/h | 7770m | -10.7m/s | -22.5°C | 11.8% | 385.6hPa | 2.6V | 00:00:00 | 02:28:57 | 00:00:00 | |
| DD8BA-10 | 2026-09-04 12:47:20 | 51.46274 | 9.12825 | 91° | 139km/h | 7791m | -10.4m/s | -22.6°C | 12.6% | 384.5hPa | 2.6V | 00:00:00 | 00:00:00 | 00:00:00 | |
| DD1CC8 | 2026-09-04 12:47:19 | 51.46276 | 9.12713 | 91° | 137km/h | 7812m | -9.9m/s | -22.8°C | 12.7% | 383.5hPa | 2.6V | 00:00:00 | 00:00:00 | 00:00:00 | |
| DL4XJ-10 | 2026-09-04 12:47:18 | 51.46275 | 9.12713 | 92° | 141km/h | 7812m | -9.9m/s | -23.5°C | 0% | 0hPa | 2.6V | 00:00:00 | 00:00:00 | 00:00:00 | |
| DL1NUX | 2026-09-04 12:47:17 | 51.46279 | 9.12373 | 90° | 139km/h | 7872m | -10.7m/s | -23.3°C | 17% | 380.3hPa | 2.6V | 08:14:44 | 02:28:47 | 00:00:00 | |
| HSKMA3-T | 2026-09-04 12:47:15 | 51.46278 | 9.12543 | 90° | 141km/h | 7841m | -10.3m/s | -23.1°C | 17.7% | 381.9hPa | 2.6V | 08:14:46 | 02:28:50 | 00:00:00 | |
| BIOWL1-15 | 2026-09-04 12:47:14 | 51.46278 | 9.12486 | 92° | 141km/h | 7851m | -11.1m/s | -23.1°C | 18.7% | 381.4hPa | 2.5V | 08:14:46 | 02:28:49 | 00:00:00 | |
| DF8AY | 2026-09-04 12:47:12 | 51.46279 | 9.12373 | 90° | 139km/h | 7872m | -10.7m/s | -23.3°C | 20% | 380.3hPa | 2.6V | 08:15:37 | 02:28:47 | 00:00:00 | |
| DB0NH | 2026-09-04 12:47:12 | 51.46279 | 9.12373 | 91° | 141km/h | 7873m | -10.7m/s | -23.2°C | 17.0% | 380.3hPa | 2.5V | 00:00:00 | 02:28:47 | 00:00:00 | |
| AM1SDL-15 | 2026-09-04 12:47:11 | 51.46279 | 9.12316 | 92° | 141km/h | 7883m | -10.3m/s | -23.3°C | 17.3% | 379.8hPa | 2.5V | 00:00:00 | 02:28:46 | 00:00:00 | |
| DD1CC3-15 | 2026-09-04 12:47:09 | 51.46280 | 9.12260 | 93° | 139km/h | 7893m | -10.3m/s | -23.5°C | 16.6% | 379.3hPa | 2.5V | 08:14:00 | 00:00:00 | 00:00:00 | |
| DB0ND-19 | 2026-09-04 12:47:08 | 51.46282 | 9.12089 | 90° | 141km/h | 7924m | -10.4m/s | -23.7°C | 17.1% | 377.6hPa | 2.5V | 00:00:00 | 00:00:00 | 00:00:00 | |
| DL1NUX | 2026-09-04 12:47:07 | 51.46284 | 9.11805 | 91° | 141km/h | 7976m | -10.5m/s | -24.2°C | 15.6% | 374.9hPa | 2.5V | 08:14:54 | 02:28:37 | 00:00:00 | |
| HSKMA3-T | 2026-09-04 12:47:04 | 51.46283 | 9.11918 | 90° | 141km/h | 7955m | -10.7m/s | -24°C | 21.3% | 376.1hPa | 2.6V | 08:15:37 | 02:28:39 | 00:00:00 | |
| BIOWL1-15 | 2026-09-04 12:47:03 | 51.46283 | 9.11862 | 91° | 139km/h | 7966m | -10.4m/s | -24.1°C | 19.9% | 375.6hPa | 2.6V | 08:16:28 | 02:28:38 | 00:00:00 | |
| DF8AY | 2026-09-04 12:46:59 | 51.46287 | 9.11635 | 90° | 141km/h | 8006m | -10.1m/s | -24.4°C | 17.9% | 373.4hPa | 2.6V | 08:15:37 | 02:28:34 | 00:00:00 | |
| DL3AQ-11 | 2026-09-04 12:46:58 | 51.46286 | 9.11520 | 88° | 141km/h | 8027m | -10.3m/s | -24.5°C | 18.4% | 372.4hPa | 2.5V | 00:00:00 | 00:00:00 | 00:00:00 | |
| DL1NUX | 2026-09-04 12:46:57 | 51.46288 | 9.11238 | 92° | 139km/h | 8078m | -10.3m/s | -24.9°C | 19.2% | 369.7hPa | 2.5V | 08:15:04 | 02:28:27 | 00:00:00 | |
| HSKMA3-T | 2026-09-04 12:46:54 | 51.46286 | 9.11351 | 91° | 139km/h | 8058m | -10.4m/s | -24.8°C | 23.6% | 370.8hPa | 2.6V | 08:15:37 | 02:28:29 | 00:00:00 | |
| BIOWL1-15 | 2026-09-04 12:46:53 | 51.46287 | 9.11294 | 92° | 139km/h | 8068m | -10.2m/s | -24.9°C | 23% | 370.2hPa | 2.6V | 08:16:28 | 02:28:28 | 00:00:00 | |
| DO2JMG | 2026-09-04 12:46:52 | 51.46288 | 9.11238 | 92° | 139km/h | 8078m | -10.3m/s | -24.9°C | 22.5% | 369.7hPa | 2.5V | 08:16:28 | 02:28:27 | 00:00:00 | |
| AA1-15 | 2026-09-04 12:46:51 | 51.46289 | 9.11182 | 92° | 139km/h | 8088m | -10.3m/s | -25°C | 22% | 369.2hPa | 2.5V | 08:15:37 | 02:28:26 | 00:00:00 | |
| DF8AY | 2026-09-04 12:46:48 | 51.46291 | 9.11011 | 91° | 139km/h | 8120m | -11.1m/s | -25.2°C | 22.2% | 367.6hPa | 2.6V | 08:15:37 | 02:28:23 | 00:00:00 | |
| DD1CC8 | 2026-09-04 12:46:48 | 51.46292 | 9.10955 | 91° | 139km/h | 8131m | -10.9m/s | -25.3°C | 17.6% | 367.1hPa | 2.6V | 00:00:00 | 00:00:00 | 00:00:00 | |
| DL1NUX | 2026-09-04 12:46:47 | 51.46296 | 9.10674 | 92° | 141km/h | 8180m | -9.9m/s | -25.8°C | 20.6% | 364.4hPa | 2.6V | 08:15:14 | 02:28:17 | 00:00:00 | |
| HSKMA3-T | 2026-09-04 12:46:44 | 51.46294 | 9.10787 | 92° | 139km/h | 8161m | -9.7m/s | -25.6°C | 22.9% | 365.5hPa | 2.5V | 08:15:37 | 02:28:19 | 00:00:00 | |
| DO2JMG | 2026-09-04 12:46:42 | 51.46296 | 9.10674 | 92° | 141km/h | 8180m | -9.9m/s | -25.8°C | 23.8% | 364.5hPa | 2.6V | 08:16:28 | 02:28:17 | 00:00:00 | |
| BIOWL1-15 | 2026-09-04 12:46:41 | 51.46297 | 9.10617 | 92° | 141km/h | 8189m | -9.9m/s | -25.9°C | 24.7% | 363.9hPa | 2.6V | 08:16:28 | 02:28:16 | 00:00:00 | |
| DF8AY | 2026-09-04 12:46:38 | 51.46299 | 9.10446 | 90° | 141km/h | 8219m | -10.3m/s | -26°C | 27.2% | 362.5hPa | 2.5V | 08:15:37 | 02:28:13 | 00:00:00 | |
| DL4XJ-10 | 2026-09-04 12:46:38 | 51.46299 | 9.10446 | 91° | 141km/h | 8219m | -10.2m/s | -26.7°C | 0% | 0hPa | 2.6V | 00:00:00 | 00:00:00 | 00:00:00 | |
| DL1NUX | 2026-09-04 12:46:37 | 51.46306 | 9.10104 | 92° | 142km/h | 8281m | -10.8m/s | -26.4°C | 23.4% | 359.5hPa | 2.6V | 08:15:24 | 02:28:07 | 00:00:00 | |
| HSKMA3-T | 2026-09-04 12:46:33 | 51.46304 | 9.10161 | 93° | 141km/h | 8270m | -10.1m/s | -26.3°C | 26.8% | 360.1hPa | 2.6V | 08:15:37 | 02:28:08 | 00:00:00 | |
| BIOWL1-15 | 2026-09-04 12:46:33 | 51.46311 | 9.09874 | 92° | 142km/h | 8322m | -10.6m/s | -26.8°C | 26.9% | 357.4hPa | 2.6V | 08:16:28 | 02:28:03 | 00:00:00 | |
| DO2JMG | 2026-09-04 12:46:31 | 51.46307 | 9.10047 | 92° | 142km/h | 8291m | -10.5m/s | -26.5°C | 26.8% | 359hPa | 2.5V | 08:16:28 | 02:28:06 | 00:00:00 | |
| AA1-15 | 2026-09-04 12:46:30 | 51.46308 | 9.09989 | 92° | 142km/h | 8301m | -10.4m/s | -26.6°C | 26.8% | 358.5hPa | 2.5V | 08:15:37 | 02:28:05 | 00:00:00 | |
| DD1CC3-15 | 2026-09-04 12:46:28 | 51.46309 | 9.09931 | 93° | 142km/h | 8311m | -10.1m/s | -26.7°C | 21.9% | 357.9hPa | 2.5V | 08:15:00 | 00:00:00 | 00:00:00 | |
| DF2AP-13 | 2026-09-04 12:46:27 | 51.46312 | 9.09817 | 93° | 137km/h | 8332m | -10.4m/s | -26.8°C | 23.7% | 357.0hPa | 2.5V | 00:00:00 | 02:28:02 | 00:00:00 | |
| DB0DAN | 2026-09-04 12:46:25 | 51.46315 | 9.09703 | 92° | 133km/h | 8352m | -10.1m/s | -27°C | 21.9% | 356.02hPa | 2.5V | 00:00:00 | 00:00:00 | 00:00:00 | |
| DF8AY | 2026-09-04 12:46:24 | 51.46317 | 9.09647 | 93° | 141km/h | 8362m | -9.8m/s | -27.1°C | 26.8% | 355.5hPa | 2.5V | 08:15:37 | 02:27:59 | 00:00:00 | |
| HSKMA3-T | 2026-09-04 12:46:22 | 51.46321 | 9.09533 | 93° | 142km/h | 8383m | -10.3m/s | -27.2°C | 26% | 354.5hPa | 2.6V | 08:15:37 | 02:27:57 | 00:00:00 | |
| DO2JMG | 2026-09-04 12:46:20 | 51.46325 | 9.09418 | 92° | 142km/h | 8404m | -10.6m/s | -27.4°C | 25% | 353.4hPa | 2.6V | 08:16:28 | 02:27:55 | 00:00:00 | |
| AA1-15 | 2026-09-04 12:46:19 | 51.46326 | 9.09361 | 92° | 141km/h | 8415m | -10.8m/s | -27.4°C | 24.1% | 353hPa | 2.5V | 08:15:37 | 02:27:54 | 00:00:00 | |
| DL4XJ-10 | 2026-09-04 12:46:18 | 51.46327 | 9.09304 | 93° | 137km/h | 8425m | -10.5m/s | -28.1°C | 0% | 0hPa | 2.6V | 00:00:00 | 00:00:00 | 00:00:00 | |
| DL1NUX | 2026-09-04 12:46:17 | 51.46336 | 9.08968 | 90° | 139km/h | 8486m | -10.2m/s | -27.6°C | 18.1% | 349.4hPa | 2.6V | 08:15:44 | 02:27:47 | 00:00:00 | |
| DF8AY | 2026-09-04 12:46:14 | 51.46333 | 9.09080 | 93° | 139km/h | 8466m | -10.2m/s | -27.6°C | 21.6% | 350.4hPa | 2.5V | 08:16:28 | 02:27:49 | 00:00:00 | |
| HSKMA3-T | 2026-09-04 12:46:12 | 51.46335 | 9.08968 | 90° | 139km/h | 8486m | -10.2m/s | -27.6°C | 21.2% | 349.4hPa | 2.6V | 08:16:28 | 02:27:47 | 00:00:00 | |
| DJ2KF-10 | 2026-09-04 12:46:12 | 51.46335 | 9.08968 | 91° | 133km/h | 8486m | -10.2m/s | -27.6°C | 18.1% | 349.4hPa | 2.5V | 00:00:00 | 02:27:47 | 00:00:00 | |
| AM1SDL-15 | 2026-09-04 12:46:09 | 51.46335 | 9.08799 | 91° | 135km/h | 8518m | -11.1m/s | -27.7°C | 17.7% | 347.8hPa | 2.5V | 00:00:00 | 02:27:44 | 00:00:00 | |
| DL1NUX | 2026-09-04 12:46:07 | 51.46337 | 9.08415 | 89° | 133km/h | 8594m | -11.2m/s | -28.1°C | 25.4% | 344.2hPa | 2.5V | 08:15:54 | 02:27:37 | 00:00:00 | |
| AA1-15 | 2026-09-04 12:46:06 | 51.46336 | 9.08634 | 91° | 135km/h | 8551m | -10.7m/s | -28°C | 21.8% | 346.3hPa | 2.6V | 08:18:10 | 02:27:41 | 00:00:00 | |
| DF8AY | 2026-09-04 12:46:03 | 51.46337 | 9.08469 | 90° | 135km/h | 8583m | -10.9m/s | -28.1°C | 25.9% | 344.7hPa | 2.5V | 08:16:28 | 02:27:38 | 00:00:00 | |
| HSKMA3-T | 2026-09-04 12:46:02 | 51.46337 | 9.08415 | 89° | 133km/h | 8594m | -11.2m/s | -28.1°C | 29.6% | 344.2hPa | 2.5V | 08:16:28 | 02:27:37 | 00:00:00 | |
| DK9SH | 2026-09-04 12:46:01 | 51.46337 | 9.08415 | 90° | 133km/h | 8594m | -11.2m/s | -28.1°C | 23.6% | 344.2hPa | 2.6V | 00:00:00 | 00:00:00 | 00:00:00 | |
| DO3DL | 2026-09-04 12:45:59 | 51.46337 | 9.08308 | 92° | 131km/h | 8617m | -10.6m/s | -28.3°C | 27.8% | 343.2hPa | 2.6V | 08:16:00 | 00:00:00 | 00:00:00 | |
| DL4XJ-10 | 2026-09-04 12:45:58 | 51.46338 | 9.08200 | 91° | 131km/h | 8639m | -10.4m/s | -29.1°C | 0% | 0hPa | 2.6V | 00:00:00 | 00:00:00 | 00:00:00 | |
| DL1NUX | 2026-09-04 12:45:57 | 51.46336 | 9.07880 | 90° | 131km/h | 8701m | -10.4m/s | -29°C | 30.6% | 339hPa | 2.6V | 08:16:04 | 02:27:27 | 00:00:00 | |
| BIOWL1-15 | 2026-09-04 12:45:53 | 51.46336 | 9.07933 | 91° | 131km/h | 8692m | -10m/s | -28.9°C | 34.9% | 339.6hPa | 2.5V | 08:16:28 | 02:27:28 | 00:00:00 | |
| HSKMA3-T | 2026-09-04 12:45:52 | 51.46336 | 9.07827 | 90° | 131km/h | 8712m | -11.1m/s | -29.1°C | 35.2% | 338.5hPa | 2.6V | 08:16:28 | 02:27:26 | 00:00:00 | |
| SONCRA | 2026-09-04 12:45:50 | 51.46335 | 9.07720 | 88° | 130km/h | 8734m | -11.5m/s | -29.3°C | 29.2% | 337.5hPa | 2.5V | 00:00:00 | 00:00:00 | 00:00:00 | |
| DL1NUX | 2026-09-04 12:45:47 | 51.46332 | 9.07349 | 89° | 130km/h | 8812m | -11.2m/s | -30°C | 33.3% | 333.8hPa | 2.5V | 08:16:14 | 02:27:17 | 00:00:00 | |
| DO2JMG | 2026-09-04 12:45:45 | 51.46334 | 9.07508 | 91° | 131km/h | 8779m | -11.7m/s | -29.7°C | 36.9% | 335.4hPa | 2.6V | 08:16:28 | 02:27:20 | 00:00:00 | |
| BIOWL1-15 | 2026-09-04 12:45:44 | 51.46332 | 9.07349 | 90° | 130km/h | 8812m | -11.2m/s | -30°C | 37.5% | 333.8hPa | 2.5V | 08:16:28 | 02:27:17 | 00:00:00 | |
| AA1-15 | 2026-09-04 12:45:41 | 51.46333 | 9.07297 | 92° | 130km/h | 8823m | -10.6m/s | -30.1°C | 37.5% | 333.4hPa | 2.6V | 08:18:10 | 02:27:16 | 00:00:00 | |
| AU51GT2 | 2026-09-04 12:45:41 | 51.46333 | 9.07297 | 92° | 128km/h | 8823m | -10.6m/s | -30.1°C | 30.9% | 333.4hPa | 2.5V | 00:00:00 | 00:00:00 | 00:00:00 | |
| DK9SH | 2026-09-04 12:45:40 | 51.46332 | 9.07297 | 93° | 130km/h | 8823m | -10.6m/s | -30.1°C | 30.9% | 333.4hPa | 2.5V | 00:00:00 | 00:00:00 | 00:00:00 | |
| DO3DL | 2026-09-04 12:45:39 | 51.46333 | 9.07245 | 92° | 130km/h | 8834m | -11.1m/s | -30.2°C | 31.0% | 332.9hPa | 2.5V | 08:16:00 | 00:00:00 | 00:00:00 | |
| DL3AQ-11 | 2026-09-04 12:45:38 | 51.46334 | 9.07087 | 89° | 128km/h | 8868m | -11.2m/s | -30.5°C | 31.2% | 331.3hPa | 2.5V | 00:00:00 | 00:00:00 | 00:00:00 | |
| DL1NUX | 2026-09-04 12:45:37 | 51.46337 | 9.06823 | 90° | 133km/h | 8923m | -11.1m/s | -31°C | 35.1% | 328.6hPa | 2.5V | 08:16:24 | 02:27:07 | 00:00:00 | |
| DF8AY | 2026-09-04 12:45:35 | 51.46334 | 9.06983 | 92° | 130km/h | 8890m | -11m/s | -30.7°C | 38.2% | 330.3hPa | 2.6V | 08:16:28 | 02:27:10 | 00:00:00 | |
| DO2JMG | 2026-09-04 12:45:34 | 51.46335 | 9.06930 | 92° | 131km/h | 8901m | -11m/s | -30.8°C | 38.5% | 329.7hPa | 2.6V | 08:16:28 | 02:27:09 | 00:00:00 | |
| AA1-15 | 2026-09-04 12:45:31 | 51.46337 | 9.06769 | 92° | 133km/h | 8934m | -11.3m/s | -31.1°C | 40% | 328.2hPa | 2.5V | 08:18:10 | 02:27:06 | 00:00:00 | |
| DL1NUX | 2026-09-04 12:45:27 | 51.46349 | 9.06280 | 91° | 137km/h | 9031m | -11m/s | -31.6°C | 59.7% | 323.7hPa | 2.5V | 08:16:34 | 02:26:57 | 00:00:00 | |
| DF8AY | 2026-09-04 12:45:24 | 51.46346 | 9.06391 | 93° | 137km/h | 9009m | -11m/s | -31.6°C | 52.9% | 324.8hPa | 2.6V | 08:17:19 | 02:26:59 | 00:00:00 | |
| DO2JMG | 2026-09-04 12:45:23 | 51.46347 | 9.06336 | 93° | 137km/h | 9020m | -11.3m/s | -31.7°C | 57.8% | 324.2hPa | 2.6V | 08:18:10 | 02:26:58 | 00:00:00 | |
| HSKMA3-T | 2026-09-04 12:45:21 | 51.46349 | 9.06225 | 92° | 137km/h | 9043m | -11.1m/s | -31.6°C | 66.3% | 323.2hPa | 2.5V | 08:17:19 | 02:26:56 | 00:00:00 | |
| BIOWL1-15 | 2026-09-04 12:45:20 | 51.46351 | 9.06169 | 93° | 137km/h | 9053m | -10.7m/s | 0°C | 0% | 322.8hPa | 2.5V | 08:17:19 | 02:26:55 | 00:00:00 | |
| SONCRA | 2026-09-04 12:45:19 | 51.46354 | 9.06058 | 93° | 137km/h | 9075m | -11.0m/s | -31.7°C | 57.8% | 321.8hPa | 2.6V | 00:00:00 | 00:00:00 | 00:00:00 | |
| DL4XJ-10 | 2026-09-04 12:45:18 | 51.46354 | 9.06058 | 94° | 137km/h | 9075m | -11.0m/s | -32.4°C | 0% | 0hPa | 2.6V | 00:00:00 | 00:00:00 | 00:00:00 | |
| DL1NUX | 2026-09-04 12:45:17 | 51.46362 | 9.05724 | 91° | 139km/h | 9139m | -10.9m/s | -32.2°C | 60.9% | 318.8hPa | 2.6V | 08:16:44 | 02:26:47 | 00:00:00 | |
| DF8AY | 2026-09-04 12:45:14 | 51.46358 | 9.05836 | 93° | 137km/h | 9117m | -10.8m/s | -32.1°C | 66.1% | 319.8hPa | 2.5V | 08:17:19 | 02:26:49 | 00:00:00 | |
| DO2JMG | 2026-09-04 12:45:13 | 51.46360 | 9.05780 | 94° | 137km/h | 9128m | -10.7m/s | -32.1°C | 66.1% | 319.3hPa | 2.6V | 08:18:10 | 02:26:48 | 00:00:00 | |
| BIOWL1-15 | 2026-09-04 12:45:10 | 51.46364 | 9.05613 | 92° | 137km/h | 9161m | -11.8m/s | 0°C | 0% | 0hPa | 2.5V | 08:17:19 | 02:26:45 | 00:00:00 | |
| DL1NUX | 2026-09-04 12:45:07 | 51.46370 | 9.05169 | 92° | 135km/h | 9251m | -10.7m/s | -33.2°C | 70.6% | 313.8hPa | 2.5V | 08:16:54 | 02:26:37 | 00:00:00 | |
| DF8AY | 2026-09-04 12:45:03 | 51.46369 | 9.05224 | 91° | 137km/h | 9240m | -11m/s | -33.1°C | 74.4% | 314.4hPa | 2.5V | 08:17:19 | 02:26:38 | 00:00:00 | |
| HSKMA3-T | 2026-09-04 12:45:00 | 51.46373 | 9.05002 | 90° | 137km/h | 9282m | -11m/s | -33.3°C | 76% | 312.4hPa | 2.6V | 08:17:19 | 02:26:34 | 00:00:00 | |
| BIOWL1-15 | 2026-09-04 12:44:59 | 51.46373 | 9.04891 | 91° | 137km/h | 9304m | -10.9m/s | 0°C | 0% | 0hPa | 2.5V | 08:17:19 | 02:26:32 | 00:00:00 | |
| DL3AQ-11 | 2026-09-04 12:44:58 | 51.46373 | 9.04891 | 90° | 135km/h | 9304m | -10.9m/s | -33.5°C | 69.3% | 311.5hPa | 2.5V | 00:00:00 | 00:00:00 | 00:00:00 | |
| DL1NUX | 2026-09-04 12:44:57 | 51.46376 | 9.04614 | 90° | 139km/h | 9357m | -11m/s | -33.9°C | 76.2% | 309.1hPa | 2.5V | 08:17:04 | 02:26:27 | 00:00:00 | |
| DF8AY | 2026-09-04 12:44:53 | 51.46375 | 9.04670 | 91° | 139km/h | 9346m | -11.1m/s | -33.8°C | 79.7% | 309.6hPa | 2.5V | 08:17:19 | 02:26:28 | 00:00:00 | |
| BIOWL1-15 | 2026-09-04 12:44:51 | 51.46378 | 9.04447 | 93° | 135km/h | 9395m | -15.2m/s | 0°C | 0% | 0hPa | 2.6V | 08:17:19 | 02:26:24 | 00:00:00 | |
| HSKMA3-T | 2026-09-04 12:44:48 | 51.46379 | 9.04392 | 93° | 137km/h | 9410m | -15.3m/s | -34.3°C | 82% | 307.1hPa | 2.6V | 08:17:19 | 02:26:23 | 00:00:00 | |
| DO3DL | 2026-09-04 12:44:48 | 51.46379 | 9.04392 | 94° | 137km/h | 9410m | -15.3m/s | -34.3°C | 71.7% | 307.1hPa | 2.6V | 08:17:00 | 00:00:00 | 00:00:00 | |
| DL1NUX | 2026-09-04 12:44:47 | 51.46385 | 9.04060 | 92° | 137km/h | 9499m | -15m/s | -35.1°C | 80.2% | 303.1hPa | 2.6V | 08:17:14 | 02:26:17 | 00:00:00 | |
| DL3AQ-11 | 2026-09-04 12:44:45 | 51.46383 | 9.04171 | 92° | 137km/h | 9469m | -14.7m/s | -34.8°C | 74.4% | 304.5hPa | 2.6V | 00:00:00 | 00:00:00 | 00:00:00 | |
| EDDB2-12 | 2026-09-04 12:44:44 | 51.46383 | 9.04171 | 92° | 137km/h | 9469m | -14.7m/s | -34.8°C | 74.4% | 304.5hPa | 2.6V | 00:00:00 | 00:00:00 | 00:00:00 | |
| DF8AY | 2026-09-04 12:44:42 | 51.46385 | 9.04060 | 93° | 137km/h | 9499m | -15m/s | -35.1°C | 85.7% | 303.1hPa | 2.6V | 08:17:19 | 02:26:17 | 00:00:00 | |
| HSKMA3-T | 2026-09-04 12:44:38 | 51.46393 | 9.03838 | 94° | 137km/h | 9559m | -13.2m/s | -35.6°C | 88.5% | 300.5hPa | 2.5V | 08:17:19 | 02:26:13 | 00:00:00 | |
| DF8AY | 2026-09-04 12:44:32 | 51.46404 | 9.03508 | 93° | 135km/h | 9644m | -14.2m/s | -36.4°C | 90.5% | 296.9hPa | 2.6V | 08:19:52 | 02:26:07 | 00:00:00 | |
| DO2JMG | 2026-09-04 12:44:31 | 51.46406 | 9.03454 | 95° | 133km/h | 9658m | -13.9m/s | -36.4°C | 90.3% | 296.3hPa | 2.6V | 08:18:10 | 02:26:06 | 00:00:00 | |
| BIOWL1-15 | 2026-09-04 12:44:30 | 51.46414 | 9.03291 | 94° | 135km/h | 9700m | -14.5m/s | 0°C | 0% | 0hPa | 2.5V | 08:18:10 | 02:26:03 | 00:00:00 | |
| HSKMA3-T | 2026-09-04 12:44:27 | 51.46416 | 9.03237 | 92° | 135km/h | 9714m | -14.4m/s | -36.8°C | 86% | 293.8hPa | 2.6V | 08:18:10 | 02:26:02 | 00:00:00 | |
| DF8AY | 2026-09-04 12:44:21 | 51.46427 | 9.02913 | 93° | 133km/h | 9801m | -14.4m/s | -37.4°C | 77.5% | 290.3hPa | 2.5V | 08:19:52 | 02:25:56 | 00:00:00 | |
| DO2JMG | 2026-09-04 12:44:20 | 51.46428 | 9.02859 | 93° | 133km/h | 9815m | -15m/s | -37.5°C | 76.2% | 289.7hPa | 2.6V | 08:18:10 | 02:25:55 | 00:00:00 | |
| BIOWL1-15 | 2026-09-04 12:44:18 | 51.46431 | 9.02698 | 93° | 131km/h | 9859m | -14.8m/s | 0°C | 0% | 0hPa | 2.5V | 08:18:10 | 02:25:52 | 00:00:00 | |
| HSKMA3-T | 2026-09-04 12:44:16 | 51.46433 | 9.02644 | 94° | 133km/h | 9874m | -14.5m/s | -37.8°C | 73.8% | 287.2hPa | 2.5V | 08:18:10 | 02:25:51 | 00:00:00 | |
| DF8AY | 2026-09-04 12:44:11 | 51.46442 | 9.02374 | 93° | 133km/h | 9947m | -15m/s | -38.3°C | 74.7% | 284.2hPa | 2.6V | 08:19:52 | 02:25:46 | 00:00:00 | |
| DO2JMG | 2026-09-04 12:44:09 | 51.46444 | 9.02266 | 92° | 133km/h | 9976m | -14.9m/s | -38.6°C | 75.3% | 283hPa | 2.5V | 08:18:10 | 02:25:44 | 00:00:00 | |
| AU51GT2 | 2026-09-04 12:44:08 | 51.46446 | 9.02212 | 93° | 133km/h | 9991m | -14.5m/s | -38.7°C | 66.0% | 282.4hPa | 2.5V | 00:00:00 | 00:00:00 | 00:00:00 | |
| DL1NUX | 2026-09-04 12:44:07 | 51.46456 | 9.01885 | 93° | 135km/h | 10078m | -15.1m/s | -39.5°C | 71.4% | 278.8hPa | 2.5V | 08:17:54 | 02:25:37 | 00:00:00 | |
| HSKMA3-T | 2026-09-04 12:44:06 | 51.46449 | 9.02103 | 93° | 135km/h | 10021m | -14.9m/s | -39°C | 76.6% | 281.2hPa | 2.6V | 08:18:10 | 02:25:41 | 00:00:00 | |
| AA1-15 | 2026-09-04 12:44:03 | 51.46454 | 9.01939 | 94° | 135km/h | 10064m | -14.8m/s | -39.4°C | 76.6% | 279.4hPa | 2.5V | 08:18:10 | 02:25:38 | 00:00:00 | |
| DF8AY | 2026-09-04 12:44:02 | 51.46458 | 9.01776 | 91° | 135km/h | 10108m | -15.2m/s | -39.8°C | 74.8% | 277.6hPa | 2.5V | 08:19:52 | 02:25:35 | 00:00:00 | |
| BIOWL1-15 | 2026-09-04 12:44:02 | 51.46456 | 9.01885 | 94° | 135km/h | 10078m | -15.1m/s | 0°C | 0% | 0hPa | 2.5V | 08:18:10 | 02:25:37 | 00:00:00 | |
| DD8BA-10 | 2026-09-04 12:44:01 | 51.46457 | 9.01830 | 93° | 135km/h | 10093m | -14.9m/s | -39.6°C | 70.8% | 278.1hPa | 2.6V | 00:00:00 | 00:00:00 | 00:00:00 | |
| DL4XJ-10 | 2026-09-04 12:43:58 | 51.46459 | 9.01667 | 92° | 135km/h | 10138m | -14.9m/s | -40.6°C | 0% | 0hPa | 2.6V | 00:00:00 | 00:00:00 | 00:00:00 | |
| DL1NUX | 2026-09-04 12:43:57 | 51.46461 | 9.01340 | 90° | 133km/h | 10228m | -15.5m/s | -40.7°C | 72% | 272.7hPa | 2.6V | 08:18:04 | 02:25:27 | 00:00:00 | |
| HSKMA3-T | 2026-09-04 12:43:56 | 51.46461 | 9.01558 | 92° | 135km/h | 10167m | -15m/s | -40.2°C | 76% | 275.1hPa | 2.5V | 08:18:10 | 02:25:31 | 00:00:00 | |
| AA1-15 | 2026-09-04 12:43:53 | 51.46461 | 9.01394 | 90° | 135km/h | 10212m | -15.5m/s | -40.6°C | 77.2% | 273.4hPa | 2.5V | 08:18:10 | 02:25:28 | 00:00:00 | |
| BIOWL1-15 | 2026-09-04 12:43:51 | 51.46461 | 9.01286 | 91° | 135km/h | 10243m | -15.2m/s | 0°C | 0% | 0hPa | 2.6V | 08:18:10 | 02:25:26 | 00:00:00 | |
| DO2JMG | 2026-09-04 12:43:49 | 51.46462 | 9.01177 | 91° | 135km/h | 10273m | -14.6m/s | -41°C | 78.2% | 270.9hPa | 2.5V | 08:18:10 | 02:25:24 | 00:00:00 | |
| HARRO8 | 2026-09-04 12:43:48 | 51.46462 | 9.00958 | 89° | 133km/h | 10333m | -15.2m/s | -41.6°C | 67.2% | 268.6hPa | 2.5V | 00:00:00 | 00:00:00 | 00:00:00 | |
| DL1NUX | 2026-09-04 12:43:47 | 51.46462 | 9.00795 | 90° | 135km/h | 10378m | -15.2m/s | -42°C | 70.9% | 266.8hPa | 2.5V | 08:18:14 | 02:25:17 | 00:00:00 | |
| HSKMA3-T | 2026-09-04 12:43:45 | 51.46462 | 9.00958 | 90° | 133km/h | 10333m | -15.2m/s | -41.6°C | 78.6% | 268.6hPa | 2.6V | 08:19:01 | 02:25:20 | 00:00:00 | |
| DF8AY | 2026-09-04 12:43:44 | 51.46458 | 9.00355 | 87° | 137km/h | 10500m | -15.5m/s | -43°C | 69.1% | 262hPa | 2.5V | 08:19:52 | 02:25:09 | 00:00:00 | |
| AA1-15 | 2026-09-04 12:43:43 | 51.46462 | 9.00849 | 91° | 135km/h | 10363m | -14.9m/s | -41.8°C | 77.7% | 267.4hPa | 2.6V | 08:19:01 | 02:25:18 | 00:00:00 | |
| DO2JMG | 2026-09-04 12:43:39 | 51.46459 | 9.00629 | 90° | 135km/h | 10424m | -15.7m/s | -42.4°C | 74.7% | 265hPa | 2.5V | 08:19:52 | 02:25:14 | 00:00:00 | |
| BIOWL1-15 | 2026-09-04 12:43:38 | 51.46459 | 9.00575 | 90° | 135km/h | 10439m | -15.2m/s | 0°C | 0% | 0hPa | 2.6V | 18:12:15 | 02:25:13 | 00:00:00 | |
| DL3AQ-11 | 2026-09-04 12:43:38 | 51.46459 | 9.00520 | 89° | 135km/h | 10454m | -15.0m/s | -42.6°C | 60.9% | 263.8hPa | 2.5V | 00:00:00 | 00:00:00 | 00:00:00 | |
| DL1NUX | 2026-09-04 12:43:37 | 51.46455 | 9.00245 | 88° | 135km/h | 10531m | -15.2m/s | -43.2°C | 61.9% | 260.8hPa | 2.5V | 08:18:24 | 02:25:07 | 00:00:00 | |
| HSKMA3-T | 2026-09-04 12:43:35 | 51.46459 | 9.00410 | 89° | 137km/h | 10485m | -15.5m/s | -42.8°C | 69.6% | 262.6hPa | 2.5V | 08:19:01 | 02:25:10 | 00:00:00 | |
| AA1-15 | 2026-09-04 12:43:32 | 51.46455 | 9.00246 | 89° | 135km/h | 10531m | -15.2m/s | -43.2°C | 67.7% | 260.8hPa | 2.5V | 08:19:01 | 02:25:07 | 00:00:00 | |
| DO2JMG | 2026-09-04 12:43:28 | 51.46454 | 9.00027 | 88° | 137km/h | 10592m | -15.3m/s | -43.7°C | 64.2% | 258.5hPa | 2.5V | 08:19:52 | 02:25:03 | 00:00:00 | |
| BIOWL1-15 | 2026-09-04 12:43:27 | 51.46453 | 8.99972 | 89° | 135km/h | 10607m | -15.5m/s | 0°C | 0% | 0hPa | 2.5V | 18:12:15 | 02:25:02 | 00:00:00 | |
| HSKMA3-T | 2026-09-04 12:43:24 | 51.46451 | 8.99808 | 90° | 135km/h | 10653m | -15.2m/s | -44.2°C | 61.8% | 256.1hPa | 2.6V | 08:19:01 | 02:24:59 | 00:00:00 | |
| AA1-15 | 2026-09-04 12:43:21 | 51.46449 | 8.99644 | 88° | 135km/h | 10699m | -15.7m/s | -44.6°C | 61.1% | 254.4hPa | 2.5V | 08:19:01 | 02:24:56 | 00:00:00 | |
| DO2JMG | 2026-09-04 12:43:18 | 51.46446 | 8.99482 | 89° | 133km/h | 10746m | -15.3m/s | -45.1°C | 60.9% | 252.6hPa | 2.5V | 08:19:52 | 02:24:53 | 00:00:00 | |
| DF8AY | 2026-09-04 12:43:17 | 51.46445 | 8.99428 | 90° | 133km/h | 10761m | -15.2m/s | -45.2°C | 61.1% | 252hPa | 2.6V | 08:19:52 | 02:24:52 | 00:00:00 | |
| DL1NUX | 2026-09-04 12:43:17 | 51.46441 | 8.99159 | 88° | 131km/h | 10842m | -16m/s | -46°C | 55.4% | 249.1hPa | 2.5V | 08:18:44 | 02:24:47 | 00:00:00 | |
| BIOWL1-15 | 2026-09-04 12:43:16 | 51.46445 | 8.99320 | 88° | 133km/h | 10793m | -16.1m/s | 0°C | 0% | 0hPa | 2.6V | 18:12:15 | 02:24:50 | 00:00:00 | |
| HSKMA3-T | 2026-09-04 12:43:14 | 51.46443 | 8.99266 | 86° | 133km/h | 10809m | -16m/s | -45.7°C | 61.6% | 250.3hPa | 2.5V | 08:19:01 | 02:24:49 | 00:00:00 | |
| AA1-15 | 2026-09-04 12:43:10 | 51.46440 | 8.99052 | 89° | 131km/h | 10874m | -15.9m/s | -46.3°C | 62.2% | 247.9hPa | 2.6V | 08:19:01 | 02:24:45 | 00:00:00 | |
| DB0DAN | 2026-09-04 12:43:10 | 51.46440 | 8.99052 | 89° | 126km/h | 10874m | -15.9m/s | -46.3°C | 50.3% | 247.87hPa | 2.6V | 00:00:00 | 00:00:00 | 00:00:00 | |
| DD8BA-10 | 2026-09-04 12:43:10 | 51.46440 | 8.99052 | 89° | 131km/h | 10874m | -15.8m/s | -46.2°C | 55.6% | 247.8hPa | 2.6V | 00:00:00 | 00:00:00 | 00:00:00 | |
| S3001 | 2026-09-04 12:43:09 | 51.46438 | 8.98945 | 87° | 131km/h | 10906m | -16.2m/s | -46.6°C | 50.3% | 246.6hPa | 2.6V | 00:00:00 | 00:00:00 | 00:00:00 | |
| AM1SDL-15 | 2026-09-04 12:43:08 | 51.46438 | 8.98945 | 88° | 131km/h | 10906m | -16.2m/s | 0°C | 0% | 0hPa | 2.6V | 00:00:00 | 02:24:43 | 00:00:00 | |
| DL1NUX | 2026-09-04 12:43:07 | 51.46426 | 8.98627 | 87° | 131km/h | 11002m | -16.1m/s | -47.5°C | 53.4% | 243hPa | 2.6V | 08:18:54 | 02:24:37 | 00:00:00 | |
| DF8AY | 2026-09-04 12:43:06 | 51.46433 | 8.98838 | 86° | 131km/h | 10938m | -16.2m/s | -46.9°C | 61.7% | 245.5hPa | 2.5V | 08:19:52 | 02:24:41 | 00:00:00 | |
| BIOWL1-15 | 2026-09-04 12:43:03 | 51.46428 | 8.98679 | 88° | 130km/h | 10987m | -15.9m/s | 0°C | 0% | 0hPa | 2.6V | 18:12:15 | 02:24:38 | 00:00:00 | |
| AA1-15 | 2026-09-04 12:43:00 | 51.46423 | 8.98521 | 86° | 131km/h | 11036m | -16.7m/s | -47.8°C | 58.7% | 241.9hPa | 2.5V | 08:19:01 | 02:24:35 | 00:00:00 | |
| HSKMA3-T | 2026-09-04 12:42:53 | 51.46407 | 8.98148 | 87° | 133km/h | 11151m | -17m/s | -48.5°C | 55.7% | 237.7hPa | 2.5V | 08:19:52 | 02:24:28 | 00:00:00 | |
| BIOWL1-15 | 2026-09-04 12:42:51 | 51.46403 | 8.98041 | 85° | 133km/h | 11186m | -16.7m/s | 0°C | 0% | 0hPa | 2.5V | 18:12:15 | 02:24:26 | 00:00:00 | |
| AA1-15 | 2026-09-04 12:42:49 | 51.46398 | 8.97934 | 87° | 131km/h | 11219m | -16.5m/s | -49.1°C | 57.6% | 235.3hPa | 2.6V | 08:19:52 | 02:24:24 | 00:00:00 | |
| BIOWL9-15 | 2026-09-04 12:42:47 | 51.46395 | 8.97827 | 87° | 131km/h | 11252m | -16.1m/s | 0°C | -1.0% | -1.0hPa | 2.6V | 00:00:00 | 00:00:00 | 00:00:00 | |
| HARRO8 | 2026-09-04 12:42:46 | 51.46394 | 8.97773 | 87° | 133km/h | 11268m | -16.8m/s | -49.5°C | 46.6% | 233.5hPa | 2.6V | 00:00:00 | 00:00:00 | 00:00:00 | |
| DL3AQ-11 | 2026-09-04 12:42:45 | 51.46389 | 8.97665 | 85° | 133km/h | 11302m | -16.7m/s | -49.8°C | 48.5% | 232.3hPa | 2.6V | 00:00:00 | 00:00:00 | 00:00:00 | |
| HSKMA3-T | 2026-09-04 12:42:42 | 51.46385 | 8.97558 | 87° | 131km/h | 11336m | -16.6m/s | -50.1°C | 64.7% | 231.1hPa | 2.6V | 08:19:52 | 02:24:17 | 00:00:00 | |
| BIOWL1-15 | 2026-09-04 12:42:40 | 51.46381 | 8.97451 | 87° | 133km/h | 11370m | -16.5m/s | 0°C | 0% | 0hPa | 2.6V | 18:12:15 | 02:24:15 | 00:00:00 | |
| AA1-15 | 2026-09-04 12:42:38 | 51.46377 | 8.97344 | 85° | 135km/h | 11403m | -16.5m/s | -50.8°C | 70.6% | 228.7hPa | 2.5V | 08:19:52 | 02:24:13 | 00:00:00 | |
| DF8AY | 2026-09-04 12:42:37 | 51.46371 | 8.97236 | 85° | 133km/h | 11436m | -16.9m/s | -51.1°C | 72.9% | 227.6hPa | 2.5V | 08:19:52 | 02:24:11 | 00:00:00 | |
| DL1NUX | 2026-09-04 12:42:37 | 51.46362 | 8.97021 | 86° | 133km/h | 11503m | -16.9m/s | -51.7°C | 67.7% | 225.2hPa | 2.5V | 08:19:24 | 02:24:07 | 00:00:00 | |
| DO2JMG | 2026-09-04 12:42:37 | 51.46374 | 8.97290 | 85° | 133km/h | 11419m | -16.9m/s | -50.9°C | 71.8% | 228.2hPa | 2.5V | 08:19:52 | 02:24:12 | 00:00:00 | |
| HSKMA3-T | 2026-09-04 12:42:31 | 51.46359 | 8.96967 | 85° | 133km/h | 11520m | -17.3m/s | -51.8°C | 76.7% | 224.7hPa | 2.5V | 08:19:52 | 02:24:06 | 00:00:00 | |
| DO2JMG | 2026-09-04 12:42:26 | 51.46343 | 8.96697 | 85° | 133km/h | 11607m | -16.5m/s | -52.6°C | 77% | 221.7hPa | 2.6V | 08:19:52 | 02:24:01 | 00:00:00 | |
| HSKMA3-T | 2026-09-04 12:42:20 | 51.46322 | 8.96371 | 83° | 135km/h | 11710m | -17.1m/s | -53.5°C | 75.5% | 218.2hPa | 2.5V | 08:19:52 | 02:23:55 | 00:00:00 | |
| DO2JMG | 2026-09-04 12:42:15 | 51.46303 | 8.96099 | 82° | 137km/h | 11798m | -17.5m/s | -54.3°C | 73.1% | 215.2hPa | 2.5V | 08:19:52 | 02:23:50 | 00:00:00 | |
| AA1-15 | 2026-09-04 12:42:12 | 51.46291 | 8.95936 | 85° | 135km/h | 11851m | -17.3m/s | -54.8°C | 71.9% | 213.5hPa | 2.6V | 08:19:52 | 02:23:47 | 00:00:00 | |
| HSKMA3-T | 2026-09-04 12:42:09 | 51.46281 | 8.95773 | 84° | 137km/h | 11903m | -17.6m/s | -55.3°C | 70.6% | 211.7hPa | 2.5V | 08:19:52 | 02:23:44 | 00:00:00 | |
| BIOWL1-15 | 2026-09-04 12:42:06 | 51.46268 | 8.95609 | 83° | 135km/h | 11956m | -17.6m/s | 0°C | 0% | 0hPa | 2.5V | 18:12:15 | 02:23:41 | 00:00:00 | |
| DL1NUX | 2026-09-04 12:42:06 | 51.46251 | 8.95338 | 82° | 135km/h | 12044m | -17.8m/s | -56.5°C | 59.1% | 207.1hPa | 2.5V | 08:19:55 | 02:23:36 | 00:00:00 | |
| DO2JMG | 2026-09-04 12:42:05 | 51.46264 | 8.95555 | 84° | 135km/h | 11974m | -17.4m/s | -55.9°C | 68.6% | 209.4hPa | 2.6V | 08:19:52 | 02:23:40 | 00:00:00 | |
| AA1-15 | 2026-09-04 12:42:00 | 51.46247 | 8.95283 | 83° | 135km/h | 12062m | -17.7m/s | -56.7°C | 65.3% | 206.5hPa | 2.5V | 08:21:34 | 02:23:35 | 00:00:00 | |
| HSKMA3-T | 2026-09-04 12:41:59 | 51.46243 | 8.95229 | 83° | 135km/h | 12080m | -17.6m/s | -56.8°C | 64.7% | 206hPa | 2.5V | 08:20:43 | 02:23:34 | 00:00:00 | |
| DF7PN | 2026-09-04 12:41:58 | 51.46235 | 8.95121 | 84° | 131km/h | 12115m | -17.1m/s | -57.1°C | 49.3% | 204.8hPa | 2.6V | 00:00:00 | 00:00:00 | 00:00:00 | |
| DB0ND-19 | 2026-09-04 12:41:57 | 51.46235 | 8.95121 | 84° | 131km/h | 12115m | -17.1m/s | -57.1°C | 49.3% | 204.8hPa | 2.6V | 00:00:00 | 00:00:00 | 00:00:00 | |
| DL1NUX | 2026-09-04 12:41:56 | 51.46212 | 8.94796 | 83° | 135km/h | 12221m | -17.6m/s | -58.1°C | 55% | 201.4hPa | 2.6V | 08:20:05 | 02:23:26 | 00:00:00 | |
| DF8AY | 2026-09-04 12:41:55 | 51.46228 | 8.95014 | 84° | 135km/h | 12150m | -17.5m/s | -57.5°C | 62.6% | 203.7hPa | 2.5V | 08:21:34 | 02:23:30 | 00:00:00 | |
| DO2JMG | 2026-09-04 12:41:54 | 51.46224 | 8.94959 | 83° | 135km/h | 12167m | -17.7m/s | -57.6°C | 62.1% | 203.2hPa | 2.5V | 08:21:34 | 02:23:29 | 00:00:00 | |
| HSKMA3-T | 2026-09-04 12:41:49 | 51.46204 | 8.94688 | 85° | 135km/h | 12256m | -17.3m/s | -58.5°C | 60% | 200.3hPa | 2.6V | 08:20:43 | 02:23:24 | 00:00:00 | |
| EDDB2-11 | 2026-09-04 12:41:48 | 51.46198 | 8.94577 | 83° | 137km/h | 12291m | -17.7m/s | -58.8°C | 45.6% | 199.2hPa | 2.5V | 00:00:00 | 00:00:00 | 00:00:00 | |
| DL1NUX | 2026-09-04 12:41:46 | 51.46174 | 8.94241 | 84° | 141km/h | 12397m | -17.6m/s | -59.7°C | 49.1% | 195.8hPa | 2.5V | 08:20:15 | 02:23:16 | 00:00:00 | |
| DF8AY | 2026-09-04 12:41:45 | 51.46185 | 8.94410 | 83° | 141km/h | 12345m | -17.7m/s | -59.2°C | 56.4% | 197.5hPa | 2.6V | 08:21:34 | 02:23:19 | 00:00:00 | |
| HARRO8 | 2026-09-04 12:41:44 | 51.46185 | 8.94410 | 82° | 139km/h | 12345m | -17.7m/s | -59.2°C | 43.6% | 197.5hPa | 2.6V | 00:00:00 | 00:00:00 | 00:00:00 | |
| DO2JMG | 2026-09-04 12:41:38 | 51.46162 | 8.94070 | 82° | 142km/h | 12451m | -17.8m/s | -60.2°C | 51.3% | 194.2hPa | 2.6V | 08:21:34 | 02:23:13 | 00:00:00 | |
| DL8OAI-8 | 2026-09-04 12:41:38 | 51.46162 | 8.94069 | 83° | 142km/h | 12451m | -17.8m/s | -60.2°C | 39.6% | 194.2hPa | 2.6V | 08:20:00 | 00:00:00 | 00:00:00 | |
| DO9LL-15 | 2026-09-04 12:41:37 | 51.46157 | 8.94013 | 83° | 146km/h | 12469m | -17.8m/s | -60.3°C | 46.4% | 193.6hPa | 2.6V | 00:00:00 | 02:23:12 | 00:00:00 | |
| DL1NUX | 2026-09-04 12:41:36 | 51.46135 | 8.93670 | 82° | 144km/h | 12577m | -17.9m/s | -61.3°C | 42.7% | 190.2hPa | 2.6V | 08:20:25 | 02:23:06 | 00:00:00 | |
| DF8AY | 2026-09-04 12:41:32 | 51.46139 | 8.93728 | 84° | 142km/h | 12559m | -18m/s | -61.1°C | 46% | 190.8hPa | 2.6V | 08:21:34 | 02:23:07 | 00:00:00 | |
| DO2JMG | 2026-09-04 12:41:28 | 51.46124 | 8.93499 | 85° | 142km/h | 12632m | -17.6m/s | -61.8°C | 41.9% | 188.6hPa | 2.5V | 08:21:34 | 02:23:03 | 00:00:00 | |
| BIOWL1-15 | 2026-09-04 12:41:27 | 51.46088 | 8.92910 | 84° | 150km/h | 12812m | -18.1m/s | -62.6°C | 33.3% | 183.2hPa | 2.5V | 08:21:34 | 02:22:53 | 00:00:00 | |
| AA1-15 | 2026-09-04 12:41:27 | 51.46121 | 8.93441 | 85° | 144km/h | 12649m | -17.5m/s | -61.9°C | 41.2% | 188.1hPa | 2.6V | 08:21:34 | 02:23:02 | 00:00:00 | |
| DF7PN | 2026-09-04 12:41:27 | 51.46118 | 8.93383 | 85° | 144km/h | 12667m | -17.9m/s | -62.0°C | 31.4% | 187.5hPa | 2.6V | 00:00:00 | 00:00:00 | 00:00:00 | |
| DL1NUX | 2026-09-04 12:41:26 | 51.46098 | 8.93088 | 84° | 146km/h | 12758m | -17.8m/s | -62.5°C | 35% | 184.8hPa | 2.6V | 08:20:35 | 02:22:56 | 00:00:00 | |
| AA1-15 | 2026-09-04 12:41:17 | 51.46084 | 8.92849 | 83° | 151km/h | 12830m | -18.2m/s | -62.7°C | 32.6% | 182.7hPa | 2.5V | 08:21:34 | 02:22:52 | 00:00:00 | |
| BIOWL1-15 | 2026-09-04 12:41:09 | 51.46064 | 8.92361 | 87° | 153km/h | 12977m | -18.6m/s | -63.5°C | 27.8% | 178.3hPa | 2.6V | 08:21:34 | 02:22:44 | 00:00:00 | |
| DL1CLM-18 | 2026-09-04 12:41:09 | 51.46064 | 8.92361 | 88° | 153km/h | 12977m | -18.6m/s | -63.5°C | 20.9% | 178.4hPa | 2.5V | 08:21:00 | 00:00:00 | 00:00:00 | |
| DL3OBA | 2026-09-04 12:41:08 | 51.46064 | 8.92361 | 88° | 153km/h | 12977m | -18.6m/s | -63.5°C | 20.9% | 178.4hPa | 2.5V | 08:21:00 | 00:00:00 | 00:00:00 | |
| EDDB2-12 | 2026-09-04 12:41:07 | 51.46060 | 8.92177 | 89° | 150km/h | 13034m | -18.2m/s | -63.6°C | 19.2% | 176.8hPa | 2.5V | 00:00:00 | 00:00:00 | 00:00:00 | |
| DL1NUX | 2026-09-04 12:41:06 | 51.46058 | 8.91874 | 88° | 148km/h | 13126m | -18.7m/s | -64°C | 24.2% | 174.1hPa | 2.5V | 08:20:55 | 02:22:36 | 00:00:00 | |
| HSKMA3-T | 2026-09-04 12:41:06 | 51.46060 | 8.92177 | 89° | 150km/h | 13034m | -18.2m/s | -63.6°C | 25.8% | 176.8hPa | 2.5V | 08:21:34 | 02:22:41 | 00:00:00 | |
| DF8AY | 2026-09-04 12:41:04 | 51.46060 | 8.92056 | 90° | 150km/h | 13070m | -18.2m/s | -63.8°C | 24.9% | 175.7hPa | 2.6V | 08:21:34 | 02:22:39 | 00:00:00 | |
| AA1-15 | 2026-09-04 12:41:03 | 51.46060 | 8.91995 | 89° | 150km/h | 13088m | -18.5m/s | -63.9°C | 24.4% | 175.1hPa | 2.6V | 08:21:34 | 02:22:38 | 00:00:00 | |
| DO2JMG | 2026-09-04 12:41:01 | 51.46058 | 8.91874 | 88° | 148km/h | 13126m | -18.7m/s | -64.1°C | 23.3% | 174.1hPa | 2.5V | 08:21:34 | 02:22:36 | 00:00:00 | |
| DD8BA-10 | 2026-09-04 12:41:00 | 51.46057 | 8.91814 | 89° | 148km/h | 13145m | -18.6m/s | -63.9°C | 23.4% | 173.5hPa | 2.5V | 00:00:00 | 00:00:00 | 00:00:00 | |
| DO3DL | 2026-09-04 12:40:59 | 51.46057 | 8.91814 | 90° | 146km/h | 13145m | -18.6m/s | -63.9°C | 17.1% | 173.5hPa | 2.5V | 08:21:00 | 00:00:00 | 00:00:00 | |
| DL1XH-15 | 2026-09-04 12:40:58 | 51.46055 | 8.91516 | 87° | 150km/h | 13238m | -18.8m/s | -64.3°C | 21.7% | 170.9hPa | 2.5V | 08:21:01 | 02:22:30 | 00:00:00 | |
| BIOWL1-15 | 2026-09-04 12:40:57 | 51.46056 | 8.91576 | 89° | 148km/h | 13219m | -19m/s | -64.2°C | 20.9% | 171.4hPa | 2.5V | 08:21:34 | 02:22:31 | 00:00:00 | |
| DF2AP-13 | 2026-09-04 12:40:57 | 51.46056 | 8.91636 | 90° | 144km/h | 13201m | -18.6m/s | 0°C | 0% | 0hPa | 2.6V | 00:00:00 | 02:22:32 | 00:00:00 | |
| DL1NUX | 2026-09-04 12:40:56 | 51.46051 | 8.91276 | 89° | 148km/h | 13314m | -18.6m/s | -64.7°C | 20.8% | 168.8hPa | 2.6V | 08:21:05 | 02:22:26 | 00:00:00 | |
| HSKMA3-T | 2026-09-04 12:40:55 | 51.46055 | 8.91516 | 88° | 150km/h | 13239m | -18.8m/s | -64.3°C | 20.4% | 170.9hPa | 2.5V | 08:21:34 | 02:22:30 | 00:00:00 | |
| AA1-15 | 2026-09-04 12:40:52 | 51.46051 | 8.91336 | 89° | 148km/h | 13295m | -18.5m/s | -64.6°C | 19.1% | 169.3hPa | 2.6V | 08:21:34 | 02:22:27 | 00:00:00 | |
| DO2JMG | 2026-09-04 12:40:50 | 51.46050 | 8.91216 | 89° | 148km/h | 13332m | -19m/s | -64.7°C | 18.2% | 168.3hPa | 2.5V | 08:21:34 | 02:22:25 | 00:00:00 | |
| DF8AY | 2026-09-04 12:40:47 | 51.46046 | 8.91036 | 87° | 148km/h | 13390m | -19m/s | -65°C | 16.8% | 166.7hPa | 2.6V | 08:21:34 | 02:22:22 | 00:00:00 | |
| BIOWL1-15 | 2026-09-04 12:40:47 | 51.46044 | 8.90976 | 88° | 146km/h | 13409m | -19m/s | -65.1°C | 16.4% | 166.2hPa | 2.6V | 08:21:34 | 02:22:21 | 00:00:00 | |
| DL1NUX | 2026-09-04 12:40:46 | 51.46037 | 8.90685 | 86° | 141km/h | 13505m | -19.4m/s | -65.4°C | 19.3% | 163.6hPa | 2.6V | 08:21:15 | 02:22:16 | 00:00:00 | |
| HSKMA3-T | 2026-09-04 12:40:44 | 51.46042 | 8.90859 | 89° | 144km/h | 13447m | -19.3m/s | -65.2°C | 15.6% | 165.1hPa | 2.5V | 08:21:34 | 02:22:19 | 00:00:00 | |
| AA1-15 | 2026-09-04 12:40:41 | 51.46037 | 8.90685 | 87° | 142km/h | 13505m | -19.4m/s | -65.4°C | 14.3% | 163.6hPa | 2.6V | 08:21:34 | 02:22:16 | 00:00:00 | |
| DO2JMG | 2026-09-04 12:40:40 | 51.46035 | 8.90628 | 87° | 141km/h | 13524m | -19.3m/s | -65.4°C | 13.8% | 163hPa | 2.6V | 08:21:34 | 02:22:15 | 00:00:00 | |
| DF8AY | 2026-09-04 12:40:37 | 51.46032 | 8.90458 | 88° | 141km/h | 13582m | -19.3m/s | -65.4°C | 12.5% | 161.5hPa | 2.5V | 08:21:34 | 02:22:12 | 00:00:00 | |
| BIOWL1-15 | 2026-09-04 12:40:36 | 51.46031 | 8.90401 | 87° | 141km/h | 13601m | -19.3m/s | -65.5°C | 12.1% | 161hPa | 2.6V | 08:21:34 | 02:22:11 | 00:00:00 | |
| DL1NUX | 2026-09-04 12:40:36 | 51.46028 | 8.90118 | 91° | 141km/h | 13698m | -19.5m/s | -65.3°C | 14.9% | 158.4hPa | 2.6V | 08:21:25 | 02:22:06 | 00:00:00 | |
| HSKMA3-T | 2026-09-04 12:40:33 | 51.46027 | 8.90232 | 90° | 139km/h | 13660m | -19m/s | -65.3°C | 10.5% | 159.4hPa | 2.5V | 08:21:34 | 02:22:08 | 00:00:00 | |
| AA1-15 | 2026-09-04 12:40:31 | 51.46028 | 8.90118 | 92° | 141km/h | 13698m | -19.5m/s | -65.3°C | 9.5% | 158.4hPa | 2.6V | 08:21:34 | 02:22:06 | 00:00:00 | |
| DO2JMG | 2026-09-04 12:40:30 | 51.46029 | 8.90061 | 91° | 142km/h | 13718m | -19.8m/s | -65.2°C | 9% | 157.9hPa | 2.5V | 08:21:34 | 02:22:05 | 00:00:00 | |
| DF8AY | 2026-09-04 12:40:26 | 51.46034 | 8.89832 | 95° | 139km/h | 13797m | -19.8m/s | -64.7°C | 7.2% | 155.9hPa | 2.6V | 08:21:34 | 02:22:01 | 00:00:00 | |
| DL1NUX | 2026-09-04 12:40:26 | 51.46061 | 8.89569 | 100° | 124km/h | 13898m | -20.6m/s | -61.3°C | 8.6% | 153.3hPa | 2.6V | 08:21:35 | 02:21:56 | 00:00:00 | |
| BIOWL1-15 | 2026-09-04 12:40:25 | 51.46043 | 8.89723 | 99° | 133km/h | 13837m | -20m/s | -63.5°C | 6.2% | 154.9hPa | 2.5V | 08:21:34 | 02:21:59 | 00:00:00 | |
| HSKMA3-T | 2026-09-04 12:40:23 | 51.46049 | 8.89671 | 102° | 131km/h | 13857m | -20.3m/s | -62.3°C | 5.5% | 154.4hPa | 2.5V | 08:21:34 | 02:21:58 | 00:00:00 | |
| AA1-15 | 2026-09-04 12:40:21 | 51.46067 | 8.89520 | 101° | 122km/h | 13918m | -20.7m/s | -61.1°C | 4.7% | 152.9hPa | 2.6V | 08:22:25 | 02:21:55 | 00:00:00 | |
| DO2JMG | 2026-09-04 12:40:19 | 51.46072 | 8.89473 | 102° | 117km/h | 13939m | -20.8m/s | -61°C | 4.5% | 152.4hPa | 2.5V | 08:23:16 | 02:21:54 | 00:00:00 | |
| DF8AY | 2026-09-04 12:40:17 | 51.46088 | 8.89340 | 102° | 108km/h | 14001m | -20.4m/s | -60.4°C | 4% | 150.8hPa | 2.6V | 08:24:07 | 02:21:51 | 00:00:00 | |
| DL1NUX | 2026-09-04 12:40:16 | 51.46109 | 8.89135 | 94° | 99km/h | 14104m | -21.1m/s | -59.7°C | 6.8% | 148.4hPa | 2.5V | 08:21:45 | 02:21:46 | 00:00:00 | |
| BIOWL1-15 | 2026-09-04 12:40:14 | 51.46099 | 8.89256 | 100° | 104km/h | 14042m | -20.4m/s | -59.8°C | 3.7% | 149.9hPa | 2.6V | 08:22:25 | 02:21:49 | 00:00:00 | |
| HSKMA3-T | 2026-09-04 12:40:12 | 51.46107 | 8.89175 | 97° | 100km/h | 14083m | -21.1m/s | -59.7°C | 3.6% | 148.9hPa | 2.5V | 08:22:25 | 02:21:47 | 00:00:00 | |
| BIOWL1-15 | 2026-09-04 12:40:12 | 51.46108 | 8.88860 | 84° | 100km/h | 14252m | -21.5m/s | -59.5°C | 3.1% | 144.9hPa | 2.5V | 08:22:25 | 02:21:39 | 00:00:00 | |
| AA1-15 | 2026-09-04 12:40:10 | 51.46111 | 8.89096 | 93° | 97km/h | 14125m | -20.9m/s | -59.6°C | 3.3% | 147.9hPa | 2.6V | 08:22:25 | 02:21:45 | 00:00:00 | |
| DO2JMG | 2026-09-04 12:40:09 | 51.46111 | 8.89057 | 92° | 97km/h | 14146m | -20.9m/s | -59.6°C | 3.4% | 147.4hPa | 2.6V | 08:23:16 | 02:21:44 | 00:00:00 | |
| BUE01 | 2026-09-04 12:40:09 | 51.46112 | 8.89018 | 91° | 95km/h | 14167m | -20.7m/s | -59.5°C | 3.1% | 146.9hPa | 2.6V | 00:00:00 | 00:00:00 | 00:00:00 | |
| DK9SH | 2026-09-04 12:40:08 | 51.46112 | 8.89018 | 92° | 97km/h | 14167m | -20.7m/s | -59.5°C | 3.1% | 146.9hPa | 2.6V | 08:22:00 | 00:00:00 | 00:00:00 | |
| DL1NUX | 2026-09-04 12:40:06 | 51.46100 | 8.88738 | 83° | 100km/h | 14316m | -21.4m/s | -59.5°C | 6.7% | 143.4hPa | 2.6V | 08:21:55 | 02:21:36 | 00:00:00 | |
| DF8AY | 2026-09-04 12:40:06 | 51.46112 | 8.88939 | 89° | 99km/h | 14209m | -21.2m/s | -59.6°C | 3.2% | 145.9hPa | 2.6V | 08:24:07 | 02:21:41 | 00:00:00 | |
| HSKMA3-T | 2026-09-04 12:40:01 | 51.46100 | 8.88738 | 84° | 102km/h | 14316m | -21.4m/s | -59.5°C | 3.1% | 143.4hPa | 2.6V | 08:22:25 | 02:21:36 | 00:00:00 | |
| AA1-15 | 2026-09-04 12:40:00 | 51.46097 | 8.88697 | 84° | 102km/h | 14338m | -21.4m/s | -59.5°C | 3% | 143hPa | 2.6V | 08:22:25 | 02:21:35 | 00:00:00 | |
| DO2JMG | 2026-09-04 12:39:59 | 51.46094 | 8.88656 | 85° | 104km/h | 14359m | -21.7m/s | -59.6°C | 3% | 142.4hPa | 2.6V | 08:23:16 | 02:21:34 | 00:00:00 | |
| DF8AY | 2026-09-04 12:39:55 | 51.46082 | 8.88443 | 88° | 106km/h | 14469m | -22m/s | -60.1°C | 3% | 139.9hPa | 2.6V | 08:24:07 | 02:21:29 | 00:00:00 | |
| BIOWL1-15 | 2026-09-04 12:39:50 | 51.46079 | 8.88141 | 91° | 106km/h | 14624m | -22m/s | -59.3°C | 2.6% | 136.5hPa | 2.5V | 08:22:25 | 02:21:22 | 00:00:00 | |
| HSKMA3-T | 2026-09-04 12:39:50 | 51.46080 | 8.88270 | 88° | 108km/h | 14558m | -22.2m/s | -59.8°C | 2.8% | 138hPa | 2.6V | 08:22:25 | 02:21:25 | 00:00:00 | |
| AA1-15 | 2026-09-04 12:39:49 | 51.46080 | 8.88227 | 88° | 106km/h | 14580m | -22.1m/s | -59.5°C | 2.7% | 137.5hPa | 2.5V | 08:22:25 | 02:21:24 | 00:00:00 | |
| DF8AY | 2026-09-04 12:39:43 | 51.46083 | 8.87971 | 91° | 104km/h | 14713m | -22.6m/s | -58.9°C | 2.5% | 134.6hPa | 2.5V | 08:24:07 | 02:21:18 | 00:00:00 | |
| DL4BBY-15 | 2026-09-04 12:39:43 | 51.46083 | 8.87971 | 91° | 97km/h | 14713m | -22.5m/s | -59.6°C | 0% | 0hPa | 2.6V | 00:00:00 | 00:00:00 | 00:00:00 | |
| DB0UT-7 | 2026-09-04 12:39:42 | 51.46083 | 8.87929 | 91° | 97km/h | 14736m | -22.6m/s | -58.5°C | 6.1% | 134.1hPa | 2.6V | 00:00:00 | 00:00:00 | 00:00:00 | |
| BIOWL9-15 | 2026-09-04 12:39:41 | 51.46086 | 8.87762 | 92° | 102km/h | 14826m | -22.4m/s | -58.3°C | 2.5% | 132.2hPa | 2.6V | 00:00:00 | 00:00:00 | 00:00:00 | |
| DL1XH-15 | 2026-09-04 12:39:40 | 51.46088 | 8.87637 | 91° | 102km/h | 14894m | -22.8m/s | -58°C | 5.8% | 130.8hPa | 2.6V | 08:22:21 | 02:21:10 | 00:00:00 | |
| BIOWL1-15 | 2026-09-04 12:39:39 | 51.46088 | 8.87637 | 91° | 102km/h | 14894m | -22.8m/s | -58°C | 2.2% | 130.8hPa | 2.6V | 08:22:25 | 02:21:10 | 00:00:00 | |
| HSKMA3-T | 2026-09-04 12:39:39 | 51.46085 | 8.87804 | 92° | 102km/h | 14804m | -22.2m/s | -58.2°C | 2.3% | 132.7hPa | 2.6V | 08:22:25 | 02:21:14 | 00:00:00 | |
| AA1-15 | 2026-09-04 12:39:38 | 51.46086 | 8.87762 | 93° | 104km/h | 14826m | -22.4m/s | -58.3°C | 2.3% | 132.2hPa | 2.5V | 08:22:25 | 02:21:13 | 00:00:00 | |
| BUE01 | 2026-09-04 12:39:38 | 51.46087 | 8.87721 | 91° | 102km/h | 14848m | -22.7m/s | -58.2°C | 2.4% | 131.8hPa | 2.6V | 00:00:00 | 00:00:00 | 00:00:00 | |
| DJTTGO | 2026-09-04 12:39:37 | 51.46087 | 8.87720 | 93° | 104km/h | 14848m | -22.7m/s | -58.2°C | 2.4% | 131.8hPa | 2.6V | 08:22:00 | 00:00:00 | 00:00:00 | |
| DL1NUX | 2026-09-04 12:39:36 | 51.46095 | 8.87471 | 95° | 102km/h | 14985m | -23m/s | -58.2°C | 5.7% | 128.9hPa | 2.6V | 08:22:25 | 02:21:06 | 00:00:00 | |
| DF8AY | 2026-09-04 12:39:32 | 51.46092 | 8.87512 | 95° | 102km/h | 14962m | -22.4m/s | -58°C | 2% | 129.4hPa | 2.5V | 08:24:07 | 02:21:07 | 00:00:00 | |
| HSKMA3-T | 2026-09-04 12:39:29 | 51.46099 | 8.87388 | 95° | 102km/h | 15032m | -23.2m/s | -58.1°C | 2.1% | 128hPa | 2.6V | 08:23:16 | 02:21:04 | 00:00:00 | |
| AA1-15 | 2026-09-04 12:39:27 | 51.46104 | 8.87308 | 97° | 99km/h | 15079m | -22.8m/s | -57.8°C | 1.9% | 127.1hPa | 2.5V | 08:23:16 | 02:21:02 | 00:00:00 | |
| BIOWL1-15 | 2026-09-04 12:39:27 | 51.46112 | 8.87230 | 100° | 97km/h | 15125m | -22.9m/s | -57.7°C | 1.8% | 126.1hPa | 2.6V | 08:23:16 | 02:21:00 | 00:00:00 | |
| DL1NUX | 2026-09-04 12:39:26 | 51.46128 | 8.87079 | 101° | 91km/h | 15218m | -22.9m/s | -57.3°C | 5.3% | 124.3hPa | 2.6V | 08:22:35 | 02:20:56 | 00:00:00 | |
| HSKMA3-T | 2026-09-04 12:39:19 | 51.46144 | 8.86972 | 104° | 91km/h | 15287m | -23.1m/s | -57°C | 1.6% | 123hPa | 2.5V | 08:23:16 | 02:20:53 | 00:00:00 | |
| AA1-15 | 2026-09-04 12:39:17 | 51.46149 | 8.86937 | 103° | 89km/h | 15311m | -23.8m/s | -57.1°C | 1.7% | 122.5hPa | 2.5V | 08:23:16 | 02:20:52 | 00:00:00 | |
| DL1NUX | 2026-09-04 12:39:16 | 51.46180 | 8.86744 | 102° | 77km/h | 15452m | -23.7m/s | -57°C | 5.1% | 119.8hPa | 2.5V | 08:22:45 | 02:20:46 | 00:00:00 | |
| HSKMA3-T | 2026-09-04 12:39:08 | 51.46190 | 8.86656 | 99° | 69km/h | 15523m | -23.2m/s | -57.1°C | 1.6% | 118.5hPa | 2.6V | 08:23:16 | 02:20:43 | 00:00:00 | |
| AA1-15 | 2026-09-04 12:39:07 | 51.46195 | 8.86601 | 97° | 68km/h | 15569m | -23.3m/s | -56.7°C | 1.5% | 117.6hPa | 2.5V | 08:23:16 | 02:20:41 | 00:00:00 | |
| BIOWL1-15 | 2026-09-04 12:39:01 | 51.46197 | 8.86467 | 89° | 66km/h | 15687m | -23.4m/s | -56.9°C | 1.4% | 115.4hPa | 2.5V | 08:23:16 | 02:20:36 | 00:00:00 | |
| HSKMA3-T | 2026-09-04 12:38:58 | 51.46195 | 8.86383 | 84° | 71km/h | 15758m | -23.8m/s | -57.1°C | 1.5% | 114.2hPa | 2.5V | 08:23:16 | 02:20:33 | 00:00:00 | |
| DO3DL | 2026-09-04 12:38:58 | 51.46195 | 8.86383 | 85° | 71km/h | 15758m | -23.8m/s | -57.1°C | 1.9% | 114.2hPa | 2.5V | 08:23:00 | 00:00:00 | 00:00:00 | |
| DD1CC3-15 | 2026-09-04 12:38:57 | 51.46195 | 8.86383 | 85° | 71km/h | 15758m | -23.8m/s | -57.1°C | 1.9% | 114.2hPa | 2.5V | 08:23:00 | 00:00:00 | 00:00:00 | |
| DL1NUX | 2026-09-04 12:38:56 | 51.46185 | 8.86168 | 86° | 80km/h | 15926m | -24.2m/s | -56.4°C | 4.9% | 111.1hPa | 2.5V | 08:23:05 | 02:20:26 | 00:00:00 | |
| AA1-15 | 2026-09-04 12:38:56 | 51.46191 | 8.86324 | 85° | 73km/h | 15806m | -24m/s | -57°C | 1.5% | 113.3hPa | 2.5V | 08:23:16 | 02:20:31 | 00:00:00 | |
| DO2JMG | 2026-09-04 12:38:51 | 51.46185 | 8.86168 | 86° | 80km/h | 15926m | -24.3m/s | -56.4°C | 1.4% | 111.2hPa | 2.5V | 08:23:16 | 02:20:26 | 00:00:00 | |
| HSKMA3-T | 2026-09-04 12:38:47 | 51.46183 | 8.86039 | 91° | 78km/h | 16022m | -24.1m/s | -56.7°C | 1.4% | 109.5hPa | 2.6V | 08:23:16 | 02:20:22 | 00:00:00 | |
| AA1-15 | 2026-09-04 12:38:45 | 51.46182 | 8.85975 | 87° | 78km/h | 16070m | -24.1m/s | -57.1°C | 1.4% | 108.6hPa | 2.5V | 08:23:16 | 02:20:20 | 00:00:00 | |
| DL3AQ-11 | 2026-09-04 12:38:45 | 51.46181 | 8.85944 | 86° | 77km/h | 16094m | -23.8m/s | -57.2°C | 1.8% | 108.2hPa | 2.5V | 00:00:00 | 00:00:00 | 00:00:00 | |
| BIOWL1-15 | 2026-09-04 12:38:41 | 51.46178 | 8.85852 | 87° | 73km/h | 16164m | -24m/s | -56.6°C | 1.4% | 107hPa | 2.5V | 08:23:16 | 02:20:16 | 00:00:00 | |
| DO2JMG | 2026-09-04 12:38:40 | 51.46176 | 8.85823 | 83° | 73km/h | 16188m | -24.1m/s | -56.4°C | 1.3% | 106.6hPa | 2.5V | 08:23:16 | 02:20:15 | 00:00:00 | |
| DJ8HS-15 | 2026-09-04 12:38:40 | 51.46176 | 8.85823 | 83° | 69km/h | 16188m | -24.0m/s | -56.4°C | 4.9% | 106.6hPa | 2.5V | 00:00:00 | 02:20:15 | 00:00:00 | |
| BIOWL9-15 | 2026-09-04 12:38:39 | 51.46171 | 8.85765 | 82° | 71km/h | 16236m | -24.1m/s | 0°C | -1.0% | 105.8hPa | 2.5V | 00:00:00 | 00:00:00 | 00:00:00 | |
| HARRO8 | 2026-09-04 12:38:38 | 51.46169 | 8.85736 | 84° | 71km/h | 16260m | -23.9m/s | -55.4°C | 1.6% | 105.4hPa | 2.5V | 00:00:00 | 00:00:00 | 00:00:00 | |
| DD1CC3-15 | 2026-09-04 12:38:37 | 51.46169 | 8.85736 | 86° | 71km/h | 16260m | -23.9m/s | -55.4°C | 1.6% | 105.4hPa | 2.5V | 08:24:00 | 00:00:00 | 00:00:00 | |
| DL1NUX | 2026-09-04 12:38:36 | 51.46158 | 8.85562 | 87° | 71km/h | 16405m | -23.6m/s | -55.9°C | 4.6% | 103hPa | 2.5V | 08:23:25 | 02:20:06 | 00:00:00 | |
| HSKMA3-T | 2026-09-04 12:38:36 | 51.46168 | 8.85707 | 85° | 73km/h | 16284m | -24m/s | -55.4°C | 1% | 105hPa | 2.5V | 08:24:07 | 02:20:11 | 00:00:00 | |
| AA1-15 | 2026-09-04 12:38:34 | 51.46163 | 8.85648 | 81° | 73km/h | 16333m | -24.1m/s | -55.4°C | 1% | 104.2hPa | 2.6V | 08:24:07 | 02:20:09 | 00:00:00 | |
| BIOWL1-15 | 2026-09-04 12:38:32 | 51.46157 | 8.85533 | 85° | 73km/h | 16429m | -24.1m/s | -56°C | 1.1% | 102.6hPa | 2.5V | 08:24:07 | 02:20:05 | 00:00:00 | |
| DO2JMG | 2026-09-04 12:38:29 | 51.46156 | 8.85504 | 86° | 69km/h | 16453m | -24.3m/s | -55.9°C | 1.1% | 102.3hPa | 2.5V | 08:24:58 | 02:20:04 | 00:00:00 | |
| DB0NH | 2026-09-04 12:38:28 | 51.46155 | 8.85476 | 90° | 57km/h | 16477m | -24.0m/s | -55.7°C | 4.6% | 101.8hPa | 2.6V | 00:00:00 | 02:20:03 | 00:00:00 | |
| AU51GT2 | 2026-09-04 12:38:27 | 51.46156 | 8.85422 | 93° | 66km/h | 16525m | -24.1m/s | -55.7°C | 1.6% | 101.1hPa | 2.6V | 00:00:00 | 00:00:00 | 00:00:00 | |
| DL1NUX | 2026-09-04 12:38:26 | 51.46160 | 8.85294 | 94° | 62km/h | 16646m | -24.3m/s | -55.9°C | 4.6% | 99.2hPa | 2.6V | 08:23:35 | 02:19:56 | 00:00:00 | |
| DB0DAN | 2026-09-04 12:38:25 | 51.46157 | 8.85395 | 91° | 62km/h | 16549m | -24.5m/s | -55.7°C | 1.5% | 100.7hPa | 2.5V | 00:00:00 | 00:00:00 | 00:00:00 | |
| HSKMA3-T | 2026-09-04 12:38:25 | 51.46157 | 8.85395 | 92° | 66km/h | 16549m | -24.5m/s | -55.7°C | 1% | 100.7hPa | 2.5V | 08:24:07 | 02:20:00 | 00:00:00 | |
| AA1-15 | 2026-09-04 12:38:24 | 51.46157 | 8.85369 | 91° | 64km/h | 16574m | -24.3m/s | -55.7°C | 1% | 100.3hPa | 2.5V | 08:24:07 | 02:19:59 | 00:00:00 | |
| DL1XH-15 | 2026-09-04 12:38:22 | 51.46163 | 8.85194 | 95° | 60km/h | 16744m | -23.7m/s | -56°C | 4.6% | 97.7hPa | 2.5V | 08:23:39 | 02:19:52 | 00:00:00 | |
| BIOWL1-15 | 2026-09-04 12:38:20 | 51.46161 | 8.85268 | 93° | 62km/h | 16671m | -24.6m/s | -55.9°C | 1.1% | 98.8hPa | 2.6V | 08:24:07 | 02:19:55 | 00:00:00 | |
| DO2JMG | 2026-09-04 12:38:18 | 51.46162 | 8.85219 | 93° | 60km/h | 16720m | -24.2m/s | -55.9°C | 1% | 98.1hPa | 2.5V | 08:24:58 | 02:19:53 | 00:00:00 | |
| DL4XJ-10 | 2026-09-04 12:38:18 | 51.46162 | 8.85219 | 93° | 60km/h | 16720m | -24.2m/s | -56.5°C | 0% | 0hPa | 2.6V | 00:00:00 | 00:00:00 | 00:00:00 | |
| DL1ZP-14 | 2026-09-04 12:38:17 | 51.46165 | 8.85170 | 95° | 60km/h | 16768m | -24.1m/s | -55.9°C | 1.5% | 97.3hPa | 2.6V | 00:00:00 | 00:00:00 | 00:00:00 | |
| DL1NUX | 2026-09-04 12:38:16 | 51.46172 | 8.85048 | 97° | 62km/h | 16890m | -25.1m/s | -55.1°C | 4.2% | 95.4hPa | 2.6V | 08:23:45 | 02:19:46 | 00:00:00 | |
| AA1-15 | 2026-09-04 12:38:14 | 51.46166 | 8.85121 | 93° | 60km/h | 16816m | -24.4m/s | -55.5°C | 0.9% | 96.5hPa | 2.5V | 08:24:07 | 02:19:49 | 00:00:00 | |
| DO9LL-15 | 2026-09-04 12:38:14 | 51.46166 | 8.85121 | 93° | 51km/h | 16817m | -24.4m/s | -55.4°C | 4.4% | 96.5hPa | 2.5V | 00:00:00 | 02:19:49 | 00:00:00 | |
| NBG1-10 | 2026-09-04 12:38:13 | 51.46168 | 8.85097 | 97° | 57km/h | 16841m | -24.2m/s | -55.4°C | 4.4% | 96.1hPa | 2.6V | 00:00:00 | 02:19:48 | 00:00:00 | |
| DL1XH-15 | 2026-09-04 12:38:12 | 51.46181 | 8.84949 | 100° | 62km/h | 16988m | -24.7m/s | -55.3°C | 4.3% | 94hPa | 2.6V | 08:23:49 | 02:19:42 | 00:00:00 | |
| DF8AY | 2026-09-04 12:38:09 | 51.46176 | 8.84998 | 99° | 60km/h | 16940m | -24.4m/s | -55.3°C | 0.8% | 94.7hPa | 2.5V | 08:24:07 | 02:19:44 | 00:00:00 | |
| DO2JMG | 2026-09-04 12:38:08 | 51.46179 | 8.84974 | 101° | 62km/h | 16964m | -24.2m/s | -55.3°C | 0.8% | 94.4hPa | 2.6V | 08:24:58 | 02:19:43 | 00:00:00 | |
| DL1NUX | 2026-09-04 12:38:06 | 51.46195 | 8.84807 | 97° | 57km/h | 17137m | -25.3m/s | -54.9°C | 4.1% | 91.9hPa | 2.5V | 08:23:55 | 02:19:36 | 00:00:00 | |
| HSKMA3-T | 2026-09-04 12:38:03 | 51.46191 | 8.84853 | 100° | 60km/h | 17087m | -24.9m/s | -54.9°C | 0.7% | 92.6hPa | 2.6V | 08:24:07 | 02:19:38 | 00:00:00 | |
| DL1XH-15 | 2026-09-04 12:38:02 | 51.46200 | 8.84718 | 90° | 51km/h | 17236m | -25m/s | -55.3°C | 4.2% | 90.4hPa | 2.6V | 08:23:59 | 02:19:32 | 00:00:00 | |
| BIOWL1-15 | 2026-09-04 12:38:01 | 51.46199 | 8.84762 | 97° | 57km/h | 17187m | -24.3m/s | -55.1°C | 0.7% | 91.1hPa | 2.6V | 08:24:07 | 02:19:34 | 00:00:00 | |
| DD1CC8 | 2026-09-04 12:38:00 | 51.46199 | 8.84762 | 97° | 55km/h | 17187m | -24.3m/s | -55.1°C | 1.3% | 91.1hPa | 2.6V | 00:00:00 | 00:00:00 | 00:00:00 | |
| DO3MHA-11 | 2026-09-04 12:37:58 | 51.46199 | 8.84740 | 91° | 46km/h | 17211m | -24.9m/s | -55.2°C | 4.1% | 90.7hPa | 2.6V | 00:00:00 | 02:19:33 | 00:00:00 | |
| DL1NUX | 2026-09-04 12:37:56 | 51.46201 | 8.84605 | 90° | 42km/h | 17389m | -25.5m/s | -55.4°C | 4.1% | 88.3hPa | 2.6V | 08:24:05 | 02:19:26 | 00:00:00 | |
| HSKMA3-T | 2026-09-04 12:37:53 | 51.46201 | 8.84639 | 88° | 46km/h | 17338m | -25.1m/s | -55.5°C | 0.7% | 89hPa | 2.7V | 08:24:07 | 02:19:28 | 00:00:00 | |
| AA1-15 | 2026-09-04 12:37:52 | 51.46201 | 8.84622 | 92° | 42km/h | 17364m | -25m/s | -55.5°C | 0.7% | 88.7hPa | 2.6V | 08:24:07 | 02:19:27 | 00:00:00 | |
| BIOWL1-15 | 2026-09-04 12:37:49 | 51.46200 | 8.84573 | 82° | 37km/h | 17440m | -25.8m/s | -55.5°C | 0.7% | 87.6hPa | 2.5V | 08:24:07 | 02:19:24 | 00:00:00 | |
| DO1YAY-16 | 2026-09-04 12:37:47 | 51.46198 | 8.84544 | 84° | 35km/h | 17492m | -25.6m/s | -55.5°C | 1.3% | 86.9hPa | 2.6V | 00:00:00 | 00:00:00 | 00:00:00 | |
| DL1NUX | 2026-09-04 12:37:46 | 51.46183 | 8.84466 | 60° | 35km/h | 17647m | -25.7m/s | -56°C | 4.3% | 84.8hPa | 2.6V | 08:24:15 | 02:19:16 | 00:00:00 | |
| HSKMA3-T | 2026-09-04 12:37:42 | 51.46187 | 8.84478 | 67° | 35km/h | 17621m | -26.3m/s | -55.9°C | 0.7% | 85.2hPa | 2.5V | 08:25:49 | 02:19:17 | 00:00:00 | |
| BIOWL1-15 | 2026-09-04 12:37:38 | 51.46170 | 8.84428 | 57° | 38km/h | 17725m | -26.6m/s | -56.7°C | 0.9% | 83.8hPa | 2.5V | 08:24:58 | 02:19:13 | 00:00:00 | |
| DL4XJ-10 | 2026-09-04 12:37:38 | 51.46170 | 8.84428 | 58° | 49km/h | 17726m | -26.5m/s | -57.4°C | 0% | 0hPa | 2.5V | 00:00:00 | 00:00:00 | 00:00:00 | |
| DK9SH | 2026-09-04 12:37:37 | 51.46169 | 8.84428 | 58° | 38km/h | 17726m | -26.6m/s | -56.7°C | 1.4% | 83.8hPa | 2.5V | 08:24:00 | 00:00:00 | 00:00:00 | |
| DL1NUX | 2026-09-04 12:37:36 | 51.46125 | 8.84323 | 63° | 49km/h | 17910m | -26.3m/s | -56.6°C | 4.6% | 81.3hPa | 2.5V | 08:24:25 | 02:19:06 | 00:00:00 | |
| HSKMA3-T | 2026-09-04 12:37:32 | 51.46132 | 8.84340 | 58° | 49km/h | 17884m | -26.6m/s | -56.6°C | 0.9% | 81.7hPa | 2.5V | 08:25:49 | 02:19:07 | 00:00:00 | |
| AA1-15 | 2026-09-04 12:37:31 | 51.46126 | 8.84323 | 64° | 49km/h | 17910m | -26.3m/s | -56.6°C | 0.9% | 81.3hPa | 2.5V | 08:24:58 | 02:19:06 | 00:00:00 | |
| BIOWL1-15 | 2026-09-04 12:37:30 | 51.46100 | 8.84226 | 73° | 55km/h | 18044m | -27.1m/s | -57°C | 1% | 79.7hPa | 2.5V | 08:24:58 | 02:19:01 | 00:00:00 | |
| DD1CC8 | 2026-09-04 12:37:29 | 51.46108 | 8.84266 | 67° | 51km/h | 17991m | -26.9m/s | -57.0°C | 1.4% | 80.3hPa | 2.6V | 00:00:00 | 00:00:00 | 00:00:00 | |
| DL8OAI-8 | 2026-09-04 12:37:27 | 51.46108 | 8.84266 | 68° | 51km/h | 17991m | -26.9m/s | -57.0°C | 1.5% | 80.3hPa | 2.6V | 08:24:00 | 00:00:00 | 00:00:00 | |
| DO3MHA-11 | 2026-09-04 12:37:26 | 51.46100 | 8.84226 | 73° | 49km/h | 18044m | -27.0m/s | -56.9°C | 4.9% | 79.6hPa | 2.6V | 00:00:00 | 02:19:01 | 00:00:00 | |
| AU51GT2 | 2026-09-04 12:37:25 | 51.46091 | 8.84185 | 73° | 51km/h | 18098m | -26.9m/s | -56.5°C | 1.4% | 79.0hPa | 2.6V | 00:00:00 | 00:00:00 | 00:00:00 | |
| DO3MHA-12 | 2026-09-04 12:37:24 | 51.46091 | 8.84184 | 74° | 53km/h | 18098m | -26.9m/s | -56.5°C | 4.7% | 78.9hPa | 2.6V | 00:00:00 | 02:18:59 | 00:00:00 | |
| DC6BW-12 | 2026-09-04 12:37:23 | 51.46091 | 8.84184 | 75° | 53km/h | 18098m | -26.9m/s | -56.5°C | 1.4% | 79.0hPa | 2.6V | 08:24:00 | 00:00:00 | 00:00:00 | |
| DL1XH-15 | 2026-09-04 12:37:22 | 51.46073 | 8.84043 | 76° | 51km/h | 18289m | -27.5m/s | -56°C | 4.5% | 76.6hPa | 2.6V | 08:24:39 | 02:18:52 | 00:00:00 | |
| AA1-15 | 2026-09-04 12:37:21 | 51.46082 | 8.84123 | 75° | 53km/h | 18179m | -27.3m/s | -56.6°C | 1% | 78hPa | 2.6V | 08:24:58 | 02:18:56 | 00:00:00 | |
| DF8AY | 2026-09-04 12:37:20 | 51.46080 | 8.84103 | 77° | 51km/h | 18207m | -27.2m/s | -56.6°C | 1% | 77.7hPa | 2.5V | 08:25:49 | 02:18:55 | 00:00:00 | |
| BIOWL1-15 | 2026-09-04 12:37:17 | 51.46073 | 8.84043 | 76° | 51km/h | 18289m | -27.5m/s | -56°C | 0.9% | 76.6hPa | 2.6V | 08:24:58 | 02:18:52 | 00:00:00 | |
| DO2JMG | 2026-09-04 12:37:16 | 51.46070 | 8.84024 | 79° | 47km/h | 18316m | -27.5m/s | -56°C | 0.9% | 76.3hPa | 2.6V | 08:24:58 | 02:18:51 | 00:00:00 | |
| DK9SH | 2026-09-04 12:37:16 | 51.46070 | 8.84024 | 80° | 47km/h | 18316m | -27.5m/s | -56.0°C | 1.4% | 76.3hPa | 2.5V | 08:24:00 | 00:00:00 | 00:00:00 | |
| DL1ZP-14 | 2026-09-04 12:37:15 | 51.46067 | 8.83986 | 84° | 47km/h | 18371m | -27.2m/s | -55.9°C | 1.4% | 75.7hPa | 2.5V | 00:00:00 | 00:00:00 | 00:00:00 | |
| DO3MHA-12 | 2026-09-04 12:37:14 | 51.46067 | 8.83986 | 85° | 40km/h | 18371m | -27.1m/s | -55.9°C | 4.6% | 75.6hPa | 2.5V | 00:00:00 | 02:18:49 | 00:00:00 | |
| DL4BBY-15 | 2026-09-04 12:37:13 | 51.46065 | 8.83967 | 79° | 44km/h | 18398m | -27.3m/s | -56.7°C | 0% | 0hPa | 2.5V | 00:00:00 | 00:00:00 | 00:00:00 | |
| DL1XH-15 | 2026-09-04 12:37:12 | 51.46065 | 8.83863 | 95° | 42km/h | 18562m | -27.6m/s | -55.8°C | 4.6% | 73.4hPa | 2.5V | 08:24:49 | 02:18:42 | 00:00:00 | |
| HSKMA3-T | 2026-09-04 12:37:11 | 51.46063 | 8.83931 | 92° | 42km/h | 18453m | -27.1m/s | -56.1°C | 1% | 74.7hPa | 2.6V | 08:25:49 | 02:18:46 | 00:00:00 | |
| DF8AY | 2026-09-04 12:37:10 | 51.46064 | 8.83914 | 92° | 44km/h | 18480m | -27.3m/s | -55.9°C | 0.9% | 74.3hPa | 2.6V | 08:25:49 | 02:18:45 | 00:00:00 | |
| AA1-15 | 2026-09-04 12:37:10 | 51.46064 | 8.83897 | 92° | 42km/h | 18507m | -27.5m/s | -55.8°C | 0.9% | 74hPa | 2.6V | 08:24:58 | 02:18:44 | 00:00:00 | |
| BIOWL1-15 | 2026-09-04 12:37:07 | 51.46065 | 8.83863 | 96° | 42km/h | 18562m | -27.6m/s | -55.8°C | 0.9% | 73.4hPa | 2.5V | 08:24:58 | 02:18:42 | 00:00:00 | |
| DL1NUX | 2026-09-04 12:37:06 | 51.46066 | 8.83756 | 86° | 46km/h | 18732m | -28.4m/s | -55°C | 4.3% | 71.5hPa | 2.5V | 08:24:55 | 02:18:36 | 00:00:00 | |
| DO2JMG | 2026-09-04 12:37:05 | 51.46066 | 8.83828 | 88° | 44km/h | 18618m | -28.3m/s | -55.4°C | 0.8% | 72.8hPa | 2.6V | 08:24:58 | 02:18:40 | 00:00:00 | |
| HARRO8 | 2026-09-04 12:37:05 | 51.46065 | 8.83810 | 88° | 42km/h | 18646m | -28.1m/s | -55.3°C | 1.3% | 72.4hPa | 2.6V | 00:00:00 | 00:00:00 | 00:00:00 | |
| DC6BW-12 | 2026-09-04 12:37:03 | 51.46065 | 8.83810 | 90° | 44km/h | 18646m | -28.1m/s | -55.3°C | 1.4% | 72.4hPa | 2.6V | 08:24:00 | 00:00:00 | 00:00:00 | |
| DL1XH-15 | 2026-09-04 12:37:02 | 51.46064 | 8.83680 | 87° | 46km/h | 18845m | -28.6m/s | -55.1°C | 4.5% | 70.2hPa | 2.6V | 08:24:59 | 02:18:32 | 00:00:00 | |
| AA1-15 | 2026-09-04 12:37:00 | 51.46065 | 8.83737 | 88° | 46km/h | 18760m | -28m/s | -55.2°C | 0.8% | 71.2hPa | 2.5V | 08:24:58 | 02:18:35 | 00:00:00 | |
| DF8AY | 2026-09-04 12:36:59 | 51.46065 | 8.83719 | 91° | 47km/h | 18788m | -27.9m/s | -55.2°C | 0.8% | 70.9hPa | 2.6V | 08:25:49 | 02:18:34 | 00:00:00 | |
| BIOWL1-15 | 2026-09-04 12:36:56 | 51.46065 | 8.83643 | 93° | 47km/h | 18902m | -28.9m/s | -54.5°C | 0.7% | 69.6hPa | 2.5V | 08:25:49 | 02:18:30 | 00:00:00 | |
| DL1NUX | 2026-09-04 12:36:56 | 51.46068 | 8.83569 | 89° | 46km/h | 19020m | -29m/s | -53.4°C | 3.8% | 68.3hPa | 2.6V | 08:25:05 | 02:18:26 | 00:00:00 | |
| DO2JMG | 2026-09-04 12:36:54 | 51.46066 | 8.83624 | 90° | 46km/h | 18932m | -28.8m/s | -54.1°C | 0.6% | 69.3hPa | 2.5V | 08:25:49 | 02:18:29 | 00:00:00 | |
| AU51GT2 | 2026-09-04 12:36:53 | 51.46066 | 8.83606 | 92° | 44km/h | 18961m | -28.7m/s | -54.0°C | 1.2% | 69.0hPa | 2.7V | 00:00:00 | 00:00:00 | 00:00:00 | |
| DL1XH-15 | 2026-09-04 12:36:52 | 51.46072 | 8.83500 | 94° | 40km/h | 19136m | -29.7m/s | -53.7°C | 3.9% | 67.1hPa | 2.7V | 08:25:09 | 02:18:22 | 00:00:00 | |
| HSKMA3-T | 2026-09-04 12:36:50 | 51.46068 | 8.83551 | 94° | 42km/h | 19048m | -29.4m/s | -53.5°C | 0.5% | 68hPa | 2.5V | 08:25:49 | 02:18:25 | 00:00:00 | |
| DF8AY | 2026-09-04 12:36:49 | 51.46070 | 8.83534 | 102° | 42km/h | 19077m | -29.1m/s | -53.6°C | 0.5% | 67.8hPa | 2.5V | 08:25:49 | 02:18:24 | 00:00:00 | |
| BIOWL7-15 | 2026-09-04 12:36:48 | 51.46071 | 8.83517 | 96° | 44km/h | 19107m | -29.2m/s | -53.7°C | 1.1% | 67.4hPa | 2.7V | 00:00:00 | 00:00:00 | 00:00:00 | |
| DO3MHA-11 | 2026-09-04 12:36:47 | 51.46072 | 8.83499 | 95° | 27km/h | 19136m | -29.7m/s | -53.7°C | 3.9% | 67.1hPa | 2.7V | 00:00:00 | 02:18:22 | 00:00:00 | |
| DL1NUX | 2026-09-04 12:36:46 | 51.46079 | 8.83419 | 94° | 26km/h | 19313m | -29.8m/s | -53.1°C | 3.6% | 65.3hPa | 2.7V | 08:25:15 | 02:18:16 | 00:00:00 | |
| BIOWL1-15 | 2026-09-04 12:36:46 | 51.46073 | 8.83484 | 98° | 37km/h | 19165m | -29.6m/s | -53.9°C | 0.5% | 66.8hPa | 2.6V | 08:25:49 | 02:18:21 | 00:00:00 | |
| DO1YAY-16 | 2026-09-04 12:36:45 | 51.46075 | 8.83469 | 104° | 35km/h | 19195m | -29.3m/s | -53.9°C | 1.1% | 66.5hPa | 2.5V | 00:00:00 | 00:00:00 | 00:00:00 | |
| DL3AQ-11 | 2026-09-04 12:36:44 | 51.46077 | 8.83455 | 100° | 35km/h | 19224m | -29.4m/s | -53.8°C | 1.1% | 66.2hPa | 2.5V | 00:00:00 | 00:00:00 | 00:00:00 | |
| DO2JMG | 2026-09-04 12:36:43 | 51.46078 | 8.83442 | 98° | 31km/h | 19254m | -29.5m/s | -53.8°C | 0.5% | 65.9hPa | 2.5V | 08:25:49 | 02:18:18 | 00:00:00 | |
| DL4BBY-15 | 2026-09-04 12:36:43 | 51.46078 | 8.83442 | 98° | 29km/h | 19254m | -29.5m/s | -54.4°C | 0% | 0hPa | 2.5V | 00:00:00 | 00:00:00 | 00:00:00 | |
| DL1XH-15 | 2026-09-04 12:36:42 | 51.46077 | 8.83383 | 74° | 22km/h | 19432m | -30.2m/s | -53.2°C | 3.7% | 64.1hPa | 2.5V | 08:25:19 | 02:18:12 | 00:00:00 | |
| HSKMA3-T | 2026-09-04 12:36:39 | 51.46079 | 8.83400 | 80° | 22km/h | 19372m | -29.9m/s | -53.1°C | 0.4% | 64.7hPa | 2.6V | 08:25:49 | 02:18:14 | 00:00:00 | |
| DF8AY | 2026-09-04 12:36:38 | 51.46078 | 8.83392 | 80° | 20km/h | 19402m | -29.6m/s | -53.1°C | 0.4% | 64.4hPa | 2.5V | 08:25:49 | 02:18:13 | 00:00:00 | |
| EDDB2-11 | 2026-09-04 12:36:37 | 51.46075 | 8.83374 | 68° | 22km/h | 19462m | -30.1m/s | -53.3°C | 1.1% | 63.8hPa | 2.6V | 00:00:00 | 00:00:00 | 00:00:00 | |
| DL1NUX | 2026-09-04 12:36:36 | 51.46059 | 8.83325 | 66° | 31km/h | 19611m | -29.9m/s | -54.3°C | 4.2% | 62.3hPa | 2.6V | 08:25:25 | 02:18:06 | 00:00:00 | |
| BIOWL1-15 | 2026-09-04 12:36:35 | 51.46053 | 8.83299 | 69° | 37km/h | 19671m | -30.4m/s | -54.7°C | 0.8% | 61.8hPa | 2.5V | 08:25:49 | 02:18:04 | 00:00:00 | |
| DO2JMG | 2026-09-04 12:36:33 | 51.46066 | 8.83346 | 62° | 29km/h | 19551m | -30.1m/s | -53.9°C | 0.6% | 62.9hPa | 2.5V | 08:25:49 | 02:18:08 | 00:00:00 | |
| DL1XH-15 | 2026-09-04 12:36:32 | 51.46048 | 8.83271 | 84° | 37km/h | 19732m | -30.4m/s | -54.8°C | 4.4% | 61.1hPa | 2.6V | 08:25:29 | 02:18:02 | 00:00:00 | |
| AA1-15 | 2026-09-04 12:36:28 | 51.46050 | 8.83286 | 73° | 37km/h | 19701m | -30.4m/s | -54.8°C | 0.8% | 61.5hPa | 2.6V | 08:25:49 | 02:18:03 | 00:00:00 | |
| HSKMA3-T | 2026-09-04 12:36:27 | 51.46048 | 8.83271 | 84° | 37km/h | 19732m | -30.4m/s | -54.8°C | 0.8% | 61.2hPa | 2.6V | 08:25:49 | 02:18:02 | 00:00:00 | |
| DD1CC8 | 2026-09-04 12:36:27 | 51.46047 | 8.83256 | 87° | 38km/h | 19762m | -30.9m/s | -54.9°C | 1.3% | 60.9hPa | 2.5V | 00:00:00 | 00:00:00 | 00:00:00 | |
| DL1NUX | 2026-09-04 12:36:26 | 51.46047 | 8.83180 | 91° | 35km/h | 19917m | -31m/s | -54.6°C | 4.4% | 59.5hPa | 2.5V | 08:25:35 | 02:17:56 | 00:00:00 | |
| BIOWL1-15 | 2026-09-04 12:36:24 | 51.46045 | 8.83225 | 86° | 38km/h | 19824m | -30.5m/s | -55.1°C | 0.9% | 60.3hPa | 2.6V | 08:25:49 | 02:17:59 | 00:00:00 | |
| DO2JMG | 2026-09-04 12:36:22 | 51.46046 | 8.83195 | 91° | 38km/h | 19886m | -31.2m/s | -54.8°C | 0.9% | 59.7hPa | 2.5V | 08:25:49 | 02:17:57 | 00:00:00 | |
| HSKMA3-T | 2026-09-04 12:36:17 | 51.46052 | 8.83131 | 97° | 26km/h | 20043m | -31.2m/s | -53.8°C | 0.7% | 58.3hPa | 2.5V | 08:25:49 | 02:17:52 | 00:00:00 | |
| BIOWL1-15 | 2026-09-04 12:36:14 | 51.46053 | 8.83104 | 86° | 18km/h | 20138m | -31.7m/s | -52.6°C | 0.4% | 57.5hPa | 2.7V | 08:25:49 | 02:17:49 | 00:00:00 | |
| DO2JMG | 2026-09-04 12:36:12 | 51.46053 | 8.83089 | 85° | 18km/h | 20200m | -32m/s | -52.5°C | 0.4% | 56.9hPa | 2.6V | 08:25:49 | 02:17:47 | 00:00:00 | |
| AA1-15 | 2026-09-04 12:36:07 | 51.46049 | 8.83053 | 84° | 18km/h | 20360m | -32.2m/s | -52.5°C | 0.4% | 55.5hPa | 2.6V | 08:25:49 | 02:17:42 | 00:00:00 | |
| BIOWL1-15 | 2026-09-04 12:36:07 | 51.46053 | 8.83019 | 114° | 24km/h | 20490m | -32.6m/s | -52.5°C | 0.4% | 54.4hPa | 2.5V | 08:26:40 | 02:17:38 | 00:00:00 | |
| HSKMA3-T | 2026-09-04 12:36:06 | 51.46049 | 8.83045 | 102° | 20km/h | 20393m | -32.1m/s | -52.6°C | 0.4% | 55.2hPa | 2.6V | 08:26:40 | 02:17:41 | 00:00:00 | |
| DO2JMG | 2026-09-04 12:36:01 | 51.46057 | 8.83000 | 110° | 24km/h | 20555m | -32.9m/s | -52.6°C | 0.4% | 53.9hPa | 2.6V | 08:27:31 | 02:17:36 | 00:00:00 | |
| SONCRA | 2026-09-04 12:36:00 | 51.46061 | 8.82982 | 120° | 26km/h | 20621m | -32.4m/s | -52.6°C | 1.1% | 53.3hPa | 2.5V | 00:00:00 | 00:00:00 | 00:00:00 | |
| DL9SK-14 | 2026-09-04 12:35:59 | 51.46061 | 8.82982 | 120° | 26km/h | 20621m | -32.4m/s | -52.6°C | 1.1% | 53.3hPa | 2.5V | 00:00:00 | 00:00:00 | 00:00:00 | |
| DL1XH-15 | 2026-09-04 12:35:58 | 51.46067 | 8.82964 | 112° | 22km/h | 20687m | -32.9m/s | -52.6°C | 3.7% | 52.8hPa | 2.5V | 08:25:59 | 02:17:32 | 00:00:00 | |
| AA1-15 | 2026-09-04 12:35:56 | 51.46069 | 8.82956 | 120° | 22km/h | 20720m | -32.5m/s | -52.7°C | 0.4% | 52.5hPa | 2.7V | 08:26:40 | 02:17:31 | 00:00:00 | |
| DD1CC8 | 2026-09-04 12:35:55 | 51.46072 | 8.82948 | 116° | 22km/h | 20753m | -32.8m/s | -52.8°C | 1.0% | 52.2hPa | 2.5V | 00:00:00 | 00:00:00 | 00:00:00 | |
| DB0DAN | 2026-09-04 12:35:55 | 51.46072 | 8.82948 | 117° | 22km/h | 20753m | -32.8m/s | -52.8°C | 1% | 52.25hPa | 2.7V | 00:00:00 | 00:00:00 | 00:00:00 | |
| DF8AY | 2026-09-04 12:35:55 | 51.46072 | 8.82948 | 117° | 22km/h | 20752m | -32.8m/s | -52.8°C | 0.4% | 52.2hPa | 2.7V | 08:26:40 | 02:17:30 | 00:00:00 | |
| DL3AQ-11 | 2026-09-04 12:35:54 | 51.46076 | 8.82934 | 111° | 16km/h | 20819m | -33.0m/s | -52.9°C | 1.1% | 51.7hPa | 2.5V | 00:00:00 | 00:00:00 | 00:00:00 | |
| DO3MHA-11 | 2026-09-04 12:35:53 | 51.46075 | 8.82934 | 112° | 13km/h | 20819m | -32.9m/s | -52.9°C | 3.8% | 51.7hPa | 2.5V | 00:00:00 | 02:17:28 | 00:00:00 | |
| DL1XH-15 | 2026-09-04 12:35:52 | 51.46077 | 8.82903 | 45° | 11km/h | 21017m | -33.2m/s | -53.1°C | 3.9% | 50.2hPa | 2.5V | 08:26:09 | 02:17:22 | 00:00:00 | |
| BIOWL1-15 | 2026-09-04 12:35:52 | 51.46077 | 8.82927 | 113° | 16km/h | 20852m | -32.8m/s | -52.9°C | 0.5% | 51.4hPa | 2.5V | 08:26:40 | 02:17:27 | 00:00:00 | |
| HSKMA3-T | 2026-09-04 12:35:51 | 51.46078 | 8.82921 | 93° | 15km/h | 20884m | -33m/s | -53°C | 0.5% | 51.2hPa | 2.5V | 08:26:40 | 02:17:26 | 00:00:00 | |
| DO2JMG | 2026-09-04 12:35:50 | 51.46078 | 8.82916 | 85° | 11km/h | 20917m | -33m/s | -53°C | 0.5% | 50.9hPa | 2.7V | 08:27:31 | 02:17:25 | 00:00:00 | |
| AA1-15 | 2026-09-04 12:35:45 | 51.46073 | 8.82898 | 49° | 11km/h | 21083m | -33.1m/s | -53.3°C | 0.6% | 49.6hPa | 2.7V | 08:26:40 | 02:17:20 | 00:00:00 | |
| DF8AY | 2026-09-04 12:35:44 | 51.46072 | 8.82895 | 39° | 11km/h | 21117m | -33.3m/s | -53.3°C | 0.6% | 49.4hPa | 2.6V | 08:26:40 | 02:17:19 | 00:00:00 | |
| BIOWL1-15 | 2026-09-04 12:35:44 | 51.46068 | 8.82888 | 65° | 11km/h | 21183m | -33.1m/s | -53.3°C | 0.6% | 48.9hPa | 2.5V | 08:26:40 | 02:17:17 | 00:00:00 | |
| HSKMA3-T | 2026-09-04 12:35:39 | 51.46066 | 8.82875 | 97° | 13km/h | 21284m | -33.7m/s | -53.5°C | 0.6% | 48.1hPa | 2.5V | 08:26:40 | 02:17:14 | 00:00:00 | |
| DL3AQ-11 | 2026-09-04 12:35:38 | 51.46065 | 8.82864 | 87° | 15km/h | 21352m | -33.5m/s | -53.4°C | 1.2% | 47.6hPa | 2.7V | 00:00:00 | 00:00:00 | 00:00:00 | |
| DL1NUX | 2026-09-04 12:35:36 | 51.46071 | 8.82824 | 105° | 15km/h | 21557m | -34.3m/s | -52.4°C | 3.8% | 46.1hPa | 2.7V | 08:26:25 | 02:17:06 | 00:00:00 | |
| AA1-15 | 2026-09-04 12:35:35 | 51.46067 | 8.82850 | 91° | 18km/h | 21420m | -34.2m/s | -53.2°C | 0.7% | 47.1hPa | 2.6V | 08:26:40 | 02:17:10 | 00:00:00 | |
| DF8AY | 2026-09-04 12:35:33 | 51.46068 | 8.82837 | 113° | 18km/h | 21488m | -33.8m/s | -53°C | 0.6% | 46.6hPa | 2.5V | 08:26:40 | 02:17:08 | 00:00:00 | |
| DL1XH-15 | 2026-09-04 12:35:32 | 51.46075 | 8.82802 | 104° | 13km/h | 21696m | -34.9m/s | -52.2°C | 3.8% | 45.1hPa | 2.5V | 08:26:29 | 02:17:02 | 00:00:00 | |
| BIOWL1-15 | 2026-09-04 12:35:32 | 51.46070 | 8.82830 | 103° | 16km/h | 21523m | -34.2m/s | -52.7°C | 0.6% | 46.4hPa | 2.5V | 08:26:40 | 02:17:07 | 00:00:00 | |
| HSKMA3-T | 2026-09-04 12:35:29 | 51.46074 | 8.82812 | 100° | 15km/h | 21626m | -34.9m/s | -52.3°C | 0.5% | 45.6hPa | 2.6V | 08:26:40 | 02:17:04 | 00:00:00 | |
| DL1XH-west | 2026-09-04 12:35:27 | 51.46075 | 8.82803 | 104° | 13km/h | 21696m | -34.9m/s | -52.2°C | 0.4% | 45.1hPa | 2.5V | 08:26:40 | 02:17:02 | 00:00:00 | |
| AA1-15 | 2026-09-04 12:35:25 | 51.46075 | 8.82794 | 78° | 9km/h | 21767m | -35.6m/s | -51.9°C | 0.4% | 44.6hPa | 2.7V | 08:26:40 | 02:17:00 | 00:00:00 | |
| DF8AY | 2026-09-04 12:35:23 | 51.46075 | 8.82786 | 84° | 9km/h | 21838m | -35.9m/s | -52.1°C | 0.4% | 44.2hPa | 2.6V | 08:26:40 | 02:16:58 | 00:00:00 | |
| DL1XH-15 | 2026-09-04 12:35:22 | 51.46069 | 8.82762 | 71° | 9km/h | 22054m | -34.9m/s | -52°C | 3.6% | 42.7hPa | 2.7V | 08:26:39 | 02:16:52 | 00:00:00 | |
| BIOWL1-15 | 2026-09-04 12:35:21 | 51.46073 | 8.82778 | 75° | 9km/h | 21910m | -36.1m/s | -51.9°C | 0.3% | 43.7hPa | 2.5V | 08:26:40 | 02:16:56 | 00:00:00 | |
| HSKMA3-T | 2026-09-04 12:35:19 | 51.46071 | 8.82770 | 66° | 13km/h | 21983m | -36.2m/s | -52°C | 0.3% | 43.2hPa | 2.7V | 08:26:40 | 02:16:54 | 00:00:00 | |
| DL1XH-west | 2026-09-04 12:35:17 | 51.46069 | 8.82762 | 72° | 9km/h | 22054m | -34.9m/s | -52°C | 0.3% | 42.7hPa | 2.7V | 08:26:40 | 02:16:52 | 00:00:00 | |
| DL1NUX | 2026-09-04 12:35:16 | 51.46058 | 8.82738 | 49° | 16km/h | 22256m | -32.2m/s | -51.5°C | 3.5% | 41.4hPa | 2.5V | 08:26:45 | 02:16:46 | 00:00:00 | |
| AA1-15 | 2026-09-04 12:35:14 | 51.46065 | 8.82750 | 55° | 11km/h | 22158m | -34m/s | -52°C | 0.4% | 42hPa | 2.7V | 08:27:31 | 02:16:49 | 00:00:00 | |
| DF8AY | 2026-09-04 12:35:12 | 51.46061 | 8.82742 | 44° | 13km/h | 22224m | -32.2m/s | -51.5°C | 0.3% | 41.6hPa | 2.5V | 08:27:31 | 02:16:47 | 00:00:00 | |
| DL1XH-15 | 2026-09-04 12:35:12 | 51.46046 | 8.82712 | 58° | 22km/h | 22384m | -32.8m/s | -51.8°C | 3.6% | 40.5hPa | 2.5V | 08:26:49 | 02:16:42 | 00:00:00 | |
| BIOWL1-15 | 2026-09-04 12:35:10 | 51.46042 | 8.82696 | 65° | 22km/h | 22450m | -33.2m/s | -52.2°C | 0.4% | 40.1hPa | 2.5V | 08:27:31 | 02:16:40 | 00:00:00 | |
| DB0DAN | 2026-09-04 12:35:10 | 51.46055 | 8.82733 | 49° | 18km/h | 22288m | -32.4m/s | -51.5°C | 0.9% | 41.14hPa | 2.7V | 00:00:00 | 00:00:00 | 00:00:00 | |
| HSKMA3-T | 2026-09-04 12:35:09 | 51.46052 | 8.82727 | 54° | 20km/h | 22320m | -32m/s | -51.4°C | 0.3% | 40.9hPa | 2.7V | 08:28:22 | 02:16:44 | 00:00:00 | |
| DL1XH-west | 2026-09-04 12:35:07 | 51.46046 | 8.82712 | 58° | 22km/h | 22384m | -32.8m/s | -51.8°C | 0.4% | 40.5hPa | 2.5V | 08:27:31 | 02:16:42 | 00:00:00 | |
| AA1-15 | 2026-09-04 12:35:04 | 51.46041 | 8.82688 | 81° | 18km/h | 22483m | -32.8m/s | -52.4°C | 0.4% | 39.9hPa | 2.7V | 08:27:31 | 02:16:39 | 00:00:00 | |
| DF8AY | 2026-09-04 12:35:02 | 51.46040 | 8.82674 | 74° | 16km/h | 22549m | -32.3m/s | -52.5°C | 0.5% | 39.5hPa | 2.6V | 08:27:31 | 02:16:37 | 00:00:00 | |
| HSKMA3-T | 2026-09-04 12:34:58 | 51.46038 | 8.82654 | 83° | 11km/h | 22678m | -32.1m/s | -52.5°C | 0.5% | 38.7hPa | 2.7V | 08:28:22 | 02:16:33 | 00:00:00 | |
| DL1XH-west | 2026-09-04 12:34:56 | 51.46036 | 8.82646 | 59° | 11km/h | 22741m | -31.3m/s | -52.6°C | 0.5% | 38.4hPa | 2.7V | 08:27:31 | 02:16:31 | 00:00:00 | |
| DB0DAN | 2026-09-04 12:34:55 | 51.46035 | 8.82642 | 78° | 9km/h | 22773m | -31.4m/s | -52.6°C | 1.1% | 38.12hPa | 2.5V | 00:00:00 | 00:00:00 | 00:00:00 | |
| AA1-15 | 2026-09-04 12:34:53 | 51.46032 | 8.82634 | 66° | 11km/h | 22836m | -30.9m/s | -52.5°C | 0.5% | 37.8hPa | 2.7V | 08:27:31 | 02:16:28 | 00:00:00 | |
| DF8AY | 2026-09-04 12:34:52 | 51.46031 | 8.82629 | 70° | 15km/h | 22867m | -31.5m/s | -52.5°C | 0.5% | 37.6hPa | 2.6V | 08:27:31 | 02:16:27 | 00:00:00 | |
| HSKMA3-T | 2026-09-04 12:34:47 | 51.46028 | 8.82604 | 85° | 13km/h | 23025m | -32m/s | -52.2°C | 0.4% | 36.7hPa | 2.7V | 08:28:22 | 02:16:22 | 00:00:00 | |
| DL1XH-west | 2026-09-04 12:34:45 | 51.46030 | 8.82595 | 102° | 13km/h | 23089m | -32m/s | -51.7°C | 0.4% | 36.4hPa | 2.5V | 08:27:31 | 02:16:20 | 00:00:00 | |
| DO2JMG | 2026-09-04 12:34:44 | 51.46030 | 8.82590 | 106° | 9km/h | 23121m | -32m/s | -51.7°C | 0.4% | 36.1hPa | 2.5V | 08:27:31 | 02:16:19 | 00:00:00 | |
| AA1-15 | 2026-09-04 12:34:43 | 51.46031 | 8.82587 | 111° | 11km/h | 23153m | -31.7m/s | -51.6°C | 0.3% | 36hPa | 2.7V | 08:27:31 | 02:16:18 | 00:00:00 | |
| DL4BBY-15 | 2026-09-04 12:34:43 | 51.46031 | 8.82586 | 112° | 15km/h | 23154m | -31.6m/s | -52.3°C | 0% | 0hPa | 2.7V | 00:00:00 | 00:00:00 | 00:00:00 | |
| DL1XH-15 | 2026-09-04 12:34:42 | 51.46032 | 8.82577 | 12° | 4km/h | 23347m | -32m/s | -51.6°C | 3.5% | 34.9hPa | 2.7V | 08:27:19 | 02:16:12 | 00:00:00 | |
| DF8AY | 2026-09-04 12:34:41 | 51.46033 | 8.82581 | 128° | 7km/h | 23217m | -32.5m/s | -51.5°C | 0.3% | 35.6hPa | 2.7V | 08:27:31 | 02:16:16 | 00:00:00 | |
| DL8OAI-8 | 2026-09-04 12:34:41 | 51.46032 | 8.82583 | 111° | 5km/h | 23185m | -32.2m/s | -51.5°C | 1.0% | 35.8hPa | 2.5V | 08:27:00 | 00:00:00 | 00:00:00 | |
| DB0DAN | 2026-09-04 12:34:40 | 51.46034 | 8.82579 | 92° | 4km/h | 23250m | -32.4m/s | -51.5°C | 0.9% | 35.46hPa | 2.5V | 00:00:00 | 00:00:00 | 00:00:00 | |
| HSKMA3-T | 2026-09-04 12:34:36 | 51.46031 | 8.82576 | 3° | 7km/h | 23379m | -32.6m/s | -51.8°C | 0.4% | 34.8hPa | 2.7V | 08:28:22 | 02:16:11 | 00:00:00 | |
| DL1XH-west | 2026-09-04 12:34:35 | 51.46029 | 8.82576 | 3° | 9km/h | 23411m | -32m/s | -51.9°C | 0.4% | 34.6hPa | 2.7V | 08:27:31 | 02:16:10 | 00:00:00 | |
| DO2JMG | 2026-09-04 12:34:33 | 51.46023 | 8.82574 | 11° | 15km/h | 23475m | -32.7m/s | -51.9°C | 0.5% | 34.2hPa | 2.5V | 08:27:31 | 02:16:08 | 00:00:00 | |
| DL1NUX | 2026-09-04 12:34:32 | 51.46014 | 8.82569 | 19° | 22km/h | 23540m | -32.9m/s | -52°C | 3.8% | 33.9hPa | 2.7V | 08:27:25 | 02:16:06 | 00:00:00 | |
| DF8AY | 2026-09-04 12:34:31 | 51.46014 | 8.82569 | 20° | 22km/h | 23540m | -32.9m/s | -52°C | 0.5% | 33.9hPa | 2.7V | 08:27:31 | 02:16:06 | 00:00:00 | |
| DL1XH-west | 2026-09-04 12:34:25 | 51.45982 | 8.82539 | 45° | 20km/h | 23736m | -32.8m/s | -52.1°C | 0.5% | 32.9hPa | 2.5V | 08:27:31 | 02:16:00 | 00:00:00 | |
| BIOWL1-15 | 2026-09-04 12:34:24 | 51.45978 | 8.82533 | 43° | 24km/h | 23769m | -33.5m/s | -52.2°C | 0.5% | 32.7hPa | 2.5V | 08:28:22 | 02:15:59 | 00:00:00 | |
| DO2JMG | 2026-09-04 12:34:23 | 51.45974 | 8.82527 | 43° | 20km/h | 23802m | -32.7m/s | -52.2°C | 0.5% | 32.5hPa | 2.5V | 08:29:13 | 02:15:58 | 00:00:00 | |
| DL1NUX | 2026-09-04 12:34:22 | 51.45969 | 8.82516 | 55° | 16km/h | 23866m | -33.8m/s | -52.3°C | 4% | 32.2hPa | 2.7V | 08:27:35 | 02:15:56 | 00:00:00 | |
| AA1-15 | 2026-09-04 12:34:22 | 51.45971 | 8.82521 | 60° | 16km/h | 23834m | -32.2m/s | -52.3°C | 0.6% | 32.4hPa | 2.7V | 08:28:22 | 02:15:57 | 00:00:00 | |
| DF8AY | 2026-09-04 12:34:21 | 51.45967 | 8.82510 | 56° | 15km/h | 23900m | -33.4m/s | -52.2°C | 0.5% | 32hPa | 2.7V | 08:28:22 | 02:15:55 | 00:00:00 | |
| DL1XH-west | 2026-09-04 12:34:14 | 51.45953 | 8.82482 | 46° | 16km/h | 24098m | -33.9m/s | -51.9°C | 0.5% | 31.1hPa | 2.6V | 08:28:22 | 02:15:49 | 00:00:00 | |
| BIOWL1-15 | 2026-09-04 12:34:13 | 51.45950 | 8.82477 | 50° | 16km/h | 24132m | -33.7m/s | -51.7°C | 0.5% | 30.9hPa | 2.5V | 08:28:22 | 02:15:48 | 00:00:00 | |
| DB0NH | 2026-09-04 12:34:13 | 51.45950 | 8.82477 | 50° | 15km/h | 24132m | -33.6m/s | -51.7°C | 3.8% | 30.9hPa | 2.5V | 08:27:00 | 02:15:48 | 00:00:00 | |
| DL1NUX | 2026-09-04 12:34:12 | 51.45944 | 8.82467 | 46° | 18km/h | 24200m | -34.1m/s | -51.6°C | 3.7% | 30.6hPa | 2.7V | 08:27:45 | 02:15:46 | 00:00:00 | |
| DO2JMG | 2026-09-04 12:34:12 | 51.45947 | 8.82472 | 47° | 18km/h | 24166m | -34.6m/s | -51.7°C | 0.4% | 30.8hPa | 2.5V | 08:29:13 | 02:15:47 | 00:00:00 | |
| AA1-15 | 2026-09-04 12:34:11 | 51.45944 | 8.82467 | 46° | 18km/h | 24200m | -34.1m/s | -51.6°C | 0.4% | 30.6hPa | 2.7V | 08:28:22 | 02:15:46 | 00:00:00 | |
| DF8AY | 2026-09-04 12:34:10 | 51.45941 | 8.82461 | 50° | 20km/h | 24234m | -34.6m/s | -51.6°C | 0.4% | 30.4hPa | 2.7V | 08:28:22 | 02:15:45 | 00:00:00 | |
| DL1XH-west | 2026-09-04 12:34:04 | 51.45925 | 8.82421 | 85° | 15km/h | 24438m | -33.9m/s | -51.1°C | 0.4% | 29.5hPa | 2.7V | 08:28:22 | 02:15:39 | 00:00:00 | |
| DL1NUX | 2026-09-04 12:34:02 | 51.45924 | 8.82404 | 82° | 13km/h | 24542m | -35m/s | -51°C | 3.7% | 29hPa | 2.5V | 08:27:55 | 02:15:36 | 00:00:00 | |
| HSKMA3-T | 2026-09-04 12:34:02 | 51.45924 | 8.82409 | 95° | 13km/h | 24507m | -34.9m/s | -51.1°C | 0.5% | 29.1hPa | 2.5V | 08:28:22 | 02:15:37 | 00:00:00 | |
| EDDB2-11 | 2026-09-04 12:34:02 | 51.45924 | 8.82404 | 82° | 13km/h | 24542m | -35.0m/s | -51.0°C | 1.0% | 29.0hPa | 2.5V | 00:00:00 | 00:00:00 | 00:00:00 | |
| DL1XH-15 | 2026-09-04 12:34:01 | 51.45927 | 8.82383 | 102° | 9km/h | 24715m | -35.1m/s | -50.8°C | 3.7% | 28.2hPa | 2.5V | 08:28:00 | 02:15:31 | 00:00:00 | |
| DO2JMG | 2026-09-04 12:34:01 | 51.45924 | 8.82404 | 83° | 13km/h | 24542m | -35m/s | -51°C | 0.5% | 29hPa | 2.5V | 08:29:13 | 02:15:36 | 00:00:00 | |
| DF8AY | 2026-09-04 12:34:00 | 51.45924 | 8.82399 | 102° | 11km/h | 24577m | -34.4m/s | -51°C | 0.5% | 28.9hPa | 2.5V | 08:28:22 | 02:15:35 | 00:00:00 | |
| DL1XH-west | 2026-09-04 12:33:53 | 51.45928 | 8.82372 | 90° | 11km/h | 24821m | -35.9m/s | -50.8°C | 0.5% | 27.8hPa | 2.6V | 08:28:22 | 02:15:28 | 00:00:00 | |
| DL1NUX | 2026-09-04 12:33:52 | 51.45928 | 8.82362 | 84° | 13km/h | 24893m | -36.1m/s | -51°C | 3.9% | 27.5hPa | 2.5V | 08:28:05 | 02:15:26 | 00:00:00 | |
| BIOWL1-15 | 2026-09-04 12:33:52 | 51.45928 | 8.82367 | 91° | 11km/h | 24857m | -35.4m/s | -50.8°C | 0.5% | 27.6hPa | 2.6V | 08:28:22 | 02:15:27 | 00:00:00 | |
| DO2JMG | 2026-09-04 12:33:51 | 51.45928 | 8.82362 | 84° | 13km/h | 24893m | -36.1m/s | -51°C | 0.6% | 27.5hPa | 2.5V | 08:29:13 | 02:15:26 | 00:00:00 | |
| DL1XH-15 | 2026-09-04 12:33:51 | 51.45934 | 8.82336 | 138° | 16km/h | 25089m | -42.6m/s | -50.5°C | 3.8% | 26.8hPa | 2.6V | 08:28:10 | 02:15:21 | 00:00:00 | |
| HSKMA3-T | 2026-09-04 12:33:50 | 51.45929 | 8.82357 | 108° | 15km/h | 24929m | -36.8m/s | -51°C | 0.6% | 27.4hPa | 2.5V | 08:28:22 | 02:15:25 | 00:00:00 | |
| AA1-15 | 2026-09-04 12:33:49 | 51.45929 | 8.82352 | 100° | 13km/h | 24966m | -38.2m/s | -51°C | 0.6% | 27.2hPa | 2.5V | 08:28:22 | 02:15:24 | 00:00:00 | |
| AU51GT2 | 2026-09-04 12:33:47 | 51.45932 | 8.82341 | 117° | 15km/h | 25047m | -42.1m/s | -50.7°C | 1.0% | 26.9hPa | 2.5V | 00:00:00 | 00:00:00 | 00:00:00 | |
| HTAHTA | 2026-09-04 12:33:44 | 51.45941 | 8.82328 | 150° | 18km/h | 25177m | -44.2m/s | -50.1°C | 0.9% | 26.4hPa | 2.5V | 00:00:00 | 00:00:00 | 00:00:00 | |
| DL1XH-west | 2026-09-04 12:33:43 | 51.45946 | 8.82324 | 157° | 22km/h | 25220m | -43.7m/s | -49.8°C | 0.4% | 26.2hPa | 2.5V | 08:28:22 | 02:15:18 | 00:00:00 | |
| DL4BBY-15 | 2026-09-04 12:33:43 | 51.45946 | 8.82324 | 158° | 9km/h | 25221m | -43.6m/s | -50.5°C | 0% | 0hPa | 2.7V | 00:00:00 | 00:00:00 | 00:00:00 | |
| DL1NUX | 2026-09-04 12:33:42 | 51.45955 | 8.82318 | 156° | 18km/h | 25308m | -44.5m/s | -49.3°C | 3.5% | 25.9hPa | 2.7V | 08:28:15 | 02:15:16 | 00:00:00 | |
| DL1XH-15 | 2026-09-04 12:33:41 | 51.45975 | 8.82314 | 191° | 13km/h | 25535m | -48.5m/s | -48.9°C | 3.5% | 25hPa | 2.6V | 08:28:20 | 02:15:11 | 00:00:00 | |
| DO2JMG | 2026-09-04 12:33:41 | 51.45955 | 8.82318 | 157° | 18km/h | 25308m | -44.5m/s | -49.3°C | 0.4% | 25.9hPa | 2.7V | 08:29:13 | 02:15:16 | 00:00:00 | |
| DF8AY | 2026-09-04 12:33:40 | 51.45964 | 8.82315 | 174° | 16km/h | 25396m | -44.2m/s | -49.3°C | 0.3% | 25.5hPa | 2.5V | 08:28:22 | 02:15:14 | 00:00:00 | |
| HSKMA3-T | 2026-09-04 12:33:38 | 51.45968 | 8.82314 | 173° | 16km/h | 25440m | -45.3m/s | -49.2°C | 0.4% | 25.3hPa | 2.5V | 08:28:22 | 02:15:13 | 00:00:00 | |
| DL1XH-west | 2026-09-04 12:33:33 | 51.45983 | 8.82317 | 208° | 7km/h | 25680m | -48.2m/s | -48.5°C | 0.3% | 24.5hPa | 2.5V | 08:29:13 | 02:15:08 | 00:00:00 | |
| DL1NUX | 2026-09-04 12:33:32 | 51.45986 | 8.82320 | 226° | 5km/h | 25777m | -47.7m/s | -47.9°C | 3.2% | 24.1hPa | 2.7V | 08:28:25 | 02:15:06 | 00:00:00 | |
| DO2JMG | 2026-09-04 12:33:31 | 51.45986 | 8.82320 | 227° | 5km/h | 25777m | -47.7m/s | -47.9°C | 0.1% | 24.1hPa | 2.7V | 08:29:13 | 02:15:06 | 00:00:00 | |
| DF8AY | 2026-09-04 12:33:29 | 51.45988 | 8.82324 | 214° | 7km/h | 25871m | -46.7m/s | -47.7°C | 0.1% | 23.7hPa | 2.6V | 08:29:13 | 02:15:04 | 00:00:00 | |
| AA1-15 | 2026-09-04 12:33:28 | 51.45989 | 8.82325 | 210° | 4km/h | 25917m | -46.1m/s | -47.5°C | 0.1% | 23.6hPa | 2.5V | 08:29:13 | 02:15:03 | 00:00:00 | |
| DL1XH-west | 2026-09-04 12:33:23 | 51.45993 | 8.82328 | 169° | 4km/h | 26150m | -47m/s | -46.9°C | 0% | 22.8hPa | 2.6V | 08:29:13 | 02:14:58 | 00:00:00 | |
| BIOWL1-15 | 2026-09-04 12:33:21 | 51.45995 | 8.82327 | 108° | 5km/h | 26244m | -48.5m/s | -46.9°C | 0% | 22.5hPa | 2.5V | 08:29:13 | 02:14:56 | 00:00:00 | |
| DF8AY | 2026-09-04 12:33:19 | 51.45995 | 8.82323 | 81° | 4km/h | 26341m | -48.2m/s | -47°C | 0% | 22.1hPa | 2.7V | 08:29:13 | 02:14:54 | 00:00:00 | |
| DM0DOS-11 | 2026-09-04 12:33:18 | 51.45994 | 8.82314 | 63° | 4km/h | 26632m | -48.6m/s | -46.5°C | 2.9% | 21.2hPa | 2.7V | 08:28:43 | 02:14:48 | 00:00:00 | |
| AA1-15 | 2026-09-04 12:33:17 | 51.45996 | 8.82320 | 66° | 5km/h | 26437m | -48.7m/s | -46.8°C | 0% | 21.8hPa | 2.5V | 08:29:13 | 02:14:52 | 00:00:00 | |
| DL1XH-15 | 2026-09-04 12:33:16 | 51.45995 | 8.82318 | 98° | 5km/h | 26486m | -48.7m/s | -46.7°C | 3% | 21.6hPa | 2.5V | 08:28:40 | 02:14:51 | 00:00:00 | |
| HSKMA3-T | 2026-09-04 12:33:16 | 51.45995 | 8.82318 | 98° | 5km/h | 26486m | -48.7m/s | -46.7°C | 0% | 21.7hPa | 2.5V | 18:12:15 | 02:14:51 | 00:00:00 | |
| DL1XH-west | 2026-09-04 12:33:12 | 51.45993 | 8.82312 | 45° | 7km/h | 26680m | -49.2m/s | -46.3°C | 0% | 21hPa | 2.7V | 08:29:13 | 02:14:47 | 00:00:00 | |
| DB0UT-7 | 2026-09-04 12:33:12 | 51.45993 | 8.82312 | 46° | 11km/h | 26681m | -49.1m/s | -46.2°C | 2.9% | 21.0hPa | 2.7V | 00:00:00 | 02:14:47 | 00:00:00 | |
| DL1XH-15 | 2026-09-04 12:33:11 | 51.45981 | 8.82296 | 60° | 15km/h | 26968m | -49.3m/s | -45.8°C | 2.8% | 20.1hPa | 2.7V | 08:28:50 | 02:14:41 | 00:00:00 | |
| BIOWL1-15 | 2026-09-04 12:33:10 | 51.45990 | 8.82308 | 30° | 11km/h | 26778m | -48.1m/s | -46.3°C | 0% | 20.7hPa | 2.5V | 08:29:13 | 02:14:45 | 00:00:00 | |
| DF8AY | 2026-09-04 12:33:09 | 51.45985 | 8.82303 | 39° | 9km/h | 26872m | -46.1m/s | -46.4°C | 0% | 20.4hPa | 2.7V | 08:29:13 | 02:14:43 | 00:00:00 | |
| AA1-15 | 2026-09-04 12:33:07 | 51.45981 | 8.82296 | 60° | 15km/h | 26968m | -49.3m/s | -45.8°C | 0% | 20.1hPa | 2.7V | 08:29:13 | 02:14:41 | 00:00:00 | |
| DM0DOS-11 | 2026-09-04 12:33:06 | 51.45977 | 8.82280 | 69° | 18km/h | 27121m | -52.2m/s | -45.5°C | 2.7% | 19.6hPa | 2.7V | 08:28:53 | 02:14:38 | 00:00:00 | |
| HSKMA3-T | 2026-09-04 12:33:05 | 51.45979 | 8.82291 | 57° | 16km/h | 27018m | -51.1m/s | -45.5°C | 0% | 20hPa | 2.5V | 18:12:15 | 02:14:40 | 00:00:00 | |
| DL1XH-west | 2026-09-04 12:33:01 | 51.45975 | 8.82267 | 85° | 16km/h | 27228m | -54.3m/s | -45.8°C | 0% | 19.4hPa | 2.7V | 08:29:13 | 02:14:36 | 00:00:00 | |
| DO2JMG | 2026-09-04 12:32:59 | 51.45975 | 8.82256 | 107° | 15km/h | 27337m | -55m/s | -45.6°C | 0% | 19.1hPa | 2.5V | 08:29:13 | 02:14:34 | 00:00:00 | |
| DF8AY | 2026-09-04 12:32:56 | 51.45980 | 8.82243 | 137° | 15km/h | 27502m | -55.2m/s | -46°C | 0% | 18.6hPa | 2.7V | 08:29:13 | 02:14:31 | 00:00:00 | |
| AA1-15 | 2026-09-04 12:32:55 | 51.45982 | 8.82239 | 135° | 11km/h | 27557m | -55.5m/s | -46.1°C | 0% | 18.5hPa | 2.7V | 08:29:13 | 02:14:30 | 00:00:00 | |
| BUE01 | 2026-09-04 12:32:54 | 51.45984 | 8.82236 | 131° | 9km/h | 27612m | -54.3m/s | -46.2°C | 0.7% | 18.3hPa | 2.7V | 00:00:00 | 00:00:00 | 00:00:00 | |
| HSKMA3-T | 2026-09-04 12:32:54 | 51.45984 | 8.82236 | 132° | 11km/h | 27612m | -54.3m/s | -46.2°C | 0% | 18.3hPa | 2.5V | 18:12:15 | 02:14:29 | 00:00:00 | |
| DL9SK-14 | 2026-09-04 12:32:53 | 51.45989 | 8.82231 | 153° | 11km/h | 27720m | -52.8m/s | -46.4°C | 0.7% | 18.0hPa | 2.7V | 00:00:00 | 00:00:00 | 00:00:00 | |
| DL1NUX | 2026-09-04 12:32:52 | 51.45991 | 8.82230 | 168° | 9km/h | 27774m | -53.5m/s | -46.6°C | 3% | 17.8hPa | 2.7V | 08:29:05 | 02:14:26 | 00:00:00 | |
| DL1XH-15 | 2026-09-04 12:32:51 | 51.45998 | 8.82226 | 108° | 5km/h | 28041m | -54m/s | -46.6°C | 3.1% | 17.1hPa | 2.5V | 08:29:10 | 02:14:21 | 00:00:00 | |
| DL1XH-west | 2026-09-04 12:32:51 | 51.45991 | 8.82230 | 169° | 9km/h | 27774m | -53.5m/s | -46.6°C | 0% | 17.8hPa | 2.7V | 08:29:13 | 02:14:26 | 00:00:00 | |
| DO2JMG | 2026-09-04 12:32:48 | 51.45997 | 8.82227 | 144° | 4km/h | 27934m | -53.7m/s | -46.8°C | 0.1% | 17.4hPa | 2.6V | 08:29:13 | 02:14:23 | 00:00:00 | |
| BIOWL1-15 | 2026-09-04 12:32:47 | 51.45999 | 8.82226 | 109° | 5km/h | 28041m | -54m/s | -46.6°C | 0% | 17.1hPa | 2.5V | 08:29:13 | 02:14:21 | 00:00:00 | |
| DF8AY | 2026-09-04 12:32:45 | 51.45999 | 8.82224 | 83° | 4km/h | 28095m | -52.7m/s | -46.6°C | 0% | 17hPa | 2.5V | 08:29:13 | 02:14:20 | 00:00:00 | |
| HSKMA3-T | 2026-09-04 12:32:44 | 51.45999 | 8.82223 | 70° | 4km/h | 28147m | -52.2m/s | -46.7°C | 0.1% | 16.8hPa | 2.7V | 18:12:15 | 02:14:19 | 00:00:00 | |
| DD8BA-10 | 2026-09-04 12:32:44 | 51.45999 | 8.82223 | 71° | 5km/h | 28147m | -52.2m/s | -46.7°C | 3.2% | 16.8hPa | 2.7V | 00:00:00 | 00:00:00 | 00:00:00 | |
| DB0NH | 2026-09-04 12:32:43 | 51.45999 | 8.82221 | 112° | 11km/h | 28199m | -51.6m/s | -46.7°C | 3.2% | 16.6hPa | 2.7V | 00:00:00 | 02:14:18 | 00:00:00 | |
| DL1NUX | 2026-09-04 12:32:42 | 51.46000 | 8.82219 | 138° | 5km/h | 28298m | -49m/s | -46.8°C | 3.3% | 16.4hPa | 2.5V | 08:30:00 | 02:14:16 | 00:00:00 | |
| DL1XH-west | 2026-09-04 12:32:40 | 51.46002 | 8.82218 | 167° | 7km/h | 28347m | -48.5m/s | -46.7°C | 0.1% | 16.3hPa | 2.5V | 18:12:15 | 02:14:15 | 00:00:00 | |
| BIOWL1-15 | 2026-09-04 12:32:39 | 51.46009 | 8.82215 | 178° | 5km/h | 28546m | -51.6m/s | -46.1°C | 0.1% | 15.8hPa | 2.6V | 18:12:15 | 02:14:11 | 00:00:00 | |
| DF7PN | 2026-09-04 12:32:39 | 51.46006 | 8.82216 | 154° | 7km/h | 28445m | -51.1m/s | -46.5°C | 0.8% | 16.1hPa | 2.7V | 00:00:00 | 00:00:00 | 00:00:00 | |
| DM0DOS-11 | 2026-09-04 12:32:38 | 51.46013 | 8.82214 | 179° | 5km/h | 28704m | -53.6m/s | -45.5°C | 3% | 15.5hPa | 2.7V | 08:30:00 | 02:14:08 | 00:00:00 | |
| DO2JMG | 2026-09-04 12:32:37 | 51.46008 | 8.82215 | 164° | 7km/h | 28495m | -50.2m/s | -46.3°C | 0.1% | 15.9hPa | 2.7V | 18:12:15 | 02:14:12 | 00:00:00 | |
| DO1YAY-16 | 2026-09-04 12:32:37 | 51.46009 | 8.82215 | 178° | 5km/h | 28546m | -51.6m/s | -46.1°C | 0.7% | 15.8hPa | 2.5V | 00:00:00 | 00:00:00 | 00:00:00 | |
| DL1XH1-15 | 2026-09-04 12:32:35 | 51.46014 | 8.82217 | 284° | 5km/h | 28865m | -52.6m/s | -44.6°C | 2.8% | 15.1hPa | 2.5V | 08:30:00 | 02:14:05 | 00:00:00 | |
| DF8AY | 2026-09-04 12:32:34 | 51.46012 | 8.82214 | 168° | 5km/h | 28650m | -53.2m/s | -45.8°C | 0% | 15.6hPa | 2.5V | 18:12:15 | 02:14:09 | 00:00:00 | |
| AA1-15 | 2026-09-04 12:32:33 | 51.46013 | 8.82214 | 180° | 5km/h | 28704m | -53.6m/s | -45.5°C | 0% | 15.5hPa | 2.7V | 18:12:15 | 02:14:08 | 00:00:00 | |
| DL1NUX | 2026-09-04 12:32:33 | 51.46014 | 8.82215 | 283° | 4km/h | 28812m | -53.8m/s | -44.8°C | 2.9% | 15.2hPa | 2.5V | 08:30:00 | 02:14:06 | 00:00:00 | |
| DL1XH-15 | 2026-09-04 12:32:30 | 51.46002 | 8.82224 | 0° | 16km/h | 29127m | -51.1m/s | -44.4°C | 2.8% | 14.5hPa | 2.5V | 08:30:00 | 02:14:00 | 00:00:00 | |
| DL1XH-west | 2026-09-04 12:32:29 | 51.46013 | 8.82219 | 323° | 7km/h | 28918m | -53.9m/s | -44.4°C | 0% | 15hPa | 2.7V | 18:12:15 | 02:14:04 | 00:00:00 | |
| DO2JMG | 2026-09-04 12:32:27 | 51.46009 | 8.82223 | 342° | 11km/h | 29023m | -51.6m/s | -44.8°C | 0% | 14.7hPa | 2.7V | 18:12:15 | 02:14:02 | 00:00:00 | |
| DM0DOS-11 | 2026-09-04 12:32:26 | 51.45993 | 8.82223 | 12° | 20km/h | 29228m | -50.9m/s | -44°C | 2.7% | 14.3hPa | 2.7V | 08:30:00 | 02:13:58 | 00:00:00 | |
| BIOWL1-15 | 2026-09-04 12:32:26 | 51.46006 | 8.82224 | 354° | 15km/h | 29075m | -52.2m/s | -44.8°C | 0% | 14.6hPa | 2.5V | 18:12:15 | 02:14:01 | 00:00:00 | |
| DF8AY | 2026-09-04 12:32:23 | 51.45993 | 8.82223 | 13° | 20km/h | 29228m | -50.9m/s | -44°C | 0% | 14.3hPa | 2.7V | 18:12:15 | 02:13:58 | 00:00:00 | |
| BUE01 | 2026-09-04 12:32:23 | 51.45993 | 8.82223 | 12° | 20km/h | 29229m | -50.9m/s | -44.0°C | 0.6% | 14.3hPa | 2.7V | 00:00:00 | 00:00:00 | 00:00:00 | |
| DL1NUX | 2026-09-04 12:32:22 | 51.45984 | 8.82218 | 21° | 18km/h | 29327m | -47.7m/s | -44°C | 2.7% | 14hPa | 2.7V | 08:30:00 | 02:13:56 | 00:00:00 | |
| AA1-15 | 2026-09-04 12:32:22 | 51.45988 | 8.82221 | 19° | 18km/h | 29278m | -48.8m/s | -43.8°C | 0% | 14.1hPa | 2.7V | 18:12:15 | 02:13:57 | 00:00:00 | |
| DL1XH-west | 2026-09-04 12:32:19 | 51.45975 | 8.82213 | 25° | 20km/h | 29419m | -44.5m/s | -43.7°C | 0% | 13.8hPa | 2.5V | 18:12:15 | 02:13:54 | 00:00:00 | |
| EDDB2-12 | 2026-09-04 12:32:19 | 51.45971 | 8.82209 | 31° | 16km/h | 29462m | -43.2m/s | -43.5°C | 0.6% | 13.7hPa | 2.5V | 00:00:00 | 00:00:00 | 00:00:00 | |
| DL4XJ-10 | 2026-09-04 12:32:18 | 51.45971 | 8.82209 | 32° | 13km/h | 29463m | -43.2m/s | -44.1°C | 0% | 0hPa | 2.5V | 00:00:00 | 00:00:00 | 00:00:00 | |
| DJ2KF-10 | 2026-09-04 12:32:17 | 51.45968 | 8.82206 | 34° | 13km/h | 29506m | -43.1m/s | -43.4°C | 2.6% | 13.6hPa | 2.5V | 00:00:00 | 02:13:52 | 00:00:00 | |
| DL1XH-15 | 2026-09-04 12:32:16 | 51.45963 | 8.82200 | 59° | 11km/h | 29590m | -41.8m/s | -43.5°C | 2.7% | 13.4hPa | 2.5V | 08:30:00 | 02:13:50 | 00:00:00 | |
| BIOWL1-15 | 2026-09-04 12:32:16 | 51.45965 | 8.82203 | 42° | 11km/h | 29548m | -43.1m/s | -43.5°C | 0% | 13.5hPa | 2.5V | 18:12:15 | 02:13:51 | 00:00:00 | |
| DF8AY | 2026-09-04 12:32:13 | 51.45961 | 8.82195 | 85° | 5km/h | 29673m | -42.3m/s | -43.4°C | 0% | 13.3hPa | 2.7V | 18:12:15 | 02:13:48 | 00:00:00 | |
| AA1-15 | 2026-09-04 12:32:11 | 51.45959 | 8.82193 | 3° | 7km/h | 29757m | -43.6m/s | -43°C | 0% | 13.1hPa | 2.5V | 18:12:15 | 02:13:46 | 00:00:00 | |
| DL1XH-15 | 2026-09-04 12:32:10 | 51.45942 | 8.82194 | 13° | 16km/h | 30019m | -41.4m/s | -42.6°C | 2.6% | 12.6hPa | 2.5V | 08:30:00 | 02:13:40 | 00:00:00 | |
| DL1XH1-15 | 2026-09-04 12:32:10 | 51.45955 | 8.82194 | 352° | 9km/h | 29847m | -45.4m/s | -42.8°C | 2.6% | 12.9hPa | 2.5V | 08:30:00 | 02:13:44 | 00:00:00 | |
| HSKMA3-T | 2026-09-04 12:32:08 | 51.45953 | 8.82194 | 354° | 11km/h | 29891m | -44.3m/s | -42.7°C | 0% | 12.9hPa | 2.7V | 18:12:15 | 02:13:43 | 00:00:00 | |
| DO2JMG | 2026-09-04 12:32:06 | 51.45946 | 8.82195 | 2° | 15km/h | 29978m | -42.3m/s | -42.6°C | 0% | 12.7hPa | 2.7V | 18:12:15 | 02:13:41 | 00:00:00 | |
| BIOWL1-15 | 2026-09-04 12:32:05 | 51.45938 | 8.82192 | 23° | 18km/h | 30061m | -42.1m/s | -42.6°C | 0% | 12.5hPa | 2.5V | 18:12:15 | 02:13:39 | 00:00:00 | |
| DF8AY | 2026-09-04 12:32:03 | 51.45930 | 8.82184 | 44° | 16km/h | 30141m | -40.2m/s | -42.6°C | 0% | 12.3hPa | 2.7V | 18:12:15 | 02:13:37 | 00:00:00 | |
| AA1-15 | 2026-09-04 12:32:01 | 51.45926 | 8.82180 | 47° | 18km/h | 30180m | -39.6m/s | -42.6°C | 0% | 12.2hPa | 2.7V | 18:12:15 | 02:13:36 | 00:00:00 | |
| DL1XH-west | 2026-09-04 12:31:58 | 51.45922 | 8.82164 | 90° | 13km/h | 30300m | -39.8m/s | -42.3°C | 0% | 12.1hPa | 2.5V | 18:12:15 | 02:13:33 | 00:00:00 | |
| HSKMA3-T | 2026-09-04 12:31:57 | 51.45923 | 8.82160 | 108° | 11km/h | 30340m | -41.1m/s | -42.1°C | 0% | 12hPa | 2.5V | 18:12:15 | 02:13:32 | 00:00:00 | |
| DO2JMG | 2026-09-04 12:31:55 | 51.45926 | 8.82153 | 131° | 13km/h | 30427m | -46.7m/s | -41.6°C | 0% | 11.9hPa | 2.7V | 18:12:15 | 02:13:30 | 00:00:00 | |
| BIOWL1-15 | 2026-09-04 12:31:54 | 51.45928 | 8.82149 | 117° | 13km/h | 30473m | -46m/s | -41.2°C | 0% | 11.8hPa | 2.7V | 18:12:15 | 02:13:29 | 00:00:00 | |
| DD8BA-10 | 2026-09-04 12:31:54 | 51.45927 | 8.82149 | 117° | 15km/h | 30474m | -45.9m/s | -41.2°C | 2.4% | 11.8hPa | 2.5V | 00:00:00 | 00:00:00 | 00:00:00 | |
| DF5WG-10 | 2026-09-04 12:31:53 | 51.45929 | 8.82144 | 116° | 15km/h | 30521m | -48.9m/s | -40.9°C | 2.3% | 11.7hPa | 2.5V | 00:00:00 | 02:13:28 | 00:00:00 | |
| DL1NUX | 2026-09-04 12:31:52 | 51.45930 | 8.82133 | 88° | 15km/h | 30621m | -50.4m/s | -40.8°C | 2.3% | 11.6hPa | 2.5V | 08:30:00 | 02:13:26 | 00:00:00 | |
| DF8AY | 2026-09-04 12:31:51 | 51.45931 | 8.82133 | 89° | 15km/h | 30621m | -50.4m/s | -40.8°C | 0% | 11.6hPa | 2.5V | 18:12:15 | 02:13:26 | 00:00:00 | |
| SO1NDE-10 | 2026-09-04 12:31:51 | 51.45930 | 8.82133 | 89° | 11km/h | 30621m | -50.4m/s | -40.7°C | 2.3% | 11.5hPa | 2.5V | 00:00:00 | 02:13:26 | 00:00:00 | |
| DL1XH-15 | 2026-09-04 12:31:50 | 51.45925 | 8.82102 | 51° | 9km/h | 30893m | -40.3m/s | -40.5°C | 2.2% | 11hPa | 2.5V | 08:30:00 | 02:13:20 | 00:00:00 | |
| AA1-15 | 2026-09-04 12:31:50 | 51.45931 | 8.82127 | 84° | 16km/h | 30671m | -48.7m/s | -40.6°C | 0% | 11.4hPa | 2.5V | 18:12:15 | 02:13:25 | 00:00:00 | |
| EDDB2-12 | 2026-09-04 12:31:48 | 51.45929 | 8.82110 | 63° | 11km/h | 30809m | -44.3m/s | -40.3°C | 0.5% | 11.2hPa | 2.7V | 00:00:00 | 00:00:00 | 00:00:00 | |
| BIOWL1-15 | 2026-09-04 12:31:47 | 51.45922 | 8.82097 | 23° | 9km/h | 30973m | -39.9m/s | -40.6°C | 0% | 10.9hPa | 2.7V | 18:12:15 | 02:13:18 | 00:00:00 | |
| HSKMA3-T | 2026-09-04 12:31:47 | 51.45929 | 8.82110 | 64° | 13km/h | 30809m | -44.3m/s | -40.3°C | 0% | 11.2hPa | 2.7V | 18:12:15 | 02:13:22 | 00:00:00 | |
| DO2JMG | 2026-09-04 12:31:45 | 51.45925 | 8.82102 | 52° | 9km/h | 30893m | -40.3m/s | -40.5°C | 0% | 11hPa | 2.5V | 18:12:15 | 02:13:20 | 00:00:00 | |
| DO9LL-15 | 2026-09-04 12:31:44 | 51.45924 | 8.82099 | 48° | 11km/h | 30934m | -40.6m/s | -40.4°C | 2.2% | 10.9hPa | 2.7V | 00:00:00 | 02:13:19 | 08:30:00 | |
| DL4BBY-15 | 2026-09-04 12:31:43 | 51.45922 | 8.82097 | 24° | 13km/h | 30974m | -39.8m/s | -41.3°C | 0% | 0hPa | 2.5V | 00:00:00 | 00:00:00 | 00:00:00 | |
| DL1NUX | 2026-09-04 12:31:42 | 51.45919 | 8.82096 | 15° | 5km/h | 31055m | -39.9m/s | -40.7°C | 2.2% | 10.8hPa | 2.5V | 08:30:00 | 02:13:16 | 00:00:00 | |
| DF8AY | 2026-09-04 12:31:41 | 51.45918 | 8.82095 | 81° | 0km/h | 31094m | -40.2m/s | -40.6°C | 0% | 10.7hPa | 2.7V | 18:12:15 | 02:13:15 | 00:00:00 | |
| AA1-15 | 2026-09-04 12:31:40 | 51.45919 | 8.82095 | 172° | 4km/h | 31133m | -37.4m/s | -40.5°C | 0% | 10.6hPa | 2.7V | 18:12:15 | 02:13:14 | 00:00:00 | |
| DL1XH-west | 2026-09-04 12:31:37 | 51.45920 | 8.82094 | 132° | 5km/h | 31206m | -34.8m/s | -40.5°C | 0% | 10.5hPa | 2.5V | 18:12:15 | 02:13:12 | 00:00:00 | |
| DL1XH-15 | 2026-09-04 12:31:36 | 51.45922 | 8.82090 | 116° | 5km/h | 31273m | -31.6m/s | -40.6°C | 2.2% | 10.3hPa | 2.5V | 08:30:00 | 02:13:10 | 00:00:00 | |
| HSKMA3-T | 2026-09-04 12:31:36 | 51.45921 | 8.82092 | 122° | 5km/h | 31240m | -33.9m/s | -40.5°C | 0% | 10.4hPa | 2.5V | 18:12:15 | 02:13:11 | 00:00:00 | |
| DO2JMG | 2026-09-04 12:31:34 | 51.45922 | 8.82088 | 89° | 7km/h | 31304m | -30.3m/s | -40.7°C | 0% | 10.3hPa | 2.7V | 18:12:15 | 02:13:09 | 00:00:00 | |
| BIOWL1-15 | 2026-09-04 12:31:33 | 51.45922 | 8.82085 | 59° | 5km/h | 31335m | -31.7m/s | -40.7°C | 0% | 10.3hPa | 2.7V | 18:12:15 | 02:13:08 | 00:00:00 | |
| DL1NUX | 2026-09-04 12:31:32 | 51.45915 | 8.82086 | 341° | 22km/h | 31408m | -44.9m/s | -40.6°C | 2.3% | 10.2hPa | 2.5V | 08:30:00 | 02:13:06 | 00:00:00 | |
| DF8AY | 2026-09-04 12:31:30 | 51.45910 | 8.82089 | 341° | 24km/h | 31449m | -37.4m/s | -40.8°C | 0% | 10.1hPa | 2.5V | 18:12:15 | 02:13:05 | 00:00:00 | |
| AA1-15 | 2026-09-04 12:31:29 | 51.45899 | 8.82095 | 341° | 24km/h | 31506m | -20.8m/s | -40.8°C | 0% | 10hPa | 2.7V | 18:12:15 | 02:13:03 | 00:00:00 | |
| DL1XH-west | 2026-09-04 12:31:27 | 51.45894 | 8.82098 | 339° | 24km/h | 31522m | -11.2m/s | -40.7°C | 0% | 9.9hPa | 2.7V | 18:12:15 | 02:13:02 | 00:00:00 | |
| BIOWL1-15 | 2026-09-04 12:31:23 | 51.45874 | 8.82109 | 348° | 16km/h | 31512m | 6.5m/s | -40.9°C | 0% | 9.9hPa | 2.7V | 18:12:15 | 02:12:58 | 00:00:00 | |
| DL1NUX | 2026-09-04 12:31:22 | 51.45868 | 8.82111 | 349° | 7km/h | 31500m | 5.3m/s | -40.7°C | 2.4% | 10hPa | 2.7V | 08:30:00 | 02:12:56 | 00:00:00 | |
| HSKMA3-T | 2026-09-04 12:31:21 | 51.45868 | 8.82111 | 350° | 7km/h | 31500m | 5.3m/s | -40.7°C | 0% | 10hPa | 2.7V | 18:12:15 | 02:12:56 | 00:00:00 | |
| DF8AY | 2026-09-04 12:31:20 | 51.45866 | 8.82112 | 328° | 7km/h | 31495m | 4.9m/s | -40.8°C | 0% | 10hPa | 2.6V | 18:12:15 | 02:12:55 | 00:00:00 | |
| DL1XH1-15 | 2026-09-04 12:31:20 | 51.45864 | 8.82114 | 311° | 9km/h | 31489m | 6.5m/s | -40.8°C | 2.4% | 10hPa | 2.6V | 08:30:00 | 02:12:54 | 00:00:00 | |
| DL1XH-west | 2026-09-04 12:31:17 | 51.45860 | 8.82124 | 301° | 18km/h | 31477m | 5.5m/s | -40.7°C | 0% | 10hPa | 2.7V | 18:12:15 | 02:12:52 | 00:00:00 | |
| BIOWL1-15 | 2026-09-04 12:31:14 | 51.45850 | 8.82155 | 307° | 16km/h | 31448m | 5m/s | -40.7°C | 0% | 10.1hPa | 2.6V | 18:12:15 | 02:12:47 | 00:00:00 | |
| DL3AQ-11 | 2026-09-04 12:31:14 | 51.45852 | 8.82150 | 297° | 15km/h | 31454m | 5.1m/s | -40.7°C | 0.6% | 10.0hPa | 2.7V | 00:00:00 | 00:00:00 | 00:00:00 | |
| DL4BBY-15 | 2026-09-04 12:31:13 | 51.45852 | 8.82149 | 298° | 11km/h | 31453m | 5.0m/s | -41.4°C | 0% | 0hPa | 2.7V | 00:00:00 | 00:00:00 | 00:00:00 | |
| DO2JMG | 2026-09-04 12:31:13 | 51.45852 | 8.82150 | 298° | 15km/h | 31453m | 5.1m/s | -40.7°C | 0% | 10hPa | 2.6V | 18:12:15 | 02:12:48 | 00:00:00 | |
| AU51GT2 | 2026-09-04 12:31:12 | 51.45850 | 8.82155 | 307° | 15km/h | 31448m | 5.0m/s | -40.7°C | 0.5% | 10.1hPa | 2.7V | 00:00:00 | 00:00:00 | 00:00:00 | |
| DB0NH | 2026-09-04 12:31:11 | 51.45847 | 8.82160 | 318° | 11km/h | 31443m | 6.6m/s | -40.6°C | 2.4% | 10.0hPa | 2.7V | 00:00:00 | 02:12:46 | 00:00:00 | |
| DL1XH1-15 | 2026-09-04 12:31:10 | 51.45839 | 8.82168 | 332° | 18km/h | 31430m | 5.4m/s | -40.7°C | 2.4% | 10.1hPa | 2.7V | 08:30:00 | 02:12:44 | 00:00:00 | |
| HSKMA3-T | 2026-09-04 12:31:10 | 51.45843 | 8.82164 | 326° | 18km/h | 31436m | 6.3m/s | -40.7°C | 0% | 10.1hPa | 2.7V | 18:12:15 | 02:12:45 | 00:00:00 | |
| DF8AY | 2026-09-04 12:31:09 | 51.45839 | 8.82168 | 332° | 18km/h | 31430m | 5.4m/s | -40.7°C | 0% | 10.1hPa | 2.7V | 18:12:15 | 02:12:44 | 00:00:00 | |
| DL1XH-15 | 2026-09-04 12:31:09 | 51.45827 | 8.82173 | 355° | 4km/h | 31401m | 5.3m/s | -40.6°C | 2.4% | 10.1hPa | 2.6V | 08:30:00 | 02:12:39 | 00:00:00 | |
| AA1-15 | 2026-09-04 12:31:07 | 51.45832 | 8.82173 | 346° | 11km/h | 31419m | 6.5m/s | -40.8°C | 0% | 10.1hPa | 2.6V | 18:12:15 | 02:12:42 | 00:00:00 | |
| DL1XH-west | 2026-09-04 12:31:06 | 51.45830 | 8.82173 | 360° | 7km/h | 31412m | 6.7m/s | -40.8°C | 0% | 10.1hPa | 2.7V | 18:12:15 | 02:12:41 | 00:00:00 | |
| DO2JMG | 2026-09-04 12:31:02 | 51.45824 | 8.82175 | 330° | 11km/h | 31389m | 6.1m/s | -40.6°C | 0% | 10.1hPa | 2.7V | 18:12:15 | 02:12:37 | 00:00:00 | |
| DL1ZP-14 | 2026-09-04 12:31:02 | 51.45804 | 8.82204 | 324° | 11km/h | 31342m | 5.3m/s | -40.8°C | 0.6% | 10.2hPa | 2.7V | 00:00:00 | 00:00:00 | 00:00:00 | |
| DO3DL | 2026-09-04 12:31:01 | 51.45821 | 8.82178 | 327° | 15km/h | 31383m | 5.7m/s | -40.6°C | 0.5% | 10.2hPa | 2.6V | 00:00:00 | 00:00:00 | 00:00:00 | |
| DL1XH1-15 | 2026-09-04 12:31:00 | 51.45816 | 8.82185 | 317° | 15km/h | 31371m | 6.6m/s | -40.7°C | 2.4% | 10.2hPa | 2.6V | 08:30:00 | 02:12:34 | 00:00:00 | |
| HSKMA3-T | 2026-09-04 12:30:59 | 51.45816 | 8.82185 | 317° | 15km/h | 31371m | 6.6m/s | -40.7°C | 0% | 10.2hPa | 2.6V | 18:12:15 | 02:12:34 | 00:00:00 | |
| DF8AY | 2026-09-04 12:30:58 | 51.45813 | 8.82189 | 312° | 13km/h | 31365m | 5.8m/s | -40.8°C | 0% | 10.2hPa | 2.6V | 18:12:15 | 02:12:33 | 00:00:00 | |
| AA1-15 | 2026-09-04 12:30:57 | 51.45811 | 8.82193 | 311° | 13km/h | 31360m | 4.9m/s | -40.9°C | 0% | 10.2hPa | 2.6V | 18:12:15 | 02:12:32 | 00:00:00 | |
| DL1XH-west | 2026-09-04 12:30:55 | 51.45807 | 8.82200 | 318° | 15km/h | 31348m | 6.6m/s | -40.9°C | 0% | 10.2hPa | 2.7V | 18:12:15 | 02:12:30 | 00:00:00 | |
| BIOWL1-15 | 2026-09-04 12:30:51 | 51.45800 | 8.82206 | 95° | 5km/h | 31325m | 6.7m/s | -40.4°C | 0% | 10.2hPa | 2.6V | 18:12:15 | 02:12:26 | 00:00:00 | |
| SO1NDE-10 | 2026-09-04 12:30:51 | 51.45800 | 8.82206 | 95° | 9km/h | 31325m | 6.7m/s | -40.4°C | 2.4% | 10.2hPa | 2.7V | 00:00:00 | 02:12:26 | 00:00:00 | |
| DL1XH1-15 | 2026-09-04 12:30:50 | 51.45801 | 8.82200 | 115° | 7km/h | 31314m | 4.1m/s | -40.4°C | 2.4% | 10.2hPa | 2.7V | 08:30:00 | 02:12:24 | 00:00:00 | |
| BUE01 | 2026-09-04 12:30:50 | 51.45800 | 8.82205 | 292° | 16km/h | 31292m | 5.4m/s | -40.4°C | 0.5% | 10.3hPa | 2.7V | 00:00:00 | 00:00:00 | 00:00:00 | |
| DL1XH-15 | 2026-09-04 12:30:49 | 51.45798 | 8.82212 | 286° | 18km/h | 31287m | 4.5m/s | -40.4°C | 2.3% | 10.3hPa | 2.7V | 08:30:00 | 02:12:19 | 00:00:00 | |
| HSKMA3-T | 2026-09-04 12:30:49 | 51.45801 | 8.82200 | 115° | 7km/h | 31314m | 4.1m/s | -40.4°C | 0% | 10.2hPa | 2.7V | 18:12:15 | 02:12:24 | 00:00:00 | |
| DF8AY | 2026-09-04 12:30:47 | 51.45802 | 8.82197 | 303° | 2km/h | 31304m | 6.2m/s | -40.4°C | 0% | 10.2hPa | 2.6V | 18:12:15 | 02:12:22 | 00:00:00 | |
| DL1XH-west | 2026-09-04 12:30:45 | 51.45800 | 8.82205 | 292° | 16km/h | 31291m | 5.4m/s | -40.4°C | 0% | 10.3hPa | 2.7V | 18:12:15 | 02:12:20 | 00:00:00 | |
| DD8BA-10 | 2026-09-04 12:30:44 | 51.45798 | 8.82212 | 287° | 13km/h | 31287m | 4.5m/s | -40.3°C | 2.3% | 10.2hPa | 2.7V | 00:00:00 | 00:00:00 | 00:00:00 | |
| DL4BBY-15 | 2026-09-04 12:30:43 | 51.45797 | 8.82218 | 279° | 11km/h | 31282m | 4.9m/s | -41.1°C | 0% | 0hPa | 2.7V | 00:00:00 | 00:00:00 | 00:00:00 | |
| DL1NUX | 2026-09-04 12:30:42 | 51.45798 | 8.82226 | 211° | 4km/h | 31271m | 6m/s | -40.4°C | 2.4% | 10.3hPa | 2.7V | 08:30:00 | 02:12:16 | 00:00:00 | |
| BIOWL1-15 | 2026-09-04 12:30:40 | 51.45799 | 8.82208 | 85° | 16km/h | 31248m | 4.9m/s | -40.4°C | 0% | 10.4hPa | 2.6V | 18:12:15 | 02:12:12 | 00:00:00 | |
| DL1XH1-15 | 2026-09-04 12:30:40 | 51.45799 | 8.82221 | 97° | 15km/h | 31259m | 5.8m/s | -40.3°C | 2.4% | 10.3hPa | 2.7V | 08:30:00 | 02:12:14 | 00:00:00 | |
| DO2JMG | 2026-09-04 12:30:40 | 51.45798 | 8.82225 | 117° | 7km/h | 31265m | 5.9m/s | -40.3°C | 0% | 10.3hPa | 2.7V | 18:12:15 | 02:12:15 | 00:00:00 | |
| HSKMA3-T | 2026-09-04 12:30:38 | 51.45799 | 8.82215 | 88° | 18km/h | 31253m | 5.1m/s | -40.4°C | 0% | 10.3hPa | 2.5V | 18:12:15 | 02:12:13 | 00:00:00 | |
| DF8AY | 2026-09-04 12:30:37 | 51.45804 | 8.82198 | 232° | 7km/h | 31215m | 5.1m/s | -40.3°C | 0% | 10.4hPa | 2.6V | 18:12:15 | 02:12:06 | 00:00:00 | |
| AA1-15 | 2026-09-04 12:30:36 | 51.45799 | 8.82202 | 83° | 13km/h | 31244m | 5.3m/s | -40.4°C | 0% | 10.4hPa | 2.6V | 18:12:15 | 02:12:11 | 00:00:00 | |
| DL1XH-15 | 2026-09-04 12:30:36 | 51.45799 | 8.82195 | 148° | 5km/h | 31232m | 6.2m/s | -40.4°C | 2.3% | 10.4hPa | 2.7V | 08:30:00 | 02:12:09 | 00:00:00 | |
| DL1NUX | 2026-09-04 12:30:36 | 51.45804 | 8.82198 | 232° | 7km/h | 31215m | 5.1m/s | -40.3°C | 2.3% | 10.4hPa | 2.6V | 08:30:00 | 02:12:06 | 00:00:00 | |
| DL1XH-west | 2026-09-04 12:30:35 | 51.45799 | 8.82197 | 99° | 7km/h | 31238m | 5.8m/s | -40.3°C | 0% | 10.4hPa | 2.7V | 18:12:15 | 02:12:10 | 00:00:00 | |
| DD8BA-10 | 2026-09-04 12:30:34 | 51.45799 | 8.82195 | 149° | 7km/h | 31232m | 6.2m/s | -40.3°C | 2.3% | 10.3hPa | 2.7V | 00:00:00 | 00:00:00 | 08:30:00 | |
| DO1YAY-16 | 2026-09-04 12:30:33 | 51.45802 | 8.82196 | 210° | 7km/h | 31221m | 5.3m/s | -40.3°C | 0.5% | 10.4hPa | 2.7V | 00:00:00 | 00:00:00 | 00:00:00 | |
| AM1SDL-15 | 2026-09-04 12:30:31 | 51.45804 | 8.82198 | 233° | 11km/h | 31215m | 5.1m/s | -40.3°C | 2.3% | 10.3hPa | 2.7V | 00:00:00 | 02:12:06 | 00:00:00 | |
| DL1XH-15 | 2026-09-04 12:30:30 | 51.45793 | 8.82198 | 98° | 9km/h | 31176m | 6.6m/s | -40.3°C | 2.3% | 10.5hPa | 2.7V | 08:30:00 | 02:11:59 | 00:00:00 | |
| DO2JMG | 2026-09-04 12:30:29 | 51.45803 | 8.82202 | 323° | 7km/h | 31204m | 6.2m/s | -40.4°C | 0% | 10.4hPa | 2.7V | 18:12:15 | 02:12:04 | 00:00:00 | |
| HSKMA3-T | 2026-09-04 12:30:27 | 51.45798 | 8.82204 | 4° | 13km/h | 31193m | 4.9m/s | -40.3°C | 0% | 10.4hPa | 2.7V | 18:12:15 | 02:12:02 | 00:00:00 | |
| BIOWL1-15 | 2026-09-04 12:30:26 | 51.45795 | 8.82203 | 20° | 11km/h | 31188m | 4.6m/s | -40.2°C | 0% | 10.4hPa | 2.6V | 18:12:15 | 02:12:01 | 00:00:00 | |
| DL1XH-west | 2026-09-04 12:30:24 | 51.45793 | 8.82198 | 98° | 9km/h | 31176m | 6.6m/s | -40.3°C | 0% | 10.5hPa | 2.7V | 18:12:15 | 02:11:59 | 00:00:00 | |
| DF8AY | 2026-09-04 12:30:24 | 51.45805 | 8.82167 | 108° | 22km/h | 31147m | 5.4m/s | -40.4°C | 0% | 10.5hPa | 2.7V | 18:12:15 | 02:11:54 | 00:00:00 | |
| NBG1-10 | 2026-09-04 12:30:24 | 51.45793 | 8.82198 | 99° | 18km/h | 31177m | 6.5m/s | -40.2°C | 2.3% | 10.4hPa | 2.6V | 00:00:00 | 02:11:59 | 00:00:00 | |
| DD1CC3-15 | 2026-09-04 12:30:23 | 51.45793 | 8.82198 | 99° | 9km/h | 31177m | 6.6m/s | -40.3°C | 0.6% | 10.5hPa | 2.6V | 00:00:00 | 00:00:00 | 00:00:00 | |
| DL1NUX | 2026-09-04 12:30:22 | 51.45800 | 8.82183 | 125° | 22km/h | 31158m | 5.8m/s | -40.4°C | 2.4% | 10.5hPa | 2.6V | 08:30:00 | 02:11:56 | 00:00:00 | |
| BIOWL9-15 | 2026-09-04 12:30:22 | 51.45800 | 8.82183 | 125° | 20km/h | 31159m | 5.8m/s | -40.4°C | 0.5% | 10.5hPa | 2.7V | 00:00:00 | 00:00:00 | 00:00:00 | |
| SO1NDE-10 | 2026-09-04 12:30:21 | 51.45800 | 8.82183 | 126° | 15km/h | 31159m | 5.8m/s | -40.3°C | 2.4% | 10.4hPa | 2.7V | 00:00:00 | 02:11:56 | 00:00:00 | |
| DL1XH1-15 | 2026-09-04 12:30:20 | 51.45805 | 8.82167 | 108° | 22km/h | 31147m | 5.4m/s | -40.4°C | 2.3% | 10.5hPa | 2.7V | 08:30:00 | 02:11:54 | 00:00:00 | |
| DO2JMG | 2026-09-04 12:30:18 | 51.45807 | 8.82153 | 101° | 15km/h | 31136m | 6.2m/s | -40.5°C | 0% | 10.5hPa | 2.6V | 18:12:15 | 02:11:52 | 00:00:00 | |
| HSKMA3-T | 2026-09-04 12:30:17 | 51.45807 | 8.82148 | 101° | 11km/h | 31129m | 6.3m/s | -40.5°C | 0% | 10.5hPa | 2.6V | 18:12:15 | 02:11:51 | 00:00:00 | |
| DL1XH-west | 2026-09-04 12:30:14 | 51.45808 | 8.82142 | 65° | 5km/h | 31118m | 5.3m/s | -40.7°C | 0% | 10.6hPa | 2.7V | 18:12:15 | 02:11:49 | 00:00:00 | |
| DF8AY | 2026-09-04 12:30:13 | 51.45806 | 8.82140 | 42° | 9km/h | 31112m | 6.4m/s | -40.8°C | 0% | 10.6hPa | 2.7V | 18:12:15 | 02:11:48 | 00:00:00 | |
| DL4BBY-15 | 2026-09-04 12:30:13 | 51.45806 | 8.82140 | 43° | 15km/h | 31112m | 6.4m/s | -41.4°C | 0% | 0hPa | 2.6V | 00:00:00 | 00:00:00 | 00:00:00 | |
| DB0UT-7 | 2026-09-04 12:30:12 | 51.45804 | 8.82137 | 39° | 15km/h | 31106m | 6.6m/s | -40.7°C | 2.4% | 10.5hPa | 2.6V | 00:00:00 | 02:11:47 | 00:00:00 | |
| DB0NH | 2026-09-04 12:30:11 | 51.45801 | 8.82150 | 45° | 15km/h | 31100m | 5.0m/s | -40.7°C | 2.4% | 10.5hPa | 2.6V | 00:00:00 | 02:11:46 | 00:00:00 | |
| AU51GT2 | 2026-09-04 12:30:10 | 51.45799 | 8.82128 | 58° | 16km/h | 31095m | 4.7m/s | -40.7°C | 0.5% | 10.6hPa | 2.6V | 00:00:00 | 00:00:00 | 00:00:00 | |
| DL1XH-15 | 2026-09-04 12:30:09 | 51.45801 | 8.82082 | 86° | 22km/h | 31059m | 6m/s | -40.6°C | 2.4% | 10.6hPa | 2.6V | 08:30:00 | 02:11:39 | 00:00:00 | |
| GOEST3-10 | 2026-09-04 12:30:09 | 51.45797 | 8.82122 | 75° | 20km/h | 31090m | 6.6m/s | -40.7°C | 2.4% | 10.6hPa | 2.7V | 00:00:00 | 02:11:44 | 00:00:00 | |
| DM0DOS-11 | 2026-09-04 12:30:08 | 51.45798 | 8.82065 | 63° | 22km/h | 31048m | 4.2m/s | -40.7°C | 2.4% | 10.7hPa | 2.7V | 08:30:00 | 02:11:37 | 00:00:00 | |
| DO2JMG | 2026-09-04 12:30:07 | 51.45798 | 8.82108 | 105° | 20km/h | 31076m | 5.8m/s | -40.6°C | 0% | 10.6hPa | 2.7V | 18:12:15 | 02:11:42 | 00:00:00 | |
| HSKMA3-T | 2026-09-04 12:30:06 | 51.45799 | 8.82100 | 106° | 22km/h | 31071m | 5.5m/s | -40.6°C | 0% | 10.6hPa | 2.7V | 18:12:15 | 02:11:41 | 00:00:00 | |
| AA1-15 | 2026-09-04 12:30:04 | 51.45801 | 8.82082 | 87° | 22km/h | 31059m | 6m/s | -40.6°C | 0% | 10.6hPa | 2.6V | 18:12:15 | 02:11:39 | 00:00:00 | |
| DL1XH-west | 2026-09-04 12:30:03 | 51.45798 | 8.82065 | 63° | 22km/h | 31048m | 4.2m/s | -40.7°C | 0% | 10.7hPa | 2.7V | 18:12:15 | 02:11:37 | 00:00:00 | |
| DF7PN | 2026-09-04 12:30:03 | 51.45800 | 8.82073 | 73° | 22km/h | 31054m | 5.1m/s | -40.7°C | 0.5% | 10.7hPa | 2.6V | 00:00:00 | 00:00:00 | 00:00:00 | |
| DL1NUX | 2026-09-04 12:30:02 | 51.45795 | 8.82058 | 56° | 18km/h | 31044m | 5.3m/s | -40.7°C | 2.4% | 10.7hPa | 2.6V | 08:30:00 | 02:11:36 | 00:00:00 | |
| DF8AY | 2026-09-04 12:30:00 | 51.45793 | 8.82053 | 50° | 13km/h | 31038m | 6.8m/s | -40.7°C | 0% | 10.7hPa | 2.6V | 18:12:15 | 02:11:35 | 00:00:00 | |
| BIOWL1-15 | 2026-09-04 12:29:58 | 51.45789 | 8.82048 | 8° | 7km/h | 31025m | 5.8m/s | -40.8°C | 0% | 10.7hPa | 2.7V | 18:12:15 | 02:11:33 | 00:00:00 | |
| DO2JMG | 2026-09-04 12:29:57 | 51.45787 | 8.82048 | 356° | 7km/h | 31019m | 5.4m/s | -40.8°C | 0% | 10.7hPa | 2.7V | 18:12:15 | 02:11:32 | 00:00:00 | |
| DL4XJ-10 | 2026-09-04 12:29:57 | 51.45787 | 8.82048 | 356° | 9km/h | 31019m | 5.4m/s | -41.4°C | 0% | 0hPa | 2.6V | 00:00:00 | 00:00:00 | 00:00:00 | |
| DL1XH-15 | 2026-09-04 12:29:56 | 51.45779 | 8.82045 | 28° | 16km/h | 31001m | 5.5m/s | -40.5°C | 2.4% | 10.8hPa | 2.6V | 08:30:00 | 02:11:29 | 00:00:00 | |
| HSKMA3-T | 2026-09-04 12:29:55 | 51.45783 | 8.82047 | 17° | 13km/h | 31007m | 6.2m/s | -40.6°C | 0% | 10.8hPa | 2.6V | 18:12:15 | 02:11:30 | 00:00:00 | |
| EDDB2-11 | 2026-09-04 12:29:53 | 51.45776 | 8.82041 | 40° | 16km/h | 30996m | 4.4m/s | -40.6°C | 0.5% | 10.7hPa | 2.7V | 00:00:00 | 00:00:00 | 00:00:00 | |
| AA1-15 | 2026-09-04 12:29:53 | 51.45776 | 8.82041 | 41° | 16km/h | 30996m | 4.4m/s | -40.6°C | 0% | 10.7hPa | 2.7V | 18:12:15 | 02:11:28 | 00:00:00 | |
| DL1NUX | 2026-09-04 12:29:52 | 51.45771 | 8.82032 | 69° | 13km/h | 30985m | 7m/s | -40.6°C | 2.4% | 10.8hPa | 2.7V | 08:30:00 | 02:11:26 | 00:00:00 | |
| DL1XH-west | 2026-09-04 12:29:52 | 51.45771 | 8.82032 | 70° | 13km/h | 30985m | 7m/s | -40.6°C | 0% | 10.8hPa | 2.7V | 18:12:15 | 02:11:26 | 00:00:00 | |
| DF8AY | 2026-09-04 12:29:50 | 51.45771 | 8.82027 | 94° | 13km/h | 30979m | 6.3m/s | -40.5°C | 0% | 10.8hPa | 2.5V | 18:12:15 | 02:11:25 | 00:00:00 | |
| HARRO8 | 2026-09-04 12:29:50 | 51.45772 | 8.82022 | 107° | 13km/h | 30973m | 5.4m/s | -40.5°C | 0.5% | 10.8hPa | 2.6V | 00:00:00 | 00:00:00 | 00:00:00 | |
| DL1XH-15 | 2026-09-04 12:29:49 | 51.45773 | 8.81997 | 66° | 7km/h | 30945m | 4.7m/s | -40.6°C | 2.3% | 10.8hPa | 2.6V | 08:30:00 | 02:11:19 | 00:00:00 | |
| DO2JMG | 2026-09-04 12:29:46 | 51.45774 | 8.82006 | 88° | 13km/h | 30955m | 5.6m/s | -40.5°C | 0% | 10.8hPa | 2.7V | 18:12:15 | 02:11:21 | 00:00:00 | |
| DM0DOS-11 | 2026-09-04 12:29:44 | 51.45772 | 8.81995 | 257° | 2km/h | 30932m | 6.8m/s | -40.5°C | 2.3% | 10.9hPa | 2.6V | 08:30:00 | 02:11:17 | 00:00:00 | |
| HSKMA3-T | 2026-09-04 12:29:44 | 51.45773 | 8.81997 | 67° | 7km/h | 30945m | 4.7m/s | -40.6°C | 0% | 10.8hPa | 2.6V | 18:12:15 | 02:11:19 | 00:00:00 | |
| DK9SH | 2026-09-04 12:29:44 | 51.45773 | 8.81997 | 68° | 7km/h | 30945m | 4.7m/s | -40.6°C | 0.5% | 10.8hPa | 2.7V | 00:00:00 | 00:00:00 | 00:00:00 | |
| DL1XH1-15 | 2026-09-04 12:29:43 | 51.45772 | 8.81997 | 19° | 2km/h | 30915m | 6.5m/s | -40.5°C | 2.3% | 10.9hPa | 2.7V | 08:30:00 | 02:11:14 | 00:00:00 | |
| AA1-15 | 2026-09-04 12:29:43 | 51.45772 | 8.81995 | 62° | 4km/h | 30939m | 6.7m/s | -40.6°C | 0% | 10.8hPa | 2.6V | 18:12:15 | 02:11:18 | 00:00:00 | |
| DL1XH-west | 2026-09-04 12:29:40 | 51.45772 | 8.81997 | 263° | 2km/h | 30921m | 5.1m/s | -40.4°C | 0% | 10.9hPa | 2.7V | 18:12:15 | 02:11:15 | 00:00:00 | |
| DF8AY | 2026-09-04 12:29:39 | 51.45772 | 8.81997 | 20° | 2km/h | 30915m | 6.5m/s | -40.5°C | 0% | 10.9hPa | 2.7V | 18:12:15 | 02:11:14 | 00:00:00 | |
| BIOWL1-15 | 2026-09-04 12:29:37 | 51.45772 | 8.81979 | 122° | 13km/h | 30885m | 6.6m/s | -40.4°C | 0% | 10.9hPa | 2.6V | 18:12:15 | 02:11:09 | 00:00:00 | |
| DO2JMG | 2026-09-04 12:29:36 | 51.45771 | 8.81989 | 89° | 13km/h | 30898m | 5.4m/s | -40.6°C | 0% | 10.9hPa | 2.7V | 18:12:15 | 02:11:11 | 00:00:00 | |
| DL1XH-15 | 2026-09-04 12:29:35 | 51.45772 | 8.81979 | 121° | 13km/h | 30885m | 6.6m/s | -40.4°C | 2.4% | 10.9hPa | 2.6V | 08:30:00 | 02:11:09 | 00:00:00 | |
| DO9LL-15 | 2026-09-04 12:29:35 | 51.45771 | 8.81984 | 106° | 11km/h | 30892m | 6.6m/s | -40.5°C | 2.4% | 10.9hPa | 2.6V | 00:00:00 | 02:11:10 | 00:00:00 | |
| DD8BA-10 | 2026-09-04 12:29:34 | 51.45772 | 8.81979 | 122° | 7km/h | 30886m | 6.5m/s | -40.4°C | 2.4% | 10.9hPa | 2.6V | 00:00:00 | 00:00:00 | 00:00:00 | |
| DM0DOS-11 | 2026-09-04 12:29:33 | 51.45776 | 8.81971 | 131° | 9km/h | 30873m | 5.6m/s | -40.4°C | 2.4% | 11hPa | 2.7V | 08:30:00 | 02:11:07 | 00:00:00 | |
| HSKMA3-T | 2026-09-04 12:29:33 | 51.45774 | 8.81975 | 131° | 13km/h | 30879m | 5.8m/s | -40.4°C | 0% | 10.9hPa | 2.6V | 18:12:15 | 02:11:08 | 00:00:00 | |
| AA1-15 | 2026-09-04 12:29:32 | 51.45776 | 8.81971 | 132° | 9km/h | 30873m | 5.6m/s | -40.4°C | 0% | 11hPa | 2.7V | 18:12:15 | 02:11:07 | 00:00:00 | |
| DL1XH1-15 | 2026-09-04 12:29:30 | 51.45778 | 8.81967 | 204° | 0km/h | 30856m | 5.1m/s | -40.5°C | 2.4% | 11hPa | 2.5V | 08:30:00 | 02:11:04 | 00:00:00 | |
| DL1XH-west | 2026-09-04 12:29:29 | 51.45778 | 8.81967 | 205° | 0km/h | 30856m | 5.1m/s | -40.5°C | 0% | 11hPa | 2.5V | 18:12:15 | 02:11:04 | 00:00:00 | |
| DO2JMG | 2026-09-04 12:29:25 | 51.45783 | 8.81972 | 199° | 7km/h | 30832m | 5.3m/s | -40.4°C | 0% | 11hPa | 2.7V | 18:12:15 | 02:11:00 | 00:00:00 | |
| DL3AQ-11 | 2026-09-04 12:29:25 | 51.45785 | 8.81973 | 172° | 5km/h | 30827m | 6.4m/s | -40.4°C | 0.5% | 11.0hPa | 2.6V | 00:00:00 | 00:00:00 | 00:00:00 | |
| DD8BA-10 | 2026-09-04 12:29:24 | 51.45784 | 8.81973 | 173° | 13km/h | 30827m | 6.3m/s | -40.3°C | 2.3% | 11.0hPa | 2.6V | 00:00:00 | 00:00:00 | 00:00:00 | |
| DM0DOS-11 | 2026-09-04 12:29:23 | 51.45786 | 8.81968 | 90° | 11km/h | 30814m | 5.5m/s | -40.3°C | 2.3% | 11.1hPa | 2.6V | 08:30:00 | 02:10:57 | 00:00:00 | |
| DL1XH1-15 | 2026-09-04 12:29:23 | 51.45787 | 8.81951 | 111° | 16km/h | 30796m | 6.4m/s | -40.5°C | 2.3% | 11.1hPa | 2.7V | 08:30:00 | 02:10:54 | 00:00:00 | |
| AA1-15 | 2026-09-04 12:29:22 | 51.45786 | 8.81968 | 90° | 11km/h | 30814m | 5.5m/s | -40.3°C | 0% | 11.1hPa | 2.6V | 18:12:15 | 02:10:57 | 00:00:00 | |
| DL1XH-west | 2026-09-04 12:29:19 | 51.45788 | 8.81951 | 111° | 16km/h | 30796m | 6.4m/s | -40.5°C | 0% | 11.1hPa | 2.7V | 18:12:15 | 02:10:54 | 00:00:00 | |
| HARRO8 | 2026-09-04 12:29:19 | 51.45789 | 8.81944 | 114° | 16km/h | 30790m | 5.6m/s | -40.6°C | 0.5% | 11.1hPa | 2.7V | 00:00:00 | 00:00:00 | 00:00:00 | |
| AM1SDL-15 | 2026-09-04 12:29:18 | 51.45789 | 8.81944 | 115° | 13km/h | 30790m | 5.5m/s | -40.5°C | 2.4% | 11.0hPa | 2.7V | 00:00:00 | 02:10:53 | 00:00:00 | |
| DM0DOS-11 | 2026-09-04 12:29:17 | 51.45793 | 8.81919 | 131° | 5km/h | 30757m | 6.4m/s | -40.6°C | 2.4% | 11.1hPa | 2.7V | 08:30:00 | 02:10:47 | 00:00:00 | |
| DO2JMG | 2026-09-04 12:29:15 | 51.45792 | 8.81928 | 91° | 11km/h | 30772m | 5.6m/s | -40.5°C | 0% | 11.1hPa | 2.6V | 18:12:15 | 02:10:50 | 00:00:00 | |
| DL3AQ-11 | 2026-09-04 12:29:14 | 51.45792 | 8.81921 | 96° | 5km/h | 30763m | 4.6m/s | -40.6°C | 0.5% | 11.1hPa | 2.5V | 00:00:00 | 00:00:00 | 00:00:00 | |
| DL1NUX | 2026-09-04 12:29:12 | 51.45794 | 8.81918 | 157° | 7km/h | 30750m | 6.7m/s | -40.6°C | 2.3% | 11.2hPa | 2.5V | 08:30:00 | 02:10:46 | 00:00:00 | |
| HSKMA3-T | 2026-09-04 12:29:12 | 51.45793 | 8.81919 | 131° | 5km/h | 30757m | 6.4m/s | -40.6°C | 0% | 11.2hPa | 2.7V | 18:12:15 | 02:10:47 | 00:00:00 | |
| BIOWL1-15 | 2026-09-04 12:29:11 | 51.45794 | 8.81918 | 158° | 7km/h | 30751m | 6.7m/s | -40.6°C | 0% | 11.2hPa | 2.5V | 18:12:15 | 02:10:46 | 00:00:00 | |
| DL1XH1-15 | 2026-09-04 12:29:11 | 51.45798 | 8.81915 | 151° | 9km/h | 30739m | 4.9m/s | -40.6°C | 2.3% | 11.2hPa | 2.7V | 08:30:00 | 02:10:44 | 00:00:00 | |
| DC6BW-12 | 2026-09-04 12:29:10 | 51.45794 | 8.81918 | 159° | 7km/h | 30751m | 6.7m/s | -40.6°C | 0.6% | 11.2hPa | 2.7V | 00:00:00 | 00:00:00 | 00:00:00 | |
| DL1XH-15 | 2026-09-04 12:29:09 | 51.45795 | 8.81890 | 63° | 22km/h | 30710m | 5.8m/s | -40.9°C | 2.4% | 11.2hPa | 2.7V | 08:30:00 | 02:10:39 | 00:00:00 | |
| DL1XH-west | 2026-09-04 12:29:08 | 51.45800 | 8.81912 | 121° | 9km/h | 30734m | 5.4m/s | -40.7°C | 0% | 11.2hPa | 2.7V | 18:12:15 | 02:10:43 | 00:00:00 | |
| AU51GT2 | 2026-09-04 12:29:08 | 51.45801 | 8.81909 | 84° | 9km/h | 30728m | 6.8m/s | -40.8°C | 0.5% | 11.2hPa | 2.5V | 00:00:00 | 00:00:00 | 00:00:00 | |
| DM0DOS-11 | 2026-09-04 12:29:07 | 51.45792 | 8.81875 | 82° | 18km/h | 30698m | 5.7m/s | -40.8°C | 2.4% | 11.2hPa | 2.5V | 08:30:00 | 02:10:37 | 00:00:00 | |
| DF8AY | 2026-09-04 12:29:05 | 51.45798 | 8.81897 | 60° | 20km/h | 30716m | 4.9m/s | -40.9°C | 0% | 11.2hPa | 2.7V | 18:12:15 | 02:10:40 | 00:00:00 | |
| DO2JMG | 2026-09-04 12:29:04 | 51.45795 | 8.81890 | 64° | 22km/h | 30710m | 5.8m/s | -40.9°C | 0% | 11.2hPa | 2.7V | 18:12:15 | 02:10:39 | 00:00:00 | |
| DO9LL-15 | 2026-09-04 12:29:04 | 51.45795 | 8.81890 | 64° | 15km/h | 30711m | 5.7m/s | -40.9°C | 2.4% | 11.2hPa | 2.7V | 00:00:00 | 02:10:39 | 00:00:00 | |
| DL1NUX | 2026-09-04 12:29:02 | 51.45792 | 8.81869 | 91° | 15km/h | 30693m | 5.2m/s | -40.9°C | 2.4% | 11.2hPa | 2.6V | 08:30:00 | 02:10:36 | 00:00:00 | |
| HSKMA3-T | 2026-09-04 12:29:02 | 51.45792 | 8.81875 | 82° | 18km/h | 30698m | 5.7m/s | -40.8°C | 0% | 11.2hPa | 2.5V | 18:12:15 | 02:10:37 | 00:00:00 | |
| BIOWL1-15 | 2026-09-04 12:29:00 | 51.45792 | 8.81863 | 98° | 13km/h | 30687m | 5.5m/s | -40.9°C | 0% | 11.3hPa | 2.6V | 18:12:15 | 02:10:35 | 00:00:00 | |
| DL1XH-west | 2026-09-04 12:28:58 | 51.45793 | 8.81855 | 91° | 7km/h | 30675m | 6m/s | -40.9°C | 0% | 11.3hPa | 2.7V | 18:12:15 | 02:10:33 | 00:00:00 | |
| DL3AQ-11 | 2026-09-04 12:28:58 | 51.45795 | 8.81845 | 129° | 13km/h | 30659m | 6.9m/s | -40.9°C | 0.5% | 11.3hPa | 2.7V | 00:00:00 | 00:00:00 | 00:00:00 | |
| DL4XJ-10 | 2026-09-04 12:28:57 | 51.45793 | 8.81852 | 99° | 15km/h | 30670m | 4.9m/s | -41.5°C | 0% | 0hPa | 2.7V | 00:00:00 | 00:00:00 | 00:00:00 | |
| DM0DOS-11 | 2026-09-04 12:28:56 | 51.45806 | 8.81828 | 133° | 24km/h | 30639m | 5.8m/s | -41.1°C | 2.4% | 11.3hPa | 2.7V | 08:30:00 | 02:10:27 | 00:00:00 | |
| DB0DAN | 2026-09-04 12:28:55 | 51.45795 | 8.81845 | 130° | 13km/h | 30659m | 6.9m/s | -40.9°C | 0.5% | 11.32hPa | 2.6V | 00:00:00 | 00:00:00 | 00:00:00 | |
| DO2JMG | 2026-09-04 12:28:54 | 51.45798 | 8.81840 | 136° | 18km/h | 30652m | 7.1m/s | -41°C | 0% | 11.3hPa | 2.6V | 18:12:15 | 02:10:29 | 00:00:00 | |
| GOEST3-10 | 2026-09-04 12:28:54 | 51.45798 | 8.81840 | 137° | 22km/h | 30652m | 7.1m/s | -40.9°C | 2.3% | 11.3hPa | 2.7V | 00:00:00 | 00:00:00 | 00:00:00 | |
| DL1NUX | 2026-09-04 12:28:52 | 51.45809 | 8.81821 | 127° | 22km/h | 30633m | 6.7m/s | -41.1°C | 2.4% | 11.3hPa | 2.7V | 08:30:00 | 02:10:26 | 00:00:00 | |
| HSKMA3-T | 2026-09-04 12:28:51 | 51.45809 | 8.81821 | 128° | 22km/h | 30633m | 6.7m/s | -41.2°C | 0% | 11.3hPa | 2.7V | 18:12:15 | 02:10:26 | 00:00:00 | |
| DL8OAI-8 | 2026-09-04 12:28:51 | 51.45809 | 8.81821 | 129° | 22km/h | 30633m | 6.7m/s | -41.2°C | 0.6% | 11.3hPa | 2.6V | 00:00:00 | 00:00:00 | 00:00:00 | |
| DL1XH1-15 | 2026-09-04 12:28:50 | 51.45815 | 8.81808 | 122° | 18km/h | 30622m | 4.4m/s | -41.1°C | 2.4% | 11.4hPa | 2.6V | 08:30:00 | 02:10:24 | 00:00:00 | |
| BIOWL1-15 | 2026-09-04 12:28:49 | 51.45815 | 8.81808 | 123° | 18km/h | 30622m | 4.4m/s | -41.1°C | 0% | 11.4hPa | 2.6V | 18:12:15 | 02:10:24 | 00:00:00 | |
| DL1XH-west | 2026-09-04 12:28:47 | 51.45821 | 8.81797 | 137° | 18km/h | 30610m | 6.9m/s | -41.2°C | 0% | 11.4hPa | 2.7V | 18:12:15 | 02:10:22 | 00:00:00 | |
| BUE01 | 2026-09-04 12:28:46 | 51.45828 | 8.81789 | 151° | 16km/h | 30598m | 5.3m/s | -41.2°C | 0.6% | 11.4hPa | 2.6V | 00:00:00 | 00:00:00 | 00:00:00 | |
| SONCRA | 2026-09-04 12:28:45 | 51.45831 | 8.81786 | 152° | 13km/h | 30593m | 5.4m/s | -41.2°C | 0.5% | 11.4hPa | 2.6V | 00:00:00 | 00:00:00 | 00:00:00 | |
| DL1XH1-15 | 2026-09-04 12:28:44 | 51.45835 | 8.81773 | 101° | 9km/h | 30563m | 6.7m/s | -41.2°C | 2.4% | 11.4hPa | 2.6V | 08:30:00 | 02:10:14 | 00:00:00 | |
| DO2JMG | 2026-09-04 12:28:43 | 51.45834 | 8.81783 | 146° | 9km/h | 30587m | 6.8m/s | -41.2°C | 0% | 11.4hPa | 2.6V | 18:12:15 | 02:10:18 | 00:00:00 | |
| DL4BBY-15 | 2026-09-04 12:28:43 | 51.45834 | 8.81783 | 147° | 16km/h | 30587m | 6.7m/s | -41.9°C | 0% | 0hPa | 2.7V | 00:00:00 | 00:00:00 | 00:00:00 | |
| DL1NUX | 2026-09-04 12:28:42 | 51.45835 | 8.81779 | 77° | 5km/h | 30574m | 5.1m/s | -41.1°C | 2.4% | 11.4hPa | 2.7V | 08:30:00 | 02:10:16 | 00:00:00 | |
| HSKMA3-T | 2026-09-04 12:28:40 | 51.45835 | 8.81777 | 84° | 7km/h | 30569m | 4.5m/s | -41.1°C | 0% | 11.5hPa | 2.5V | 18:12:15 | 02:10:15 | 00:00:00 | |
| DF8AY | 2026-09-04 12:28:39 | 51.45835 | 8.81773 | 102° | 9km/h | 30564m | 6.7m/s | -41.2°C | 0% | 11.5hPa | 2.6V | 18:12:15 | 02:10:14 | 00:00:00 | |
| BIOWL1-15 | 2026-09-04 12:28:38 | 51.45836 | 8.81769 | 115° | 13km/h | 30557m | 6.7m/s | -41.2°C | 0% | 11.5hPa | 2.7V | 18:12:15 | 02:10:13 | 00:00:00 | |
| DL1XH-west | 2026-09-04 12:28:37 | 51.45838 | 8.81764 | 119° | 18km/h | 30550m | 5.5m/s | -41.2°C | 0% | 11.5hPa | 2.7V | 18:12:15 | 02:10:12 | 00:00:00 | |
| DO3DL | 2026-09-04 12:28:37 | 51.45838 | 8.81764 | 120° | 18km/h | 30551m | 5.5m/s | -41.2°C | 0.6% | 11.5hPa | 2.5V | 00:00:00 | 00:00:00 | 00:00:00 | |
| DL1XH-15 | 2026-09-04 12:28:37 | 51.45843 | 8.81742 | 95° | 20km/h | 30532m | 5.9m/s | -41.2°C | 2.4% | 11.5hPa | 2.7V | 08:30:00 | 02:10:09 | 00:00:00 | |
| DL3AQ-11 | 2026-09-04 12:28:34 | 51.45843 | 8.81734 | 88° | 18km/h | 30527m | 5.3m/s | -41.3°C | 0.5% | 11.5hPa | 2.5V | 00:00:00 | 00:00:00 | 00:00:00 | |
| DL1NUX | 2026-09-04 12:28:32 | 51.45843 | 8.81720 | 88° | 15km/h | 30515m | 6.9m/s | -41.4°C | 2.4% | 11.6hPa | 2.5V | 08:30:00 | 02:10:06 | 00:00:00 | |
| DO2JMG | 2026-09-04 12:28:32 | 51.45843 | 8.81727 | 86° | 16km/h | 30521m | 5.6m/s | -41.3°C | 0% | 11.5hPa | 2.7V | 18:12:15 | 02:10:07 | 00:00:00 | |
| DF7PN | 2026-09-04 12:28:30 | 51.45843 | 8.81715 | 87° | 11km/h | 30509m | 5.9m/s | -41.4°C | 0.6% | 11.6hPa | 2.6V | 00:00:00 | 00:00:00 | 00:00:00 | |
| DL1XH-15 | 2026-09-04 12:28:29 | 51.45825 | 8.81692 | 42° | 22km/h | 30474m | 5.8m/s | -41.6°C | 2.4% | 11.6hPa | 2.6V | 08:30:00 | 02:09:59 | 00:00:00 | |
| HSKMA3-T | 2026-09-04 12:28:29 | 51.45842 | 8.81711 | 68° | 9km/h | 30503m | 4.9m/s | -41.4°C | 0% | 11.6hPa | 2.6V | 18:12:15 | 02:10:04 | 00:00:00 | |
| AA1-15 | 2026-09-04 12:28:28 | 51.45841 | 8.81708 | 43° | 11km/h | 30498m | 5.8m/s | -41.5°C | 0% | 11.6hPa | 2.7V | 18:12:15 | 02:10:03 | 00:00:00 | |
| BIOWL1-15 | 2026-09-04 12:28:27 | 51.45838 | 8.81705 | 28° | 15km/h | 30491m | 7m/s | -41.6°C | 0% | 11.6hPa | 2.7V | 18:12:15 | 02:10:02 | 00:00:00 | |
| DK7TD | 2026-09-04 12:28:26 | 51.45834 | 8.81702 | 26° | 20km/h | 30485m | 6m/s | -41.6°C | 0% | 11.6hPa | 2.7V | 18:12:15 | 02:10:01 | 00:00:00 | |
| DO2JMG | 2026-09-04 12:28:21 | 51.45817 | 8.81669 | 73° | 24km/h | 30456m | 5.1m/s | -41.8°C | 0% | 11.7hPa | 2.7V | 18:12:15 | 02:09:56 | 00:00:00 | |
| SO1NDE-10 | 2026-09-04 12:28:21 | 51.45817 | 8.81669 | 73° | 20km/h | 30456m | 5.0m/s | -41.7°C | 2.4% | 11.6hPa | 2.7V | 00:00:00 | 02:09:56 | 00:00:00 | |
| DL1XH1-15 | 2026-09-04 12:28:20 | 51.45813 | 8.81651 | 61° | 24km/h | 30445m | 6.6m/s | -42°C | 2.4% | 11.7hPa | 2.5V | 08:30:00 | 02:09:54 | 00:00:00 | |
| HSKMA3-T | 2026-09-04 12:28:19 | 51.45813 | 8.81651 | 61° | 24km/h | 30445m | 6.6m/s | -42°C | 0% | 11.7hPa | 2.5V | 18:12:15 | 02:09:54 | 00:00:00 | |
| GOEST3-10 | 2026-09-04 12:28:19 | 51.45813 | 8.81651 | 62° | 20km/h | 30445m | 6.5m/s | -41.9°C | 2.4% | 11.6hPa | 2.5V | 00:00:00 | 02:09:54 | 08:30:00 | |
| DJ2DS-15 | 2026-09-04 12:28:18 | 51.45810 | 8.81644 | 48° | 20km/h | 30439m | 5.9m/s | -42.0°C | 2.4% | 11.6hPa | 2.6V | 00:00:00 | 02:09:53 | 00:00:00 | |
| DM0DOS-11 | 2026-09-04 12:28:17 | 51.45790 | 8.81629 | 32° | 9km/h | 30404m | 5m/s | -42.2°C | 2.5% | 11.7hPa | 2.6V | 08:30:00 | 02:09:47 | 00:00:00 | |
| BIOWL1-15 | 2026-09-04 12:28:17 | 51.45806 | 8.81638 | 32° | 20km/h | 30433m | 5.1m/s | -42.2°C | 0% | 11.7hPa | 2.6V | 18:12:15 | 02:09:52 | 00:00:00 | |
| DL4XJ-10 | 2026-09-04 12:28:17 | 51.45805 | 8.81638 | 33° | 20km/h | 30433m | 5.0m/s | -42.8°C | 0% | 0hPa | 2.7V | 00:00:00 | 00:00:00 | 00:00:00 | |
| DL1XH-15 | 2026-09-04 12:28:16 | 51.45795 | 8.81632 | 10° | 11km/h | 30416m | 6.7m/s | -42.1°C | 2.5% | 11.7hPa | 2.7V | 08:30:00 | 02:09:49 | 00:00:00 | |
| DL1XH-west | 2026-09-04 12:28:16 | 51.45801 | 8.81635 | 22° | 18km/h | 30428m | 5m/s | -42.2°C | 0% | 11.7hPa | 2.7V | 18:12:15 | 02:09:51 | 00:00:00 | |
| DK7TD | 2026-09-04 12:28:13 | 51.45792 | 8.81631 | 19° | 7km/h | 30410m | 5.5m/s | -42.2°C | 0% | 0hPa | 2.6V | 18:12:15 | 02:09:48 | 00:00:00 | |
| DO2JMG | 2026-09-04 12:28:11 | 51.45785 | 8.81622 | 41° | 20km/h | 30393m | 6.3m/s | -42.3°C | 0% | 11.8hPa | 2.7V | 18:12:15 | 02:09:45 | 00:00:00 | |
| DL1XH-15 | 2026-09-04 12:28:10 | 51.45764 | 8.81568 | 59° | 27km/h | 30358m | 5.5m/s | -42.4°C | 2.5% | 11.8hPa | 2.6V | 08:30:00 | 02:09:39 | 00:00:00 | |
| HSKMA3-T | 2026-09-04 12:28:09 | 51.45781 | 8.81616 | 47° | 24km/h | 30386m | 5.5m/s | -42.2°C | 0% | 11.8hPa | 2.6V | 18:12:15 | 02:09:44 | 00:00:00 | |
| DF8AY | 2026-09-04 12:28:07 | 51.45773 | 8.81598 | 61° | 29km/h | 30375m | 6.8m/s | -42.3°C | 0% | 11.8hPa | 2.7V | 18:12:15 | 02:09:42 | 00:00:00 | |
| BIOWL1-15 | 2026-09-04 12:28:06 | 51.45770 | 8.81588 | 67° | 29km/h | 30368m | 6m/s | -42.4°C | 0% | 11.8hPa | 2.7V | 18:12:15 | 02:09:41 | 00:00:00 | |
| DL1XH-west | 2026-09-04 12:28:06 | 51.45767 | 8.81578 | 67° | 27km/h | 30363m | 5m/s | -42.4°C | 0% | 11.8hPa | 2.6V | 18:12:15 | 02:09:40 | 00:00:00 | |
| DM0DOS-11 | 2026-09-04 12:28:05 | 51.45756 | 8.81553 | 35° | 24km/h | 30346m | 5.5m/s | -42.3°C | 2.5% | 11.8hPa | 2.7V | 08:30:00 | 02:09:37 | 00:00:00 | |
| DO2JMG | 2026-09-04 12:27:59 | 51.45743 | 8.81543 | 16° | 15km/h | 30328m | 6.4m/s | -42.5°C | 0% | 11.9hPa | 2.6V | 18:12:15 | 02:09:34 | 00:00:00 | |
| DF8AY | 2026-09-04 12:27:57 | 51.45736 | 8.81540 | 26° | 15km/h | 30317m | 4.9m/s | -42.6°C | 0% | 11.9hPa | 2.7V | 18:12:15 | 02:09:32 | 00:00:00 | |
| DL1XH-west | 2026-09-04 12:27:55 | 51.45729 | 8.81533 | 31° | 22km/h | 30305m | 6.6m/s | -42.6°C | 0% | 11.9hPa | 2.7V | 18:12:15 | 02:09:30 | 00:00:00 | |
| AA1-15 | 2026-09-04 12:27:54 | 51.45724 | 8.81527 | 37° | 27km/h | 30299m | 5.4m/s | -42.6°C | 0% | 11.9hPa | 2.5V | 18:12:15 | 02:09:29 | 00:00:00 | |
| DD8BA-10 | 2026-09-04 12:27:54 | 51.45723 | 8.81527 | 37° | 24km/h | 30299m | 5.3m/s | -42.5°C | 2.6% | 11.9hPa | 2.6V | 00:00:00 | 00:00:00 | 00:00:00 | |
| DM0DOS-11 | 2026-09-04 12:27:53 | 51.45713 | 8.81512 | 50° | 29km/h | 30288m | 6.6m/s | -42.4°C | 2.5% | 11.9hPa | 2.6V | 08:30:00 | 02:09:27 | 00:00:00 | |
| DK7TD | 2026-09-04 12:27:53 | 51.45718 | 8.81520 | 44° | 29km/h | 30294m | 5m/s | -42.5°C | 0% | 0hPa | 2.6V | 18:12:15 | 02:09:28 | 00:00:00 | |
| DO3MHA-12 | 2026-09-04 12:27:53 | 51.45718 | 8.81520 | 44° | 15km/h | 30294m | 5.0m/s | -42.4°C | 2.5% | 11.9hPa | 2.7V | 00:00:00 | 02:09:28 | 00:00:00 | |
| DL1NUX | 2026-09-04 12:27:52 | 51.45709 | 8.81503 | 56° | 27km/h | 30282m | 6m/s | -42.4°C | 2.5% | 11.9hPa | 2.7V | 08:30:00 | 02:09:26 | 00:00:00 | |
| SO1NDE-10 | 2026-09-04 12:27:51 | 51.45709 | 8.81503 | 57° | 15km/h | 30282m | 6.0m/s | -42.4°C | 2.5% | 11.9hPa | 2.7V | 00:00:00 | 02:09:26 | 00:00:00 | |
| DL1XH-15 | 2026-09-04 12:27:49 | 51.45683 | 8.81475 | 351° | 11km/h | 30241m | 6.9m/s | -42.7°C | 2.6% | 12hPa | 2.7V | 08:30:00 | 02:09:19 | 00:00:00 | |
| DO2JMG | 2026-09-04 12:27:49 | 51.45703 | 8.81487 | 52° | 22km/h | 30271m | 5.4m/s | -42.5°C | 0% | 12hPa | 2.7V | 18:12:15 | 02:09:24 | 00:00:00 | |
| DL1XH-west | 2026-09-04 12:27:45 | 51.45686 | 8.81474 | 359° | 15km/h | 30248m | 5.6m/s | -42.8°C | 0% | 12hPa | 2.7V | 18:12:15 | 02:09:20 | 00:00:00 | |
| DF8AY | 2026-09-04 12:27:43 | 51.45675 | 8.81472 | 33° | 13km/h | 30217m | 6.6m/s | -42.7°C | 0% | 12.1hPa | 2.6V | 18:12:15 | 02:09:15 | 00:00:00 | |
| AA1-15 | 2026-09-04 12:27:43 | 51.45681 | 8.81475 | 349° | 7km/h | 30235m | 6.4m/s | -42.7°C | 0% | 12hPa | 2.7V | 18:12:15 | 02:09:18 | 00:00:00 | |
| DM0DOS-11 | 2026-09-04 12:27:42 | 51.45679 | 8.81475 | 11° | 5km/h | 30229m | 5.5m/s | -42.6°C | 2.6% | 12.1hPa | 2.5V | 08:30:00 | 02:09:17 | 00:00:00 | |
| DL1NUX | 2026-09-04 12:27:42 | 51.45677 | 8.81474 | 30° | 7km/h | 30223m | 5.6m/s | -42.7°C | 2.6% | 12.1hPa | 2.6V | 08:30:00 | 02:09:16 | 00:00:00 | |
| DK7TD | 2026-09-04 12:27:41 | 51.45677 | 8.81474 | 31° | 9km/h | 30223m | 5.6m/s | 0°C | 0% | 0hPa | 2.6V | 18:12:15 | 02:09:16 | 00:00:00 | |
| DO2JMG | 2026-09-04 12:27:39 | 51.45672 | 8.81469 | 34° | 16km/h | 30211m | 5.5m/s | -42.8°C | 0% | 12.1hPa | 2.7V | 18:12:15 | 02:09:14 | 00:00:00 | |
| HSKMA3-T | 2026-09-04 12:27:38 | 51.45669 | 8.81465 | 36° | 18km/h | 30206m | 4.8m/s | -42.7°C | 0% | 12.1hPa | 2.7V | 18:12:15 | 02:09:13 | 00:00:00 | |
| DL1XH-west | 2026-09-04 12:27:34 | 51.45658 | 8.81446 | 58° | 13km/h | 30183m | 5.6m/s | -42.9°C | 0% | 12.1hPa | 2.7V | 18:12:15 | 02:09:09 | 00:00:00 | |
| DL1XH1-15 | 2026-09-04 12:27:34 | 51.45642 | 8.81433 | 4° | 16km/h | 30154m | 5.7m/s | -42.9°C | 2.6% | 12.2hPa | 2.7V | 08:30:00 | 02:09:04 | 00:00:00 | |
| AA1-15 | 2026-09-04 12:27:33 | 51.45656 | 8.81443 | 48° | 13km/h | 30177m | 5.4m/s | -42.8°C | 0% | 12.2hPa | 2.7V | 18:12:15 | 02:09:08 | 00:00:00 | |
| DM0DOS-11 | 2026-09-04 12:27:32 | 51.45654 | 8.81439 | 34° | 15km/h | 30171m | 6.3m/s | -42.8°C | 2.6% | 12.2hPa | 2.6V | 08:30:00 | 02:09:07 | 00:00:00 | |
| DL1NUX | 2026-09-04 12:27:32 | 51.45650 | 8.81436 | 22° | 16km/h | 30165m | 6.1m/s | -42.8°C | 2.6% | 12.2hPa | 2.6V | 08:30:00 | 02:09:06 | 00:00:00 | |
| DK7TD | 2026-09-04 12:27:31 | 51.45646 | 8.81434 | 13° | 18km/h | 30159m | 5.1m/s | 0°C | 0% | 0hPa | 2.7V | 18:12:15 | 02:09:05 | 00:00:00 | |
| DO2JMG | 2026-09-04 12:27:29 | 51.45642 | 8.81433 | 5° | 16km/h | 30154m | 5.7m/s | -42.9°C | 0% | 12.2hPa | 2.7V | 18:12:15 | 02:09:04 | 00:00:00 | |
| HSKMA3-T | 2026-09-04 12:27:27 | 51.45634 | 8.81433 | 350° | 11km/h | 30141m | 6m/s | -42.8°C | 0% | 12.2hPa | 2.6V | 18:12:15 | 02:09:02 | 00:00:00 | |
| AA1-15 | 2026-09-04 12:27:23 | 51.45625 | 8.81432 | 23° | 13km/h | 30118m | 6m/s | -42.8°C | 0% | 12.3hPa | 2.5V | 18:12:15 | 02:08:58 | 00:00:00 | |
| DF8AY | 2026-09-04 12:27:23 | 51.45622 | 8.81430 | 28° | 15km/h | 30112m | 5.3m/s | -42.9°C | 0% | 12.3hPa | 2.6V | 18:12:15 | 02:08:57 | 00:00:00 | |
| BIOWL1-15 | 2026-09-04 12:27:22 | 51.45600 | 8.81428 | 354° | 18km/h | 30067m | 5.3m/s | -42.9°C | 0% | 12.3hPa | 2.7V | 18:12:15 | 02:08:49 | 00:00:00 | |
| DL1NUX | 2026-09-04 12:27:22 | 51.45619 | 8.81427 | 29° | 13km/h | 30107m | 5.4m/s | -42.9°C | 2.6% | 12.3hPa | 2.6V | 08:30:00 | 02:08:56 | 00:00:00 | |
| DK7TD | 2026-09-04 12:27:20 | 51.45615 | 8.81424 | 8° | 5km/h | 30095m | 5.5m/s | 0°C | 0% | 0hPa | 2.7V | 18:12:15 | 02:08:54 | 00:00:00 | |
| DO2JMG | 2026-09-04 12:27:18 | 51.45613 | 8.81424 | 347° | 7km/h | 30090m | 4.7m/s | -42.8°C | 0% | 12.3hPa | 2.7V | 18:12:15 | 02:08:53 | 00:00:00 | |
| DJ2DS-15 | 2026-09-04 12:27:18 | 51.45613 | 8.81424 | 348° | 11km/h | 30090m | 4.6m/s | -42.7°C | 2.6% | 12.3hPa | 2.7V | 00:00:00 | 02:08:53 | 00:00:00 | |
| DM0DOS-11 | 2026-09-04 12:27:17 | 51.45592 | 8.81430 | 341° | 13km/h | 30057m | 6m/s | -42.9°C | 2.6% | 12.4hPa | 2.7V | 08:30:00 | 02:08:47 | 00:00:00 | |
| HSKMA3-T | 2026-09-04 12:27:17 | 51.45611 | 8.81425 | 345° | 9km/h | 30085m | 5.3m/s | -42.8°C | 0% | 12.3hPa | 2.5V | 18:12:15 | 02:08:52 | 00:00:00 | |
| DL4XJ-10 | 2026-09-04 12:27:17 | 51.45611 | 8.81425 | 345° | 11km/h | 30085m | 5.2m/s | -43.5°C | 0% | 0hPa | 2.7V | 00:00:00 | 00:00:00 | 00:00:00 | |
| DL1XH-15 | 2026-09-04 12:27:16 | 51.45600 | 8.81428 | 353° | 18km/h | 30067m | 5.3m/s | -42.9°C | 2.6% | 12.3hPa | 2.7V | 08:30:00 | 02:08:49 | 00:00:00 | |
| AA1-15 | 2026-09-04 12:27:12 | 51.45593 | 8.81430 | 341° | 13km/h | 30057m | 6m/s | -42.9°C | 0% | 12.4hPa | 2.7V | 18:12:15 | 02:08:47 | 00:00:00 | |
| SONCRA | 2026-09-04 12:27:12 | 51.45590 | 8.81432 | 317° | 7km/h | 30051m | 6.6m/s | -42.9°C | 0.6% | 12.4hPa | 2.6V | 00:00:00 | 00:00:00 | 00:00:00 | |
| DL9SK-14 | 2026-09-04 12:27:11 | 51.45590 | 8.81432 | 317° | 7km/h | 30051m | 6.6m/s | -42.9°C | 0.6% | 12.4hPa | 2.6V | 00:00:00 | 00:00:00 | 00:00:00 | |
| DL1XH1-15 | 2026-09-04 12:27:10 | 51.45589 | 8.81437 | 280° | 5km/h | 30038m | 5.2m/s | -42.9°C | 2.6% | 12.4hPa | 2.6V | 08:30:00 | 02:08:44 | 00:00:00 | |
| DB0NH | 2026-09-04 12:27:10 | 51.45589 | 8.81435 | 291° | 11km/h | 30044m | 6.1m/s | -42.8°C | 2.6% | 12.4hPa | 2.6V | 00:00:00 | 02:08:45 | 00:00:00 | |
| DL1XH-15 | 2026-09-04 12:27:09 | 51.45580 | 8.81442 | 342° | 11km/h | 30009m | 6.8m/s | -42.9°C | 2.6% | 12.5hPa | 2.6V | 08:30:00 | 02:08:39 | 00:00:00 | |
| DK7TD | 2026-09-04 12:27:09 | 51.45589 | 8.81437 | 281° | 5km/h | 30038m | 5.3m/s | 0°C | 0% | 0hPa | 2.6V | 18:12:15 | 02:08:44 | 00:00:00 | |
| DO2JMG | 2026-09-04 12:27:08 | 51.45588 | 8.81439 | 311° | 4km/h | 30033m | 6.2m/s | -42.9°C | 0% | 12.4hPa | 2.7V | 18:12:15 | 02:08:43 | 00:00:00 | |
| DM0DOS-11 | 2026-09-04 12:27:07 | 51.45574 | 8.81446 | 332° | 13km/h | 29997m | 5.4m/s | -43°C | 2.6% | 12.5hPa | 2.7V | 08:30:00 | 02:08:37 | 00:00:00 | |
| HSKMA3-T | 2026-09-04 12:27:06 | 51.45585 | 8.81441 | 356° | 9km/h | 30021m | 5.2m/s | -43°C | 0% | 12.5hPa | 2.7V | 18:12:15 | 02:08:41 | 00:00:00 | |
| BIOWL1-15 | 2026-09-04 12:27:06 | 51.45577 | 8.81444 | 334° | 13km/h | 30003m | 5.9m/s | -42.9°C | 0% | 12.5hPa | 2.6V | 18:12:15 | 02:08:38 | 00:00:00 | |
| AA1-15 | 2026-09-04 12:27:02 | 51.45574 | 8.81446 | 333° | 13km/h | 29997m | 5.4m/s | -43°C | 0% | 12.5hPa | 2.7V | 18:12:15 | 02:08:37 | 00:00:00 | |
| DL1XH-west | 2026-09-04 12:27:01 | 51.45571 | 8.81448 | 338° | 15km/h | 29991m | 6.4m/s | -43°C | 0% | 12.5hPa | 2.7V | 18:12:15 | 02:08:36 | 00:00:00 | |
| DK7TD | 2026-09-04 12:26:59 | 51.45563 | 8.81452 | 351° | 16km/h | 29978m | 5.5m/s | 0°C | 0% | 0hPa | 2.6V | 18:12:15 | 02:08:34 | 00:00:00 | |
| GOEST3-10 | 2026-09-04 12:26:59 | 51.45563 | 8.81452 | 351° | 11km/h | 29979m | 5.5m/s | -43.0°C | 2.6% | 12.5hPa | 2.6V | 00:00:00 | 02:08:34 | 00:00:00 | |
| DJ2DS-15 | 2026-09-04 12:26:58 | 51.45559 | 8.81453 | 348° | 9km/h | 29974m | 4.3m/s | -43.1°C | 2.6% | 12.5hPa | 2.6V | 00:00:00 | 02:08:33 | 00:00:00 | |
| DM0DOS-11 | 2026-09-04 12:26:57 | 51.45555 | 8.81467 | 324° | 4km/h | 29939m | 6.4m/s | -43.1°C | 2.6% | 12.6hPa | 2.7V | 08:30:00 | 02:08:27 | 00:00:00 | |
| DO2JMG | 2026-09-04 12:26:57 | 51.45556 | 8.81455 | 334° | 11km/h | 29969m | 5.8m/s | -43.1°C | 0% | 12.5hPa | 2.7V | 18:12:15 | 02:08:32 | 00:00:00 | |
| DF7PN | 2026-09-04 12:26:57 | 51.45555 | 8.81457 | 303° | 7km/h | 29962m | 7.0m/s | -43.1°C | 0.6% | 12.6hPa | 2.6V | 00:00:00 | 00:00:00 | 00:00:00 | |
| DL1XH-15 | 2026-09-04 12:26:56 | 51.45555 | 8.81463 | 248° | 7km/h | 29951m | 4.7m/s | -43.1°C | 2.6% | 12.6hPa | 2.6V | 08:30:00 | 02:08:29 | 00:00:00 | |
| BIOWL1-15 | 2026-09-04 12:26:56 | 51.45554 | 8.81460 | 268° | 7km/h | 29956m | 5.7m/s | -43.1°C | 0% | 12.6hPa | 2.6V | 18:12:15 | 02:08:30 | 00:00:00 | |
| DL1NUX | 2026-09-04 12:26:55 | 51.45554 | 8.81467 | 8° | 7km/h | 29933m | 5.9m/s | -43.1°C | 2.6% | 12.6hPa | 2.6V | 08:30:00 | 02:08:26 | 00:00:00 | |
| AA1-15 | 2026-09-04 12:26:51 | 51.45554 | 8.81467 | 9° | 9km/h | 29933m | 5.9m/s | -43.1°C | 0% | 12.6hPa | 2.6V | 18:12:15 | 02:08:26 | 00:00:00 | |
| DL1XH-west | 2026-09-04 12:26:50 | 51.45551 | 8.81466 | 8° | 13km/h | 29928m | 4.9m/s | -43.1°C | 0% | 12.6hPa | 2.6V | 18:12:15 | 02:08:25 | 00:00:00 | |
| DL1XH-15 | 2026-09-04 12:26:49 | 51.45533 | 8.81484 | 296° | 13km/h | 29895m | 5.3m/s | -43.2°C | 2.6% | 12.7hPa | 2.6V | 08:30:00 | 02:08:19 | 00:00:00 | |
| DF8AY | 2026-09-04 12:26:49 | 51.45547 | 8.81466 | 359° | 16km/h | 29923m | 4.7m/s | -43.1°C | 0% | 12.6hPa | 2.7V | 18:12:15 | 02:08:24 | 00:00:00 | |
| DO2JMG | 2026-09-04 12:26:47 | 51.45540 | 8.81469 | 327° | 16km/h | 29911m | 6.5m/s | -43.2°C | 0% | 12.6hPa | 2.7V | 18:12:15 | 02:08:22 | 00:00:00 | |
| BIOWL1-15 | 2026-09-04 12:26:45 | 51.45535 | 8.81479 | 297° | 15km/h | 29900m | 4.7m/s | -43.2°C | 0% | 12.7hPa | 2.6V | 18:12:15 | 02:08:20 | 00:00:00 | |
| BIOWL9-15 | 2026-09-04 12:26:45 | 51.45533 | 8.81484 | 296° | 11km/h | 29895m | 5.3m/s | -43.2°C | 0.6% | 12.7hPa | 2.7V | 00:00:00 | 00:00:00 | 00:00:00 | |
| HSKMA3-T | 2026-09-04 12:26:43 | 51.45532 | 8.81487 | 308° | 9km/h | 29889m | 6.4m/s | -43.2°C | 0% | 12.7hPa | 2.7V | 18:12:15 | 02:08:18 | 00:00:00 | |
| DL4BBY-15 | 2026-09-04 12:26:43 | 51.45532 | 8.81487 | 308° | 7km/h | 29889m | 6.3m/s | -43.9°C | 0% | 0hPa | 2.7V | 00:00:00 | 00:00:00 | 00:00:00 | |
| DL1NUX | 2026-09-04 12:26:42 | 51.45529 | 8.81489 | 19° | 5km/h | 29877m | 5m/s | -43.3°C | 2.6% | 12.7hPa | 2.7V | 08:30:00 | 02:08:16 | 00:00:00 | |
| DL1XH-west | 2026-09-04 12:26:40 | 51.45528 | 8.81488 | 26° | 5km/h | 29872m | 4.9m/s | -43.3°C | 0% | 12.7hPa | 2.5V | 18:12:15 | 02:08:15 | 00:00:00 | |
| DO2JMG | 2026-09-04 12:26:37 | 51.45524 | 8.81490 | 304° | 7km/h | 29854m | 5.7m/s | -43.4°C | 0% | 12.8hPa | 2.7V | 18:12:15 | 02:08:12 | 00:00:00 | |
| DL4XJ-10 | 2026-09-04 12:26:37 | 51.45524 | 8.81490 | 304° | 7km/h | 29854m | 5.6m/s | -44.1°C | 0% | 0hPa | 2.5V | 00:00:00 | 00:00:00 | 00:00:00 | |
| DL1XH-15 | 2026-09-04 12:26:36 | 51.45520 | 8.81498 | 335° | 7km/h | 29837m | 6.6m/s | -43.5°C | 2.7% | 12.8hPa | 2.5V | 08:30:00 | 02:08:09 | 00:00:00 | |
| BIOWL1-15 | 2026-09-04 12:26:35 | 51.45518 | 8.81499 | 356° | 7km/h | 29831m | 5.5m/s | -43.4°C | 0% | 12.8hPa | 2.6V | 18:12:15 | 02:08:08 | 00:00:00 | |
| DL1XH1-15 | 2026-09-04 12:26:34 | 51.45514 | 8.81502 | 235° | 4km/h | 29808m | 5.7m/s | -43.5°C | 2.7% | 12.8hPa | 2.7V | 08:30:00 | 02:08:04 | 00:00:00 | |
| HSKMA3-T | 2026-09-04 12:26:31 | 51.45515 | 8.81500 | 340° | 4km/h | 29820m | 6.4m/s | -43.6°C | 0% | 12.8hPa | 2.7V | 18:12:15 | 02:08:06 | 00:00:00 | |
| AA1-15 | 2026-09-04 12:26:30 | 51.45514 | 8.81501 | 284° | 4km/h | 29814m | 6.3m/s | -43.6°C | 0% | 12.9hPa | 2.7V | 18:12:15 | 02:08:05 | 00:00:00 | |
| DL1XH-west | 2026-09-04 12:26:29 | 51.45514 | 8.81502 | 236° | 4km/h | 29808m | 5.7m/s | -43.5°C | 0% | 12.8hPa | 2.7V | 18:12:15 | 02:08:04 | 00:00:00 | |
| DO2JMG | 2026-09-04 12:26:26 | 51.45517 | 8.81503 | 124° | 4km/h | 29789m | 5.4m/s | -43.6°C | 0% | 12.9hPa | 2.6V | 18:12:15 | 02:08:01 | 00:00:00 | |
| BIOWL1-15 | 2026-09-04 12:26:24 | 51.45516 | 8.81503 | 303° | 5km/h | 29773m | 6.8m/s | -43.6°C | 0% | 12.9hPa | 2.7V | 18:12:15 | 02:07:58 | 00:00:00 | |
| DL1XH1-15 | 2026-09-04 12:26:24 | 51.45507 | 8.81516 | 343° | 15km/h | 29749m | 6.4m/s | -43.7°C | 2.7% | 13hPa | 2.7V | 08:30:00 | 02:07:54 | 00:00:00 | |
| DD8BA-10 | 2026-09-04 12:26:24 | 51.45517 | 8.81501 | 335° | 9km/h | 29780m | 5.3m/s | -43.6°C | 2.7% | 12.8hPa | 2.5V | 00:00:00 | 00:00:00 | 00:00:00 | |
| DM0DOS-11 | 2026-09-04 12:26:23 | 51.45515 | 8.81505 | 304° | 11km/h | 29767m | 6m/s | -43.6°C | 2.7% | 12.9hPa | 2.5V | 08:30:00 | 02:07:57 | 00:00:00 | |
| HSKMA3-T | 2026-09-04 12:26:20 | 51.45511 | 8.81513 | 325° | 15km/h | 29755m | 6m/s | -43.7°C | 0% | 12.9hPa | 2.6V | 18:12:15 | 02:07:55 | 00:00:00 | |
| DL1XH-west | 2026-09-04 12:26:19 | 51.45508 | 8.81516 | 343° | 15km/h | 29749m | 6.4m/s | -43.7°C | 0% | 13hPa | 2.7V | 18:12:15 | 02:07:54 | 00:00:00 | |
| DO2JMG | 2026-09-04 12:26:16 | 51.45500 | 8.81514 | 27° | 5km/h | 29733m | 6.4m/s | -43.8°C | 0% | 13hPa | 2.5V | 18:12:15 | 02:07:51 | 00:00:00 | |
| DF8AY | 2026-09-04 12:26:15 | 51.45499 | 8.81513 | 82° | 2km/h | 29726m | 6.3m/s | -43.8°C | 0% | 13hPa | 2.6V | 18:12:15 | 02:07:50 | 00:00:00 | |
| DD8BA-10 | 2026-09-04 12:26:14 | 51.45499 | 8.81512 | 150° | 9km/h | 29721m | 5.5m/s | -43.8°C | 2.7% | 13.0hPa | 2.7V | 00:00:00 | 00:00:00 | 00:00:00 | |
| BIOWL1-15 | 2026-09-04 12:26:14 | 51.45499 | 8.81513 | 149° | 4km/h | 29720m | 5.6m/s | -43.9°C | 0% | 13hPa | 2.6V | 18:12:15 | 02:07:49 | 00:00:00 | |
| DL4BBY-15 | 2026-09-04 12:26:13 | 51.45500 | 8.81511 | 150° | 13km/h | 29716m | 5.0m/s | -44.5°C | 0% | 0hPa | 2.7V | 00:00:00 | 00:00:00 | 00:00:00 | |
| DL1NUX | 2026-09-04 12:26:12 | 51.45503 | 8.81507 | 109° | 9km/h | 29703m | 6.2m/s | -43.9°C | 2.7% | 13.1hPa | 2.7V | 08:30:00 | 02:07:46 | 00:00:00 | |
| HSKMA3-T | 2026-09-04 12:26:10 | 51.45503 | 8.81503 | 85° | 9km/h | 29697m | 5.1m/s | -43.9°C | 0% | 13.1hPa | 2.6V | 18:12:15 | 02:07:45 | 00:00:00 | |
| DB0DAN | 2026-09-04 12:26:10 | 51.45503 | 8.81503 | 85° | 9km/h | 29697m | 5.1m/s | -43.9°C | 0.7% | 13.06hPa | 2.6V | 00:00:00 | 00:00:00 | 00:00:00 | |
| DL1XH-west | 2026-09-04 12:26:09 | 51.45503 | 8.81499 | 63° | 7km/h | 29692m | 4.9m/s | -43.9°C | 0% | 13.1hPa | 2.6V | 18:12:15 | 02:07:44 | 00:00:00 | |
| AA1-15 | 2026-09-04 12:26:08 | 51.45501 | 8.81497 | 29° | 7km/h | 29686m | 6.8m/s | -43.9°C | 0% | 13.1hPa | 2.7V | 18:12:15 | 02:07:43 | 00:00:00 | |
| BIOWL1-15 | 2026-09-04 12:26:07 | 51.45484 | 8.81494 | 40° | 13km/h | 29652m | 5m/s | -43.9°C | 0% | 13.2hPa | 2.6V | 18:12:15 | 02:07:37 | 00:00:00 | |
| DO2JMG | 2026-09-04 12:26:05 | 51.45494 | 8.81499 | 353° | 13km/h | 29669m | 5.1m/s | -43.9°C | 0% | 13.1hPa | 2.6V | 18:12:15 | 02:07:40 | 00:00:00 | |
| DF8AY | 2026-09-04 12:26:04 | 51.45491 | 8.81499 | 7° | 15km/h | 29663m | 6.6m/s | -43.9°C | 0% | 13.1hPa | 2.7V | 18:12:15 | 02:07:39 | 00:00:00 | |
| DL1XH1-15 | 2026-09-04 12:26:04 | 51.45481 | 8.81485 | 66° | 4km/h | 29634m | 5.8m/s | -43.9°C | 2.7% | 13.2hPa | 2.7V | 08:30:00 | 02:07:34 | 00:00:00 | |
| DD8BA-10 | 2026-09-04 12:26:04 | 51.45491 | 8.81499 | 8° | 11km/h | 29663m | 6.5m/s | -43.9°C | 2.7% | 13.1hPa | 2.7V | 00:00:00 | 00:00:00 | 08:30:00 | |
| DO3DL | 2026-09-04 12:26:03 | 51.45490 | 8.81499 | 8° | 13km/h | 29663m | 6.6m/s | -43.9°C | 0.7% | 13.1hPa | 2.6V | 00:00:00 | 00:00:00 | 00:00:00 | |
| DL1NUX | 2026-09-04 12:26:02 | 51.45483 | 8.81491 | 54° | 11km/h | 29646m | 5.5m/s | -43.9°C | 2.7% | 13.2hPa | 2.6V | 08:30:00 | 02:07:36 | 00:00:00 | |
| HSKMA3-T | 2026-09-04 12:25:59 | 51.45481 | 8.81485 | 67° | 4km/h | 29634m | 5.8m/s | -43.9°C | 0% | 13.2hPa | 2.7V | 18:12:15 | 02:07:34 | 00:00:00 | |
| DL1XH-west | 2026-09-04 12:25:58 | 51.45480 | 8.81484 | 54° | 4km/h | 29629m | 4.7m/s | -43.9°C | 0% | 13.2hPa | 2.6V | 18:12:15 | 02:07:33 | 00:00:00 | |
| AA1-15 | 2026-09-04 12:25:57 | 51.45479 | 8.81483 | 39° | 5km/h | 29624m | 4.3m/s | -44°C | 0% | 13.2hPa | 2.6V | 18:12:15 | 02:07:32 | 00:00:00 | |
| DF8AY | 2026-09-04 12:25:54 | 51.45467 | 8.81467 | 35° | 24km/h | 29600m | 5.3m/s | -43.9°C | 0% | 13.3hPa | 2.5V | 18:12:15 | 02:07:28 | 00:00:00 | |
| DO2JMG | 2026-09-04 12:25:54 | 51.45471 | 8.81472 | 39° | 22km/h | 29606m | 5.7m/s | -43.9°C | 0% | 13.2hPa | 2.7V | 18:12:15 | 02:07:29 | 00:00:00 | |
| DO1YAY-16 | 2026-09-04 12:25:54 | 51.45467 | 8.81467 | 34° | 24km/h | 29601m | 5.3m/s | -43.9°C | 0.7% | 13.3hPa | 2.6V | 00:00:00 | 00:00:00 | 00:00:00 | |
| DL1NUX | 2026-09-04 12:25:52 | 51.45457 | 8.81458 | 21° | 20km/h | 29588m | 6m/s | -43.9°C | 2.7% | 13.3hPa | 2.6V | 08:30:00 | 02:07:26 | 00:00:00 | |
| BIOWL1-15 | 2026-09-04 12:25:51 | 51.45452 | 8.81456 | 15° | 18km/h | 29583m | 5.6m/s | -43.8°C | 0% | 13.3hPa | 2.7V | 18:12:15 | 02:07:25 | 00:00:00 | |
| HSKMA3-T | 2026-09-04 12:25:48 | 51.45443 | 8.81452 | 18° | 18km/h | 29571m | 6.6m/s | -43.9°C | 0% | 13.3hPa | 2.7V | 18:12:15 | 02:07:23 | 00:00:00 | |
| AA1-15 | 2026-09-04 12:25:47 | 51.45439 | 8.81449 | 24° | 18km/h | 29565m | 6.2m/s | -43.8°C | 0% | 13.3hPa | 2.5V | 18:12:15 | 02:07:22 | 00:00:00 | |
| DO2JMG | 2026-09-04 12:25:44 | 51.45427 | 8.81441 | 18° | 16km/h | 29548m | 6.9m/s | -43.8°C | 0% | 13.4hPa | 2.7V | 18:12:15 | 02:07:19 | 00:00:00 | |
| DF8AY | 2026-09-04 12:25:42 | 51.45419 | 8.81437 | 14° | 16km/h | 29536m | 5.3m/s | -43.7°C | 0% | 13.4hPa | 2.7V | 18:12:15 | 02:07:17 | 00:00:00 | |
| DL1NUX | 2026-09-04 12:25:42 | 51.45415 | 8.81435 | 16° | 20km/h | 29530m | 6.8m/s | -43.6°C | 2.6% | 13.4hPa | 2.5V | 08:30:00 | 02:07:16 | 00:00:00 | |
| BIOWL1-15 | 2026-09-04 12:25:41 | 51.45410 | 8.81433 | 20° | 22km/h | 29524m | 5.9m/s | -43.7°C | 0% | 13.4hPa | 2.5V | 18:12:15 | 02:07:15 | 00:00:00 | |
| HSKMA3-T | 2026-09-04 12:25:38 | 51.45399 | 8.81426 | 20° | 22km/h | 29513m | 5.9m/s | -43.9°C | 0% | 13.4hPa | 2.7V | 18:12:15 | 02:07:13 | 00:00:00 | |
| AA1-15 | 2026-09-04 12:25:37 | 51.45394 | 8.81423 | 18° | 18km/h | 29506m | 6.7m/s | -44°C | 0% | 13.4hPa | 2.7V | 18:12:15 | 02:07:12 | 00:00:00 | |
| DL4XJ-10 | 2026-09-04 12:25:37 | 51.45394 | 8.81423 | 18° | 22km/h | 29506m | 6.7m/s | -44.6°C | 0% | 0hPa | 2.7V | 00:00:00 | 00:00:00 | 00:00:00 | |
| DL1NUX | 2026-09-04 12:25:36 | 51.45370 | 8.81411 | 10° | 18km/h | 29471m | 5.6m/s | -44.1°C | 2.7% | 13.5hPa | 2.7V | 08:30:00 | 02:07:06 | 00:00:00 | |
| EDDB2-12 | 2026-09-04 12:25:35 | 51.45382 | 8.81418 | 21° | 15km/h | 29488m | 6.6m/s | -44.0°C | 0.6% | 13.5hPa | 2.5V | 00:00:00 | 00:00:00 | 00:00:00 | |
| DL1XH1-15 | 2026-09-04 12:25:34 | 51.45361 | 8.81410 | 353° | 16km/h | 29459m | 5.6m/s | -44.1°C | 2.7% | 13.6hPa | 2.5V | 08:30:00 | 02:07:04 | 00:00:00 | |
| DO2JMG | 2026-09-04 12:25:33 | 51.45378 | 8.81415 | 23° | 18km/h | 29482m | 5.9m/s | -44°C | 0% | 13.5hPa | 2.6V | 18:12:15 | 02:07:08 | 00:00:00 | |
| DF8AY | 2026-09-04 12:25:31 | 51.45370 | 8.81411 | 11° | 18km/h | 29471m | 5.6m/s | -44.1°C | 0% | 13.5hPa | 2.7V | 18:12:15 | 02:07:06 | 00:00:00 | |
| BIOWL1-15 | 2026-09-04 12:25:30 | 51.45365 | 8.81410 | 1° | 16km/h | 29465m | 6.8m/s | -44.1°C | 0% | 13.5hPa | 2.7V | 18:12:15 | 02:07:05 | 00:00:00 | |
| HSKMA3-T | 2026-09-04 12:25:28 | 51.45357 | 8.81411 | 354° | 18km/h | 29453m | 5.2m/s | -44.1°C | 0% | 13.6hPa | 2.6V | 18:12:15 | 02:07:03 | 00:00:00 | |
| AA1-15 | 2026-09-04 12:25:26 | 51.45347 | 8.81410 | 9° | 24km/h | 29441m | 7m/s | -44.2°C | 0% | 13.6hPa | 2.7V | 18:12:15 | 02:07:01 | 00:00:00 | |
| DL8OAI-8 | 2026-09-04 12:25:25 | 51.45346 | 8.81410 | 10° | 24km/h | 29442m | 7.0m/s | -44.2°C | 0.7% | 13.6hPa | 2.7V | 00:00:00 | 00:00:00 | 00:00:00 | |
| DL1XH1-15 | 2026-09-04 12:25:24 | 51.45303 | 8.81388 | 21° | 22km/h | 29400m | 6.3m/s | -44.4°C | 2.8% | 13.7hPa | 2.7V | 08:30:00 | 02:06:54 | 00:00:00 | |
| DO2JMG | 2026-09-04 12:25:23 | 51.45326 | 8.81400 | 19° | 29km/h | 29424m | 5.7m/s | -44.3°C | 0% | 13.6hPa | 2.5V | 18:12:15 | 02:06:58 | 00:00:00 | |
| BIOWL1-15 | 2026-09-04 12:25:22 | 51.45308 | 8.81391 | 19° | 22km/h | 29406m | 5.4m/s | -44.4°C | 0% | 13.7hPa | 2.7V | 18:12:15 | 02:06:55 | 00:00:00 | |
| DF8AY | 2026-09-04 12:25:21 | 51.45313 | 8.81394 | 18° | 24km/h | 29412m | 5.9m/s | -44.4°C | 0% | 13.6hPa | 2.6V | 18:12:15 | 02:06:56 | 00:00:00 | |
| HSKMA3-T | 2026-09-04 12:25:18 | 51.45297 | 8.81385 | 20° | 24km/h | 29394m | 6m/s | -44.3°C | 0% | 13.7hPa | 2.7V | 18:12:15 | 02:06:53 | 00:00:00 | |
| AA1-15 | 2026-09-04 12:25:16 | 51.45285 | 8.81380 | 6° | 26km/h | 29384m | 5m/s | -44.3°C | 0% | 13.7hPa | 2.6V | 18:12:15 | 02:06:51 | 00:00:00 | |
| DL1XH-15 | 2026-09-04 12:25:15 | 51.45271 | 8.81381 | 346° | 27km/h | 29371m | 6.6m/s | -44.4°C | 2.7% | 13.7hPa | 2.7V | 08:30:00 | 02:06:49 | 00:00:00 | |
| GOEST3-10 | 2026-09-04 12:25:14 | 51.45271 | 8.81381 | 347° | 33km/h | 29371m | 6.6m/s | -44.3°C | 2.7% | 13.7hPa | 2.6V | 00:00:00 | 00:00:00 | 00:00:00 | |
| DL4BBY-15 | 2026-09-04 12:25:13 | 51.45264 | 8.81384 | 343° | 26km/h | 29365m | 5.7m/s | -45.0°C | 0% | 0hPa | 2.6V | 00:00:00 | 00:00:00 | 00:00:00 | |
| DL1NUX | 2026-09-04 12:25:12 | 51.45248 | 8.81390 | 354° | 35km/h | 29353m | 6.6m/s | -44.2°C | 2.7% | 13.8hPa | 2.6V | 08:30:00 | 02:06:46 | 00:00:00 | |
| DO2JMG | 2026-09-04 12:25:12 | 51.45257 | 8.81387 | 347° | 33km/h | 29359m | 5.4m/s | -44.3°C | 0% | 13.8hPa | 2.7V | 18:12:15 | 02:06:47 | 00:00:00 | |
| DF8AY | 2026-09-04 12:25:10 | 51.45240 | 8.81390 | 3° | 37km/h | 29347m | 5.6m/s | -44.2°C | 0% | 13.8hPa | 2.6V | 18:12:15 | 02:06:45 | 00:00:00 | |
| DL1XH1-15 | 2026-09-04 12:25:10 | 51.45231 | 8.81388 | 8° | 35km/h | 29342m | 5m/s | -44.1°C | 2.7% | 13.8hPa | 2.7V | 08:30:00 | 02:06:44 | 00:00:00 | |
| HSKMA3-T | 2026-09-04 12:25:08 | 51.45222 | 8.81386 | 9° | 33km/h | 29336m | 5.9m/s | -44.1°C | 0% | 13.8hPa | 2.7V | 18:12:15 | 02:06:43 | 00:00:00 | |
| AA1-15 | 2026-09-04 12:25:05 | 51.45202 | 8.81384 | 356° | 22km/h | 29317m | 5.8m/s | -43.9°C | 0% | 13.8hPa | 2.7V | 18:12:15 | 02:06:40 | 00:00:00 | |
| EDDB2-12 | 2026-09-04 12:25:04 | 51.45191 | 8.81386 | 355° | 22km/h | 29306m | 6.5m/s | -43.9°C | 0.7% | 13.9hPa | 2.7V | 00:00:00 | 00:00:00 | 00:00:00 | |
| DD1CC8 | 2026-09-04 12:25:03 | 51.45191 | 8.81386 | 355° | 22km/h | 29306m | 6.5m/s | -43.9°C | 0.7% | 13.9hPa | 2.7V | 00:00:00 | 00:00:00 | 00:00:00 | |
| DM0DOS-11 | 2026-09-04 12:25:02 | 51.45179 | 8.81389 | 345° | 27km/h | 29295m | 4.8m/s | -44°C | 2.6% | 13.9hPa | 2.7V | 08:30:00 | 02:06:36 | 00:00:00 | |
| DO2JMG | 2026-09-04 12:25:02 | 51.45186 | 8.81387 | 353° | 26km/h | 29300m | 5.1m/s | -43.9°C | 0% | 13.9hPa | 2.6V | 18:12:15 | 02:06:37 | 00:00:00 | |
| BIOWL1-15 | 2026-09-04 12:24:59 | 51.45165 | 8.81397 | 331° | 33km/h | 29282m | 7m/s | -44.2°C | 0% | 13.9hPa | 2.6V | 18:12:15 | 02:06:34 | 00:00:00 | |
| HSKMA3-T | 2026-09-04 12:24:57 | 51.45150 | 8.81412 | 332° | 37km/h | 29270m | 5.6m/s | -44.2°C | 0% | 13.9hPa | 2.7V | 18:12:15 | 02:06:32 | 00:00:00 | |
| DL1XH-west | 2026-09-04 12:24:55 | 51.45105 | 8.81424 | 348° | 9km/h | 29223m | 5.2m/s | -44.2°C | 0% | 14hPa | 2.6V | 18:12:15 | 02:06:24 | 00:00:00 | |
| AA1-15 | 2026-09-04 12:24:54 | 51.45126 | 8.81423 | 357° | 29km/h | 29253m | 4.8m/s | -44.2°C | 0% | 14hPa | 2.6V | 18:12:15 | 02:06:29 | 00:00:00 | |
| DF7PN | 2026-09-04 12:24:53 | 51.45114 | 8.81423 | 0° | 18km/h | 29242m | 6.9m/s | -44.2°C | 0.7% | 14.0hPa | 2.7V | 00:00:00 | 00:00:00 | 00:00:00 | |
| DD8BA-10 | 2026-09-04 12:24:52 | 51.45114 | 8.81423 | 1° | 20km/h | 29242m | 6.9m/s | -44.2°C | 2.7% | 14.0hPa | 2.7V | 00:00:00 | 00:00:00 | 00:00:00 | |
| DM0DOS-11 | 2026-09-04 12:24:51 | 51.45098 | 8.81426 | 343° | 18km/h | 29212m | 5.3m/s | -44.4°C | 2.7% | 14.1hPa | 2.7V | 08:30:00 | 02:06:22 | 00:00:00 | |
| DO2JMG | 2026-09-04 12:24:51 | 51.45110 | 8.81423 | 358° | 13km/h | 29235m | 6.3m/s | -44.2°C | 0% | 14hPa | 2.7V | 18:12:15 | 02:06:26 | 00:00:00 | |
| SO1NDE-10 | 2026-09-04 12:24:51 | 51.45110 | 8.81423 | 359° | 18km/h | 29235m | 6.3m/s | -44.1°C | 2.7% | 14.0hPa | 2.6V | 00:00:00 | 02:06:26 | 00:00:00 | |
| DL1XH-15 | 2026-09-04 12:24:49 | 51.45082 | 8.81442 | 318° | 31km/h | 29195m | 7.3m/s | -44.7°C | 2.8% | 14.1hPa | 2.6V | 08:30:00 | 02:06:19 | 00:00:00 | |
| BIOWL1-15 | 2026-09-04 12:24:48 | 51.45102 | 8.81425 | 349° | 13km/h | 29218m | 6.3m/s | -44.3°C | 0% | 14.1hPa | 2.6V | 18:12:15 | 02:06:23 | 00:00:00 | |
| HSKMA3-T | 2026-09-04 12:24:46 | 51.45093 | 8.81430 | 334° | 24km/h | 29207m | 4.6m/s | -44.5°C | 0% | 14.1hPa | 2.7V | 18:12:15 | 02:06:21 | 00:00:00 | |
| DL1XH-west | 2026-09-04 12:24:44 | 51.45082 | 8.81442 | 319° | 33km/h | 29196m | 7.3m/s | -44.7°C | 0% | 14.1hPa | 2.6V | 18:12:15 | 02:06:19 | 00:00:00 | |
| AA1-15 | 2026-09-04 12:24:43 | 51.45076 | 8.81452 | 311° | 35km/h | 29189m | 6.4m/s | -44.6°C | 0% | 14.1hPa | 2.6V | 18:12:15 | 02:06:18 | 00:00:00 | |
| DL4BBY-15 | 2026-09-04 12:24:43 | 51.45076 | 8.81451 | 312° | 18km/h | 29189m | 6.3m/s | -45.3°C | 0% | 0hPa | 2.7V | 00:00:00 | 00:00:00 | 00:00:00 | |
| DC6BW-12 | 2026-09-04 12:24:42 | 51.45075 | 8.81451 | 312° | 35km/h | 29189m | 6.4m/s | -44.6°C | 0.7% | 14.1hPa | 2.7V | 00:00:00 | 00:00:00 | 00:00:00 | |
| DL1NUX | 2026-09-04 12:24:41 | 51.45065 | 8.81472 | 311° | 31km/h | 29178m | 5.2m/s | -44.4°C | 2.7% | 14.1hPa | 2.7V | 08:30:00 | 02:06:16 | 00:00:00 | |
| DO2JMG | 2026-09-04 12:24:41 | 51.45065 | 8.81472 | 311° | 31km/h | 29178m | 5.2m/s | -44.4°C | 0% | 14.1hPa | 2.7V | 18:12:15 | 02:06:16 | 00:00:00 | |
| DF8AY | 2026-09-04 12:24:38 | 51.45053 | 8.81490 | 324° | 13km/h | 29161m | 5m/s | -44.4°C | 0% | 14.2hPa | 2.6V | 18:12:15 | 02:06:13 | 00:00:00 | |
| DM0DOS-11 | 2026-09-04 12:24:38 | 51.45050 | 8.81495 | 268° | 5km/h | 29149m | 6.6m/s | -44.5°C | 2.7% | 14.2hPa | 2.6V | 08:30:00 | 02:06:11 | 00:00:00 | |
| BIOWL1-15 | 2026-09-04 12:24:37 | 51.45051 | 8.81492 | 312° | 7km/h | 29156m | 6.4m/s | -44.5°C | 0% | 14.2hPa | 2.6V | 18:12:15 | 02:06:12 | 00:00:00 | |
| DL1XH-15 | 2026-09-04 12:24:37 | 51.45052 | 8.81501 | 247° | 9km/h | 29137m | 4.9m/s | -44.7°C | 2.7% | 14.2hPa | 2.7V | 08:30:00 | 02:06:09 | 00:00:00 | |
| HSKMA3-T | 2026-09-04 12:24:35 | 51.45051 | 8.81498 | 243° | 9km/h | 29143m | 6m/s | -44.6°C | 0% | 14.2hPa | 2.7V | 18:12:15 | 02:06:10 | 00:00:00 | |
| DL1XH-west | 2026-09-04 12:24:34 | 51.45052 | 8.81501 | 247° | 9km/h | 29138m | 4.9m/s | -44.7°C | 0% | 14.2hPa | 2.7V | 18:12:15 | 02:06:09 | 00:00:00 | |
| AA1-15 | 2026-09-04 12:24:33 | 51.45053 | 8.81504 | 262° | 9km/h | 29132m | 6.3m/s | -44.8°C | 0% | 14.2hPa | 2.7V | 18:12:15 | 02:06:08 | 00:00:00 | |
| DO2JMG | 2026-09-04 12:24:30 | 51.45049 | 8.81518 | 295° | 20km/h | 29115m | 5.7m/s | -44.9°C | 0% | 14.3hPa | 2.6V | 18:12:15 | 02:06:05 | 00:00:00 | |
| AU51GT2 | 2026-09-04 12:24:29 | 51.45046 | 8.81536 | 281° | 26km/h | 29102m | 6.4m/s | -45.1°C | 0.7% | 14.3hPa | 2.5V | 00:00:00 | 00:00:00 | 00:00:00 | |
| DM0DOS-11 | 2026-09-04 12:24:28 | 51.45044 | 8.81558 | 273° | 26km/h | 29090m | 5.6m/s | -45.2°C | 2.9% | 14.3hPa | 2.5V | 08:30:00 | 02:06:01 | 00:00:00 | |
| DL1XH-15 | 2026-09-04 12:24:26 | 51.45044 | 8.81574 | 261° | 16km/h | 29079m | 5.2m/s | -45.1°C | 2.9% | 14.3hPa | 2.6V | 08:30:00 | 02:05:59 | 00:00:00 | |
| BIOWL1-15 | 2026-09-04 12:24:26 | 51.45044 | 8.81558 | 274° | 26km/h | 29090m | 5.6m/s | -45.2°C | 0% | 14.3hPa | 2.5V | 18:12:15 | 02:06:01 | 00:00:00 | |
| DL1XH-west | 2026-09-04 12:24:23 | 51.45045 | 8.81580 | 247° | 15km/h | 29074m | 4.8m/s | -45.1°C | 0% | 14.4hPa | 2.7V | 18:12:15 | 02:05:58 | 00:00:00 | |
| AA1-15 | 2026-09-04 12:24:22 | 51.45047 | 8.81585 | 236° | 16km/h | 29068m | 6.7m/s | -45.2°C | 0% | 14.4hPa | 2.7V | 18:12:15 | 02:05:57 | 00:00:00 | |
| DL1NUX | 2026-09-04 12:24:21 | 51.45050 | 8.81591 | 226° | 18km/h | 29061m | 6.4m/s | -45.2°C | 2.9% | 14.4hPa | 2.7V | 08:30:00 | 02:05:56 | 00:00:00 | |
| DO2JMG | 2026-09-04 12:24:19 | 51.45057 | 8.81600 | 214° | 18km/h | 29050m | 5.5m/s | -45.2°C | 0% | 14.4hPa | 2.6V | 18:12:15 | 02:05:54 | 00:00:00 | |
| BIOWL1-15 | 2026-09-04 12:24:18 | 51.45065 | 8.81610 | 233° | 11km/h | 29033m | 4.5m/s | -45.2°C | 0% | 14.5hPa | 2.7V | 18:12:15 | 02:05:51 | 00:00:00 | |
| DF8AY | 2026-09-04 12:24:16 | 51.45066 | 8.81614 | 244° | 13km/h | 29028m | 6m/s | -45.2°C | 0% | 14.5hPa | 2.7V | 18:12:15 | 02:05:50 | 00:00:00 | |
| DL1XH-west | 2026-09-04 12:24:13 | 51.45069 | 8.81627 | 252° | 20km/h | 29016m | 5.9m/s | -45.2°C | 0% | 14.5hPa | 2.6V | 18:12:15 | 02:05:48 | 00:00:00 | |
| AA1-15 | 2026-09-04 12:24:11 | 51.45072 | 8.81642 | 248° | 18km/h | 29005m | 5.3m/s | -45.2°C | 0% | 14.5hPa | 2.7V | 18:12:15 | 02:05:46 | 00:00:00 | |
| HSKMA3-T | 2026-09-04 12:24:09 | 51.45075 | 8.81651 | 231° | 9km/h | 28993m | 5.7m/s | -45.1°C | 0% | 14.5hPa | 2.7V | 18:12:15 | 02:05:44 | 00:00:00 | |
| HARRO8 | 2026-09-04 12:24:08 | 51.45077 | 8.81654 | 220° | 7km/h | 28987m | 5.2m/s | -45.0°C | 0.7% | 14.6hPa | 2.6V | 00:00:00 | 00:00:00 | 00:00:00 | |
| SP3BTT-10 | 2026-09-04 12:24:07 | 51.45079 | 8.81656 | 221° | 13km/h | 28982m | 6.2m/s | -44.9°C | 2.8% | 14.5hPa | 2.6V | 00:00:00 | 00:00:00 | 00:00:00 | |
| DL1NUX | 2026-09-04 12:24:06 | 51.45091 | 8.81674 | 211° | 7km/h | 28945m | 5.2m/s | -44.4°C | 2.7% | 14.6hPa | 2.6V | 08:30:00 | 02:05:36 | 00:00:00 | |
| BIOWL1-15 | 2026-09-04 12:24:05 | 51.45090 | 8.81673 | 210° | 9km/h | 28950m | 6.1m/s | -44.5°C | 0% | 14.6hPa | 2.5V | 18:12:15 | 02:05:37 | 00:00:00 | |
| GOEST3-10 | 2026-09-04 12:24:05 | 51.45085 | 8.81667 | 225° | 9km/h | 28963m | 5.5m/s | -44.6°C | 2.7% | 14.6hPa | 2.7V | 00:00:00 | 00:00:00 | 00:00:00 | |
| DL1XH1-15 | 2026-09-04 12:24:04 | 51.45094 | 8.81679 | 238° | 11km/h | 28933m | 6.8m/s | -44.5°C | 2.7% | 14.7hPa | 2.7V | 08:30:00 | 02:05:34 | 00:00:00 | |
| DL1XH-west | 2026-09-04 12:24:03 | 51.45088 | 8.81670 | 221° | 11km/h | 28957m | 6.7m/s | -44.6°C | 0% | 14.6hPa | 2.7V | 18:12:15 | 02:05:38 | 00:00:00 | |
| AA1-15 | 2026-09-04 12:24:00 | 51.45093 | 8.81676 | 224° | 7km/h | 28940m | 5.3m/s | -44.5°C | 0% | 14.7hPa | 2.6V | 18:12:15 | 02:05:35 | 00:00:00 | |
| BIOWL1-15 | 2026-09-04 12:23:59 | 51.45099 | 8.81697 | 235° | 9km/h | 28910m | 6.8m/s | -44.6°C | 0% | 14.7hPa | 2.6V | 18:12:15 | 02:05:30 | 00:00:00 | |
| DO2JMG | 2026-09-04 12:23:58 | 51.45095 | 8.81683 | 247° | 13km/h | 28927m | 6.1m/s | -44.5°C | 0% | 14.7hPa | 2.7V | 18:12:15 | 02:05:33 | 00:00:00 | |
| DJ2DS-15 | 2026-09-04 12:23:58 | 51.45095 | 8.81683 | 247° | 9km/h | 28927m | 6.0m/s | -44.4°C | 2.7% | 14.6hPa | 2.7V | 00:00:00 | 02:05:33 | 00:00:00 | |
| DM0DOS-11 | 2026-09-04 12:23:57 | 51.45098 | 8.81693 | 246° | 13km/h | 28916m | 5.4m/s | -44.6°C | 2.7% | 14.7hPa | 2.6V | 08:30:00 | 02:05:31 | 00:00:00 | |
| DL4XJ-10 | 2026-09-04 12:23:57 | 51.45096 | 8.81688 | 250° | 7km/h | 28921m | 4.9m/s | -45.2°C | 0% | 0hPa | 2.6V | 00:00:00 | 00:00:00 | 00:00:00 | |
| DL1XH-15 | 2026-09-04 12:23:56 | 51.45101 | 8.81699 | 207° | 7km/h | 28904m | 5.7m/s | -44.6°C | 2.7% | 14.7hPa | 2.6V | 08:30:00 | 02:05:29 | 00:00:00 | |
| DL1XH-west | 2026-09-04 12:23:53 | 51.45102 | 8.81700 | 192° | 7km/h | 28898m | 5m/s | -44.7°C | 0% | 14.8hPa | 2.7V | 18:12:15 | 02:05:28 | 00:00:00 | |
| DL1NUX | 2026-09-04 12:23:52 | 51.45107 | 8.81702 | 199° | 11km/h | 28886m | 6.2m/s | -44.8°C | 2.7% | 14.8hPa | 2.7V | 08:30:00 | 02:05:26 | 00:00:00 | |
| DD8BA-10 | 2026-09-04 12:23:52 | 51.45105 | 8.81701 | 193° | 9km/h | 28893m | 6.5m/s | -44.7°C | 2.7% | 14.7hPa | 2.7V | 00:00:00 | 00:00:00 | 00:00:00 | |
| DM0DOS-11 | 2026-09-04 12:23:51 | 51.45119 | 8.81704 | 173° | 5km/h | 28858m | 5.2m/s | -45°C | 2.7% | 14.8hPa | 2.7V | 08:30:00 | 02:05:21 | 00:00:00 | |
| AA1-15 | 2026-09-04 12:23:50 | 51.45110 | 8.81704 | 198° | 13km/h | 28880m | 5.3m/s | -44.8°C | 0% | 14.8hPa | 2.6V | 18:12:15 | 02:05:25 | 00:00:00 | |
| DL1XH1-15 | 2026-09-04 12:23:49 | 51.45113 | 8.81705 | 188° | 11km/h | 28875m | 5.3m/s | -44.8°C | 2.7% | 14.8hPa | 2.6V | 08:30:00 | 02:05:24 | 00:00:00 | |
| HSKMA3-T | 2026-09-04 12:23:49 | 51.45113 | 8.81705 | 189° | 11km/h | 28875m | 5.3m/s | -44.8°C | 0% | 14.8hPa | 2.6V | 18:12:15 | 02:05:24 | 00:00:00 | |
| DO2JMG | 2026-09-04 12:23:48 | 51.45116 | 8.81705 | 176° | 11km/h | 28869m | 6.7m/s | -44.8°C | 0% | 14.8hPa | 2.6V | 18:12:15 | 02:05:23 | 00:00:00 | |
| DJ2KF-10 | 2026-09-04 12:23:47 | 51.45118 | 8.81704 | 164° | 9km/h | 28863m | 5.4m/s | -44.8°C | 2.7% | 14.8hPa | 2.7V | 00:00:00 | 02:05:22 | 00:00:00 | |
| DL1XH-15 | 2026-09-04 12:23:46 | 51.45121 | 8.81706 | 260° | 7km/h | 28845m | 6.4m/s | -45°C | 2.7% | 14.9hPa | 2.5V | 08:30:00 | 02:05:19 | 00:00:00 | |
| DL1NUX | 2026-09-04 12:23:46 | 51.45120 | 8.81715 | 295° | 5km/h | 28828m | 6.2m/s | -45.1°C | 2.7% | 14.9hPa | 2.7V | 08:30:00 | 02:05:16 | 00:00:00 | |
| BIOWL1-15 | 2026-09-04 12:23:45 | 51.45120 | 8.81715 | 296° | 5km/h | 28828m | 6.2m/s | -45.1°C | 0% | 14.9hPa | 2.7V | 18:12:15 | 02:05:16 | 00:00:00 | |
| DL1XH1-15 | 2026-09-04 12:23:44 | 51.45120 | 8.81714 | 137° | 5km/h | 28811m | 5.1m/s | -45.1°C | 2.8% | 15hPa | 2.5V | 08:30:00 | 02:05:13 | 00:00:00 | |
| DL1XH-west | 2026-09-04 12:23:42 | 51.45121 | 8.81713 | 285° | 7km/h | 28833m | 5.1m/s | -45°C | 0% | 14.9hPa | 2.6V | 18:12:15 | 02:05:17 | 00:00:00 | |
| AA1-15 | 2026-09-04 12:23:39 | 51.45120 | 8.81715 | 107° | 4km/h | 28816m | 5.2m/s | -45.2°C | 0% | 14.9hPa | 2.7V | 18:12:15 | 02:05:14 | 00:00:00 | |
| DL1LOL-11 | 2026-09-04 12:23:39 | 51.45120 | 8.81715 | 108° | 4km/h | 28816m | 5.2m/s | -45.2°C | 0.7% | 14.9hPa | 2.6V | 00:00:00 | 00:00:00 | 00:00:00 | |
| DJ2DS-15 | 2026-09-04 12:23:38 | 51.45120 | 8.81714 | 138° | 11km/h | 28811m | 5.0m/s | -45.1°C | 2.8% | 14.9hPa | 2.6V | 00:00:00 | 02:05:13 | 00:00:00 | |
| DM0DOS-11 | 2026-09-04 12:23:37 | 51.45124 | 8.81713 | 185° | 11km/h | 28798m | 6.2m/s | -45°C | 2.7% | 15hPa | 2.6V | 08:30:00 | 02:05:11 | 00:00:00 | |
| DO2JMG | 2026-09-04 12:23:37 | 51.45122 | 8.81713 | 166° | 7km/h | 28805m | 6.6m/s | -45.1°C | 0% | 15hPa | 2.5V | 18:12:15 | 02:05:12 | 00:00:00 | |
| DL4XJ-10 | 2026-09-04 12:23:37 | 51.45122 | 8.81713 | 166° | 13km/h | 28805m | 6.5m/s | -45.7°C | 0% | 0hPa | 2.7V | 00:00:00 | 00:00:00 | 00:00:00 | |
| DJ2DS-15 | 2026-09-04 12:23:36 | 51.45124 | 8.81713 | 185° | 9km/h | 28798m | 6.2m/s | -45.0°C | 0.6% | 15.0hPa | 2.7V | 00:00:00 | 00:00:00 | 00:00:00 | |
| BUE01 | 2026-09-04 12:23:35 | 51.45127 | 8.81713 | 189° | 11km/h | 28793m | 5.0m/s | -45.0°C | 0.7% | 15.0hPa | 2.7V | 00:00:00 | 00:00:00 | 00:00:00 | |
| DO9LL-15 | 2026-09-04 12:23:34 | 51.45130 | 8.81714 | 184° | 13km/h | 28787m | 6.2m/s | -45.0°C | 2.8% | 14.9hPa | 2.7V | 00:00:00 | 02:05:09 | 00:00:00 | |
| DL1XH1-15 | 2026-09-04 12:23:33 | 51.45144 | 8.81719 | 235° | 11km/h | 28758m | 5.7m/s | -45.4°C | 2.8% | 15.1hPa | 2.7V | 08:30:00 | 02:05:04 | 00:00:00 | |
| BIOWL1-15 | 2026-09-04 12:23:33 | 51.45140 | 8.81714 | 194° | 11km/h | 28771m | 5.3m/s | -45.2°C | 0% | 15.1hPa | 2.5V | 18:12:15 | 02:05:06 | 00:00:00 | |
| DL1XH-west | 2026-09-04 12:23:32 | 51.45137 | 8.81714 | 182° | 13km/h | 28776m | 4.8m/s | -45.1°C | 0% | 15hPa | 2.5V | 18:12:15 | 02:05:07 | 00:00:00 | |
| DL1NUX | 2026-09-04 12:23:31 | 51.45140 | 8.81714 | 194° | 11km/h | 28770m | 5.3m/s | -45.2°C | 2.8% | 15.1hPa | 2.5V | 08:30:00 | 02:05:06 | 00:00:00 | |
| AA1-15 | 2026-09-04 12:23:29 | 51.45144 | 8.81719 | 235° | 11km/h | 28758m | 5.7m/s | -45.4°C | 0% | 15.1hPa | 2.7V | 18:12:15 | 02:05:04 | 00:00:00 | |
| HSKMA3-T | 2026-09-04 12:23:27 | 51.45146 | 8.81726 | 247° | 7km/h | 28748m | 4.8m/s | -45.5°C | 0% | 15.1hPa | 2.7V | 18:12:15 | 02:05:02 | 00:00:00 | |
| DL1XH-15 | 2026-09-04 12:23:26 | 51.45149 | 8.81726 | 133° | 9km/h | 28730m | 5.1m/s | -45.7°C | 2.9% | 15.1hPa | 2.6V | 08:30:00 | 02:04:59 | 00:00:00 | |
| DO2JMG | 2026-09-04 12:23:26 | 51.45147 | 8.81728 | 223° | 4km/h | 28743m | 6.5m/s | -45.6°C | 0% | 15.1hPa | 2.5V | 18:12:15 | 02:05:01 | 00:00:00 | |
| BIOWL1-15 | 2026-09-04 12:23:22 | 51.45154 | 8.81721 | 169° | 15km/h | 28719m | 6.7m/s | -45.6°C | 0% | 15.2hPa | 2.7V | 18:12:15 | 02:04:57 | 00:00:00 | |
| SO1NDE-10 | 2026-09-04 12:23:21 | 51.45158 | 8.81721 | 183° | 13km/h | 28713m | 6.1m/s | -45.5°C | 2.9% | 15.1hPa | 2.6V | 00:00:00 | 02:04:56 | 00:00:00 | |
| DC6BW-12 | 2026-09-04 12:23:20 | 51.45158 | 8.81721 | 184° | 18km/h | 28713m | 6.1m/s | -45.6°C | 0.7% | 15.2hPa | 2.6V | 00:00:00 | 00:00:00 | 00:00:00 | |
| DL1XH1-15 | 2026-09-04 12:23:19 | 51.45168 | 8.81722 | 186° | 22km/h | 28701m | 6.5m/s | -45.6°C | 2.9% | 15.2hPa | 2.6V | 08:30:00 | 02:04:54 | 00:00:00 | |
| AA1-15 | 2026-09-04 12:23:18 | 51.45173 | 8.81723 | 184° | 18km/h | 28695m | 5.7m/s | -45.6°C | 0% | 15.2hPa | 2.6V | 18:12:15 | 02:04:53 | 00:00:00 | |
| DJ2DS-15 | 2026-09-04 12:23:18 | 51.45173 | 8.81723 | 185° | 11km/h | 28695m | 5.7m/s | -45.6°C | 2.9% | 15.2hPa | 2.7V | 00:00:00 | 02:04:53 | 00:00:00 | |
| DM0DOS-11 | 2026-09-04 12:23:17 | 51.45181 | 8.81725 | 197° | 15km/h | 28685m | 5.1m/s | -45.7°C | 2.9% | 15.2hPa | 2.7V | 08:30:00 | 02:04:51 | 00:00:00 | |
| DF8AY | 2026-09-04 12:23:17 | 51.45177 | 8.81724 | 188° | 16km/h | 28690m | 4.6m/s | -45.7°C | 0% | 15.2hPa | 2.7V | 18:12:15 | 02:04:52 | 00:00:00 | |
| DL4XJ-10 | 2026-09-04 12:23:17 | 51.45177 | 8.81724 | 188° | 11km/h | 28690m | 4.5m/s | -46.3°C | 0% | 0hPa | 2.5V | 00:00:00 | 00:00:00 | 00:00:00 | |
| DL1XH-15 | 2026-09-04 12:23:16 | 51.45187 | 8.81730 | 219° | 13km/h | 28673m | 5.6m/s | -45.6°C | 2.9% | 15.3hPa | 2.5V | 08:30:00 | 02:04:49 | 00:00:00 | |
| DO2JMG | 2026-09-04 12:23:16 | 51.45181 | 8.81725 | 197° | 15km/h | 28685m | 5.1m/s | -45.7°C | 0% | 15.2hPa | 2.7V | 18:12:15 | 02:04:51 | 00:00:00 | |
| DL1ZP-14 | 2026-09-04 12:23:16 | 51.45184 | 8.81727 | 209° | 13km/h | 28680m | 6.3m/s | -45.7°C | 0.7% | 15.3hPa | 2.7V | 00:00:00 | 00:00:00 | 00:00:00 | |
| GOEST3-10 | 2026-09-04 12:23:14 | 51.45187 | 8.81730 | 220° | 9km/h | 28673m | 5.5m/s | -45.5°C | 2.9% | 15.2hPa | 2.7V | 00:00:00 | 00:00:00 | 00:00:00 | |
| DL1XH1-15 | 2026-09-04 12:23:13 | 51.45196 | 8.81728 | 121° | 13km/h | 28645m | 4.6m/s | -45.7°C | 2.8% | 15.3hPa | 2.7V | 08:30:00 | 02:04:44 | 00:00:00 | |
| DL4BBY-15 | 2026-09-04 12:23:13 | 51.45189 | 8.81733 | 217° | 11km/h | 28668m | 4.9m/s | -46.2°C | 0% | 0hPa | 2.7V | 00:00:00 | 00:00:00 | 00:00:00 | |
| DL1NUX | 2026-09-04 12:23:12 | 51.45193 | 8.81735 | 151° | 7km/h | 28656m | 6.9m/s | -45.6°C | 2.8% | 15.3hPa | 2.7V | 08:30:00 | 02:04:46 | 00:00:00 | |
| BIOWL1-15 | 2026-09-04 12:23:12 | 51.45191 | 8.81735 | 194° | 7km/h | 28663m | 5.6m/s | -45.6°C | 0% | 15.3hPa | 2.6V | 18:12:15 | 02:04:47 | 00:00:00 | |
| HSKMA3-T | 2026-09-04 12:23:10 | 51.45195 | 8.81732 | 123° | 11km/h | 28650m | 5.7m/s | -45.6°C | 0% | 15.3hPa | 2.7V | 18:12:15 | 02:04:45 | 00:00:00 | |
| DF8AY | 2026-09-04 12:23:08 | 51.45230 | 8.81727 | 193° | 15km/h | 28576m | 5.5m/s | -46.1°C | 0% | 15.5hPa | 2.7V | 18:12:15 | 02:04:32 | 00:00:00 | |
| AA1-15 | 2026-09-04 12:23:07 | 51.45200 | 8.81722 | 153° | 9km/h | 28633m | 6.4m/s | -45.9°C | 0% | 15.4hPa | 2.6V | 18:12:15 | 02:04:42 | 00:00:00 | |
| DO2JMG | 2026-09-04 12:23:05 | 51.45205 | 8.81722 | 202° | 11km/h | 28623m | 4.7m/s | -46°C | 0% | 15.4hPa | 2.7V | 18:12:15 | 02:04:40 | 00:00:00 | |
| DL1XH-west | 2026-09-04 12:23:02 | 51.45212 | 8.81725 | 180° | 11km/h | 28605m | 6m/s | -46.2°C | 0% | 15.4hPa | 2.5V | 18:12:15 | 02:04:37 | 00:00:00 | |
| BIOWL1-15 | 2026-09-04 12:23:01 | 51.45215 | 8.81725 | 173° | 13km/h | 28599m | 5m/s | -46.1°C | 0% | 15.4hPa | 2.6V | 18:12:15 | 02:04:36 | 00:00:00 | |
| DJ2DS-15 | 2026-09-04 12:23:00 | 51.45218 | 8.81724 | 177° | 13km/h | 28595m | 5.2m/s | -46.1°C | 0.7% | 15.4hPa | 2.7V | 00:00:00 | 00:00:00 | 00:00:00 | |
| DL1XH1-15 | 2026-09-04 12:22:59 | 51.45222 | 8.81725 | 185° | 15km/h | 28588m | 6.5m/s | -46.1°C | 2.9% | 15.5hPa | 2.7V | 08:30:00 | 02:04:34 | 00:00:00 | |
| HSKMA3-T | 2026-09-04 12:22:59 | 51.45222 | 8.81725 | 185° | 15km/h | 28588m | 6.5m/s | -46.1°C | 0% | 15.5hPa | 2.7V | 18:12:15 | 02:04:34 | 00:00:00 | |
| GOEST3-10 | 2026-09-04 12:22:59 | 51.45222 | 8.81725 | 186° | 15km/h | 28589m | 6.5m/s | -46.0°C | 2.9% | 15.4hPa | 2.7V | 00:00:00 | 02:04:34 | 00:00:00 | |
| DJ2DS-15 | 2026-09-04 12:22:58 | 51.45226 | 8.81725 | 193° | 11km/h | 28582m | 6.2m/s | -46.0°C | 2.9% | 15.4hPa | 2.7V | 00:00:00 | 02:04:33 | 08:30:00 | |
| DL4XJ-10 | 2026-09-04 12:22:57 | 51.45230 | 8.81727 | 194° | 13km/h | 28577m | 5.4m/s | -46.7°C | 0% | 0hPa | 2.6V | 00:00:00 | 00:00:00 | 00:00:00 | |
| DL1XH-15 | 2026-09-04 12:22:56 | 51.45239 | 8.81726 | 144° | 13km/h | 28558m | 5.8m/s | -46.2°C | 2.9% | 15.5hPa | 2.6V | 08:30:00 | 02:04:29 | 00:00:00 | |
| DM0DOS-11 | 2026-09-04 12:22:56 | 51.45233 | 8.81728 | 186° | 13km/h | 28570m | 5.9m/s | -46.1°C | 2.9% | 15.5hPa | 2.5V | 08:30:00 | 02:04:31 | 00:00:00 | |
| AA1-15 | 2026-09-04 12:22:56 | 51.45233 | 8.81728 | 186° | 13km/h | 28570m | 5.9m/s | -46.1°C | 0% | 15.5hPa | 2.5V | 18:12:15 | 02:04:31 | 00:00:00 | |
| DB0DAN | 2026-09-04 12:22:55 | 51.45236 | 8.81728 | 166° | 11km/h | 28564m | 6.7m/s | -46.2°C | 0.7% | 15.53hPa | 2.6V | 00:00:00 | 00:00:00 | 00:00:00 | |
| DO2JMG | 2026-09-04 12:22:54 | 51.45239 | 8.81726 | 144° | 13km/h | 28558m | 5.8m/s | -46.2°C | 0% | 15.5hPa | 2.6V | 18:12:15 | 02:04:29 | 00:00:00 | |
| DL1XH-west | 2026-09-04 12:22:51 | 51.45247 | 8.81717 | 157° | 11km/h | 28541m | 6.7m/s | -46.3°C | 0% | 15.6hPa | 2.7V | 18:12:15 | 02:04:26 | 00:00:00 | |
| BIOWL1-15 | 2026-09-04 12:22:50 | 51.45249 | 8.81715 | 173° | 13km/h | 28534m | 5.8m/s | -46.2°C | 0% | 15.6hPa | 2.5V | 18:12:15 | 02:04:25 | 00:00:00 | |
| HSKMA3-T | 2026-09-04 12:22:48 | 51.45256 | 8.81715 | 173° | 13km/h | 28523m | 6.6m/s | -46.1°C | 0% | 15.6hPa | 2.6V | 18:12:15 | 02:04:23 | 00:00:00 | |
| DF8AY | 2026-09-04 12:22:46 | 51.45261 | 8.81713 | 168° | 11km/h | 28512m | 4.3m/s | -46.1°C | 0% | 15.6hPa | 2.7V | 18:12:15 | 02:04:21 | 00:00:00 | |
| AA1-15 | 2026-09-04 12:22:45 | 51.45264 | 8.81712 | 180° | 9km/h | 28507m | 5.5m/s | -46.1°C | 0% | 15.7hPa | 2.7V | 18:12:15 | 02:04:20 | 00:00:00 | |
| DO2JMG | 2026-09-04 12:22:44 | 51.45266 | 8.81713 | 195° | 9km/h | 28501m | 6.7m/s | -46.1°C | 0% | 15.7hPa | 2.6V | 18:12:15 | 02:04:19 | 00:00:00 | |
| DL4BBY-15 | 2026-09-04 12:22:43 | 51.45269 | 8.81714 | 207° | 9km/h | 28494m | 5.5m/s | -46.8°C | 0% | 0hPa | 2.7V | 00:00:00 | 00:00:00 | 00:00:00 | |
| DL1NUX | 2026-09-04 12:22:42 | 51.45272 | 8.81716 | 166° | 7km/h | 28484m | 5.8m/s | -46.1°C | 2.9% | 15.7hPa | 2.7V | 08:30:00 | 02:04:16 | 00:00:00 | |
| DL1XH-west | 2026-09-04 12:22:41 | 51.45273 | 8.81716 | 166° | 7km/h | 28484m | 5.8m/s | -46.1°C | 0% | 15.7hPa | 2.7V | 18:12:15 | 02:04:16 | 00:00:00 | |
| DD8BA-10 | 2026-09-04 12:22:41 | 51.45273 | 8.81716 | 167° | 11km/h | 28484m | 5.8m/s | -46.1°C | 2.9% | 15.7hPa | 2.6V | 00:00:00 | 00:00:00 | 00:00:00 | |
| DB0NH | 2026-09-04 12:22:40 | 51.45274 | 8.81714 | 134° | 9km/h | 28478m | 6.3m/s | -46.1°C | 2.9% | 15.7hPa | 2.6V | 00:00:00 | 02:04:15 | 00:00:00 | |
| DM0DOS-11 | 2026-09-04 12:22:39 | 51.45284 | 8.81693 | 141° | 13km/h | 28456m | 6.2m/s | -46.2°C | 2.9% | 15.8hPa | 2.6V | 08:30:00 | 02:04:11 | 00:00:00 | |
| BIOWL1-15 | 2026-09-04 12:22:39 | 51.45276 | 8.81709 | 119° | 16km/h | 28472m | 5m/s | -46.2°C | 0% | 15.8hPa | 2.7V | 18:12:15 | 02:04:14 | 00:00:00 | |
| HSKMA3-T | 2026-09-04 12:22:37 | 51.45281 | 8.81698 | 128° | 16km/h | 28462m | 6.1m/s | -46.2°C | 0% | 15.8hPa | 2.6V | 18:12:15 | 02:04:12 | 00:00:00 | |
| DF8AY | 2026-09-04 12:22:36 | 51.45286 | 8.81691 | 163° | 11km/h | 28450m | 5.3m/s | -46.2°C | 0% | 15.8hPa | 2.7V | 18:12:15 | 02:04:10 | 00:00:00 | |
| AA1-15 | 2026-09-04 12:22:34 | 51.45289 | 8.81691 | 182° | 9km/h | 28445m | 5.3m/s | -46.3°C | 0% | 15.8hPa | 2.7V | 18:12:15 | 02:04:09 | 00:00:00 | |
| DO2JMG | 2026-09-04 12:22:33 | 51.45291 | 8.81691 | 191° | 7km/h | 28439m | 6.1m/s | -46.3°C | 0% | 15.8hPa | 2.7V | 18:12:15 | 02:04:08 | 00:00:00 | |
| BIOWL1-15 | 2026-09-04 12:22:30 | 51.45290 | 8.81688 | 7° | 5km/h | 28410m | 6.9m/s | -46.4°C | 0% | 15.9hPa | 2.7V | 18:12:15 | 02:04:03 | 00:00:00 | |
| DL1XH-west | 2026-09-04 12:22:30 | 51.45292 | 8.81689 | 43° | 5km/h | 28422m | 4.7m/s | -46.4°C | 0% | 15.9hPa | 2.6V | 18:12:15 | 02:04:05 | 00:00:00 | |
| HSKMA3-T | 2026-09-04 12:22:26 | 51.45287 | 8.81687 | 27° | 5km/h | 28399m | 4.8m/s | -46.4°C | 0% | 15.9hPa | 2.5V | 18:12:15 | 02:04:01 | 00:00:00 | |
| DM0DOS-11 | 2026-09-04 12:22:26 | 51.45287 | 8.81687 | 26° | 5km/h | 28399m | 4.8m/s | -46.4°C | 3% | 15.9hPa | 2.5V | 08:30:00 | 02:04:01 | 00:00:00 | |
| DL1XH-15 | 2026-09-04 12:22:26 | 51.45285 | 8.81681 | 77° | 11km/h | 28387m | 6.3m/s | -46.4°C | 3% | 15.9hPa | 2.6V | 08:30:00 | 02:03:59 | 00:00:00 | |
| DB0DAN | 2026-09-04 12:22:25 | 51.45285 | 8.81685 | 57° | 7km/h | 28393m | 6.4m/s | -46.4°C | 0.7% | 15.93hPa | 2.6V | 00:00:00 | 00:00:00 | 00:00:00 | |
| DL1XH1-15 | 2026-09-04 12:22:24 | 51.45286 | 8.81664 | 242° | 4km/h | 28360m | 5.8m/s | -46.4°C | 3% | 16hPa | 2.5V | 08:30:00 | 02:03:54 | 00:00:00 | |
| AA1-15 | 2026-09-04 12:22:24 | 51.45285 | 8.81681 | 78° | 11km/h | 28387m | 6.3m/s | -46.4°C | 0% | 15.9hPa | 2.6V | 18:12:15 | 02:03:59 | 00:00:00 | |
| DO2JMG | 2026-09-04 12:22:23 | 51.45284 | 8.81676 | 88° | 15km/h | 28381m | 5.1m/s | -46.4°C | 0% | 15.9hPa | 2.7V | 18:12:15 | 02:03:58 | 00:00:00 | |
| DL1NUX | 2026-09-04 12:22:22 | 51.45285 | 8.81666 | 109° | 9km/h | 28372m | 5.3m/s | -46.4°C | 3% | 16hPa | 2.7V | 08:30:00 | 02:03:56 | 00:00:00 | |
| DM0DOS-11 | 2026-09-04 12:22:21 | 51.45284 | 8.81669 | 343° | 7km/h | 28343m | 6.3m/s | -46.4°C | 3% | 16.1hPa | 2.7V | 08:30:00 | 02:03:51 | 00:00:00 | |
| BIOWL1-15 | 2026-09-04 12:22:20 | 51.45286 | 8.81665 | 282° | 5km/h | 28354m | 4.8m/s | -46.4°C | 0% | 16hPa | 2.6V | 18:12:15 | 02:03:53 | 00:00:00 | |
| DL1XH-west | 2026-09-04 12:22:19 | 51.45286 | 8.81663 | 242° | 4km/h | 28360m | 5.9m/s | -46.4°C | 0% | 16hPa | 2.5V | 18:12:15 | 02:03:54 | 00:00:00 | |
| GOEST3-10 | 2026-09-04 12:22:19 | 51.45286 | 8.81663 | 243° | 5km/h | 28360m | 5.8m/s | -46.3°C | 3.0% | 16.0hPa | 2.5V | 00:00:00 | 02:03:54 | 08:30:00 | |
| DJ2DS-15 | 2026-09-04 12:22:18 | 51.45286 | 8.81665 | 283° | 7km/h | 28354m | 4.8m/s | -46.3°C | 3.0% | 16.0hPa | 2.5V | 00:00:00 | 02:03:53 | 00:00:00 | |
| DL4XJ-10 | 2026-09-04 12:22:17 | 51.45286 | 8.81667 | 309° | 9km/h | 28349m | 5.0m/s | -47.0°C | 0% | 0hPa | 2.5V | 00:00:00 | 00:00:00 | 00:00:00 | |
| DL1XH-15 | 2026-09-04 12:22:16 | 51.45280 | 8.81666 | 40° | 13km/h | 28332m | 5.1m/s | -46.4°C | 3% | 16.1hPa | 2.5V | 08:30:00 | 02:03:49 | 00:00:00 | |
| HSKMA3-T | 2026-09-04 12:22:15 | 51.45282 | 8.81669 | 21° | 9km/h | 28337m | 5.9m/s | -46.3°C | 0% | 16.1hPa | 2.7V | 18:12:15 | 02:03:50 | 00:00:00 | |
| AA1-15 | 2026-09-04 12:22:13 | 51.45278 | 8.81663 | 45° | 13km/h | 28327m | 4.8m/s | -46.5°C | 0.1% | 16.1hPa | 2.6V | 18:12:15 | 02:03:48 | 00:00:00 | |
| DL4BBY-15 | 2026-09-04 12:22:13 | 51.45278 | 8.81663 | 46° | 7km/h | 28327m | 4.7m/s | -47.1°C | 0% | 0hPa | 2.7V | 00:00:00 | 00:00:00 | 00:00:00 | |
| DL1NUX | 2026-09-04 12:22:12 | 51.45273 | 8.81657 | 34° | 9km/h | 28315m | 6.3m/s | -46.4°C | 2.9% | 16.1hPa | 2.7V | 08:30:00 | 02:03:46 | 00:00:00 | |
| DO2JMG | 2026-09-04 12:22:12 | 51.45275 | 8.81659 | 44° | 13km/h | 28321m | 5.9m/s | -46.4°C | 0.1% | 16.1hPa | 2.6V | 18:12:15 | 02:03:47 | 00:00:00 | |
| DB0UT-7 | 2026-09-04 12:22:12 | 51.45275 | 8.81659 | 45° | 7km/h | 28322m | 5.8m/s | -46.3°C | 3.0% | 16.1hPa | 2.6V | 00:00:00 | 02:03:47 | 00:00:00 | |
| DB0DAN | 2026-09-04 12:22:10 | 51.45271 | 8.81655 | 11° | 7km/h | 28309m | 5.8m/s | -46.5°C | 0.7% | 16.14hPa | 2.7V | 00:00:00 | 00:00:00 | 00:00:00 | |
| BIOWL1-15 | 2026-09-04 12:22:09 | 51.45265 | 8.81656 | 358° | 9km/h | 28292m | 5.8m/s | -46.5°C | 0.1% | 16.2hPa | 2.5V | 18:12:15 | 02:03:42 | 00:00:00 | |
| DL1XH-west | 2026-09-04 12:22:09 | 51.45270 | 8.81655 | 354° | 7km/h | 28304m | 4.9m/s | -46.4°C | 0.1% | 16.1hPa | 2.7V | 18:12:15 | 02:03:44 | 00:00:00 | |
| EDDB2-11 | 2026-09-04 12:22:08 | 51.45265 | 8.81656 | 358° | 7km/h | 28292m | 5.8m/s | -46.5°C | 0.8% | 16.2hPa | 2.5V | 00:00:00 | 00:00:00 | 00:00:00 | |
| DL1XH-15 | 2026-09-04 12:22:06 | 51.45259 | 8.81665 | 272° | 5km/h | 28265m | 4.2m/s | -46.5°C | 3% | 16.2hPa | 2.5V | 08:30:00 | 02:03:37 | 00:00:00 | |
| HSKMA3-T | 2026-09-04 12:22:04 | 51.45260 | 8.81660 | 303° | 7km/h | 28276m | 6.6m/s | -46.5°C | 0% | 16.2hPa | 2.7V | 18:12:15 | 02:03:39 | 00:00:00 | |
| DO9LL-15 | 2026-09-04 12:22:04 | 51.45260 | 8.81660 | 304° | 7km/h | 28276m | 6.6m/s | -46.5°C | 3.0% | 16.2hPa | 2.6V | 00:00:00 | 02:03:39 | 00:00:00 | |
| DL1NUX | 2026-09-04 12:22:02 | 51.45259 | 8.81667 | 330° | 2km/h | 28260m | 4.8m/s | -46.5°C | 3% | 16.2hPa | 2.6V | 08:30:00 | 02:03:36 | 00:00:00 | |
| AA1-15 | 2026-09-04 12:22:02 | 51.45259 | 8.81665 | 272° | 5km/h | 28265m | 4.3m/s | -46.5°C | 0% | 16.2hPa | 2.5V | 18:12:15 | 02:03:37 | 00:00:00 | |
| DO2JMG | 2026-09-04 12:22:01 | 51.45259 | 8.81667 | 330° | 2km/h | 28260m | 4.8m/s | -46.5°C | 0% | 16.3hPa | 2.6V | 18:12:15 | 02:03:36 | 00:00:00 | |
| DD8BA-10 | 2026-09-04 12:22:01 | 51.45259 | 8.81667 | 331° | 9km/h | 28260m | 4.8m/s | -46.5°C | 3.0% | 16.2hPa | 2.6V | 00:00:00 | 00:00:00 | 00:00:00 | |
| DM0DOS-11 | 2026-09-04 12:22:00 | 51.45247 | 8.81649 | 353° | 7km/h | 28228m | 5.1m/s | -46.6°C | 3% | 16.3hPa | 2.6V | 08:30:00 | 02:03:30 | 00:00:00 | |
| DL1XH-west | 2026-09-04 12:21:59 | 51.45257 | 8.81663 | 57° | 13km/h | 28248m | 5.8m/s | -46.5°C | 0.1% | 16.3hPa | 2.7V | 18:12:15 | 02:03:34 | 00:00:00 | |
| GOEST3-10 | 2026-09-04 12:21:59 | 51.45257 | 8.81663 | 57° | 13km/h | 28249m | 5.8m/s | -46.5°C | 3.0% | 16.2hPa | 2.7V | 00:00:00 | 02:03:34 | 00:00:00 | |
| DJ2DS-15 | 2026-09-04 12:21:58 | 51.45255 | 8.81658 | 50° | 7km/h | 28243m | 4.8m/s | -46.5°C | 3.0% | 16.2hPa | 2.7V | 00:00:00 | 02:03:33 | 00:00:00 | |
| DL4XJ-10 | 2026-09-04 12:21:57 | 51.45252 | 8.81653 | 41° | 5km/h | 28239m | 4.9m/s | -47.2°C | 0% | 0hPa | 2.7V | 00:00:00 | 00:00:00 | 00:00:00 | |
| BIOWL1-15 | 2026-09-04 12:21:57 | 51.45252 | 8.81654 | 41° | 16km/h | 28238m | 5m/s | -46.5°C | 0% | 16.3hPa | 2.7V | 18:12:15 | 02:03:32 | 00:00:00 | |
| DL1XH-15 | 2026-09-04 12:21:56 | 51.45247 | 8.81656 | 228° | 7km/h | 28211m | 5.8m/s | -46.5°C | 3% | 16.4hPa | 2.7V | 08:30:00 | 02:03:27 | 00:00:00 | |
| DL1NUX | 2026-09-04 12:21:56 | 51.45248 | 8.81658 | 210° | 7km/h | 28206m | 5.1m/s | -46.5°C | 3% | 16.4hPa | 2.7V | 08:30:00 | 02:03:26 | 00:00:00 | |
| HSKMA3-T | 2026-09-04 12:21:53 | 51.45245 | 8.81653 | 253° | 7km/h | 28217m | 5.8m/s | -46.6°C | 0% | 16.4hPa | 2.7V | 18:12:15 | 02:03:28 | 00:00:00 | |
| AA1-15 | 2026-09-04 12:21:52 | 51.45246 | 8.81656 | 228° | 7km/h | 28211m | 5.8m/s | -46.6°C | 0% | 16.4hPa | 2.7V | 18:12:15 | 02:03:27 | 00:00:00 | |
| DF8AY | 2026-09-04 12:21:51 | 51.45248 | 8.81658 | 210° | 7km/h | 28206m | 5.1m/s | -46.5°C | 0% | 16.4hPa | 2.7V | 18:12:15 | 02:03:26 | 00:00:00 | |
| DO2JMG | 2026-09-04 12:21:50 | 51.45249 | 8.81659 | 204° | 4km/h | 28200m | 5m/s | -46.5°C | 0% | 16.4hPa | 2.5V | 18:12:15 | 02:03:25 | 00:00:00 | |
| DL1XH1-15 | 2026-09-04 12:21:49 | 51.45250 | 8.81660 | 250° | 2km/h | 28195m | 5.8m/s | -46.5°C | 3% | 16.4hPa | 2.6V | 08:30:00 | 02:03:24 | 00:00:00 | |
| DL1XH-west | 2026-09-04 12:21:49 | 51.45250 | 8.81659 | 251° | 2km/h | 28195m | 5.8m/s | -46.5°C | 0.1% | 16.4hPa | 2.6V | 18:12:15 | 02:03:24 | 00:00:00 | |
| DJ2DS-15 | 2026-09-04 12:21:48 | 51.45249 | 8.81660 | 339° | 4km/h | 28189m | 5.8m/s | -46.5°C | 0.7% | 16.4hPa | 2.6V | 00:00:00 | 00:00:00 | 00:00:00 | |
| DB0ND-19 | 2026-09-04 12:21:47 | 51.45248 | 8.81661 | 348° | 5km/h | 28184m | 4.8m/s | -46.5°C | 0.7% | 16.4hPa | 2.6V | 00:00:00 | 00:00:00 | 00:00:00 | |
| DF7PN | 2026-09-04 12:21:46 | 51.45246 | 8.81661 | 358° | 5km/h | 28179m | 4.5m/s | -46.5°C | 0.7% | 16.5hPa | 2.6V | 00:00:00 | 00:00:00 | 00:00:00 | |
| DL1XH-15 | 2026-09-04 12:21:45 | 51.45243 | 8.81656 | 91° | 4km/h | 28157m | 4.9m/s | -46.5°C | 3% | 16.5hPa | 2.6V | 08:30:00 | 02:03:17 | 00:00:00 | |
| DO1YAY-16 | 2026-09-04 12:21:45 | 51.45244 | 8.81660 | 51° | 4km/h | 28168m | 6.1m/s | -46.5°C | 0.8% | 16.5hPa | 2.6V | 00:00:00 | 00:00:00 | 00:00:00 | |
| HSKMA3-T | 2026-09-04 12:21:43 | 51.45243 | 8.81658 | 86° | 4km/h | 28162m | 5.8m/s | -46.5°C | 0% | 16.5hPa | 2.6V | 18:12:15 | 02:03:18 | 00:00:00 | |
| DL4BBY-15 | 2026-09-04 12:21:43 | 51.45243 | 8.81658 | 86° | 7km/h | 28163m | 5.7m/s | -47.2°C | 0% | 0hPa | 2.7V | 00:00:00 | 00:00:00 | 00:00:00 | |
| DL1NUX | 2026-09-04 12:21:42 | 51.45243 | 8.81656 | 33° | 2km/h | 28151m | 6.4m/s | -46.5°C | 3% | 16.5hPa | 2.7V | 08:30:00 | 02:03:16 | 00:00:00 | |
| AA1-15 | 2026-09-04 12:21:41 | 51.45243 | 8.81655 | 34° | 2km/h | 28151m | 6.4m/s | -46.5°C | 0% | 16.5hPa | 2.7V | 18:12:15 | 02:03:16 | 00:00:00 | |
| DB0DAN | 2026-09-04 12:21:40 | 51.45242 | 8.81656 | 340° | 5km/h | 28145m | 6m/s | -46.5°C | 0.7% | 16.55hPa | 2.7V | 00:00:00 | 00:00:00 | 00:00:00 | |
| DO2JMG | 2026-09-04 12:21:40 | 51.45242 | 8.81656 | 340° | 5km/h | 28145m | 6m/s | -46.5°C | 0% | 16.6hPa | 2.7V | 18:12:15 | 02:03:15 | 00:00:00 | |
| DL1XH1-15 | 2026-09-04 12:21:39 | 51.45241 | 8.81657 | 317° | 7km/h | 28139m | 5.1m/s | -46.5°C | 3% | 16.6hPa | 2.7V | 08:30:00 | 02:03:14 | 00:00:00 | |
| DL1XH-west | 2026-09-04 12:21:38 | 51.45240 | 8.81659 | 301° | 7km/h | 28133m | 6.2m/s | -46.6°C | 0% | 16.6hPa | 2.5V | 18:12:15 | 02:03:13 | 00:00:00 | |
| BIOWL1-15 | 2026-09-04 12:21:36 | 51.45238 | 8.81671 | 296° | 9km/h | 28110m | 6.5m/s | -46.6°C | 0% | 16.6hPa | 2.7V | 18:12:15 | 02:03:09 | 00:00:00 | |
| DL1XH-15 | 2026-09-04 12:21:36 | 51.45234 | 8.81678 | 316° | 9km/h | 28100m | 4.7m/s | -46.5°C | 3% | 16.7hPa | 2.5V | 08:30:00 | 02:03:07 | 00:00:00 | |
| DL1NUX | 2026-09-04 12:21:36 | 51.45233 | 8.81680 | 322° | 7km/h | 28095m | 5.3m/s | -46.6°C | 3% | 16.7hPa | 2.5V | 08:30:00 | 02:03:06 | 00:00:00 | |
| DL1XH1-15 | 2026-09-04 12:21:34 | 51.45231 | 8.81681 | 89° | 2km/h | 28082m | 5.6m/s | -46.6°C | 3% | 16.7hPa | 2.7V | 08:30:00 | 02:03:04 | 00:00:00 | |
| HSKMA3-T | 2026-09-04 12:21:32 | 51.45234 | 8.81678 | 316° | 9km/h | 28100m | 4.7m/s | -46.5°C | 0% | 16.7hPa | 2.5V | 18:12:15 | 02:03:07 | 00:00:00 | |
| AA1-15 | 2026-09-04 12:21:30 | 51.45232 | 8.81681 | 328° | 4km/h | 28089m | 6.9m/s | -46.6°C | 0% | 16.7hPa | 2.6V | 18:12:15 | 02:03:05 | 00:00:00 | |
| DO2JMG | 2026-09-04 12:21:29 | 51.45231 | 8.81681 | 89° | 2km/h | 28082m | 5.6m/s | -46.6°C | 0% | 16.7hPa | 2.7V | 18:12:15 | 02:03:04 | 00:00:00 | |
| DL1XH-west | 2026-09-04 12:21:28 | 51.45231 | 8.81681 | 112° | 2km/h | 28077m | 5.1m/s | -46.5°C | 0% | 16.7hPa | 2.7V | 18:12:15 | 02:03:03 | 00:00:00 | |
| BIOWL1-15 | 2026-09-04 12:21:26 | 51.45226 | 8.81686 | 318° | 13km/h | 28055m | 4.9m/s | -46.6°C | 0% | 16.8hPa | 2.6V | 18:12:15 | 02:02:59 | 00:00:00 | |
| DL1XH1-15 | 2026-09-04 12:21:24 | 51.45221 | 8.81704 | 285° | 9km/h | 28027m | 6.2m/s | -46.5°C | 3% | 16.9hPa | 2.5V | 08:30:00 | 02:02:54 | 00:00:00 | |
| GOEST3-10 | 2026-09-04 12:21:24 | 51.45226 | 8.81686 | 319° | 11km/h | 28055m | 4.8m/s | -46.5°C | 3.0% | 16.7hPa | 2.7V | 00:00:00 | 00:00:00 | 00:00:00 | |
| DL1NUX | 2026-09-04 12:21:22 | 51.45222 | 8.81697 | 287° | 9km/h | 28037m | 4.8m/s | -46.5°C | 3% | 16.8hPa | 2.7V | 08:30:00 | 02:02:56 | 00:00:00 | |
| HSKMA3-T | 2026-09-04 12:21:22 | 51.45223 | 8.81694 | 296° | 9km/h | 28043m | 6m/s | -46.5°C | 0% | 16.8hPa | 2.7V | 18:12:15 | 02:02:57 | 00:00:00 | |
| AA1-15 | 2026-09-04 12:21:20 | 51.45221 | 8.81701 | 282° | 9km/h | 28032m | 4.9m/s | -46.5°C | 0% | 16.8hPa | 2.5V | 18:12:15 | 02:02:55 | 00:00:00 | |
| DF8AY | 2026-09-04 12:21:19 | 51.45222 | 8.81712 | 148° | 11km/h | 28000m | 6.9m/s | -46.5°C | 0% | 16.9hPa | 2.5V | 18:12:15 | 02:02:49 | 00:00:00 | |
| DO2JMG | 2026-09-04 12:21:19 | 51.45221 | 8.81704 | 286° | 9km/h | 28027m | 6.2m/s | -46.5°C | 0% | 16.9hPa | 2.5V | 18:12:15 | 02:02:54 | 00:00:00 | |
| DL1XH-west | 2026-09-04 12:21:18 | 51.45220 | 8.81708 | 288° | 9km/h | 28021m | 5.5m/s | -46.5°C | 0% | 16.9hPa | 2.6V | 18:12:15 | 02:02:53 | 00:00:00 | |
| DJ2DS-15 | 2026-09-04 12:21:18 | 51.45220 | 8.81708 | 289° | 7km/h | 28021m | 5.4m/s | -46.4°C | 2.9% | 16.8hPa | 2.7V | 00:00:00 | 02:02:53 | 00:00:00 | |
| DL4XJ-10 | 2026-09-04 12:21:17 | 51.45219 | 8.81710 | 284° | 7km/h | 28017m | 4.2m/s | -47.1°C | 0% | 0hPa | 2.7V | 00:00:00 | 00:00:00 | 00:00:00 | |
| DL1NUX | 2026-09-04 12:21:16 | 51.45230 | 8.81702 | 133° | 9km/h | 27982m | 6m/s | -46.5°C | 3% | 17hPa | 2.7V | 08:30:00 | 02:02:46 | 00:00:00 | |
| DB0ND-19 | 2026-09-04 12:21:16 | 51.45219 | 8.81713 | 236° | 2km/h | 28012m | 4.4m/s | -46.5°C | 0.7% | 16.9hPa | 2.7V | 00:00:00 | 00:00:00 | 00:00:00 | |
| DF7PN | 2026-09-04 12:21:15 | 51.45220 | 8.81713 | 169° | 5km/h | 28007m | 6.7m/s | -46.5°C | 0.7% | 16.9hPa | 2.7V | 00:00:00 | 00:00:00 | 00:00:00 | |
| DL1XH1-15 | 2026-09-04 12:21:14 | 51.45231 | 8.81699 | 178° | 2km/h | 27972m | 4.8m/s | -46.6°C | 3% | 17hPa | 2.7V | 08:30:00 | 02:02:44 | 00:00:00 | |
| HSKMA3-T | 2026-09-04 12:21:10 | 51.45231 | 8.81700 | 130° | 4km/h | 27977m | 4.9m/s | -46.5°C | 0% | 17hPa | 2.7V | 18:12:15 | 02:02:45 | 00:00:00 | |
| AA1-15 | 2026-09-04 12:21:09 | 51.45231 | 8.81699 | 178° | 2km/h | 27972m | 4.8m/s | -46.6°C | 0% | 17hPa | 2.7V | 18:12:15 | 02:02:44 | 00:00:00 | |
| DO2JMG | 2026-09-04 12:21:08 | 51.45232 | 8.81699 | 229° | 2km/h | 27966m | 6.3m/s | -46.6°C | 0% | 17hPa | 2.5V | 18:12:15 | 02:02:43 | 00:00:00 | |
| DL1XH-west | 2026-09-04 12:21:07 | 51.45232 | 8.81700 | 227° | 5km/h | 27960m | 5.8m/s | -46.7°C | 0% | 17hPa | 2.6V | 18:12:15 | 02:02:42 | 00:00:00 | |
| DF8AY | 2026-09-04 12:21:06 | 51.45233 | 8.81702 | 233° | 7km/h | 27955m | 5.2m/s | -46.7°C | 0% | 17hPa | 2.6V | 18:12:15 | 02:02:41 | 00:00:00 | |
| BIOWL1-15 | 2026-09-04 12:21:05 | 51.45235 | 8.81716 | 273° | 9km/h | 27932m | 4.8m/s | -46.8°C | 0.1% | 17.1hPa | 2.5V | 18:12:15 | 02:02:37 | 00:00:00 | |
| DL1XH1-15 | 2026-09-04 12:21:04 | 51.45240 | 8.81719 | 144° | 9km/h | 27910m | 4.7m/s | -46.8°C | 3% | 17.2hPa | 2.7V | 08:30:00 | 02:02:33 | 00:00:00 | |
| HSKMA3-T | 2026-09-04 12:20:59 | 51.45238 | 8.81720 | 158° | 7km/h | 27915m | 5.6m/s | -46.8°C | 0% | 17.1hPa | 2.7V | 18:12:15 | 02:02:34 | 00:00:00 | |
| DO2JMG | 2026-09-04 12:20:58 | 51.45240 | 8.81719 | 144° | 9km/h | 27910m | 4.7m/s | -46.8°C | 0% | 17.2hPa | 2.7V | 18:12:15 | 02:02:33 | 00:00:00 | |
| DL3AQ-11 | 2026-09-04 12:20:58 | 51.45241 | 8.81717 | 132° | 5km/h | 27905m | 6.0m/s | -46.8°C | 0.8% | 17.2hPa | 2.6V | 00:00:00 | 00:00:00 | 00:00:00 | |
| DL4XJ-10 | 2026-09-04 12:20:57 | 51.45241 | 8.81717 | 133° | 5km/h | 27905m | 6.0m/s | -47.5°C | 0% | 0hPa | 2.6V | 00:00:00 | 00:00:00 | 00:00:00 | |
| DM0DOS-11 | 2026-09-04 12:20:56 | 51.45240 | 8.81714 | 2° | 4km/h | 27889m | 4.7m/s | -46.9°C | 3.1% | 17.2hPa | 2.6V | 08:30:00 | 02:02:29 | 00:00:00 | |
| DL1XH-west | 2026-09-04 12:20:56 | 51.45242 | 8.81715 | 101° | 4km/h | 27898m | 5.8m/s | -46.9°C | 0.1% | 17.2hPa | 2.5V | 18:12:15 | 02:02:31 | 00:00:00 | |
| BIOWL1-15 | 2026-09-04 12:20:54 | 51.45239 | 8.81714 | 274° | 0km/h | 27877m | 5.9m/s | -46.9°C | 0.1% | 17.2hPa | 2.7V | 18:12:15 | 02:02:27 | 00:00:00 | |
| GOEST3-10 | 2026-09-04 12:20:54 | 51.45240 | 8.81714 | 3° | 4km/h | 27889m | 4.6m/s | -46.9°C | 3.1% | 17.2hPa | 2.6V | 00:00:00 | 00:00:00 | 00:00:00 | |
| DL1XH1-15 | 2026-09-04 12:20:53 | 51.45242 | 8.81717 | 242° | 4km/h | 27856m | 5.9m/s | -47°C | 3.1% | 17.3hPa | 2.6V | 08:30:00 | 02:02:23 | 00:00:00 | |
| AA1-15 | 2026-09-04 12:20:48 | 51.45242 | 8.81717 | 242° | 4km/h | 27856m | 5.9m/s | -47°C | 0.1% | 17.3hPa | 2.6V | 18:12:15 | 02:02:23 | 00:00:00 | |
| DO2JMG | 2026-09-04 12:20:47 | 51.45242 | 8.81718 | 236° | 4km/h | 27850m | 4.7m/s | -46.9°C | 0.1% | 17.3hPa | 2.7V | 18:12:15 | 02:02:22 | 00:00:00 | |
| DL1XH-west | 2026-09-04 12:20:46 | 51.45243 | 8.81719 | 196° | 4km/h | 27846m | 4.8m/s | -47°C | 0.1% | 17.3hPa | 2.7V | 18:12:15 | 02:02:21 | 00:00:00 | |
| BIOWL1-15 | 2026-09-04 12:20:46 | 51.45251 | 8.81714 | 161° | 9km/h | 27821m | 6.1m/s | -47°C | 0.1% | 17.4hPa | 2.6V | 18:12:15 | 02:02:17 | 00:00:00 | |
| DF8AY | 2026-09-04 12:20:45 | 51.45244 | 8.81719 | 163° | 7km/h | 27840m | 7m/s | -47°C | 0% | 17.3hPa | 2.7V | 18:12:15 | 02:02:20 | 00:00:00 | |
| DM0DOS-11 | 2026-09-04 12:20:45 | 51.45246 | 8.81718 | 153° | 11km/h | 27833m | 6.3m/s | -47°C | 3.1% | 17.4hPa | 2.5V | 08:30:00 | 02:02:19 | 00:00:00 | |
| DL3AQ-11 | 2026-09-04 12:20:45 | 51.45246 | 8.81718 | 153° | 9km/h | 27833m | 6.3m/s | -47.0°C | 0.8% | 17.4hPa | 2.6V | 00:00:00 | 00:00:00 | 00:00:00 | |
| GOEST3-10 | 2026-09-04 12:20:44 | 51.45246 | 8.81718 | 154° | 9km/h | 27833m | 6.3m/s | -46.9°C | 3.1% | 17.3hPa | 2.6V | 00:00:00 | 00:00:00 | 00:00:00 | |
| DL4BBY-15 | 2026-09-04 12:20:43 | 51.45248 | 8.81716 | 155° | 9km/h | 27827m | 5.3m/s | -47.6°C | 0% | 0hPa | 2.6V | 00:00:00 | 00:00:00 | 00:00:00 | |
| DB0UT-7 | 2026-09-04 12:20:42 | 51.45251 | 8.81714 | 161° | 9km/h | 27822m | 6.0m/s | -46.9°C | 3.1% | 17.3hPa | 2.6V | 00:00:00 | 00:00:00 | 00:00:00 | |
| DB0DAN | 2026-09-04 12:20:40 | 51.45255 | 8.81713 | 194° | 5km/h | 27810m | 4.7m/s | -46.9°C | 0.8% | 17.43hPa | 2.7V | 00:00:00 | 00:00:00 | 00:00:00 | |
| DB0NH | 2026-09-04 12:20:40 | 51.45255 | 8.81713 | 195° | 9km/h | 27810m | 4.7m/s | -46.9°C | 3.1% | 17.4hPa | 2.7V | 00:00:00 | 02:02:15 | 08:30:00 | |
| DL1XH1-15 | 2026-09-04 12:20:39 | 51.45258 | 8.81714 | 180° | 5km/h | 27800m | 6.4m/s | -46.9°C | 3.1% | 17.4hPa | 2.5V | 08:30:00 | 02:02:13 | 00:00:00 | |
| GOEST3-10 | 2026-09-04 12:20:39 | 51.45256 | 8.81714 | 197° | 7km/h | 27805m | 4.7m/s | -46.8°C | 3.1% | 17.4hPa | 2.7V | 00:00:00 | 02:02:14 | 00:00:00 | |
| DJ2DS-15 | 2026-09-04 12:20:38 | 51.45258 | 8.81714 | 181° | 9km/h | 27800m | 6.3m/s | -46.8°C | 3.1% | 17.4hPa | 2.7V | 00:00:00 | 02:02:13 | 00:00:00 | |
| DM0DOS-11 | 2026-09-04 12:20:37 | 51.45264 | 8.81712 | 179° | 5km/h | 27776m | 6.1m/s | -46.8°C | 3% | 17.5hPa | 2.7V | 08:30:00 | 02:02:09 | 00:00:00 | |
| DO2JMG | 2026-09-04 12:20:37 | 51.45259 | 8.81714 | 167° | 7km/h | 27793m | 6.2m/s | -46.9°C | 0.1% | 17.5hPa | 2.6V | 18:12:15 | 02:02:12 | 00:00:00 | |
| HSKMA3-T | 2026-09-04 12:20:36 | 51.45261 | 8.81713 | 165° | 7km/h | 27787m | 5.4m/s | -46.8°C | 0.1% | 17.5hPa | 2.6V | 18:12:15 | 02:02:11 | 00:00:00 | |
| DF8AY | 2026-09-04 12:20:35 | 51.45263 | 8.81712 | 170° | 7km/h | 27782m | 6m/s | -46.8°C | 0.1% | 17.5hPa | 2.7V | 18:12:15 | 02:02:10 | 00:00:00 | |
| EDDB2-11 | 2026-09-04 12:20:35 | 51.45264 | 8.81712 | 179° | 4km/h | 27776m | 6.1m/s | -46.8°C | 0.8% | 17.5hPa | 2.5V | 00:00:00 | 00:00:00 | 00:00:00 | |
| DK9SH | 2026-09-04 12:20:34 | 51.45264 | 8.81712 | 180° | 5km/h | 27776m | 6.1m/s | -46.8°C | 0.8% | 17.5hPa | 2.5V | 00:00:00 | 00:00:00 | 00:00:00 | |
| DL1NUX | 2026-09-04 12:20:32 | 51.45269 | 8.81710 | 148° | 11km/h | 27760m | 6.8m/s | -46.8°C | 3% | 17.5hPa | 2.5V | 08:30:00 | 02:02:06 | 00:00:00 | |
| BIOWL1-15 | 2026-09-04 12:20:31 | 51.45269 | 8.81710 | 149° | 11km/h | 27760m | 6.8m/s | -46.8°C | 0.1% | 17.5hPa | 2.5V | 18:12:15 | 02:02:06 | 00:00:00 | |
| DO2JMG | 2026-09-04 12:20:27 | 51.45280 | 8.81698 | 162° | 13km/h | 27736m | 5.9m/s | -46.7°C | 0.1% | 17.6hPa | 2.7V | 18:12:15 | 02:02:02 | 00:00:00 | |
| HSKMA3-T | 2026-09-04 12:20:26 | 51.45283 | 8.81698 | 182° | 11km/h | 27731m | 4.8m/s | -46.7°C | 0.1% | 17.6hPa | 2.5V | 18:12:15 | 02:02:01 | 00:00:00 | |
| DM0DOS-11 | 2026-09-04 12:20:25 | 51.45290 | 8.81699 | 189° | 15km/h | 27720m | 6.5m/s | -46.7°C | 3% | 17.7hPa | 2.6V | 08:30:00 | 02:01:59 | 00:00:00 | |
| DL1XH-west | 2026-09-04 12:20:25 | 51.45286 | 8.81698 | 189° | 13km/h | 27726m | 5.2m/s | -46.7°C | 0.1% | 17.6hPa | 2.5V | 18:12:15 | 02:02:00 | 00:00:00 | |
| DF8AY | 2026-09-04 12:20:24 | 51.45290 | 8.81699 | 189° | 15km/h | 27720m | 6.5m/s | -46.7°C | 0% | 17.7hPa | 2.6V | 18:12:15 | 02:01:59 | 00:00:00 | |
| BIOWL1-15 | 2026-09-04 12:20:20 | 51.45301 | 8.81701 | 200° | 5km/h | 27696m | 6.3m/s | -46.6°C | 0% | 17.7hPa | 2.5V | 18:12:15 | 02:01:55 | 00:00:00 | |
| DJ8HS-15 | 2026-09-04 12:20:20 | 51.45301 | 8.81701 | 201° | 11km/h | 27697m | 6.2m/s | -46.6°C | 3.0% | 17.7hPa | 2.5V | 00:00:00 | 02:01:55 | 08:30:00 | |
| GOEST3-10 | 2026-09-04 12:20:19 | 51.45302 | 8.81702 | 218° | 7km/h | 27691m | 4.7m/s | -46.5°C | 3.0% | 17.7hPa | 2.5V | 00:00:00 | 02:01:54 | 00:00:00 | |
| DM0DOS-11 | 2026-09-04 12:20:18 | 51.45311 | 8.81691 | 137° | 16km/h | 27664m | 5.2m/s | -46.7°C | 3% | 17.8hPa | 2.5V | 08:30:00 | 02:01:49 | 00:00:00 | |
| AA1-15 | 2026-09-04 12:20:17 | 51.45304 | 8.81701 | 134° | 5km/h | 27682m | 6m/s | -46.6°C | 0% | 17.8hPa | 2.7V | 18:12:15 | 02:01:52 | 00:00:00 | |
| DO2JMG | 2026-09-04 12:20:16 | 51.45305 | 8.81699 | 134° | 11km/h | 27675m | 6.6m/s | -46.7°C | 0.1% | 17.8hPa | 2.7V | 18:12:15 | 02:01:51 | 00:00:00 | |
| DL1XH-west | 2026-09-04 12:20:14 | 51.45311 | 8.81691 | 138° | 16km/h | 27664m | 5.2m/s | -46.7°C | 0.1% | 17.8hPa | 2.5V | 18:12:15 | 02:01:49 | 00:00:00 | |
| DF8AY | 2026-09-04 12:20:12 | 51.45317 | 8.81684 | 147° | 13km/h | 27652m | 5.9m/s | -46.7°C | 0% | 17.9hPa | 2.6V | 18:12:15 | 02:01:47 | 00:00:00 | |
| BIOWL1-15 | 2026-09-04 12:20:09 | 51.45328 | 8.81673 | 139° | 11km/h | 27624m | 5m/s | -46.6°C | 0.1% | 17.9hPa | 2.5V | 18:12:15 | 02:01:42 | 00:00:00 | |
| GOEST3-10 | 2026-09-04 12:20:09 | 51.45323 | 8.81678 | 154° | 9km/h | 27636m | 6.4m/s | -46.6°C | 3.1% | 17.8hPa | 2.5V | 00:00:00 | 02:01:44 | 00:00:00 | |
| DL1XH-15 | 2026-09-04 12:20:06 | 51.45333 | 8.81655 | 104° | 16km/h | 27596m | 6.4m/s | -46.5°C | 3% | 18hPa | 2.5V | 08:30:00 | 02:01:37 | 00:00:00 | |
| DM0DOS-11 | 2026-09-04 12:20:06 | 51.45332 | 8.81664 | 98° | 9km/h | 27607m | 4.7m/s | -46.5°C | 3% | 18hPa | 2.7V | 08:30:00 | 02:01:39 | 00:00:00 | |
| DO2JMG | 2026-09-04 12:20:06 | 51.45330 | 8.81670 | 129° | 9km/h | 27619m | 6.3m/s | -46.6°C | 0.1% | 17.9hPa | 2.6V | 18:12:15 | 02:01:41 | 00:00:00 | |
| HSKMA3-T | 2026-09-04 12:20:05 | 51.45331 | 8.81668 | 110° | 7km/h | 27612m | 6m/s | -46.6°C | 0.1% | 18hPa | 2.7V | 18:12:15 | 02:01:40 | 00:00:00 | |
| DL1XH-west | 2026-09-04 12:20:03 | 51.45333 | 8.81655 | 104° | 16km/h | 27596m | 6.4m/s | -46.5°C | 0% | 18hPa | 2.5V | 18:12:15 | 02:01:37 | 00:00:00 | |
| DF8AY | 2026-09-04 12:20:01 | 51.45334 | 8.81648 | 108° | 20km/h | 27590m | 5m/s | -46.5°C | 0% | 18hPa | 2.5V | 18:12:15 | 02:01:36 | 00:00:00 | |
| DJ2DS-15 | 2026-09-04 12:20:00 | 51.45337 | 8.81633 | 106° | 16km/h | 27580m | 5.9m/s | -46.5°C | 0.8% | 18.1hPa | 2.7V | 00:00:00 | 00:00:00 | 00:00:00 | |
| BUE01 | 2026-09-04 12:19:58 | 51.45338 | 8.81627 | 101° | 13km/h | 27574m | 6.1m/s | -46.5°C | 0.8% | 18.1hPa | 2.7V | 00:00:00 | 00:00:00 | 00:00:00 | |
| SONCRA | 2026-09-04 12:19:57 | 51.45339 | 8.81618 | 95° | 9km/h | 27564m | 4.6m/s | -46.5°C | 0.8% | 18.1hPa | 2.7V | 00:00:00 | 00:00:00 | 00:00:00 | |
| DL1XH-15 | 2026-09-04 12:19:56 | 51.45343 | 8.81597 | 111° | 16km/h | 27541m | 5.2m/s | -46.5°C | 3% | 18.1hPa | 2.7V | 08:30:00 | 02:01:27 | 00:00:00 | |
| DO2JMG | 2026-09-04 12:19:56 | 51.45339 | 8.81618 | 95° | 11km/h | 27564m | 4.6m/s | -46.5°C | 0% | 18.1hPa | 2.5V | 18:12:15 | 02:01:31 | 00:00:00 | |
| DM0DOS-11 | 2026-09-04 12:19:55 | 51.45340 | 8.81609 | 108° | 15km/h | 27552m | 6.3m/s | -46.5°C | 3% | 18.1hPa | 2.6V | 08:30:00 | 02:01:29 | 00:00:00 | |
| HSKMA3-T | 2026-09-04 12:19:55 | 51.45339 | 8.81614 | 102° | 11km/h | 27559m | 5.9m/s | -46.6°C | 0.1% | 18.1hPa | 2.5V | 18:12:15 | 02:01:30 | 00:00:00 | |
| DB0DAN | 2026-09-04 12:19:55 | 51.45339 | 8.81614 | 102° | 11km/h | 27558m | 5.9m/s | -46.6°C | 0.8% | 18.1hPa | 2.5V | 00:00:00 | 00:00:00 | 00:00:00 | |
| DL1XH-west | 2026-09-04 12:19:52 | 51.45343 | 8.81597 | 111° | 16km/h | 27541m | 5.2m/s | -46.5°C | 0% | 18.1hPa | 2.7V | 18:12:15 | 02:01:27 | 00:00:00 | |
| DF8AY | 2026-09-04 12:19:51 | 51.45344 | 8.81591 | 108° | 15km/h | 27535m | 6.4m/s | -46.5°C | 0% | 18.2hPa | 2.7V | 18:12:15 | 02:01:26 | 00:00:00 | |
| SO1NDE-10 | 2026-09-04 12:19:51 | 51.45344 | 8.81591 | 108° | 20km/h | 27536m | 6.3m/s | -46.4°C | 3.0% | 18.1hPa | 2.5V | 00:00:00 | 02:01:26 | 00:00:00 | |
| SP3BTT-10 | 2026-09-04 12:19:50 | 51.45345 | 8.81585 | 102° | 11km/h | 27530m | 5.5m/s | 0°C | 0% | 0hPa | 2.5V | 00:00:00 | 00:00:00 | 00:00:00 | |
| GOEST3-10 | 2026-09-04 12:19:49 | 51.45346 | 8.81580 | 102° | 16km/h | 27525m | 4.6m/s | -46.5°C | 3.0% | 18.1hPa | 2.5V | 00:00:00 | 02:01:24 | 00:00:00 | |
| DO3DL | 2026-09-04 12:19:47 | 51.45347 | 8.81575 | 109° | 15km/h | 27519m | 6.0m/s | -46.5°C | 0.7% | 18.2hPa | 2.6V | 00:00:00 | 00:00:00 | 00:00:00 | |
| DL1XH-15 | 2026-09-04 12:19:46 | 51.45351 | 8.81540 | 71° | 15km/h | 27485m | 4.5m/s | -46.4°C | 3% | 18.3hPa | 2.6V | 08:30:00 | 02:01:17 | 00:00:00 | |
| BIOWL1-15 | 2026-09-04 12:19:46 | 51.45351 | 8.81540 | 71° | 15km/h | 27485m | 4.5m/s | -46.4°C | 0% | 18.3hPa | 2.6V | 18:12:15 | 02:01:17 | 00:00:00 | |
| DJ2KF-10 | 2026-09-04 12:19:46 | 51.45349 | 8.81562 | 113° | 20km/h | 27507m | 5.3m/s | -46.4°C | 3.0% | 18.2hPa | 2.5V | 00:00:00 | 02:01:21 | 00:00:00 | |
| DM0DOS-11 | 2026-09-04 12:19:45 | 51.45352 | 8.81551 | 96° | 13km/h | 27496m | 6.4m/s | -46.4°C | 3% | 18.2hPa | 2.5V | 08:30:00 | 02:01:19 | 00:00:00 | |
| HSKMA3-T | 2026-09-04 12:19:45 | 51.45351 | 8.81556 | 109° | 16km/h | 27502m | 5.1m/s | -46.4°C | 0% | 18.3hPa | 2.7V | 18:12:15 | 02:01:20 | 00:00:00 | |
| AA1-15 | 2026-09-04 12:19:44 | 51.45352 | 8.81550 | 97° | 13km/h | 27496m | 6.4m/s | -46.4°C | 0.1% | 18.3hPa | 2.5V | 18:12:15 | 02:01:19 | 00:00:00 | |
| GOEST3-10 | 2026-09-04 12:19:44 | 51.45352 | 8.81550 | 97° | 16km/h | 27496m | 6.4m/s | -46.4°C | 3.0% | 18.2hPa | 2.7V | 00:00:00 | 00:00:00 | 00:00:00 | |
| DL4BBY-15 | 2026-09-04 12:19:43 | 51.45352 | 8.81545 | 79° | 20km/h | 27490m | 5.5m/s | -47.1°C | 0% | 0hPa | 2.7V | 00:00:00 | 00:00:00 | 00:00:00 | |
| DL1NUX | 2026-09-04 12:19:42 | 51.45350 | 8.81533 | 72° | 18km/h | 27480m | 6m/s | -46.4°C | 3% | 18.3hPa | 2.7V | 08:30:00 | 02:01:16 | 00:00:00 | |
| DL1XH-west | 2026-09-04 12:19:41 | 51.45350 | 8.81533 | 73° | 18km/h | 27480m | 6m/s | -46.4°C | 0% | 18.3hPa | 2.7V | 18:12:15 | 02:01:16 | 00:00:00 | |
| DF8AY | 2026-09-04 12:19:40 | 51.45348 | 8.81526 | 79° | 22km/h | 27474m | 6.1m/s | -46.4°C | 0% | 18.4hPa | 2.7V | 18:12:15 | 02:01:15 | 00:00:00 | |
| DJ8HS-15 | 2026-09-04 12:19:40 | 51.45348 | 8.81525 | 80° | 22km/h | 27474m | 6.1m/s | -46.3°C | 3.0% | 18.3hPa | 2.7V | 00:00:00 | 02:01:15 | 00:00:00 | |
| DM0DOS-11 | 2026-09-04 12:19:39 | 51.45348 | 8.81475 | 100° | 18km/h | 27440m | 5.9m/s | -46.3°C | 2.9% | 18.4hPa | 2.7V | 08:30:00 | 02:01:09 | 00:00:00 | |
| GOEST3-10 | 2026-09-04 12:19:39 | 51.45348 | 8.81516 | 86° | 22km/h | 27468m | 5.4m/s | -46.2°C | 2.9% | 18.3hPa | 2.5V | 00:00:00 | 02:01:14 | 00:00:00 | |
| DJ2DS-15 | 2026-09-04 12:19:38 | 51.45347 | 8.81507 | 89° | 20km/h | 27463m | 5.1m/s | -46.2°C | 3.0% | 18.3hPa | 2.5V | 00:00:00 | 02:01:13 | 00:00:00 | |
| DL4XJ-10 | 2026-09-04 12:19:37 | 51.45347 | 8.81497 | 89° | 20km/h | 27457m | 6.3m/s | -47.0°C | 0% | 0hPa | 2.5V | 00:00:00 | 00:00:00 | 00:00:00 | |
| DL1XH-15 | 2026-09-04 12:19:36 | 51.45350 | 8.81460 | 105° | 20km/h | 27427m | 4.8m/s | -46.2°C | 2.9% | 18.5hPa | 2.5V | 08:30:00 | 02:01:07 | 00:00:00 | |
| BIOWL1-15 | 2026-09-04 12:19:35 | 51.45347 | 8.81482 | 95° | 16km/h | 27445m | 5m/s | -46.2°C | 0% | 18.4hPa | 2.7V | 18:12:15 | 02:01:10 | 00:00:00 | |
| AA1-15 | 2026-09-04 12:19:34 | 51.45348 | 8.81475 | 101° | 18km/h | 27440m | 5.9m/s | -46.3°C | 0% | 18.4hPa | 2.7V | 18:12:15 | 02:01:09 | 00:00:00 | |
| GOEST3-10 | 2026-09-04 12:19:34 | 51.45348 | 8.81475 | 101° | 20km/h | 27440m | 5.9m/s | -46.2°C | 2.9% | 18.4hPa | 2.7V | 00:00:00 | 00:00:00 | 00:00:00 | |
| DC6BW-12 | 2026-09-04 12:19:33 | 51.45348 | 8.81475 | 102° | 18km/h | 27440m | 5.9m/s | -46.3°C | 0.8% | 18.4hPa | 2.5V | 00:00:00 | 00:00:00 | 00:00:00 | |
| DL1NUX | 2026-09-04 12:19:32 | 51.45351 | 8.81452 | 99° | 20km/h | 27423m | 4.9m/s | -46.1°C | 2.9% | 18.5hPa | 2.5V | 08:30:00 | 02:01:06 | 00:00:00 | |
| DL1XH-west | 2026-09-04 12:19:31 | 51.45352 | 8.81452 | 100° | 20km/h | 27423m | 4.9m/s | -46.2°C | 0% | 18.5hPa | 2.5V | 18:12:15 | 02:01:06 | 00:00:00 | |
| DF8AY | 2026-09-04 12:19:30 | 51.45352 | 8.81444 | 88° | 18km/h | 27417m | 6.3m/s | -46.1°C | 0% | 18.5hPa | 2.5V | 18:12:15 | 02:01:05 | 00:00:00 | |
| DO3DL | 2026-09-04 12:19:29 | 51.45351 | 8.81437 | 73° | 18km/h | 27412m | 5.1m/s | -46.1°C | 0.7% | 18.5hPa | 2.7V | 00:00:00 | 00:00:00 | 00:00:00 | |
| DL1XH1-15 | 2026-09-04 12:19:27 | 51.45346 | 8.81420 | 64° | 26km/h | 27401m | 6.9m/s | -46.2°C | 2.8% | 18.5hPa | 2.7V | 08:30:00 | 02:01:02 | 00:00:00 | |
| DM0DOS-11 | 2026-09-04 12:19:27 | 51.45338 | 8.81386 | 69° | 29km/h | 27384m | 4.6m/s | -46.2°C | 2.9% | 18.6hPa | 2.6V | 08:30:00 | 02:00:59 | 00:00:00 | |
| BIOWL1-15 | 2026-09-04 12:19:25 | 51.45334 | 8.81367 | 69° | 20km/h | 27373m | 6.1m/s | -46.3°C | 0% | 18.6hPa | 2.7V | 18:12:15 | 02:00:57 | 00:00:00 | |
| DL3AQ-11 | 2026-09-04 12:19:25 | 51.45338 | 8.81386 | 69° | 29km/h | 27384m | 4.6m/s | -46.2°C | 0.7% | 18.6hPa | 2.7V | 00:00:00 | 00:00:00 | 00:00:00 | |
| GOEST3-10 | 2026-09-04 12:19:24 | 51.45338 | 8.81386 | 70° | 20km/h | 27384m | 4.5m/s | -46.2°C | 2.9% | 18.6hPa | 2.7V | 00:00:00 | 00:00:00 | 00:00:00 | |
| AA1-15 | 2026-09-04 12:19:24 | 51.45338 | 8.81386 | 70° | 29km/h | 27384m | 4.6m/s | -46.2°C | 0% | 18.6hPa | 2.6V | 18:12:15 | 02:00:59 | 00:00:00 | |
| DL1XH-15 | 2026-09-04 12:19:23 | 51.45333 | 8.81367 | 69° | 20km/h | 27373m | 6m/s | -46.3°C | 2.9% | 18.6hPa | 2.7V | 08:30:00 | 02:00:57 | 00:00:00 | |
| HSKMA3-T | 2026-09-04 12:19:23 | 51.45336 | 8.81376 | 70° | 26km/h | 27379m | 5.3m/s | -46.3°C | 0% | 18.6hPa | 2.7V | 18:12:15 | 02:00:58 | 00:00:00 | |
| DL1NUX | 2026-09-04 12:19:22 | 51.45332 | 8.81361 | 73° | 13km/h | 27368m | 5.4m/s | -46.3°C | 2.9% | 18.6hPa | 2.7V | 08:30:00 | 02:00:56 | 00:00:00 | |
| DL1XH-west | 2026-09-04 12:19:21 | 51.45332 | 8.81361 | 73° | 13km/h | 27368m | 5.4m/s | -46.3°C | 0% | 18.6hPa | 2.7V | 18:12:15 | 02:00:56 | 00:00:00 | |
| DF8AY | 2026-09-04 12:19:20 | 51.45332 | 8.81357 | 89° | 9km/h | 27363m | 4.7m/s | -46.3°C | 0% | 18.7hPa | 2.5V | 18:12:15 | 02:00:55 | 00:00:00 | |
| DJ8HS-15 | 2026-09-04 12:19:20 | 51.45332 | 8.81357 | 89° | 15km/h | 27363m | 4.6m/s | -46.2°C | 2.9% | 18.6hPa | 2.5V | 00:00:00 | 02:00:55 | 00:00:00 | |
| GOEST3-10 | 2026-09-04 12:19:19 | 51.45332 | 8.81353 | 109° | 15km/h | 27358m | 5.8m/s | -46.2°C | 3.0% | 18.6hPa | 2.5V | 00:00:00 | 02:00:54 | 08:30:00 | |
| DL1CLM-18 | 2026-09-04 12:19:18 | 51.45332 | 8.81353 | 110° | 11km/h | 27358m | 5.9m/s | -46.3°C | 0.8% | 18.7hPa | 2.7V | 00:00:00 | 00:00:00 | 00:00:00 | |
| DL1XH1-15 | 2026-09-04 12:19:17 | 51.45335 | 8.81342 | 115° | 18km/h | 27345m | 5.4m/s | -46.4°C | 3% | 18.7hPa | 2.7V | 08:30:00 | 02:00:52 | 00:00:00 | |
| DL1XH-15 | 2026-09-04 12:19:17 | 51.45338 | 8.81309 | 78° | 20km/h | 27318m | 6m/s | -46.4°C | 3% | 18.8hPa | 2.6V | 08:30:00 | 02:00:47 | 00:00:00 | |
| DL4XJ-10 | 2026-09-04 12:19:17 | 51.45335 | 8.81342 | 116° | 16km/h | 27345m | 5.3m/s | -47.0°C | 0% | 0hPa | 2.7V | 00:00:00 | 00:00:00 | 00:00:00 | |
| DL1NUX | 2026-09-04 12:19:16 | 51.45337 | 8.81301 | 76° | 22km/h | 27311m | 6.3m/s | -46.4°C | 3% | 18.8hPa | 2.7V | 08:30:00 | 02:00:46 | 00:00:00 | |
| BIOWL1-15 | 2026-09-04 12:19:14 | 51.45339 | 8.81323 | 96° | 15km/h | 27328m | 5.8m/s | -46.5°C | 0% | 18.8hPa | 2.5V | 18:12:15 | 02:00:49 | 00:00:00 | |
| DO2JMG | 2026-09-04 12:19:13 | 51.45339 | 8.81316 | 84° | 16km/h | 27323m | 4.8m/s | -46.5°C | 0.1% | 18.8hPa | 2.5V | 18:12:15 | 02:00:48 | 00:00:00 | |
| HSKMA3-T | 2026-09-04 12:19:12 | 51.45338 | 8.81309 | 78° | 20km/h | 27318m | 6m/s | -46.4°C | 0% | 18.8hPa | 2.6V | 18:12:15 | 02:00:47 | 00:00:00 | |
| DL1XH-west | 2026-09-04 12:19:10 | 51.45336 | 8.81292 | 74° | 24km/h | 27306m | 4.6m/s | -46.4°C | 0% | 18.8hPa | 2.7V | 18:12:15 | 02:00:45 | 00:00:00 | |
| DB0DAN | 2026-09-04 12:19:10 | 51.45336 | 8.81292 | 74° | 22km/h | 27306m | 4.6m/s | -46.4°C | 0.8% | 18.79hPa | 2.7V | 00:00:00 | 00:00:00 | 00:00:00 | |
| BIOWL1-15 | 2026-09-04 12:19:09 | 51.45323 | 8.81225 | 44° | 22km/h | 27237m | 5m/s | -46.5°C | 0% | 19hPa | 2.7V | 18:12:15 | 02:00:32 | 00:00:00 | |
| DF8AY | 2026-09-04 12:19:09 | 51.45334 | 8.81284 | 72° | 20km/h | 27302m | 4.3m/s | -46.4°C | 0% | 18.8hPa | 2.7V | 18:12:15 | 02:00:44 | 00:00:00 | |
| GOEST3-10 | 2026-09-04 12:19:09 | 51.45334 | 8.81284 | 73° | 9km/h | 27302m | 4.2m/s | -46.3°C | 3.0% | 18.8hPa | 2.5V | 00:00:00 | 02:00:44 | 00:00:00 | |
| NBG1-10 | 2026-09-04 12:19:08 | 51.45332 | 8.81277 | 71° | 13km/h | 27297m | 5.9m/s | -46.4°C | 3.0% | 18.8hPa | 2.5V | 00:00:00 | 02:00:43 | 00:00:00 | |
| DL1ZP-14 | 2026-09-04 12:19:07 | 51.45331 | 8.81272 | 62° | 9km/h | 27290m | 6.8m/s | -46.4°C | 0.8% | 18.9hPa | 2.5V | 00:00:00 | 00:00:00 | 00:00:00 | |
| DL1XH-15 | 2026-09-04 12:19:06 | 51.45333 | 8.81263 | 100° | 15km/h | 27264m | 5.4m/s | -46.4°C | 3% | 18.9hPa | 2.5V | 08:30:00 | 02:00:37 | 00:00:00 | |
| DO2JMG | 2026-09-04 12:19:03 | 51.45332 | 8.81267 | 120° | 9km/h | 27269m | 5.8m/s | -46.4°C | 0% | 18.9hPa | 2.7V | 18:12:15 | 02:00:38 | 00:00:00 | |
| DL1XH1-15 | 2026-09-04 12:19:02 | 51.45323 | 8.81225 | 44° | 22km/h | 27237m | 5m/s | -46.5°C | 3% | 19hPa | 2.7V | 08:30:00 | 02:00:32 | 00:00:00 | |
| DL1NUX | 2026-09-04 12:19:02 | 51.45333 | 8.81256 | 85° | 20km/h | 27259m | 4.8m/s | -46.4°C | 3% | 18.9hPa | 2.5V | 08:30:00 | 02:00:36 | 00:00:00 | |
| HSKMA3-T | 2026-09-04 12:19:02 | 51.45333 | 8.81263 | 100° | 15km/h | 27264m | 5.4m/s | -46.4°C | 0% | 18.9hPa | 2.5V | 18:12:15 | 02:00:37 | 00:00:00 | |
| DL1XH-west | 2026-09-04 12:19:00 | 51.45332 | 8.81248 | 74° | 22km/h | 27254m | 5.3m/s | -46.4°C | 0% | 19hPa | 2.6V | 18:12:15 | 02:00:35 | 00:00:00 | |
| DF8AY | 2026-09-04 12:18:58 | 51.45327 | 8.81231 | 51° | 24km/h | 27242m | 5.6m/s | -46.4°C | 0% | 19hPa | 2.7V | 18:12:15 | 02:00:33 | 00:00:00 | |
| DL3AQ-11 | 2026-09-04 12:18:58 | 51.45320 | 8.81219 | 43° | 16km/h | 27232m | 5.0m/s | -46.5°C | 0.8% | 19.0hPa | 2.7V | 00:00:00 | 00:00:00 | 00:00:00 | |
| BUE01 | 2026-09-04 12:18:56 | 51.45320 | 8.81219 | 43° | 16km/h | 27232m | 5.0m/s | -46.5°C | 0.8% | 19.0hPa | 2.7V | 00:00:00 | 00:00:00 | 00:00:00 | |
| SONDE2-11 | 2026-09-04 12:18:55 | 51.45315 | 8.81210 | 67° | 11km/h | 27221m | 5.4m/s | -46.3°C | 0.8% | 19.1hPa | 2.7V | 00:00:00 | 00:00:00 | 00:00:00 | |
| DB0DAN | 2026-09-04 12:18:55 | 51.45317 | 8.81214 | 51° | 15km/h | 27227m | 6.1m/s | -46.5°C | 0.8% | 19.04hPa | 2.5V | 00:00:00 | 00:00:00 | 00:00:00 | |
| GOEST3-10 | 2026-09-04 12:18:54 | 51.45315 | 8.81210 | 68° | 11km/h | 27221m | 5.3m/s | -46.3°C | 3.0% | 19.0hPa | 2.7V | 00:00:00 | 00:00:00 | 00:00:00 | |
| DL1XH-15 | 2026-09-04 12:18:53 | 51.45314 | 8.81201 | 75° | 11km/h | 27211m | 5.1m/s | -46.3°C | 2.9% | 19.1hPa | 2.7V | 08:30:00 | 02:00:27 | 00:00:00 | |
| DO2JMG | 2026-09-04 12:18:53 | 51.45314 | 8.81206 | 80° | 11km/h | 27216m | 4.4m/s | -46.3°C | 0% | 19.1hPa | 2.7V | 18:12:15 | 02:00:28 | 00:00:00 | |
| DL1NUX | 2026-09-04 12:18:52 | 51.45313 | 8.81197 | 59° | 11km/h | 27206m | 6.2m/s | -46.3°C | 2.9% | 19.1hPa | 2.7V | 08:30:00 | 02:00:26 | 00:00:00 | |
| HSKMA3-T | 2026-09-04 12:18:52 | 51.45313 | 8.81197 | 59° | 11km/h | 27206m | 6.2m/s | -46.3°C | 0% | 19.1hPa | 2.7V | 18:12:15 | 02:00:26 | 00:00:00 | |
| DL1XH-west | 2026-09-04 12:18:49 | 51.45305 | 8.81185 | 44° | 18km/h | 27188m | 5.4m/s | -46.4°C | 0% | 19.1hPa | 2.6V | 18:12:15 | 02:00:23 | 00:00:00 | |
| DF8AY | 2026-09-04 12:18:47 | 51.45294 | 8.81161 | 50° | 18km/h | 27166m | 6.7m/s | -46.2°C | 0% | 19.2hPa | 2.5V | 18:12:15 | 02:00:19 | 00:00:00 | |
| AU51GT2 | 2026-09-04 12:18:47 | 51.45302 | 8.81180 | 51° | 16km/h | 27182m | 6.5m/s | -46.4°C | 0.7% | 19.2hPa | 2.7V | 00:00:00 | 00:00:00 | 00:00:00 | |
| HTAHTA | 2026-09-04 12:18:44 | 51.45294 | 8.81161 | 50° | 18km/h | 27166m | 6.7m/s | -46.2°C | 0.8% | 19.2hPa | 2.7V | 00:00:00 | 00:00:00 | 00:00:00 | |
| DL4BBY-15 | 2026-09-04 12:18:43 | 51.45290 | 8.81156 | 40° | 9km/h | 27160m | 5.8m/s | -46.8°C | 0% | 0hPa | 2.7V | 00:00:00 | 00:00:00 | 00:00:00 | |
| DL1NUX | 2026-09-04 12:18:42 | 51.45285 | 8.81150 | 35° | 11km/h | 27149m | 5.6m/s | -46.1°C | 2.9% | 19.3hPa | 2.7V | 08:30:00 | 02:00:16 | 00:00:00 | |
| DO2JMG | 2026-09-04 12:18:42 | 51.45287 | 8.81152 | 33° | 15km/h | 27154m | 4.8m/s | -46.1°C | 0% | 19.2hPa | 2.6V | 18:12:15 | 02:00:17 | 00:00:00 | |
| HSKMA3-T | 2026-09-04 12:18:40 | 51.45283 | 8.81147 | 53° | 7km/h | 27143m | 6.4m/s | -46.1°C | 0% | 19.3hPa | 2.7V | 18:12:15 | 02:00:15 | 00:00:00 | |
| DL1XH-west | 2026-09-04 12:18:38 | 51.45282 | 8.81143 | 87° | 5km/h | 27132m | 4.7m/s | -46.1°C | 0% | 19.3hPa | 2.5V | 18:12:15 | 02:00:13 | 00:00:00 | |
| DF8AY | 2026-09-04 12:18:37 | 51.45282 | 8.81141 | 62° | 5km/h | 27127m | 6.2m/s | -46.2°C | 0% | 19.4hPa | 2.5V | 18:12:15 | 02:00:12 | 00:00:00 | |
| DL4XJ-10 | 2026-09-04 12:18:37 | 51.45282 | 8.81140 | 63° | 9km/h | 27127m | 6.2m/s | -46.8°C | 0% | 0hPa | 2.7V | 00:00:00 | 00:00:00 | 00:00:00 | |
| DJ2DS-15 | 2026-09-04 12:18:36 | 51.45280 | 8.81138 | 36° | 9km/h | 27121m | 6.2m/s | -46.2°C | 2.9% | 19.3hPa | 2.7V | 00:00:00 | 02:00:11 | 00:00:00 | |
| NBG1-10 | 2026-09-04 12:18:35 | 51.45278 | 8.81136 | 28° | 7km/h | 27115m | 5.2m/s | -46.2°C | 2.9% | 19.3hPa | 2.7V | 00:00:00 | 02:00:10 | 08:30:00 | |
| GOEST3-10 | 2026-09-04 12:18:34 | 51.45275 | 8.81134 | 30° | 15km/h | 27110m | 5.1m/s | -46.3°C | 2.9% | 19.3hPa | 2.7V | 00:00:00 | 00:00:00 | 08:30:00 | |
| DL3AQ-11 | 2026-09-04 12:18:33 | 51.45273 | 8.81131 | 37° | 13km/h | 27104m | 5.7m/s | -46.4°C | 0.8% | 19.4hPa | 2.5V | 00:00:00 | 00:00:00 | 00:00:00 | |
| DL1NUX | 2026-09-04 12:18:32 | 51.45268 | 8.81122 | 59° | 15km/h | 27093m | 4.5m/s | -46.3°C | 3% | 19.4hPa | 2.5V | 08:30:00 | 02:00:06 | 00:00:00 | |
| DO2JMG | 2026-09-04 12:18:31 | 51.45268 | 8.81122 | 60° | 15km/h | 27093m | 4.5m/s | -46.3°C | 0% | 19.4hPa | 2.5V | 18:12:15 | 02:00:06 | 00:00:00 | |
| HSKMA3-T | 2026-09-04 12:18:30 | 51.45266 | 8.81117 | 59° | 15km/h | 27088m | 4.4m/s | -46.3°C | 0% | 19.4hPa | 2.6V | 18:12:15 | 02:00:05 | 00:00:00 | |
| GOEST3-10 | 2026-09-04 12:18:29 | 51.45264 | 8.81112 | 49° | 13km/h | 27084m | 5.2m/s | -46.2°C | 2.9% | 19.4hPa | 2.6V | 00:00:00 | 02:00:04 | 00:00:00 | |
| DM0DOS-11 | 2026-09-04 12:18:28 | 51.45251 | 8.81111 | 309° | 7km/h | 27057m | 6.1m/s | -46.2°C | 2.9% | 19.6hPa | 2.6V | 08:30:00 | 01:59:59 | 00:00:00 | |
| DL1XH-west | 2026-09-04 12:18:28 | 51.45261 | 8.81109 | 30° | 13km/h | 27078m | 6.3m/s | -46.2°C | 0% | 19.5hPa | 2.7V | 18:12:15 | 02:00:03 | 00:00:00 | |
| DF8AY | 2026-09-04 12:18:26 | 51.45255 | 8.81107 | 346° | 11km/h | 27067m | 4.4m/s | -46.2°C | 0% | 19.5hPa | 2.5V | 18:12:15 | 02:00:01 | 00:00:00 | |
| DL1XH-15 | 2026-09-04 12:18:26 | 51.45250 | 8.81114 | 279° | 4km/h | 27046m | 4.8m/s | -46.2°C | 2.9% | 19.6hPa | 2.7V | 08:30:00 | 01:59:57 | 00:00:00 | |
| DO2JMG | 2026-09-04 12:18:21 | 51.45250 | 8.81116 | 312° | 4km/h | 27041m | 6.5m/s | -46.3°C | 0% | 19.6hPa | 2.7V | 18:12:15 | 01:59:56 | 00:00:00 | |
| HSKMA3-T | 2026-09-04 12:18:20 | 51.45249 | 8.81117 | 340° | 5km/h | 27035m | 5.4m/s | -46.3°C | 0% | 19.6hPa | 2.5V | 18:12:15 | 01:59:55 | 00:00:00 | |
| DL1XH-west | 2026-09-04 12:18:18 | 51.45246 | 8.81117 | 8° | 4km/h | 27024m | 5.9m/s | -46.5°C | 0% | 19.6hPa | 2.5V | 18:12:15 | 01:59:53 | 00:00:00 | |
| DF8AY | 2026-09-04 12:18:16 | 51.45245 | 8.81116 | 16° | 2km/h | 27012m | 4.9m/s | -46.7°C | 0% | 19.7hPa | 2.7V | 18:12:15 | 01:59:51 | 00:00:00 | |
| DJ2KF-10 | 2026-09-04 12:18:16 | 51.45245 | 8.81116 | 17° | 9km/h | 27013m | 4.9m/s | -46.6°C | 2.8% | 19.6hPa | 2.7V | 00:00:00 | 01:59:51 | 00:00:00 | |
| DF2AP-13 | 2026-09-04 12:18:15 | 51.45245 | 8.81116 | 356° | 9km/h | 27008m | 4.4m/s | -46.7°C | 2.9% | 19.6hPa | 2.7V | 00:00:00 | 01:59:50 | 00:00:00 | |
| GOEST3-10 | 2026-09-04 12:18:14 | 51.45243 | 8.81117 | 352° | 9km/h | 27003m | 6.4m/s | -46.9°C | 2.9% | 19.7hPa | 2.7V | 00:00:00 | 00:00:00 | 00:00:00 | |
| HTAHTA | 2026-09-04 12:18:13 | 51.45239 | 8.81119 | 339° | 11km/h | 26991m | 5.2m/s | -47.1°C | 0.8% | 19.7hPa | 2.7V | 00:00:00 | 00:00:00 | 00:00:00 | |
| DL1XH1-15 | 2026-09-04 12:18:12 | 51.45231 | 8.81131 | 304° | 7km/h | 26963m | 6.3m/s | -47.3°C | 3% | 19.8hPa | 2.7V | 08:30:00 | 01:59:42 | 00:00:00 | |
| DL1NUX | 2026-09-04 12:18:12 | 51.45236 | 8.81121 | 329° | 11km/h | 26985m | 5.8m/s | -47.1°C | 3% | 19.7hPa | 2.7V | 08:30:00 | 01:59:46 | 00:00:00 | |
| BIOWL1-15 | 2026-09-04 12:18:11 | 51.45236 | 8.81121 | 330° | 11km/h | 26985m | 5.8m/s | -47.2°C | 0% | 19.7hPa | 2.7V | 18:12:15 | 01:59:46 | 00:00:00 | |
| DO2JMG | 2026-09-04 12:18:10 | 51.45234 | 8.81123 | 314° | 9km/h | 26979m | 5.9m/s | -47.2°C | 0.1% | 19.8hPa | 2.7V | 18:12:15 | 01:59:45 | 00:00:00 | |
| DB0ND-19 | 2026-09-04 12:18:10 | 51.45233 | 8.81126 | 299° | 7km/h | 26974m | 5.0m/s | -47.3°C | 0.8% | 19.8hPa | 2.6V | 00:00:00 | 00:00:00 | 00:00:00 | |
| DM0DOS-11 | 2026-09-04 12:18:09 | 51.45228 | 8.81139 | 272° | 5km/h | 26946m | 6.3m/s | -47.2°C | 3.1% | 19.9hPa | 2.6V | 08:30:00 | 01:59:39 | 00:00:00 | |
| HSKMA3-T | 2026-09-04 12:18:09 | 51.45233 | 8.81126 | 300° | 7km/h | 26974m | 5m/s | -47.3°C | 0.1% | 19.8hPa | 2.5V | 18:12:15 | 01:59:44 | 00:00:00 | |
| DL1XH-west | 2026-09-04 12:18:07 | 51.45231 | 8.81131 | 305° | 7km/h | 26963m | 6.3m/s | -47.3°C | 0.1% | 19.8hPa | 2.7V | 18:12:15 | 01:59:42 | 00:00:00 | |
| DF8AY | 2026-09-04 12:18:05 | 51.45229 | 8.81136 | 297° | 7km/h | 26952m | 4.8m/s | -47.2°C | 0.1% | 19.9hPa | 2.5V | 18:12:15 | 01:59:40 | 00:00:00 | |
| DL3AQ-11 | 2026-09-04 12:18:05 | 51.45228 | 8.81139 | 272° | 5km/h | 26946m | 6.3m/s | -47.2°C | 0.8% | 19.9hPa | 2.6V | 00:00:00 | 00:00:00 | 00:00:00 | |
| GOEST3-10 | 2026-09-04 12:18:04 | 51.45228 | 8.81139 | 273° | 7km/h | 26946m | 6.3m/s | -47.2°C | 3.1% | 19.8hPa | 2.6V | 00:00:00 | 00:00:00 | 00:00:00 | |
| DL1NUX | 2026-09-04 12:18:02 | 51.45230 | 8.81147 | 267° | 9km/h | 26930m | 5.3m/s | -47.3°C | 3.1% | 19.9hPa | 2.5V | 08:30:00 | 01:59:36 | 00:00:00 | |
| BIOWL1-15 | 2026-09-04 12:18:01 | 51.45230 | 8.81147 | 268° | 9km/h | 26930m | 5.3m/s | -47.3°C | 0.1% | 19.9hPa | 2.5V | 18:12:15 | 01:59:36 | 00:00:00 | |
| DO2JMG | 2026-09-04 12:18:00 | 51.45229 | 8.81151 | 295° | 9km/h | 26924m | 6.7m/s | -47.2°C | 0.1% | 19.9hPa | 2.6V | 18:12:15 | 01:59:35 | 00:00:00 | |
| DJ8HS-15 | 2026-09-04 12:18:00 | 51.45229 | 8.81151 | 295° | 9km/h | 26925m | 6.7m/s | -47.2°C | 3.1% | 19.9hPa | 2.5V | 00:00:00 | 01:59:35 | 00:00:00 | |
| DL1XH1-15 | 2026-09-04 12:17:59 | 51.45222 | 8.81161 | 325° | 13km/h | 26908m | 5.3m/s | -47.2°C | 3.1% | 20hPa | 2.5V | 08:30:00 | 01:59:32 | 00:00:00 | |
| HSKMA3-T | 2026-09-04 12:17:58 | 51.45225 | 8.81158 | 326° | 15km/h | 26913m | 4.7m/s | -47.2°C | 0.1% | 20hPa | 2.7V | 18:12:15 | 01:59:33 | 00:00:00 | |
| DL1XH-west | 2026-09-04 12:17:56 | 51.45220 | 8.81164 | 321° | 11km/h | 26902m | 5.9m/s | -47.2°C | 0.1% | 20hPa | 2.5V | 18:12:15 | 01:59:31 | 00:00:00 | |
| HARRO8 | 2026-09-04 12:17:56 | 51.45218 | 8.81166 | 312° | 7km/h | 26897m | 5.2m/s | -47.2°C | 0.8% | 20.0hPa | 2.7V | 00:00:00 | 00:00:00 | 00:00:00 | |
| DM0DOS-11 | 2026-09-04 12:17:55 | 51.45216 | 8.81169 | 308° | 7km/h | 26892m | 4.7m/s | -47.2°C | 3.1% | 20.1hPa | 2.7V | 08:30:00 | 01:59:29 | 00:00:00 | |
| DF8AY | 2026-09-04 12:17:54 | 51.45216 | 8.81169 | 308° | 7km/h | 26892m | 4.7m/s | -47.2°C | 0.1% | 20.1hPa | 2.7V | 18:12:15 | 01:59:29 | 00:00:00 | |
| SONDE2-11 | 2026-09-04 12:17:53 | 51.45213 | 8.81173 | 334° | 7km/h | 26880m | 5.8m/s | -47.1°C | 0.8% | 20.1hPa | 2.6V | 00:00:00 | 00:00:00 | 00:00:00 | |
| DL1NUX | 2026-09-04 12:17:52 | 51.45212 | 8.81174 | 357° | 5km/h | 26875m | 4.8m/s | -47.1°C | 3.1% | 20.1hPa | 2.6V | 08:30:00 | 01:59:26 | 00:00:00 | |
| DO2JMG | 2026-09-04 12:17:50 | 51.45210 | 8.81173 | 36° | 4km/h | 26869m | 6m/s | -47.2°C | 0.1% | 20.1hPa | 2.7V | 18:12:15 | 01:59:25 | 00:00:00 | |
| AA1-15 | 2026-09-04 12:17:49 | 51.45210 | 8.81172 | 93° | 5km/h | 26863m | 6.5m/s | -47.2°C | 0.1% | 20.1hPa | 2.7V | 18:12:15 | 01:59:24 | 00:00:00 | |
| EDDB2-12 | 2026-09-04 12:17:49 | 51.45210 | 8.81172 | 92° | 5km/h | 26863m | 6.5m/s | -47.2°C | 0.8% | 20.1hPa | 2.5V | 00:00:00 | 00:00:00 | 00:00:00 | |
| DD1CC8 | 2026-09-04 12:17:48 | 51.45210 | 8.81169 | 102° | 7km/h | 26857m | 5.3m/s | -47.2°C | 0.8% | 20.1hPa | 2.5V | 00:00:00 | 00:00:00 | 00:00:00 | |
| DM0DOS-11 | 2026-09-04 12:17:48 | 51.45208 | 8.81155 | 53° | 7km/h | 26835m | 4.7m/s | -47.1°C | 3.1% | 20.2hPa | 2.7V | 08:30:00 | 01:59:19 | 00:00:00 | |
| DL1XH1-15 | 2026-09-04 12:17:47 | 51.45211 | 8.81165 | 92° | 9km/h | 26852m | 5.6m/s | -47.2°C | 3.1% | 20.2hPa | 2.5V | 08:30:00 | 01:59:22 | 00:00:00 | |
| HSKMA3-T | 2026-09-04 12:17:47 | 51.45211 | 8.81165 | 93° | 9km/h | 26852m | 5.6m/s | -47.2°C | 0.1% | 20.2hPa | 2.5V | 18:12:15 | 01:59:22 | 00:00:00 | |
| DL1XH-west | 2026-09-04 12:17:46 | 51.45210 | 8.81161 | 76° | 9km/h | 26846m | 6.1m/s | -47.2°C | 0.1% | 20.2hPa | 2.5V | 18:12:15 | 01:59:21 | 00:00:00 | |
| AU51GT2 | 2026-09-04 12:17:45 | 51.45209 | 8.81158 | 57° | 7km/h | 26840m | 5.1m/s | -47.1°C | 0.8% | 20.2hPa | 2.7V | 00:00:00 | 00:00:00 | 00:00:00 | |
| DF8AY | 2026-09-04 12:17:43 | 51.45207 | 8.81153 | 59° | 5km/h | 26830m | 6.5m/s | -47.2°C | 0.1% | 20.2hPa | 2.7V | 18:12:15 | 01:59:18 | 00:00:00 | |
| DL4BBY-15 | 2026-09-04 12:17:43 | 51.45207 | 8.81153 | 60° | 9km/h | 26830m | 6.5m/s | -47.8°C | 0% | 0hPa | 2.7V | 00:00:00 | 00:00:00 | 00:00:00 | |
| DL1XH1-15 | 2026-09-04 12:17:42 | 51.45202 | 8.81152 | 10° | 2km/h | 26796m | 5.2m/s | -47°C | 3.1% | 20.3hPa | 2.7V | 08:30:00 | 01:59:12 | 00:00:00 | |
| DO2JMG | 2026-09-04 12:17:40 | 51.45206 | 8.81150 | 346° | 4km/h | 26812m | 6.7m/s | -47.2°C | 0.1% | 20.3hPa | 2.6V | 18:12:15 | 01:59:15 | 00:00:00 | |
| BIOWL1-15 | 2026-09-04 12:17:39 | 51.45204 | 8.81151 | 340° | 7km/h | 26806m | 5.6m/s | -47.1°C | 0.1% | 20.3hPa | 2.6V | 18:12:15 | 01:59:14 | 00:00:00 | |
| HSKMA3-T | 2026-09-04 12:17:37 | 51.45202 | 8.81152 | 11° | 2km/h | 26796m | 5.2m/s | -47°C | 0.1% | 20.4hPa | 2.7V | 18:12:15 | 01:59:12 | 00:00:00 | |
| DL4XJ-10 | 2026-09-04 12:17:37 | 51.45202 | 8.81152 | 11° | 11km/h | 26797m | 5.1m/s | -47.7°C | 0% | 0hPa | 2.7V | 00:00:00 | 00:00:00 | 00:00:00 | |
| DL1XH-15 | 2026-09-04 12:17:36 | 51.45208 | 8.81134 | 102° | 15km/h | 26769m | 6.4m/s | -46.9°C | 3% | 20.4hPa | 2.7V | 08:30:00 | 01:59:07 | 00:00:00 | |
| DL1XH-west | 2026-09-04 12:17:36 | 51.45202 | 8.81151 | 119° | 4km/h | 26791m | 6.7m/s | -47°C | 0.1% | 20.4hPa | 2.7V | 18:12:15 | 01:59:11 | 00:00:00 | |
| DF8AY | 2026-09-04 12:17:33 | 51.45207 | 8.81140 | 115° | 16km/h | 26774m | 4.7m/s | -46.9°C | 0% | 20.4hPa | 2.6V | 18:12:15 | 01:59:08 | 00:00:00 | |
| DL1XH1-15 | 2026-09-04 12:17:32 | 51.45206 | 8.81113 | 109° | 5km/h | 26739m | 5.4m/s | -46.9°C | 3% | 20.5hPa | 2.6V | 08:30:00 | 01:59:02 | 00:00:00 | |
| AA1-15 | 2026-09-04 12:17:29 | 51.45207 | 8.81119 | 69° | 11km/h | 26751m | 5.4m/s | -46.9°C | 0% | 20.5hPa | 2.5V | 18:12:15 | 01:59:04 | 00:00:00 | |
| DO2JMG | 2026-09-04 12:17:26 | 51.45207 | 8.81111 | 128° | 4km/h | 26734m | 5m/s | -46.9°C | 0% | 20.5hPa | 2.7V | 18:12:15 | 01:59:01 | 00:00:00 | |
| DL1XH-west | 2026-09-04 12:17:25 | 51.45207 | 8.81110 | 131° | 4km/h | 26729m | 6.5m/s | -46.9°C | 0% | 20.5hPa | 2.7V | 18:12:15 | 01:59:00 | 00:00:00 | |
| DL3AQ-11 | 2026-09-04 12:17:25 | 51.45207 | 8.81110 | 131° | 2km/h | 26729m | 6.5m/s | -46.9°C | 0.8% | 20.5hPa | 2.5V | 00:00:00 | 00:00:00 | 00:00:00 | |
| DL1XH-15 | 2026-09-04 12:17:24 | 51.45210 | 8.81105 | 130° | 9km/h | 26712m | 5.4m/s | -47.1°C | 3% | 20.6hPa | 2.5V | 08:30:00 | 01:58:57 | 00:00:00 | |
| DF8AY | 2026-09-04 12:17:22 | 51.45210 | 8.81105 | 131° | 9km/h | 26713m | 5.4m/s | -47.1°C | 0% | 20.6hPa | 2.5V | 18:12:15 | 01:58:57 | 00:00:00 | |
| AA1-15 | 2026-09-04 12:17:19 | 51.45217 | 8.81089 | 119° | 20km/h | 26696m | 4.8m/s | -47.3°C | 0.1% | 20.6hPa | 2.7V | 18:12:15 | 01:58:54 | 00:00:00 | |
| BIOWL1-15 | 2026-09-04 12:17:18 | 51.45219 | 8.81082 | 107° | 20km/h | 26690m | 6.1m/s | -47.3°C | 0% | 20.6hPa | 2.7V | 18:12:15 | 01:58:53 | 00:00:00 | |
| DL4XJ-10 | 2026-09-04 12:17:17 | 51.45220 | 8.81075 | 87° | 11km/h | 26685m | 6.0m/s | -48.0°C | 0% | 0hPa | 2.6V | 00:00:00 | 00:00:00 | 00:00:00 | |
| DL1XH-15 | 2026-09-04 12:17:16 | 51.45213 | 8.81065 | 286° | 7km/h | 26657m | 5.2m/s | -47.4°C | 3.1% | 20.8hPa | 2.6V | 08:30:00 | 01:58:47 | 00:00:00 | |
| DJ2DS-15 | 2026-09-04 12:17:16 | 51.45219 | 8.81069 | 63° | 9km/h | 26679m | 4.9m/s | -47.3°C | 3.0% | 20.6hPa | 2.7V | 00:00:00 | 01:58:51 | 00:00:00 | |
| DM0DOS-11 | 2026-09-04 12:17:15 | 51.45215 | 8.81063 | 19° | 7km/h | 26668m | 6.2m/s | -47.5°C | 3.1% | 20.7hPa | 2.7V | 08:30:00 | 01:58:49 | 00:00:00 | |
| HSKMA3-T | 2026-09-04 12:17:15 | 51.45217 | 8.81065 | 42° | 11km/h | 26674m | 4.8m/s | -47.4°C | 0.1% | 20.7hPa | 2.6V | 18:12:15 | 01:58:50 | 00:00:00 | |
| DF8AY | 2026-09-04 12:17:12 | 51.45212 | 8.81065 | 287° | 7km/h | 26657m | 5.2m/s | -47.4°C | 0.1% | 20.8hPa | 2.6V | 18:12:15 | 01:58:47 | 00:00:00 | |
| DL1NUX | 2026-09-04 12:17:12 | 51.45212 | 8.81067 | 275° | 7km/h | 26651m | 5.2m/s | -47.4°C | 3.1% | 20.8hPa | 2.6V | 08:30:00 | 01:58:46 | 00:00:00 | |
| AA1-15 | 2026-09-04 12:17:09 | 51.45212 | 8.81072 | 283° | 4km/h | 26640m | 5.4m/s | -47.4°C | 0.1% | 20.8hPa | 2.7V | 18:12:15 | 01:58:44 | 00:00:00 | |
| BIOWL1-15 | 2026-09-04 12:17:08 | 51.45212 | 8.81073 | 133° | 2km/h | 26635m | 4.6m/s | -47.5°C | 0.1% | 20.9hPa | 2.5V | 18:12:15 | 01:58:43 | 00:00:00 | |
| DB0ND-19 | 2026-09-04 12:17:08 | 51.45212 | 8.81071 | 129° | 7km/h | 26630m | 6.1m/s | -47.5°C | 0.8% | 20.9hPa | 2.7V | 00:00:00 | 00:00:00 | 00:00:00 | |
| DF7PN | 2026-09-04 12:17:07 | 51.45214 | 8.81068 | 127° | 13km/h | 26623m | 6.4m/s | -47.5°C | 0.8% | 20.9hPa | 2.7V | 00:00:00 | 00:00:00 | 00:00:00 | |
| DL1XH-15 | 2026-09-04 12:17:06 | 51.45219 | 8.81046 | 66° | 11km/h | 26603m | 5.6m/s | -47.6°C | 3.1% | 20.9hPa | 2.7V | 08:30:00 | 01:58:37 | 00:00:00 | |
| HSKMA3-T | 2026-09-04 12:17:05 | 51.45216 | 8.81063 | 122° | 18km/h | 26618m | 4.4m/s | -47.5°C | 0.1% | 20.9hPa | 2.7V | 18:12:15 | 01:58:40 | 00:00:00 | |
| DO2JMG | 2026-09-04 12:17:04 | 51.45218 | 8.81057 | 111° | 18km/h | 26614m | 4m/s | -47.5°C | 0.2% | 20.9hPa | 2.5V | 18:12:15 | 01:58:39 | 00:00:00 | |
| DF8AY | 2026-09-04 12:17:01 | 51.45217 | 8.81043 | 17° | 9km/h | 26597m | 5.2m/s | -47.5°C | 0.2% | 21hPa | 2.7V | 18:12:15 | 01:58:36 | 00:00:00 | |
| AA1-15 | 2026-09-04 12:16:59 | 51.45213 | 8.81046 | 304° | 11km/h | 26587m | 5.8m/s | -47.5°C | 0.1% | 21hPa | 2.6V | 18:12:15 | 01:58:34 | 00:00:00 | |
| DL3AQ-11 | 2026-09-04 12:16:58 | 51.45213 | 8.81054 | 244° | 11km/h | 26576m | 4.9m/s | -47.4°C | 0.8% | 21.0hPa | 2.7V | 00:00:00 | 00:00:00 | 00:00:00 | |
| DL1XH1-15 | 2026-09-04 12:16:57 | 51.45213 | 8.81054 | 244° | 13km/h | 26576m | 4.9m/s | -47.4°C | 3% | 21hPa | 2.7V | 08:30:00 | 01:58:32 | 00:00:00 | |
| BIOWL1-15 | 2026-09-04 12:16:57 | 51.45213 | 8.81054 | 244° | 13km/h | 26576m | 4.9m/s | -47.4°C | 0.1% | 21hPa | 2.7V | 18:12:15 | 01:58:32 | 00:00:00 | |
| DL4XJ-10 | 2026-09-04 12:16:57 | 51.45213 | 8.81054 | 245° | 9km/h | 26576m | 4.8m/s | -48.1°C | 0% | 0hPa | 2.7V | 00:00:00 | 00:00:00 | 00:00:00 | |
| DJ2DS-15 | 2026-09-04 12:16:56 | 51.45215 | 8.81058 | 225° | 9km/h | 26571m | 4.7m/s | -47.3°C | 3.1% | 21.0hPa | 2.7V | 00:00:00 | 01:58:31 | 08:30:00 | |
| DM0DOS-11 | 2026-09-04 12:16:55 | 51.45219 | 8.81061 | 172° | 7km/h | 26559m | 6.2m/s | -47.5°C | 3% | 21.1hPa | 2.6V | 08:30:00 | 01:58:29 | 00:00:00 | |
| DL1XH-15 | 2026-09-04 12:16:54 | 51.45222 | 8.81057 | 114° | 9km/h | 26548m | 5.2m/s | -47.6°C | 3% | 21.1hPa | 2.6V | 08:30:00 | 01:58:27 | 00:00:00 | |
| HSKMA3-T | 2026-09-04 12:16:54 | 51.45219 | 8.81061 | 172° | 7km/h | 26559m | 6.2m/s | -47.5°C | 0.1% | 21.1hPa | 2.6V | 18:12:15 | 01:58:29 | 00:00:00 | |
| DO2JMG | 2026-09-04 12:16:53 | 51.45220 | 8.81060 | 130° | 7km/h | 26553m | 5.7m/s | -47.5°C | 0.1% | 21.1hPa | 2.6V | 18:12:15 | 01:58:28 | 00:00:00 | |
| DL1NUX | 2026-09-04 12:16:52 | 51.45223 | 8.81054 | 117° | 11km/h | 26542m | 6m/s | -47.6°C | 3.1% | 21.1hPa | 2.7V | 08:30:00 | 01:58:26 | 00:00:00 | |
| DF8AY | 2026-09-04 12:16:52 | 51.45223 | 8.81054 | 117° | 11km/h | 26542m | 6m/s | -47.6°C | 0.1% | 21.1hPa | 2.7V | 18:12:15 | 01:58:26 | 00:00:00 | |
| SONDE2-11 | 2026-09-04 12:16:51 | 51.45224 | 8.81050 | 126° | 9km/h | 26536m | 5.8m/s | -47.6°C | 0.8% | 21.1hPa | 2.7V | 00:00:00 | 00:00:00 | 00:00:00 | |
| DL9SK-14 | 2026-09-04 12:16:50 | 51.45225 | 8.81048 | 137° | 5km/h | 26531m | 4.7m/s | -47.5°C | 0.8% | 21.2hPa | 2.7V | 00:00:00 | 00:00:00 | 00:00:00 | |
| DM0DOS-11 | 2026-09-04 12:16:49 | 51.45224 | 8.81057 | 265° | 11km/h | 26503m | 6.3m/s | -47.5°C | 3.1% | 21.2hPa | 2.7V | 08:30:00 | 01:58:19 | 00:00:00 | |
| BIOWL1-15 | 2026-09-04 12:16:48 | 51.45224 | 8.81053 | 288° | 9km/h | 26508m | 4.8m/s | -47.5°C | 0.1% | 21.2hPa | 2.7V | 18:12:15 | 01:58:20 | 00:00:00 | |
| AA1-15 | 2026-09-04 12:16:48 | 51.45226 | 8.81047 | 163° | 2km/h | 26526m | 5.5m/s | -47.5°C | 0.1% | 21.2hPa | 2.6V | 18:12:15 | 01:58:23 | 00:00:00 | |
| EDDB2-12 | 2026-09-04 12:16:47 | 51.45226 | 8.81048 | 307° | 4km/h | 26520m | 6.7m/s | -47.5°C | 0.8% | 21.2hPa | 2.7V | 00:00:00 | 00:00:00 | 00:00:00 | |
| DD1CC8 | 2026-09-04 12:16:46 | 51.45225 | 8.81050 | 304° | 7km/h | 26514m | 5.5m/s | -47.5°C | 0.8% | 21.2hPa | 2.7V | 00:00:00 | 00:00:00 | 00:00:00 | |
| AA1-15 | 2026-09-04 12:16:45 | 51.45233 | 8.81051 | 105° | 16km/h | 26465m | 5.4m/s | -47.6°C | 0.1% | 21.4hPa | 2.7V | 18:12:15 | 01:58:12 | 00:00:00 | |
| DL1XH-west | 2026-09-04 12:16:44 | 51.45224 | 8.81057 | 265° | 11km/h | 26503m | 6.3m/s | -47.5°C | 0.1% | 21.2hPa | 2.7V | 18:12:15 | 01:58:19 | 00:00:00 | |
| HSKMA3-T | 2026-09-04 12:16:43 | 51.45224 | 8.81060 | 236° | 11km/h | 26497m | 5.2m/s | -47.4°C | 0.1% | 21.3hPa | 2.7V | 18:12:15 | 01:58:18 | 00:00:00 | |
| DO2JMG | 2026-09-04 12:16:42 | 51.45226 | 8.81063 | 211° | 11km/h | 26493m | 4.2m/s | -47.4°C | 0.1% | 21.3hPa | 2.6V | 18:12:15 | 01:58:17 | 00:00:00 | |
| DB0UT-7 | 2026-09-04 12:16:42 | 51.45226 | 8.81063 | 212° | 9km/h | 26493m | 4.2m/s | -47.4°C | 3.1% | 21.2hPa | 2.7V | 00:00:00 | 00:00:00 | 00:00:00 | |
| DL1XH1-15 | 2026-09-04 12:16:41 | 51.45234 | 8.81051 | 104° | 16km/h | 26465m | 5.3m/s | -47.6°C | 3.1% | 21.4hPa | 2.7V | 08:30:00 | 01:58:12 | 00:00:00 | |
| DL1NUX | 2026-09-04 12:16:41 | 51.45229 | 8.81065 | 185° | 9km/h | 26488m | 5.3m/s | -47.5°C | 3.1% | 21.3hPa | 2.6V | 08:30:00 | 01:58:16 | 00:00:00 | |
| DF8AY | 2026-09-04 12:16:40 | 51.45230 | 8.81064 | 148° | 7km/h | 26482m | 6.2m/s | -47.5°C | 0.1% | 21.3hPa | 2.6V | 18:12:15 | 01:58:15 | 00:00:00 | |
| DB0DAN | 2026-09-04 12:16:40 | 51.45230 | 8.81064 | 148° | 7km/h | 26482m | 6.2m/s | -47.5°C | 0.8% | 21.34hPa | 2.6V | 00:00:00 | 00:00:00 | 00:00:00 | |
| HTAHTA | 2026-09-04 12:16:40 | 51.45232 | 8.81061 | 112° | 9km/h | 26476m | 6.0m/s | -47.6°C | 0.8% | 21.4hPa | 2.6V | 00:00:00 | 00:00:00 | 00:00:00 | |
| GOEST3-10 | 2026-09-04 12:16:39 | 51.45232 | 8.81061 | 113° | 15km/h | 26476m | 6.0m/s | -47.5°C | 3.1% | 21.3hPa | 2.6V | 00:00:00 | 01:58:14 | 00:00:00 | |
| DB0ND-19 | 2026-09-04 12:16:37 | 51.45235 | 8.81044 | 113° | 16km/h | 26459m | 6.3m/s | -47.7°C | 0.8% | 21.4hPa | 2.6V | 00:00:00 | 00:00:00 | 00:00:00 | |
| DJ2DS-15 | 2026-09-04 12:16:36 | 51.45235 | 8.81044 | 114° | 7km/h | 26459m | 6.3m/s | -47.6°C | 3.1% | 21.3hPa | 2.6V | 00:00:00 | 01:58:11 | 00:00:00 | |
| DM0DOS-11 | 2026-09-04 12:16:35 | 51.45239 | 8.81034 | 127° | 13km/h | 26448m | 4.6m/s | -47.6°C | 3.1% | 21.4hPa | 2.6V | 08:30:00 | 01:58:09 | 00:00:00 | |
| DL1XH-15 | 2026-09-04 12:16:35 | 51.45241 | 8.81028 | 123° | 4km/h | 26437m | 6.1m/s | -47.6°C | 3.1% | 21.5hPa | 2.7V | 08:30:00 | 01:58:07 | 00:00:00 | |
| DL1XH-west | 2026-09-04 12:16:34 | 51.45239 | 8.81034 | 127° | 13km/h | 26448m | 4.6m/s | -47.6°C | 0.1% | 21.4hPa | 2.6V | 18:12:15 | 01:58:09 | 00:00:00 | |
| HSKMA3-T | 2026-09-04 12:16:33 | 51.45240 | 8.81030 | 122° | 9km/h | 26443m | 6.4m/s | -47.6°C | 0.1% | 21.5hPa | 2.7V | 18:12:15 | 01:58:08 | 00:00:00 | |
| DO2JMG | 2026-09-04 12:16:31 | 51.45241 | 8.81028 | 264° | 2km/h | 26431m | 5.4m/s | -47.7°C | 0.1% | 21.5hPa | 2.7V | 18:12:15 | 01:58:06 | 00:00:00 | |
| DF8AY | 2026-09-04 12:16:29 | 51.45242 | 8.81033 | 246° | 9km/h | 26419m | 6.4m/s | -47.6°C | 0.1% | 21.6hPa | 2.6V | 18:12:15 | 01:58:04 | 00:00:00 | |
| DM0DOS-11 | 2026-09-04 12:16:29 | 51.45245 | 8.81037 | 84° | 9km/h | 26390m | 5.3m/s | -47.8°C | 3.1% | 21.6hPa | 2.6V | 08:30:00 | 01:57:59 | 00:00:00 | |
| GOEST3-10 | 2026-09-04 12:16:29 | 51.45242 | 8.81033 | 247° | 5km/h | 26419m | 6.4m/s | -47.5°C | 3.1% | 21.5hPa | 2.7V | 00:00:00 | 01:58:04 | 00:00:00 | |
| DL3OBA | 2026-09-04 12:16:28 | 51.45242 | 8.81033 | 247° | 9km/h | 26419m | 6.4m/s | -47.6°C | 0.8% | 21.6hPa | 2.7V | 00:00:00 | 00:00:00 | 00:00:00 | |
| DL1XH1-15 | 2026-09-04 12:16:27 | 51.45244 | 8.81039 | 237° | 5km/h | 26408m | 5.1m/s | -47.7°C | 3.1% | 21.6hPa | 2.7V | 08:30:00 | 01:58:02 | 00:00:00 | |
| AA1-15 | 2026-09-04 12:16:26 | 51.45245 | 8.81040 | 233° | 2km/h | 26402m | 6.7m/s | -47.7°C | 0.2% | 21.6hPa | 2.7V | 18:12:15 | 01:58:01 | 00:00:00 | |
| DB0DAN | 2026-09-04 12:16:25 | 51.45245 | 8.81040 | 71° | 4km/h | 26396m | 5.7m/s | -47.8°C | 0.8% | 21.6hPa | 2.6V | 00:00:00 | 00:00:00 | 00:00:00 | |
| DL1XH-15 | 2026-09-04 12:16:24 | 51.45245 | 8.81029 | 108° | 11km/h | 26379m | 6.3m/s | -47.7°C | 3.1% | 21.7hPa | 2.7V | 08:30:00 | 01:57:57 | 00:00:00 | |
| HSKMA3-T | 2026-09-04 12:16:22 | 51.45245 | 8.81029 | 108° | 11km/h | 26379m | 6.3m/s | -47.7°C | 0.1% | 21.7hPa | 2.7V | 18:12:15 | 01:57:57 | 00:00:00 | |
| DL1NUX | 2026-09-04 12:16:22 | 51.45246 | 8.81026 | 123° | 11km/h | 26373m | 4.9m/s | -47.8°C | 3.1% | 21.7hPa | 2.6V | 08:30:00 | 01:57:56 | 00:00:00 | |
| DO2JMG | 2026-09-04 12:16:20 | 51.45248 | 8.81023 | 135° | 7km/h | 26369m | 4.4m/s | -47.8°C | 0.1% | 21.7hPa | 2.6V | 18:12:15 | 01:57:55 | 00:00:00 | |
| DF8AY | 2026-09-04 12:16:19 | 51.45248 | 8.81021 | 132° | 4km/h | 26364m | 5.4m/s | -47.8°C | 0.1% | 21.7hPa | 2.7V | 18:12:15 | 01:57:54 | 00:00:00 | |
| DL9SK-14 | 2026-09-04 12:16:19 | 51.45248 | 8.81021 | 344° | 2km/h | 26358m | 6.2m/s | -47.7°C | 0.8% | 21.8hPa | 2.6V | 00:00:00 | 00:00:00 | 00:00:00 | |
| DL3AQ-11 | 2026-09-04 12:16:18 | 51.45247 | 8.81022 | 322° | 5km/h | 26352m | 5.6m/s | -47.7°C | 0.8% | 21.8hPa | 2.6V | 00:00:00 | 00:00:00 | 00:00:00 | |
| DL4XJ-10 | 2026-09-04 12:16:17 | 51.45247 | 8.81022 | 323° | 9km/h | 26352m | 5.6m/s | -48.4°C | 0% | 0hPa | 2.6V | 00:00:00 | 00:00:00 | 00:00:00 | |
| DL1XH-15 | 2026-09-04 12:16:16 | 51.45246 | 8.81042 | 245° | 9km/h | 26324m | 6m/s | -47.7°C | 3.1% | 21.9hPa | 2.6V | 08:30:00 | 01:57:47 | 00:00:00 | |
| AA1-15 | 2026-09-04 12:16:15 | 51.45245 | 8.81029 | 288° | 11km/h | 26341m | 6.6m/s | -47.8°C | 0.1% | 21.8hPa | 2.7V | 18:12:15 | 01:57:50 | 00:00:00 | |
| BIOWL1-15 | 2026-09-04 12:16:15 | 51.45245 | 8.81038 | 254° | 13km/h | 26329m | 4.7m/s | -47.8°C | 0.1% | 21.8hPa | 2.6V | 18:12:15 | 01:57:48 | 00:00:00 | |
| DF2AP-13 | 2026-09-04 12:16:15 | 51.45245 | 8.81029 | 288° | 7km/h | 26341m | 6.5m/s | -47.8°C | 3.1% | 21.7hPa | 2.7V | 00:00:00 | 01:57:50 | 00:00:00 | |
| DJ2KF-10 | 2026-09-04 12:16:14 | 51.45244 | 8.81033 | 267° | 5km/h | 26335m | 5.6m/s | -47.8°C | 3.1% | 21.8hPa | 2.7V | 00:00:00 | 01:57:49 | 00:00:00 | |
| DL4BBY-15 | 2026-09-04 12:16:13 | 51.45245 | 8.81038 | 254° | 7km/h | 26330m | 4.6m/s | -48.5°C | 0% | 0hPa | 2.6V | 00:00:00 | 00:00:00 | 00:00:00 | |
| DL1NUX | 2026-09-04 12:16:12 | 51.45247 | 8.81045 | 234° | 7km/h | 26318m | 6.2m/s | -47.7°C | 3.1% | 21.9hPa | 2.6V | 08:30:00 | 01:57:46 | 00:00:00 | |
| HSKMA3-T | 2026-09-04 12:16:12 | 51.45246 | 8.81043 | 245° | 11km/h | 26324m | 6m/s | -47.7°C | 0.1% | 21.9hPa | 2.6V | 18:12:15 | 01:57:47 | 00:00:00 | |
| DB0UT-7 | 2026-09-04 12:16:12 | 51.45246 | 8.81042 | 246° | 7km/h | 26324m | 6.0m/s | -47.7°C | 3.1% | 21.8hPa | 2.6V | 00:00:00 | 01:57:47 | 00:00:00 | |
| DL8OAI-8 | 2026-09-04 12:16:11 | 51.45246 | 8.81042 | 246° | 11km/h | 26324m | 6.0m/s | -47.7°C | 0.8% | 21.9hPa | 2.7V | 00:00:00 | 00:00:00 | 00:00:00 | |
| DB0DAN | 2026-09-04 12:16:10 | 51.45248 | 8.81047 | 196° | 5km/h | 26312m | 5.4m/s | -47.7°C | 0.8% | 21.91hPa | 2.7V | 00:00:00 | 00:00:00 | 00:00:00 | |
| DF8AY | 2026-09-04 12:16:09 | 51.45249 | 8.81047 | 174° | 7km/h | 26306m | 5.6m/s | -47.7°C | 0.2% | 21.9hPa | 2.7V | 18:12:15 | 01:57:44 | 00:00:00 | |
| DM0DOS-11 | 2026-09-04 12:16:09 | 51.45260 | 8.81048 | 266° | 4km/h | 26277m | 6m/s | -47.7°C | 3.1% | 22hPa | 2.7V | 08:30:00 | 01:57:39 | 00:00:00 | |
| DO2JMG | 2026-09-04 12:16:07 | 51.45255 | 8.81046 | 177° | 11km/h | 26294m | 5.4m/s | -47.7°C | 0.1% | 22hPa | 2.5V | 18:12:15 | 01:57:42 | 00:00:00 | |
| DL1XH-15 | 2026-09-04 12:16:05 | 51.45259 | 8.81053 | 287° | 9km/h | 26266m | 6.5m/s | -47.8°C | 3.1% | 22hPa | 2.7V | 08:30:00 | 01:57:37 | 00:00:00 | |
| AA1-15 | 2026-09-04 12:16:04 | 51.45260 | 8.81048 | 266° | 4km/h | 26277m | 6.1m/s | -47.7°C | 0.1% | 22hPa | 2.7V | 18:12:15 | 01:57:39 | 00:00:00 | |
| DL1NUX | 2026-09-04 12:16:02 | 51.45258 | 8.81057 | 282° | 11km/h | 26260m | 5m/s | -47.7°C | 3.1% | 22.1hPa | 2.5V | 08:30:00 | 01:57:36 | 00:00:00 | |
| BIOWL1-15 | 2026-09-04 12:16:02 | 51.45259 | 8.81053 | 287° | 9km/h | 26266m | 6.5m/s | -47.8°C | 0.1% | 22hPa | 2.7V | 18:12:15 | 01:57:37 | 00:00:00 | |
| DL1XH-west | 2026-09-04 12:16:01 | 51.45258 | 8.81057 | 282° | 11km/h | 26260m | 5m/s | -47.7°C | 0.1% | 22.1hPa | 2.5V | 18:12:15 | 01:57:36 | 00:00:00 | |
| HSKMA3-T | 2026-09-04 12:16:00 | 51.45257 | 8.81061 | 286° | 9km/h | 26255m | 4.5m/s | -47.8°C | 0.1% | 22.1hPa | 2.6V | 18:12:15 | 01:57:35 | 00:00:00 | |
| DJ8HS-15 | 2026-09-04 12:16:00 | 51.45257 | 8.81061 | 286° | 7km/h | 26255m | 4.5m/s | -47.7°C | 3.1% | 22.0hPa | 2.7V | 00:00:00 | 01:57:35 | 00:00:00 | |
| DL1XH1-15 | 2026-09-04 12:15:59 | 51.45255 | 8.81067 | 356° | 0km/h | 26237m | 5.3m/s | -47.9°C | 3.1% | 22.1hPa | 2.7V | 08:30:00 | 01:57:32 | 00:00:00 | |
| DF8AY | 2026-09-04 12:15:58 | 51.45256 | 8.81067 | 312° | 5km/h | 26243m | 5.7m/s | -47.8°C | 0.1% | 22.1hPa | 2.7V | 18:12:15 | 01:57:33 | 00:00:00 | |
| NBG1-10 | 2026-09-04 12:15:58 | 51.45256 | 8.81067 | 312° | 11km/h | 26243m | 5.7m/s | -47.8°C | 3.1% | 22.1hPa | 2.7V | 00:00:00 | 01:57:33 | 00:00:00 | |
| DL4XJ-10 | 2026-09-04 12:15:57 | 51.45255 | 8.81067 | 357° | 7km/h | 26238m | 5.3m/s | -48.5°C | 0% | 0hPa | 2.7V | 00:00:00 | 00:00:00 | 00:00:00 | |
| DO2JMG | 2026-09-04 12:15:57 | 51.45255 | 8.81067 | 357° | 0km/h | 26237m | 5.3m/s | -47.9°C | 0.1% | 22.1hPa | 2.7V | 18:12:15 | 01:57:32 | 00:00:00 | |
| DL1XH-15 | 2026-09-04 12:15:56 | 51.45266 | 8.81063 | 165° | 9km/h | 26209m | 6.3m/s | -47.9°C | 3.1% | 22.2hPa | 2.7V | 08:30:00 | 01:57:27 | 00:00:00 | |
| AA1-15 | 2026-09-04 12:15:54 | 51.45260 | 8.81065 | 170° | 13km/h | 26220m | 4.7m/s | -47.8°C | 0.1% | 22.2hPa | 2.6V | 18:12:15 | 01:57:29 | 00:00:00 | |
| BIOWL1-15 | 2026-09-04 12:15:51 | 51.45268 | 8.81062 | 157° | 5km/h | 26203m | 5.8m/s | -47.9°C | 0.2% | 22.2hPa | 2.7V | 18:12:15 | 01:57:26 | 00:00:00 | |
| HSKMA3-T | 2026-09-04 12:15:50 | 51.45269 | 8.81062 | 131° | 2km/h | 26198m | 5.8m/s | -47.9°C | 0.2% | 22.3hPa | 2.7V | 18:12:15 | 01:57:25 | 00:00:00 | |
| BUE01 | 2026-09-04 12:15:50 | 51.45269 | 8.81062 | 302° | 0km/h | 26192m | 6.3m/s | -47.8°C | 0.8% | 22.3hPa | 2.6V | 00:00:00 | 00:00:00 | 00:00:00 | |
| SONDE2-11 | 2026-09-04 12:15:49 | 51.45269 | 8.81063 | 296° | 4km/h | 26186m | 6.1m/s | -47.9°C | 0.8% | 22.3hPa | 2.6V | 00:00:00 | 00:00:00 | 00:00:00 | |
| DL1XH1-15 | 2026-09-04 12:15:48 | 51.45268 | 8.81065 | 307° | 7km/h | 26180m | 4.6m/s | -47.9°C | 3.1% | 22.3hPa | 2.6V | 08:30:00 | 01:57:22 | 00:00:00 | |
| DL9SK-14 | 2026-09-04 12:15:48 | 51.45268 | 8.81065 | 307° | 5km/h | 26180m | 4.6m/s | -47.9°C | 0.8% | 22.3hPa | 2.6V | 00:00:00 | 00:00:00 | 00:00:00 | |
| DF8AY | 2026-09-04 12:15:48 | 51.45268 | 8.81065 | 308° | 7km/h | 26180m | 4.6m/s | -47.9°C | 0.1% | 22.3hPa | 2.6V | 18:12:15 | 01:57:22 | 00:00:00 | |
| DJ2DS-15 | 2026-09-04 12:15:47 | 51.45268 | 8.81065 | 307° | 5km/h | 26180m | 4.6m/s | -47.9°C | 0.8% | 22.3hPa | 2.6V | 00:00:00 | 00:00:00 | 00:00:00 | |
| DM0DOS-11 | 2026-09-04 12:15:46 | 51.45262 | 8.81071 | 336° | 11km/h | 26163m | 5.4m/s | -48°C | 3.1% | 22.4hPa | 2.6V | 08:30:00 | 01:57:19 | 00:00:00 | |
| DL1NUX | 2026-09-04 12:15:46 | 51.45259 | 8.81075 | 207° | 5km/h | 26147m | 6.5m/s | -48°C | 3.1% | 22.4hPa | 2.7V | 08:30:00 | 01:57:16 | 00:00:00 | |
| EDDB2-12 | 2026-09-04 12:15:45 | 51.45262 | 8.81071 | 336° | 11km/h | 26163m | 5.4m/s | -48.0°C | 0.8% | 22.4hPa | 2.7V | 00:00:00 | 00:00:00 | 00:00:00 | |
| DL1XH-15 | 2026-09-04 12:15:44 | 51.45258 | 8.81074 | 308° | 4km/h | 26153m | 5.9m/s | -48°C | 3.1% | 22.4hPa | 2.7V | 08:30:00 | 01:57:17 | 00:00:00 | |
| AA1-15 | 2026-09-04 12:15:43 | 51.45259 | 8.81073 | 337° | 7km/h | 26158m | 4.8m/s | -48°C | 0.1% | 22.4hPa | 2.6V | 18:12:15 | 01:57:18 | 00:00:00 | |
| HSKMA3-T | 2026-09-04 12:15:40 | 51.45261 | 8.81076 | 190° | 11km/h | 26141m | 5.4m/s | -48°C | 0.1% | 22.5hPa | 2.6V | 18:12:15 | 01:57:15 | 00:00:00 | |
| DL1XH-west | 2026-09-04 12:15:40 | 51.45264 | 8.81077 | 185° | 13km/h | 26135m | 5.3m/s | -48°C | 0.1% | 22.5hPa | 2.6V | 18:12:15 | 01:57:14 | 00:00:00 | |
| DB0DAN | 2026-09-04 12:15:40 | 51.45261 | 8.81076 | 190° | 11km/h | 26141m | 5.4m/s | -48°C | 0.8% | 22.48hPa | 2.6V | 00:00:00 | 00:00:00 | 00:00:00 | |
| DF8AY | 2026-09-04 12:15:38 | 51.45272 | 8.81077 | 205° | 5km/h | 26113m | 6.1m/s | -48.2°C | 0.1% | 22.6hPa | 2.6V | 18:12:15 | 01:57:10 | 00:00:00 | |
| DL3AQ-11 | 2026-09-04 12:15:38 | 51.45267 | 8.81077 | 179° | 11km/h | 26130m | 6.1m/s | -48.0°C | 0.8% | 22.5hPa | 2.7V | 00:00:00 | 00:00:00 | 00:00:00 | |
| DO2JMG | 2026-09-04 12:15:38 | 51.45267 | 8.81077 | 180° | 11km/h | 26130m | 6.1m/s | -48°C | 0.1% | 22.5hPa | 2.7V | 18:12:15 | 01:57:13 | 00:00:00 | |
| DL4XJ-10 | 2026-09-04 12:15:37 | 51.45269 | 8.81077 | 175° | 11km/h | 26124m | 5.4m/s | -48.7°C | 0% | 0hPa | 2.7V | 00:00:00 | 00:00:00 | 00:00:00 | |
| DL1XH-15 | 2026-09-04 12:15:36 | 51.45272 | 8.81083 | 308° | 9km/h | 26096m | 6.5m/s | -48.3°C | 3.1% | 22.6hPa | 2.7V | 08:30:00 | 01:57:07 | 00:00:00 | |
| DJ2DS-15 | 2026-09-04 12:15:36 | 51.45271 | 8.81077 | 180° | 11km/h | 26119m | 4.9m/s | -48.1°C | 3.1% | 22.5hPa | 2.6V | 00:00:00 | 01:57:11 | 00:00:00 | |
| GOEST3-10 | 2026-09-04 12:15:34 | 51.45273 | 8.81078 | 247° | 9km/h | 26108m | 5.7m/s | -48.2°C | 3.1% | 22.6hPa | 2.6V | 00:00:00 | 00:00:00 | 08:30:00 | |
| DO3MHA-11 | 2026-09-04 12:15:33 | 51.45273 | 8.81080 | 285° | 15km/h | 26102m | 5.4m/s | -48.3°C | 3.1% | 22.6hPa | 2.7V | 00:00:00 | 01:57:08 | 00:00:00 | |
| DL1NUX | 2026-09-04 12:15:32 | 51.45271 | 8.81086 | 323° | 11km/h | 26089m | 6m/s | -48.3°C | 3.2% | 22.6hPa | 2.7V | 08:30:00 | 01:57:06 | 00:00:00 | |
| AA1-15 | 2026-09-04 12:15:32 | 51.45272 | 8.81083 | 309° | 9km/h | 26096m | 6.6m/s | -48.3°C | 0.1% | 22.6hPa | 2.7V | 18:12:15 | 01:57:07 | 00:00:00 | |
| BIOWL1-15 | 2026-09-04 12:15:30 | 51.45269 | 8.81088 | 321° | 9km/h | 26084m | 4.6m/s | -48.3°C | 0.2% | 22.7hPa | 2.6V | 18:12:15 | 01:57:05 | 00:00:00 | |
| DL1XH-west | 2026-09-04 12:15:29 | 51.45267 | 8.81091 | 298° | 9km/h | 26079m | 5.2m/s | -48.2°C | 0.2% | 22.7hPa | 2.6V | 18:12:15 | 01:57:04 | 00:00:00 | |
| GOEST3-10 | 2026-09-04 12:15:29 | 51.45267 | 8.81091 | 298° | 13km/h | 26080m | 5.1m/s | -48.1°C | 3.2% | 22.6hPa | 2.7V | 00:00:00 | 01:57:04 | 00:00:00 | |
| DO3DL | 2026-09-04 12:15:27 | 51.45267 | 8.81095 | 265° | 11km/h | 26074m | 6.4m/s | -48.2°C | 0.8% | 22.7hPa | 2.7V | 00:00:00 | 00:00:00 | 00:00:00 | |
| DL1NUX | 2026-09-04 12:15:26 | 51.45288 | 8.81119 | 202° | 15km/h | 26034m | 5.1m/s | -48.3°C | 3.2% | 22.8hPa | 2.7V | 08:30:00 | 01:56:56 | 00:00:00 | |
| DB0DAN | 2026-09-04 12:15:25 | 51.45273 | 8.81109 | 216° | 15km/h | 26056m | 6.5m/s | -48.3°C | 0.8% | 22.76hPa | 2.7V | 00:00:00 | 00:00:00 | 00:00:00 | |
| DF8AY | 2026-09-04 12:15:23 | 51.45280 | 8.81114 | 202° | 16km/h | 26045m | 4.9m/s | -48.3°C | 0.2% | 22.8hPa | 2.6V | 18:12:15 | 01:56:58 | 00:00:00 | |
| AA1-15 | 2026-09-04 12:15:21 | 51.45288 | 8.81119 | 203° | 15km/h | 26034m | 5.1m/s | -48.3°C | 0.2% | 22.8hPa | 2.7V | 18:12:15 | 01:56:56 | 00:00:00 | |
| BIOWL1-15 | 2026-09-04 12:15:20 | 51.45291 | 8.81121 | 199° | 11km/h | 26030m | 4.2m/s | -48.2°C | 0.1% | 22.9hPa | 2.7V | 18:12:15 | 01:56:55 | 00:00:00 | |
| DL1XH-west | 2026-09-04 12:15:19 | 51.45294 | 8.81122 | 131° | 4km/h | 26019m | 6.2m/s | -48.2°C | 0.1% | 22.9hPa | 2.6V | 18:12:15 | 01:56:53 | 00:00:00 | |
| BUE01 | 2026-09-04 12:15:19 | 51.45294 | 8.81122 | 131° | 2km/h | 26019m | 6.2m/s | -48.2°C | 0.8% | 22.9hPa | 2.6V | 00:00:00 | 00:00:00 | 00:00:00 | |
| DL1XH-15 | 2026-09-04 12:15:17 | 51.45290 | 8.81133 | 268° | 13km/h | 25987m | 4.8m/s | -48.5°C | 3.1% | 23hPa | 2.6V | 08:30:00 | 01:56:47 | 00:00:00 | |
| DL4XJ-10 | 2026-09-04 12:15:17 | 51.45294 | 8.81121 | 51° | 7km/h | 26013m | 4.9m/s | -48.9°C | 0% | 0hPa | 2.7V | 00:00:00 | 00:00:00 | 00:00:00 | |
| DM0DOS-11 | 2026-09-04 12:15:16 | 51.45291 | 8.81123 | 288° | 9km/h | 25997m | 5.7m/s | -48.4°C | 3.1% | 23hPa | 2.7V | 08:30:00 | 01:56:49 | 00:00:00 | |
| DF8AY | 2026-09-04 12:15:13 | 51.45290 | 8.81133 | 268° | 13km/h | 25987m | 4.8m/s | -48.5°C | 0.1% | 23hPa | 2.6V | 18:12:15 | 01:56:47 | 00:00:00 | |
| DL4BBY-15 | 2026-09-04 12:15:13 | 51.45290 | 8.81127 | 275° | 11km/h | 25992m | 4.3m/s | -49.0°C | 0% | 0hPa | 2.6V | 00:00:00 | 00:00:00 | 00:00:00 | |
| DL1NUX | 2026-09-04 12:15:12 | 51.45290 | 8.81138 | 263° | 11km/h | 25981m | 6.1m/s | -48.5°C | 3.2% | 23hPa | 2.6V | 08:30:00 | 01:56:46 | 00:00:00 | |
| BIOWL1-15 | 2026-09-04 12:15:11 | 51.45291 | 8.81144 | 235° | 4km/h | 25970m | 5.1m/s | -48.5°C | 0.2% | 23.1hPa | 2.7V | 18:12:15 | 01:56:44 | 00:00:00 | |
| AA1-15 | 2026-09-04 12:15:11 | 51.45290 | 8.81138 | 263° | 11km/h | 25981m | 6.1m/s | -48.6°C | 0.2% | 23hPa | 2.6V | 18:12:15 | 01:56:46 | 00:00:00 | |
| DO3MHA-12 | 2026-09-04 12:15:11 | 51.45290 | 8.81138 | 264° | 5km/h | 25982m | 6.1m/s | -48.5°C | 3.2% | 23.0hPa | 2.6V | 00:00:00 | 01:56:46 | 00:00:00 | |
| DO9LL-15 | 2026-09-04 12:15:10 | 51.45291 | 8.81141 | 253° | 11km/h | 25976m | 5.4m/s | -48.5°C | 3.2% | 23.0hPa | 2.6V | 00:00:00 | 01:56:45 | 00:00:00 | |
| DL1XH1-15 | 2026-09-04 12:15:09 | 51.45293 | 8.81146 | 225° | 5km/h | 25959m | 6.2m/s | -48.6°C | 3.2% | 23.1hPa | 2.6V | 08:30:00 | 01:56:42 | 00:00:00 | |
| HSKMA3-T | 2026-09-04 12:15:08 | 51.45292 | 8.81145 | 216° | 4km/h | 25965m | 5.6m/s | -48.6°C | 0.2% | 23.1hPa | 2.7V | 18:12:15 | 01:56:43 | 00:00:00 | |
| DO2JMG | 2026-09-04 12:15:06 | 51.45294 | 8.81148 | 234° | 5km/h | 25953m | 5.3m/s | -48.7°C | 0.2% | 23.1hPa | 2.6V | 18:12:15 | 01:56:41 | 00:00:00 | |
| DM0DOS-11 | 2026-09-04 12:15:05 | 51.45296 | 8.81151 | 211° | 5km/h | 25943m | 6.1m/s | -48.8°C | 3.3% | 23.1hPa | 2.7V | 08:30:00 | 01:56:39 | 00:00:00 | |
| SP3BTT-10 | 2026-09-04 12:15:04 | 51.45296 | 8.81151 | 212° | 9km/h | 25944m | 6.0m/s | 0°C | 0% | 0hPa | 2.7V | 00:00:00 | 00:00:00 | 00:00:00 | |
| DB0ND-19 | 2026-09-04 12:15:03 | 51.45297 | 8.81152 | 205° | 5km/h | 25937m | 5.7m/s | -48.7°C | 0.9% | 23.2hPa | 2.7V | 00:00:00 | 00:00:00 | 00:00:00 | |
| DL1NUX | 2026-09-04 12:15:02 | 51.45299 | 8.81156 | 252° | 9km/h | 25926m | 6m/s | -48.8°C | 3.3% | 23.2hPa | 2.7V | 08:30:00 | 01:56:36 | 00:00:00 | |
| DF8AY | 2026-09-04 12:15:02 | 51.45299 | 8.81156 | 253° | 9km/h | 25926m | 6m/s | -48.8°C | 0.2% | 23.2hPa | 2.7V | 18:12:15 | 01:56:36 | 00:00:00 | |
| AA1-15 | 2026-09-04 12:15:00 | 51.45299 | 8.81160 | 270° | 13km/h | 25920m | 5.8m/s | -48.8°C | 0.2% | 23.2hPa | 2.7V | 18:12:15 | 01:56:35 | 00:00:00 | |
| BIOWL1-15 | 2026-09-04 12:14:59 | 51.45299 | 8.81165 | 283° | 15km/h | 25915m | 4.6m/s | -48.7°C | 0.2% | 23.3hPa | 2.6V | 18:12:15 | 01:56:34 | 00:00:00 | |
| HSKMA3-T | 2026-09-04 12:14:57 | 51.45297 | 8.81177 | 289° | 13km/h | 25905m | 5.6m/s | -48.7°C | 0.1% | 23.3hPa | 2.6V | 18:12:15 | 01:56:32 | 00:00:00 | |
| DL4XJ-10 | 2026-09-04 12:14:57 | 51.45297 | 8.81177 | 289° | 13km/h | 25905m | 5.6m/s | -49.4°C | 0% | 0hPa | 2.7V | 00:00:00 | 00:00:00 | 00:00:00 | |
| DJ2DS-15 | 2026-09-04 12:14:56 | 51.45296 | 8.81180 | 285° | 13km/h | 25900m | 5.6m/s | -48.7°C | 3.2% | 23.3hPa | 2.7V | 00:00:00 | 01:56:31 | 00:00:00 | |
| DM0DOS-11 | 2026-09-04 12:14:55 | 51.45297 | 8.81184 | 200° | 7km/h | 25888m | 5.5m/s | -48.8°C | 3.2% | 23.4hPa | 2.7V | 08:30:00 | 01:56:29 | 00:00:00 | |
| DO2JMG | 2026-09-04 12:14:54 | 51.45297 | 8.81184 | 201° | 7km/h | 25888m | 5.5m/s | -48.8°C | 0.2% | 23.4hPa | 2.7V | 18:12:15 | 01:56:29 | 00:00:00 | |
| EDDB2-11 | 2026-09-04 12:14:53 | 51.45300 | 8.81185 | 199° | 11km/h | 25882m | 6.3m/s | -48.8°C | 0.8% | 23.4hPa | 2.6V | 00:00:00 | 00:00:00 | 00:00:00 | |
| DL1NUX | 2026-09-04 12:14:52 | 51.45307 | 8.81189 | 198° | 18km/h | 25871m | 4.3m/s | -48.9°C | 3.1% | 23.4hPa | 2.6V | 08:30:00 | 01:56:26 | 00:00:00 | |
| DF8AY | 2026-09-04 12:14:51 | 51.45328 | 8.81197 | 200° | 20km/h | 25849m | 5.6m/s | -48.9°C | 0.2% | 23.5hPa | 2.6V | 18:12:15 | 01:56:22 | 00:00:00 | |
| DL1XH1-15 | 2026-09-04 12:14:51 | 51.45328 | 8.81197 | 199° | 20km/h | 25848m | 5.6m/s | -48.9°C | 3.2% | 23.5hPa | 2.6V | 08:30:00 | 01:56:22 | 00:00:00 | |
| AA1-15 | 2026-09-04 12:14:51 | 51.45312 | 8.81192 | 193° | 22km/h | 25866m | 6.4m/s | -48.9°C | 0.2% | 23.4hPa | 2.7V | 18:12:15 | 01:56:25 | 00:00:00 | |
| BIOWL1-15 | 2026-09-04 12:14:49 | 51.45317 | 8.81193 | 189° | 22km/h | 25860m | 6.2m/s | -48.9°C | 0.2% | 23.5hPa | 2.7V | 18:12:15 | 01:56:24 | 00:00:00 | |
| HSKMA3-T | 2026-09-04 12:14:47 | 51.45332 | 8.81200 | 213° | 18km/h | 25842m | 6.1m/s | -48.9°C | 0.2% | 23.5hPa | 2.6V | 18:12:15 | 01:56:21 | 00:00:00 | |
| SONCRA | 2026-09-04 12:14:47 | 51.45332 | 8.81200 | 212° | 16km/h | 25843m | 6.1m/s | -48.9°C | 0.9% | 23.5hPa | 2.7V | 00:00:00 | 00:00:00 | 00:00:00 | |
| DL9SK-14 | 2026-09-04 12:14:46 | 51.45335 | 8.81204 | 226° | 13km/h | 25837m | 4.9m/s | -48.9°C | 0.8% | 23.6hPa | 2.7V | 00:00:00 | 00:00:00 | 00:00:00 | |
| DL3AQ-11 | 2026-09-04 12:14:45 | 51.45337 | 8.81208 | 230° | 11km/h | 25832m | 4.6m/s | -49.0°C | 0.8% | 23.6hPa | 2.7V | 00:00:00 | 00:00:00 | 00:00:00 | |
| DO2JMG | 2026-09-04 12:14:43 | 51.45339 | 8.81211 | 224° | 7km/h | 25827m | 6m/s | -49°C | 0.2% | 23.6hPa | 2.7V | 18:12:15 | 01:56:18 | 00:00:00 | |
| DF8AY | 2026-09-04 12:14:41 | 51.45341 | 8.81211 | 150° | 5km/h | 25816m | 5.1m/s | -49.1°C | 0.2% | 23.6hPa | 2.5V | 18:12:15 | 01:56:16 | 00:00:00 | |
| DB0DAN | 2026-09-04 12:14:40 | 51.45342 | 8.81210 | 158° | 5km/h | 25810m | 5.2m/s | -49.2°C | 0.8% | 23.66hPa | 2.5V | 00:00:00 | 00:00:00 | 00:00:00 | |
| DM0DOS-11 | 2026-09-04 12:14:39 | 51.45363 | 8.81216 | 188° | 22km/h | 25777m | 4.9m/s | -49.5°C | 3.3% | 23.8hPa | 2.7V | 08:30:00 | 01:56:09 | 00:00:00 | |
| AA1-15 | 2026-09-04 12:14:39 | 51.45344 | 8.81210 | 187° | 5km/h | 25805m | 6m/s | -49.4°C | 0.2% | 23.7hPa | 2.6V | 18:12:15 | 01:56:14 | 00:00:00 | |
| BIOWL1-15 | 2026-09-04 12:14:38 | 51.45348 | 8.81212 | 196° | 15km/h | 25794m | 5.1m/s | -49.4°C | 0.2% | 23.7hPa | 2.7V | 18:12:15 | 01:56:12 | 00:00:00 | |
| DL1XH-west | 2026-09-04 12:14:36 | 51.45352 | 8.81214 | 190° | 18km/h | 25789m | 6.6m/s | -49.5°C | 0.2% | 23.7hPa | 2.5V | 18:12:15 | 01:56:11 | 00:00:00 | |
| DO2JMG | 2026-09-04 12:14:32 | 51.45374 | 8.81220 | 197° | 20km/h | 25766m | 5m/s | -49.6°C | 0.3% | 23.8hPa | 2.6V | 18:12:15 | 01:56:07 | 00:00:00 | |
| DF8AY | 2026-09-04 12:14:31 | 51.45391 | 8.81212 | 122° | 15km/h | 25739m | 5.4m/s | -49.9°C | 0.3% | 23.9hPa | 2.6V | 18:12:15 | 01:56:02 | 00:00:00 | |
| DD8BA-10 | 2026-09-04 12:14:31 | 51.45378 | 8.81222 | 191° | 13km/h | 25761m | 4.1m/s | -49.6°C | 3.3% | 23.8hPa | 2.6V | 00:00:00 | 00:00:00 | 00:00:00 | |
| DO1YAY-16 | 2026-09-04 12:14:30 | 51.45386 | 8.81221 | 152° | 15km/h | 25750m | 6.5m/s | -49.7°C | 0.9% | 23.9hPa | 2.7V | 00:00:00 | 00:00:00 | 00:00:00 | |
| DM0DOS-11 | 2026-09-04 12:14:29 | 51.45396 | 8.81202 | 137° | 9km/h | 25723m | 4.2m/s | -49.9°C | 3.4% | 23.9hPa | 2.7V | 08:30:00 | 01:55:59 | 00:00:00 | |
| AA1-15 | 2026-09-04 12:14:28 | 51.45389 | 8.81217 | 134° | 16km/h | 25744m | 5.3m/s | -49.8°C | 0.3% | 23.9hPa | 2.5V | 18:12:15 | 01:56:03 | 00:00:00 | |
| HSKMA3-T | 2026-09-04 12:14:26 | 51.45393 | 8.81208 | 116° | 11km/h | 25733m | 6.2m/s | -49.9°C | 0.3% | 23.9hPa | 2.6V | 18:12:15 | 01:56:01 | 00:00:00 | |
| DL1XH-west | 2026-09-04 12:14:26 | 51.45394 | 8.81204 | 123° | 9km/h | 25728m | 4.7m/s | -49.9°C | 0.3% | 23.9hPa | 2.7V | 18:12:15 | 01:56:00 | 00:00:00 | |
| DB0DAN | 2026-09-04 12:14:25 | 51.45394 | 8.81204 | 123° | 9km/h | 25728m | 4.7m/s | -49.9°C | 0.9% | 23.95hPa | 2.7V | 00:00:00 | 00:00:00 | 00:00:00 | |
| GOEST3-10 | 2026-09-04 12:14:24 | 51.45395 | 8.81201 | 138° | 13km/h | 25723m | 4.2m/s | -49.9°C | 3.4% | 23.9hPa | 2.6V | 00:00:00 | 00:00:00 | 00:00:00 | |
| DL3OBA | 2026-09-04 12:14:23 | 51.45395 | 8.81201 | 138° | 9km/h | 25723m | 4.3m/s | -49.9°C | 0.9% | 23.9hPa | 2.6V | 00:00:00 | 00:00:00 | 00:00:00 | |
| DL1NUX | 2026-09-04 12:14:22 | 51.45403 | 8.81194 | 162° | 15km/h | 25707m | 4.3m/s | -49.9°C | 3.5% | 24hPa | 2.6V | 08:30:00 | 01:55:56 | 00:00:00 | |
| DO2JMG | 2026-09-04 12:14:22 | 51.45400 | 8.81197 | 154° | 13km/h | 25712m | 5.5m/s | -50°C | 0.4% | 24hPa | 2.5V | 18:12:15 | 01:55:57 | 00:00:00 | |
| DF8AY | 2026-09-04 12:14:21 | 51.45403 | 8.81195 | 162° | 15km/h | 25707m | 4.3m/s | -49.9°C | 0.4% | 24hPa | 2.6V | 18:12:15 | 01:55:56 | 00:00:00 | |
| SO1NDE-10 | 2026-09-04 12:14:21 | 51.45403 | 8.81195 | 163° | 18km/h | 25707m | 4.3m/s | -49.9°C | 3.5% | 24.0hPa | 2.6V | 00:00:00 | 01:55:56 | 00:00:00 | |
| DJ8HS-15 | 2026-09-04 12:14:20 | 51.45407 | 8.81193 | 174° | 16km/h | 25703m | 5.5m/s | -49.9°C | 3.5% | 24.0hPa | 2.6V | 00:00:00 | 01:55:55 | 08:30:00 | |
| DM0DOS-11 | 2026-09-04 12:14:19 | 51.45430 | 8.81194 | 163° | 20km/h | 25669m | 5.2m/s | -50.1°C | 3.5% | 24.1hPa | 2.6V | 08:30:00 | 01:55:49 | 00:00:00 | |
| AA1-15 | 2026-09-04 12:14:17 | 51.45417 | 8.81195 | 192° | 15km/h | 25686m | 4.6m/s | -50°C | 0.4% | 24.1hPa | 2.7V | 18:12:15 | 01:55:52 | 00:00:00 | |
| BIOWL1-15 | 2026-09-04 12:14:16 | 51.45421 | 8.81196 | 181° | 16km/h | 25681m | 5.8m/s | -50.1°C | 0.4% | 24.1hPa | 2.5V | 18:12:15 | 01:55:51 | 00:00:00 | |
| DL1XH-west | 2026-09-04 12:14:16 | 51.45430 | 8.81194 | 164° | 20km/h | 25669m | 5.2m/s | -50.1°C | 0.4% | 24.2hPa | 2.6V | 18:12:15 | 01:55:49 | 00:00:00 | |
| HSKMA3-T | 2026-09-04 12:14:15 | 51.45425 | 8.81195 | 170° | 18km/h | 25675m | 6m/s | -50.1°C | 0.4% | 24.1hPa | 2.6V | 18:12:15 | 01:55:50 | 00:00:00 | |
| DF2AP-13 | 2026-09-04 12:14:15 | 51.45425 | 8.81195 | 170° | 18km/h | 25675m | 5.9m/s | -50.1°C | 3.5% | 24.1hPa | 2.7V | 00:00:00 | 01:55:50 | 00:00:00 | |
| DJ2KF-10 | 2026-09-04 12:14:14 | 51.45430 | 8.81193 | 164° | 18km/h | 25670m | 5.1m/s | -50.1°C | 3.5% | 24.1hPa | 2.7V | 00:00:00 | 01:55:49 | 00:00:00 | |
| DL4BBY-15 | 2026-09-04 12:14:13 | 51.45434 | 8.81191 | 162° | 20km/h | 25664m | 5.3m/s | -50.7°C | 0% | 0hPa | 2.7V | 00:00:00 | 00:00:00 | 00:00:00 | |
| DL1NUX | 2026-09-04 12:14:12 | 51.45444 | 8.81187 | 166° | 16km/h | 25653m | 4.6m/s | -50.1°C | 3.5% | 24.2hPa | 2.7V | 08:30:00 | 01:55:46 | 00:00:00 | |
| DO2JMG | 2026-09-04 12:14:12 | 51.45439 | 8.81189 | 164° | 18km/h | 25659m | 5.6m/s | -50.1°C | 0.3% | 24.2hPa | 2.7V | 18:12:15 | 01:55:47 | 00:00:00 | |
| DF8AY | 2026-09-04 12:14:11 | 51.45444 | 8.81187 | 167° | 16km/h | 25653m | 4.6m/s | -50.1°C | 0.4% | 24.2hPa | 2.7V | 18:12:15 | 01:55:46 | 00:00:00 | |
| AA1-15 | 2026-09-04 12:14:06 | 51.45467 | 8.81182 | 185° | 16km/h | 25627m | 6.1m/s | -49.9°C | 0.3% | 24.3hPa | 2.7V | 18:12:15 | 01:55:41 | 00:00:00 | |
| DM0DOS-11 | 2026-09-04 12:14:06 | 51.45474 | 8.81184 | 196° | 13km/h | 25617m | 3.7m/s | -49.8°C | 3.4% | 24.4hPa | 2.6V | 08:30:00 | 01:55:39 | 00:00:00 | |
| BIOWL1-15 | 2026-09-04 12:14:05 | 51.45490 | 8.81181 | 161° | 22km/h | 25596m | 4.7m/s | -49.8°C | 0.3% | 24.4hPa | 2.6V | 18:12:15 | 01:55:35 | 00:00:00 | |
| HSKMA3-T | 2026-09-04 12:14:05 | 51.45474 | 8.81184 | 196° | 13km/h | 25617m | 3.7m/s | -49.8°C | 0.3% | 24.4hPa | 2.6V | 18:12:15 | 01:55:39 | 00:00:00 | |
| DL1XH-15 | 2026-09-04 12:14:04 | 51.45481 | 8.81185 | 172° | 16km/h | 25607m | 5.9m/s | -49.9°C | 3.4% | 24.4hPa | 2.7V | 08:30:00 | 01:55:37 | 00:00:00 | |
| DO2JMG | 2026-09-04 12:14:02 | 51.45481 | 8.81185 | 173° | 16km/h | 25607m | 5.9m/s | -49.9°C | 0.4% | 24.4hPa | 2.7V | 18:12:15 | 01:55:37 | 00:00:00 | |
| DF8AY | 2026-09-04 12:14:01 | 51.45485 | 8.81184 | 164° | 20km/h | 25602m | 5.2m/s | -49.8°C | 0.3% | 24.4hPa | 2.5V | 18:12:15 | 01:55:36 | 00:00:00 | |
| AA1-15 | 2026-09-04 12:13:56 | 51.45511 | 8.81171 | 162° | 22km/h | 25576m | 5.4m/s | -49.9°C | 0.3% | 24.5hPa | 2.5V | 18:12:15 | 01:55:31 | 00:00:00 | |
| DJ2DS-15 | 2026-09-04 12:13:56 | 51.45511 | 8.81171 | 162° | 22km/h | 25576m | 5.3m/s | -49.9°C | 3.4% | 24.5hPa | 2.5V | 00:00:00 | 01:55:31 | 08:30:00 | |
| DM0DOS-11 | 2026-09-04 12:13:55 | 51.45528 | 8.81160 | 159° | 24km/h | 25559m | 5.5m/s | -50°C | 3.4% | 24.6hPa | 2.7V | 08:30:00 | 01:55:28 | 00:00:00 | |
| DL1XH-west | 2026-09-04 12:13:55 | 51.45523 | 8.81164 | 158° | 26km/h | 25565m | 5.1m/s | -49.9°C | 0.3% | 24.6hPa | 2.7V | 18:12:15 | 01:55:29 | 00:00:00 | |
| DL3AQ-11 | 2026-09-04 12:13:54 | 51.45528 | 8.81160 | 159° | 22km/h | 25560m | 5.5m/s | -50.0°C | 0.9% | 24.6hPa | 2.7V | 00:00:00 | 00:00:00 | 00:00:00 | |
| DL1XH-15 | 2026-09-04 12:13:53 | 51.45533 | 8.81158 | 164° | 20km/h | 25554m | 6.2m/s | -50°C | 3.4% | 24.6hPa | 2.7V | 08:30:00 | 01:55:27 | 00:00:00 | |
| HSKMA3-T | 2026-09-04 12:13:53 | 51.45528 | 8.81160 | 160° | 24km/h | 25559m | 5.5m/s | -50°C | 0.3% | 24.6hPa | 2.7V | 18:12:15 | 01:55:28 | 00:00:00 | |
| DO2JMG | 2026-09-04 12:13:51 | 51.45538 | 8.81156 | 171° | 18km/h | 25548m | 4.6m/s | -50.1°C | 0.4% | 24.6hPa | 2.5V | 18:12:15 | 01:55:26 | 00:00:00 | |
| DF8AY | 2026-09-04 12:13:50 | 51.45542 | 8.81155 | 170° | 18km/h | 25544m | 4.2m/s | -50.1°C | 0.3% | 24.6hPa | 2.6V | 18:12:15 | 01:55:25 | 00:00:00 | |
| AA1-15 | 2026-09-04 12:13:46 | 51.45566 | 8.81141 | 153° | 18km/h | 25517m | 5.2m/s | -50.1°C | 0.3% | 24.7hPa | 2.5V | 18:12:15 | 01:55:20 | 00:00:00 | |
| DM0DOS-11 | 2026-09-04 12:13:45 | 51.45575 | 8.81134 | 148° | 20km/h | 25508m | 4.5m/s | -50.2°C | 3.5% | 24.8hPa | 2.6V | 08:30:00 | 01:55:18 | 00:00:00 | |
| DL1XH-15 | 2026-09-04 12:13:45 | 51.45579 | 8.81129 | 146° | 24km/h | 25503m | 5.8m/s | -50.1°C | 3.5% | 24.8hPa | 2.7V | 08:30:00 | 01:55:17 | 00:00:00 | |
| DL1XH-west | 2026-09-04 12:13:44 | 51.45574 | 8.81134 | 148° | 20km/h | 25508m | 4.5m/s | -50.2°C | 0.4% | 24.8hPa | 2.6V | 18:12:15 | 01:55:18 | 00:00:00 | |
| HSKMA3-T | 2026-09-04 12:13:42 | 51.45579 | 8.81129 | 147° | 24km/h | 25503m | 5.8m/s | -50.1°C | 0.4% | 24.8hPa | 2.7V | 18:12:15 | 01:55:17 | 00:00:00 | |
| DO2JMG | 2026-09-04 12:13:41 | 51.45584 | 8.81124 | 147° | 26km/h | 25497m | 5.4m/s | -50.1°C | 0.3% | 24.8hPa | 2.7V | 18:12:15 | 01:55:16 | 00:00:00 | |
| DB0DAN | 2026-09-04 12:13:40 | 51.45590 | 8.81118 | 151° | 26km/h | 25492m | 4.9m/s | -50.2°C | 0.9% | 24.84hPa | 2.7V | 00:00:00 | 00:00:00 | 00:00:00 | |
| DJ8HS-15 | 2026-09-04 12:13:40 | 51.45590 | 8.81118 | 151° | 22km/h | 25493m | 4.8m/s | -50.1°C | 3.5% | 24.8hPa | 2.6V | 00:00:00 | 01:55:15 | 00:00:00 | |
| DL1XH1-15 | 2026-09-04 12:13:39 | 51.45607 | 8.81107 | 160° | 22km/h | 25476m | 4.4m/s | -50.1°C | 3.5% | 24.9hPa | 2.6V | 08:30:00 | 01:55:12 | 00:00:00 | |
| DF8AY | 2026-09-04 12:13:39 | 51.45596 | 8.81113 | 156° | 26km/h | 25487m | 6m/s | -50.2°C | 0.4% | 24.9hPa | 2.5V | 18:12:15 | 01:55:14 | 00:00:00 | |
| AA1-15 | 2026-09-04 12:13:36 | 51.45618 | 8.81099 | 149° | 24km/h | 25465m | 5.5m/s | -50.1°C | 0.4% | 24.9hPa | 2.7V | 18:12:15 | 01:55:10 | 00:00:00 | |
| DJ2DS-15 | 2026-09-04 12:13:36 | 51.45612 | 8.81103 | 156° | 22km/h | 25472m | 5.8m/s | -50.1°C | 3.5% | 24.9hPa | 2.7V | 00:00:00 | 01:55:11 | 00:00:00 | |
| DL1XH-15 | 2026-09-04 12:13:35 | 51.45631 | 8.81083 | 138° | 20km/h | 25450m | 5.3m/s | -50.2°C | 3.5% | 25hPa | 2.7V | 08:30:00 | 01:55:07 | 00:00:00 | |
| DM0DOS-11 | 2026-09-04 12:13:35 | 51.45628 | 8.81088 | 139° | 22km/h | 25455m | 5.8m/s | -50.1°C | 3.5% | 25hPa | 2.6V | 08:30:00 | 01:55:08 | 00:00:00 | |
| DL1XH-west | 2026-09-04 12:13:33 | 51.45628 | 8.81088 | 140° | 22km/h | 25455m | 5.8m/s | -50.1°C | 0.4% | 25hPa | 2.6V | 18:12:15 | 01:55:08 | 00:00:00 | |
| DO2JMG | 2026-09-04 12:13:31 | 51.45635 | 8.81077 | 137° | 20km/h | 25445m | 4.8m/s | -50.1°C | 0.4% | 25hPa | 2.7V | 18:12:15 | 01:55:06 | 00:00:00 | |
| DF8AY | 2026-09-04 12:13:29 | 51.45643 | 8.81066 | 138° | 24km/h | 25434m | 5.7m/s | -50.1°C | 0.3% | 25.1hPa | 2.6V | 18:12:15 | 01:55:04 | 00:00:00 | |
| AA1-15 | 2026-09-04 12:13:25 | 51.45662 | 8.81044 | 155° | 20km/h | 25414m | 4.7m/s | -50.1°C | 0.4% | 25.1hPa | 2.7V | 18:12:15 | 01:55:00 | 00:00:00 | |
| DL1XH-15 | 2026-09-04 12:13:25 | 51.45675 | 8.81031 | 138° | 24km/h | 25398m | 5.4m/s | -50°C | 3.4% | 25.2hPa | 2.6V | 08:30:00 | 01:54:57 | 00:00:00 | |
| DM0DOS-11 | 2026-09-04 12:13:25 | 51.45671 | 8.81037 | 146° | 20km/h | 25404m | 6m/s | -50°C | 3.4% | 25.2hPa | 2.6V | 08:30:00 | 01:54:58 | 00:00:00 | |
| DB0DAN | 2026-09-04 12:13:25 | 51.45662 | 8.81044 | 155° | 18km/h | 25414m | 4.7m/s | -50.1°C | 0.9% | 25.15hPa | 2.7V | 00:00:00 | 00:00:00 | 00:00:00 | |
| GOEST3-10 | 2026-09-04 12:13:24 | 51.45667 | 8.81041 | 153° | 22km/h | 25410m | 4.2m/s | -50.0°C | 3.4% | 25.1hPa | 2.7V | 00:00:00 | 00:00:00 | 00:00:00 | |
| DL8OAI-8 | 2026-09-04 12:13:23 | 51.45667 | 8.81041 | 153° | 20km/h | 25410m | 4.3m/s | -50.0°C | 0.9% | 25.2hPa | 2.7V | 00:00:00 | 00:00:00 | 00:00:00 | |
| DL1NUX | 2026-09-04 12:13:22 | 51.45679 | 8.81025 | 130° | 24km/h | 25393m | 4.7m/s | -50°C | 3.4% | 25.2hPa | 2.7V | 08:30:00 | 01:54:56 | 00:00:00 | |
| BIOWL1-15 | 2026-09-04 12:13:22 | 51.45675 | 8.81031 | 138° | 24km/h | 25398m | 5.4m/s | -50°C | 0.3% | 25.2hPa | 2.6V | 18:12:15 | 01:54:57 | 00:00:00 | |
| DO2JMG | 2026-09-04 12:13:20 | 51.45683 | 8.81017 | 123° | 22km/h | 25388m | 5.9m/s | -50°C | 0.3% | 25.2hPa | 2.7V | 18:12:15 | 01:54:55 | 00:00:00 | |
| DF8AY | 2026-09-04 12:13:19 | 51.45685 | 8.81010 | 113° | 20km/h | 25382m | 5.5m/s | -50.1°C | 0.3% | 25.2hPa | 2.7V | 18:12:15 | 01:54:54 | 00:00:00 | |
| GOEST3-10 | 2026-09-04 12:13:19 | 51.45685 | 8.81010 | 113° | 22km/h | 25383m | 5.4m/s | -50.0°C | 3.4% | 25.2hPa | 2.7V | 00:00:00 | 01:54:54 | 08:30:00 | |
| DL4XJ-10 | 2026-09-04 12:13:17 | 51.45688 | 8.80994 | 106° | 18km/h | 25373m | 5.3m/s | -50.7°C | 0% | 0hPa | 2.6V | 00:00:00 | 00:00:00 | 00:00:00 | |
| DL1NUX | 2026-09-04 12:13:16 | 51.45704 | 8.80952 | 140° | 18km/h | 25342m | 4.8m/s | -50.3°C | 3.4% | 25.4hPa | 2.6V | 08:30:00 | 01:54:46 | 00:00:00 | |
| DJ2DS-15 | 2026-09-04 12:13:16 | 51.45690 | 8.80986 | 110° | 18km/h | 25368m | 5.5m/s | -50.1°C | 3.3% | 25.2hPa | 2.5V | 00:00:00 | 01:54:51 | 00:00:00 | |
| DL1XH-15 | 2026-09-04 12:13:15 | 51.45700 | 8.80957 | 135° | 16km/h | 25347m | 4.2m/s | -50.2°C | 3.4% | 25.4hPa | 2.5V | 08:30:00 | 01:54:47 | 00:00:00 | |
| AA1-15 | 2026-09-04 12:13:15 | 51.45692 | 8.80977 | 116° | 24km/h | 25362m | 4.5m/s | -50.2°C | 0.3% | 25.3hPa | 2.7V | 18:12:15 | 01:54:50 | 00:00:00 | |
| BIOWL1-15 | 2026-09-04 12:13:11 | 51.45704 | 8.80952 | 140° | 18km/h | 25342m | 4.8m/s | -50.3°C | 0.3% | 25.4hPa | 2.6V | 18:12:15 | 01:54:46 | 00:00:00 | |
| DD8BA-10 | 2026-09-04 12:13:11 | 51.45704 | 8.80952 | 141° | 20km/h | 25343m | 4.8m/s | -50.3°C | 3.4% | 25.4hPa | 2.5V | 00:00:00 | 00:00:00 | 00:00:00 | |
| EDDB2-12 | 2026-09-04 12:13:10 | 51.45712 | 8.80941 | 134° | 22km/h | 25332m | 4.8m/s | -50.4°C | 0.9% | 25.5hPa | 2.5V | 00:00:00 | 00:00:00 | 00:00:00 | |
| GOEST3-10 | 2026-09-04 12:13:09 | 51.45712 | 8.80941 | 135° | 20km/h | 25332m | 4.7m/s | -50.3°C | 3.5% | 25.4hPa | 2.5V | 00:00:00 | 01:54:44 | 00:00:00 | |
| DO2JMG | 2026-09-04 12:13:09 | 51.45712 | 8.80941 | 135° | 22km/h | 25332m | 4.8m/s | -50.4°C | 0.3% | 25.5hPa | 2.7V | 18:12:15 | 01:54:44 | 00:00:00 | |
| DM0DOS-11 | 2026-09-04 12:13:08 | 51.45722 | 8.80898 | 100° | 22km/h | 25300m | 5.1m/s | -50.5°C | 3.5% | 25.6hPa | 2.5V | 08:30:00 | 01:54:38 | 00:00:00 | |
| DF8AY | 2026-09-04 12:13:08 | 51.45715 | 8.80935 | 127° | 22km/h | 25327m | 4.3m/s | -50.5°C | 0.4% | 25.5hPa | 2.7V | 18:12:15 | 01:54:43 | 00:00:00 | |
| AA1-15 | 2026-09-04 12:13:04 | 51.45721 | 8.80907 | 97° | 20km/h | 25306m | 5.8m/s | -50.6°C | 0.4% | 25.6hPa | 2.7V | 18:12:15 | 01:54:39 | 00:00:00 | |
| GOEST3-10 | 2026-09-04 12:13:04 | 51.45721 | 8.80906 | 97° | 18km/h | 25306m | 5.8m/s | -50.6°C | 3.5% | 25.5hPa | 2.7V | 00:00:00 | 00:00:00 | 00:00:00 | |
| DF5WG-10 | 2026-09-04 12:13:03 | 51.45722 | 8.80899 | 101° | 20km/h | 25301m | 5.0m/s | 0°C | 0% | 0hPa | 2.7V | 00:00:00 | 01:54:38 | 00:00:00 | |
| DL1NUX | 2026-09-04 12:13:02 | 51.45725 | 8.80883 | 107° | 18km/h | 25290m | 5.5m/s | -50.7°C | 3.5% | 25.6hPa | 2.7V | 08:30:00 | 01:54:36 | 00:00:00 | |
| BIOWL1-15 | 2026-09-04 12:13:01 | 51.45725 | 8.80883 | 108° | 18km/h | 25290m | 5.5m/s | -50.7°C | 0.4% | 25.6hPa | 2.7V | 18:12:15 | 01:54:36 | 00:00:00 | |
| DO2JMG | 2026-09-04 12:12:59 | 51.45728 | 8.80872 | 127° | 11km/h | 25279m | 4.5m/s | -50.7°C | 0.4% | 25.6hPa | 2.5V | 18:12:15 | 01:54:34 | 00:00:00 | |
| DL1XH1-15 | 2026-09-04 12:12:58 | 51.45732 | 8.80865 | 142° | 15km/h | 25269m | 5.9m/s | -50.7°C | 3.5% | 25.7hPa | 2.6V | 08:30:00 | 01:54:32 | 00:00:00 | |
| DF8AY | 2026-09-04 12:12:57 | 51.45732 | 8.80865 | 143° | 15km/h | 25269m | 5.9m/s | -50.7°C | 0.4% | 25.7hPa | 2.6V | 18:12:15 | 01:54:32 | 00:00:00 | |
| DL4XJ-10 | 2026-09-04 12:12:57 | 51.45732 | 8.80865 | 143° | 18km/h | 25269m | 5.9m/s | -51.4°C | 0% | 0hPa | 2.6V | 00:00:00 | 00:00:00 | 00:00:00 | |
| DM0DOS-11 | 2026-09-04 12:12:56 | 51.45741 | 8.80848 | 93° | 13km/h | 25247m | 5.2m/s | -50.7°C | 3.5% | 25.8hPa | 2.6V | 08:30:00 | 01:54:28 | 00:00:00 | |
| AA1-15 | 2026-09-04 12:12:53 | 51.45741 | 8.80848 | 94° | 13km/h | 25247m | 5.2m/s | -50.7°C | 0.3% | 25.8hPa | 2.6V | 18:12:15 | 01:54:28 | 00:00:00 | |
| DD1CC3-15 | 2026-09-04 12:12:53 | 51.45740 | 8.80853 | 122° | 13km/h | 25254m | 6.0m/s | -50.7°C | 1.0% | 25.8hPa | 2.6V | 00:00:00 | 00:00:00 | 00:00:00 | |
| DL1NUX | 2026-09-04 12:12:52 | 51.45741 | 8.80834 | 79° | 20km/h | 25239m | 4.9m/s | -50.7°C | 3.4% | 25.8hPa | 2.6V | 08:30:00 | 01:54:26 | 00:00:00 | |
| DL1XH-west | 2026-09-04 12:12:51 | 51.45740 | 8.80834 | 80° | 20km/h | 25239m | 4.9m/s | -50.7°C | 0.3% | 25.8hPa | 2.6V | 18:12:15 | 01:54:26 | 00:00:00 | |
| HSKMA3-T | 2026-09-04 12:12:49 | 51.45740 | 8.80815 | 92° | 26km/h | 25228m | 5m/s | -50.7°C | 0.4% | 25.9hPa | 2.7V | 18:12:15 | 01:54:24 | 00:00:00 | |
| DO2JMG | 2026-09-04 12:12:48 | 51.45740 | 8.80805 | 95° | 26km/h | 25223m | 4.7m/s | -50.8°C | 0.4% | 25.9hPa | 2.7V | 18:12:15 | 01:54:23 | 00:00:00 | |
| DF8AY | 2026-09-04 12:12:46 | 51.45741 | 8.80785 | 95° | 22km/h | 25212m | 5.9m/s | -50.9°C | 0.4% | 25.9hPa | 2.6V | 18:12:15 | 01:54:21 | 00:00:00 | |
| DL3AQ-11 | 2026-09-04 12:12:45 | 51.45742 | 8.80770 | 91° | 16km/h | 25203m | 3.9m/s | -50.9°C | 0.9% | 26.0hPa | 2.7V | 00:00:00 | 00:00:00 | 00:00:00 | |
| GOEST3-10 | 2026-09-04 12:12:44 | 51.45742 | 8.80770 | 92° | 18km/h | 25203m | 3.9m/s | -50.8°C | 3.5% | 25.9hPa | 2.7V | 00:00:00 | 00:00:00 | 00:00:00 | |
| DL1XH-15 | 2026-09-04 12:12:43 | 51.45742 | 8.80757 | 101° | 18km/h | 25193m | 5.9m/s | -51°C | 3.5% | 26hPa | 2.7V | 08:30:00 | 01:54:17 | 00:00:00 | |
| AA1-15 | 2026-09-04 12:12:42 | 51.45743 | 8.80757 | 101° | 18km/h | 25193m | 5.9m/s | -51°C | 0.4% | 26hPa | 2.7V | 18:12:15 | 01:54:17 | 00:00:00 | |
| DL1NUX | 2026-09-04 12:12:42 | 51.45744 | 8.80749 | 105° | 18km/h | 25187m | 5.3m/s | -51°C | 3.6% | 26hPa | 2.5V | 08:30:00 | 01:54:16 | 00:00:00 | |
| DL1XH-west | 2026-09-04 12:12:40 | 51.45746 | 8.80736 | 103° | 15km/h | 25178m | 5.6m/s | -51.1°C | 0.4% | 26.1hPa | 2.6V | 18:12:15 | 01:54:14 | 00:00:00 | |
| BIOWL1-15 | 2026-09-04 12:12:40 | 51.45745 | 8.80742 | 105° | 18km/h | 25183m | 4.2m/s | -51°C | 0.4% | 26.1hPa | 2.5V | 18:12:15 | 01:54:15 | 00:00:00 | |
| DB0DAN | 2026-09-04 12:12:40 | 51.45745 | 8.80742 | 105° | 16km/h | 25183m | 4.2m/s | -51°C | 1% | 26.07hPa | 2.5V | 00:00:00 | 00:00:00 | 00:00:00 | |
| DO2JMG | 2026-09-04 12:12:38 | 51.45746 | 8.80730 | 92° | 13km/h | 25172m | 6.1m/s | -51.1°C | 0.4% | 26.1hPa | 2.7V | 18:12:15 | 01:54:13 | 00:00:00 | |
| DF8AY | 2026-09-04 12:12:36 | 51.45746 | 8.80721 | 75° | 11km/h | 25161m | 5.7m/s | -51.1°C | 0.4% | 26.1hPa | 2.5V | 18:12:15 | 01:54:11 | 00:00:00 | |
| GOEST3-10 | 2026-09-04 12:12:35 | 51.45744 | 8.80712 | 78° | 11km/h | 25150m | 4.8m/s | -51.0°C | 3.6% | 26.1hPa | 2.7V | 00:00:00 | 00:00:00 | 08:30:00 | |
| DL3AQ-11 | 2026-09-04 12:12:34 | 51.45743 | 8.80708 | 66° | 11km/h | 25145m | 4.9m/s | -51.2°C | 0.9% | 26.2hPa | 2.6V | 00:00:00 | 00:00:00 | 00:00:00 | |
| DO3MHA-11 | 2026-09-04 12:12:33 | 51.45743 | 8.80708 | 67° | 11km/h | 25145m | 4.8m/s | -51.1°C | 3.6% | 26.1hPa | 2.6V | 00:00:00 | 01:54:08 | 00:00:00 | |
| DL1NUX | 2026-09-04 12:12:32 | 51.45741 | 8.80700 | 55° | 9km/h | 25134m | 4.6m/s | -51.2°C | 3.6% | 26.2hPa | 2.6V | 08:30:00 | 01:54:06 | 00:00:00 | |
| AA1-15 | 2026-09-04 12:12:31 | 51.45740 | 8.80700 | 55° | 9km/h | 25134m | 4.6m/s | -51.2°C | 0.5% | 26.2hPa | 2.6V | 18:12:15 | 01:54:06 | 00:00:00 | |
| BIOWL1-15 | 2026-09-04 12:12:30 | 51.45739 | 8.80697 | 67° | 9km/h | 25129m | 5m/s | -51.2°C | 0.4% | 26.3hPa | 2.6V | 18:12:15 | 01:54:05 | 00:00:00 | |
| DL1XH-west | 2026-09-04 12:12:30 | 51.45739 | 8.80693 | 88° | 11km/h | 25123m | 6.4m/s | -51.2°C | 0.5% | 26.3hPa | 2.7V | 18:12:15 | 01:54:04 | 00:00:00 | |
| HSKMA3-T | 2026-09-04 12:12:28 | 51.45739 | 8.80689 | 104° | 11km/h | 25118m | 5m/s | -51.2°C | 0.5% | 26.3hPa | 2.7V | 18:12:15 | 01:54:03 | 00:00:00 | |
| DO2JMG | 2026-09-04 12:12:27 | 51.45740 | 8.80684 | 108° | 13km/h | 25113m | 4.4m/s | -51.2°C | 0.4% | 26.3hPa | 2.7V | 18:12:15 | 01:54:02 | 00:00:00 | |
| DF8AY | 2026-09-04 12:12:26 | 51.45739 | 8.80644 | 79° | 11km/h | 25070m | 6.1m/s | -51.4°C | 0.5% | 26.5hPa | 2.6V | 18:12:15 | 01:53:54 | 00:00:00 | |
| DL1XH-15 | 2026-09-04 12:12:25 | 51.45739 | 8.80661 | 86° | 15km/h | 25087m | 6m/s | -51.3°C | 3.6% | 26.4hPa | 2.7V | 08:30:00 | 01:53:57 | 00:00:00 | |
| AA1-15 | 2026-09-04 12:12:21 | 51.45739 | 8.80655 | 89° | 15km/h | 25081m | 5.1m/s | -51.4°C | 0.5% | 26.5hPa | 2.7V | 18:12:15 | 01:53:56 | 00:00:00 | |
| SO1NDE-10 | 2026-09-04 12:12:21 | 51.45739 | 8.80655 | 90° | 11km/h | 25081m | 5.0m/s | -51.3°C | 3.7% | 26.4hPa | 2.5V | 00:00:00 | 01:53:56 | 00:00:00 | |
| DJ8HS-15 | 2026-09-04 12:12:20 | 51.45739 | 8.80649 | 87° | 11km/h | 25076m | 5.0m/s | -51.3°C | 3.6% | 26.4hPa | 2.5V | 00:00:00 | 01:53:55 | 00:00:00 | |
| DL1XH1-15 | 2026-09-04 12:12:19 | 51.45737 | 8.80636 | 80° | 9km/h | 25060m | 5.1m/s | -51.4°C | 3.6% | 26.6hPa | 2.7V | 08:30:00 | 01:53:52 | 00:00:00 | |
| DL1XH-west | 2026-09-04 12:12:19 | 51.45738 | 8.80640 | 74° | 11km/h | 25065m | 4.9m/s | -51.5°C | 0.5% | 26.6hPa | 2.6V | 18:12:15 | 01:53:53 | 00:00:00 | |
| DO2JMG | 2026-09-04 12:12:17 | 51.45737 | 8.80636 | 81° | 9km/h | 25060m | 5.1m/s | -51.4°C | 0.5% | 26.6hPa | 2.7V | 18:12:15 | 01:53:52 | 00:00:00 | |
| HSKMA3-T | 2026-09-04 12:12:16 | 51.45737 | 8.80632 | 93° | 11km/h | 25054m | 6.4m/s | -51.5°C | 0.4% | 26.6hPa | 2.7V | 18:12:15 | 01:53:51 | 00:00:00 | |
| DF8AY | 2026-09-04 12:12:14 | 51.45738 | 8.80622 | 100° | 13km/h | 25043m | 5.2m/s | -51.4°C | 0.5% | 26.6hPa | 2.5V | 18:12:15 | 01:53:49 | 00:00:00 | |
| DM0DOS-11 | 2026-09-04 12:12:14 | 51.45739 | 8.80617 | 92° | 11km/h | 25037m | 6m/s | -51.4°C | 3.7% | 26.6hPa | 2.5V | 08:30:00 | 01:53:48 | 00:00:00 | |
| GOEST3-10 | 2026-09-04 12:12:14 | 51.45738 | 8.80622 | 100° | 13km/h | 25043m | 5.2m/s | -51.4°C | 3.7% | 26.6hPa | 2.7V | 00:00:00 | 00:00:00 | 00:00:00 | |
| DL4BBY-15 | 2026-09-04 12:12:13 | 51.45738 | 8.80617 | 93° | 11km/h | 25038m | 6.0m/s | -52.1°C | 0% | 0hPa | 2.7V | 00:00:00 | 00:00:00 | 00:00:00 | |
| DL1NUX | 2026-09-04 12:12:12 | 51.45738 | 8.80608 | 86° | 13km/h | 25027m | 5.1m/s | -51.4°C | 3.6% | 26.7hPa | 2.7V | 08:30:00 | 01:53:46 | 00:00:00 | |
| AA1-15 | 2026-09-04 12:12:11 | 51.45738 | 8.80608 | 86° | 13km/h | 25027m | 5.1m/s | -51.4°C | 0.4% | 26.7hPa | 2.7V | 18:12:15 | 01:53:46 | 00:00:00 | |
| DJ2DS-15 | 2026-09-04 12:12:11 | 51.45738 | 8.80602 | 88° | 15km/h | 25022m | 6.5m/s | -51.5°C | 1.0% | 26.7hPa | 2.7V | 00:00:00 | 00:00:00 | 00:00:00 | |
| DB0NH | 2026-09-04 12:12:10 | 51.45738 | 8.80602 | 89° | 11km/h | 25022m | 6.4m/s | -51.4°C | 3.7% | 26.7hPa | 2.7V | 00:00:00 | 01:53:45 | 00:00:00 | |
| DL1XH1-15 | 2026-09-04 12:12:09 | 51.45737 | 8.80583 | 83° | 13km/h | 25005m | 6.2m/s | -51.4°C | 3.7% | 26.8hPa | 2.7V | 08:30:00 | 01:53:42 | 00:00:00 | |
| DL1XH-west | 2026-09-04 12:12:09 | 51.45738 | 8.80568 | 135° | 9km/h | 24978m | 5.1m/s | -51.4°C | 0.6% | 26.9hPa | 2.7V | 18:12:15 | 01:53:37 | 00:00:00 | |
| BIOWL1-15 | 2026-09-04 12:12:07 | 51.45738 | 8.80583 | 83° | 13km/h | 25005m | 6.2m/s | -51.4°C | 0.5% | 26.8hPa | 2.7V | 18:12:15 | 01:53:42 | 00:00:00 | |
| HSKMA3-T | 2026-09-04 12:12:05 | 51.45737 | 8.80575 | 74° | 7km/h | 24995m | 4.5m/s | -51.4°C | 0.5% | 26.8hPa | 2.5V | 18:12:15 | 01:53:40 | 00:00:00 | |
| DM0DOS-11 | 2026-09-04 12:12:04 | 51.45737 | 8.80570 | 115° | 7km/h | 24984m | 6.1m/s | -51.4°C | 3.7% | 26.9hPa | 2.6V | 08:30:00 | 01:53:38 | 00:00:00 | |
| DF8AY | 2026-09-04 12:12:04 | 51.45745 | 8.80562 | 152° | 7km/h | 24958m | 4m/s | -51.3°C | 0.5% | 27hPa | 2.5V | 18:12:15 | 01:53:33 | 00:00:00 | |
| AA1-15 | 2026-09-04 12:12:00 | 51.45742 | 8.80564 | 164° | 7km/h | 24967m | 6m/s | -51.3°C | 0.6% | 26.9hPa | 2.7V | 18:12:15 | 01:53:35 | 00:00:00 | |
| BIOWL1-15 | 2026-09-04 12:11:56 | 51.45748 | 8.80556 | 114° | 13km/h | 24947m | 5.8m/s | -51.3°C | 0.5% | 27hPa | 2.7V | 18:12:15 | 01:53:31 | 00:00:00 | |
| DL1XH-15 | 2026-09-04 12:11:55 | 51.45748 | 8.80533 | 57° | 13km/h | 24926m | 5.4m/s | -51.3°C | 3.7% | 27.1hPa | 2.5V | 08:30:00 | 01:53:27 | 00:00:00 | |
| DB0DAN | 2026-09-04 12:11:55 | 51.45749 | 8.80551 | 99° | 15km/h | 24941m | 4.5m/s | -51.3°C | 1% | 27.06hPa | 2.7V | 00:00:00 | 00:00:00 | 00:00:00 | |
| DM0DOS-11 | 2026-09-04 12:11:54 | 51.45749 | 8.80538 | 74° | 15km/h | 24931m | 6.1m/s | -51.3°C | 3.7% | 27.1hPa | 2.5V | 08:30:00 | 01:53:28 | 00:00:00 | |
| HSKMA3-T | 2026-09-04 12:11:54 | 51.45750 | 8.80544 | 88° | 16km/h | 24937m | 4.8m/s | -51.3°C | 0.5% | 27.1hPa | 2.7V | 18:12:15 | 01:53:29 | 00:00:00 | |
| DF8AY | 2026-09-04 12:11:51 | 51.45747 | 8.80514 | 128° | 11km/h | 24895m | 5.6m/s | -51°C | 0.4% | 27.2hPa | 2.5V | 18:12:15 | 01:53:21 | 00:00:00 | |
| DD8BA-10 | 2026-09-04 12:11:51 | 51.45746 | 8.80530 | 46° | 9km/h | 24921m | 4.1m/s | -51.1°C | 3.6% | 27.1hPa | 2.5V | 00:00:00 | 00:00:00 | 00:00:00 | |
| DK9SH | 2026-09-04 12:11:50 | 51.45746 | 8.80530 | 47° | 11km/h | 24921m | 4.2m/s | -51.2°C | 1.0% | 27.1hPa | 2.5V | 00:00:00 | 00:00:00 | 00:00:00 | |
| DL1XH1-15 | 2026-09-04 12:11:49 | 51.45745 | 8.80518 | 124° | 11km/h | 24900m | 4.7m/s | -51°C | 3.6% | 27.2hPa | 2.5V | 08:30:00 | 01:53:22 | 00:00:00 | |
| AA1-15 | 2026-09-04 12:11:49 | 51.45744 | 8.80524 | 79° | 7km/h | 24912m | 6.3m/s | -51.2°C | 0.5% | 27.2hPa | 2.7V | 18:12:15 | 01:53:24 | 00:00:00 | |
| EDDB2-11 | 2026-09-04 12:11:47 | 51.45747 | 8.80514 | 128° | 9km/h | 24895m | 5.6m/s | -51.0°C | 0.9% | 27.2hPa | 2.6V | 00:00:00 | 00:00:00 | 00:00:00 | |
| DL1NUX | 2026-09-04 12:11:46 | 51.45752 | 8.80500 | 118° | 9km/h | 24868m | 5.9m/s | -50.9°C | 3.7% | 27.4hPa | 2.6V | 08:30:00 | 01:53:16 | 00:00:00 | |
| BIOWL1-15 | 2026-09-04 12:11:45 | 51.45748 | 8.80511 | 126° | 9km/h | 24890m | 5.9m/s | -51°C | 0.5% | 27.3hPa | 2.6V | 18:12:15 | 01:53:20 | 00:00:00 | |
| HSKMA3-T | 2026-09-04 12:11:44 | 51.45749 | 8.80508 | 119° | 7km/h | 24884m | 5.2m/s | -51°C | 0.5% | 27.3hPa | 2.7V | 18:12:15 | 01:53:19 | 00:00:00 | |
| GOEST3-10 | 2026-09-04 12:11:44 | 51.45749 | 8.80508 | 120° | 9km/h | 24884m | 5.1m/s | -50.9°C | 3.6% | 27.2hPa | 2.5V | 00:00:00 | 00:00:00 | 00:00:00 | |
| DL1XH-15 | 2026-09-04 12:11:43 | 51.45751 | 8.80503 | 121° | 7km/h | 24874m | 6.1m/s | -50.9°C | 3.6% | 27.3hPa | 2.5V | 08:30:00 | 01:53:17 | 00:00:00 | |
| DL1XH-west | 2026-09-04 12:11:41 | 51.45752 | 8.80500 | 119° | 9km/h | 24868m | 5.9m/s | -50.9°C | 0.5% | 27.4hPa | 2.6V | 18:12:15 | 01:53:16 | 00:00:00 | |
| DF8AY | 2026-09-04 12:11:40 | 51.45753 | 8.80496 | 112° | 9km/h | 24862m | 4.8m/s | -50.8°C | 0.4% | 27.4hPa | 2.7V | 18:12:15 | 01:53:15 | 00:00:00 | |
| DB0DAN | 2026-09-04 12:11:40 | 51.45753 | 8.80496 | 112° | 9km/h | 24862m | 4.8m/s | -50.8°C | 1% | 27.38hPa | 2.7V | 00:00:00 | 00:00:00 | 00:00:00 | |
| DJ8HS-15 | 2026-09-04 12:11:40 | 51.45753 | 8.80496 | 112° | 9km/h | 24863m | 4.7m/s | -50.8°C | 3.6% | 27.3hPa | 2.5V | 00:00:00 | 01:53:15 | 00:00:00 | |
| DL1XH1-15 | 2026-09-04 12:11:39 | 51.45753 | 8.80487 | 54° | 7km/h | 24845m | 4.6m/s | -50.8°C | 3.6% | 27.4hPa | 2.5V | 08:30:00 | 01:53:12 | 00:00:00 | |
| AA1-15 | 2026-09-04 12:11:38 | 51.45754 | 8.80490 | 69° | 7km/h | 24851m | 6m/s | -50.8°C | 0.5% | 27.4hPa | 2.5V | 18:12:15 | 01:53:13 | 00:00:00 | |
| DL4XJ-10 | 2026-09-04 12:11:37 | 51.45753 | 8.80487 | 55° | 9km/h | 24846m | 4.6m/s | -51.5°C | 0% | 0hPa | 2.7V | 00:00:00 | 00:00:00 | 00:00:00 | |
| DM0DOS-11 | 2026-09-04 12:11:36 | 51.45753 | 8.80477 | 131° | 7km/h | 24824m | 5.4m/s | -50.8°C | 3.5% | 27.5hPa | 2.7V | 08:30:00 | 01:53:08 | 00:00:00 | |
| BIOWL1-15 | 2026-09-04 12:11:35 | 51.45752 | 8.80482 | 94° | 7km/h | 24835m | 6.3m/s | -50.8°C | 0.4% | 27.5hPa | 2.7V | 18:12:15 | 01:53:10 | 00:00:00 | |
| HSKMA3-T | 2026-09-04 12:11:33 | 51.45753 | 8.80477 | 131° | 7km/h | 24824m | 5.4m/s | -50.8°C | 0.4% | 27.6hPa | 2.7V | 18:12:15 | 01:53:08 | 00:00:00 | |
| DL1NUX | 2026-09-04 12:11:32 | 51.45755 | 8.80472 | 123° | 5km/h | 24813m | 5m/s | -50.8°C | 3.5% | 27.6hPa | 2.6V | 08:30:00 | 01:53:06 | 00:00:00 | |
| DL1XH-west | 2026-09-04 12:11:30 | 51.45756 | 8.80470 | 128° | 7km/h | 24808m | 4.2m/s | -50.8°C | 0.4% | 27.6hPa | 2.6V | 18:12:15 | 01:53:05 | 00:00:00 | |
| DF8AY | 2026-09-04 12:11:28 | 51.45760 | 8.80465 | 136° | 13km/h | 24797m | 5.9m/s | -50.8°C | 0.4% | 27.7hPa | 2.7V | 18:12:15 | 01:53:03 | 00:00:00 | |
| AA1-15 | 2026-09-04 12:11:27 | 51.45762 | 8.80461 | 127° | 13km/h | 24792m | 4.9m/s | -50.8°C | 0.5% | 27.7hPa | 2.7V | 18:12:15 | 01:53:02 | 00:00:00 | |
| DL1NUX | 2026-09-04 12:11:26 | 51.45761 | 8.80432 | 87° | 11km/h | 24758m | 4.9m/s | -50.8°C | 3.6% | 27.8hPa | 2.7V | 08:30:00 | 01:52:56 | 00:00:00 | |
| BIOWL1-15 | 2026-09-04 12:11:25 | 51.45763 | 8.80441 | 72° | 13km/h | 24769m | 5.3m/s | -50.9°C | 0.5% | 27.8hPa | 2.7V | 18:12:15 | 01:52:58 | 00:00:00 | |
| DO2JMG | 2026-09-04 12:11:24 | 51.45763 | 8.80447 | 75° | 13km/h | 24775m | 5.2m/s | -50.8°C | 0.4% | 27.8hPa | 2.6V | 18:12:15 | 01:52:59 | 00:00:00 | |
| DO1YAY-16 | 2026-09-04 12:11:23 | 51.45763 | 8.80441 | 72° | 13km/h | 24770m | 5.3m/s | -50.9°C | 1.0% | 27.8hPa | 2.7V | 00:00:00 | 00:00:00 | 00:00:00 | |
| DL1XH1-15 | 2026-09-04 12:11:22 | 51.45761 | 8.80421 | 124° | 5km/h | 24737m | 4.9m/s | -50.9°C | 3.6% | 27.9hPa | 2.7V | 08:30:00 | 01:52:52 | 00:00:00 | |
| HSKMA3-T | 2026-09-04 12:11:22 | 51.45762 | 8.80436 | 79° | 13km/h | 24764m | 6m/s | -50.8°C | 0.5% | 27.8hPa | 2.7V | 18:12:15 | 01:52:57 | 00:00:00 | |
| DL1XH-west | 2026-09-04 12:11:20 | 51.45761 | 8.80428 | 87° | 7km/h | 24753m | 4.8m/s | -50.8°C | 0.4% | 27.9hPa | 2.5V | 18:12:15 | 01:52:55 | 00:00:00 | |
| AA1-15 | 2026-09-04 12:11:17 | 51.45763 | 8.80419 | 139° | 9km/h | 24731m | 6.4m/s | -50.9°C | 0.4% | 27.9hPa | 2.7V | 18:12:15 | 01:52:51 | 00:00:00 | |
| EDDB2-11 | 2026-09-04 12:11:16 | 51.45765 | 8.80416 | 138° | 13km/h | 24726m | 5.0m/s | -50.9°C | 0.9% | 28.0hPa | 2.7V | 00:00:00 | 00:00:00 | 00:00:00 | |
| DF2AP-13 | 2026-09-04 12:11:15 | 51.45765 | 8.80416 | 139° | 18km/h | 24726m | 4.9m/s | -50.8°C | 3.5% | 27.9hPa | 2.7V | 00:00:00 | 01:52:50 | 00:00:00 | |
| DM0DOS-11 | 2026-09-04 12:11:14 | 51.45769 | 8.80407 | 113° | 15km/h | 24715m | 6.2m/s | -50.8°C | 3.5% | 28hPa | 2.7V | 08:30:00 | 01:52:48 | 00:00:00 | |
| DO2JMG | 2026-09-04 12:11:14 | 51.45767 | 8.80412 | 128° | 15km/h | 24721m | 4.5m/s | -50.9°C | 0.4% | 28hPa | 2.6V | 18:12:15 | 01:52:49 | 00:00:00 | |
| HSKMA3-T | 2026-09-04 12:11:11 | 51.45770 | 8.80392 | 85° | 22km/h | 24705m | 5m/s | -50.8°C | 0.4% | 28.1hPa | 2.5V | 18:12:15 | 01:52:46 | 00:00:00 | |
| DD8BA-10 | 2026-09-04 12:11:11 | 51.45770 | 8.80392 | 85° | 20km/h | 24705m | 4.9m/s | -50.8°C | 3.5% | 28.0hPa | 2.6V | 00:00:00 | 00:00:00 | 00:00:00 | |
| DO9LL-15 | 2026-09-04 12:11:10 | 51.45769 | 8.80383 | 82° | 18km/h | 24699m | 5.9m/s | -50.8°C | 3.6% | 28.0hPa | 2.6V | 00:00:00 | 01:52:45 | 08:30:00 | |
| DL1XH1-15 | 2026-09-04 12:11:09 | 51.45767 | 8.80354 | 79° | 22km/h | 24683m | 4m/s | -50.7°C | 3.6% | 28.1hPa | 2.7V | 08:30:00 | 01:52:42 | 00:00:00 | |
| DL1XH-west | 2026-09-04 12:11:09 | 51.45768 | 8.80373 | 82° | 26km/h | 24693m | 6.2m/s | -50.8°C | 0.4% | 28.1hPa | 2.6V | 18:12:15 | 01:52:44 | 00:00:00 | |
| DF8AY | 2026-09-04 12:11:07 | 51.45767 | 8.80354 | 79° | 22km/h | 24683m | 4m/s | -50.7°C | 0.4% | 28.1hPa | 2.7V | 18:12:15 | 01:52:42 | 00:00:00 | |
| DL1NUX | 2026-09-04 12:11:06 | 51.45758 | 8.80316 | 81° | 13km/h | 24651m | 5.2m/s | -50.7°C | 3.5% | 28.3hPa | 2.7V | 08:30:00 | 01:52:36 | 00:00:00 | |
| AA1-15 | 2026-09-04 12:11:06 | 51.45765 | 8.80346 | 73° | 20km/h | 24678m | 5.1m/s | -50.8°C | 0.5% | 28.2hPa | 2.7V | 18:12:15 | 01:52:41 | 00:00:00 | |
| DO2JMG | 2026-09-04 12:11:04 | 51.45761 | 8.80332 | 61° | 16km/h | 24668m | 4.7m/s | -50.8°C | 0.5% | 28.2hPa | 2.5V | 18:12:15 | 01:52:39 | 00:00:00 | |
| BIOWL1-15 | 2026-09-04 12:11:03 | 51.45760 | 8.80326 | 65° | 15km/h | 24663m | 5.6m/s | -50.8°C | 0.5% | 28.2hPa | 2.6V | 18:12:15 | 01:52:38 | 00:00:00 | |
| HSKMA3-T | 2026-09-04 12:11:00 | 51.45757 | 8.80310 | 77° | 13km/h | 24646m | 5.9m/s | -50.8°C | 0.4% | 28.3hPa | 2.7V | 18:12:15 | 01:52:35 | 00:00:00 | |
| DL1XH-west | 2026-09-04 12:10:59 | 51.45755 | 8.80299 | 70° | 18km/h | 24635m | 4.8m/s | -50.8°C | 0.4% | 28.4hPa | 2.5V | 18:12:15 | 01:52:33 | 00:00:00 | |
| DM0DOS-11 | 2026-09-04 12:10:59 | 51.45745 | 8.80251 | 56° | 20km/h | 24601m | 5.2m/s | -50.7°C | 3.5% | 28.5hPa | 2.6V | 08:30:00 | 01:52:27 | 00:00:00 | |
| DF8AY | 2026-09-04 12:10:57 | 51.45752 | 8.80284 | 82° | 20km/h | 24623m | 5.9m/s | -50.9°C | 0.4% | 28.4hPa | 2.7V | 18:12:15 | 01:52:31 | 00:00:00 | |
| BIOWL1-15 | 2026-09-04 12:10:56 | 51.45745 | 8.80251 | 57° | 20km/h | 24601m | 5.2m/s | -50.7°C | 0.4% | 28.5hPa | 2.6V | 18:12:15 | 01:52:27 | 00:00:00 | |
| AA1-15 | 2026-09-04 12:10:55 | 51.45751 | 8.80275 | 79° | 22km/h | 24618m | 4.8m/s | -50.9°C | 0.4% | 28.5hPa | 2.7V | 18:12:15 | 01:52:30 | 00:00:00 | |
| DO2JMG | 2026-09-04 12:10:54 | 51.45750 | 8.80267 | 73° | 22km/h | 24613m | 5.5m/s | -50.9°C | 0.4% | 28.5hPa | 2.7V | 18:12:15 | 01:52:29 | 00:00:00 | |
| DL1NUX | 2026-09-04 12:10:52 | 51.45742 | 8.80245 | 53° | 18km/h | 24596m | 5.9m/s | -50.8°C | 3.5% | 28.5hPa | 2.6V | 08:30:00 | 01:52:26 | 00:00:00 | |
| HSKMA3-T | 2026-09-04 12:10:50 | 51.45740 | 8.80239 | 55° | 15km/h | 24590m | 5.9m/s | -50.8°C | 0.4% | 28.6hPa | 2.7V | 18:12:15 | 01:52:25 | 00:00:00 | |
| DL1ZP-14 | 2026-09-04 12:10:50 | 51.45738 | 8.80235 | 57° | 11km/h | 24585m | 4.7m/s | -50.8°C | 1.0% | 28.6hPa | 2.7V | 00:00:00 | 00:00:00 | 00:00:00 | |
| DL1XH1-15 | 2026-09-04 12:10:49 | 51.45734 | 8.80227 | 47° | 13km/h | 24574m | 6.1m/s | -50.9°C | 3.6% | 28.6hPa | 2.6V | 08:30:00 | 01:52:22 | 00:00:00 | |
| DL1XH-west | 2026-09-04 12:10:47 | 51.45734 | 8.80227 | 47° | 13km/h | 24574m | 6.1m/s | -50.9°C | 0.4% | 28.6hPa | 2.6V | 18:12:15 | 01:52:22 | 00:00:00 | |
| DF8AY | 2026-09-04 12:10:46 | 51.45732 | 8.80223 | 47° | 15km/h | 24569m | 4.9m/s | -50.9°C | 0.5% | 28.6hPa | 2.7V | 18:12:15 | 01:52:21 | 00:00:00 | |
| DL1NUX | 2026-09-04 12:10:46 | 51.45725 | 8.80188 | 72° | 24km/h | 24541m | 6.2m/s | -50.9°C | 3.5% | 28.8hPa | 2.7V | 08:30:00 | 01:52:16 | 00:00:00 | |
| AA1-15 | 2026-09-04 12:10:44 | 51.45728 | 8.80212 | 71° | 16km/h | 24558m | 6.5m/s | -50.9°C | 0.5% | 28.7hPa | 2.5V | 18:12:15 | 01:52:19 | 00:00:00 | |
| DO2JMG | 2026-09-04 12:10:43 | 51.45727 | 8.80205 | 80° | 20km/h | 24552m | 5.5m/s | -50.9°C | 0.4% | 28.7hPa | 2.5V | 18:12:15 | 01:52:18 | 00:00:00 | |
| BIOWL1-15 | 2026-09-04 12:10:41 | 51.45725 | 8.80188 | 72° | 24km/h | 24541m | 6.2m/s | -50.9°C | 0.4% | 28.8hPa | 2.7V | 18:12:15 | 01:52:16 | 00:00:00 | |
| DO9LL-15 | 2026-09-04 12:10:40 | 51.45722 | 8.80179 | 63° | 16km/h | 24535m | 5.0m/s | -50.9°C | 3.5% | 28.8hPa | 2.6V | 00:00:00 | 01:52:15 | 00:00:00 | |
| DL1XH1-15 | 2026-09-04 12:10:39 | 51.45712 | 8.80155 | 50° | 22km/h | 24520m | 5.8m/s | -51°C | 3.6% | 28.9hPa | 2.6V | 08:30:00 | 01:52:12 | 00:00:00 | |
| HSKMA3-T | 2026-09-04 12:10:38 | 51.45715 | 8.80162 | 54° | 24km/h | 24526m | 5.7m/s | -51°C | 0.4% | 28.9hPa | 2.5V | 18:12:15 | 01:52:13 | 00:00:00 | |
| DF8AY | 2026-09-04 12:10:36 | 51.45700 | 8.80141 | 20° | 22km/h | 24503m | 6.2m/s | -50.8°C | 0.4% | 28.9hPa | 2.7V | 18:12:15 | 01:52:09 | 00:00:00 | |
| DL1XH-west | 2026-09-04 12:10:36 | 51.45708 | 8.80149 | 41° | 20km/h | 24514m | 4.9m/s | -50.9°C | 0.4% | 28.9hPa | 2.6V | 18:12:15 | 01:52:11 | 00:00:00 | |
| GOEST3-10 | 2026-09-04 12:10:34 | 51.45699 | 8.80141 | 21° | 20km/h | 24503m | 6.1m/s | -50.8°C | 3.5% | 28.9hPa | 2.7V | 00:00:00 | 00:00:00 | 00:00:00 | |
| DL1XH-15 | 2026-09-04 12:10:33 | 51.45689 | 8.80135 | 21° | 20km/h | 24494m | 3.7m/s | -51°C | 3.6% | 29hPa | 2.5V | 08:30:00 | 01:52:07 | 00:00:00 | |
| DO2JMG | 2026-09-04 12:10:33 | 51.45694 | 8.80138 | 16° | 22km/h | 24498m | 4.2m/s | -50.9°C | 0.4% | 29hPa | 2.7V | 18:12:15 | 01:52:08 | 00:00:00 | |
| BIOWL1-15 | 2026-09-04 12:10:30 | 51.45682 | 8.80127 | 57° | 16km/h | 24483m | 5.9m/s | -51.1°C | 0.5% | 29hPa | 2.6V | 18:12:15 | 01:52:05 | 00:00:00 | |
| HSKMA3-T | 2026-09-04 12:10:28 | 51.45679 | 8.80112 | 84° | 22km/h | 24472m | 5.3m/s | -51.2°C | 0.4% | 29.1hPa | 2.7V | 18:12:15 | 01:52:03 | 00:00:00 | |
| DL1XH-west | 2026-09-04 12:10:26 | 51.45678 | 8.80095 | 81° | 20km/h | 24462m | 4.9m/s | -51.1°C | 0.4% | 29.1hPa | 2.6V | 18:12:15 | 01:52:01 | 00:00:00 | |
| DL1XH-15 | 2026-09-04 12:10:25 | 51.45677 | 8.80072 | 101° | 7km/h | 24441m | 5.2m/s | -51.1°C | 3.5% | 29.2hPa | 2.6V | 08:30:00 | 01:51:57 | 00:00:00 | |
| AA1-15 | 2026-09-04 12:10:23 | 51.45677 | 8.80076 | 94° | 11km/h | 24447m | 5.9m/s | -51.1°C | 0.4% | 29.2hPa | 2.5V | 18:12:15 | 01:51:58 | 00:00:00 | |
| DO2JMG | 2026-09-04 12:10:22 | 51.45677 | 8.80072 | 102° | 7km/h | 24441m | 5.2m/s | -51.1°C | 0.4% | 29.2hPa | 2.6V | 18:12:15 | 01:51:57 | 00:00:00 | |
| BIOWL1-15 | 2026-09-04 12:10:21 | 51.45675 | 8.80070 | 350° | 7km/h | 24425m | 4.3m/s | -51.1°C | 0.4% | 29.3hPa | 2.5V | 18:12:15 | 01:51:54 | 00:00:00 | |
| HSKMA3-T | 2026-09-04 12:10:17 | 51.45672 | 8.80070 | 29° | 7km/h | 24417m | 5.5m/s | -51.2°C | 0.4% | 29.3hPa | 2.6V | 18:12:15 | 01:51:52 | 00:00:00 | |
| DL1XH-west | 2026-09-04 12:10:15 | 51.45670 | 8.80063 | 78° | 15km/h | 24406m | 4.9m/s | -51.2°C | 0.5% | 29.4hPa | 2.7V | 18:12:15 | 01:51:50 | 00:00:00 | |
| AA1-15 | 2026-09-04 12:10:13 | 51.45667 | 8.80048 | 68° | 24km/h | 24396m | 5.4m/s | -51.2°C | 0.4% | 29.4hPa | 2.5V | 18:12:15 | 01:51:48 | 00:00:00 | |
| DO2JMG | 2026-09-04 12:10:11 | 51.45661 | 8.80030 | 53° | 26km/h | 24386m | 4.2m/s | -51.2°C | 0.4% | 29.5hPa | 2.6V | 18:12:15 | 01:51:46 | 00:00:00 | |
| DB0DAN | 2026-09-04 12:10:10 | 51.45657 | 8.80023 | 48° | 22km/h | 24382m | 4.8m/s | -51.3°C | 0.9% | 29.51hPa | 2.7V | 00:00:00 | 00:00:00 | 00:00:00 | |
| BIOWL1-15 | 2026-09-04 12:10:08 | 51.45651 | 8.80011 | 56° | 15km/h | 24371m | 5.5m/s | -51.4°C | 0.4% | 29.5hPa | 2.7V | 18:12:15 | 01:51:43 | 00:00:00 | |
| HSKMA3-T | 2026-09-04 12:10:07 | 51.45649 | 8.80006 | 65° | 13km/h | 24366m | 4.7m/s | -51.4°C | 0.5% | 29.6hPa | 2.5V | 18:12:15 | 01:51:42 | 00:00:00 | |
| DL1XH-west | 2026-09-04 12:10:05 | 51.45646 | 8.79995 | 58° | 16km/h | 24356m | 5.6m/s | -51.5°C | 0.3% | 29.6hPa | 2.6V | 18:12:15 | 01:51:40 | 00:00:00 | |
| AA1-15 | 2026-09-04 12:10:02 | 51.45635 | 8.79977 | 41° | 24km/h | 24340m | 4.9m/s | -51.6°C | 0.4% | 29.7hPa | 2.6V | 18:12:15 | 01:51:37 | 00:00:00 | |
| DO2JMG | 2026-09-04 12:10:01 | 51.45630 | 8.79970 | 40° | 24km/h | 24335m | 5.5m/s | -51.6°C | 0.5% | 29.7hPa | 2.6V | 18:12:15 | 01:51:36 | 00:00:00 | |
| BIOWL1-15 | 2026-09-04 12:10:00 | 51.45618 | 8.79947 | 58° | 27km/h | 24319m | 5.9m/s | -51.7°C | 0.6% | 29.8hPa | 2.5V | 18:12:15 | 01:51:33 | 00:00:00 | |
| HSKMA3-T | 2026-09-04 12:09:56 | 51.45610 | 8.79925 | 57° | 35km/h | 24309m | 3.8m/s | -51.7°C | 0.5% | 29.9hPa | 2.7V | 18:12:15 | 01:51:31 | 00:00:00 | |
| DL1XH-west | 2026-09-04 12:09:55 | 51.45605 | 8.79914 | 55° | 33km/h | 24305m | 3.9m/s | -51.8°C | 0.6% | 29.8hPa | 2.7V | 18:12:15 | 01:51:30 | 00:00:00 | |
| DM0DOS-11 | 2026-09-04 12:09:54 | 51.45591 | 8.79890 | 33° | 24km/h | 24289m | 4.4m/s | -52°C | 3.7% | 29.9hPa | 2.5V | 08:30:00 | 01:51:27 | 00:00:00 | |
| DL1XH1-15 | 2026-09-04 12:09:54 | 51.45561 | 8.79862 | 35° | 26km/h | 24264m | 4.9m/s | -51.9°C | 3.7% | 30hPa | 2.5V | 08:30:00 | 01:51:22 | 00:00:00 | |
| DO2JMG | 2026-09-04 12:09:51 | 51.45586 | 8.79885 | 28° | 26km/h | 24284m | 5.7m/s | -52°C | 0.5% | 29.9hPa | 2.7V | 18:12:15 | 01:51:26 | 00:00:00 | |
| DF8AY | 2026-09-04 12:09:50 | 51.45580 | 8.79880 | 27° | 27km/h | 24278m | 5.8m/s | -52°C | 0.5% | 30hPa | 2.7V | 18:12:15 | 01:51:25 | 00:00:00 | |
| DL1ZP-14 | 2026-09-04 12:09:48 | 51.45561 | 8.79862 | 35° | 26km/h | 24265m | 4.9m/s | -51.9°C | 1.0% | 30.0hPa | 2.5V | 00:00:00 | 00:00:00 | 00:00:00 | |
| DO3MHA-11 | 2026-09-04 12:09:47 | 51.45561 | 8.79862 | 36° | 16km/h | 24265m | 4.9m/s | -51.8°C | 3.7% | 30.0hPa | 2.5V | 00:00:00 | 01:51:22 | 00:00:00 | |
| DL1NUX | 2026-09-04 12:09:46 | 51.45543 | 8.79832 | 49° | 16km/h | 24231m | 4.4m/s | -51.9°C | 3.8% | 30.2hPa | 2.5V | 08:30:00 | 01:51:16 | 00:00:00 | |
| HSKMA3-T | 2026-09-04 12:09:46 | 51.45557 | 8.79856 | 41° | 22km/h | 24259m | 6.1m/s | -51.8°C | 0.5% | 30.1hPa | 2.6V | 18:12:15 | 01:51:21 | 00:00:00 | |
| DL1XH-west | 2026-09-04 12:09:45 | 51.45553 | 8.79851 | 46° | 16km/h | 24253m | 5.4m/s | -51.8°C | 0.5% | 30.1hPa | 2.7V | 18:12:15 | 01:51:20 | 00:00:00 | |
| DF2AP-13 | 2026-09-04 12:09:45 | 51.45553 | 8.79851 | 46° | 13km/h | 24253m | 5.3m/s | -51.8°C | 3.7% | 30.0hPa | 2.5V | 00:00:00 | 01:51:20 | 00:00:00 | |
| GOEST3-10 | 2026-09-04 12:09:44 | 51.45551 | 8.79847 | 52° | 16km/h | 24248m | 4.9m/s | -51.8°C | 3.7% | 30.0hPa | 2.5V | 00:00:00 | 00:00:00 | 00:00:00 | |
| EDDB2-11 | 2026-09-04 12:09:43 | 51.45546 | 8.79837 | 51° | 15km/h | 24236m | 5.6m/s | -51.9°C | 1.0% | 30.2hPa | 2.5V | 00:00:00 | 00:00:00 | 00:00:00 | |
| DL1XH1-15 | 2026-09-04 12:09:42 | 51.45529 | 8.79814 | 23° | 16km/h | 24205m | 6.1m/s | -51.9°C | 3.7% | 30.3hPa | 2.5V | 08:30:00 | 01:51:11 | 00:00:00 | |
| AA1-15 | 2026-09-04 12:09:41 | 51.45543 | 8.79832 | 49° | 16km/h | 24231m | 4.4m/s | -51.9°C | 0.6% | 30.2hPa | 2.5V | 18:12:15 | 01:51:16 | 00:00:00 | |
| DF8AY | 2026-09-04 12:09:40 | 51.45538 | 8.79823 | 43° | 15km/h | 24222m | 6.2m/s | -51.9°C | 0.5% | 30.2hPa | 2.7V | 18:12:15 | 01:51:14 | 00:00:00 | |
| DO2JMG | 2026-09-04 12:09:40 | 51.45541 | 8.79827 | 48° | 16km/h | 24227m | 4.4m/s | -51.9°C | 0.5% | 30.2hPa | 2.5V | 18:12:15 | 01:51:15 | 00:00:00 | |
| BIOWL1-15 | 2026-09-04 12:09:37 | 51.45532 | 8.79817 | 26° | 15km/h | 24211m | 4.8m/s | -51.8°C | 0.5% | 30.3hPa | 2.5V | 18:12:15 | 01:51:12 | 00:00:00 | |
| HSKMA3-T | 2026-09-04 12:09:35 | 51.45525 | 8.79811 | 23° | 18km/h | 24200m | 4.7m/s | -51.9°C | 0.4% | 30.3hPa | 2.7V | 18:12:15 | 01:51:10 | 00:00:00 | |
| DL1XH-west | 2026-09-04 12:09:34 | 51.45521 | 8.79808 | 27° | 16km/h | 24195m | 4.7m/s | -51.9°C | 0.5% | 30.4hPa | 2.7V | 18:12:15 | 01:51:09 | 00:00:00 | |
| GOEST3-10 | 2026-09-04 12:09:34 | 51.45521 | 8.79808 | 28° | 13km/h | 24195m | 4.6m/s | -51.9°C | 3.7% | 30.3hPa | 2.7V | 00:00:00 | 00:00:00 | 08:30:00 | |
| DM0DOS-11 | 2026-09-04 12:09:33 | 51.45516 | 8.79802 | 61° | 9km/h | 24184m | 5.4m/s | -51.8°C | 3.7% | 30.4hPa | 2.6V | 08:30:00 | 01:51:07 | 00:00:00 | |
| DL1NUX | 2026-09-04 12:09:32 | 51.45515 | 8.79798 | 88° | 11km/h | 24179m | 4.8m/s | -51.8°C | 3.7% | 30.4hPa | 2.6V | 08:30:00 | 01:51:06 | 00:00:00 | |
| EDDB2-12 | 2026-09-04 12:09:32 | 51.45516 | 8.79802 | 61° | 9km/h | 24184m | 5.4m/s | -51.8°C | 1.0% | 30.4hPa | 2.6V | 00:00:00 | 00:00:00 | 00:00:00 | |
| DL1XH1-15 | 2026-09-04 12:09:31 | 51.45517 | 8.79771 | 104° | 11km/h | 24151m | 5.8m/s | -52°C | 3.8% | 30.6hPa | 2.6V | 08:30:00 | 01:51:01 | 00:00:00 | |
| DO2JMG | 2026-09-04 12:09:30 | 51.45515 | 8.79793 | 95° | 13km/h | 24173m | 5.4m/s | -51.9°C | 0.4% | 30.5hPa | 2.7V | 18:12:15 | 01:51:05 | 00:00:00 | |
| DF8AY | 2026-09-04 12:09:28 | 51.45517 | 8.79771 | 105° | 11km/h | 24151m | 5.8m/s | -52°C | 0.5% | 30.6hPa | 2.6V | 18:12:15 | 01:51:01 | 00:00:00 | |
| DL1XH-west | 2026-09-04 12:09:24 | 51.45517 | 8.79763 | 79° | 9km/h | 24140m | 5.4m/s | -51.9°C | 0.5% | 30.6hPa | 2.7V | 18:12:15 | 01:50:59 | 00:00:00 | |
| DM0DOS-11 | 2026-09-04 12:09:23 | 51.45515 | 8.79757 | 43° | 9km/h | 24129m | 4.5m/s | -51.9°C | 3.8% | 30.7hPa | 2.7V | 08:30:00 | 01:50:57 | 00:00:00 | |
| NBG1-10 | 2026-09-04 12:09:23 | 51.45517 | 8.79760 | 57° | 13km/h | 24135m | 5.8m/s | -51.8°C | 3.8% | 30.6hPa | 2.5V | 00:00:00 | 01:50:58 | 00:00:00 | |
| DL1NUX | 2026-09-04 12:09:22 | 51.45514 | 8.79755 | 39° | 7km/h | 24125m | 5.3m/s | -52.1°C | 3.8% | 30.7hPa | 2.5V | 08:30:00 | 01:50:56 | 00:00:00 | |
| DO2JMG | 2026-09-04 12:09:20 | 51.45512 | 8.79753 | 42° | 5km/h | 24119m | 5.7m/s | -52.1°C | 0.6% | 30.7hPa | 2.5V | 18:12:15 | 01:50:55 | 00:00:00 | |
| DF8AY | 2026-09-04 12:09:18 | 51.45512 | 8.79750 | 115° | 7km/h | 24109m | 5.3m/s | -52.1°C | 0.6% | 30.8hPa | 2.7V | 18:12:15 | 01:50:53 | 00:00:00 | |
| BIOWL1-15 | 2026-09-04 12:09:16 | 51.45519 | 8.79728 | 124° | 20km/h | 24087m | 6.3m/s | -52.1°C | 0.6% | 30.9hPa | 2.5V | 18:12:15 | 01:50:49 | 00:00:00 | |
| HSKMA3-T | 2026-09-04 12:09:13 | 51.45522 | 8.79722 | 129° | 20km/h | 24081m | 5.4m/s | -52.1°C | 0.6% | 30.9hPa | 2.6V | 18:12:15 | 01:50:48 | 00:00:00 | |
| DM0DOS-11 | 2026-09-04 12:09:12 | 51.45525 | 8.79715 | 124° | 18km/h | 24076m | 5m/s | -52.1°C | 3.7% | 30.9hPa | 2.7V | 08:30:00 | 01:50:47 | 00:00:00 | |
| EDDB2-11 | 2026-09-04 12:09:12 | 51.45527 | 8.79709 | 114° | 15km/h | 24070m | 6.0m/s | -52.1°C | 1.0% | 30.9hPa | 2.5V | 00:00:00 | 00:00:00 | 00:00:00 | |
| DJ2KF-10 | 2026-09-04 12:09:11 | 51.45527 | 8.79709 | 115° | 16km/h | 24070m | 5.9m/s | -52.1°C | 3.8% | 30.9hPa | 2.5V | 00:00:00 | 01:50:46 | 00:00:00 | |
| DL1XH1-15 | 2026-09-04 12:09:10 | 51.45529 | 8.79695 | 85° | 5km/h | 24043m | 5.7m/s | -52.2°C | 3.8% | 31.1hPa | 2.5V | 08:30:00 | 01:50:41 | 00:00:00 | |
| DB0DAN | 2026-09-04 12:09:10 | 51.45528 | 8.79704 | 102° | 11km/h | 24065m | 4.4m/s | -52.1°C | 1% | 31.01hPa | 2.5V | 00:00:00 | 00:00:00 | 00:00:00 | |
| DO2JMG | 2026-09-04 12:09:09 | 51.45529 | 8.79701 | 96° | 7km/h | 24060m | 5.4m/s | -52.2°C | 0.5% | 31hPa | 2.6V | 18:12:15 | 01:50:44 | 00:00:00 | |
| DO9LL-15 | 2026-09-04 12:09:08 | 51.45529 | 8.79698 | 98° | 13km/h | 24054m | 6.0m/s | -52.1°C | 3.8% | 31.0hPa | 2.7V | 00:00:00 | 01:50:43 | 00:00:00 | |
| DO3MHA-12 | 2026-09-04 12:09:07 | 51.45529 | 8.79697 | 101° | 15km/h | 24049m | 4.9m/s | -52.1°C | 3.8% | 31.0hPa | 2.7V | 00:00:00 | 01:50:42 | 00:00:00 | |
| BUE01 | 2026-09-04 12:09:06 | 51.45529 | 8.79695 | 85° | 4km/h | 24043m | 5.7m/s | -52.2°C | 1.0% | 31.1hPa | 2.7V | 00:00:00 | 00:00:00 | 00:00:00 | |
| SONCRA | 2026-09-04 12:09:05 | 51.45528 | 8.79687 | 80° | 15km/h | 24032m | 4.6m/s | -52.2°C | 1.1% | 31.1hPa | 2.7V | 00:00:00 | 00:00:00 | 00:00:00 | |
| DL1XH-15 | 2026-09-04 12:09:04 | 51.45528 | 8.79673 | 97° | 20km/h | 24022m | 6.2m/s | -52.3°C | 3.9% | 31.2hPa | 2.7V | 08:30:00 | 01:50:37 | 00:00:00 | |
| DO3DL | 2026-09-04 12:09:04 | 51.45528 | 8.79687 | 81° | 15km/h | 24032m | 4.6m/s | -52.2°C | 1.1% | 31.1hPa | 2.7V | 00:00:00 | 00:00:00 | 00:00:00 | |
| BIOWL1-15 | 2026-09-04 12:09:04 | 51.45530 | 8.79657 | 108° | 20km/h | 24012m | 4.4m/s | -52.2°C | 0.6% | 31.2hPa | 2.5V | 18:12:15 | 01:50:35 | 00:00:00 | |
| DD1CC1-15 | 2026-09-04 12:09:03 | 51.45528 | 8.79687 | 81° | 15km/h | 24032m | 4.6m/s | -52.2°C | 1.1% | 31.1hPa | 2.7V | 00:00:00 | 00:00:00 | 00:00:00 | |
| DL1NUX | 2026-09-04 12:09:02 | 51.45529 | 8.79665 | 105° | 20km/h | 24016m | 5.1m/s | -52.2°C | 3.9% | 31.2hPa | 2.7V | 08:30:00 | 01:50:36 | 00:00:00 | |
| DL1XH-west | 2026-09-04 12:09:02 | 51.45528 | 8.79673 | 97° | 20km/h | 24022m | 6.2m/s | -52.3°C | 0.6% | 31.2hPa | 2.7V | 18:12:15 | 01:50:37 | 00:00:00 | |
| HSKMA3-T | 2026-09-04 12:09:01 | 51.45529 | 8.79665 | 105° | 20km/h | 24016m | 5.1m/s | -52.2°C | 0.6% | 31.2hPa | 2.7V | 18:12:15 | 01:50:36 | 00:00:00 | |
| DO2JMG | 2026-09-04 12:08:58 | 51.45532 | 8.79643 | 85° | 16km/h | 24001m | 6.1m/s | -52.1°C | 0.6% | 31.3hPa | 2.6V | 18:12:15 | 01:50:33 | 00:00:00 | |
| DF8AY | 2026-09-04 12:08:55 | 51.45526 | 8.79629 | 32° | 13km/h | 23985m | 6.1m/s | -52°C | 0.6% | 31.4hPa | 2.7V | 18:12:15 | 01:50:30 | 00:00:00 | |
| DB0DAN | 2026-09-04 12:08:55 | 51.45526 | 8.79629 | 32° | 13km/h | 23985m | 6.1m/s | -52°C | 1% | 31.35hPa | 2.7V | 00:00:00 | 00:00:00 | 00:00:00 | |
| BIOWL1-15 | 2026-09-04 12:08:53 | 51.45521 | 8.79625 | 20° | 11km/h | 23975m | 4.4m/s | -51.9°C | 0.5% | 31.4hPa | 2.5V | 18:12:15 | 01:50:28 | 00:00:00 | |
| DL1XH-15 | 2026-09-04 12:08:53 | 51.45518 | 8.79624 | 26° | 13km/h | 23969m | 5.5m/s | -51.9°C | 3.7% | 31.4hPa | 2.6V | 08:30:00 | 01:50:27 | 00:00:00 | |
| DL1XH-west | 2026-09-04 12:08:52 | 51.45518 | 8.79623 | 27° | 13km/h | 23970m | 5.5m/s | -51.9°C | 0.5% | 31.4hPa | 2.6V | 18:12:15 | 01:50:27 | 00:00:00 | |
| HSKMA3-T | 2026-09-04 12:08:51 | 51.45515 | 8.79620 | 35° | 16km/h | 23964m | 6m/s | -51.9°C | 0.5% | 31.5hPa | 2.7V | 18:12:15 | 01:50:26 | 00:00:00 | |
| SO1NDE-10 | 2026-09-04 12:08:51 | 51.45515 | 8.79620 | 36° | 24km/h | 23964m | 5.9m/s | -51.8°C | 3.7% | 31.4hPa | 2.7V | 00:00:00 | 01:50:26 | 08:30:00 | |
| DD8BA-10 | 2026-09-04 12:08:50 | 51.45511 | 8.79616 | 47° | 22km/h | 23959m | 4.5m/s | -51.8°C | 3.7% | 31.5hPa | 2.7V | 00:00:00 | 00:00:00 | 00:00:00 | |
| GOEST3-10 | 2026-09-04 12:08:49 | 51.45508 | 8.79609 | 58° | 20km/h | 23955m | 4.0m/s | -51.7°C | 3.7% | 31.5hPa | 2.7V | 00:00:00 | 01:50:24 | 08:30:00 | |
| DL1XH1-15 | 2026-09-04 12:08:48 | 51.45504 | 8.79585 | 90° | 22km/h | 23938m | 4.8m/s | -52°C | 3.7% | 31.6hPa | 2.6V | 08:30:00 | 01:50:21 | 00:00:00 | |
| DO2JMG | 2026-09-04 12:08:48 | 51.45506 | 8.79602 | 68° | 20km/h | 23949m | 5.7m/s | -51.9°C | 0.6% | 31.5hPa | 2.5V | 18:12:15 | 01:50:23 | 00:00:00 | |
| AA1-15 | 2026-09-04 12:08:47 | 51.45505 | 8.79594 | 81° | 20km/h | 23944m | 5.9m/s | -51.9°C | 0.5% | 31.6hPa | 2.5V | 18:12:15 | 01:50:22 | 00:00:00 | |
| DF8AY | 2026-09-04 12:08:45 | 51.45504 | 8.79568 | 87° | 22km/h | 23929m | 5.2m/s | -52°C | 0.5% | 31.6hPa | 2.7V | 18:12:15 | 01:50:19 | 00:00:00 | |
| DL3AQ-11 | 2026-09-04 12:08:44 | 51.45504 | 8.79568 | 86° | 20km/h | 23930m | 5.2m/s | -52.0°C | 1.0% | 31.6hPa | 2.6V | 00:00:00 | 00:00:00 | 00:00:00 | |
| BIOWL1-15 | 2026-09-04 12:08:42 | 51.45501 | 8.79552 | 55° | 22km/h | 23919m | 4.8m/s | -52°C | 0.5% | 31.7hPa | 2.6V | 18:12:15 | 01:50:17 | 00:00:00 | |
| DB0UT-7 | 2026-09-04 12:08:42 | 51.45501 | 8.79551 | 55° | 27km/h | 23919m | 4.8m/s | -52.0°C | 3.7% | 31.6hPa | 2.6V | 00:00:00 | 00:00:00 | 00:00:00 | |
| DL1XH1-15 | 2026-09-04 12:08:41 | 51.45469 | 8.79520 | 38° | 27km/h | 23881m | 4m/s | -52.1°C | 3.8% | 31.9hPa | 2.7V | 08:30:00 | 01:50:10 | 00:00:00 | |
| DL1XH-west | 2026-09-04 12:08:41 | 51.45497 | 8.79545 | 42° | 20km/h | 23913m | 5.8m/s | -52.1°C | 0.6% | 31.7hPa | 2.7V | 18:12:15 | 01:50:16 | 00:00:00 | |
| HSKMA3-T | 2026-09-04 12:08:40 | 51.45493 | 8.79540 | 31° | 20km/h | 23907m | 6.5m/s | -52.2°C | 0.6% | 31.8hPa | 2.7V | 18:12:15 | 01:50:15 | 00:00:00 | |
| DB0DAN | 2026-09-04 12:08:40 | 51.45493 | 8.79540 | 31° | 18km/h | 23907m | 6.5m/s | -52.2°C | 1% | 31.76hPa | 2.7V | 00:00:00 | 00:00:00 | 00:00:00 | |
| DO2JMG | 2026-09-04 12:08:37 | 51.45479 | 8.79531 | 26° | 22km/h | 23891m | 5.6m/s | -52.1°C | 0.6% | 31.8hPa | 2.6V | 18:12:15 | 01:50:12 | 00:00:00 | |
| DF8AY | 2026-09-04 12:08:35 | 51.45469 | 8.79520 | 39° | 27km/h | 23881m | 4m/s | -52.1°C | 0.6% | 31.9hPa | 2.7V | 18:12:15 | 01:50:10 | 00:00:00 | |
| DL1XH-west | 2026-09-04 12:08:31 | 51.45450 | 8.79490 | 49° | 27km/h | 23861m | 4.3m/s | -52.2°C | 0.6% | 32hPa | 2.6V | 18:12:15 | 01:50:06 | 00:00:00 | |
| DL1XH1-15 | 2026-09-04 12:08:30 | 51.45422 | 8.79444 | 40° | 31km/h | 23836m | 5.3m/s | -52.2°C | 3.9% | 32.1hPa | 2.5V | 08:30:00 | 01:50:01 | 00:00:00 | |
| HSKMA3-T | 2026-09-04 12:08:29 | 51.45440 | 8.79472 | 46° | 33km/h | 23850m | 5.7m/s | -52.4°C | 0.7% | 32hPa | 2.7V | 18:12:15 | 01:50:04 | 00:00:00 | |
| AA1-15 | 2026-09-04 12:08:26 | 51.45422 | 8.79444 | 41° | 31km/h | 23836m | 5.3m/s | -52.2°C | 0.6% | 32.1hPa | 2.5V | 18:12:15 | 01:50:01 | 00:00:00 | |
| DO2JMG | 2026-09-04 12:08:25 | 51.45416 | 8.79436 | 41° | 27km/h | 23831m | 5.4m/s | -52.2°C | 0.6% | 32.1hPa | 2.5V | 18:12:15 | 01:50:00 | 00:00:00 | |
| DB0DAN | 2026-09-04 12:08:25 | 51.45416 | 8.79436 | 40° | 27km/h | 23831m | 5.4m/s | -52.2°C | 1.1% | 32.11hPa | 2.5V | 00:00:00 | 00:00:00 | 00:00:00 | |
| DL1XH-west | 2026-09-04 12:08:21 | 51.45394 | 8.79408 | 35° | 29km/h | 23811m | 4.5m/s | -52°C | 0.6% | 32.2hPa | 2.5V | 18:12:15 | 01:49:56 | 00:00:00 | |
| BIOWL1-15 | 2026-09-04 12:08:20 | 51.45376 | 8.79393 | 18° | 27km/h | 23795m | 4.8m/s | -51.9°C | 0.5% | 32.3hPa | 2.5V | 18:12:15 | 01:49:53 | 00:00:00 | |
| HSKMA3-T | 2026-09-04 12:08:19 | 51.45382 | 8.79397 | 24° | 27km/h | 23801m | 5.6m/s | -51.9°C | 0.6% | 32.3hPa | 2.7V | 18:12:15 | 01:49:54 | 00:00:00 | |
| AA1-15 | 2026-09-04 12:08:16 | 51.45362 | 8.79386 | 20° | 31km/h | 23785m | 5.8m/s | -52°C | 0.6% | 32.4hPa | 2.6V | 18:12:15 | 01:49:51 | 00:00:00 | |
| DO2JMG | 2026-09-04 12:08:15 | 51.45355 | 8.79381 | 24° | 31km/h | 23780m | 4.2m/s | -51.9°C | 0.5% | 32.4hPa | 2.7V | 18:12:15 | 01:49:50 | 00:00:00 | |
| DL1XH-west | 2026-09-04 12:08:11 | 51.45333 | 8.79360 | 42° | 22km/h | 23759m | 4.8m/s | -51.9°C | 0.6% | 32.5hPa | 2.5V | 18:12:15 | 01:49:46 | 00:00:00 | |
| DJ2KF-10 | 2026-09-04 12:08:11 | 51.45333 | 8.79360 | 42° | 20km/h | 23759m | 4.8m/s | -51.9°C | 3.9% | 32.4hPa | 2.5V | 00:00:00 | 01:49:46 | 00:00:00 | |
| DL1XH1-15 | 2026-09-04 12:08:10 | 51.45308 | 8.79333 | 14° | 24km/h | 23733m | 5.8m/s | -51.9°C | 3.8% | 32.6hPa | 2.5V | 08:30:00 | 01:49:41 | 00:00:00 | |
| HSKMA3-T | 2026-09-04 12:08:09 | 51.45324 | 8.79347 | 41° | 26km/h | 23748m | 4.8m/s | -52°C | 0.6% | 32.5hPa | 2.7V | 18:12:15 | 01:49:44 | 00:00:00 | |
| DM0DOS-11 | 2026-09-04 12:08:07 | 51.45280 | 8.79324 | 13° | 29km/h | 23713m | 4.1m/s | -51.8°C | 3.8% | 32.7hPa | 2.7V | 08:30:00 | 01:49:37 | 00:00:00 | |
| AA1-15 | 2026-09-04 12:08:06 | 51.45308 | 8.79333 | 15° | 24km/h | 23733m | 5.8m/s | -51.9°C | 0.6% | 32.6hPa | 2.5V | 18:12:15 | 01:49:41 | 00:00:00 | |
| DO2JMG | 2026-09-04 12:08:05 | 51.45302 | 8.79331 | 9° | 27km/h | 23728m | 4.7m/s | -51.9°C | 0.6% | 32.7hPa | 2.5V | 18:12:15 | 01:49:40 | 00:00:00 | |
| DL3AQ-11 | 2026-09-04 12:08:05 | 51.45295 | 8.79329 | 9° | 27km/h | 23723m | 5.9m/s | -51.8°C | 1.0% | 32.7hPa | 2.7V | 00:00:00 | 00:00:00 | 00:00:00 | |
| BUE01 | 2026-09-04 12:08:04 | 51.45287 | 8.79327 | 12° | 29km/h | 23717m | 4.8m/s | -51.8°C | 1.0% | 32.7hPa | 2.7V | 00:00:00 | 00:00:00 | 00:00:00 | |
| DO9LL-15 | 2026-09-04 12:08:03 | 51.45287 | 8.79327 | 13° | 26km/h | 23718m | 4.8m/s | -51.7°C | 3.8% | 32.7hPa | 2.7V | 00:00:00 | 01:49:38 | 00:00:00 | |
| DL1NUX | 2026-09-04 12:08:02 | 51.45273 | 8.79322 | 13° | 26km/h | 23708m | 6.2m/s | -51.9°C | 3.9% | 32.7hPa | 2.5V | 08:30:00 | 01:49:36 | 00:00:00 | |
| DL1XH-west | 2026-09-04 12:08:00 | 51.45267 | 8.79319 | 14° | 22km/h | 23702m | 5.6m/s | -51.8°C | 0.6% | 32.8hPa | 2.5V | 18:12:15 | 01:49:35 | 00:00:00 | |
| BIOWL1-15 | 2026-09-04 12:07:58 | 51.45251 | 8.79306 | 36° | 15km/h | 23681m | 4m/s | -51.6°C | 0.5% | 32.9hPa | 2.5V | 18:12:15 | 01:49:31 | 00:00:00 | |
| DL1XH1-15 | 2026-09-04 12:07:58 | 51.45251 | 8.79306 | 35° | 15km/h | 23681m | 4m/s | -51.6°C | 3.7% | 32.9hPa | 2.5V | 08:30:00 | 01:49:31 | 00:00:00 | |
| HSKMA3-T | 2026-09-04 12:07:58 | 51.45258 | 8.79314 | 30° | 18km/h | 23691m | 6.3m/s | -51.7°C | 0.6% | 32.8hPa | 2.7V | 18:12:15 | 01:49:33 | 00:00:00 | |
| DL4XJ-10 | 2026-09-04 12:07:57 | 51.45255 | 8.79310 | 37° | 15km/h | 23685m | 4.4m/s | -52.3°C | 0% | 0hPa | 2.5V | 00:00:00 | 00:00:00 | 00:00:00 | |
| DL1NUX | 2026-09-04 12:07:56 | 51.45233 | 8.79302 | 1° | 22km/h | 23654m | 4.7m/s | -51.4°C | 3.6% | 33hPa | 2.5V | 08:30:00 | 01:49:26 | 00:00:00 | |
| AA1-15 | 2026-09-04 12:07:55 | 51.45248 | 8.79303 | 26° | 13km/h | 23676m | 6.1m/s | -51.6°C | 0.5% | 32.9hPa | 2.5V | 18:12:15 | 01:49:30 | 00:00:00 | |
| DL1XH-15 | 2026-09-04 12:07:54 | 51.45238 | 8.79302 | 359° | 18km/h | 23659m | 6.1m/s | -51.4°C | 3.7% | 33hPa | 2.7V | 08:30:00 | 01:49:27 | 00:00:00 | |
| DO2JMG | 2026-09-04 12:07:54 | 51.45245 | 8.79302 | 7° | 13km/h | 23670m | 5.4m/s | -51.6°C | 0.5% | 33hPa | 2.7V | 18:12:15 | 01:49:29 | 00:00:00 | |
| DF8AY | 2026-09-04 12:07:52 | 51.45238 | 8.79302 | 359° | 18km/h | 23659m | 6.1m/s | -51.4°C | 0.5% | 33hPa | 2.7V | 18:12:15 | 01:49:27 | 00:00:00 | |
| DL3OBA | 2026-09-04 12:07:52 | 51.45238 | 8.79302 | 360° | 18km/h | 23659m | 6.1m/s | -51.4°C | 1.0% | 33.0hPa | 2.7V | 00:00:00 | 00:00:00 | 00:00:00 | |
| DL1XH1-15 | 2026-09-04 12:07:51 | 51.45207 | 8.79303 | 10° | 16km/h | 23628m | 6.2m/s | -51.4°C | 3.7% | 33.2hPa | 2.7V | 08:30:00 | 01:49:21 | 00:00:00 | |
| DL1XH-west | 2026-09-04 12:07:49 | 51.45222 | 8.79302 | 356° | 24km/h | 23644m | 5.9m/s | -51.4°C | 0.5% | 33.1hPa | 2.6V | 18:12:15 | 01:49:24 | 00:00:00 | |
| BIOWL1-15 | 2026-09-04 12:07:48 | 51.45216 | 8.79303 | 354° | 20km/h | 23638m | 5.3m/s | -51.3°C | 0.5% | 33.1hPa | 2.7V | 18:12:15 | 01:49:23 | 00:00:00 | |
| HSKMA3-T | 2026-09-04 12:07:47 | 51.45211 | 8.79303 | 358° | 18km/h | 23633m | 4.8m/s | -51.3°C | 0.5% | 33.1hPa | 2.7V | 18:12:15 | 01:49:22 | 00:00:00 | |
| DO2JMG | 2026-09-04 12:07:45 | 51.45201 | 8.79297 | 44° | 15km/h | 23617m | 4.4m/s | -51.2°C | 0.5% | 33.2hPa | 2.5V | 18:12:15 | 01:49:19 | 00:00:00 | |
| GOEST3-10 | 2026-09-04 12:07:45 | 51.45201 | 8.79297 | 44° | 9km/h | 23617m | 4.4m/s | -51.2°C | 3.6% | 33.2hPa | 2.7V | 00:00:00 | 00:00:00 | 00:00:00 | |
| DL4BBY-15 | 2026-09-04 12:07:43 | 51.45198 | 8.79293 | 50° | 9km/h | 23612m | 5.4m/s | -52.0°C | 0% | 0hPa | 2.7V | 00:00:00 | 00:00:00 | 00:00:00 | |
| DL1NUX | 2026-09-04 12:07:42 | 51.45195 | 8.79288 | 31° | 7km/h | 23601m | 4.7m/s | -51.3°C | 3.7% | 33.3hPa | 2.7V | 08:30:00 | 01:49:16 | 00:00:00 | |
| DB0UT-7 | 2026-09-04 12:07:42 | 51.45197 | 8.79290 | 49° | 9km/h | 23607m | 5.8m/s | -51.3°C | 3.7% | 33.2hPa | 2.5V | 00:00:00 | 00:00:00 | 00:00:00 | |
| DD1CC1-15 | 2026-09-04 12:07:41 | 51.45197 | 8.79290 | 49° | 9km/h | 23607m | 5.8m/s | -51.3°C | 1.0% | 33.3hPa | 2.5V | 00:00:00 | 00:00:00 | 00:00:00 | |
| DD8BA-10 | 2026-09-04 12:07:40 | 51.45193 | 8.79287 | 20° | 15km/h | 23596m | 5.5m/s | -51.3°C | 3.7% | 33.3hPa | 2.5V | 00:00:00 | 00:00:00 | 00:00:00 | |
| GOEST3-10 | 2026-09-04 12:07:39 | 51.45191 | 8.79286 | 10° | 16km/h | 23591m | 4.9m/s | -51.3°C | 3.7% | 33.3hPa | 2.5V | 00:00:00 | 01:49:14 | 00:00:00 | |
| DL1XH1-15 | 2026-09-04 12:07:38 | 51.45180 | 8.79289 | 334° | 18km/h | 23575m | 5.8m/s | -51.6°C | 3.7% | 33.4hPa | 2.5V | 08:30:00 | 01:49:11 | 00:00:00 | |
| DL1XH-west | 2026-09-04 12:07:38 | 51.45188 | 8.79286 | 356° | 15km/h | 23587m | 4m/s | -51.4°C | 0.5% | 33.4hPa | 2.7V | 18:12:15 | 01:49:13 | 00:00:00 | |
| HSKMA3-T | 2026-09-04 12:07:37 | 51.45184 | 8.79287 | 344° | 16km/h | 23581m | 6.2m/s | -51.5°C | 0.5% | 33.4hPa | 2.7V | 18:12:15 | 01:49:12 | 00:00:00 | |
| DO2JMG | 2026-09-04 12:07:33 | 51.45167 | 8.79296 | 0° | 15km/h | 23560m | 4.8m/s | -51.6°C | 0.5% | 33.5hPa | 2.7V | 18:12:15 | 01:49:08 | 00:00:00 | |
| DO3MHA-11 | 2026-09-04 12:07:33 | 51.45167 | 8.79296 | 1° | 5km/h | 23560m | 4.7m/s | -51.5°C | 3.7% | 33.4hPa | 2.7V | 00:00:00 | 01:49:08 | 00:00:00 | |
| DL1NUX | 2026-09-04 12:07:32 | 51.45161 | 8.79294 | 33° | 7km/h | 23551m | 5.5m/s | -51.6°C | 3.7% | 33.6hPa | 2.7V | 08:30:00 | 01:49:06 | 00:00:00 | |
| DL1XH1-15 | 2026-09-04 12:07:31 | 51.45160 | 8.79290 | 46° | 4km/h | 23525m | 5.3m/s | -51.5°C | 3.7% | 33.7hPa | 2.7V | 08:30:00 | 01:49:01 | 00:00:00 | |
| DF8AY | 2026-09-04 12:07:31 | 51.45160 | 8.79291 | 135° | 0km/h | 23535m | 4.5m/s | -51.5°C | 0.5% | 33.6hPa | 2.6V | 18:12:15 | 01:49:03 | 00:00:00 | |
| DL1XH-west | 2026-09-04 12:07:27 | 51.45160 | 8.79291 | 57° | 2km/h | 23530m | 5.2m/s | -51.6°C | 0.5% | 33.7hPa | 2.7V | 18:12:15 | 01:49:02 | 00:00:00 | |
| HSKMA3-T | 2026-09-04 12:07:26 | 51.45160 | 8.79290 | 46° | 4km/h | 23525m | 5.3m/s | -51.6°C | 0.5% | 33.7hPa | 2.7V | 18:12:15 | 01:49:01 | 00:00:00 | |
| DO2JMG | 2026-09-04 12:07:23 | 51.45157 | 8.79286 | 41° | 2km/h | 23511m | 5.8m/s | -51.6°C | 0.6% | 33.8hPa | 2.5V | 18:12:15 | 01:48:58 | 00:00:00 | |
| AA1-15 | 2026-09-04 12:07:22 | 51.45157 | 8.79286 | 359° | 2km/h | 23501m | 4.5m/s | -51.5°C | 0.6% | 33.8hPa | 2.7V | 18:12:15 | 01:48:56 | 00:00:00 | |
| DL1NUX | 2026-09-04 12:07:22 | 51.45157 | 8.79286 | 359° | 2km/h | 23501m | 4.5m/s | -51.5°C | 3.7% | 33.8hPa | 2.7V | 08:30:00 | 01:48:56 | 00:00:00 | |
| DJ2DS-15 | 2026-09-04 12:07:22 | 51.45157 | 8.79286 | 344° | 0km/h | 23506m | 5.1m/s | -51.5°C | 1.1% | 33.8hPa | 2.7V | 00:00:00 | 00:00:00 | 00:00:00 | |
| HTAHTA | 2026-09-04 12:07:21 | 51.45156 | 8.79285 | 29° | 2km/h | 23496m | 5.9m/s | -51.5°C | 1.0% | 33.9hPa | 2.7V | 00:00:00 | 00:00:00 | 00:00:00 | |
| DJ8HS-15 | 2026-09-04 12:07:20 | 51.45156 | 8.79285 | 30° | 7km/h | 23496m | 5.9m/s | -51.4°C | 3.7% | 33.8hPa | 2.7V | 00:00:00 | 01:48:55 | 00:00:00 | |
| GOEST3-10 | 2026-09-04 12:07:19 | 51.45155 | 8.79284 | 30° | 9km/h | 23491m | 5.3m/s | -51.4°C | 3.7% | 33.8hPa | 2.5V | 00:00:00 | 01:48:54 | 08:30:00 | |
| DL1XH1-15 | 2026-09-04 12:07:18 | 51.45148 | 8.79281 | 355° | 9km/h | 23475m | 5.8m/s | -51.5°C | 3.7% | 34hPa | 2.7V | 08:30:00 | 01:48:51 | 00:00:00 | |
| BIOWL1-15 | 2026-09-04 12:07:17 | 51.45151 | 8.79281 | 13° | 9km/h | 23481m | 5.5m/s | -51.5°C | 0.5% | 33.9hPa | 2.7V | 18:12:15 | 01:48:52 | 00:00:00 | |
| DL4XJ-10 | 2026-09-04 12:07:17 | 51.45151 | 8.79281 | 13° | 7km/h | 23481m | 5.4m/s | -52.1°C | 0% | 0hPa | 2.7V | 00:00:00 | 00:00:00 | 00:00:00 | |
| DJ2DS-15 | 2026-09-04 12:07:16 | 51.45148 | 8.79281 | 356° | 7km/h | 23475m | 5.8m/s | -51.4°C | 3.7% | 33.9hPa | 2.7V | 00:00:00 | 01:48:51 | 00:00:00 | |
| DL1XH-west | 2026-09-04 12:07:16 | 51.45148 | 8.79281 | 356° | 9km/h | 23475m | 5.8m/s | -51.5°C | 0.6% | 34hPa | 2.7V | 18:12:15 | 01:48:51 | 00:00:00 | |
| DL3AQ-11 | 2026-09-04 12:07:15 | 51.45143 | 8.79283 | 350° | 11km/h | 23464m | 5.7m/s | -51.4°C | 1.0% | 34.0hPa | 2.7V | 00:00:00 | 00:00:00 | 00:00:00 | |
| GOEST3-10 | 2026-09-04 12:07:14 | 51.45143 | 8.79283 | 351° | 9km/h | 23464m | 5.7m/s | -51.4°C | 3.7% | 34.0hPa | 2.7V | 00:00:00 | 00:00:00 | 00:00:00 | |
| HSKMA3-T | 2026-09-04 12:07:14 | 51.45143 | 8.79283 | 350° | 11km/h | 23464m | 5.7m/s | -51.4°C | 0.6% | 34hPa | 2.5V | 18:12:15 | 01:48:49 | 00:00:00 | |
| DO3MHA-11 | 2026-09-04 12:07:13 | 51.45140 | 8.79283 | 360° | 5km/h | 23459m | 5.2m/s | -51.3°C | 3.7% | 34.0hPa | 2.7V | 00:00:00 | 01:48:48 | 00:00:00 | |
| DO2JMG | 2026-09-04 12:07:13 | 51.45140 | 8.79283 | 359° | 11km/h | 23458m | 5.3m/s | -51.4°C | 0.5% | 34.1hPa | 2.6V | 18:12:15 | 01:48:48 | 00:00:00 | |
| DL1NUX | 2026-09-04 12:07:12 | 51.45135 | 8.79284 | 350° | 7km/h | 23449m | 5.8m/s | -51.4°C | 3.7% | 34.1hPa | 2.7V | 08:30:00 | 01:48:46 | 00:00:00 | |
| AA1-15 | 2026-09-04 12:07:11 | 51.45135 | 8.79284 | 350° | 9km/h | 23449m | 5.8m/s | -51.4°C | 0.5% | 34.1hPa | 2.7V | 18:12:15 | 01:48:46 | 00:00:00 | |
| BIOWL1-15 | 2026-09-04 12:07:06 | 51.45131 | 8.79283 | 66° | 5km/h | 23422m | 4.4m/s | -51.3°C | 0.5% | 34.2hPa | 2.7V | 18:12:15 | 01:48:41 | 00:00:00 | |
| WPPR-10 | 2026-09-04 12:07:06 | 51.45130 | 8.79281 | 52° | 4km/h | 23417m | 6.2m/s | -51.3°C | 1.0% | 34.2hPa | 2.5V | 00:00:00 | 00:00:00 | 00:00:00 | |
| NBG1-10 | 2026-09-04 12:07:05 | 51.45130 | 8.79281 | 53° | 7km/h | 23417m | 6.1m/s | -51.3°C | 3.6% | 34.2hPa | 2.5V | 00:00:00 | 01:48:40 | 00:00:00 | |
| DL1XH-15 | 2026-09-04 12:07:04 | 51.45127 | 8.79279 | 16° | 5km/h | 23401m | 4.6m/s | -51.2°C | 3.6% | 34.4hPa | 2.5V | 08:30:00 | 01:48:37 | 00:00:00 | |
| DF8AY | 2026-09-04 12:07:03 | 51.45128 | 8.79280 | 4° | 5km/h | 23406m | 4.8m/s | -51.2°C | 0.4% | 34.3hPa | 2.5V | 18:12:15 | 01:48:38 | 00:00:00 | |
| DO2JMG | 2026-09-04 12:07:02 | 51.45127 | 8.79279 | 16° | 5km/h | 23401m | 4.6m/s | -51.2°C | 0.5% | 34.4hPa | 2.5V | 18:12:15 | 01:48:37 | 00:00:00 | |
| AA1-15 | 2026-09-04 12:07:01 | 51.45125 | 8.79278 | 34° | 7km/h | 23396m | 6.2m/s | -51.3°C | 0.5% | 34.4hPa | 2.6V | 18:12:15 | 01:48:36 | 00:00:00 | |
| DL1XH-west | 2026-09-04 12:06:56 | 51.45120 | 8.79269 | 54° | 2km/h | 23369m | 4.6m/s | -51.5°C | 0.5% | 34.5hPa | 2.7V | 18:12:15 | 01:48:31 | 00:00:00 | |
| DO9LL-15 | 2026-09-04 12:06:56 | 51.45119 | 8.79269 | 54° | 11km/h | 23370m | 4.6m/s | -51.4°C | 3.7% | 34.5hPa | 2.6V | 00:00:00 | 01:48:31 | 00:00:00 | |
| DL1XH-15 | 2026-09-04 12:06:54 | 51.45121 | 8.79266 | 204° | 4km/h | 23348m | 5.7m/s | -51.5°C | 3.8% | 34.6hPa | 2.6V | 08:30:00 | 01:48:27 | 00:00:00 | |
| HSKMA3-T | 2026-09-04 12:06:53 | 51.45120 | 8.79266 | 156° | 2km/h | 23354m | 5.4m/s | -51.4°C | 0.5% | 34.6hPa | 2.5V | 18:12:15 | 01:48:28 | 00:00:00 | |
| DO3MHA-11 | 2026-09-04 12:06:53 | 51.45120 | 8.79266 | 157° | 5km/h | 23354m | 5.3m/s | -51.4°C | 3.7% | 34.6hPa | 2.5V | 00:00:00 | 01:48:28 | 00:00:00 | |
| DL1NUX | 2026-09-04 12:06:52 | 51.45121 | 8.79267 | 226° | 2km/h | 23343m | 4.3m/s | -51.4°C | 3.8% | 34.7hPa | 2.7V | 08:30:00 | 01:48:26 | 00:00:00 | |
| DO2JMG | 2026-09-04 12:06:52 | 51.45121 | 8.79266 | 204° | 4km/h | 23348m | 5.7m/s | -51.5°C | 0.6% | 34.6hPa | 2.6V | 18:12:15 | 01:48:27 | 00:00:00 | |
| DL1XH1-15 | 2026-09-04 12:06:51 | 51.45116 | 8.79260 | 34° | 5km/h | 23313m | 5m/s | -51.3°C | 3.6% | 34.8hPa | 2.7V | 08:30:00 | 01:48:20 | 00:00:00 | |
| AA1-15 | 2026-09-04 12:06:51 | 51.45121 | 8.79267 | 255° | 0km/h | 23339m | 5.3m/s | -51.4°C | 0.6% | 34.7hPa | 2.7V | 18:12:15 | 01:48:25 | 00:00:00 | |
| DL1XH-west | 2026-09-04 12:06:45 | 51.45116 | 8.79260 | 35° | 5km/h | 23313m | 5m/s | -51.3°C | 0.4% | 34.8hPa | 2.7V | 18:12:15 | 01:48:20 | 00:00:00 | |
| DL3AQ-11 | 2026-09-04 12:06:45 | 51.45115 | 8.79258 | 46° | 7km/h | 23308m | 5.1m/s | -51.3°C | 1.0% | 34.9hPa | 2.5V | 00:00:00 | 00:00:00 | 00:00:00 | |
| DL1XH-15 | 2026-09-04 12:06:44 | 51.45113 | 8.79253 | 88° | 7km/h | 23298m | 3.8m/s | -51.3°C | 3.6% | 34.9hPa | 2.5V | 08:30:00 | 01:48:17 | 00:00:00 | |
| HSKMA3-T | 2026-09-04 12:06:43 | 51.45114 | 8.79256 | 59° | 9km/h | 23303m | 5.3m/s | -51.3°C | 0.5% | 34.9hPa | 2.7V | 18:12:15 | 01:48:18 | 00:00:00 | |
| DO3MHA-11 | 2026-09-04 12:06:43 | 51.45114 | 8.79256 | 59° | 13km/h | 23303m | 5.3m/s | -51.3°C | 3.6% | 34.8hPa | 2.6V | 00:00:00 | 01:48:18 | 00:00:00 | |
| DL1NUX | 2026-09-04 12:06:42 | 51.45113 | 8.79250 | 118° | 7km/h | 23293m | 5.9m/s | -51.2°C | 3.6% | 35hPa | 2.6V | 08:30:00 | 01:48:16 | 00:00:00 | |
| DO2JMG | 2026-09-04 12:06:42 | 51.45113 | 8.79253 | 88° | 7km/h | 23298m | 3.8m/s | -51.3°C | 0.5% | 34.9hPa | 2.5V | 18:12:15 | 01:48:17 | 00:00:00 | |
| AA1-15 | 2026-09-04 12:06:41 | 51.45115 | 8.79247 | 150° | 11km/h | 23288m | 5.4m/s | -51.1°C | 0.4% | 34.9hPa | 2.6V | 18:12:15 | 01:48:15 | 00:00:00 | |
| DJ2KF-10 | 2026-09-04 12:06:41 | 51.45114 | 8.79250 | 119° | 11km/h | 23293m | 5.8m/s | -51.1°C | 3.6% | 34.9hPa | 2.6V | 00:00:00 | 01:48:16 | 00:00:00 | |
| DL1XH1-15 | 2026-09-04 12:06:40 | 51.45129 | 8.79233 | 126° | 16km/h | 23268m | 5.1m/s | -51°C | 3.6% | 35hPa | 2.6V | 08:30:00 | 01:48:11 | 00:00:00 | |
| DL1XH-west | 2026-09-04 12:06:35 | 51.45132 | 8.79222 | 110° | 13km/h | 23258m | 4.8m/s | -51.1°C | 0.5% | 35.1hPa | 2.7V | 18:12:15 | 01:48:09 | 00:00:00 | |
| DM0DOS-11 | 2026-09-04 12:06:34 | 51.45133 | 8.79216 | 104° | 4km/h | 23248m | 5.2m/s | -51.2°C | 3.6% | 35.2hPa | 2.5V | 08:30:00 | 01:48:07 | 00:00:00 | |
| GOEST3-10 | 2026-09-04 12:06:34 | 51.45132 | 8.79222 | 111° | 5km/h | 23259m | 4.7m/s | -51.0°C | 3.6% | 35.1hPa | 2.7V | 00:00:00 | 00:00:00 | 08:30:00 | |
| DO3MHA-11 | 2026-09-04 12:06:33 | 51.45133 | 8.79218 | 110° | 7km/h | 23253m | 5.9m/s | -51.1°C | 3.6% | 35.1hPa | 2.5V | 00:00:00 | 01:48:08 | 00:00:00 | |
| DL1NUX | 2026-09-04 12:06:32 | 51.45133 | 8.79215 | 36° | 2km/h | 23243m | 4.7m/s | -51.4°C | 3.6% | 35.2hPa | 2.5V | 08:30:00 | 01:48:06 | 00:00:00 | |
| HSKMA3-T | 2026-09-04 12:06:32 | 51.45133 | 8.79216 | 105° | 4km/h | 23248m | 5.2m/s | -51.3°C | 0.5% | 35.2hPa | 2.5V | 18:12:15 | 01:48:07 | 00:00:00 | |
| DO2JMG | 2026-09-04 12:06:31 | 51.45133 | 8.79215 | 36° | 2km/h | 23243m | 4.7m/s | -51.4°C | 0.4% | 35.2hPa | 2.5V | 18:12:15 | 01:48:06 | 00:00:00 | |
| AA1-15 | 2026-09-04 12:06:30 | 51.45132 | 8.79214 | 48° | 4km/h | 23232m | 4.3m/s | -51.5°C | 0.5% | 35.3hPa | 2.7V | 18:12:15 | 01:48:04 | 00:00:00 | |
| SONDE2-11 | 2026-09-04 12:06:30 | 51.45132 | 8.79214 | 48° | 2km/h | 23232m | 4.3m/s | -51.5°C | 1.0% | 35.3hPa | 2.7V | 00:00:00 | 00:00:00 | 00:00:00 | |
| DL9SK-14 | 2026-09-04 12:06:29 | 51.45132 | 8.79213 | 113° | 2km/h | 23228m | 4.8m/s | -51.5°C | 1.0% | 35.3hPa | 2.7V | 00:00:00 | 00:00:00 | 00:00:00 | |
| DD8BA-10 | 2026-09-04 12:06:28 | 51.45132 | 8.79212 | 114° | 13km/h | 23228m | 4.7m/s | -51.5°C | 3.7% | 35.2hPa | 2.7V | 00:00:00 | 00:00:00 | 08:30:00 | |
| DO3MHA-12 | 2026-09-04 12:06:27 | 51.45132 | 8.79211 | 155° | 15km/h | 23223m | 6.0m/s | -51.3°C | 3.7% | 35.3hPa | 2.6V | 00:00:00 | 01:48:02 | 00:00:00 | |
| DB0DAN | 2026-09-04 12:06:25 | 51.45138 | 8.79208 | 152° | 15km/h | 23211m | 5.5m/s | -51.3°C | 1% | 35.38hPa | 2.6V | 00:00:00 | 00:00:00 | 00:00:00 | |
| DL1CLM-18 | 2026-09-04 12:06:24 | 51.45138 | 8.79208 | 153° | 15km/h | 23212m | 5.5m/s | -51.3°C | 1.0% | 35.4hPa | 2.7V | 00:00:00 | 00:00:00 | 00:00:00 | |
| DM0DOS-11 | 2026-09-04 12:06:23 | 51.45148 | 8.79195 | 140° | 18km/h | 23196m | 5.5m/s | -51.3°C | 3.6% | 35.5hPa | 2.7V | 08:30:00 | 01:47:57 | 00:00:00 | |
| DL1XH-west | 2026-09-04 12:06:23 | 51.45144 | 8.79200 | 138° | 18km/h | 23201m | 4.2m/s | -51.3°C | 0.5% | 35.5hPa | 2.7V | 18:12:15 | 01:47:58 | 00:00:00 | |
| DL1NUX | 2026-09-04 12:06:22 | 51.45151 | 8.79191 | 141° | 16km/h | 23190m | 5.7m/s | -51.2°C | 3.6% | 35.5hPa | 2.5V | 08:30:00 | 01:47:56 | 00:00:00 | |
| HSKMA3-T | 2026-09-04 12:06:22 | 51.45148 | 8.79195 | 140° | 18km/h | 23196m | 5.5m/s | -51.3°C | 0.5% | 35.5hPa | 2.7V | 18:12:15 | 01:47:57 | 00:00:00 | |
| DO2JMG | 2026-09-04 12:06:21 | 51.45151 | 8.79191 | 142° | 16km/h | 23190m | 5.7m/s | -51.2°C | 0.5% | 35.5hPa | 2.5V | 18:12:15 | 01:47:56 | 00:00:00 | |
| AA1-15 | 2026-09-04 12:06:19 | 51.45157 | 8.79183 | 126° | 13km/h | 23180m | 6.1m/s | -51.3°C | 0.4% | 35.5hPa | 2.6V | 18:12:15 | 01:47:54 | 00:00:00 | |
| HTAHTA | 2026-09-04 12:06:19 | 51.45158 | 8.79178 | 108° | 13km/h | 23174m | 5.6m/s | -51.4°C | 1.0% | 35.6hPa | 2.5V | 00:00:00 | 00:00:00 | 00:00:00 | |
| DL1XH1-15 | 2026-09-04 12:06:18 | 51.45160 | 8.79168 | 104° | 11km/h | 23163m | 5.9m/s | -51.5°C | 3.7% | 35.6hPa | 2.5V | 08:30:00 | 01:47:51 | 00:00:00 | |
| DD8BA-10 | 2026-09-04 12:06:18 | 51.45158 | 8.79178 | 109° | 13km/h | 23174m | 5.5m/s | -51.4°C | 3.6% | 35.5hPa | 2.5V | 00:00:00 | 00:00:00 | 00:00:00 | |
| DO3DL | 2026-09-04 12:06:17 | 51.45159 | 8.79173 | 102° | 13km/h | 23169m | 4.6m/s | -51.4°C | 1.0% | 35.6hPa | 2.5V | 00:00:00 | 00:00:00 | 00:00:00 | |
| DJ2DS-15 | 2026-09-04 12:06:16 | 51.45160 | 8.79168 | 105° | 16km/h | 23164m | 5.9m/s | -51.5°C | 3.7% | 35.6hPa | 2.5V | 00:00:00 | 01:47:51 | 00:00:00 | |
| DD1CC1-15 | 2026-09-04 12:06:15 | 51.45160 | 8.79168 | 106° | 11km/h | 23164m | 5.9m/s | -51.5°C | 1.0% | 35.6hPa | 2.5V | 00:00:00 | 00:00:00 | 00:00:00 | |
| DL1XH-15 | 2026-09-04 12:06:14 | 51.45165 | 8.79152 | 117° | 15km/h | 23141m | 5m/s | -51.5°C | 3.7% | 35.8hPa | 2.5V | 08:30:00 | 01:47:47 | 00:00:00 | |
| GOEST3-10 | 2026-09-04 12:06:14 | 51.45162 | 8.79160 | 121° | 15km/h | 23153m | 4.6m/s | -51.5°C | 3.7% | 35.7hPa | 2.6V | 00:00:00 | 00:00:00 | 00:00:00 | |
| DO3MHA-11 | 2026-09-04 12:06:13 | 51.45163 | 8.79156 | 120° | 16km/h | 23147m | 6.0m/s | -51.5°C | 3.7% | 35.7hPa | 2.6V | 00:00:00 | 01:47:48 | 00:00:00 | |
| DL1NUX | 2026-09-04 12:06:12 | 51.45167 | 8.79147 | 123° | 15km/h | 23137m | 4.6m/s | -51.5°C | 3.7% | 35.8hPa | 2.6V | 08:30:00 | 01:47:46 | 00:00:00 | |
| BIOWL1-15 | 2026-09-04 12:06:12 | 51.45165 | 8.79152 | 117° | 15km/h | 23141m | 5.1m/s | -51.5°C | 0.5% | 35.8hPa | 2.5V | 18:12:15 | 01:47:47 | 00:00:00 | |
| DO2JMG | 2026-09-04 12:06:10 | 51.45169 | 8.79142 | 132° | 16km/h | 23131m | 6.3m/s | -51.6°C | 0.5% | 35.8hPa | 2.6V | 18:12:15 | 01:47:45 | 00:00:00 | |
| DB0DAN | 2026-09-04 12:06:10 | 51.45169 | 8.79142 | 132° | 15km/h | 23131m | 6.3m/s | -51.6°C | 1% | 35.83hPa | 2.6V | 00:00:00 | 00:00:00 | 00:00:00 | |
| AA1-15 | 2026-09-04 12:06:09 | 51.45172 | 8.79137 | 138° | 16km/h | 23125m | 5.3m/s | -51.6°C | 0.5% | 35.9hPa | 2.7V | 18:12:15 | 01:47:44 | 00:00:00 | |
| GOEST3-10 | 2026-09-04 12:06:09 | 51.45172 | 8.79137 | 139° | 16km/h | 23125m | 5.3m/s | -51.5°C | 3.7% | 35.8hPa | 2.7V | 00:00:00 | 01:47:44 | 00:00:00 | |
| DD8BA-10 | 2026-09-04 12:06:08 | 51.45175 | 8.79132 | 134° | 16km/h | 23121m | 4.8m/s | -51.5°C | 3.7% | 35.8hPa | 2.7V | 00:00:00 | 00:00:00 | 00:00:00 | |
| DO3MHA-12 | 2026-09-04 12:06:07 | 51.45177 | 8.79127 | 121° | 16km/h | 23115m | 6.0m/s | -51.5°C | 3.6% | 35.8hPa | 2.7V | 00:00:00 | 01:47:42 | 00:00:00 | |
| DL1NUX | 2026-09-04 12:06:06 | 51.45180 | 8.79087 | 79° | 18km/h | 23083m | 6.2m/s | -51.5°C | 3.6% | 36.1hPa | 2.7V | 08:30:00 | 01:47:36 | 00:00:00 | |
| DF8AY | 2026-09-04 12:06:04 | 51.45181 | 8.79107 | 93° | 16km/h | 23100m | 6m/s | -51.7°C | 0.5% | 36hPa | 2.6V | 18:12:15 | 01:47:39 | 00:00:00 | |
| DL1XH-west | 2026-09-04 12:06:01 | 51.45180 | 8.79087 | 79° | 18km/h | 23083m | 6.2m/s | -51.5°C | 0.5% | 36.1hPa | 2.7V | 18:12:15 | 01:47:36 | 00:00:00 | |
| DL1XH1-15 | 2026-09-04 12:06:00 | 51.45177 | 8.79042 | 94° | 18km/h | 23047m | 5m/s | -51.8°C | 3.7% | 36.3hPa | 2.6V | 08:30:00 | 01:47:29 | 00:00:00 | |
| DO2JMG | 2026-09-04 12:05:59 | 51.45178 | 8.79072 | 81° | 18km/h | 23073m | 4.7m/s | -51.5°C | 0.4% | 36.1hPa | 2.6V | 18:12:15 | 01:47:34 | 00:00:00 | |
| DL9SK-14 | 2026-09-04 12:05:58 | 51.45177 | 8.79060 | 87° | 13km/h | 23062m | 4.9m/s | -51.6°C | 1.0% | 36.2hPa | 2.5V | 00:00:00 | 00:00:00 | 00:00:00 | |
| DL4XJ-10 | 2026-09-04 12:05:57 | 51.45177 | 8.79060 | 88° | 15km/h | 23062m | 4.8m/s | -52.3°C | 0% | 0hPa | 2.5V | 00:00:00 | 00:00:00 | 00:00:00 | |
| DB0DAN | 2026-09-04 12:05:55 | 51.45177 | 8.79048 | 95° | 15km/h | 23052m | 6m/s | -51.8°C | 1% | 36.29hPa | 2.5V | 00:00:00 | 00:00:00 | 00:00:00 | |
| DD1CC8 | 2026-09-04 12:05:55 | 51.45178 | 8.79042 | 94° | 18km/h | 23047m | 5.0m/s | -51.8°C | 1.0% | 36.3hPa | 2.7V | 00:00:00 | 00:00:00 | 00:00:00 | |
| DL1XH-15 | 2026-09-04 12:05:54 | 51.45178 | 8.79026 | 93° | 18km/h | 23037m | 5m/s | -51.9°C | 3.7% | 36.3hPa | 2.7V | 08:30:00 | 01:47:27 | 00:00:00 | |
| DL3AQ-11 | 2026-09-04 12:05:54 | 51.45178 | 8.79034 | 93° | 18km/h | 23042m | 4.4m/s | -51.9°C | 1.1% | 36.3hPa | 2.7V | 00:00:00 | 00:00:00 | 00:00:00 | |
| DO3MHA-11 | 2026-09-04 12:05:53 | 51.45178 | 8.79034 | 94° | 16km/h | 23042m | 4.4m/s | -51.8°C | 3.7% | 36.3hPa | 2.7V | 00:00:00 | 01:47:28 | 00:00:00 | |
| DL1NUX | 2026-09-04 12:05:52 | 51.45179 | 8.79019 | 92° | 16km/h | 23032m | 5.3m/s | -52°C | 3.8% | 36.4hPa | 2.5V | 08:30:00 | 01:47:26 | 00:00:00 | |
| HSKMA3-T | 2026-09-04 12:05:51 | 51.45179 | 8.79019 | 92° | 16km/h | 23032m | 5.3m/s | -52°C | 0.6% | 36.4hPa | 2.5V | 18:12:15 | 01:47:26 | 00:00:00 | |
| BIOWL1-15 | 2026-09-04 12:05:50 | 51.45179 | 8.79013 | 91° | 15km/h | 23027m | 5.2m/s | -52°C | 0.6% | 36.4hPa | 2.5V | 18:12:15 | 01:47:25 | 00:00:00 | |
| DO2JMG | 2026-09-04 12:05:49 | 51.45179 | 8.79007 | 89° | 16km/h | 23022m | 5.1m/s | -52°C | 0.6% | 36.4hPa | 2.6V | 18:12:15 | 01:47:24 | 00:00:00 | |
| AA1-15 | 2026-09-04 12:05:48 | 51.45178 | 8.79000 | 86° | 18km/h | 23016m | 5.9m/s | -52.1°C | 0.5% | 36.5hPa | 2.7V | 18:12:15 | 01:47:23 | 00:00:00 | |
| DF8AY | 2026-09-04 12:05:47 | 51.45177 | 8.78986 | 69° | 16km/h | 23006m | 5.6m/s | -52.4°C | 0.5% | 36.5hPa | 2.7V | 18:12:15 | 01:47:21 | 00:00:00 | |
| DB0ND-19 | 2026-09-04 12:05:45 | 51.45175 | 8.78980 | 55° | 15km/h | 23001m | 5.8m/s | -52.4°C | 1.1% | 36.6hPa | 2.7V | 00:00:00 | 00:00:00 | 00:00:00 | |
| DF7PN | 2026-09-04 12:05:44 | 51.45170 | 8.78972 | 43° | 13km/h | 22990m | 5.8m/s | -52.4°C | 1.0% | 36.6hPa | 2.7V | 00:00:00 | 00:00:00 | 00:00:00 | |
| DM0DOS-11 | 2026-09-04 12:05:44 | 51.45167 | 8.78968 | 47° | 15km/h | 22984m | 4.8m/s | -52.3°C | 3.8% | 36.6hPa | 2.7V | 08:30:00 | 01:47:17 | 00:00:00 | |
| DL4BBY-15 | 2026-09-04 12:05:43 | 51.45169 | 8.78972 | 44° | 11km/h | 22990m | 5.8m/s | -53.0°C | 0% | 0hPa | 2.7V | 00:00:00 | 00:00:00 | 00:00:00 | |
| DL1NUX | 2026-09-04 12:05:42 | 51.45165 | 8.78964 | 47° | 13km/h | 22980m | 4.2m/s | -52.3°C | 3.8% | 36.6hPa | 2.7V | 08:30:00 | 01:47:16 | 00:00:00 | |
| BIOWL1-15 | 2026-09-04 12:05:40 | 51.45163 | 8.78961 | 42° | 11km/h | 22975m | 5.5m/s | -52.3°C | 0.6% | 36.7hPa | 2.7V | 18:12:15 | 01:47:15 | 00:00:00 | |
| AA1-15 | 2026-09-04 12:05:39 | 51.45159 | 8.78957 | 29° | 9km/h | 22964m | 5m/s | -52.3°C | 0.6% | 36.8hPa | 2.5V | 18:12:15 | 01:47:13 | 00:00:00 | |
| DL3AQ-11 | 2026-09-04 12:05:38 | 51.45157 | 8.78954 | 36° | 11km/h | 22959m | 5.3m/s | -52.3°C | 1.1% | 36.8hPa | 2.7V | 00:00:00 | 00:00:00 | 00:00:00 | |
| DL4XJ-10 | 2026-09-04 12:05:37 | 51.45157 | 8.78954 | 37° | 11km/h | 22959m | 5.3m/s | -52.9°C | 0% | 0hPa | 2.7V | 00:00:00 | 00:00:00 | 00:00:00 | |
| DJ2DS-15 | 2026-09-04 12:05:36 | 51.45155 | 8.78951 | 49° | 11km/h | 22953m | 5.7m/s | -52.3°C | 3.9% | 36.8hPa | 2.7V | 00:00:00 | 01:47:11 | 00:00:00 | |
| DL1XH-15 | 2026-09-04 12:05:34 | 51.45145 | 8.78931 | 53° | 16km/h | 22932m | 4.6m/s | -52.3°C | 3.8% | 37hPa | 2.7V | 08:30:00 | 01:47:07 | 00:00:00 | |
| DJ2DS-15 | 2026-09-04 12:05:34 | 51.45147 | 8.78936 | 53° | 15km/h | 22937m | 5.5m/s | -52.3°C | 1.1% | 36.9hPa | 2.7V | 00:00:00 | 00:00:00 | 00:00:00 | |
| DO3MHA-11 | 2026-09-04 12:05:33 | 51.45147 | 8.78936 | 54° | 7km/h | 22937m | 5.5m/s | -52.2°C | 3.9% | 36.9hPa | 2.7V | 00:00:00 | 01:47:08 | 00:00:00 | |
| DL1NUX | 2026-09-04 12:05:32 | 51.45142 | 8.78925 | 56° | 18km/h | 22927m | 6.1m/s | -52.3°C | 3.8% | 37hPa | 2.7V | 08:30:00 | 01:47:06 | 00:00:00 | |
| DL1XH-west | 2026-09-04 12:05:30 | 51.45140 | 8.78919 | 60° | 18km/h | 22922m | 4.4m/s | -52.3°C | 0.6% | 37hPa | 2.5V | 18:12:15 | 01:47:05 | 00:00:00 | |
| GOEST3-10 | 2026-09-04 12:05:29 | 51.45138 | 8.78913 | 61° | 7km/h | 22918m | 4.3m/s | -52.3°C | 3.7% | 37.0hPa | 2.5V | 00:00:00 | 01:47:04 | 00:00:00 | |
| DL1XH1-15 | 2026-09-04 12:05:28 | 51.45134 | 8.78910 | 333° | 2km/h | 22891m | 5.4m/s | -52.2°C | 3.8% | 37.2hPa | 2.5V | 08:30:00 | 01:46:59 | 00:00:00 | |
| DD8BA-10 | 2026-09-04 12:05:28 | 51.45136 | 8.78909 | 57° | 7km/h | 22912m | 6.1m/s | -52.3°C | 3.8% | 37.0hPa | 2.6V | 00:00:00 | 00:00:00 | 00:00:00 | |
| AA1-15 | 2026-09-04 12:05:28 | 51.45137 | 8.78909 | 57° | 9km/h | 22912m | 6.1m/s | -52.4°C | 0.6% | 37hPa | 2.6V | 18:12:15 | 01:47:03 | 00:00:00 | |
| DO3MHA-12 | 2026-09-04 12:05:27 | 51.45136 | 8.78908 | 32° | 4km/h | 22906m | 5.8m/s | -52.3°C | 3.8% | 37.1hPa | 2.7V | 00:00:00 | 01:47:02 | 00:00:00 | |
| DL9SK-14 | 2026-09-04 12:05:26 | 51.45135 | 8.78908 | 299° | 2km/h | 22901m | 4.2m/s | -52.3°C | 1.0% | 37.1hPa | 2.7V | 00:00:00 | 00:00:00 | 00:00:00 | |
| DL3AQ-11 | 2026-09-04 12:05:25 | 51.45135 | 8.78909 | 291° | 2km/h | 22897m | 4.6m/s | -52.2°C | 1.1% | 37.1hPa | 2.7V | 00:00:00 | 00:00:00 | 00:00:00 | |
| EDDB2-12 | 2026-09-04 12:05:24 | 51.45134 | 8.78909 | 27° | 4km/h | 22887m | 5.0m/s | -52.2°C | 1.0% | 37.2hPa | 2.7V | 00:00:00 | 00:00:00 | 00:00:00 | |
| DF8AY | 2026-09-04 12:05:24 | 51.45134 | 8.78909 | 28° | 5km/h | 22886m | 5m/s | -52.2°C | 0.6% | 37.2hPa | 2.6V | 18:12:15 | 01:46:58 | 00:00:00 | |
| DD1CC8 | 2026-09-04 12:05:23 | 51.45134 | 8.78909 | 27° | 4km/h | 22887m | 5.0m/s | -52.2°C | 1.0% | 37.2hPa | 2.7V | 00:00:00 | 00:00:00 | 00:00:00 | |
| DL1NUX | 2026-09-04 12:05:22 | 51.45131 | 8.78906 | 33° | 9km/h | 22876m | 5.4m/s | -52.3°C | 3.8% | 37.2hPa | 2.7V | 08:30:00 | 01:46:56 | 00:00:00 | |
| HSKMA3-T | 2026-09-04 12:05:20 | 51.45129 | 8.78904 | 30° | 9km/h | 22871m | 5.6m/s | -52.4°C | 0.6% | 37.3hPa | 2.7V | 18:12:15 | 01:46:55 | 00:00:00 | |
| DL1XH-west | 2026-09-04 12:05:19 | 51.45126 | 8.78902 | 29° | 11km/h | 22866m | 4.7m/s | -52.4°C | 0.7% | 37.3hPa | 2.7V | 18:12:15 | 01:46:54 | 00:00:00 | |
| DO2JMG | 2026-09-04 12:05:18 | 51.45124 | 8.78900 | 38° | 13km/h | 22861m | 4.7m/s | -52.3°C | 0.6% | 37.4hPa | 2.5V | 18:12:15 | 01:46:53 | 00:00:00 | |
| AA1-15 | 2026-09-04 12:05:17 | 51.45122 | 8.78896 | 48° | 15km/h | 22855m | 6m/s | -52.3°C | 0.6% | 37.4hPa | 2.5V | 18:12:15 | 01:46:52 | 00:00:00 | |
| DF8AY | 2026-09-04 12:05:13 | 51.45115 | 8.78879 | 96° | 4km/h | 22830m | 5.3m/s | -52.4°C | 0.6% | 37.5hPa | 2.6V | 18:12:15 | 01:46:47 | 00:00:00 | |
| HSKMA3-T | 2026-09-04 12:05:10 | 51.45116 | 8.78875 | 125° | 5km/h | 22819m | 4.7m/s | -52.4°C | 0.6% | 37.6hPa | 2.7V | 18:12:15 | 01:46:45 | 00:00:00 | |
| DB0DAN | 2026-09-04 12:05:10 | 51.45116 | 8.78875 | 125° | 5km/h | 22819m | 4.7m/s | -52.4°C | 1.1% | 37.6hPa | 2.7V | 00:00:00 | 00:00:00 | 00:00:00 | |
| BIOWL1-15 | 2026-09-04 12:05:09 | 51.45117 | 8.78873 | 140° | 5km/h | 22814m | 5.6m/s | -52.4°C | 0.6% | 37.6hPa | 2.5V | 18:12:15 | 01:46:44 | 00:00:00 | |
| DO2JMG | 2026-09-04 12:05:07 | 51.45120 | 8.78871 | 150° | 5km/h | 22804m | 3.7m/s | -52.4°C | 0.6% | 37.7hPa | 2.6V | 18:12:15 | 01:46:42 | 00:00:00 | |
| AA1-15 | 2026-09-04 12:05:06 | 51.45121 | 8.78869 | 128° | 7km/h | 22799m | 5.1m/s | -52.4°C | 0.6% | 37.7hPa | 2.7V | 18:12:15 | 01:46:41 | 00:00:00 | |
| DF8AY | 2026-09-04 12:05:02 | 51.45121 | 8.78855 | 80° | 7km/h | 22778m | 5.5m/s | -52.4°C | 0.6% | 37.8hPa | 2.5V | 18:12:15 | 01:46:37 | 00:00:00 | |
| HSKMA3-T | 2026-09-04 12:05:00 | 51.45121 | 8.78849 | 99° | 7km/h | 22767m | 5.8m/s | -52.5°C | 0.7% | 37.9hPa | 2.7V | 18:12:15 | 01:46:35 | 00:00:00 | |
| BIOWL1-15 | 2026-09-04 12:04:58 | 51.45123 | 8.78843 | 124° | 11km/h | 22757m | 4.5m/s | -52.5°C | 0.7% | 38hPa | 2.7V | 18:12:15 | 01:46:33 | 00:00:00 | |
| DO2JMG | 2026-09-04 12:04:56 | 51.45127 | 8.78837 | 153° | 9km/h | 22746m | 5.7m/s | -52.5°C | 0.7% | 38hPa | 2.5V | 18:12:15 | 01:46:31 | 00:00:00 | |
| AA1-15 | 2026-09-04 12:04:55 | 51.45129 | 8.78835 | 152° | 11km/h | 22741m | 4.3m/s | -52.5°C | 0.7% | 38hPa | 2.6V | 18:12:15 | 01:46:30 | 00:00:00 | |
| DB0DAN | 2026-09-04 12:04:55 | 51.45129 | 8.78835 | 152° | 11km/h | 22741m | 4.3m/s | -52.5°C | 1.1% | 38.05hPa | 2.6V | 00:00:00 | 00:00:00 | 00:00:00 | |
| DL1XH-15 | 2026-09-04 12:04:54 | 51.45136 | 8.78823 | 121° | 16km/h | 22725m | 5m/s | -52.4°C | 3.9% | 38.1hPa | 2.6V | 08:30:00 | 01:46:27 | 00:00:00 | |
| EDDB2-12 | 2026-09-04 12:04:53 | 51.45136 | 8.78823 | 121° | 16km/h | 22725m | 5.0m/s | -52.4°C | 1.1% | 38.1hPa | 2.6V | 00:00:00 | 00:00:00 | 00:00:00 | |
| DL1NUX | 2026-09-04 12:04:52 | 51.45139 | 8.78817 | 115° | 16km/h | 22719m | 6.1m/s | -52.3°C | 3.9% | 38.2hPa | 2.6V | 08:30:00 | 01:46:26 | 00:00:00 | |
| DF8AY | 2026-09-04 12:04:50 | 51.45140 | 8.78811 | 111° | 16km/h | 22713m | 4.9m/s | -52.3°C | 0.6% | 38.2hPa | 2.7V | 18:12:15 | 01:46:25 | 00:00:00 | |
| BIOWL1-15 | 2026-09-04 12:04:49 | 51.45145 | 8.78783 | 104° | 22km/h | 22694m | 4.5m/s | -52.2°C | 0.6% | 38.3hPa | 2.6V | 18:12:15 | 01:46:21 | 00:00:00 | |
| HSKMA3-T | 2026-09-04 12:04:49 | 51.45141 | 8.78805 | 107° | 16km/h | 22709m | 4m/s | -52.2°C | 0.6% | 38.2hPa | 2.7V | 18:12:15 | 01:46:24 | 00:00:00 | |
| DL1XH-west | 2026-09-04 12:04:48 | 51.45142 | 8.78799 | 104° | 18km/h | 22705m | 5.1m/s | -52.3°C | 0.6% | 38.3hPa | 2.5V | 18:12:15 | 01:46:23 | 00:00:00 | |
| AA1-15 | 2026-09-04 12:04:45 | 51.45146 | 8.78774 | 105° | 20km/h | 22690m | 4.4m/s | -52.2°C | 0.6% | 38.4hPa | 2.7V | 18:12:15 | 01:46:20 | 00:00:00 | |
| DL3AQ-11 | 2026-09-04 12:04:45 | 51.45147 | 8.78767 | 108° | 16km/h | 22684m | 6.0m/s | -52.2°C | 1.1% | 38.4hPa | 2.6V | 00:00:00 | 00:00:00 | 00:00:00 | |
| DL4BBY-15 | 2026-09-04 12:04:44 | 51.45149 | 8.78762 | 110° | 18km/h | 22679m | 4.7m/s | -52.8°C | 0% | 0hPa | 2.6V | 00:00:00 | 00:00:00 | 00:00:00 | |
| DL1NUX | 2026-09-04 12:04:42 | 51.45150 | 8.78753 | 97° | 11km/h | 22670m | 5.1m/s | -52.1°C | 3.8% | 38.5hPa | 2.6V | 08:30:00 | 01:46:16 | 00:00:00 | |
| DO2JMG | 2026-09-04 12:04:42 | 51.45150 | 8.78757 | 104° | 11km/h | 22674m | 4.2m/s | -52.2°C | 0.5% | 38.5hPa | 2.5V | 18:12:15 | 01:46:17 | 00:00:00 | |
| DF8AY | 2026-09-04 12:04:40 | 51.45151 | 8.78741 | 92° | 18km/h | 22659m | 4.6m/s | -52.1°C | 0.6% | 38.5hPa | 2.7V | 18:12:15 | 01:46:14 | 00:00:00 | |
| DL1XH-west | 2026-09-04 12:04:38 | 51.45151 | 8.78734 | 91° | 18km/h | 22655m | 4.4m/s | -52.1°C | 0.6% | 38.6hPa | 2.7V | 18:12:15 | 01:46:13 | 00:00:00 | |
| BIOWL1-15 | 2026-09-04 12:04:37 | 51.45151 | 8.78726 | 89° | 18km/h | 22650m | 5.3m/s | -52.1°C | 0.6% | 38.6hPa | 2.7V | 18:12:15 | 01:46:12 | 00:00:00 | |
| AA1-15 | 2026-09-04 12:04:34 | 51.45151 | 8.78706 | 94° | 18km/h | 22635m | 5.2m/s | -52.1°C | 0.6% | 38.7hPa | 2.6V | 18:12:15 | 01:46:09 | 00:00:00 | |
| DO3MHA-12 | 2026-09-04 12:04:34 | 51.45151 | 8.78706 | 94° | 18km/h | 22635m | 5.2m/s | -52.0°C | 3.8% | 38.6hPa | 2.6V | 00:00:00 | 01:46:09 | 08:30:00 | |
| DJTTGO | 2026-09-04 12:04:33 | 51.45150 | 8.78706 | 95° | 18km/h | 22635m | 5.2m/s | -52.1°C | 1.1% | 38.7hPa | 2.7V | 00:00:00 | 00:00:00 | 00:00:00 | |
| DM0DOS-11 | 2026-09-04 12:04:32 | 51.45152 | 8.78691 | 96° | 20km/h | 22625m | 4.4m/s | -52°C | 3.8% | 38.7hPa | 2.7V | 08:30:00 | 01:46:07 | 00:00:00 | |
| DF8AY | 2026-09-04 12:04:28 | 51.45150 | 8.78662 | 76° | 18km/h | 22605m | 4.7m/s | -52°C | 0.5% | 38.9hPa | 2.7V | 18:12:15 | 01:46:03 | 00:00:00 | |
| DL1XH1-15 | 2026-09-04 12:04:28 | 51.45142 | 8.78616 | 64° | 15km/h | 22573m | 4.6m/s | -52.1°C | 3.7% | 39hPa | 2.7V | 08:30:00 | 01:45:57 | 00:00:00 | |
| DL1XH-west | 2026-09-04 12:04:27 | 51.45149 | 8.78654 | 77° | 20km/h | 22600m | 6m/s | -52°C | 0.5% | 38.9hPa | 2.7V | 18:12:15 | 01:46:02 | 00:00:00 | |
| BIOWL1-15 | 2026-09-04 12:04:26 | 51.45148 | 8.78645 | 78° | 22km/h | 22594m | 4.7m/s | -51.9°C | 0.5% | 38.9hPa | 2.7V | 18:12:15 | 01:46:01 | 00:00:00 | |
| SONCRA | 2026-09-04 12:04:25 | 51.45147 | 8.78637 | 76° | 22km/h | 22590m | 4.6m/s | -51.9°C | 1.0% | 38.9hPa | 2.7V | 00:00:00 | 00:00:00 | 00:00:00 | |
| DL1XH-15 | 2026-09-04 12:04:24 | 51.45142 | 8.78616 | 64° | 15km/h | 22573m | 4.6m/s | -52.1°C | 3.7% | 39hPa | 2.7V | 08:30:00 | 01:45:57 | 00:00:00 | |
| AA1-15 | 2026-09-04 12:04:23 | 51.45144 | 8.78622 | 65° | 16km/h | 22579m | 5.3m/s | -52°C | 0.5% | 39hPa | 2.6V | 18:12:15 | 01:45:58 | 00:00:00 | |
| DF8AY | 2026-09-04 12:04:18 | 51.45123 | 8.78545 | 66° | 27km/h | 22523m | 5.7m/s | -52.6°C | 0.7% | 39.4hPa | 2.7V | 18:12:15 | 01:45:47 | 00:00:00 | |
| HSKMA3-T | 2026-09-04 12:04:17 | 51.45136 | 8.78587 | 65° | 15km/h | 22548m | 4.9m/s | -52.6°C | 0.6% | 39.2hPa | 2.6V | 18:12:15 | 01:45:52 | 00:00:00 | |
| BIOWL1-15 | 2026-09-04 12:04:15 | 51.45132 | 8.78575 | 65° | 22km/h | 22538m | 6.2m/s | -52.6°C | 0.7% | 39.2hPa | 2.7V | 18:12:15 | 01:45:50 | 00:00:00 | |
| AA1-15 | 2026-09-04 12:04:13 | 51.45126 | 8.78556 | 66° | 29km/h | 22527m | 4.2m/s | -52.6°C | 0.7% | 39.3hPa | 2.6V | 18:12:15 | 01:45:48 | 00:00:00 | |
| DO2JMG | 2026-09-04 12:04:10 | 51.45118 | 8.78527 | 62° | 24km/h | 22513m | 4.3m/s | -52.5°C | 0.7% | 39.4hPa | 2.6V | 18:12:15 | 01:45:45 | 00:00:00 | |
| DB0DAN | 2026-09-04 12:04:10 | 51.45118 | 8.78527 | 62° | 22km/h | 22513m | 4.3m/s | -52.5°C | 1.1% | 39.41hPa | 2.6V | 00:00:00 | 00:00:00 | 00:00:00 | |
| DL1XH-west | 2026-09-04 12:04:06 | 51.45107 | 8.78483 | 75° | 22km/h | 22488m | 6m/s | -52.4°C | 0.7% | 39.6hPa | 2.7V | 18:12:15 | 01:45:40 | 00:00:00 | |
| DF8AY | 2026-09-04 12:04:03 | 51.45105 | 8.78468 | 77° | 18km/h | 22477m | 4.7m/s | -52.3°C | 0.7% | 39.6hPa | 2.6V | 18:12:15 | 01:45:38 | 00:00:00 | |
| AA1-15 | 2026-09-04 12:04:02 | 51.45103 | 8.78460 | 77° | 20km/h | 22472m | 5.9m/s | -52.2°C | 0.7% | 39.7hPa | 2.6V | 18:12:15 | 01:45:37 | 00:00:00 | |
| DO2JMG | 2026-09-04 12:03:58 | 51.45094 | 8.78428 | 51° | 22km/h | 22451m | 5.3m/s | -52.1°C | 0.6% | 39.8hPa | 2.5V | 18:12:15 | 01:45:33 | 00:00:00 | |
| HSKMA3-T | 2026-09-04 12:03:56 | 51.45087 | 8.78414 | 49° | 26km/h | 22440m | 5.9m/s | -52°C | 0.6% | 39.9hPa | 2.6V | 18:12:15 | 01:45:31 | 00:00:00 | |
| BIOWL1-15 | 2026-09-04 12:03:56 | 51.45083 | 8.78406 | 51° | 26km/h | 22435m | 4.4m/s | -52°C | 0.6% | 39.9hPa | 2.7V | 18:12:15 | 01:45:30 | 00:00:00 | |
| DF8AY | 2026-09-04 12:03:51 | 51.45069 | 8.78368 | 81° | 18km/h | 22405m | 4.9m/s | 0°C | 0% | 40.1hPa | 2.5V | 18:12:15 | 01:45:24 | 00:00:00 | |
| AA1-15 | 2026-09-04 12:03:51 | 51.45071 | 8.78380 | 66° | 15km/h | 22415m | 4.1m/s | -51.8°C | 0.6% | 40hPa | 2.7V | 18:12:15 | 01:45:26 | 00:00:00 | |
| DO2JMG | 2026-09-04 12:03:48 | 51.45068 | 8.78361 | 83° | 18km/h | 22400m | 3.6m/s | -51.7°C | 0.6% | 40.1hPa | 2.6V | 18:12:15 | 01:45:23 | 00:00:00 | |
| HSKMA3-T | 2026-09-04 12:03:46 | 51.45068 | 8.78348 | 82° | 15km/h | 22391m | 5.5m/s | -51.6°C | 0.6% | 40.2hPa | 2.7V | 18:12:15 | 01:45:21 | 00:00:00 | |
| BIOWL1-15 | 2026-09-04 12:03:45 | 51.45067 | 8.78343 | 72° | 11km/h | 22386m | 5m/s | -51.6°C | 0.6% | 40.2hPa | 2.7V | 18:12:15 | 01:45:20 | 00:00:00 | |
| DM0DOS-11 | 2026-09-04 12:03:44 | 51.45061 | 8.78330 | 44° | 18km/h | 22370m | 5.2m/s | -51.4°C | 3.7% | 40.3hPa | 2.5V | 08:30:00 | 01:45:17 | 00:00:00 | |
| DL1XH-west | 2026-09-04 12:03:44 | 51.45066 | 8.78339 | 59° | 11km/h | 22381m | 4.4m/s | -51.6°C | 0.6% | 40.2hPa | 2.7V | 18:12:15 | 01:45:19 | 00:00:00 | |
| DF8AY | 2026-09-04 12:03:41 | 51.45057 | 8.78324 | 42° | 20km/h | 22365m | 4.4m/s | 0°C | 0% | 40.3hPa | 2.6V | 18:12:15 | 01:45:16 | 00:00:00 | |
| AA1-15 | 2026-09-04 12:03:40 | 51.45053 | 8.78319 | 40° | 20km/h | 22360m | 5.7m/s | -51.5°C | 0.5% | 40.4hPa | 2.7V | 18:12:15 | 01:45:15 | 00:00:00 | |
| DB0DAN | 2026-09-04 12:03:40 | 51.45053 | 8.78319 | 40° | 20km/h | 22360m | 5.7m/s | -51.5°C | 1% | 40.37hPa | 2.7V | 00:00:00 | 00:00:00 | 00:00:00 | |
| DO2JMG | 2026-09-04 12:03:37 | 51.45044 | 8.78302 | 58° | 20km/h | 22345m | 6.2m/s | -51.4°C | 0.5% | 40.5hPa | 2.5V | 18:12:15 | 01:45:12 | 00:00:00 | |
| HSKMA3-T | 2026-09-04 12:03:36 | 51.45041 | 8.78295 | 67° | 18km/h | 22340m | 4.3m/s | -51.3°C | 0.5% | 40.5hPa | 2.5V | 18:12:15 | 01:45:11 | 00:00:00 | |
| BIOWL1-15 | 2026-09-04 12:03:35 | 51.45040 | 8.78289 | 78° | 15km/h | 22335m | 4.3m/s | -51.3°C | 0.5% | 40.5hPa | 2.6V | 18:12:15 | 01:45:10 | 00:00:00 | |
| DL1XH-west | 2026-09-04 12:03:34 | 51.45040 | 8.78283 | 91° | 11km/h | 22330m | 6.2m/s | -51.3°C | 0.5% | 40.5hPa | 2.6V | 18:12:15 | 01:45:09 | 00:00:00 | |
| DJ2DS-15 | 2026-09-04 12:03:33 | 51.45040 | 8.78280 | 109° | 7km/h | 22325m | 4.9m/s | -51.1°C | 3.7% | 40.5hPa | 2.7V | 00:00:00 | 01:45:08 | 00:00:00 | |
| DL1NUX | 2026-09-04 12:03:32 | 51.45041 | 8.78274 | 99° | 7km/h | 22316m | 5.1m/s | -51.2°C | 3.7% | 40.6hPa | 2.7V | 08:30:00 | 01:45:06 | 00:00:00 | |
| DF8AY | 2026-09-04 12:03:31 | 51.45027 | 8.78239 | 346° | 2km/h | 22261m | 5.5m/s | 0°C | 0% | 0hPa | 2.7V | 18:12:15 | 01:44:55 | 00:00:00 | |
| AA1-15 | 2026-09-04 12:03:29 | 51.45040 | 8.78268 | 65° | 11km/h | 22306m | 4.5m/s | -51.1°C | 0.5% | 40.7hPa | 2.6V | 18:12:15 | 01:45:04 | 00:00:00 | |
| DO2JMG | 2026-09-04 12:03:27 | 51.45037 | 8.78259 | 55° | 13km/h | 22297m | 5.3m/s | -51.2°C | 0.5% | 40.8hPa | 2.7V | 18:12:15 | 01:45:02 | 00:00:00 | |
| BIOWL9-15 | 2026-09-04 12:03:27 | 51.45035 | 8.78255 | 54° | 11km/h | 22292m | 5.3m/s | -51.1°C | 1.0% | 40.8hPa | 2.7V | 00:00:00 | 00:00:00 | 00:00:00 | |
| DL1NUX | 2026-09-04 12:03:26 | 51.45028 | 8.78239 | 45° | 5km/h | 22267m | 6m/s | -51.4°C | 3.6% | 40.9hPa | 2.7V | 08:30:00 | 01:44:56 | 00:00:00 | |
| HSKMA3-T | 2026-09-04 12:03:25 | 51.45034 | 8.78252 | 54° | 11km/h | 22286m | 5.3m/s | -51.2°C | 0.5% | 40.8hPa | 2.7V | 18:12:15 | 01:45:00 | 00:00:00 | |
| DL1XH-west | 2026-09-04 12:03:24 | 51.45032 | 8.78248 | 53° | 11km/h | 22281m | 6m/s | -51.3°C | 0.5% | 40.9hPa | 2.5V | 18:12:15 | 01:44:59 | 00:00:00 | |
| AA1-15 | 2026-09-04 12:03:19 | 51.45026 | 8.78239 | 312° | 4km/h | 22256m | 4.9m/s | -51.4°C | 0.5% | 41hPa | 2.6V | 18:12:15 | 01:44:54 | 00:00:00 | |
| DO2JMG | 2026-09-04 12:03:16 | 51.45024 | 8.78241 | 331° | 4km/h | 22241m | 4.6m/s | -51.4°C | 0.6% | 41.1hPa | 2.7V | 18:12:15 | 01:44:51 | 00:00:00 | |
| HSKMA3-T | 2026-09-04 12:03:14 | 51.45024 | 8.78242 | 154° | 2km/h | 22230m | 4.9m/s | -51.3°C | 0.5% | 41.2hPa | 2.6V | 18:12:15 | 01:44:49 | 00:00:00 | |
| BIOWL1-15 | 2026-09-04 12:03:14 | 51.45024 | 8.78231 | 92° | 11km/h | 22210m | 5.1m/s | -51.3°C | 0.6% | 41.3hPa | 2.7V | 18:12:15 | 01:44:45 | 00:00:00 | |
| DL1XH-west | 2026-09-04 12:03:13 | 51.45024 | 8.78241 | 106° | 4km/h | 22225m | 4.4m/s | -51.3°C | 0.6% | 41.2hPa | 2.6V | 18:12:15 | 01:44:48 | 00:00:00 | |
| DJ2DS-15 | 2026-09-04 12:03:13 | 51.45024 | 8.78241 | 106° | 9km/h | 22226m | 4.3m/s | -51.3°C | 3.7% | 41.2hPa | 2.7V | 00:00:00 | 01:44:48 | 00:00:00 | |
| DL1NUX | 2026-09-04 12:03:12 | 51.45024 | 8.78235 | 88° | 11km/h | 22215m | 4.5m/s | -51.3°C | 3.7% | 41.3hPa | 2.7V | 08:30:00 | 01:44:46 | 00:00:00 | |
| DB0UT-7 | 2026-09-04 12:03:12 | 51.45024 | 8.78238 | 94° | 11km/h | 22221m | 5.6m/s | -51.2°C | 3.7% | 41.2hPa | 2.7V | 00:00:00 | 01:44:47 | 00:00:00 | |
| DO3DL | 2026-09-04 12:03:11 | 51.45024 | 8.78238 | 95° | 7km/h | 22221m | 5.7m/s | -51.2°C | 1.0% | 41.2hPa | 2.7V | 00:00:00 | 00:00:00 | 00:00:00 | |
| DB0DAN | 2026-09-04 12:03:10 | 51.45024 | 8.78231 | 92° | 9km/h | 22210m | 5.1m/s | -51.3°C | 1.1% | 41.32hPa | 2.7V | 00:00:00 | 00:00:00 | 00:00:00 | |
| DF8AY | 2026-09-04 12:03:09 | 51.45025 | 8.78227 | 98° | 7km/h | 22205m | 5.3m/s | 0°C | 0% | 0hPa | 2.5V | 18:12:15 | 01:44:44 | 00:00:00 | |
| AA1-15 | 2026-09-04 12:03:08 | 51.45025 | 8.78224 | 98° | 5km/h | 22200m | 4.9m/s | -51.2°C | 0.5% | 41.4hPa | 2.6V | 18:12:15 | 01:44:43 | 00:00:00 | |
| DO2JMG | 2026-09-04 12:03:06 | 51.45025 | 8.78220 | 80° | 5km/h | 22189m | 5.6m/s | -51.3°C | 0.5% | 41.5hPa | 2.7V | 18:12:15 | 01:44:41 | 00:00:00 | |
| HSKMA3-T | 2026-09-04 12:03:04 | 51.45024 | 8.78216 | 90° | 4km/h | 22179m | 5.7m/s | -51.2°C | 0.4% | 41.5hPa | 2.7V | 18:12:15 | 01:44:39 | 00:00:00 | |
| BIOWL1-15 | 2026-09-04 12:03:03 | 51.45025 | 8.78215 | 133° | 2km/h | 22174m | 5.6m/s | -51.1°C | 0.4% | 41.6hPa | 2.5V | 18:12:15 | 01:44:38 | 00:00:00 | |
| DL1NUX | 2026-09-04 12:03:02 | 51.45026 | 8.78213 | 123° | 7km/h | 22163m | 5.8m/s | -51.1°C | 3.5% | 41.6hPa | 2.6V | 08:30:00 | 01:44:36 | 00:00:00 | |
| DF8AY | 2026-09-04 12:02:59 | 51.45029 | 8.78202 | 114° | 11km/h | 22148m | 5.7m/s | 0°C | 0% | 0hPa | 2.5V | 18:12:15 | 01:44:33 | 00:00:00 | |
| AA1-15 | 2026-09-04 12:02:57 | 51.45030 | 8.78198 | 111° | 11km/h | 22143m | 5.1m/s | -51.1°C | 0.5% | 41.8hPa | 2.6V | 18:12:15 | 01:44:32 | 00:00:00 | |
| DO2JMG | 2026-09-04 12:02:56 | 51.45031 | 8.78193 | 102° | 13km/h | 22138m | 5.6m/s | -51.2°C | 0.4% | 41.8hPa | 2.6V | 18:12:15 | 01:44:31 | 00:00:00 | |
| DB0DAN | 2026-09-04 12:02:55 | 51.45031 | 8.78188 | 92° | 15km/h | 22132m | 5.4m/s | -51.2°C | 1% | 41.82hPa | 2.7V | 00:00:00 | 00:00:00 | 00:00:00 | |
| DD8BA-10 | 2026-09-04 12:02:55 | 51.45031 | 8.78188 | 93° | 11km/h | 22132m | 5.4m/s | -51.1°C | 3.6% | 41.8hPa | 2.7V | 00:00:00 | 00:00:00 | 00:00:00 | |
| DL1XH-15 | 2026-09-04 12:02:54 | 51.45031 | 8.78171 | 89° | 9km/h | 22118m | 5.9m/s | -51.4°C | 3.6% | 41.9hPa | 2.5V | 08:30:00 | 01:44:27 | 00:00:00 | |
| BIOWL1-15 | 2026-09-04 12:02:53 | 51.45031 | 8.78176 | 86° | 13km/h | 22123m | 4.9m/s | -51.3°C | 0.5% | 41.9hPa | 2.7V | 18:12:15 | 01:44:28 | 00:00:00 | |
| DL1XH-west | 2026-09-04 12:02:52 | 51.45031 | 8.78171 | 90° | 9km/h | 22118m | 5.9m/s | -51.4°C | 0.5% | 41.9hPa | 2.5V | 18:12:15 | 01:44:27 | 00:00:00 | |
| DF8AY | 2026-09-04 12:02:47 | 51.45036 | 8.78156 | 127° | 15km/h | 22092m | 4.3m/s | 0°C | 0% | 0hPa | 2.7V | 18:12:15 | 01:44:22 | 00:00:00 | |
| DL1NUX | 2026-09-04 12:02:46 | 51.45053 | 8.78113 | 109° | 27km/h | 22061m | 3.6m/s | -51.7°C | 3.7% | 42.2hPa | 2.6V | 08:30:00 | 01:44:16 | 00:00:00 | |
| DO2JMG | 2026-09-04 12:02:46 | 51.45038 | 8.78151 | 131° | 16km/h | 22087m | 6.1m/s | -51.7°C | 0.5% | 42.1hPa | 2.5V | 18:12:15 | 01:44:21 | 00:00:00 | |
| DL3AQ-11 | 2026-09-04 12:02:45 | 51.45044 | 8.78140 | 128° | 20km/h | 22076m | 4.5m/s | -51.7°C | 1.0% | 42.2hPa | 2.7V | 00:00:00 | 00:00:00 | 00:00:00 | |
| DD8BA-10 | 2026-09-04 12:02:44 | 51.45044 | 8.78140 | 129° | 24km/h | 22077m | 4.4m/s | -51.7°C | 3.7% | 42.2hPa | 2.7V | 00:00:00 | 00:00:00 | 00:00:00 | |
| DL1XH1-15 | 2026-09-04 12:02:43 | 51.45050 | 8.78123 | 113° | 27km/h | 22066m | 4.9m/s | -51.8°C | 3.8% | 42.2hPa | 2.7V | 08:30:00 | 01:44:17 | 00:00:00 | |
| BIOWL1-15 | 2026-09-04 12:02:42 | 51.45050 | 8.78123 | 113° | 27km/h | 22066m | 4.9m/s | -51.8°C | 0.6% | 42.2hPa | 2.7V | 18:12:15 | 01:44:17 | 00:00:00 | |
| DL1XH-west | 2026-09-04 12:02:41 | 51.45053 | 8.78113 | 109° | 27km/h | 22061m | 3.6m/s | -51.7°C | 0.6% | 42.3hPa | 2.6V | 18:12:15 | 01:44:16 | 00:00:00 | |
| DF8AY | 2026-09-04 12:02:37 | 51.45062 | 8.78078 | 120° | 18km/h | 22043m | 4.3m/s | 0°C | 0% | 0hPa | 2.7V | 18:12:15 | 01:44:12 | 00:00:00 | |
| DO2JMG | 2026-09-04 12:02:35 | 51.45066 | 8.78064 | 116° | 20km/h | 22033m | 4.9m/s | -51.7°C | 0.6% | 42.4hPa | 2.5V | 18:12:15 | 01:44:10 | 00:00:00 | |
| DD8BA-10 | 2026-09-04 12:02:34 | 51.45068 | 8.78057 | 113° | 18km/h | 22029m | 4.2m/s | -51.7°C | 3.7% | 42.4hPa | 2.7V | 00:00:00 | 00:00:00 | 00:00:00 | |
| DM0DOS-11 | 2026-09-04 12:02:33 | 51.45072 | 8.78043 | 107° | 18km/h | 22018m | 5.3m/s | -51.8°C | 3.7% | 42.6hPa | 2.7V | 08:30:00 | 01:44:07 | 00:00:00 | |
| DJ2DS-15 | 2026-09-04 12:02:33 | 51.45070 | 8.78049 | 110° | 16km/h | 22024m | 5.8m/s | -51.7°C | 3.7% | 42.5hPa | 2.7V | 00:00:00 | 01:44:08 | 00:00:00 | |
| DL1NUX | 2026-09-04 12:02:32 | 51.45073 | 8.78036 | 107° | 18km/h | 22013m | 4.5m/s | -51.8°C | 3.7% | 42.6hPa | 2.7V | 08:30:00 | 01:44:06 | 00:00:00 | |
| BIOWL1-15 | 2026-09-04 12:02:32 | 51.45072 | 8.78043 | 108° | 18km/h | 22018m | 5.3m/s | -51.8°C | 0.5% | 42.6hPa | 2.7V | 18:12:15 | 01:44:07 | 00:00:00 | |
| DL1XH-west | 2026-09-04 12:02:30 | 51.45074 | 8.78028 | 107° | 20km/h | 22008m | 5.8m/s | -51.8°C | 0.5% | 42.6hPa | 2.7V | 18:12:15 | 01:44:05 | 00:00:00 | |
| DO2JMG | 2026-09-04 12:02:24 | 51.45082 | 8.77984 | 112° | 16km/h | 21977m | 5.5m/s | -51.8°C | 0.5% | 42.8hPa | 2.6V | 18:12:15 | 01:43:59 | 00:00:00 | |
| DL1XH1-15 | 2026-09-04 12:02:23 | 51.45085 | 8.77973 | 109° | 13km/h | 21968m | 5.3m/s | -51.8°C | 3.8% | 42.9hPa | 2.6V | 08:30:00 | 01:43:57 | 00:00:00 | |
| DL1NUX | 2026-09-04 12:02:22 | 51.45086 | 8.77968 | 102° | 11km/h | 21962m | 5.7m/s | -51.9°C | 3.8% | 42.9hPa | 2.7V | 08:30:00 | 01:43:56 | 00:00:00 | |
| BIOWL1-15 | 2026-09-04 12:02:22 | 51.45085 | 8.77973 | 109° | 13km/h | 21968m | 5.3m/s | -51.8°C | 0.6% | 42.9hPa | 2.6V | 18:12:15 | 01:43:57 | 00:00:00 | |
| HSKMA3-T | 2026-09-04 12:02:21 | 51.45086 | 8.77968 | 102° | 11km/h | 21962m | 5.7m/s | -51.9°C | 0.6% | 42.9hPa | 2.7V | 18:12:15 | 01:43:56 | 00:00:00 | |
| DL1XH-west | 2026-09-04 12:02:20 | 51.45086 | 8.77964 | 91° | 11km/h | 21957m | 4.5m/s | -51.8°C | 0.5% | 43hPa | 2.7V | 18:12:15 | 01:43:55 | 00:00:00 | |
| AA1-15 | 2026-09-04 12:02:14 | 51.45082 | 8.77926 | 76° | 16km/h | 21927m | 4.8m/s | -51.9°C | 0.5% | 43.1hPa | 2.7V | 18:12:15 | 01:43:49 | 00:00:00 | |
| DD8BA-10 | 2026-09-04 12:02:14 | 51.45082 | 8.77926 | 77° | 11km/h | 21927m | 4.7m/s | -51.8°C | 3.7% | 43.1hPa | 2.5V | 00:00:00 | 00:00:00 | 00:00:00 | |
| DL1XH1-15 | 2026-09-04 12:02:13 | 51.45082 | 8.77914 | 99° | 16km/h | 21917m | 5.3m/s | -51.8°C | 3.6% | 43.2hPa | 2.5V | 08:30:00 | 01:43:47 | 00:00:00 | |
| DO2JMG | 2026-09-04 12:02:13 | 51.45082 | 8.77920 | 86° | 15km/h | 21922m | 5.2m/s | -51.8°C | 0.6% | 43.2hPa | 2.7V | 18:12:15 | 01:43:48 | 00:00:00 | |
| DJ2DS-15 | 2026-09-04 12:02:13 | 51.45082 | 8.77920 | 87° | 11km/h | 21922m | 5.2m/s | -51.8°C | 3.7% | 43.1hPa | 2.5V | 00:00:00 | 01:43:48 | 00:00:00 | |
| DL1NUX | 2026-09-04 12:02:12 | 51.45083 | 8.77908 | 109° | 15km/h | 21912m | 4.1m/s | -51.9°C | 3.6% | 43.3hPa | 2.5V | 08:30:00 | 01:43:46 | 00:00:00 | |
| BIOWL1-15 | 2026-09-04 12:02:11 | 51.45083 | 8.77908 | 110° | 15km/h | 21912m | 4.1m/s | -51.9°C | 0.5% | 43.3hPa | 2.5V | 18:12:15 | 01:43:46 | 00:00:00 | |
| DL1XH-west | 2026-09-04 12:02:10 | 51.45084 | 8.77903 | 116° | 13km/h | 21907m | 5.1m/s | -51.9°C | 0.6% | 43.2hPa | 2.6V | 18:12:15 | 01:43:45 | 00:00:00 | |
| NBG1-10 | 2026-09-04 12:02:10 | 51.45084 | 8.77903 | 116° | 15km/h | 21908m | 5.1m/s | -51.9°C | 3.7% | 43.2hPa | 2.6V | 00:00:00 | 01:43:45 | 00:00:00 | |
| DB0NH | 2026-09-04 12:02:09 | 51.45086 | 8.77899 | 117° | 15km/h | 21902m | 5.4m/s | -51.9°C | 3.7% | 43.3hPa | 2.7V | 00:00:00 | 01:43:44 | 00:00:00 | |
| DB0ND-19 | 2026-09-04 12:02:08 | 51.45087 | 8.77892 | 105° | 7km/h | 21892m | 5.8m/s | -52.2°C | 1.1% | 43.4hPa | 2.7V | 00:00:00 | 00:00:00 | 00:00:00 | |
| DO3DL | 2026-09-04 12:02:06 | 51.45087 | 8.77892 | 107° | 9km/h | 21892m | 5.8m/s | -52.2°C | 1.1% | 43.4hPa | 2.7V | 00:00:00 | 00:00:00 | 00:00:00 | |
| DL8OAI-8 | 2026-09-04 12:02:05 | 51.45088 | 8.77888 | 97° | 9km/h | 21886m | 4.8m/s | -52.2°C | 1.1% | 43.4hPa | 2.7V | 00:00:00 | 00:00:00 | 00:00:00 | |
| DL1XH1-15 | 2026-09-04 12:02:04 | 51.45086 | 8.77878 | 81° | 5km/h | 21867m | 4.1m/s | -52.5°C | 3.8% | 43.5hPa | 2.7V | 08:30:00 | 01:43:37 | 00:00:00 | |
| AA1-15 | 2026-09-04 12:02:03 | 51.45086 | 8.77879 | 54° | 5km/h | 21871m | 4.6m/s | -52.5°C | 0.5% | 43.5hPa | 2.7V | 18:12:15 | 01:43:38 | 00:00:00 | |
| DL1NUX | 2026-09-04 12:02:02 | 51.45086 | 8.77875 | 107° | 7km/h | 21862m | 5.7m/s | -52.5°C | 3.8% | 43.6hPa | 2.6V | 08:30:00 | 01:43:36 | 00:00:00 | |
| DO2JMG | 2026-09-04 12:02:00 | 51.45087 | 8.77872 | 130° | 11km/h | 21857m | 4.3m/s | -52.5°C | 0.6% | 43.6hPa | 2.6V | 18:12:15 | 01:43:35 | 00:00:00 | |
| DL1XH-west | 2026-09-04 12:01:59 | 51.45090 | 8.77869 | 142° | 15km/h | 21852m | 4.3m/s | -52.6°C | 0.6% | 43.7hPa | 2.6V | 18:12:15 | 01:43:34 | 00:00:00 | |
| DO3MHA-11 | 2026-09-04 12:01:59 | 51.45090 | 8.77869 | 142° | 15km/h | 21853m | 4.2m/s | -52.5°C | 3.8% | 43.6hPa | 2.5V | 00:00:00 | 01:43:34 | 00:00:00 | |
| DL4XJ-10 | 2026-09-04 12:01:57 | 51.45095 | 8.77862 | 154° | 20km/h | 21843m | 4.7m/s | -53.3°C | 0% | 0hPa | 2.5V | 00:00:00 | 00:00:00 | 00:00:00 | |
| DB0DAN | 2026-09-04 12:01:55 | 51.45101 | 8.77856 | 136° | 13km/h | 21833m | 5.2m/s | -52.8°C | 1.1% | 43.8hPa | 2.5V | 00:00:00 | 00:00:00 | 00:00:00 | |
| GOEST3-10 | 2026-09-04 12:01:54 | 51.45103 | 8.77852 | 127° | 16km/h | 21828m | 5.6m/s | -52.7°C | 3.9% | 43.8hPa | 2.7V | 00:00:00 | 00:00:00 | 00:00:00 | |
| DL1XH1-15 | 2026-09-04 12:01:53 | 51.45108 | 8.77840 | 121° | 16km/h | 21818m | 5.3m/s | -52.8°C | 3.9% | 43.9hPa | 2.7V | 08:30:00 | 01:43:27 | 00:00:00 | |
| DJ2DS-15 | 2026-09-04 12:01:53 | 51.45106 | 8.77846 | 122° | 22km/h | 21823m | 4.3m/s | -52.7°C | 3.9% | 43.8hPa | 2.6V | 00:00:00 | 01:43:28 | 08:30:00 | |
| DL1NUX | 2026-09-04 12:01:52 | 51.45110 | 8.77835 | 125° | 15km/h | 21813m | 5.1m/s | -52.8°C | 3.8% | 43.9hPa | 2.7V | 08:30:00 | 01:43:26 | 00:00:00 | |
| AA1-15 | 2026-09-04 12:01:52 | 51.45108 | 8.77840 | 122° | 16km/h | 21818m | 5.3m/s | -52.8°C | 0.7% | 43.9hPa | 2.7V | 18:12:15 | 01:43:27 | 00:00:00 | |
| BIOWL1-15 | 2026-09-04 12:01:50 | 51.45113 | 8.77830 | 127° | 15km/h | 21808m | 4.3m/s | -52.8°C | 0.6% | 44hPa | 2.6V | 18:12:15 | 01:43:25 | 00:00:00 | |
| DL1XH-west | 2026-09-04 12:01:49 | 51.45115 | 8.77825 | 123° | 16km/h | 21803m | 5.1m/s | -52.8°C | 0.6% | 44hPa | 2.6V | 18:12:15 | 01:43:24 | 00:00:00 | |
| DD1CC8 | 2026-09-04 12:01:46 | 51.45126 | 8.77796 | 126° | 22km/h | 21782m | 5.5m/s | -52.8°C | 1.1% | 44.1hPa | 2.7V | 00:00:00 | 00:00:00 | 00:00:00 | |
| GOEST3-10 | 2026-09-04 12:01:44 | 51.45129 | 8.77789 | 127° | 26km/h | 21777m | 4.2m/s | -52.8°C | 4.0% | 44.1hPa | 2.7V | 00:00:00 | 00:00:00 | 00:00:00 | |
| DD8BA-10 | 2026-09-04 12:01:43 | 51.45132 | 8.77781 | 123° | 26km/h | 21772m | 5.2m/s | -52.8°C | 4.0% | 44.2hPa | 2.7V | 00:00:00 | 00:00:00 | 00:00:00 | |
| DL1NUX | 2026-09-04 12:01:42 | 51.45138 | 8.77763 | 114° | 27km/h | 21762m | 4.7m/s | -52.8°C | 4% | 44.3hPa | 2.7V | 08:30:00 | 01:43:16 | 00:00:00 | |
| DL1XH1-15 | 2026-09-04 12:01:42 | 51.45135 | 8.77773 | 116° | 26km/h | 21767m | 5.6m/s | -52.8°C | 4% | 44.2hPa | 2.6V | 08:30:00 | 01:43:17 | 00:00:00 | |
| AA1-15 | 2026-09-04 12:01:42 | 51.45135 | 8.77773 | 116° | 26km/h | 21767m | 5.6m/s | -52.8°C | 0.7% | 44.2hPa | 2.6V | 18:12:15 | 01:43:17 | 00:00:00 | |
| DB0UT-7 | 2026-09-04 12:01:42 | 51.45135 | 8.77773 | 117° | 29km/h | 21767m | 5.6m/s | -52.8°C | 4.0% | 44.2hPa | 2.7V | 00:00:00 | 00:00:00 | 00:00:00 | |
| DL3OBA | 2026-09-04 12:01:41 | 51.45135 | 8.77773 | 117° | 26km/h | 21767m | 5.6m/s | -52.8°C | 1.2% | 44.2hPa | 2.7V | 00:00:00 | 00:00:00 | 00:00:00 | |
| DB0DAN | 2026-09-04 12:01:40 | 51.45141 | 8.77753 | 114° | 26km/h | 21756m | 5.6m/s | -52.8°C | 1.2% | 44.32hPa | 2.7V | 00:00:00 | 00:00:00 | 00:00:00 | |
| DL1XH-west | 2026-09-04 12:01:39 | 51.45144 | 8.77744 | 115° | 26km/h | 21751m | 5.2m/s | -52.7°C | 0.7% | 44.4hPa | 2.7V | 18:12:15 | 01:43:14 | 00:00:00 | |
| DB0ND-19 | 2026-09-04 12:01:37 | 51.45151 | 8.77715 | 110° | 27km/h | 21736m | 4.9m/s | -52.7°C | 1.1% | 44.5hPa | 2.6V | 00:00:00 | 00:00:00 | 00:00:00 | |
| DJ2KF-10 | 2026-09-04 12:01:34 | 51.45156 | 8.77695 | 118° | 29km/h | 21726m | 6.1m/s | -52.7°C | 3.8% | 44.5hPa | 2.6V | 00:00:00 | 01:43:09 | 00:00:00 | |
| DL1XH1-15 | 2026-09-04 12:01:32 | 51.45164 | 8.77677 | 127° | 27km/h | 21715m | 4.8m/s | -52.8°C | 3.9% | 44.6hPa | 2.6V | 08:30:00 | 01:43:07 | 00:00:00 | |
| DL1NUX | 2026-09-04 12:01:32 | 51.45168 | 8.77668 | 126° | 29km/h | 21710m | 5.7m/s | -52.8°C | 3.9% | 44.6hPa | 2.6V | 08:30:00 | 01:43:06 | 00:00:00 | |
| AA1-15 | 2026-09-04 12:01:32 | 51.45164 | 8.77677 | 127° | 27km/h | 21715m | 4.8m/s | -52.8°C | 0.7% | 44.6hPa | 2.6V | 18:12:15 | 01:43:07 | 00:00:00 | |
| HSKMA3-T | 2026-09-04 12:01:29 | 51.45177 | 8.77648 | 128° | 29km/h | 21701m | 4.7m/s | -53°C | 0.7% | 44.7hPa | 2.7V | 18:12:15 | 01:43:04 | 00:00:00 | |
| BIOWL1-15 | 2026-09-04 12:01:29 | 51.45192 | 8.77601 | 100° | 31km/h | 21675m | 5m/s | -52.9°C | 0.7% | 44.9hPa | 2.7V | 18:12:15 | 01:42:59 | 00:00:00 | |
| DL1XH-west | 2026-09-04 12:01:28 | 51.45181 | 8.77640 | 128° | 26km/h | 21696m | 5.8m/s | -53°C | 0.8% | 44.7hPa | 2.7V | 18:12:15 | 01:43:03 | 00:00:00 | |
| DC6BW-12 | 2026-09-04 12:01:27 | 51.45182 | 8.77640 | 128° | 26km/h | 21696m | 5.8m/s | -53.0°C | 1.2% | 44.7hPa | 2.7V | 00:00:00 | 00:00:00 | 00:00:00 | |
| EDDB2-11 | 2026-09-04 12:01:26 | 51.45188 | 8.77623 | 114° | 24km/h | 21686m | 4.8m/s | -52.9°C | 1.2% | 44.8hPa | 2.7V | 00:00:00 | 00:00:00 | 00:00:00 | |
| DL3AQ-11 | 2026-09-04 12:01:25 | 51.45192 | 8.77601 | 100° | 31km/h | 21675m | 5.0m/s | -52.9°C | 1.1% | 44.9hPa | 2.7V | 00:00:00 | 00:00:00 | 00:00:00 | |
| GOEST3-10 | 2026-09-04 12:01:24 | 51.45192 | 8.77601 | 101° | 33km/h | 21675m | 4.9m/s | -52.9°C | 3.9% | 44.8hPa | 2.7V | 00:00:00 | 00:00:00 | 00:00:00 | |
| DL8OAI-8 | 2026-09-04 12:01:23 | 51.45192 | 8.77601 | 101° | 31km/h | 21675m | 5.0m/s | -52.9°C | 1.2% | 44.9hPa | 2.7V | 00:00:00 | 00:00:00 | 00:00:00 | |
| DL1XH1-15 | 2026-09-04 12:01:22 | 51.45195 | 8.77575 | 100° | 33km/h | 21665m | 5.7m/s | -53°C | 3.9% | 45hPa | 2.7V | 08:30:00 | 01:42:57 | 00:00:00 | |
| DL1NUX | 2026-09-04 12:01:21 | 51.45197 | 8.77562 | 105° | 33km/h | 21659m | 5.2m/s | -53°C | 3.8% | 45hPa | 2.6V | 08:30:00 | 01:42:56 | 00:00:00 | |
| AA1-15 | 2026-09-04 12:01:21 | 51.45197 | 8.77562 | 105° | 33km/h | 21659m | 5.2m/s | -53°C | 0.6% | 45hPa | 2.6V | 18:12:15 | 01:42:56 | 00:00:00 | |
| HSKMA3-T | 2026-09-04 12:01:19 | 51.45202 | 8.77536 | 111° | 35km/h | 21649m | 5.9m/s | -53°C | 0.6% | 45.1hPa | 2.6V | 18:12:15 | 01:42:54 | 00:00:00 | |
| DL1XH-west | 2026-09-04 12:01:18 | 51.45205 | 8.77523 | 114° | 35km/h | 21644m | 4.2m/s | -53°C | 0.6% | 45.1hPa | 2.7V | 18:12:15 | 01:42:53 | 00:00:00 | |
| DL4XJ-10 | 2026-09-04 12:01:17 | 51.45209 | 8.77511 | 117° | 26km/h | 21640m | 5.0m/s | -53.6°C | 0% | 0hPa | 2.7V | 00:00:00 | 00:00:00 | 00:00:00 | |
| DL1NUX | 2026-09-04 12:01:16 | 51.45223 | 8.77451 | 96° | 29km/h | 21609m | 4.3m/s | -53.1°C | 3.9% | 45.3hPa | 2.7V | 08:30:00 | 01:42:46 | 00:00:00 | |
| AA1-15 | 2026-09-04 12:01:11 | 51.45223 | 8.77451 | 97° | 29km/h | 21609m | 4.3m/s | -53.2°C | 0.7% | 45.3hPa | 2.7V | 18:12:15 | 01:42:46 | 00:00:00 | |
| DO2JMG | 2026-09-04 12:01:10 | 51.45224 | 8.77440 | 95° | 27km/h | 21605m | 5.5m/s | -53.3°C | 0.7% | 45.4hPa | 2.5V | 18:12:15 | 01:42:45 | 00:00:00 | |
| DB0DAN | 2026-09-04 12:01:10 | 51.45224 | 8.77440 | 95° | 27km/h | 21605m | 5.5m/s | -53.3°C | 1.1% | 45.38hPa | 2.5V | 00:00:00 | 00:00:00 | 00:00:00 | |
| HSKMA3-T | 2026-09-04 12:01:08 | 51.45226 | 8.77418 | 99° | 27km/h | 21594m | 4.6m/s | -53.4°C | 0.7% | 45.5hPa | 2.6V | 18:12:15 | 01:42:43 | 00:00:00 | |
| BIOWL1-15 | 2026-09-04 12:01:07 | 51.45227 | 8.77407 | 102° | 29km/h | 21589m | 5.7m/s | -53.4°C | 0.7% | 45.5hPa | 2.7V | 18:12:15 | 01:42:42 | 00:00:00 | |
| AA1-15 | 2026-09-04 12:01:01 | 51.45243 | 8.77355 | 133° | 20km/h | 21559m | 4.5m/s | -53.7°C | 0.7% | 45.7hPa | 2.7V | 18:12:15 | 01:42:36 | 00:00:00 | |
| DO2JMG | 2026-09-04 12:00:58 | 51.45252 | 8.77333 | 111° | 24km/h | 21544m | 4.7m/s | -53.8°C | 0.8% | 45.8hPa | 2.6V | 18:12:15 | 01:42:33 | 00:00:00 | |
| DL1XH-west | 2026-09-04 12:00:57 | 51.45254 | 8.77324 | 107° | 24km/h | 21539m | 5.9m/s | -53.9°C | 0.8% | 45.9hPa | 2.6V | 18:12:15 | 01:42:32 | 00:00:00 | |
| BIOWL1-15 | 2026-09-04 12:00:56 | 51.45255 | 8.77315 | 102° | 24km/h | 21534m | 5m/s | -53.9°C | 0.8% | 45.9hPa | 2.7V | 18:12:15 | 01:42:31 | 00:00:00 | |
| DB0DAN | 2026-09-04 12:00:55 | 51.45256 | 8.77305 | 96° | 24km/h | 21529m | 4.3m/s | -53.9°C | 1.2% | 45.91hPa | 2.7V | 00:00:00 | 00:00:00 | 00:00:00 | |
| AA1-15 | 2026-09-04 12:00:51 | 51.45256 | 8.77260 | 89° | 27km/h | 21509m | 6.1m/s | -53.8°C | 0.7% | 46.1hPa | 2.6V | 18:12:15 | 01:42:26 | 00:00:00 | |
| DF8AY | 2026-09-04 12:00:49 | 51.45248 | 8.77141 | 74° | 22km/h | 21441m | 4.3m/s | -53.9°C | 0.7% | 46.6hPa | 2.6V | 18:12:15 | 01:42:13 | 00:00:00 | |
| DL1XH-west | 2026-09-04 12:00:47 | 51.45257 | 8.77220 | 91° | 26km/h | 21488m | 4.4m/s | -53.8°C | 0.8% | 46.2hPa | 2.6V | 18:12:15 | 01:42:22 | 00:00:00 | |
| BIOWL1-15 | 2026-09-04 12:00:46 | 51.45257 | 8.77210 | 92° | 24km/h | 21484m | 3.8m/s | -53.8°C | 0.8% | 46.2hPa | 2.6V | 18:12:15 | 01:42:21 | 00:00:00 | |
| DO2JMG | 2026-09-04 12:00:45 | 51.45257 | 8.77200 | 90° | 22km/h | 21479m | 6m/s | -53.8°C | 0.8% | 46.3hPa | 2.6V | 18:12:15 | 01:42:20 | 00:00:00 | |
| EDDB2-12 | 2026-09-04 12:00:45 | 51.45257 | 8.77192 | 85° | 18km/h | 21473m | 5.4m/s | -53.8°C | 1.2% | 46.3hPa | 2.7V | 00:00:00 | 00:00:00 | 00:00:00 | |
| AA1-15 | 2026-09-04 12:00:40 | 51.45251 | 8.77158 | 70° | 24km/h | 21452m | 5.5m/s | -53.9°C | 0.7% | 46.5hPa | 2.7V | 18:12:15 | 01:42:15 | 00:00:00 | |
| BIOWL1-15 | 2026-09-04 12:00:37 | 51.45245 | 8.77112 | 89° | 24km/h | 21427m | 4.6m/s | -53.9°C | 0.7% | 46.7hPa | 2.7V | 18:12:15 | 01:42:10 | 00:00:00 | |
| DL1XH-west | 2026-09-04 12:00:37 | 51.45246 | 8.77132 | 79° | 24km/h | 21437m | 5.6m/s | -53.9°C | 0.8% | 46.6hPa | 2.6V | 18:12:15 | 01:42:12 | 00:00:00 | |
| HSKMA3-T | 2026-09-04 12:00:36 | 51.45245 | 8.77122 | 84° | 26km/h | 21431m | 4.7m/s | -53.9°C | 0.8% | 46.6hPa | 2.6V | 18:12:15 | 01:42:11 | 00:00:00 | |
| GOEST3-10 | 2026-09-04 12:00:34 | 51.45245 | 8.77103 | 97° | 18km/h | 21422m | 5.8m/s | -53.9°C | 4.1% | 46.6hPa | 2.7V | 00:00:00 | 00:00:00 | 08:30:00 | |
| DO2JMG | 2026-09-04 12:00:34 | 51.45245 | 8.77103 | 97° | 22km/h | 21421m | 5.9m/s | -54°C | 0.8% | 46.7hPa | 2.7V | 18:12:15 | 01:42:09 | 00:00:00 | |
| DL1XH1-15 | 2026-09-04 12:00:32 | 51.45247 | 8.77088 | 110° | 16km/h | 21410m | 4.7m/s | -53.9°C | 4.1% | 46.8hPa | 2.6V | 08:30:00 | 01:42:07 | 00:00:00 | |
| DF8AY | 2026-09-04 12:00:29 | 51.45250 | 8.77070 | 90° | 13km/h | 21395m | 5.1m/s | -54°C | 0.7% | 46.9hPa | 2.7V | 18:12:15 | 01:42:04 | 00:00:00 | |
| DL1XH-west | 2026-09-04 12:00:26 | 51.45247 | 8.77057 | 54° | 11km/h | 21380m | 4.1m/s | -53.9°C | 0.8% | 47hPa | 2.6V | 18:12:15 | 01:42:01 | 00:00:00 | |
| HSKMA3-T | 2026-09-04 12:00:25 | 51.45245 | 8.77053 | 54° | 15km/h | 21375m | 5.1m/s | -54°C | 0.8% | 47hPa | 2.7V | 18:12:15 | 01:42:00 | 00:00:00 | |
| BIOWL1-15 | 2026-09-04 12:00:24 | 51.45243 | 8.77048 | 64° | 16km/h | 21370m | 5.1m/s | -54°C | 0.8% | 47.1hPa | 2.7V | 18:12:15 | 01:41:59 | 00:00:00 | |
| GOEST3-10 | 2026-09-04 12:00:24 | 51.45243 | 8.77048 | 64° | 16km/h | 21370m | 5.0m/s | -53.9°C | 4.1% | 47.0hPa | 2.6V | 00:00:00 | 00:00:00 | 00:00:00 | |
| DL1XH1-15 | 2026-09-04 12:00:22 | 51.45241 | 8.77035 | 82° | 16km/h | 21361m | 5.6m/s | -54°C | 4.1% | 47.1hPa | 2.6V | 08:30:00 | 01:41:57 | 00:00:00 | |
| DL1NUX | 2026-09-04 12:00:22 | 51.45241 | 8.77029 | 99° | 15km/h | 21355m | 5.4m/s | -54.1°C | 4.2% | 47.2hPa | 2.6V | 08:30:00 | 01:41:56 | 00:00:00 | |
| AA1-15 | 2026-09-04 12:00:19 | 51.45244 | 8.77016 | 120° | 18km/h | 21345m | 5.8m/s | -54.1°C | 0.8% | 47.3hPa | 2.7V | 18:12:15 | 01:41:54 | 00:00:00 | |
| GOEST3-10 | 2026-09-04 12:00:19 | 51.45244 | 8.77016 | 121° | 13km/h | 21345m | 5.7m/s | -54.1°C | 4.2% | 47.2hPa | 2.7V | 00:00:00 | 01:41:54 | 00:00:00 | |
| DL3AQ-11 | 2026-09-04 12:00:18 | 51.45249 | 8.77005 | 129° | 13km/h | 21336m | 4.9m/s | -54.1°C | 1.2% | 47.3hPa | 2.5V | 00:00:00 | 00:00:00 | 00:00:00 | |
| DL1NUX | 2026-09-04 12:00:17 | 51.45247 | 8.76993 | 53° | 9km/h | 21306m | 4.3m/s | -54.1°C | 4.2% | 47.5hPa | 2.5V | 08:30:00 | 01:41:46 | 00:00:00 | |
| DL1XH-15 | 2026-09-04 12:00:16 | 51.45248 | 8.76996 | 44° | 9km/h | 21311m | 4.5m/s | -54.1°C | 4.2% | 47.5hPa | 2.7V | 08:30:00 | 01:41:47 | 00:00:00 | |
| DL1XH-west | 2026-09-04 12:00:16 | 51.45251 | 8.77001 | 86° | 2km/h | 21326m | 4.9m/s | -54.1°C | 0.8% | 47.4hPa | 2.6V | 18:12:15 | 01:41:50 | 00:00:00 | |
| BIOWL1-15 | 2026-09-04 12:00:14 | 51.45245 | 8.76990 | 70° | 7km/h | 21301m | 5.5m/s | -54.1°C | 0.8% | 47.6hPa | 2.6V | 18:12:15 | 01:41:45 | 00:00:00 | |
| AA1-15 | 2026-09-04 12:00:08 | 51.45246 | 8.76984 | 115° | 9km/h | 21291m | 5m/s | -54.1°C | 0.8% | 47.7hPa | 2.6V | 18:12:15 | 01:41:43 | 00:00:00 | |
| DO3MHA-11 | 2026-09-04 12:00:07 | 51.45247 | 8.76980 | 120° | 11km/h | 21286m | 6.1m/s | -54.0°C | 4.1% | 47.6hPa | 2.7V | 00:00:00 | 01:41:42 | 00:00:00 | |
| DL1NUX | 2026-09-04 12:00:06 | 51.45261 | 8.76961 | 155° | 7km/h | 21256m | 5.5m/s | -53.9°C | 4.2% | 47.9hPa | 2.7V | 08:30:00 | 01:41:36 | 00:00:00 | |
| DL1XH-west | 2026-09-04 12:00:04 | 51.45254 | 8.76966 | 142° | 13km/h | 21271m | 5.2m/s | -54°C | 0.8% | 47.8hPa | 2.6V | 18:12:15 | 01:41:39 | 00:00:00 | |
| DM0DOS-11 | 2026-09-04 12:00:03 | 51.45259 | 8.76962 | 165° | 9km/h | 21261m | 4.4m/s | -53.9°C | 4.1% | 47.9hPa | 2.6V | 08:30:00 | 01:41:37 | 00:00:00 | |
| BIOWL1-15 | 2026-09-04 12:00:03 | 51.45256 | 8.76964 | 157° | 13km/h | 21266m | 4.7m/s | -54°C | 0.8% | 47.8hPa | 2.6V | 18:12:15 | 01:41:38 | 00:00:00 | |
| AA1-15 | 2026-09-04 11:59:58 | 51.45262 | 8.76955 | 66° | 7km/h | 21242m | 5.6m/s | -53.9°C | 0.8% | 48hPa | 2.6V | 18:12:15 | 01:41:33 | 00:00:00 | |
| DF8AY | 2026-09-04 11:59:57 | 51.45261 | 8.76952 | 49° | 7km/h | 21236m | 5.3m/s | -53.9°C | 0.8% | 48hPa | 2.6V | 18:12:15 | 01:41:32 | 00:00:00 | |
| DL4XJ-10 | 2026-09-04 11:59:57 | 51.45261 | 8.76952 | 50° | 13km/h | 21236m | 5.2m/s | -54.6°C | 0% | 0hPa | 2.6V | 00:00:00 | 00:00:00 | 00:00:00 | |
| NBG1-10 | 2026-09-04 11:59:56 | 51.45260 | 8.76949 | 56° | 11km/h | 21231m | 4.0m/s | -53.8°C | 4.1% | 48.0hPa | 2.6V | 00:00:00 | 01:41:31 | 00:00:00 | |
| DL1XH-15 | 2026-09-04 11:59:55 | 51.45256 | 8.76927 | 85° | 15km/h | 21210m | 5.7m/s | -54°C | 4.2% | 48.2hPa | 2.6V | 08:30:00 | 01:41:27 | 00:00:00 | |
| BIOWL1-15 | 2026-09-04 11:59:54 | 51.45256 | 8.76927 | 85° | 15km/h | 21210m | 5.7m/s | -54°C | 0.8% | 48.2hPa | 2.6V | 18:12:15 | 01:41:27 | 00:00:00 | |
| DL1XH-west | 2026-09-04 11:59:53 | 51.45257 | 8.76933 | 82° | 16km/h | 21215m | 4.3m/s | -53.9°C | 0.8% | 48.2hPa | 2.6V | 18:12:15 | 01:41:28 | 00:00:00 | |
| DL1NUX | 2026-09-04 11:59:51 | 51.45256 | 8.76922 | 89° | 13km/h | 21205m | 4.6m/s | -53.9°C | 4.2% | 48.3hPa | 2.7V | 08:30:00 | 01:41:26 | 00:00:00 | |
| AA1-15 | 2026-09-04 11:59:47 | 51.45256 | 8.76903 | 76° | 7km/h | 21185m | 5.4m/s | -53.8°C | 0.8% | 48.5hPa | 2.6V | 18:12:15 | 01:41:22 | 00:00:00 | |
| BUE01 | 2026-09-04 11:59:47 | 51.45256 | 8.76903 | 76° | 7km/h | 21185m | 5.4m/s | -53.8°C | 1.2% | 48.5hPa | 2.5V | 00:00:00 | 00:00:00 | 00:00:00 | |
| SONDE2-11 | 2026-09-04 11:59:46 | 51.45253 | 8.76899 | 29° | 9km/h | 21175m | 4.0m/s | -53.8°C | 1.2% | 48.5hPa | 2.5V | 00:00:00 | 00:00:00 | 00:00:00 | |
| DL1NUX | 2026-09-04 11:59:46 | 51.45243 | 8.76883 | 53° | 18km/h | 21156m | 5.4m/s | -53.9°C | 4.2% | 48.7hPa | 2.6V | 08:30:00 | 01:41:16 | 00:00:00 | |
| DL9SK-14 | 2026-09-04 11:59:45 | 51.45251 | 8.76897 | 31° | 11km/h | 21171m | 5.0m/s | -53.8°C | 1.2% | 48.6hPa | 2.5V | 00:00:00 | 00:00:00 | 00:00:00 | |
| HSKMA3-T | 2026-09-04 11:59:43 | 51.45248 | 8.76893 | 43° | 15km/h | 21165m | 5.5m/s | -53.8°C | 0.8% | 48.6hPa | 2.5V | 18:12:15 | 01:41:18 | 00:00:00 | |
| DL1XH-west | 2026-09-04 11:59:42 | 51.45245 | 8.76889 | 51° | 16km/h | 21160m | 4.4m/s | -53.8°C | 0.8% | 48.7hPa | 2.5V | 18:12:15 | 01:41:17 | 00:00:00 | |
| DD8BA-10 | 2026-09-04 11:59:42 | 51.45245 | 8.76889 | 51° | 16km/h | 21161m | 4.4m/s | -53.8°C | 4.1% | 48.6hPa | 2.7V | 00:00:00 | 00:00:00 | 00:00:00 | |
| DL8OAI-8 | 2026-09-04 11:59:41 | 51.45245 | 8.76889 | 52° | 16km/h | 21161m | 4.4m/s | -53.8°C | 1.2% | 48.7hPa | 2.7V | 00:00:00 | 00:00:00 | 00:00:00 | |
| DB0DAN | 2026-09-04 11:59:40 | 51.45240 | 8.76878 | 48° | 16km/h | 21150m | 5.3m/s | -53.9°C | 1.2% | 48.7hPa | 2.7V | 00:00:00 | 00:00:00 | 00:00:00 | |
| AA1-15 | 2026-09-04 11:59:37 | 51.45232 | 8.76863 | 55° | 16km/h | 21136m | 6.1m/s | -53.9°C | 0.9% | 48.8hPa | 2.5V | 18:12:15 | 01:41:12 | 00:00:00 | |
| HSKMA3-T | 2026-09-04 11:59:34 | 51.45222 | 8.76845 | 28° | 13km/h | 21116m | 4.3m/s | -53.7°C | 0.8% | 49hPa | 2.7V | 18:12:15 | 01:41:08 | 00:00:00 | |
| DL1XH1-15 | 2026-09-04 11:59:32 | 51.45220 | 8.76843 | 26° | 13km/h | 21111m | 4.5m/s | -53.7°C | 4.2% | 49hPa | 2.7V | 08:30:00 | 01:41:07 | 00:00:00 | |
| DL1XH-west | 2026-09-04 11:59:32 | 51.45220 | 8.76843 | 27° | 13km/h | 21111m | 4.5m/s | -53.7°C | 0.8% | 49hPa | 2.7V | 18:12:15 | 01:41:07 | 00:00:00 | |
| DD8BA-10 | 2026-09-04 11:59:32 | 51.45220 | 8.76843 | 27° | 11km/h | 21112m | 4.5m/s | -53.7°C | 4.2% | 49.0hPa | 2.7V | 00:00:00 | 00:00:00 | 00:00:00 | |
| DO3MHA-12 | 2026-09-04 11:59:31 | 51.45217 | 8.76840 | 31° | 11km/h | 21106m | 5.8m/s | -53.6°C | 4.2% | 49.0hPa | 2.7V | 00:00:00 | 01:41:06 | 00:00:00 | |
| DO3DL | 2026-09-04 11:59:30 | 51.45217 | 8.76840 | 32° | 13km/h | 21106m | 5.8m/s | -53.7°C | 1.2% | 49.1hPa | 2.7V | 00:00:00 | 00:00:00 | 00:00:00 | |
| GOEST3-10 | 2026-09-04 11:59:29 | 51.45212 | 8.76835 | 33° | 11km/h | 21096m | 5.7m/s | -53.6°C | 4.1% | 49.1hPa | 2.7V | 00:00:00 | 01:41:04 | 00:00:00 | |
| DL1NUX | 2026-09-04 11:59:26 | 51.45206 | 8.76803 | 89° | 7km/h | 21056m | 4.1m/s | -53.4°C | 4% | 49.4hPa | 2.7V | 08:30:00 | 01:40:56 | 00:00:00 | |
| AA1-15 | 2026-09-04 11:59:26 | 51.45207 | 8.76827 | 67° | 11km/h | 21081m | 5.8m/s | -53.6°C | 0.7% | 49.2hPa | 2.7V | 18:12:15 | 01:41:01 | 00:00:00 | |
| DO3MHA-11 | 2026-09-04 11:59:26 | 51.45206 | 8.76827 | 68° | 7km/h | 21082m | 5.7m/s | -53.5°C | 4.1% | 49.2hPa | 2.6V | 00:00:00 | 01:41:01 | 00:00:00 | |
| DL1XH-15 | 2026-09-04 11:59:25 | 51.45206 | 8.76806 | 99° | 9km/h | 21060m | 5m/s | -53.4°C | 4% | 49.4hPa | 2.6V | 08:30:00 | 01:40:57 | 00:00:00 | |
| DB0DAN | 2026-09-04 11:59:25 | 51.45206 | 8.76822 | 82° | 13km/h | 21076m | 5.5m/s | -53.5°C | 1.2% | 49.29hPa | 2.7V | 00:00:00 | 00:00:00 | 00:00:00 | |
| HSKMA3-T | 2026-09-04 11:59:22 | 51.45206 | 8.76806 | 100° | 9km/h | 21061m | 5m/s | -53.4°C | 0.7% | 49.4hPa | 2.6V | 18:12:15 | 01:40:57 | 00:00:00 | |
| DL1XH-west | 2026-09-04 11:59:21 | 51.45207 | 8.76803 | 90° | 7km/h | 21056m | 4.1m/s | -53.4°C | 0.7% | 49.5hPa | 2.7V | 18:12:15 | 01:40:56 | 00:00:00 | |
| AA1-15 | 2026-09-04 11:59:15 | 51.45203 | 8.76788 | 73° | 5km/h | 21027m | 4m/s | -53.3°C | 0.7% | 49.7hPa | 2.6V | 18:12:15 | 01:40:50 | 00:00:00 | |
| DM0DOS-11 | 2026-09-04 11:59:15 | 51.45201 | 8.76776 | 86° | 13km/h | 21013m | 4.2m/s | -53.3°C | 4% | 49.8hPa | 2.7V | 08:30:00 | 01:40:47 | 00:00:00 | |
| HSKMA3-T | 2026-09-04 11:59:11 | 51.45202 | 8.76771 | 93° | 11km/h | 21008m | 5.2m/s | -53.3°C | 0.8% | 49.8hPa | 2.7V | 18:12:15 | 01:40:46 | 00:00:00 | |
| BIOWL1-15 | 2026-09-04 11:59:10 | 51.45202 | 8.76767 | 99° | 9km/h | 21003m | 5m/s | -53.4°C | 0.8% | 49.9hPa | 2.7V | 18:12:15 | 01:40:45 | 00:00:00 | |
| AA1-15 | 2026-09-04 11:59:04 | 51.45204 | 8.76746 | 133° | 9km/h | 20973m | 4.9m/s | -53.4°C | 0.7% | 50.1hPa | 2.6V | 18:12:15 | 01:40:39 | 00:00:00 | |
| GOEST3-10 | 2026-09-04 11:59:04 | 51.45204 | 8.76746 | 134° | 13km/h | 20973m | 4.9m/s | -53.3°C | 4.0% | 50.0hPa | 2.6V | 00:00:00 | 00:00:00 | 08:30:00 | |
| DM0DOS-11 | 2026-09-04 11:59:03 | 51.45208 | 8.76739 | 127° | 13km/h | 20963m | 5.7m/s | -53.3°C | 4.1% | 50.1hPa | 2.7V | 08:30:00 | 01:40:37 | 00:00:00 | |
| DJ2KF-10 | 2026-09-04 11:59:03 | 51.45206 | 8.76743 | 135° | 18km/h | 20968m | 5.1m/s | -53.3°C | 4.0% | 50.1hPa | 2.7V | 00:00:00 | 01:40:38 | 00:00:00 | |
| DL1CLM-18 | 2026-09-04 11:59:02 | 51.45206 | 8.76743 | 135° | 13km/h | 20968m | 5.2m/s | -53.4°C | 1.2% | 50.1hPa | 2.7V | 00:00:00 | 00:00:00 | 00:00:00 | |
| DL1NUX | 2026-09-04 11:59:01 | 51.45210 | 8.76734 | 114° | 15km/h | 20957m | 5m/s | -53.3°C | 4% | 50.2hPa | 2.7V | 08:30:00 | 01:40:36 | 00:00:00 | |
| DL1XH-west | 2026-09-04 11:59:01 | 51.45209 | 8.76734 | 114° | 15km/h | 20957m | 5m/s | -53.3°C | 0.7% | 50.2hPa | 2.7V | 18:12:15 | 01:40:36 | 00:00:00 | |
| BIOWL1-15 | 2026-09-04 11:59:00 | 51.45211 | 8.76729 | 112° | 16km/h | 20953m | 4m/s | -53.3°C | 0.7% | 50.2hPa | 2.6V | 18:12:15 | 01:40:35 | 00:00:00 | |
| DF7PN | 2026-09-04 11:58:59 | 51.45213 | 8.76722 | 113° | 16km/h | 20948m | 5.3m/s | -53.3°C | 1.2% | 50.3hPa | 2.7V | 00:00:00 | 00:00:00 | 00:00:00 | |
| DO1YAY-16 | 2026-09-04 11:58:58 | 51.45216 | 8.76710 | 109° | 16km/h | 20939m | 4.3m/s | -53.2°C | 1.2% | 50.4hPa | 2.7V | 00:00:00 | 00:00:00 | 00:00:00 | |
| DL4XJ-10 | 2026-09-04 11:58:57 | 51.45216 | 8.76710 | 110° | 20km/h | 20939m | 4.2m/s | -53.9°C | 0% | 0hPa | 2.7V | 00:00:00 | 00:00:00 | 00:00:00 | |
| DL1NUX | 2026-09-04 11:58:56 | 51.45223 | 8.76672 | 123° | 20km/h | 20910m | 3.6m/s | -53.2°C | 4% | 50.6hPa | 2.7V | 08:30:00 | 01:40:26 | 00:00:00 | |
| DF8AY | 2026-09-04 11:58:55 | 51.45218 | 8.76697 | 97° | 16km/h | 20929m | 4.3m/s | -53.2°C | 0.7% | 50.4hPa | 2.7V | 18:12:15 | 01:40:30 | 00:00:00 | |
| AA1-15 | 2026-09-04 11:58:53 | 51.45219 | 8.76684 | 104° | 16km/h | 20920m | 5.1m/s | -53.2°C | 0.7% | 50.5hPa | 2.6V | 18:12:15 | 01:40:28 | 00:00:00 | |
| DL1XH1-15 | 2026-09-04 11:58:52 | 51.45221 | 8.76678 | 118° | 18km/h | 20915m | 5.2m/s | -53.2°C | 4% | 50.5hPa | 2.6V | 08:30:00 | 01:40:27 | 00:00:00 | |
| DL1XH-west | 2026-09-04 11:58:51 | 51.45223 | 8.76672 | 124° | 20km/h | 20910m | 3.6m/s | -53.2°C | 0.7% | 50.6hPa | 2.7V | 18:12:15 | 01:40:26 | 00:00:00 | |
| HSKMA3-T | 2026-09-04 11:58:49 | 51.45228 | 8.76658 | 119° | 20km/h | 20901m | 5.5m/s | -53.3°C | 0.8% | 50.6hPa | 2.7V | 18:12:15 | 01:40:24 | 00:00:00 | |
| BIOWL9-15 | 2026-09-04 11:58:47 | 51.45233 | 8.76644 | 113° | 18km/h | 20893m | 4.9m/s | -53.3°C | 1.2% | 50.7hPa | 2.6V | 00:00:00 | 00:00:00 | 00:00:00 | |
| NBG1-10 | 2026-09-04 11:58:46 | 51.45234 | 8.76637 | 116° | 27km/h | 20888m | 5.2m/s | -53.3°C | 4.0% | 50.7hPa | 2.6V | 00:00:00 | 01:40:21 | 08:30:00 | |
| DM0DOS-11 | 2026-09-04 11:58:45 | 51.45241 | 8.76607 | 95° | 20km/h | 20868m | 4.6m/s | -53.3°C | 4% | 50.9hPa | 2.7V | 08:30:00 | 01:40:17 | 00:00:00 | |
| DF8AY | 2026-09-04 11:58:44 | 51.45239 | 8.76622 | 111° | 20km/h | 20878m | 3.9m/s | -53.3°C | 0.7% | 50.8hPa | 2.7V | 18:12:15 | 01:40:19 | 00:00:00 | |
| DO2JMG | 2026-09-04 11:58:43 | 51.45240 | 8.76615 | 103° | 18km/h | 20873m | 5.9m/s | -53.3°C | 0.7% | 50.9hPa | 2.7V | 18:12:15 | 01:40:18 | 00:00:00 | |
| AA1-15 | 2026-09-04 11:58:42 | 51.45241 | 8.76607 | 95° | 20km/h | 20868m | 4.6m/s | -53.3°C | 0.7% | 50.9hPa | 2.7V | 18:12:15 | 01:40:17 | 00:00:00 | |
| DL1NUX | 2026-09-04 11:58:41 | 51.45242 | 8.76599 | 95° | 20km/h | 20864m | 3.9m/s | -53.4°C | 4% | 50.9hPa | 2.6V | 08:30:00 | 01:40:16 | 00:00:00 | |
| BIOWL1-15 | 2026-09-04 11:58:40 | 51.45247 | 8.76574 | 120° | 26km/h | 20850m | 3.9m/s | -53.5°C | 0.8% | 51hPa | 2.7V | 18:12:15 | 01:40:13 | 00:00:00 | |
| DL1XH-west | 2026-09-04 11:58:40 | 51.45242 | 8.76591 | 103° | 22km/h | 20860m | 5m/s | -53.5°C | 0.7% | 51hPa | 2.6V | 18:12:15 | 01:40:15 | 00:00:00 | |
| HSKMA3-T | 2026-09-04 11:58:39 | 51.45244 | 8.76582 | 113° | 24km/h | 20854m | 5.2m/s | -53.5°C | 0.7% | 51hPa | 2.6V | 18:12:15 | 01:40:14 | 00:00:00 | |
| AA1-15 | 2026-09-04 11:58:32 | 51.45264 | 8.76524 | 125° | 24km/h | 20821m | 4.3m/s | -53.3°C | 0.8% | 51.3hPa | 2.7V | 18:12:15 | 01:40:07 | 00:00:00 | |
| DL1NUX | 2026-09-04 11:58:31 | 51.45267 | 8.76516 | 120° | 26km/h | 20816m | 3.9m/s | -53.3°C | 4.1% | 51.3hPa | 2.7V | 08:30:00 | 01:40:06 | 00:00:00 | |
| DL1XH-west | 2026-09-04 11:58:29 | 51.45273 | 8.76497 | 109° | 27km/h | 20806m | 5.5m/s | -53.2°C | 0.8% | 51.4hPa | 2.6V | 18:12:15 | 01:40:04 | 00:00:00 | |
| BIOWL1-15 | 2026-09-04 11:58:27 | 51.45278 | 8.76474 | 110° | 31km/h | 20797m | 5.3m/s | -53.2°C | 0.7% | 51.5hPa | 2.7V | 18:12:15 | 01:40:02 | 00:00:00 | |
| DD1CC3-15 | 2026-09-04 11:58:26 | 51.45278 | 8.76474 | 111° | 31km/h | 20797m | 5.3m/s | -53.2°C | 1.2% | 51.5hPa | 2.7V | 00:00:00 | 00:00:00 | 00:00:00 | |
| DO3MHA-11 | 2026-09-04 11:58:25 | 51.45282 | 8.76451 | 102° | 26km/h | 20787m | 5.3m/s | -53.1°C | 4.0% | 51.5hPa | 2.7V | 00:00:00 | 01:40:00 | 00:00:00 | |
| GOEST3-10 | 2026-09-04 11:58:24 | 51.45283 | 8.76438 | 97° | 26km/h | 20782m | 5.4m/s | -53.0°C | 4.0% | 51.5hPa | 2.7V | 00:00:00 | 00:00:00 | 00:00:00 | |
| DM0DOS-11 | 2026-09-04 11:58:23 | 51.45284 | 8.76416 | 93° | 26km/h | 20771m | 5.8m/s | -53°C | 4% | 51.7hPa | 2.7V | 08:30:00 | 01:39:57 | 00:00:00 | |
| AA1-15 | 2026-09-04 11:58:21 | 51.45285 | 8.76406 | 99° | 24km/h | 20766m | 4.6m/s | -53°C | 0.7% | 51.7hPa | 2.7V | 18:12:15 | 01:39:56 | 00:00:00 | |
| DL1XH-west | 2026-09-04 11:58:19 | 51.45287 | 8.76389 | 99° | 22km/h | 20757m | 5.9m/s | -53.1°C | 0.7% | 51.8hPa | 2.6V | 18:12:15 | 01:39:54 | 00:00:00 | |
| HSKMA3-T | 2026-09-04 11:58:18 | 51.45287 | 8.76379 | 100° | 24km/h | 20751m | 5.2m/s | -53.1°C | 0.7% | 51.8hPa | 2.6V | 18:12:15 | 01:39:53 | 00:00:00 | |
| BIOWL1-15 | 2026-09-04 11:58:16 | 51.45290 | 8.76360 | 109° | 26km/h | 20741m | 5.5m/s | -53.3°C | 0.7% | 51.9hPa | 2.7V | 18:12:15 | 01:39:51 | 00:00:00 | |
| BIOWL9-15 | 2026-09-04 11:58:16 | 51.45290 | 8.76360 | 108° | 26km/h | 20741m | 5.5m/s | -53.3°C | 1.2% | 51.9hPa | 2.7V | 00:00:00 | 00:00:00 | 00:00:00 | |
| DL1XH-15 | 2026-09-04 11:58:15 | 51.45300 | 8.76311 | 102° | 38km/h | 20721m | 4.2m/s | -53.1°C | 4% | 52.1hPa | 2.7V | 08:30:00 | 01:39:47 | 00:00:00 | |
| AA1-15 | 2026-09-04 11:58:11 | 51.45302 | 8.76296 | 104° | 38km/h | 20717m | 5.1m/s | -53.1°C | 0.7% | 52.1hPa | 2.6V | 18:12:15 | 01:39:46 | 00:00:00 | |
| DL1XH-west | 2026-09-04 11:58:09 | 51.45306 | 8.76267 | 101° | 37km/h | 20707m | 4.6m/s | -53.1°C | 0.7% | 52.2hPa | 2.6V | 18:12:15 | 01:39:44 | 00:00:00 | |
| HSKMA3-T | 2026-09-04 11:58:08 | 51.45308 | 8.76253 | 97° | 35km/h | 20702m | 5.5m/s | -53.1°C | 0.7% | 52.2hPa | 2.7V | 18:12:15 | 01:39:43 | 00:00:00 | |
| BIOWL1-15 | 2026-09-04 11:58:07 | 51.45308 | 8.76212 | 89° | 31km/h | 20687m | 4.9m/s | -53°C | 0.7% | 52.4hPa | 2.6V | 18:12:15 | 01:39:40 | 00:00:00 | |
| DL1NUX | 2026-09-04 11:58:06 | 51.45310 | 8.76161 | 94° | 33km/h | 20667m | 5m/s | -52.9°C | 3.9% | 52.5hPa | 2.7V | 08:30:00 | 01:39:36 | 00:00:00 | |
| AU51GT2 | 2026-09-04 11:58:06 | 51.45308 | 8.76212 | 88° | 31km/h | 20687m | 4.9m/s | -53.0°C | 1.2% | 52.4hPa | 2.7V | 00:00:00 | 00:00:00 | 00:00:00 | |
| DL1XH-15 | 2026-09-04 11:58:05 | 51.45309 | 8.76174 | 95° | 31km/h | 20672m | 5.7m/s | -52.9°C | 3.9% | 52.5hPa | 2.7V | 08:30:00 | 01:39:37 | 00:00:00 | |
| DO2JMG | 2026-09-04 11:58:02 | 51.45309 | 8.76174 | 96° | 31km/h | 20673m | 5.7m/s | -52.9°C | 0.6% | 52.5hPa | 2.7V | 18:12:15 | 01:39:37 | 00:00:00 | |
| AA1-15 | 2026-09-04 11:58:00 | 51.45311 | 8.76148 | 97° | 33km/h | 20662m | 4.7m/s | -52.9°C | 0.7% | 52.6hPa | 2.6V | 18:12:15 | 01:39:35 | 00:00:00 | |
| DL1XH-west | 2026-09-04 11:57:58 | 51.45314 | 8.76123 | 103° | 31km/h | 20652m | 4.1m/s | -52.9°C | 0.6% | 52.6hPa | 2.7V | 18:12:15 | 01:39:33 | 00:00:00 | |
| HSKMA3-T | 2026-09-04 11:57:57 | 51.45315 | 8.76110 | 101° | 31km/h | 20648m | 4.2m/s | -52.9°C | 0.7% | 52.7hPa | 2.7V | 18:12:15 | 01:39:32 | 00:00:00 | |
| BIOWL1-15 | 2026-09-04 11:57:55 | 51.45317 | 8.76085 | 90° | 31km/h | 20638m | 4.3m/s | -53°C | 0.7% | 52.7hPa | 2.6V | 18:12:15 | 01:39:30 | 00:00:00 | |
| DO2JMG | 2026-09-04 11:57:52 | 51.45315 | 8.76053 | 84° | 22km/h | 20624m | 4.4m/s | -52.9°C | 0.7% | 52.9hPa | 2.7V | 18:12:15 | 01:39:27 | 00:00:00 | |
| DL1NUX | 2026-09-04 11:57:51 | 51.45315 | 8.76044 | 81° | 22km/h | 20620m | 4.1m/s | -52.9°C | 3.9% | 52.9hPa | 2.7V | 08:30:00 | 01:39:26 | 00:00:00 | |
| AA1-15 | 2026-09-04 11:57:50 | 51.45314 | 8.76035 | 79° | 24km/h | 20615m | 5.2m/s | -52.9°C | 0.7% | 53hPa | 2.6V | 18:12:15 | 01:39:25 | 00:00:00 | |
| DL1XH-west | 2026-09-04 11:57:47 | 51.45312 | 8.76005 | 92° | 26km/h | 20600m | 5.6m/s | -52.9°C | 0.7% | 53.1hPa | 2.7V | 18:12:15 | 01:39:22 | 00:00:00 | |
| BIOWL1-15 | 2026-09-04 11:57:44 | 51.45315 | 8.75976 | 99° | 24km/h | 20585m | 5.9m/s | -52.9°C | 0.6% | 53.2hPa | 2.5V | 18:12:15 | 01:39:19 | 00:00:00 | |
| DL4BBY-15 | 2026-09-04 11:57:43 | 51.45316 | 8.75966 | 95° | 20km/h | 20580m | 5.0m/s | -53.5°C | 0% | 0hPa | 2.6V | 00:00:00 | 00:00:00 | 00:00:00 | |
| DL1NUX | 2026-09-04 11:57:41 | 51.45316 | 8.75948 | 86° | 20km/h | 20569m | 5.3m/s | -53°C | 3.9% | 53.3hPa | 2.6V | 08:30:00 | 01:39:16 | 00:00:00 | |
| DO2JMG | 2026-09-04 11:57:41 | 51.45316 | 8.75948 | 87° | 20km/h | 20569m | 5.3m/s | -53°C | 0.7% | 53.3hPa | 2.6V | 18:12:15 | 01:39:16 | 00:00:00 | |
| AA1-15 | 2026-09-04 11:57:40 | 51.45315 | 8.75940 | 78° | 20km/h | 20565m | 3.7m/s | -53.1°C | 0.7% | 53.4hPa | 2.7V | 18:12:15 | 01:39:15 | 00:00:00 | |
| DF8AY | 2026-09-04 11:57:39 | 51.45314 | 8.75932 | 71° | 22km/h | 20561m | 5.2m/s | -53.1°C | 0.7% | 53.4hPa | 2.7V | 18:12:15 | 01:39:14 | 00:00:00 | |
| HSKMA3-T | 2026-09-04 11:57:36 | 51.45307 | 8.75907 | 74° | 22km/h | 20547m | 5.2m/s | -53°C | 0.6% | 53.5hPa | 2.6V | 18:12:15 | 01:39:11 | 00:00:00 | |
| BIOWL1-15 | 2026-09-04 11:57:34 | 51.45306 | 8.75890 | 93° | 22km/h | 20538m | 4m/s | -52.9°C | 0.6% | 53.6hPa | 2.7V | 18:12:15 | 01:39:09 | 00:00:00 | |
| DO2JMG | 2026-09-04 11:57:30 | 51.45308 | 8.75852 | 97° | 24km/h | 20519m | 4.6m/s | -53°C | 0.7% | 53.7hPa | 2.6V | 18:12:15 | 01:39:05 | 00:00:00 | |
| AA1-15 | 2026-09-04 11:57:29 | 51.45309 | 8.75843 | 101° | 22km/h | 20514m | 5.4m/s | -53.1°C | 0.8% | 53.8hPa | 2.6V | 18:12:15 | 01:39:04 | 00:00:00 | |
| HSKMA3-T | 2026-09-04 11:57:26 | 51.45310 | 8.75821 | 83° | 18km/h | 20499m | 5.4m/s | -53.2°C | 0.8% | 53.9hPa | 2.5V | 18:12:15 | 01:39:01 | 00:00:00 | |
| BIOWL1-15 | 2026-09-04 11:57:23 | 51.45307 | 8.75791 | 91° | 15km/h | 20475m | 5.3m/s | -53.2°C | 0.7% | 54.1hPa | 2.7V | 18:12:15 | 01:38:56 | 00:00:00 | |
| DM0DOS-11 | 2026-09-04 11:57:22 | 51.45307 | 8.75796 | 87° | 13km/h | 20480m | 4.1m/s | -53.2°C | 4% | 54.1hPa | 2.7V | 08:30:00 | 01:38:57 | 00:00:00 | |
| DO2JMG | 2026-09-04 11:57:20 | 51.45307 | 8.75784 | 95° | 18km/h | 20470m | 5.5m/s | -53.2°C | 0.7% | 54.2hPa | 2.6V | 18:12:15 | 01:38:55 | 00:00:00 | |
| AA1-15 | 2026-09-04 11:57:19 | 51.45308 | 8.75776 | 101° | 20km/h | 20465m | 4.6m/s | -53.1°C | 0.6% | 54.2hPa | 2.6V | 18:12:15 | 01:38:54 | 00:00:00 | |
| DL1XH-west | 2026-09-04 11:57:16 | 51.45312 | 8.75754 | 109° | 20km/h | 20451m | 4.3m/s | -53.1°C | 0.6% | 54.3hPa | 2.7V | 18:12:15 | 01:38:51 | 00:00:00 | |
| DL1XH-15 | 2026-09-04 11:57:16 | 51.45316 | 8.75720 | 91° | 18km/h | 20431m | 5m/s | -53°C | 4% | 54.5hPa | 2.6V | 08:30:00 | 01:38:47 | 00:00:00 | |
| HSKMA3-T | 2026-09-04 11:57:15 | 51.45314 | 8.75746 | 103° | 22km/h | 20446m | 5.3m/s | -53.1°C | 0.7% | 54.4hPa | 2.7V | 18:12:15 | 01:38:50 | 00:00:00 | |
| DO3MHA-11 | 2026-09-04 11:57:15 | 51.45314 | 8.75746 | 104° | 20km/h | 20446m | 5.3m/s | -53.0°C | 3.9% | 54.3hPa | 2.7V | 00:00:00 | 01:38:50 | 08:30:00 | |
| DL3AQ-11 | 2026-09-04 11:57:14 | 51.45315 | 8.75728 | 94° | 20km/h | 20436m | 5.1m/s | -53.0°C | 1.2% | 54.4hPa | 2.7V | 00:00:00 | 00:00:00 | 00:00:00 | |
| DL4BBY-15 | 2026-09-04 11:57:13 | 51.45315 | 8.75728 | 95° | 20km/h | 20437m | 5.1m/s | -53.7°C | 0% | 0hPa | 2.7V | 00:00:00 | 00:00:00 | 00:00:00 | |
| DL1NUX | 2026-09-04 11:57:12 | 51.45316 | 8.75712 | 85° | 18km/h | 20426m | 4m/s | -53°C | 4% | 54.5hPa | 2.7V | 08:30:00 | 01:38:46 | 00:00:00 | |
| BIOWL1-15 | 2026-09-04 11:57:11 | 51.45316 | 8.75712 | 86° | 18km/h | 20426m | 4.1m/s | -53°C | 0.7% | 54.5hPa | 2.7V | 18:12:15 | 01:38:46 | 00:00:00 | |
| DO2JMG | 2026-09-04 11:57:10 | 51.45315 | 8.75705 | 81° | 20km/h | 20422m | 5.2m/s | -53°C | 0.7% | 54.6hPa | 2.7V | 18:12:15 | 01:38:45 | 00:00:00 | |
| AA1-15 | 2026-09-04 11:57:08 | 51.45313 | 8.75689 | 74° | 20km/h | 20412m | 4.4m/s | -52.9°C | 0.7% | 54.7hPa | 2.6V | 18:12:15 | 01:38:43 | 00:00:00 | |
| EDDB2-12 | 2026-09-04 11:57:07 | 51.45311 | 8.75682 | 77° | 16km/h | 20407m | 5.5m/s | -53.0°C | 1.2% | 54.7hPa | 2.6V | 00:00:00 | 00:00:00 | 00:00:00 | |
| DL1NUX | 2026-09-04 11:57:06 | 51.45308 | 8.75643 | 88° | 16km/h | 20377m | 5.3m/s | -52.9°C | 3.9% | 54.9hPa | 2.6V | 08:30:00 | 01:38:36 | 00:00:00 | |
| DM0DOS-11 | 2026-09-04 11:57:05 | 51.45308 | 8.75650 | 86° | 16km/h | 20383m | 5.3m/s | -53°C | 4% | 54.9hPa | 2.6V | 08:30:00 | 01:38:37 | 00:00:00 | |
| DL1XH-west | 2026-09-04 11:57:05 | 51.45310 | 8.75669 | 79° | 15km/h | 20398m | 3.9m/s | -53°C | 0.7% | 54.8hPa | 2.7V | 18:12:15 | 01:38:40 | 00:00:00 | |
| HSKMA3-T | 2026-09-04 11:57:04 | 51.45309 | 8.75663 | 80° | 16km/h | 20393m | 5.6m/s | -53°C | 0.7% | 54.8hPa | 2.7V | 18:12:15 | 01:38:39 | 00:00:00 | |
| DO2JMG | 2026-09-04 11:56:59 | 51.45307 | 8.75628 | 80° | 20km/h | 20369m | 4.4m/s | -53°C | 0.7% | 55hPa | 2.7V | 18:12:15 | 01:38:34 | 00:00:00 | |
| AA1-15 | 2026-09-04 11:56:58 | 51.45306 | 8.75620 | 74° | 24km/h | 20364m | 5.3m/s | -53°C | 0.6% | 55hPa | 2.7V | 18:12:15 | 01:38:33 | 00:00:00 | |
| DL3AQ-11 | 2026-09-04 11:56:58 | 51.45304 | 8.75610 | 70° | 26km/h | 20359m | 4.5m/s | -53.0°C | 1.1% | 55.1hPa | 2.7V | 00:00:00 | 00:00:00 | 00:00:00 | |
| DL4XJ-10 | 2026-09-04 11:56:57 | 51.45304 | 8.75610 | 71° | 22km/h | 20360m | 4.4m/s | -53.6°C | 0% | 0hPa | 2.7V | 00:00:00 | 00:00:00 | 00:00:00 | |
| DL1NUX | 2026-09-04 11:56:56 | 51.45290 | 8.75554 | 72° | 24km/h | 20331m | 4m/s | -53°C | 4% | 55.3hPa | 2.7V | 08:30:00 | 01:38:26 | 00:00:00 | |
| DL1XH-15 | 2026-09-04 11:56:55 | 51.45292 | 8.75564 | 70° | 26km/h | 20335m | 4.6m/s | -53°C | 4% | 55.3hPa | 2.7V | 08:30:00 | 01:38:27 | 00:00:00 | |
| DL1XH-west | 2026-09-04 11:56:54 | 51.45297 | 8.75582 | 67° | 24km/h | 20345m | 4.2m/s | -53.2°C | 0.6% | 55.2hPa | 2.6V | 18:12:15 | 01:38:29 | 00:00:00 | |
| HSKMA3-T | 2026-09-04 11:56:53 | 51.45295 | 8.75573 | 68° | 26km/h | 20341m | 5.4m/s | -53.1°C | 0.6% | 55.3hPa | 2.7V | 18:12:15 | 01:38:28 | 00:00:00 | |
| BIOWL1-15 | 2026-09-04 11:56:50 | 51.45289 | 8.75546 | 78° | 20km/h | 20327m | 5.5m/s | -53°C | 0.7% | 55.4hPa | 2.6V | 18:12:15 | 01:38:25 | 00:00:00 | |
| DO2JMG | 2026-09-04 11:56:48 | 51.45288 | 8.75532 | 82° | 16km/h | 20318m | 4.4m/s | -53.1°C | 0.7% | 55.5hPa | 2.6V | 18:12:15 | 01:38:23 | 00:00:00 | |
| AA1-15 | 2026-09-04 11:56:47 | 51.45287 | 8.75525 | 78° | 18km/h | 20313m | 5.5m/s | -53.1°C | 0.7% | 55.5hPa | 2.7V | 18:12:15 | 01:38:22 | 00:00:00 | |
| DL1XH-west | 2026-09-04 11:56:44 | 51.45282 | 8.75503 | 67° | 20km/h | 20298m | 5.2m/s | -53.1°C | 0.8% | 55.6hPa | 2.5V | 18:12:15 | 01:38:19 | 00:00:00 | |
| HSKMA3-T | 2026-09-04 11:56:42 | 51.45278 | 8.75488 | 66° | 20km/h | 20290m | 3.5m/s | -53.1°C | 0.7% | 55.7hPa | 2.6V | 18:12:15 | 01:38:17 | 00:00:00 | |
| BIOWL1-15 | 2026-09-04 11:56:41 | 51.45271 | 8.75463 | 62° | 24km/h | 20276m | 3.8m/s | -53°C | 0.6% | 55.8hPa | 2.6V | 18:12:15 | 01:38:14 | 00:00:00 | |
| DO2JMG | 2026-09-04 11:56:38 | 51.45268 | 8.75455 | 59° | 22km/h | 20272m | 5.4m/s | -53°C | 0.6% | 55.8hPa | 2.6V | 18:12:15 | 01:38:13 | 00:00:00 | |
| DF8AY | 2026-09-04 11:56:37 | 51.45265 | 8.75448 | 57° | 16km/h | 20267m | 4.7m/s | -53°C | 0.7% | 55.9hPa | 2.6V | 18:12:15 | 01:38:12 | 00:00:00 | |
| DL1XH-west | 2026-09-04 11:56:33 | 51.45259 | 8.75428 | 74° | 16km/h | 20250m | 4.4m/s | -53.1°C | 0.6% | 56hPa | 2.6V | 18:12:15 | 01:38:08 | 00:00:00 | |
| HSKMA3-T | 2026-09-04 11:56:32 | 51.45258 | 8.75421 | 82° | 18km/h | 20245m | 4.5m/s | -53.1°C | 0.6% | 56.1hPa | 2.6V | 18:12:15 | 01:38:07 | 00:00:00 | |
| BIOWL1-15 | 2026-09-04 11:56:28 | 51.45261 | 8.75391 | 111° | 22km/h | 20225m | 4.7m/s | -53.2°C | 0.6% | 56.3hPa | 2.7V | 18:12:15 | 01:38:03 | 00:00:00 | |
| DO2JMG | 2026-09-04 11:56:27 | 51.45263 | 8.75382 | 109° | 24km/h | 20220m | 5.7m/s | -53.3°C | 0.7% | 56.3hPa | 2.6V | 18:12:15 | 01:38:02 | 00:00:00 | |
| AA1-15 | 2026-09-04 11:56:26 | 51.45265 | 8.75373 | 109° | 24km/h | 20215m | 4.4m/s | -53.3°C | 0.6% | 56.4hPa | 2.6V | 18:12:15 | 01:38:01 | 00:00:00 | |
| DF8AY | 2026-09-04 11:56:26 | 51.45267 | 8.75364 | 109° | 22km/h | 20210m | 5.5m/s | -53.3°C | 0.6% | 56.4hPa | 2.6V | 18:12:15 | 01:38:00 | 00:00:00 | |
| DB0DAN | 2026-09-04 11:56:25 | 51.45267 | 8.75364 | 109° | 22km/h | 20210m | 5.5m/s | -53.3°C | 1.1% | 56.39hPa | 2.6V | 00:00:00 | 00:00:00 | 00:00:00 | |
| DL1XH-west | 2026-09-04 11:56:22 | 51.45271 | 8.75341 | 101° | 20km/h | 20196m | 5.5m/s | -53.5°C | 0.6% | 56.5hPa | 2.6V | 18:12:15 | 01:37:57 | 00:00:00 | |
| HSKMA3-T | 2026-09-04 11:56:21 | 51.45272 | 8.75333 | 97° | 20km/h | 20191m | 4.9m/s | -53.4°C | 0.6% | 56.6hPa | 2.6V | 18:12:15 | 01:37:56 | 00:00:00 | |
| BIOWL1-15 | 2026-09-04 11:56:17 | 51.45279 | 8.75291 | 109° | 27km/h | 20168m | 5.3m/s | -53.7°C | 0.7% | 56.8hPa | 2.6V | 18:12:15 | 01:37:51 | 00:00:00 | |
| DO2JMG | 2026-09-04 11:56:17 | 51.45277 | 8.75301 | 109° | 24km/h | 20173m | 5m/s | -53.7°C | 0.7% | 56.7hPa | 2.7V | 18:12:15 | 01:37:52 | 00:00:00 | |
| AA1-15 | 2026-09-04 11:56:15 | 51.45281 | 8.75280 | 110° | 31km/h | 20163m | 3.8m/s | -53.7°C | 0.6% | 56.8hPa | 2.6V | 18:12:15 | 01:37:50 | 00:00:00 | |
| GOEST3-10 | 2026-09-04 11:56:14 | 51.45284 | 8.75268 | 112° | 31km/h | 20159m | 4.2m/s | -53.6°C | 3.9% | 56.8hPa | 2.7V | 00:00:00 | 00:00:00 | 00:00:00 | |
| DL4BBY-15 | 2026-09-04 11:56:13 | 51.45287 | 8.75256 | 114° | 37km/h | 20155m | 5.2m/s | -54.3°C | 0% | 0hPa | 2.7V | 00:00:00 | 00:00:00 | 00:00:00 | |
| DL1NUX | 2026-09-04 11:56:12 | 51.45293 | 8.75234 | 114° | 29km/h | 20145m | 4.1m/s | -53.7°C | 3.9% | 57hPa | 2.7V | 08:30:00 | 01:37:46 | 00:00:00 | |
| DL1XH-west | 2026-09-04 11:56:11 | 51.45293 | 8.75234 | 115° | 29km/h | 20145m | 4.1m/s | -53.7°C | 0.7% | 57hPa | 2.7V | 18:12:15 | 01:37:46 | 00:00:00 | |
| HSKMA3-T | 2026-09-04 11:56:10 | 51.45296 | 8.75223 | 113° | 31km/h | 20141m | 5.5m/s | -53.9°C | 0.7% | 57hPa | 2.6V | 18:12:15 | 01:37:45 | 00:00:00 | |
| DB0DAN | 2026-09-04 11:56:10 | 51.45296 | 8.75223 | 113° | 29km/h | 20141m | 5.5m/s | -53.9°C | 1.2% | 56.99hPa | 2.6V | 00:00:00 | 00:00:00 | 00:00:00 | |
| BIOWL1-15 | 2026-09-04 11:56:07 | 51.45305 | 8.75187 | 110° | 31km/h | 20125m | 5.3m/s | -54°C | 0.7% | 57.1hPa | 2.6V | 18:12:15 | 01:37:42 | 00:00:00 | |
| DO2JMG | 2026-09-04 11:56:06 | 51.45307 | 8.75175 | 109° | 33km/h | 20121m | 3.5m/s | -54.2°C | 0.7% | 57.2hPa | 2.7V | 18:12:15 | 01:37:41 | 00:00:00 | |
| AA1-15 | 2026-09-04 11:56:05 | 51.45310 | 8.75162 | 108° | 35km/h | 20117m | 5m/s | -54.3°C | 0.8% | 57.2hPa | 2.7V | 18:12:15 | 01:37:40 | 00:00:00 | |
| DL3AQ-11 | 2026-09-04 11:56:05 | 51.45313 | 8.75148 | 106° | 38km/h | 20112m | 5.2m/s | -54.5°C | 1.2% | 57.3hPa | 2.6V | 00:00:00 | 00:00:00 | 00:00:00 | |
| DO3MHA-11 | 2026-09-04 11:56:04 | 51.45313 | 8.75148 | 107° | 38km/h | 20112m | 5.1m/s | -54.4°C | 4.1% | 57.2hPa | 2.6V | 00:00:00 | 01:37:39 | 00:00:00 | |
| DM0DOS-11 | 2026-09-04 11:56:03 | 51.45319 | 8.75117 | 107° | 40km/h | 20102m | 5.4m/s | -54.7°C | 4.2% | 57.4hPa | 2.6V | 08:30:00 | 01:37:37 | 00:00:00 | |
| DL1XH-west | 2026-09-04 11:56:01 | 51.45322 | 8.75102 | 110° | 38km/h | 20097m | 4.8m/s | -54.7°C | 0.8% | 57.4hPa | 2.6V | 18:12:15 | 01:37:36 | 00:00:00 | |
| DF8AY | 2026-09-04 11:56:00 | 51.45325 | 8.75088 | 112° | 37km/h | 20093m | 4m/s | -54.7°C | 0.8% | 57.4hPa | 2.7V | 18:12:15 | 01:37:35 | 00:00:00 | |
| HSKMA3-T | 2026-09-04 11:55:59 | 51.45329 | 8.75074 | 111° | 37km/h | 20089m | 4.1m/s | -54.7°C | 0.8% | 57.5hPa | 2.7V | 18:12:15 | 01:37:34 | 00:00:00 | |
| BIOWL1-15 | 2026-09-04 11:55:57 | 51.45335 | 8.75044 | 106° | 40km/h | 20079m | 4.5m/s | -54.7°C | 0.9% | 57.6hPa | 2.6V | 18:12:15 | 01:37:32 | 00:00:00 | |
| DO2JMG | 2026-09-04 11:55:56 | 51.45337 | 8.75029 | 103° | 40km/h | 20075m | 4m/s | -54.7°C | 0.8% | 57.6hPa | 2.6V | 18:12:15 | 01:37:31 | 00:00:00 | |
| AA1-15 | 2026-09-04 11:55:54 | 51.45341 | 8.74999 | 100° | 35km/h | 20065m | 4.6m/s | -54.7°C | 0.8% | 57.7hPa | 2.7V | 18:12:15 | 01:37:29 | 00:00:00 | |
| DL3AQ-11 | 2026-09-04 11:55:54 | 51.45343 | 8.74986 | 101° | 33km/h | 20061m | 4.2m/s | -54.7°C | 1.3% | 57.7hPa | 2.6V | 00:00:00 | 00:00:00 | 00:00:00 | |
| DM0DOS-11 | 2026-09-04 11:55:53 | 51.45345 | 8.74972 | 103° | 35km/h | 20056m | 5.6m/s | -54.7°C | 4.2% | 57.7hPa | 2.6V | 08:30:00 | 01:37:27 | 00:00:00 | |
| DL1XH-west | 2026-09-04 11:55:51 | 51.45347 | 8.74958 | 105° | 37km/h | 20051m | 4.3m/s | -54.7°C | 0.8% | 57.8hPa | 2.6V | 18:12:15 | 01:37:26 | 00:00:00 | |
| DF8AY | 2026-09-04 11:55:49 | 51.45351 | 8.74930 | 104° | 35km/h | 20042m | 5.2m/s | -54.6°C | 0.8% | 57.9hPa | 2.7V | 18:12:15 | 01:37:24 | 00:00:00 | |
| HSKMA3-T | 2026-09-04 11:55:48 | 51.45353 | 8.74916 | 98° | 35km/h | 20038m | 3.9m/s | -54.6°C | 0.8% | 57.9hPa | 2.7V | 18:12:15 | 01:37:23 | 00:00:00 | |
| BIOWL1-15 | 2026-09-04 11:55:47 | 51.45354 | 8.74902 | 94° | 38km/h | 20033m | 4.3m/s | -54.6°C | 0.8% | 58hPa | 2.7V | 18:12:15 | 01:37:22 | 00:00:00 | |
| DO2JMG | 2026-09-04 11:55:45 | 51.45354 | 8.74868 | 88° | 44km/h | 20024m | 4.2m/s | -54.5°C | 0.7% | 58.1hPa | 2.6V | 18:12:15 | 01:37:20 | 00:00:00 | |
| EDDB2-11 | 2026-09-04 11:55:44 | 51.45353 | 8.74851 | 85° | 42km/h | 20019m | 5.3m/s | -54.5°C | 1.2% | 58.1hPa | 2.7V | 00:00:00 | 00:00:00 | 00:00:00 | |
| AA1-15 | 2026-09-04 11:55:43 | 51.45352 | 8.74834 | 82° | 42km/h | 20014m | 4.9m/s | -54.5°C | 0.7% | 58.1hPa | 2.7V | 18:12:15 | 01:37:18 | 00:00:00 | |
| DL1XH-west | 2026-09-04 11:55:40 | 51.45348 | 8.74784 | 84° | 40km/h | 20000m | 4.5m/s | -54.5°C | 0.7% | 58.3hPa | 2.6V | 18:12:15 | 01:37:15 | 00:00:00 | |
| DF8AY | 2026-09-04 11:55:39 | 51.45347 | 8.74768 | 86° | 38km/h | 19995m | 5.1m/s | -54.5°C | 0.7% | 58.3hPa | 2.6V | 18:12:15 | 01:37:14 | 00:00:00 | |
| HSKMA3-T | 2026-09-04 11:55:37 | 51.45346 | 8.74740 | 91° | 33km/h | 19986m | 4m/s | -54.6°C | 0.7% | 58.4hPa | 2.7V | 18:12:15 | 01:37:12 | 00:00:00 | |
| BIOWL1-15 | 2026-09-04 11:55:36 | 51.45347 | 8.74697 | 91° | 38km/h | 19972m | 4m/s | -54.9°C | 0.8% | 58.5hPa | 2.6V | 18:12:15 | 01:37:09 | 00:00:00 | |
| DO2JMG | 2026-09-04 11:55:35 | 51.45347 | 8.74713 | 93° | 37km/h | 19977m | 4.4m/s | -54.8°C | 0.8% | 58.5hPa | 2.6V | 18:12:15 | 01:37:10 | 00:00:00 | |
| AA1-15 | 2026-09-04 11:55:33 | 51.45346 | 8.74665 | 84° | 40km/h | 19963m | 4.9m/s | -55°C | 0.8% | 58.6hPa | 2.7V | 18:12:15 | 01:37:07 | 00:00:00 | |
| DL1XH-west | 2026-09-04 11:55:29 | 51.45341 | 8.74612 | 79° | 49km/h | 19949m | 5.1m/s | -55°C | 0.8% | 58.8hPa | 2.6V | 18:12:15 | 01:37:04 | 00:00:00 | |
| DF8AY | 2026-09-04 11:55:28 | 51.45339 | 8.74592 | 78° | 51km/h | 19945m | 3.8m/s | -55.1°C | 0.9% | 58.8hPa | 2.6V | 18:12:15 | 01:37:03 | 00:00:00 | |
| BIOWL1-15 | 2026-09-04 11:55:26 | 51.45333 | 8.74554 | 75° | 46km/h | 19935m | 4.9m/s | -55.3°C | 0.9% | 58.9hPa | 2.7V | 18:12:15 | 01:37:01 | 00:00:00 | |
| DO2JMG | 2026-09-04 11:55:25 | 51.45330 | 8.74536 | 76° | 44km/h | 19930m | 4.2m/s | -55.3°C | 0.9% | 58.9hPa | 2.7V | 18:12:15 | 01:37:00 | 00:00:00 | |
| DB0DAN | 2026-09-04 11:55:25 | 51.45330 | 8.74536 | 76° | 42km/h | 19930m | 4.2m/s | -55.3°C | 1.3% | 58.9hPa | 2.7V | 00:00:00 | 00:00:00 | 00:00:00 | |
| AA1-15 | 2026-09-04 11:55:23 | 51.45326 | 8.74502 | 84° | 42km/h | 19921m | 5m/s | -55.4°C | 0.9% | 59hPa | 2.6V | 18:12:15 | 01:36:58 | 00:00:00 | |
| DL1XH-west | 2026-09-04 11:55:19 | 51.45321 | 8.74437 | 76° | 40km/h | 19904m | 4.2m/s | -55.4°C | 0.9% | 59.2hPa | 2.7V | 18:12:15 | 01:36:54 | 00:00:00 | |
| DF8AY | 2026-09-04 11:55:18 | 51.45318 | 8.74421 | 73° | 42km/h | 19900m | 4.2m/s | -55.5°C | 0.9% | 59.2hPa | 2.7V | 18:12:15 | 01:36:53 | 00:00:00 | |
| HSKMA3-T | 2026-09-04 11:55:16 | 51.45312 | 8.74388 | 75° | 44km/h | 19891m | 4.2m/s | -55.4°C | 0.9% | 59.3hPa | 2.6V | 18:12:15 | 01:36:51 | 00:00:00 | |
| BIOWL1-15 | 2026-09-04 11:55:15 | 51.45309 | 8.74371 | 77° | 42km/h | 19887m | 4.4m/s | -55.4°C | 0.9% | 59.3hPa | 2.6V | 18:12:15 | 01:36:50 | 00:00:00 | |
| DO2JMG | 2026-09-04 11:55:14 | 51.45307 | 8.74355 | 79° | 40km/h | 19882m | 5.3m/s | -55.5°C | 0.9% | 59.4hPa | 2.6V | 18:12:15 | 01:36:49 | 00:00:00 | |
| AA1-15 | 2026-09-04 11:55:13 | 51.45305 | 8.74339 | 79° | 37km/h | 19877m | 4.8m/s | -55.5°C | 0.9% | 59.4hPa | 2.7V | 18:12:15 | 01:36:48 | 00:00:00 | |
| DJ2DS-15 | 2026-09-04 11:55:12 | 51.45303 | 8.74324 | 78° | 33km/h | 19872m | 4.4m/s | -55.4°C | 4.4% | 59.4hPa | 2.6V | 00:00:00 | 01:36:47 | 00:00:00 | |
| DK9SH | 2026-09-04 11:55:11 | 51.45303 | 8.74325 | 78° | 37km/h | 19872m | 4.4m/s | -55.4°C | 1.4% | 59.5hPa | 2.6V | 00:00:00 | 00:00:00 | 00:00:00 | |
| DB0DAN | 2026-09-04 11:55:10 | 51.45299 | 8.74295 | 73° | 37km/h | 19862m | 4.4m/s | -55.3°C | 1.3% | 59.55hPa | 2.6V | 00:00:00 | 00:00:00 | 00:00:00 | |
| DL1XH-west | 2026-09-04 11:55:08 | 51.45292 | 8.74268 | 64° | 33km/h | 19853m | 5.8m/s | -55.3°C | 0.9% | 59.6hPa | 2.6V | 18:12:15 | 01:36:43 | 00:00:00 | |
| DF8AY | 2026-09-04 11:55:07 | 51.45288 | 8.74257 | 58° | 29km/h | 19847m | 6m/s | -55.3°C | 0.9% | 59.7hPa | 2.7V | 18:12:15 | 01:36:42 | 00:00:00 | |
| BIOWL1-15 | 2026-09-04 11:55:07 | 51.45280 | 8.74238 | 56° | 29km/h | 19837m | 5.8m/s | -55.2°C | 0.9% | 59.8hPa | 2.6V | 18:12:15 | 01:36:40 | 00:00:00 | |
| HSKMA3-T | 2026-09-04 11:55:06 | 51.45284 | 8.74247 | 55° | 27km/h | 19842m | 3.9m/s | -55.3°C | 0.9% | 59.8hPa | 2.7V | 18:12:15 | 01:36:41 | 00:00:00 | |
| DL1XH-15 | 2026-09-04 11:55:05 | 51.45271 | 8.74205 | 75° | 29km/h | 19822m | 5.1m/s | -55.1°C | 4.3% | 59.9hPa | 2.7V | 08:30:00 | 01:36:37 | 00:00:00 | |
| DO2JMG | 2026-09-04 11:55:04 | 51.45277 | 8.74227 | 62° | 29km/h | 19832m | 5.3m/s | -55.2°C | 0.9% | 59.9hPa | 2.6V | 18:12:15 | 01:36:39 | 00:00:00 | |
| AA1-15 | 2026-09-04 11:55:02 | 51.45271 | 8.74205 | 75° | 29km/h | 19822m | 5.1m/s | -55.1°C | 0.8% | 59.9hPa | 2.7V | 18:12:15 | 01:36:37 | 00:00:00 | |
| DL1XH-west | 2026-09-04 11:54:58 | 51.45264 | 8.74159 | 69° | 33km/h | 19804m | 6m/s | -55.2°C | 0.9% | 60.1hPa | 2.7V | 18:12:15 | 01:36:33 | 00:00:00 | |
| DF8AY | 2026-09-04 11:54:56 | 51.45256 | 8.74134 | 58° | 37km/h | 19793m | 4.8m/s | -55.2°C | 0.9% | 60.2hPa | 2.7V | 18:12:15 | 01:36:31 | 00:00:00 | |
| DL1NUX | 2026-09-04 11:54:56 | 51.45232 | 8.74079 | 56° | 31km/h | 19768m | 4.7m/s | -55.1°C | 4.3% | 60.4hPa | 2.7V | 08:30:00 | 01:36:26 | 00:00:00 | |
| BIOWL1-15 | 2026-09-04 11:54:56 | 51.45246 | 8.74111 | 54° | 33km/h | 19783m | 4.6m/s | -55.1°C | 0.9% | 60.3hPa | 2.6V | 18:12:15 | 01:36:29 | 00:00:00 | |
| HSKMA3-T | 2026-09-04 11:54:55 | 51.45251 | 8.74122 | 56° | 35km/h | 19788m | 5.8m/s | -55.2°C | 0.9% | 60.2hPa | 2.5V | 18:12:15 | 01:36:30 | 00:00:00 | |
| DB0DAN | 2026-09-04 11:54:55 | 51.45251 | 8.74122 | 56° | 33km/h | 19788m | 5.8m/s | -55.2°C | 1.3% | 60.25hPa | 2.5V | 00:00:00 | 00:00:00 | 00:00:00 | |
| DM0DOS-11 | 2026-09-04 11:54:53 | 51.45237 | 8.74090 | 54° | 31km/h | 19773m | 5.5m/s | -55.1°C | 4.3% | 60.4hPa | 2.7V | 08:30:00 | 01:36:27 | 00:00:00 | |
| DO2JMG | 2026-09-04 11:54:53 | 51.45241 | 8.74100 | 53° | 31km/h | 19778m | 4.2m/s | -55.1°C | 0.9% | 60.3hPa | 2.6V | 18:12:15 | 01:36:28 | 00:00:00 | |
| AA1-15 | 2026-09-04 11:54:52 | 51.45237 | 8.74090 | 54° | 31km/h | 19773m | 5.5m/s | -55.1°C | 0.9% | 60.4hPa | 2.7V | 18:12:15 | 01:36:27 | 00:00:00 | |
| DL1XH-west | 2026-09-04 11:54:47 | 51.45221 | 8.74041 | 73° | 24km/h | 19749m | 3.9m/s | -55°C | 0.8% | 60.6hPa | 2.7V | 18:12:15 | 01:36:22 | 00:00:00 | |
| DL1NUX | 2026-09-04 11:54:46 | 51.45197 | 8.73982 | 43° | 29km/h | 19721m | 3.8m/s | -55.2°C | 4.4% | 60.9hPa | 2.7V | 08:30:00 | 01:36:16 | 00:00:00 | |
| HSKMA3-T | 2026-09-04 11:54:45 | 51.45216 | 8.74021 | 64° | 29km/h | 19739m | 4.8m/s | -55.1°C | 0.8% | 60.7hPa | 2.6V | 18:12:15 | 01:36:20 | 00:00:00 | |
| DF8AY | 2026-09-04 11:54:44 | 51.45212 | 8.74011 | 58° | 31km/h | 19735m | 4.1m/s | -55.2°C | 0.9% | 60.7hPa | 2.6V | 18:12:15 | 01:36:19 | 00:00:00 | |
| DJ2DS-15 | 2026-09-04 11:54:44 | 51.45212 | 8.74011 | 57° | 31km/h | 19735m | 4.1m/s | -55.2°C | 1.3% | 60.7hPa | 2.7V | 00:00:00 | 00:00:00 | 00:00:00 | |
| DO2JMG | 2026-09-04 11:54:42 | 51.45203 | 8.73991 | 46° | 31km/h | 19725m | 4.9m/s | -55.3°C | 0.9% | 60.8hPa | 2.7V | 18:12:15 | 01:36:17 | 00:00:00 | |
| DL1XH-west | 2026-09-04 11:54:37 | 51.45175 | 8.73949 | 43° | 27km/h | 19703m | 4m/s | -55.1°C | 1% | 61.1hPa | 2.7V | 18:12:15 | 01:36:12 | 00:00:00 | |
| HSKMA3-T | 2026-09-04 11:54:34 | 51.45162 | 8.73932 | 42° | 18km/h | 19689m | 3.7m/s | -55°C | 1% | 61.2hPa | 2.6V | 18:12:15 | 01:36:09 | 00:00:00 | |
| DF8AY | 2026-09-04 11:54:33 | 51.45159 | 8.73926 | 48° | 20km/h | 19685m | 5.2m/s | -55°C | 1% | 61.2hPa | 2.7V | 18:12:15 | 01:36:08 | 00:00:00 | |
| DM0DOS-11 | 2026-09-04 11:54:32 | 51.45155 | 8.73919 | 53° | 24km/h | 19680m | 5m/s | -55°C | 4.5% | 61.3hPa | 2.7V | 08:30:00 | 01:36:07 | 00:00:00 | |
| DO2JMG | 2026-09-04 11:54:31 | 51.45151 | 8.73911 | 56° | 27km/h | 19675m | 4.5m/s | -55°C | 1% | 61.3hPa | 2.6V | 18:12:15 | 01:36:06 | 00:00:00 | |
| DL1XH-west | 2026-09-04 11:54:26 | 51.45128 | 8.73875 | 35° | 18km/h | 19653m | 4.5m/s | -54.7°C | 0.9% | 61.5hPa | 2.7V | 18:12:15 | 01:36:01 | 00:00:00 | |
| DL1XH-15 | 2026-09-04 11:54:25 | 51.45119 | 8.73856 | 63° | 11km/h | 19632m | 5.9m/s | -54.6°C | 4.3% | 61.7hPa | 2.7V | 08:30:00 | 01:35:57 | 00:00:00 | |
| BIOWL1-15 | 2026-09-04 11:54:23 | 51.45120 | 8.73861 | 63° | 13km/h | 19637m | 4.7m/s | -54.7°C | 0.9% | 61.7hPa | 2.6V | 18:12:15 | 01:35:58 | 00:00:00 | |
| DF8AY | 2026-09-04 11:54:22 | 51.45119 | 8.73856 | 63° | 11km/h | 19632m | 5.9m/s | -54.6°C | 0.9% | 61.7hPa | 2.7V | 18:12:15 | 01:35:57 | 00:00:00 | |
| DO2JMG | 2026-09-04 11:54:21 | 51.45118 | 8.73852 | 64° | 13km/h | 19627m | 4.1m/s | -54.6°C | 0.8% | 61.8hPa | 2.7V | 18:12:15 | 01:35:56 | 00:00:00 | |
| AA1-15 | 2026-09-04 11:54:20 | 51.45116 | 8.73847 | 65° | 16km/h | 19622m | 5.6m/s | -54.5°C | 0.8% | 61.8hPa | 2.6V | 18:12:15 | 01:35:55 | 00:00:00 | |
| DL1XH-west | 2026-09-04 11:54:16 | 51.45104 | 8.73811 | 51° | 18km/h | 19596m | 4.6m/s | -54.1°C | 0.8% | 62.1hPa | 2.6V | 18:12:15 | 01:35:50 | 00:00:00 | |
| DC6BW-12 | 2026-09-04 11:54:16 | 51.45107 | 8.73817 | 57° | 20km/h | 19602m | 5.9m/s | -54.2°C | 1.3% | 62.0hPa | 2.6V | 00:00:00 | 00:00:00 | 00:00:00 | |
| DO9LL-15 | 2026-09-04 11:54:15 | 51.45104 | 8.73811 | 52° | 20km/h | 19596m | 4.6m/s | -54.1°C | 4.2% | 62.0hPa | 2.6V | 00:00:00 | 01:35:50 | 00:00:00 | |
| DM0DOS-11 | 2026-09-04 11:54:12 | 51.45095 | 8.73792 | 60° | 20km/h | 19581m | 4.1m/s | -54°C | 4.1% | 62.2hPa | 2.7V | 08:30:00 | 01:35:47 | 00:00:00 | |
| HSKMA3-T | 2026-09-04 11:54:12 | 51.45095 | 8.73792 | 61° | 20km/h | 19581m | 4.1m/s | -54°C | 0.7% | 62.2hPa | 2.7V | 18:12:15 | 01:35:47 | 00:00:00 | |
| DF8AY | 2026-09-04 11:54:11 | 51.45093 | 8.73785 | 66° | 16km/h | 19577m | 3.7m/s | -54.1°C | 0.8% | 62.3hPa | 2.7V | 18:12:15 | 01:35:46 | 00:00:00 | |
| DO2JMG | 2026-09-04 11:54:10 | 51.45092 | 8.73780 | 71° | 13km/h | 19572m | 5.7m/s | -54.1°C | 0.9% | 62.3hPa | 2.6V | 18:12:15 | 01:35:45 | 00:00:00 | |
| DB0DAN | 2026-09-04 11:54:10 | 51.45092 | 8.73780 | 70° | 13km/h | 19572m | 5.7m/s | -54.1°C | 1.3% | 62.31hPa | 2.6V | 00:00:00 | 00:00:00 | 00:00:00 | |
| AA1-15 | 2026-09-04 11:54:09 | 51.45091 | 8.73775 | 81° | 9km/h | 19567m | 5.1m/s | -54°C | 0.8% | 62.4hPa | 2.6V | 18:12:15 | 01:35:44 | 00:00:00 | |
| WPPR-10 | 2026-09-04 11:54:09 | 51.45091 | 8.73775 | 80° | 9km/h | 19567m | 5.1m/s | -54.0°C | 1.3% | 62.4hPa | 2.6V | 00:00:00 | 00:00:00 | 00:00:00 | |
| DJ2DS-15 | 2026-09-04 11:54:08 | 51.45091 | 8.73771 | 97° | 9km/h | 19563m | 3.9m/s | -54.0°C | 1.3% | 62.4hPa | 2.6V | 00:00:00 | 00:00:00 | 00:00:00 | |
| DF2AP-13 | 2026-09-04 11:54:07 | 51.45092 | 8.73767 | 105° | 38km/h | 19558m | 5.1m/s | -54.0°C | 4.2% | 62.4hPa | 2.6V | 00:00:00 | 01:35:42 | 00:00:00 | |
| DL1NUX | 2026-09-04 11:54:06 | 51.45082 | 8.73728 | 42° | 24km/h | 19529m | 3.7m/s | -54.2°C | 4.1% | 62.8hPa | 2.6V | 08:30:00 | 01:35:36 | 00:00:00 | |
| DL1XH-west | 2026-09-04 11:54:05 | 51.45093 | 8.73755 | 87° | 18km/h | 19548m | 3.9m/s | -54.2°C | 0.8% | 62.6hPa | 2.7V | 18:12:15 | 01:35:40 | 00:00:00 | |
| DL3AQ-11 | 2026-09-04 11:54:05 | 51.45092 | 8.73748 | 73° | 18km/h | 19544m | 5.1m/s | -54.2°C | 1.3% | 62.6hPa | 2.6V | 00:00:00 | 00:00:00 | 00:00:00 | |
| SONCRA | 2026-09-04 11:54:04 | 51.45092 | 8.73748 | 73° | 18km/h | 19544m | 5.1m/s | -54.2°C | 1.3% | 62.6hPa | 2.6V | 00:00:00 | 00:00:00 | 00:00:00 | |
| DO3DL | 2026-09-04 11:54:03 | 51.45092 | 8.73748 | 74° | 18km/h | 19544m | 5.1m/s | -54.2°C | 1.3% | 62.6hPa | 2.6V | 00:00:00 | 00:00:00 | 00:00:00 | |
| DM0DOS-11 | 2026-09-04 11:54:02 | 51.45086 | 8.73735 | 43° | 22km/h | 19533m | 4.5m/s | -54.2°C | 4.1% | 62.7hPa | 2.6V | 08:30:00 | 01:35:37 | 00:00:00 | |
| HSKMA3-T | 2026-09-04 11:54:02 | 51.45086 | 8.73735 | 43° | 22km/h | 19533m | 4.6m/s | -54.2°C | 0.7% | 62.7hPa | 2.6V | 18:12:15 | 01:35:37 | 00:00:00 | |
| BIOWL1-15 | 2026-09-04 11:54:01 | 51.45082 | 8.73728 | 42° | 24km/h | 19529m | 3.7m/s | -54.3°C | 0.8% | 62.8hPa | 2.6V | 18:12:15 | 01:35:36 | 00:00:00 | |
| DO2JMG | 2026-09-04 11:54:00 | 51.45078 | 8.73721 | 46° | 26km/h | 19525m | 5.5m/s | -54.3°C | 0.7% | 62.8hPa | 2.7V | 18:12:15 | 01:35:35 | 00:00:00 | |
| AA1-15 | 2026-09-04 11:53:59 | 51.45074 | 8.73714 | 55° | 26km/h | 19519m | 4.7m/s | -54.2°C | 0.8% | 62.8hPa | 2.7V | 18:12:15 | 01:35:34 | 00:00:00 | |
| GOEST3-10 | 2026-09-04 11:53:58 | 51.45071 | 8.73705 | 65° | 22km/h | 19515m | 4.8m/s | -54.1°C | 4.2% | 62.8hPa | 2.7V | 00:00:00 | 01:35:33 | 00:00:00 | |
| DL4XJ-10 | 2026-09-04 11:53:57 | 51.45068 | 8.73696 | 73° | 24km/h | 19510m | 5.5m/s | -54.8°C | 0% | 0hPa | 2.7V | 00:00:00 | 00:00:00 | 00:00:00 | |
| DO3DL | 2026-09-04 11:53:56 | 51.45068 | 8.73696 | 73° | 24km/h | 19510m | 5.5m/s | -54.2°C | 1.3% | 62.9hPa | 2.7V | 00:00:00 | 00:00:00 | 00:00:00 | |
| DL1XH1-15 | 2026-09-04 11:53:55 | 51.45065 | 8.73651 | 85° | 26km/h | 19485m | 4.1m/s | -53.9°C | 4.2% | 63.2hPa | 2.7V | 08:30:00 | 01:35:27 | 00:00:00 | |
| DL1XH-west | 2026-09-04 11:53:55 | 51.45066 | 8.73679 | 83° | 22km/h | 19500m | 4.1m/s | -54.1°C | 0.8% | 63hPa | 2.6V | 18:12:15 | 01:35:30 | 00:00:00 | |
| DL3AQ-11 | 2026-09-04 11:53:54 | 51.45065 | 8.73661 | 85° | 24km/h | 19490m | 5.6m/s | -54.0°C | 1.3% | 63.1hPa | 2.6V | 00:00:00 | 00:00:00 | 00:00:00 | |
| GOEST3-10 | 2026-09-04 11:53:53 | 51.45065 | 8.73660 | 86° | 22km/h | 19490m | 5.6m/s | -53.9°C | 4.2% | 63.1hPa | 2.6V | 00:00:00 | 00:00:00 | 00:00:00 | |
| DL1NUX | 2026-09-04 11:53:52 | 51.45064 | 8.73641 | 83° | 24km/h | 19481m | 4.5m/s | -53.8°C | 4.1% | 63.2hPa | 2.6V | 08:30:00 | 01:35:26 | 00:00:00 | |
| BIOWL1-15 | 2026-09-04 11:53:51 | 51.45064 | 8.73641 | 84° | 24km/h | 19481m | 4.5m/s | -53.8°C | 0.8% | 63.2hPa | 2.6V | 18:12:15 | 01:35:26 | 00:00:00 | |
| DO2JMG | 2026-09-04 11:53:50 | 51.45063 | 8.73632 | 81° | 20km/h | 19476m | 5.4m/s | -53.8°C | 0.7% | 63.3hPa | 2.6V | 18:12:15 | 01:35:25 | 00:00:00 | |
| AA1-15 | 2026-09-04 11:53:49 | 51.45062 | 8.73624 | 78° | 18km/h | 19471m | 4.3m/s | -53.7°C | 0.7% | 63.3hPa | 2.6V | 18:12:15 | 01:35:24 | 00:00:00 | |
| GOEST3-10 | 2026-09-04 11:53:48 | 51.45061 | 8.73617 | 79° | 24km/h | 19467m | 3.5m/s | -53.6°C | 3.9% | 63.3hPa | 2.7V | 00:00:00 | 01:35:23 | 08:30:00 | |
| DF8AY-15 | 2026-09-04 11:53:47 | 51.45060 | 8.73609 | 80° | 26km/h | 19463m | 5.2m/s | -53.7°C | 3.9% | 63.3hPa | 2.6V | 00:00:00 | 01:35:22 | 00:00:00 | |
| DL1NUX | 2026-09-04 11:53:46 | 51.45061 | 8.73546 | 101° | 29km/h | 19433m | 6m/s | -53.7°C | 4% | 63.7hPa | 2.6V | 08:30:00 | 01:35:16 | 00:00:00 | |
| DL1XH-west | 2026-09-04 11:53:44 | 51.45058 | 8.73579 | 90° | 27km/h | 19448m | 5.4m/s | -53.7°C | 0.7% | 63.5hPa | 2.7V | 18:12:15 | 01:35:19 | 00:00:00 | |
| DL1ZP-14 | 2026-09-04 11:53:44 | 51.45058 | 8.73579 | 89° | 26km/h | 19448m | 5.4m/s | -53.7°C | 1.2% | 63.5hPa | 2.7V | 00:00:00 | 00:00:00 | 00:00:00 | |
| BIOWL7-15 | 2026-09-04 11:53:43 | 51.45058 | 8.73579 | 91° | 27km/h | 19448m | 5.4m/s | -53.7°C | 1.2% | 63.6hPa | 2.6V | 00:00:00 | 00:00:00 | 00:00:00 | |
| DM0DOS-11 | 2026-09-04 11:53:42 | 51.45060 | 8.73558 | 98° | 27km/h | 19438m | 4.4m/s | -53.7°C | 4% | 63.6hPa | 2.6V | 08:30:00 | 01:35:17 | 00:00:00 | |
| HSKMA3-T | 2026-09-04 11:53:41 | 51.45061 | 8.73546 | 101° | 29km/h | 19433m | 6m/s | -53.7°C | 0.7% | 63.7hPa | 2.6V | 18:12:15 | 01:35:16 | 00:00:00 | |
| BIOWL1-15 | 2026-09-04 11:53:40 | 51.45062 | 8.73535 | 104° | 29km/h | 19428m | 4.4m/s | -53.8°C | 0.6% | 63.8hPa | 2.6V | 18:12:15 | 01:35:15 | 00:00:00 | |
| DB0DAN | 2026-09-04 11:53:40 | 51.45062 | 8.73535 | 103° | 27km/h | 19428m | 4.4m/s | -53.8°C | 1.2% | 63.75hPa | 2.6V | 00:00:00 | 00:00:00 | 00:00:00 | |
| DO2JMG | 2026-09-04 11:53:39 | 51.45064 | 8.73524 | 106° | 27km/h | 19424m | 4.4m/s | -53.8°C | 0.7% | 63.8hPa | 2.7V | 18:12:15 | 01:35:14 | 00:00:00 | |
| AA1-15 | 2026-09-04 11:53:38 | 51.45068 | 8.73506 | 112° | 20km/h | 19413m | 3.7m/s | -54°C | 0.7% | 63.9hPa | 2.7V | 18:12:15 | 01:35:12 | 00:00:00 | |
| DL3AQ-11 | 2026-09-04 11:53:38 | 51.45068 | 8.73506 | 111° | 18km/h | 19414m | 3.7m/s | -54.0°C | 1.2% | 63.9hPa | 2.6V | 00:00:00 | 00:00:00 | 00:00:00 | |
| DL4XJ-10 | 2026-09-04 11:53:37 | 51.45068 | 8.73506 | 112° | 33km/h | 19414m | 3.7m/s | -54.6°C | 0% | 0hPa | 2.6V | 00:00:00 | 00:00:00 | 00:00:00 | |
| DL1NUX | 2026-09-04 11:53:36 | 51.45070 | 8.73456 | 93° | 24km/h | 19386m | 4.3m/s | -54.4°C | 4.1% | 64.1hPa | 2.6V | 08:30:00 | 01:35:06 | 00:00:00 | |
| DL1XH1-15 | 2026-09-04 11:53:35 | 51.45070 | 8.73466 | 85° | 24km/h | 19390m | 5m/s | -54.4°C | 4.2% | 64.1hPa | 2.7V | 08:30:00 | 01:35:07 | 00:00:00 | |
| DL1XH-west | 2026-09-04 11:53:33 | 51.45071 | 8.73475 | 86° | 24km/h | 19395m | 4.1m/s | -54.2°C | 0.7% | 64hPa | 2.7V | 18:12:15 | 01:35:08 | 00:00:00 | |
| HSKMA3-T | 2026-09-04 11:53:30 | 51.45071 | 8.73446 | 101° | 27km/h | 19381m | 4.2m/s | -54.5°C | 0.8% | 64.2hPa | 2.6V | 18:12:15 | 01:35:05 | 00:00:00 | |
| DF8AY | 2026-09-04 11:53:29 | 51.45073 | 8.73434 | 106° | 33km/h | 19376m | 5.3m/s | -54.6°C | 0.8% | 64.2hPa | 2.7V | 18:12:15 | 01:35:04 | 00:00:00 | |
| AA1-15 | 2026-09-04 11:53:28 | 51.45075 | 8.73420 | 108° | 40km/h | 19371m | 6.7m/s | -54.6°C | 0.8% | 64.3hPa | 2.7V | 18:12:15 | 01:35:03 | 00:00:00 | |
| DO3MHA-12 | 2026-09-04 11:53:28 | 51.45075 | 8.73419 | 109° | 38km/h | 19371m | 6.6m/s | -54.5°C | 4.2% | 64.3hPa | 2.6V | 00:00:00 | 01:35:03 | 00:00:00 | |
| DO3MHA-11 | 2026-09-04 11:53:27 | 51.45079 | 8.73403 | 108° | 40km/h | 19365m | 5.5m/s | -54.5°C | 4.2% | 64.3hPa | 2.6V | 00:00:00 | 01:35:02 | 00:00:00 | |
| DL1NUX | 2026-09-04 11:53:26 | 51.45095 | 8.73308 | 92° | 35km/h | 19334m | 5.6m/s | -54.5°C | 4.3% | 64.7hPa | 2.6V | 08:30:00 | 01:34:56 | 00:00:00 | |
| DL1XH1-15 | 2026-09-04 11:53:25 | 51.45095 | 8.73322 | 99° | 35km/h | 19340m | 6.1m/s | -54.5°C | 4.2% | 64.6hPa | 2.7V | 08:30:00 | 01:34:57 | 00:00:00 | |
| DL1XH-west | 2026-09-04 11:53:22 | 51.45095 | 8.73322 | 99° | 35km/h | 19340m | 6.1m/s | -54.5°C | 0.8% | 64.6hPa | 2.7V | 18:12:15 | 01:34:57 | 00:00:00 | |
| HSKMA3-T | 2026-09-04 11:53:20 | 51.45096 | 8.73294 | 88° | 37km/h | 19329m | 4m/s | -54.4°C | 0.9% | 64.7hPa | 2.6V | 18:12:15 | 01:34:55 | 00:00:00 | |
| DF8AY | 2026-09-04 11:53:19 | 51.45095 | 8.73279 | 89° | 37km/h | 19325m | 3.2m/s | -54.5°C | 0.8% | 64.8hPa | 2.6V | 18:12:15 | 01:34:54 | 00:00:00 | |
| DO2JMG | 2026-09-04 11:53:18 | 51.45095 | 8.73265 | 92° | 37km/h | 19321m | 4.6m/s | -54.5°C | 0.8% | 64.8hPa | 2.7V | 18:12:15 | 01:34:53 | 00:00:00 | |
| AA1-15 | 2026-09-04 11:53:17 | 51.45096 | 8.73250 | 99° | 37km/h | 19317m | 4.4m/s | -54.6°C | 0.9% | 64.9hPa | 2.7V | 18:12:15 | 01:34:52 | 00:00:00 | |
| DO3MHA-11 | 2026-09-04 11:53:17 | 51.45096 | 8.73250 | 99° | 44km/h | 19317m | 4.4m/s | -54.5°C | 4.3% | 64.8hPa | 2.6V | 00:00:00 | 01:34:52 | 00:00:00 | |
| DB0NH | 2026-09-04 11:53:16 | 51.45098 | 8.73234 | 102° | 40km/h | 19313m | 3.5m/s | -54.5°C | 4.3% | 64.9hPa | 2.6V | 00:00:00 | 01:34:51 | 00:00:00 | |
| DO9LL-15 | 2026-09-04 11:53:15 | 51.45100 | 8.73219 | 103° | 40km/h | 19309m | 3.9m/s | -54.5°C | 4.3% | 64.9hPa | 2.6V | 00:00:00 | 01:34:50 | 00:00:00 | |
| DC6BW-12 | 2026-09-04 11:53:14 | 51.45100 | 8.73219 | 104° | 42km/h | 19309m | 3.9m/s | -54.5°C | 1.3% | 64.9hPa | 2.6V | 00:00:00 | 00:00:00 | 00:00:00 | |
| DL4BBY-15 | 2026-09-04 11:53:13 | 51.45104 | 8.73184 | 99° | 40km/h | 19301m | 3.4m/s | -55.1°C | 0% | 0hPa | 2.6V | 00:00:00 | 00:00:00 | 00:00:00 | |
| DL1NUX | 2026-09-04 11:53:11 | 51.45107 | 8.73147 | 97° | 44km/h | 19293m | 4.6m/s | -54.4°C | 4.2% | 65.1hPa | 2.6V | 08:30:00 | 01:34:46 | 00:00:00 | |
| DL1XH-west | 2026-09-04 11:53:11 | 51.45107 | 8.73147 | 98° | 44km/h | 19293m | 4.6m/s | -54.4°C | 0.8% | 65.1hPa | 2.6V | 18:12:15 | 01:34:46 | 00:00:00 | |
| DB0DAN | 2026-09-04 11:53:10 | 51.45109 | 8.73130 | 98° | 42km/h | 19288m | 4.5m/s | -54.4°C | 1.3% | 65.16hPa | 2.6V | 00:00:00 | 00:00:00 | 00:00:00 | |
| HSKMA3-T | 2026-09-04 11:53:09 | 51.45110 | 8.73112 | 97° | 44km/h | 19284m | 3.9m/s | -54.3°C | 0.8% | 65.2hPa | 2.7V | 18:12:15 | 01:34:44 | 00:00:00 | |
| BIOWL1-15 | 2026-09-04 11:53:08 | 51.45111 | 8.73094 | 95° | 46km/h | 19280m | 5.1m/s | -54.3°C | 0.8% | 65.2hPa | 2.7V | 18:12:15 | 01:34:43 | 00:00:00 | |
| AA1-15 | 2026-09-04 11:53:07 | 51.45112 | 8.73076 | 92° | 46km/h | 19275m | 3.9m/s | -54.3°C | 0.8% | 65.3hPa | 2.7V | 18:12:15 | 01:34:42 | 00:00:00 | |
| DL1XH-west | 2026-09-04 11:53:00 | 51.45117 | 8.72961 | 99° | 40km/h | 19245m | 4.9m/s | -54.1°C | 0.8% | 65.6hPa | 2.6V | 18:12:15 | 01:34:35 | 00:00:00 | |
| HSKMA3-T | 2026-09-04 11:52:59 | 51.45119 | 8.72946 | 100° | 38km/h | 19240m | 5.2m/s | -54°C | 0.8% | 65.7hPa | 2.7V | 18:12:15 | 01:34:34 | 00:00:00 | |
| BIOWL1-15 | 2026-09-04 11:52:57 | 51.45122 | 8.72914 | 98° | 40km/h | 19231m | 5.3m/s | -54°C | 0.8% | 65.7hPa | 2.6V | 18:12:15 | 01:34:32 | 00:00:00 | |
| DO2JMG | 2026-09-04 11:52:56 | 51.45123 | 8.72898 | 96° | 42km/h | 19226m | 4.1m/s | -53.9°C | 0.8% | 65.8hPa | 2.6V | 18:12:15 | 01:34:31 | 00:00:00 | |
| DL1XH-west | 2026-09-04 11:52:50 | 51.45128 | 8.72806 | 96° | 38km/h | 19197m | 4.6m/s | -53.8°C | 0.7% | 66.1hPa | 2.6V | 18:12:15 | 01:34:25 | 00:00:00 | |
| HSKMA3-T | 2026-09-04 11:52:48 | 51.45130 | 8.72777 | 96° | 35km/h | 19187m | 5.1m/s | -53.7°C | 0.7% | 66.2hPa | 2.7V | 18:12:15 | 01:34:23 | 00:00:00 | |
| DF8AY | 2026-09-04 11:52:47 | 51.45131 | 8.72749 | 93° | 37km/h | 19178m | 4.9m/s | -53.6°C | 0.7% | 66.3hPa | 2.6V | 18:12:15 | 01:34:21 | 00:00:00 | |
| AA1-15 | 2026-09-04 11:52:45 | 51.45131 | 8.72734 | 92° | 38km/h | 19173m | 4.7m/s | -53.6°C | 0.7% | 66.3hPa | 2.6V | 18:12:15 | 01:34:20 | 00:00:00 | |
| DL3AQ-11 | 2026-09-04 11:52:45 | 51.45132 | 8.72718 | 90° | 37km/h | 19169m | 3.9m/s | -53.6°C | 1.2% | 66.4hPa | 2.6V | 00:00:00 | 00:00:00 | 00:00:00 | |
| DD1CC1-15 | 2026-09-04 11:52:43 | 51.45132 | 8.72718 | 91° | 38km/h | 19169m | 3.9m/s | -53.6°C | 1.2% | 66.4hPa | 2.6V | 00:00:00 | 00:00:00 | 00:00:00 | |
| DM0DOS-11 | 2026-09-04 11:52:42 | 51.45131 | 8.72689 | 87° | 37km/h | 19159m | 4.7m/s | -53.5°C | 3.9% | 66.5hPa | 2.6V | 08:30:00 | 01:34:17 | 00:00:00 | |
| DL1NUX | 2026-09-04 11:52:41 | 51.45131 | 8.72674 | 87° | 37km/h | 19154m | 4.8m/s | -53.5°C | 3.9% | 66.5hPa | 2.6V | 08:30:00 | 01:34:16 | 00:00:00 | |
| DL1XH-west | 2026-09-04 11:52:40 | 51.45130 | 8.72659 | 88° | 38km/h | 19149m | 5.1m/s | -53.4°C | 0.6% | 66.6hPa | 2.6V | 18:12:15 | 01:34:15 | 00:00:00 | |
| DB0DAN | 2026-09-04 11:52:40 | 51.45130 | 8.72659 | 87° | 37km/h | 19149m | 5.1m/s | -53.4°C | 1.2% | 66.57hPa | 2.6V | 00:00:00 | 00:00:00 | 00:00:00 | |
| HSKMA3-T | 2026-09-04 11:52:37 | 51.45129 | 8.72612 | 86° | 37km/h | 19136m | 4.8m/s | -53.5°C | 0.6% | 66.7hPa | 2.7V | 18:12:15 | 01:34:12 | 00:00:00 | |
| DF8AY | 2026-09-04 11:52:36 | 51.45128 | 8.72598 | 85° | 37km/h | 19131m | 4.9m/s | -53.5°C | 0.6% | 66.8hPa | 2.6V | 18:12:15 | 01:34:11 | 00:00:00 | |
| DO2JMG | 2026-09-04 11:52:35 | 51.45127 | 8.72583 | 85° | 37km/h | 19126m | 5.5m/s | -53.7°C | 0.6% | 66.8hPa | 2.6V | 18:12:15 | 01:34:10 | 00:00:00 | |
| BIOWL1-15 | 2026-09-04 11:52:32 | 51.45125 | 8.72536 | 88° | 38km/h | 19112m | 5.7m/s | -54°C | 0.7% | 67hPa | 2.7V | 18:12:15 | 01:34:07 | 00:00:00 | |
| DL1XH-west | 2026-09-04 11:52:29 | 51.45123 | 8.72490 | 82° | 40km/h | 19097m | 5.2m/s | -54.3°C | 0.7% | 67.1hPa | 2.6V | 18:12:15 | 01:34:04 | 00:00:00 | |
| HSKMA3-T | 2026-09-04 11:52:27 | 51.45119 | 8.72457 | 76° | 40km/h | 19087m | 5.7m/s | -54.5°C | 0.8% | 67.2hPa | 2.6V | 18:12:15 | 01:34:02 | 00:00:00 | |
| DF8AY | 2026-09-04 11:52:25 | 51.45099 | 8.72363 | 76° | 40km/h | 19060m | 5.4m/s | -54.6°C | 0.8% | 67.5hPa | 2.6V | 18:12:15 | 01:33:56 | 00:00:00 | |
| DL1XH1-15 | 2026-09-04 11:52:25 | 51.45102 | 8.72379 | 72° | 42km/h | 19064m | 4m/s | -54.5°C | 4.2% | 67.5hPa | 2.6V | 08:30:00 | 01:33:57 | 00:00:00 | |
| DB0DAN | 2026-09-04 11:52:25 | 51.45113 | 8.72427 | 70° | 38km/h | 19078m | 3.8m/s | -54.5°C | 1.3% | 67.34hPa | 2.7V | 00:00:00 | 00:00:00 | 00:00:00 | |
| DO2JMG | 2026-09-04 11:52:24 | 51.45109 | 8.72411 | 69° | 42km/h | 19073m | 5.4m/s | -54.5°C | 0.8% | 67.4hPa | 2.7V | 18:12:15 | 01:33:59 | 00:00:00 | |
| BIOWL1-15 | 2026-09-04 11:52:22 | 51.45102 | 8.72379 | 73° | 42km/h | 19064m | 4m/s | -54.5°C | 0.8% | 67.5hPa | 2.6V | 18:12:15 | 01:33:57 | 00:00:00 | |
| DL1XH-west | 2026-09-04 11:52:18 | 51.45095 | 8.72316 | 84° | 42km/h | 19045m | 5.7m/s | -54.6°C | 0.9% | 67.7hPa | 2.7V | 18:12:15 | 01:33:53 | 00:00:00 | |
| HSKMA3-T | 2026-09-04 11:52:16 | 51.45092 | 8.72281 | 82° | 46km/h | 19036m | 3.7m/s | -54.6°C | 0.8% | 67.8hPa | 2.6V | 18:12:15 | 01:33:51 | 00:00:00 | |
| DF8AY | 2026-09-04 11:52:15 | 51.45090 | 8.72263 | 81° | 44km/h | 19032m | 4.7m/s | -54.7°C | 0.9% | 67.8hPa | 2.6V | 18:12:15 | 01:33:50 | 00:00:00 | |
| DO2JMG | 2026-09-04 11:52:14 | 51.45088 | 8.72246 | 81° | 42km/h | 19027m | 4.9m/s | -54.8°C | 0.8% | 67.8hPa | 2.7V | 18:12:15 | 01:33:49 | 00:00:00 | |
| AA1-15 | 2026-09-04 11:52:13 | 51.45087 | 8.72230 | 83° | 40km/h | 19023m | 4.2m/s | -54.8°C | 0.8% | 67.9hPa | 2.7V | 18:12:15 | 01:33:48 | 00:00:00 | |
| BIOWL1-15 | 2026-09-04 11:52:12 | 51.45086 | 8.72214 | 86° | 40km/h | 19018m | 4.8m/s | -54.8°C | 0.8% | 68hPa | 2.6V | 18:12:15 | 01:33:47 | 00:00:00 | |
| DL1NUX | 2026-09-04 11:52:11 | 51.45086 | 8.72197 | 89° | 42km/h | 19013m | 4.9m/s | -54.9°C | 4.2% | 68hPa | 2.6V | 08:30:00 | 01:33:46 | 00:00:00 | |
| DB0DAN | 2026-09-04 11:52:10 | 51.45086 | 8.72180 | 92° | 40km/h | 19009m | 4.4m/s | -54.9°C | 1.3% | 68.08hPa | 2.7V | 00:00:00 | 00:00:00 | 00:00:00 | |
| DL1XH-west | 2026-09-04 11:52:07 | 51.45087 | 8.72129 | 93° | 42km/h | 18994m | 4.5m/s | -54.9°C | 0.8% | 68.2hPa | 2.6V | 18:12:15 | 01:33:42 | 00:00:00 | |
| DO3MHA-11 | 2026-09-04 11:52:07 | 51.45087 | 8.72129 | 94° | 46km/h | 18994m | 4.4m/s | -54.8°C | 4.2% | 68.2hPa | 2.6V | 00:00:00 | 01:33:42 | 00:00:00 | |
| DL1NUX | 2026-09-04 11:52:06 | 51.45086 | 8.72017 | 83° | 47km/h | 18966m | 4.4m/s | -55°C | 4.3% | 68.5hPa | 2.6V | 08:30:00 | 01:33:36 | 00:00:00 | |
| HSKMA3-T | 2026-09-04 11:52:05 | 51.45088 | 8.72093 | 92° | 47km/h | 18984m | 4.1m/s | -54.9°C | 0.8% | 68.3hPa | 2.7V | 18:12:15 | 01:33:40 | 00:00:00 | |
| DO2JMG | 2026-09-04 11:52:03 | 51.45088 | 8.72055 | 88° | 47km/h | 18975m | 5.7m/s | -55°C | 0.9% | 68.4hPa | 2.7V | 18:12:15 | 01:33:38 | 00:00:00 | |
| BIOWL1-15 | 2026-09-04 11:52:02 | 51.45087 | 8.72036 | 85° | 46km/h | 18970m | 4.2m/s | -55°C | 0.9% | 68.5hPa | 2.6V | 18:12:15 | 01:33:37 | 00:00:00 | |
| DL1XH-west | 2026-09-04 11:51:56 | 51.45082 | 8.71924 | 89° | 42km/h | 18943m | 4.8m/s | -55.3°C | 0.9% | 68.8hPa | 2.6V | 18:12:15 | 01:33:31 | 00:00:00 | |
| HSKMA3-T | 2026-09-04 11:51:54 | 51.45082 | 8.71890 | 93° | 42km/h | 18934m | 5.1m/s | -55.5°C | 0.9% | 68.9hPa | 2.7V | 18:12:15 | 01:33:29 | 00:00:00 | |
| DM0DOS-11 | 2026-09-04 11:51:53 | 51.45084 | 8.71856 | 95° | 42km/h | 18925m | 4.6m/s | -55.6°C | 4.4% | 68.9hPa | 2.6V | 08:30:00 | 01:33:27 | 00:00:00 | |
| AA1-15 | 2026-09-04 11:51:52 | 51.45084 | 8.71856 | 95° | 42km/h | 18925m | 4.6m/s | -55.6°C | 0.9% | 68.9hPa | 2.6V | 18:12:15 | 01:33:27 | 00:00:00 | |
| BIOWL1-15 | 2026-09-04 11:51:51 | 51.45085 | 8.71839 | 95° | 40km/h | 18920m | 5.1m/s | -55.6°C | 1% | 69hPa | 2.6V | 18:12:15 | 01:33:26 | 00:00:00 | |
| DL1XH-west | 2026-09-04 11:51:46 | 51.45082 | 8.71752 | 77° | 49km/h | 18898m | 4.5m/s | -55.6°C | 1% | 69.3hPa | 2.6V | 18:12:15 | 01:33:21 | 00:00:00 | |
| DB0NH | 2026-09-04 11:51:46 | 51.45082 | 8.71751 | 78° | 42km/h | 18898m | 4.4m/s | -55.6°C | 4.5% | 69.2hPa | 2.6V | 00:00:00 | 01:33:21 | 00:00:00 | |
| DL1XH1-15 | 2026-09-04 11:51:45 | 51.45067 | 8.71677 | 74° | 47km/h | 18878m | 4.7m/s | -55.6°C | 4.5% | 69.5hPa | 2.6V | 08:30:00 | 01:33:17 | 00:00:00 | |
| HSKMA3-T | 2026-09-04 11:51:44 | 51.45075 | 8.71714 | 71° | 47km/h | 18888m | 4.8m/s | -55.6°C | 1% | 69.4hPa | 2.7V | 18:12:15 | 01:33:19 | 00:00:00 | |
| AA1-15 | 2026-09-04 11:51:42 | 51.45064 | 8.71658 | 78° | 47km/h | 18874m | 3.3m/s | -55.6°C | 0.9% | 69.5hPa | 2.6V | 18:12:15 | 01:33:16 | 00:00:00 | |
| DL1NUX | 2026-09-04 11:51:41 | 51.45065 | 8.71658 | 77° | 47km/h | 18874m | 3.3m/s | -55.6°C | 4.4% | 69.5hPa | 2.6V | 08:30:00 | 01:33:16 | 00:00:00 | |
| BIOWL1-15 | 2026-09-04 11:51:40 | 51.45062 | 8.71640 | 79° | 46km/h | 18870m | 4.9m/s | -55.6°C | 0.9% | 69.5hPa | 2.7V | 18:12:15 | 01:33:15 | 00:00:00 | |
| DL1XH-west | 2026-09-04 11:51:35 | 51.45055 | 8.71555 | 82° | 46km/h | 18846m | 3.7m/s | -55.5°C | 0.9% | 69.8hPa | 2.7V | 18:12:15 | 01:33:10 | 00:00:00 | |
| HSKMA3-T | 2026-09-04 11:51:33 | 51.45050 | 8.71520 | 73° | 44km/h | 18836m | 4.7m/s | -55.5°C | 1% | 69.9hPa | 2.7V | 18:12:15 | 01:33:08 | 00:00:00 | |
| DJ2KF-10 | 2026-09-04 11:51:33 | 51.45050 | 8.71520 | 74° | 38km/h | 18836m | 4.7m/s | -55.4°C | 4.4% | 69.9hPa | 2.6V | 00:00:00 | 01:33:08 | 00:00:00 | |
| DC6BW-12 | 2026-09-04 11:51:32 | 51.45050 | 8.71520 | 74° | 44km/h | 18836m | 4.7m/s | -55.5°C | 1.4% | 69.9hPa | 2.6V | 00:00:00 | 00:00:00 | 00:00:00 | |
| DL1NUX | 2026-09-04 11:51:31 | 51.45042 | 8.71486 | 69° | 46km/h | 18827m | 5.2m/s | -55.4°C | 4.4% | 70hPa | 2.6V | 08:30:00 | 01:33:06 | 00:00:00 | |
| AA1-15 | 2026-09-04 11:51:30 | 51.45039 | 8.71469 | 69° | 46km/h | 18822m | 4.3m/s | -55.4°C | 0.9% | 70.1hPa | 2.6V | 18:12:15 | 01:33:05 | 00:00:00 | |
| BIOWL1-15 | 2026-09-04 11:51:29 | 51.45030 | 8.71437 | 66° | 40km/h | 18813m | 5.6m/s | -55.4°C | 1% | 70.2hPa | 2.7V | 18:12:15 | 01:33:03 | 00:00:00 | |
| SONCRA | 2026-09-04 11:51:29 | 51.45030 | 8.71437 | 66° | 40km/h | 18813m | 5.6m/s | -55.4°C | 1.4% | 70.2hPa | 2.6V | 00:00:00 | 00:00:00 | 00:00:00 | |
| DF2AP-13 | 2026-09-04 11:51:28 | 51.45026 | 8.71423 | 65° | 35km/h | 18808m | 5.1m/s | -55.3°C | 4.4% | 70.2hPa | 2.6V | 00:00:00 | 01:33:02 | 00:00:00 | |
| DO3MHA-11 | 2026-09-04 11:51:27 | 51.45026 | 8.71423 | 65° | 38km/h | 18808m | 5.1m/s | -55.3°C | 4.4% | 70.2hPa | 2.6V | 00:00:00 | 01:33:02 | 00:00:00 | |
| DL1XH-15 | 2026-09-04 11:51:25 | 51.45009 | 8.71353 | 71° | 37km/h | 18783m | 4.7m/s | -55.4°C | 4.5% | 70.5hPa | 2.6V | 08:30:00 | 01:32:57 | 00:00:00 | |
| DB0DAN | 2026-09-04 11:51:25 | 51.45019 | 8.71396 | 69° | 37km/h | 18798m | 5m/s | -55.4°C | 1.4% | 70.38hPa | 2.7V | 00:00:00 | 00:00:00 | 00:00:00 | |
| DL1XH-west | 2026-09-04 11:51:24 | 51.45016 | 8.71381 | 71° | 38km/h | 18793m | 3.8m/s | -55.3°C | 0.9% | 70.4hPa | 2.7V | 18:12:15 | 01:32:59 | 00:00:00 | |
| DF8AY | 2026-09-04 11:51:23 | 51.45012 | 8.71367 | 71° | 37km/h | 18788m | 5.8m/s | -55.4°C | 0.9% | 70.5hPa | 2.6V | 18:12:15 | 01:32:58 | 00:00:00 | |
| DO2JMG | 2026-09-04 11:51:22 | 51.45009 | 8.71353 | 72° | 37km/h | 18783m | 4.7m/s | -55.4°C | 0.9% | 70.5hPa | 2.6V | 18:12:15 | 01:32:57 | 00:00:00 | |
| DL1NUX | 2026-09-04 11:51:21 | 51.45007 | 8.71338 | 73° | 38km/h | 18778m | 5.5m/s | -55.4°C | 4.4% | 70.6hPa | 2.6V | 08:30:00 | 01:32:56 | 00:00:00 | |
| AA1-15 | 2026-09-04 11:51:19 | 51.45001 | 8.71306 | 76° | 44km/h | 18768m | 3.8m/s | -55.3°C | 1% | 70.7hPa | 2.7V | 18:12:15 | 01:32:54 | 00:00:00 | |
| BIOWL1-15 | 2026-09-04 11:51:18 | 51.44992 | 8.71258 | 68° | 38km/h | 18754m | 4.6m/s | -55.3°C | 0.9% | 70.9hPa | 2.6V | 18:12:15 | 01:32:51 | 00:00:00 | |
| GOEST3-10 | 2026-09-04 11:51:18 | 51.44998 | 8.71289 | 75° | 40km/h | 18764m | 4.1m/s | -55.3°C | 4.4% | 70.7hPa | 2.7V | 00:00:00 | 01:32:53 | 00:00:00 | |
| DO3MHA-11 | 2026-09-04 11:51:17 | 51.44995 | 8.71273 | 72° | 37km/h | 18759m | 5.3m/s | -55.2°C | 4.4% | 70.8hPa | 2.6V | 00:00:00 | 01:32:52 | 00:00:00 | |
| DB0NH | 2026-09-04 11:51:16 | 51.44992 | 8.71258 | 68° | 33km/h | 18754m | 4.5m/s | -55.2°C | 4.4% | 70.8hPa | 2.6V | 00:00:00 | 01:32:51 | 00:00:00 | |
| DL1XH1-15 | 2026-09-04 11:51:15 | 51.44974 | 8.71204 | 56° | 35km/h | 18735m | 5.2m/s | -55.3°C | 4.4% | 71hPa | 2.7V | 08:30:00 | 01:32:47 | 00:00:00 | |
| DL1XH-west | 2026-09-04 11:51:14 | 51.44984 | 8.71230 | 63° | 38km/h | 18745m | 4.6m/s | -55.2°C | 0.9% | 70.9hPa | 2.7V | 18:12:15 | 01:32:49 | 00:00:00 | |
| DF8AY | 2026-09-04 11:51:13 | 51.44979 | 8.71216 | 60° | 37km/h | 18740m | 4.1m/s | -55.2°C | 0.9% | 71hPa | 2.7V | 18:12:15 | 01:32:48 | 00:00:00 | |
| DO2JMG | 2026-09-04 11:51:12 | 51.44974 | 8.71204 | 57° | 35km/h | 18735m | 5.2m/s | -55.3°C | 0.9% | 71hPa | 2.7V | 18:12:15 | 01:32:47 | 00:00:00 | |
| DL1NUX | 2026-09-04 11:51:11 | 51.44969 | 8.71192 | 53° | 33km/h | 18731m | 4.4m/s | -55.2°C | 4.4% | 71.1hPa | 2.6V | 08:30:00 | 01:32:46 | 00:00:00 | |
| DB0DAN | 2026-09-04 11:51:10 | 51.44964 | 8.71181 | 56° | 31km/h | 18727m | 3.7m/s | -55.2°C | 1.4% | 71.14hPa | 2.6V | 00:00:00 | 00:00:00 | 00:00:00 | |
| AA1-15 | 2026-09-04 11:51:08 | 51.44956 | 8.71157 | 69° | 35km/h | 18717m | 4.5m/s | -55.2°C | 0.9% | 71.3hPa | 2.6V | 18:12:15 | 01:32:43 | 00:00:00 | |
| BIOWL1-15 | 2026-09-04 11:51:07 | 51.44954 | 8.71144 | 76° | 37km/h | 18713m | 4.6m/s | -55.2°C | 0.9% | 71.3hPa | 2.7V | 18:12:15 | 01:32:42 | 00:00:00 | |
| DL1XH-west | 2026-09-04 11:51:03 | 51.44950 | 8.71089 | 87° | 33km/h | 18694m | 4.9m/s | -55.2°C | 0.9% | 71.5hPa | 2.6V | 18:12:15 | 01:32:38 | 00:00:00 | |
| DM0DOS-11 | 2026-09-04 11:51:02 | 51.44950 | 8.71076 | 86° | 35km/h | 18689m | 4.9m/s | -55.2°C | 4.4% | 71.6hPa | 2.6V | 08:30:00 | 01:32:37 | 00:00:00 | |
| HSKMA3-T | 2026-09-04 11:51:02 | 51.44950 | 8.71076 | 86° | 35km/h | 18689m | 4.9m/s | -55.2°C | 0.9% | 71.6hPa | 2.6V | 18:12:15 | 01:32:37 | 00:00:00 | |
| DL1NUX | 2026-09-04 11:51:01 | 51.44949 | 8.71062 | 83° | 33km/h | 18684m | 4m/s | -55.2°C | 4.4% | 71.6hPa | 2.7V | 08:30:00 | 01:32:36 | 00:00:00 | |
| DO2JMG | 2026-09-04 11:51:01 | 51.44949 | 8.71062 | 83° | 33km/h | 18684m | 4m/s | -55.2°C | 0.9% | 71.6hPa | 2.7V | 18:12:15 | 01:32:36 | 00:00:00 | |
| AA1-15 | 2026-09-04 11:50:58 | 51.44945 | 8.71029 | 75° | 26km/h | 18670m | 3.9m/s | -55.1°C | 0.9% | 71.8hPa | 2.6V | 18:12:15 | 01:32:33 | 00:00:00 | |
| BIOWL1-15 | 2026-09-04 11:50:56 | 51.44938 | 8.70983 | 81° | 31km/h | 18653m | 4.8m/s | -55.1°C | 1% | 72hPa | 2.7V | 18:12:15 | 01:32:29 | 00:00:00 | |
| DL1CLM-18 | 2026-09-04 11:50:56 | 51.44943 | 8.71018 | 74° | 27km/h | 18666m | 5.2m/s | -55.1°C | 1.4% | 71.8hPa | 2.7V | 00:00:00 | 00:00:00 | 00:00:00 | |
| DB0DAN | 2026-09-04 11:50:55 | 51.44939 | 8.70995 | 78° | 29km/h | 18657m | 3.4m/s | -55°C | 1.4% | 71.95hPa | 2.7V | 00:00:00 | 00:00:00 | 00:00:00 | |
| DL1XH-west | 2026-09-04 11:50:53 | 51.44937 | 8.70971 | 85° | 29km/h | 18648m | 5m/s | -55°C | 1% | 72hPa | 2.6V | 18:12:15 | 01:32:28 | 00:00:00 | |
| DF8AY | 2026-09-04 11:50:52 | 51.44937 | 8.70959 | 89° | 29km/h | 18642m | 5m/s | -55°C | 0.9% | 72.1hPa | 2.6V | 18:12:15 | 01:32:27 | 00:00:00 | |
| DM0DOS-11 | 2026-09-04 11:50:52 | 51.44937 | 8.70959 | 89° | 29km/h | 18642m | 5m/s | -55°C | 4.4% | 72.1hPa | 2.6V | 08:30:00 | 01:32:27 | 00:00:00 | |
| DL1NUX | 2026-09-04 11:50:51 | 51.44936 | 8.70947 | 90° | 29km/h | 18638m | 4.4m/s | -55°C | 4.3% | 72.2hPa | 2.6V | 08:30:00 | 01:32:26 | 00:00:00 | |
| HSKMA3-T | 2026-09-04 11:50:51 | 51.44937 | 8.70947 | 90° | 31km/h | 18638m | 4.4m/s | -55°C | 0.9% | 72.2hPa | 2.6V | 18:12:15 | 01:32:26 | 00:00:00 | |
| DO2JMG | 2026-09-04 11:50:50 | 51.44937 | 8.70935 | 89° | 31km/h | 18633m | 5.3m/s | -55°C | 0.9% | 72.2hPa | 2.7V | 18:12:15 | 01:32:25 | 00:00:00 | |
| AA1-15 | 2026-09-04 11:50:48 | 51.44937 | 8.70896 | 96° | 29km/h | 18619m | 4.8m/s | -54.9°C | 0.8% | 72.3hPa | 2.6V | 18:12:15 | 01:32:22 | 00:00:00 | |
| HTAHTA | 2026-09-04 11:50:47 | 51.44937 | 8.70896 | 95° | 29km/h | 18619m | 4.8m/s | -54.9°C | 1.3% | 72.3hPa | 2.6V | 00:00:00 | 00:00:00 | 00:00:00 | |
| DL1NUX | 2026-09-04 11:50:46 | 51.44938 | 8.70829 | 88° | 26km/h | 18590m | 4.3m/s | -54.9°C | 4.3% | 72.7hPa | 2.6V | 08:30:00 | 01:32:16 | 00:00:00 | |
| DL3AQ-11 | 2026-09-04 11:50:45 | 51.44939 | 8.70862 | 88° | 27km/h | 18605m | 4.3m/s | -54.8°C | 1.3% | 72.5hPa | 2.7V | 00:00:00 | 00:00:00 | 00:00:00 | |
| BIOWL1-15 | 2026-09-04 11:50:43 | 51.44938 | 8.70850 | 87° | 27km/h | 18600m | 4.3m/s | -54.9°C | 0.8% | 72.6hPa | 2.7V | 18:12:15 | 01:32:18 | 00:00:00 | |
| DM0DOS-11 | 2026-09-04 11:50:42 | 51.44938 | 8.70839 | 87° | 26km/h | 18595m | 5.7m/s | -55°C | 4.3% | 72.6hPa | 2.7V | 08:30:00 | 01:32:17 | 00:00:00 | |
| DL1XH-west | 2026-09-04 11:50:42 | 51.44938 | 8.70839 | 88° | 26km/h | 18595m | 5.7m/s | -55°C | 0.9% | 72.6hPa | 2.7V | 18:12:15 | 01:32:17 | 00:00:00 | |
| HSKMA3-T | 2026-09-04 11:50:42 | 51.44938 | 8.70829 | 89° | 26km/h | 18590m | 4.3m/s | -54.9°C | 0.9% | 72.7hPa | 2.6V | 18:12:15 | 01:32:16 | 00:00:00 | |
| DO2JMG | 2026-09-04 11:50:39 | 51.44937 | 8.70807 | 85° | 29km/h | 18581m | 5.3m/s | -55°C | 0.9% | 72.8hPa | 2.6V | 18:12:15 | 01:32:14 | 00:00:00 | |
| AA1-15 | 2026-09-04 11:50:37 | 51.44936 | 8.70782 | 87° | 33km/h | 18572m | 4m/s | -55°C | 0.8% | 72.9hPa | 2.7V | 18:12:15 | 01:32:12 | 00:00:00 | |
| DL4XJ-10 | 2026-09-04 11:50:36 | 51.44936 | 8.70768 | 91° | 38km/h | 18568m | 5.5m/s | -55.8°C | 0% | 0hPa | 2.7V | 00:00:00 | 00:00:00 | 00:00:00 | |
| DL1XH1-15 | 2026-09-04 11:50:35 | 51.44941 | 8.70713 | 100° | 38km/h | 18548m | 4.9m/s | -55.2°C | 4.3% | 73.2hPa | 2.7V | 08:30:00 | 01:32:07 | 00:00:00 | |
| BIOWL1-15 | 2026-09-04 11:50:32 | 51.44941 | 8.70713 | 101° | 38km/h | 18548m | 4.9m/s | -55.2°C | 0.9% | 73.2hPa | 2.7V | 18:12:15 | 01:32:07 | 00:00:00 | |
| DL1XH-west | 2026-09-04 11:50:31 | 51.44943 | 8.70698 | 102° | 38km/h | 18543m | 4m/s | -55.2°C | 0.9% | 73.2hPa | 2.7V | 18:12:15 | 01:32:06 | 00:00:00 | |
| DL1NUX | 2026-09-04 11:50:31 | 51.44943 | 8.70698 | 102° | 38km/h | 18543m | 4m/s | -55.2°C | 4.3% | 73.2hPa | 2.7V | 08:30:00 | 01:32:06 | 00:00:00 | |
| HSKMA3-T | 2026-09-04 11:50:30 | 51.44945 | 8.70683 | 104° | 37km/h | 18539m | 5.7m/s | -55.2°C | 0.9% | 73.3hPa | 2.6V | 18:12:15 | 01:32:05 | 00:00:00 | |
| DO2JMG | 2026-09-04 11:50:29 | 51.44948 | 8.70668 | 108° | 37km/h | 18533m | 4.8m/s | -55.2°C | 0.9% | 73.3hPa | 2.6V | 18:12:15 | 01:32:04 | 00:00:00 | |
| AA1-15 | 2026-09-04 11:50:27 | 51.44954 | 8.70640 | 108° | 38km/h | 18524m | 5.4m/s | -55.3°C | 0.9% | 73.5hPa | 2.7V | 18:12:15 | 01:32:02 | 00:00:00 | |
| SONCRA | 2026-09-04 11:50:27 | 51.44956 | 8.70625 | 105° | 38km/h | 18519m | 4.0m/s | -55.2°C | 1.4% | 73.5hPa | 2.7V | 00:00:00 | 00:00:00 | 00:00:00 | |
| DL1NUX | 2026-09-04 11:50:26 | 51.44967 | 8.70550 | 102° | 40km/h | 18495m | 5.2m/s | -55.2°C | 4.4% | 73.8hPa | 2.7V | 08:30:00 | 01:31:56 | 00:00:00 | |
| DB0DAN | 2026-09-04 11:50:25 | 51.44959 | 8.70610 | 103° | 37km/h | 18515m | 3.9m/s | -55.2°C | 1.3% | 73.57hPa | 2.7V | 00:00:00 | 00:00:00 | 00:00:00 | |
| BIOWL1-15 | 2026-09-04 11:50:22 | 51.44965 | 8.70565 | 102° | 38km/h | 18500m | 4.5m/s | -55.2°C | 0.9% | 73.7hPa | 2.6V | 18:12:15 | 01:31:57 | 00:00:00 | |
| HSKMA3-T | 2026-09-04 11:50:20 | 51.44969 | 8.70534 | 103° | 42km/h | 18490m | 4.8m/s | -55.2°C | 0.9% | 73.8hPa | 2.7V | 18:12:15 | 01:31:55 | 00:00:00 | |
| DO2JMG | 2026-09-04 11:50:19 | 51.44971 | 8.70518 | 102° | 40km/h | 18485m | 5.6m/s | -55.2°C | 1% | 73.9hPa | 2.6V | 18:12:15 | 01:31:54 | 00:00:00 | |
| AA1-15 | 2026-09-04 11:50:17 | 51.44975 | 8.70487 | 99° | 38km/h | 18475m | 4m/s | -55.2°C | 0.9% | 74hPa | 2.6V | 18:12:15 | 01:31:52 | 00:00:00 | |
| GOEST3-10 | 2026-09-04 11:50:17 | 51.44975 | 8.70487 | 100° | 37km/h | 18475m | 3.9m/s | -55.2°C | 4.4% | 73.9hPa | 2.6V | 00:00:00 | 01:31:52 | 00:00:00 | |
| DL1NUX | 2026-09-04 11:50:16 | 51.44981 | 8.70401 | 96° | 33km/h | 18449m | 3.7m/s | -55.3°C | 4.4% | 74.3hPa | 2.6V | 08:30:00 | 01:31:46 | 00:00:00 | |
| BIOWL1-15 | 2026-09-04 11:50:11 | 51.44981 | 8.70401 | 97° | 33km/h | 18449m | 3.7m/s | -55.3°C | 0.9% | 74.3hPa | 2.6V | 18:12:15 | 01:31:46 | 00:00:00 | |
| DL1XH-west | 2026-09-04 11:50:10 | 51.44982 | 8.70388 | 99° | 35km/h | 18444m | 5.1m/s | -55.3°C | 0.9% | 74.4hPa | 2.7V | 18:12:15 | 01:31:45 | 00:00:00 | |
| HSKMA3-T | 2026-09-04 11:50:09 | 51.44983 | 8.70373 | 99° | 38km/h | 18440m | 3.8m/s | -55.3°C | 0.9% | 74.4hPa | 2.7V | 18:12:15 | 01:31:44 | 00:00:00 | |
| DO2JMG | 2026-09-04 11:50:08 | 51.44985 | 8.70357 | 96° | 40km/h | 18436m | 4m/s | -55.3°C | 0.9% | 74.5hPa | 2.7V | 18:12:15 | 01:31:43 | 00:00:00 | |
| AA1-15 | 2026-09-04 11:50:06 | 51.44985 | 8.70325 | 88° | 40km/h | 18426m | 4.8m/s | -55.4°C | 1% | 74.6hPa | 2.6V | 18:12:15 | 01:31:41 | 00:00:00 | |
| DO3MHA-11 | 2026-09-04 11:50:06 | 51.44985 | 8.70325 | 89° | 42km/h | 18427m | 4.7m/s | -55.3°C | 4.4% | 74.5hPa | 2.6V | 00:00:00 | 01:31:41 | 00:00:00 | |
| DO3MHA-12 | 2026-09-04 11:50:04 | 51.44984 | 8.70290 | 88° | 42km/h | 18417m | 5.4m/s | -55.3°C | 4.5% | 74.7hPa | 2.6V | 00:00:00 | 01:31:39 | 00:00:00 | |
| DL3OBA | 2026-09-04 11:50:03 | 51.44984 | 8.70290 | 88° | 44km/h | 18417m | 5.4m/s | -55.3°C | 1.4% | 74.7hPa | 2.6V | 00:00:00 | 00:00:00 | 00:00:00 | |
| DM0DOS-11 | 2026-09-04 11:50:02 | 51.44983 | 8.70254 | 85° | 44km/h | 18408m | 4.6m/s | -55.3°C | 4.4% | 74.8hPa | 2.6V | 08:30:00 | 01:31:37 | 00:00:00 | |
| BIOWL1-15 | 2026-09-04 11:50:00 | 51.44980 | 8.70221 | 80° | 40km/h | 18398m | 4.4m/s | -55.2°C | 0.9% | 74.9hPa | 2.6V | 18:12:15 | 01:31:35 | 00:00:00 | |
| DL1XH-west | 2026-09-04 11:49:59 | 51.44978 | 8.70205 | 80° | 40km/h | 18393m | 4.3m/s | -55.2°C | 1% | 75hPa | 2.7V | 18:12:15 | 01:31:34 | 00:00:00 | |
| DO2JMG | 2026-09-04 11:49:58 | 51.44977 | 8.70189 | 82° | 40km/h | 18389m | 5.2m/s | -55.2°C | 1% | 75hPa | 2.7V | 18:12:15 | 01:31:33 | 00:00:00 | |
| AA1-15 | 2026-09-04 11:49:56 | 51.44974 | 8.70155 | 82° | 42km/h | 18380m | 4.5m/s | -55.1°C | 1% | 75.1hPa | 2.6V | 18:12:15 | 01:31:31 | 00:00:00 | |
| DL1XH1-15 | 2026-09-04 11:49:55 | 51.44966 | 8.70085 | 80° | 46km/h | 18360m | 4.6m/s | -55°C | 4.4% | 75.3hPa | 2.7V | 08:30:00 | 01:31:27 | 00:00:00 | |
| DB0DAN | 2026-09-04 11:49:55 | 51.44972 | 8.70138 | 80° | 42km/h | 18375m | 5.4m/s | -55.1°C | 1.4% | 75.19hPa | 2.6V | 00:00:00 | 00:00:00 | 00:00:00 | |
| BIOWL1-15 | 2026-09-04 11:49:50 | 51.44962 | 8.70049 | 76° | 44km/h | 18351m | 5.3m/s | -54.9°C | 1% | 75.4hPa | 2.6V | 18:12:15 | 01:31:25 | 00:00:00 | |
| HSKMA3-T | 2026-09-04 11:49:49 | 51.44959 | 8.70033 | 73° | 40km/h | 18347m | 4.7m/s | -54.9°C | 0.9% | 75.5hPa | 2.6V | 18:12:15 | 01:31:24 | 00:00:00 | |
| DL1XH-west | 2026-09-04 11:49:48 | 51.44956 | 8.70018 | 73° | 38km/h | 18342m | 4.6m/s | -54.9°C | 0.9% | 75.6hPa | 2.6V | 18:12:15 | 01:31:23 | 00:00:00 | |
| DO2JMG | 2026-09-04 11:49:47 | 51.44953 | 8.70003 | 74° | 37km/h | 18337m | 4.4m/s | -54.9°C | 0.9% | 75.6hPa | 2.7V | 18:12:15 | 01:31:22 | 00:00:00 | |
| AA1-15 | 2026-09-04 11:49:45 | 51.44947 | 8.69975 | 67° | 37km/h | 18329m | 5.5m/s | -54.9°C | 0.9% | 75.7hPa | 2.6V | 18:12:15 | 01:31:20 | 00:00:00 | |
| BIOWL1-15 | 2026-09-04 11:49:41 | 51.44926 | 8.69882 | 72° | 47km/h | 18300m | 5.9m/s | -54.9°C | 0.9% | 76.1hPa | 2.6V | 18:12:15 | 01:31:14 | 00:00:00 | |
| DB0DAN | 2026-09-04 11:49:40 | 51.44929 | 8.69900 | 74° | 44km/h | 18306m | 4.4m/s | -54.9°C | 1.4% | 76hPa | 2.7V | 00:00:00 | 00:00:00 | 00:00:00 | |
| HSKMA3-T | 2026-09-04 11:49:38 | 51.44922 | 8.69863 | 70° | 49km/h | 18295m | 4.3m/s | -55°C | 0.9% | 76.1hPa | 2.6V | 18:12:15 | 01:31:13 | 00:00:00 | |
| DO2JMG | 2026-09-04 11:49:37 | 51.44918 | 8.69845 | 71° | 49km/h | 18291m | 4.6m/s | -54.9°C | 0.9% | 76.2hPa | 2.6V | 18:12:15 | 01:31:12 | 00:00:00 | |
| GOEST3-10 | 2026-09-04 11:49:37 | 51.44918 | 8.69845 | 71° | 46km/h | 18291m | 4.5m/s | -54.9°C | 4.3% | 76.1hPa | 2.6V | 00:00:00 | 01:31:12 | 00:00:00 | |
| DL1NUX | 2026-09-04 11:49:36 | 51.44894 | 8.69744 | 69° | 40km/h | 18263m | 5.3m/s | -55°C | 4.3% | 76.5hPa | 2.6V | 08:30:00 | 01:31:06 | 00:00:00 | |
| AA1-15 | 2026-09-04 11:49:35 | 51.44910 | 8.69808 | 72° | 46km/h | 18282m | 4m/s | -55°C | 0.9% | 76.3hPa | 2.7V | 18:12:15 | 01:31:10 | 00:00:00 | |
| HSKMA3-T | 2026-09-04 11:49:28 | 51.44884 | 8.69697 | 69° | 44km/h | 18250m | 4.9m/s | -55°C | 0.9% | 76.7hPa | 2.6V | 18:12:15 | 01:31:03 | 00:00:00 | |
| DL1XH-west | 2026-09-04 11:49:27 | 51.44880 | 8.69680 | 70° | 44km/h | 18245m | 3.8m/s | -55°C | 0.9% | 76.7hPa | 2.6V | 18:12:15 | 01:31:02 | 00:00:00 | |
| DO2JMG | 2026-09-04 11:49:26 | 51.44876 | 8.69664 | 73° | 44km/h | 18241m | 5.1m/s | -54.9°C | 0.9% | 76.8hPa | 2.7V | 18:12:15 | 01:31:01 | 00:00:00 | |
| AA1-15 | 2026-09-04 11:49:25 | 51.44873 | 8.69647 | 76° | 42km/h | 18236m | 4.8m/s | -54.9°C | 1% | 76.8hPa | 2.7V | 18:12:15 | 01:31:00 | 00:00:00 | |
| DB0DAN | 2026-09-04 11:49:25 | 51.44873 | 8.69647 | 76° | 40km/h | 18236m | 4.8m/s | -54.9°C | 1.4% | 76.84hPa | 2.7V | 00:00:00 | 00:00:00 | 00:00:00 | |
| HSKMA3-T | 2026-09-04 11:49:18 | 51.44856 | 8.69537 | 78° | 40km/h | 18204m | 4.1m/s | -55°C | 0.9% | 77.2hPa | 2.6V | 18:12:15 | 01:30:53 | 00:00:00 | |
| DL1XH-west | 2026-09-04 11:49:17 | 51.44853 | 8.69521 | 75° | 42km/h | 18199m | 5.4m/s | -55°C | 0.9% | 77.3hPa | 2.6V | 18:12:15 | 01:30:52 | 00:00:00 | |
| DO2JMG | 2026-09-04 11:49:16 | 51.44850 | 8.69504 | 74° | 42km/h | 18194m | 4.4m/s | -55.1°C | 0.8% | 77.3hPa | 2.6V | 18:12:15 | 01:30:51 | 00:00:00 | |
| DL4XJ-10 | 2026-09-04 11:49:16 | 51.44850 | 8.69504 | 75° | 44km/h | 18194m | 4.4m/s | -55.7°C | 0% | 0hPa | 2.6V | 00:00:00 | 00:00:00 | 00:00:00 | |
| DL1XH1-15 | 2026-09-04 11:49:15 | 51.44841 | 8.69441 | 75° | 38km/h | 18176m | 5.3m/s | -55.5°C | 4.3% | 77.5hPa | 2.6V | 08:30:00 | 01:30:47 | 00:00:00 | |
| AA1-15 | 2026-09-04 11:49:14 | 51.44845 | 8.69472 | 77° | 40km/h | 18185m | 4.7m/s | -55.2°C | 0.9% | 77.5hPa | 2.7V | 18:12:15 | 01:30:49 | 00:00:00 | |
| BIOWL1-15 | 2026-09-04 11:49:08 | 51.44835 | 8.69379 | 91° | 40km/h | 18158m | 4.2m/s | -55.8°C | 1.1% | 77.8hPa | 2.6V | 18:12:15 | 01:30:43 | 00:00:00 | |
| DL1XH-west | 2026-09-04 11:49:06 | 51.44836 | 8.69345 | 90° | 44km/h | 18148m | 4.9m/s | -55.8°C | 1.1% | 77.9hPa | 2.7V | 18:12:15 | 01:30:41 | 00:00:00 | |
| DO2JMG | 2026-09-04 11:49:05 | 51.44836 | 8.69327 | 90° | 46km/h | 18143m | 4.2m/s | -55.8°C | 1.1% | 77.9hPa | 2.7V | 18:12:15 | 01:30:40 | 00:00:00 | |
| AA1-15 | 2026-09-04 11:49:04 | 51.44836 | 8.69308 | 91° | 46km/h | 18139m | 5m/s | -55.8°C | 1.1% | 78hPa | 2.7V | 18:12:15 | 01:30:39 | 00:00:00 | |
| BIOWL1-15 | 2026-09-04 11:48:59 | 51.44830 | 8.69174 | 87° | 47km/h | 18108m | 4.4m/s | -55.7°C | 1.1% | 78.4hPa | 2.6V | 18:12:15 | 01:30:32 | 00:00:00 | |
| HSKMA3-T | 2026-09-04 11:48:58 | 51.44831 | 8.69193 | 87° | 47km/h | 18112m | 4.2m/s | -55.7°C | 1.1% | 78.4hPa | 2.7V | 18:12:15 | 01:30:33 | 00:00:00 | |
| DL1XH-west | 2026-09-04 11:48:55 | 51.44828 | 8.69134 | 85° | 49km/h | 18098m | 4.2m/s | -55.6°C | 1% | 78.5hPa | 2.6V | 18:12:15 | 01:30:30 | 00:00:00 | |
| AA1-15 | 2026-09-04 11:48:54 | 51.44827 | 8.69114 | 85° | 49km/h | 18093m | 4.4m/s | -55.6°C | 1% | 78.6hPa | 2.6V | 18:12:15 | 01:30:29 | 00:00:00 | |
| HSKMA3-T | 2026-09-04 11:48:47 | 51.44807 | 8.68990 | 68° | 47km/h | 18060m | 4.1m/s | -55.4°C | 1.1% | 79hPa | 2.7V | 18:12:15 | 01:30:22 | 00:00:00 | |
| BIOWL1-15 | 2026-09-04 11:48:46 | 51.44803 | 8.68971 | 69° | 51km/h | 18056m | 3.5m/s | -55.4°C | 1.1% | 79hPa | 2.7V | 18:12:15 | 01:30:21 | 00:00:00 | |
| DO2JMG | 2026-09-04 11:48:45 | 51.44798 | 8.68952 | 71° | 53km/h | 18051m | 5.4m/s | -55.4°C | 1% | 79.1hPa | 2.7V | 18:12:15 | 01:30:20 | 00:00:00 | |
| AA1-15 | 2026-09-04 11:48:45 | 51.44794 | 8.68931 | 74° | 55km/h | 18047m | 4.2m/s | -55.4°C | 1% | 79.2hPa | 2.6V | 18:12:15 | 01:30:19 | 00:00:00 | |
| DJ2DS-15 | 2026-09-04 11:48:44 | 51.44790 | 8.68909 | 77° | 53km/h | 18043m | 3.7m/s | -55.4°C | 1.5% | 79.2hPa | 2.7V | 00:00:00 | 00:00:00 | 00:00:00 | |
| DL4BBY-15 | 2026-09-04 11:48:43 | 51.44790 | 8.68909 | 78° | 53km/h | 18043m | 3.7m/s | -56.1°C | 0% | 0hPa | 2.7V | 00:00:00 | 00:00:00 | 00:00:00 | |
| DB0DAN | 2026-09-04 11:48:40 | 51.44784 | 8.68848 | 84° | 46km/h | 18029m | 4.1m/s | -55.7°C | 1.5% | 79.37hPa | 2.7V | 00:00:00 | 00:00:00 | 00:00:00 | |
| DO3MHA-12 | 2026-09-04 11:48:39 | 51.44783 | 8.68829 | 83° | 57km/h | 18024m | 4.9m/s | -55.7°C | 4.5% | 79.4hPa | 2.7V | 00:00:00 | 01:30:14 | 00:00:00 | |
| DF7PN | 2026-09-04 11:48:38 | 51.44779 | 8.68790 | 77° | 51km/h | 18015m | 4.1m/s | -55.8°C | 1.5% | 79.6hPa | 2.7V | 00:00:00 | 00:00:00 | 00:00:00 | |
| DO1YAY-16 | 2026-09-04 11:48:37 | 51.44776 | 8.68769 | 76° | 51km/h | 18011m | 4.7m/s | -55.8°C | 1.5% | 79.6hPa | 2.7V | 00:00:00 | 00:00:00 | 00:00:00 | |
| DL4XJ-10 | 2026-09-04 11:48:36 | 51.44776 | 8.68769 | 77° | 55km/h | 18011m | 4.7m/s | -56.5°C | 0% | 0hPa | 2.7V | 00:00:00 | 00:00:00 | 00:00:00 | |
| HSKMA3-T | 2026-09-04 11:48:36 | 51.44776 | 8.68769 | 77° | 53km/h | 18011m | 4.7m/s | -55.8°C | 1.1% | 79.6hPa | 2.7V | 18:12:15 | 01:30:11 | 00:00:00 | |
| DL1XH-15 | 2026-09-04 11:48:35 | 51.44758 | 8.68680 | 65° | 66km/h | 17992m | 4.2m/s | -56°C | 4.6% | 79.8hPa | 2.7V | 08:30:00 | 01:30:07 | 00:00:00 | |
| DL1XH-west | 2026-09-04 11:48:35 | 51.44773 | 8.68748 | 75° | 55km/h | 18006m | 4m/s | -55.9°C | 1.1% | 79.7hPa | 2.6V | 18:12:15 | 01:30:10 | 00:00:00 | |
| DO2JMG | 2026-09-04 11:48:34 | 51.44769 | 8.68727 | 72° | 58km/h | 18002m | 4.2m/s | -56°C | 1.1% | 79.7hPa | 2.6V | 18:12:15 | 01:30:09 | 00:00:00 | |
| AA1-15 | 2026-09-04 11:48:33 | 51.44764 | 8.68704 | 69° | 62km/h | 17997m | 5.9m/s | -56.1°C | 1.1% | 79.8hPa | 2.6V | 18:12:15 | 01:30:08 | 00:00:00 | |
| DJ2KF-10 | 2026-09-04 11:48:33 | 51.44764 | 8.68704 | 70° | 51km/h | 17997m | 5.8m/s | -56.0°C | 4.6% | 79.7hPa | 2.7V | 00:00:00 | 01:30:08 | 00:00:00 | |
| DJ2DS-15 | 2026-09-04 11:48:32 | 51.44758 | 8.68680 | 66° | 53km/h | 17992m | 4.2m/s | -55.9°C | 4.6% | 79.8hPa | 2.7V | 00:00:00 | 01:30:07 | 00:00:00 | |
| GOEST3-10 | 2026-09-04 11:48:31 | 51.44751 | 8.68656 | 64° | 58km/h | 17988m | 3.8m/s | -55.9°C | 4.5% | 79.9hPa | 2.7V | 00:00:00 | 00:00:00 | 08:30:00 | |
| DD8BA-10 | 2026-09-04 11:48:30 | 51.44743 | 8.68634 | 64° | 53km/h | 17984m | 4.7m/s | -56.0°C | 4.6% | 79.9hPa | 2.6V | 00:00:00 | 00:00:00 | 00:00:00 | |
| DO3MHA-12 | 2026-09-04 11:48:29 | 51.44737 | 8.68612 | 66° | 51km/h | 17979m | 4.2m/s | -56.1°C | 4.6% | 79.9hPa | 2.6V | 00:00:00 | 01:30:04 | 00:00:00 | |
| DF2AP-13 | 2026-09-04 11:48:27 | 51.44727 | 8.68569 | 73° | 46km/h | 17971m | 5.0m/s | -56.1°C | 4.6% | 80.1hPa | 2.6V | 00:00:00 | 01:30:02 | 08:30:00 | |
| DL1NUX | 2026-09-04 11:48:26 | 51.44701 | 8.68454 | 63° | 51km/h | 17943m | 4.8m/s | -55.9°C | 4.4% | 80.5hPa | 2.7V | 08:30:00 | 01:29:56 | 00:00:00 | |
| HSKMA3-T | 2026-09-04 11:48:26 | 51.44723 | 8.68549 | 74° | 53km/h | 17966m | 4.3m/s | -56.1°C | 1.1% | 80.2hPa | 2.7V | 18:12:15 | 01:30:01 | 00:00:00 | |
| BIOWL1-15 | 2026-09-04 11:48:25 | 51.44707 | 8.68473 | 65° | 49km/h | 17948m | 4.8m/s | -56°C | 1% | 80.4hPa | 2.7V | 18:12:15 | 01:29:57 | 00:00:00 | |
| DF8AY | 2026-09-04 11:48:25 | 51.44719 | 8.68528 | 75° | 51km/h | 17962m | 4.4m/s | -56.1°C | 1.1% | 80.2hPa | 2.7V | 18:12:15 | 01:30:00 | 00:00:00 | |
| DL1XH-15 | 2026-09-04 11:48:25 | 51.44707 | 8.68473 | 65° | 49km/h | 17948m | 4.8m/s | -56°C | 4.4% | 80.4hPa | 2.7V | 08:30:00 | 01:29:57 | 00:00:00 | |
| DB0DAN | 2026-09-04 11:48:25 | 51.44719 | 8.68528 | 74° | 49km/h | 17962m | 4.4m/s | -56.1°C | 1.5% | 80.22hPa | 2.7V | 00:00:00 | 00:00:00 | 00:00:00 | |
| DL1XH-west | 2026-09-04 11:48:24 | 51.44716 | 8.68509 | 72° | 49km/h | 17957m | 5.4m/s | -56°C | 1.1% | 80.3hPa | 2.6V | 18:12:15 | 01:29:59 | 00:00:00 | |
| DO2JMG | 2026-09-04 11:48:23 | 51.44712 | 8.68491 | 69° | 47km/h | 17952m | 3.9m/s | -56°C | 1.1% | 80.3hPa | 2.6V | 18:12:15 | 01:29:58 | 00:00:00 | |
| DL8OAI-8 | 2026-09-04 11:48:22 | 51.44712 | 8.68491 | 70° | 47km/h | 17952m | 3.9m/s | -56.0°C | 1.5% | 80.4hPa | 2.7V | 00:00:00 | 00:00:00 | 00:00:00 | |
| SO1NDE-10 | 2026-09-04 11:48:21 | 51.44701 | 8.68454 | 64° | 44km/h | 17943m | 4.7m/s | -55.9°C | 4.4% | 80.4hPa | 2.7V | 00:00:00 | 01:29:56 | 00:00:00 | |
| DD8BA-10 | 2026-09-04 11:48:20 | 51.44695 | 8.68436 | 62° | 47km/h | 17939m | 3.6m/s | -55.9°C | 4.4% | 80.5hPa | 2.7V | 00:00:00 | 00:00:00 | 00:00:00 | |
| DD1CC8 | 2026-09-04 11:48:19 | 51.44682 | 8.68401 | 55° | 49km/h | 17929m | 4.9m/s | -55.9°C | 1.5% | 80.7hPa | 2.7V | 00:00:00 | 00:00:00 | 00:00:00 | |
| DL3AQ-11 | 2026-09-04 11:48:18 | 51.44675 | 8.68384 | 56° | 47km/h | 17925m | 3.7m/s | -56.0°C | 1.5% | 80.7hPa | 2.7V | 00:00:00 | 00:00:00 | 00:00:00 | |
| DL1NUX | 2026-09-04 11:48:16 | 51.44642 | 8.68287 | 64° | 46km/h | 17898m | 5.6m/s | -56.3°C | 4.6% | 81.1hPa | 2.7V | 08:30:00 | 01:29:46 | 00:00:00 | |
| DF8AY | 2026-09-04 11:48:15 | 51.44657 | 8.68335 | 64° | 46km/h | 17911m | 4.5m/s | -56°C | 1.1% | 80.9hPa | 2.6V | 18:12:15 | 01:29:49 | 00:00:00 | |
| DL1XH-15 | 2026-09-04 11:48:15 | 51.44647 | 8.68303 | 63° | 44km/h | 17902m | 3.9m/s | -56.1°C | 4.5% | 81hPa | 2.6V | 08:30:00 | 01:29:47 | 00:00:00 | |
| HSKMA3-T | 2026-09-04 11:48:15 | 51.44662 | 8.68351 | 62° | 47km/h | 17916m | 4.5m/s | -55.9°C | 1% | 80.8hPa | 2.7V | 18:12:15 | 01:29:50 | 00:00:00 | |
| DL1XH-west | 2026-09-04 11:48:14 | 51.44652 | 8.68319 | 63° | 44km/h | 17907m | 4.7m/s | -56.1°C | 1% | 81hPa | 2.6V | 18:12:15 | 01:29:48 | 00:00:00 | |
| BIOWL1-15 | 2026-09-04 11:48:12 | 51.44647 | 8.68303 | 64° | 44km/h | 17902m | 3.9m/s | -56.1°C | 1% | 81hPa | 2.6V | 18:12:15 | 01:29:47 | 00:00:00 | |
| HTAHTA | 2026-09-04 11:48:12 | 51.44642 | 8.68287 | 64° | 44km/h | 17898m | 5.6m/s | -56.3°C | 1.5% | 81.1hPa | 2.6V | 00:00:00 | 00:00:00 | 00:00:00 | |
| GOEST3-10 | 2026-09-04 11:48:11 | 51.44642 | 8.68286 | 65° | 46km/h | 17898m | 5.6m/s | -56.3°C | 4.6% | 81.0hPa | 2.6V | 00:00:00 | 00:00:00 | 00:00:00 | |
| DB0ND-19 | 2026-09-04 11:48:10 | 51.44632 | 8.68253 | 61° | 46km/h | 17888m | 4.5m/s | -56.4°C | 1.5% | 81.2hPa | 2.6V | 00:00:00 | 00:00:00 | 00:00:00 | |
| DO3MHA-12 | 2026-09-04 11:48:09 | 51.44632 | 8.68253 | 62° | 44km/h | 17889m | 4.4m/s | -56.4°C | 4.6% | 81.1hPa | 2.6V | 00:00:00 | 01:29:44 | 00:00:00 | |
| DF7PN | 2026-09-04 11:48:07 | 51.44613 | 8.68206 | 57° | 46km/h | 17874m | 5.4m/s | -56.8°C | 1.5% | 81.3hPa | 2.6V | 00:00:00 | 00:00:00 | 00:00:00 | |
| DL1NUX | 2026-09-04 11:48:06 | 51.44586 | 8.68130 | 65° | 40km/h | 17852m | 5.4m/s | -56.9°C | 4.8% | 81.6hPa | 2.6V | 08:30:00 | 01:29:36 | 00:00:00 | |
| HSKMA3-T | 2026-09-04 11:48:04 | 51.44601 | 8.68173 | 59° | 46km/h | 17865m | 4.3m/s | -56.9°C | 1.2% | 81.5hPa | 2.7V | 18:12:15 | 01:29:39 | 00:00:00 | |
| DF8AY | 2026-09-04 11:48:03 | 51.44595 | 8.68158 | 59° | 42km/h | 17860m | 5m/s | -56.9°C | 1.3% | 81.5hPa | 2.6V | 18:12:15 | 01:29:38 | 00:00:00 | |
| DM0DOS-11 | 2026-09-04 11:48:02 | 51.44590 | 8.68144 | 61° | 40km/h | 17856m | 3.2m/s | -56.9°C | 4.8% | 81.6hPa | 2.6V | 08:30:00 | 01:29:37 | 00:00:00 | |
| DL1XH-west | 2026-09-04 11:48:02 | 51.44590 | 8.68144 | 62° | 40km/h | 17856m | 3.2m/s | -57°C | 1.2% | 81.6hPa | 2.6V | 18:12:15 | 01:29:37 | 00:00:00 | |
| DL8OAI-8 | 2026-09-04 11:48:01 | 51.44590 | 8.68144 | 63° | 40km/h | 17856m | 3.2m/s | -56.9°C | 1.6% | 81.6hPa | 2.6V | 00:00:00 | 00:00:00 | 00:00:00 | |
| EDDB2-11 | 2026-09-04 11:47:59 | 51.44575 | 8.68085 | 68° | 38km/h | 17838m | 5.4m/s | -57.0°C | 1.6% | 81.8hPa | 2.6V | 00:00:00 | 00:00:00 | 00:00:00 | |
| DL3OBA | 2026-09-04 11:47:58 | 51.44579 | 8.68100 | 71° | 40km/h | 17843m | 3.6m/s | -57.0°C | 1.6% | 81.8hPa | 2.6V | 00:00:00 | 00:00:00 | 00:00:00 | |
| DF2AP-13 | 2026-09-04 11:47:57 | 51.44571 | 8.68071 | 67° | 35km/h | 17833m | 4.7m/s | -56.9°C | 4.8% | 81.8hPa | 2.6V | 00:00:00 | 01:29:32 | 00:00:00 | |
| DL4XJ-10 | 2026-09-04 11:47:56 | 51.44567 | 8.68057 | 65° | 31km/h | 17829m | 3.3m/s | -57.6°C | 0% | 0hPa | 2.6V | 00:00:00 | 00:00:00 | 00:00:00 | |
| DO3MHA-11 | 2026-09-04 11:47:55 | 51.44564 | 8.68044 | 66° | 35km/h | 17825m | 5.1m/s | -57.0°C | 4.8% | 81.9hPa | 2.6V | 00:00:00 | 01:29:30 | 08:30:00 | |
| DL1NUX | 2026-09-04 11:47:54 | 51.44548 | 8.67988 | 61° | 37km/h | 17807m | 4.2m/s | -57.1°C | 4.8% | 82.2hPa | 2.6V | 08:30:00 | 01:29:26 | 00:00:00 | |
| HSKMA3-T | 2026-09-04 11:47:54 | 51.44560 | 8.68030 | 67° | 38km/h | 17820m | 4.6m/s | -57°C | 1.2% | 82hPa | 2.7V | 18:12:15 | 01:29:29 | 00:00:00 | |
| AA1-15 | 2026-09-04 11:47:51 | 51.44548 | 8.67988 | 61° | 37km/h | 17807m | 4.2m/s | -57.1°C | 1.2% | 82.2hPa | 2.6V | 18:12:15 | 01:29:26 | 00:00:00 | |
| DL9SK-14 | 2026-09-04 11:47:50 | 51.44543 | 8.67976 | 62° | 35km/h | 17803m | 3.1m/s | -57.2°C | 1.6% | 82.3hPa | 2.6V | 00:00:00 | 00:00:00 | 00:00:00 | |
| EDDB2-12 | 2026-09-04 11:47:48 | 51.44537 | 8.67950 | 73° | 33km/h | 17795m | 4.8m/s | -57.2°C | 1.6% | 82.4hPa | 2.6V | 00:00:00 | 00:00:00 | 00:00:00 | |
| DO2KSM | 2026-09-04 11:47:47 | 51.44537 | 8.67950 | 75° | 33km/h | 17795m | 4.8m/s | -57.2°C | 1.6% | 82.4hPa | 2.6V | 00:00:00 | 00:00:00 | 00:00:00 | |
| DB0NH | 2026-09-04 11:47:46 | 51.44534 | 8.67925 | 84° | 33km/h | 17787m | 3.8m/s | -57.1°C | 4.8% | 82.4hPa | 2.6V | 00:00:00 | 01:29:21 | 00:00:00 | |
| DO9LL-15 | 2026-09-04 11:47:45 | 51.44533 | 8.67914 | 85° | 31km/h | 17782m | 5.3m/s | -57.1°C | 4.9% | 82.5hPa | 2.6V | 00:00:00 | 01:29:20 | 00:00:00 | |
| DL1XH-15 | 2026-09-04 11:47:44 | 51.44531 | 8.67887 | 84° | 22km/h | 17768m | 5m/s | -57.1°C | 4.9% | 82.7hPa | 2.6V | 08:30:00 | 01:29:17 | 00:00:00 | |
| HSKMA3-T | 2026-09-04 11:47:44 | 51.44533 | 8.67905 | 82° | 22km/h | 17777m | 4.3m/s | -57.1°C | 1.2% | 82.6hPa | 2.7V | 18:12:15 | 01:29:19 | 00:00:00 | |
| DL1XH-west | 2026-09-04 11:47:41 | 51.44531 | 8.67878 | 86° | 24km/h | 17764m | 4.3m/s | -57°C | 1.3% | 82.8hPa | 2.6V | 18:12:15 | 01:29:16 | 00:00:00 | |
| AA1-15 | 2026-09-04 11:47:40 | 51.44530 | 8.67869 | 81° | 26km/h | 17760m | 3.9m/s | -57°C | 1.3% | 82.9hPa | 2.6V | 18:12:15 | 01:29:15 | 00:00:00 | |
| DB0DAN | 2026-09-04 11:47:40 | 51.44530 | 8.67869 | 81° | 24km/h | 17760m | 3.9m/s | -57°C | 1.6% | 82.86hPa | 2.6V | 00:00:00 | 00:00:00 | 00:00:00 | |
| DO2JMG | 2026-09-04 11:47:36 | 51.44524 | 8.67822 | 82° | 35km/h | 17741m | 4.9m/s | -56.9°C | 1.2% | 83.1hPa | 2.6V | 18:12:15 | 01:29:11 | 00:00:00 | |
| DF7PN | 2026-09-04 11:47:36 | 51.44523 | 8.67807 | 81° | 35km/h | 17737m | 4.6m/s | -56.9°C | 1.6% | 83.1hPa | 2.7V | 00:00:00 | 00:00:00 | 00:00:00 | |
| DO1YAY-16 | 2026-09-04 11:47:35 | 51.44523 | 8.67807 | 81° | 35km/h | 17737m | 4.6m/s | -56.9°C | 1.6% | 83.1hPa | 2.7V | 00:00:00 | 00:00:00 | 00:00:00 | |
| DL1XH-15 | 2026-09-04 11:47:34 | 51.44519 | 8.67765 | 82° | 35km/h | 17724m | 4.7m/s | -56.8°C | 4.8% | 83.3hPa | 2.7V | 08:30:00 | 01:29:07 | 00:00:00 | |
| DJ2KF-10 | 2026-09-04 11:47:33 | 51.44520 | 8.67779 | 81° | 37km/h | 17728m | 3.1m/s | -56.7°C | 4.8% | 83.2hPa | 2.7V | 00:00:00 | 01:29:08 | 00:00:00 | |
| HSKMA3-T | 2026-09-04 11:47:33 | 51.44520 | 8.67779 | 80° | 35km/h | 17728m | 3.2m/s | -56.8°C | 1.2% | 83.3hPa | 2.7V | 18:12:15 | 01:29:08 | 00:00:00 | |
| DL1NUX | 2026-09-04 11:47:32 | 51.44518 | 8.67751 | 85° | 35km/h | 17719m | 4.8m/s | -56.8°C | 4.8% | 83.4hPa | 2.7V | 08:30:00 | 01:29:06 | 00:00:00 | |
| DL1XH-west | 2026-09-04 11:47:30 | 51.44517 | 8.67738 | 85° | 33km/h | 17715m | 4.1m/s | -56.8°C | 1.2% | 83.4hPa | 2.6V | 18:12:15 | 01:29:05 | 00:00:00 | |
| DO3MHA-12 | 2026-09-04 11:47:29 | 51.44516 | 8.67725 | 81° | 35km/h | 17710m | 4.9m/s | -56.7°C | 4.8% | 83.5hPa | 2.7V | 00:00:00 | 01:29:04 | 00:00:00 | |
| EDDB2-11 | 2026-09-04 11:47:28 | 51.44512 | 8.67701 | 75° | 31km/h | 17702m | 3.8m/s | -56.8°C | 1.6% | 83.6hPa | 2.7V | 00:00:00 | 00:00:00 | 00:00:00 | |
| DF2AP-13 | 2026-09-04 11:47:27 | 51.44512 | 8.67701 | 76° | 37km/h | 17702m | 3.7m/s | -56.7°C | 4.8% | 83.6hPa | 2.7V | 00:00:00 | 01:29:02 | 00:00:00 | |
| DM0DOS-11 | 2026-09-04 11:47:26 | 51.44506 | 8.67621 | 91° | 37km/h | 17674m | 5.6m/s | -56.8°C | 4.8% | 84hPa | 2.7V | 08:30:00 | 01:28:56 | 00:00:00 | |
| DO2JMG | 2026-09-04 11:47:25 | 51.44509 | 8.67676 | 81° | 33km/h | 17692m | 4.5m/s | -56.8°C | 1.2% | 83.8hPa | 2.6V | 18:12:15 | 01:29:00 | 00:00:00 | |
| DL1XH-15 | 2026-09-04 11:47:24 | 51.44506 | 8.67635 | 87° | 35km/h | 17679m | 3.6m/s | -56.8°C | 4.9% | 83.9hPa | 2.7V | 08:30:00 | 01:28:57 | 00:00:00 | |
| HSKMA3-T | 2026-09-04 11:47:22 | 51.44506 | 8.67635 | 87° | 35km/h | 17679m | 3.6m/s | -56.8°C | 1.2% | 83.9hPa | 2.7V | 18:12:15 | 01:28:57 | 00:00:00 | |
| AA1-15 | 2026-09-04 11:47:19 | 51.44508 | 8.67591 | 97° | 37km/h | 17665m | 3.6m/s | -56.8°C | 1.2% | 84.1hPa | 2.6V | 18:12:15 | 01:28:54 | 00:00:00 | |
| DF8AY-15 | 2026-09-04 11:47:19 | 51.44508 | 8.67591 | 97° | 38km/h | 17665m | 3.5m/s | -56.7°C | 4.9% | 84.1hPa | 2.6V | 00:00:00 | 01:28:54 | 00:00:00 | |
| DO3MHA-12 | 2026-09-04 11:47:18 | 51.44509 | 8.67577 | 96° | 46km/h | 17660m | 5.1m/s | -56.7°C | 4.9% | 84.1hPa | 2.6V | 00:00:00 | 01:28:53 | 00:00:00 | |
| EDDB2-12 | 2026-09-04 11:47:17 | 51.44509 | 8.67563 | 90° | 33km/h | 17656m | 4.1m/s | -56.7°C | 1.6% | 84.2hPa | 2.6V | 00:00:00 | 00:00:00 | 00:00:00 | |
| DL4XJ-10 | 2026-09-04 11:47:16 | 51.44509 | 8.67549 | 89° | 38km/h | 17652m | 4.3m/s | -57.5°C | 0% | 0hPa | 2.6V | 00:00:00 | 00:00:00 | 00:00:00 | |
| DM0DOS-11 | 2026-09-04 11:47:15 | 51.44505 | 8.67482 | 78° | 35km/h | 17629m | 3.6m/s | -56.6°C | 4.8% | 84.6hPa | 2.6V | 08:30:00 | 01:28:46 | 00:00:00 | |
| DO3MHA-11 | 2026-09-04 11:47:15 | 51.44509 | 8.67535 | 88° | 38km/h | 17647m | 5.1m/s | -56.7°C | 4.8% | 84.3hPa | 2.6V | 00:00:00 | 01:28:50 | 00:00:00 | |
| DL1XH-15 | 2026-09-04 11:47:14 | 51.44506 | 8.67495 | 78° | 33km/h | 17633m | 5m/s | -56.7°C | 4.8% | 84.5hPa | 2.6V | 08:30:00 | 01:28:47 | 00:00:00 | |
| DO2JMG | 2026-09-04 11:47:14 | 51.44509 | 8.67522 | 86° | 33km/h | 17642m | 4.4m/s | -56.7°C | 1.2% | 84.4hPa | 2.7V | 18:12:15 | 01:28:49 | 00:00:00 | |
| HSKMA3-T | 2026-09-04 11:47:12 | 51.44506 | 8.67495 | 78° | 33km/h | 17633m | 5m/s | -56.7°C | 1.2% | 84.5hPa | 2.6V | 18:12:15 | 01:28:47 | 00:00:00 | |
| DD1CC1-15 | 2026-09-04 11:47:12 | 51.44506 | 8.67495 | 79° | 33km/h | 17633m | 5.0m/s | -56.7°C | 1.6% | 84.5hPa | 2.7V | 00:00:00 | 00:00:00 | 00:00:00 | |
| DB0DAN | 2026-09-04 11:47:10 | 51.44503 | 8.67467 | 83° | 35km/h | 17624m | 5.1m/s | -56.7°C | 1.5% | 84.63hPa | 2.7V | 00:00:00 | 00:00:00 | 00:00:00 | |
| DL1XH-west | 2026-09-04 11:47:08 | 51.44503 | 8.67435 | 92° | 44km/h | 17615m | 4.1m/s | -56.6°C | 1.2% | 84.8hPa | 2.6V | 18:12:15 | 01:28:43 | 00:00:00 | |
| DF8AY | 2026-09-04 11:47:07 | 51.44503 | 8.67417 | 93° | 46km/h | 17610m | 4.7m/s | -56.5°C | 1.1% | 84.8hPa | 2.6V | 18:12:15 | 01:28:42 | 00:00:00 | |
| GOEST3-10 | 2026-09-04 11:47:06 | 51.44504 | 8.67399 | 93° | 42km/h | 17606m | 4.4m/s | -56.5°C | 4.7% | 84.8hPa | 2.6V | 00:00:00 | 01:28:41 | 00:00:00 | |
| DF7PN | 2026-09-04 11:47:05 | 51.44505 | 8.67363 | 93° | 40km/h | 17598m | 4.6m/s | -56.4°C | 1.6% | 85.0hPa | 2.6V | 00:00:00 | 00:00:00 | 00:00:00 | |
| DL1XH-15 | 2026-09-04 11:47:04 | 51.44506 | 8.67332 | 92° | 37km/h | 17588m | 4.6m/s | -56.4°C | 4.7% | 85.1hPa | 2.6V | 08:30:00 | 01:28:37 | 00:00:00 | |
| DO2JMG | 2026-09-04 11:47:03 | 51.44505 | 8.67347 | 94° | 38km/h | 17593m | 5m/s | -56.4°C | 1.2% | 85.1hPa | 2.6V | 18:12:15 | 01:28:38 | 00:00:00 | |
| HSKMA3-T | 2026-09-04 11:47:02 | 51.44506 | 8.67332 | 92° | 37km/h | 17588m | 4.6m/s | -56.4°C | 1.1% | 85.1hPa | 2.6V | 18:12:15 | 01:28:37 | 00:00:00 | |
| DM0DOS-11 | 2026-09-04 11:47:01 | 51.44506 | 8.67317 | 88° | 37km/h | 17583m | 5.5m/s | -56.3°C | 4.7% | 85.2hPa | 2.7V | 08:30:00 | 01:28:36 | 00:00:00 | |
| DL1XH-west | 2026-09-04 11:46:58 | 51.44503 | 8.67274 | 84° | 35km/h | 17569m | 5.5m/s | -56.3°C | 1.2% | 85.4hPa | 2.6V | 18:12:15 | 01:28:33 | 00:00:00 | |
| EDDB2-11 | 2026-09-04 11:46:57 | 51.44501 | 8.67247 | 85° | 35km/h | 17560m | 4.9m/s | -56.3°C | 1.6% | 85.5hPa | 2.7V | 00:00:00 | 00:00:00 | 00:00:00 | |
| DL4XJ-10 | 2026-09-04 11:46:56 | 51.44501 | 8.67247 | 86° | 33km/h | 17559m | 4.9m/s | -57.0°C | 0% | 0hPa | 2.7V | 00:00:00 | 00:00:00 | 00:00:00 | |
| DO3MHA-11 | 2026-09-04 11:46:55 | 51.44501 | 8.67232 | 87° | 35km/h | 17555m | 4.2m/s | -56.2°C | 4.8% | 85.5hPa | 2.7V | 00:00:00 | 01:28:30 | 00:00:00 | |
| DL1NUX | 2026-09-04 11:46:54 | 51.44503 | 8.67174 | 97° | 37km/h | 17537m | 3.9m/s | -56.1°C | 4.8% | 85.8hPa | 2.6V | 08:30:00 | 01:28:26 | 00:00:00 | |
| DO2JMG | 2026-09-04 11:46:52 | 51.44502 | 8.67189 | 98° | 37km/h | 17541m | 4.7m/s | -56.2°C | 1.2% | 85.8hPa | 2.6V | 18:12:15 | 01:28:27 | 00:00:00 | |
| HSKMA3-T | 2026-09-04 11:46:51 | 51.44503 | 8.67174 | 98° | 37km/h | 17537m | 3.9m/s | -56.1°C | 1.2% | 85.8hPa | 2.6V | 18:12:15 | 01:28:26 | 00:00:00 | |
| DL1XH-west | 2026-09-04 11:46:47 | 51.44504 | 8.67118 | 85° | 33km/h | 17518m | 4.6m/s | -56°C | 1.2% | 86.1hPa | 2.6V | 18:12:15 | 01:28:22 | 00:00:00 | |
| GOEST3-10 | 2026-09-04 11:46:46 | 51.44503 | 8.67105 | 79° | 31km/h | 17514m | 4.4m/s | -55.9°C | 4.6% | 86.1hPa | 2.6V | 00:00:00 | 01:28:21 | 00:00:00 | |
| DO9LL-15 | 2026-09-04 11:46:45 | 51.44500 | 8.67092 | 72° | 33km/h | 17509m | 5.4m/s | -55.8°C | 4.6% | 86.2hPa | 2.7V | 00:00:00 | 01:28:20 | 00:00:00 | |
| DL1XH-15 | 2026-09-04 11:46:44 | 51.44492 | 8.67056 | 69° | 29km/h | 17494m | 4.9m/s | -55.8°C | 4.6% | 86.4hPa | 2.6V | 08:30:00 | 01:28:17 | 00:00:00 | |
| HSKMA3-T | 2026-09-04 11:46:41 | 51.44489 | 8.67045 | 76° | 29km/h | 17490m | 4.1m/s | -55.7°C | 1.1% | 86.5hPa | 2.6V | 18:12:15 | 01:28:16 | 00:00:00 | |
| DB0DAN | 2026-09-04 11:46:40 | 51.44488 | 8.67034 | 81° | 29km/h | 17485m | 5.1m/s | -55.8°C | 1.5% | 86.53hPa | 2.7V | 00:00:00 | 00:00:00 | 00:00:00 | |
| DL1XH-west | 2026-09-04 11:46:37 | 51.44488 | 8.66997 | 100° | 29km/h | 17471m | 4.4m/s | -55.6°C | 1.1% | 86.7hPa | 2.6V | 18:12:15 | 01:28:12 | 00:00:00 | |
| AA1-15 | 2026-09-04 11:46:36 | 51.44489 | 8.66985 | 99° | 31km/h | 17467m | 3.8m/s | -55.6°C | 1.1% | 86.7hPa | 2.6V | 18:12:15 | 01:28:11 | 00:00:00 | |
| DL4XJ-10 | 2026-09-04 11:46:36 | 51.44490 | 8.66985 | 100° | 35km/h | 17467m | 3.7m/s | -56.2°C | 0% | 0hPa | 2.7V | 00:00:00 | 00:00:00 | 00:00:00 | |
| DO3MHA-11 | 2026-09-04 11:46:35 | 51.44490 | 8.66973 | 95° | 33km/h | 17463m | 4.4m/s | -55.5°C | 4.7% | 86.8hPa | 2.7V | 00:00:00 | 01:28:10 | 00:00:00 | |
| DL1XH-15 | 2026-09-04 11:46:34 | 51.44488 | 8.66931 | 76° | 37km/h | 17449m | 3.9m/s | -55.3°C | 4.6% | 87hPa | 2.7V | 08:30:00 | 01:28:07 | 00:00:00 | |
| HSKMA3-T | 2026-09-04 11:46:31 | 51.44485 | 8.66917 | 75° | 35km/h | 17445m | 4.8m/s | -55.4°C | 1.2% | 87hPa | 2.6V | 18:12:15 | 01:28:06 | 00:00:00 | |
| DO2JMG | 2026-09-04 11:46:30 | 51.44483 | 8.66904 | 77° | 33km/h | 17440m | 4.9m/s | -55.3°C | 1.1% | 87.1hPa | 2.6V | 18:12:15 | 01:28:05 | 00:00:00 | |
| DL1XH-west | 2026-09-04 11:46:27 | 51.44481 | 8.66864 | 92° | 35km/h | 17427m | 4.6m/s | -55.2°C | 1.1% | 87.3hPa | 2.7V | 18:12:15 | 01:28:02 | 00:00:00 | |
| AA1-15 | 2026-09-04 11:46:25 | 51.44483 | 8.66837 | 104° | 31km/h | 17417m | 5.8m/s | -55.1°C | 1.1% | 87.5hPa | 2.6V | 18:12:15 | 01:28:00 | 00:00:00 | |
| DB0DAN | 2026-09-04 11:46:25 | 51.44483 | 8.66837 | 104° | 29km/h | 17417m | 5.8m/s | -55.1°C | 1.5% | 87.46hPa | 2.6V | 00:00:00 | 00:00:00 | 00:00:00 | |
| DO3MHA-11 | 2026-09-04 11:46:24 | 51.44485 | 8.66826 | 108° | 37km/h | 17412m | 5.0m/s | -55.0°C | 4.5% | 87.5hPa | 2.6V | 00:00:00 | 01:27:59 | 08:30:00 | |
| DM0DOS-11 | 2026-09-04 11:46:23 | 51.44490 | 8.66791 | 95° | 33km/h | 17398m | 6m/s | -55°C | 4.5% | 87.7hPa | 2.7V | 08:30:00 | 01:27:56 | 00:00:00 | |
| HSKMA3-T | 2026-09-04 11:46:21 | 51.44490 | 8.66791 | 95° | 33km/h | 17398m | 6m/s | -55°C | 1% | 87.7hPa | 2.7V | 18:12:15 | 01:27:56 | 00:00:00 | |
| DO2JMG | 2026-09-04 11:46:20 | 51.44490 | 8.66777 | 88° | 38km/h | 17392m | 5m/s | -54.8°C | 1% | 87.8hPa | 2.6V | 18:12:15 | 01:27:55 | 00:00:00 | |
| DL1XH-west | 2026-09-04 11:46:17 | 51.44486 | 8.66730 | 80° | 38km/h | 17377m | 4.4m/s | -54.7°C | 1% | 88hPa | 2.7V | 18:12:15 | 01:27:52 | 00:00:00 | |
| BIOWL1-15 | 2026-09-04 11:46:15 | 51.44485 | 8.66699 | 89° | 38km/h | 17368m | 5.9m/s | -54.7°C | 1% | 88.1hPa | 2.7V | 18:12:15 | 01:27:50 | 00:00:00 | |
| DO9LL-15 | 2026-09-04 11:46:15 | 51.44484 | 8.66699 | 90° | 44km/h | 17368m | 5.8m/s | -54.6°C | 4.4% | 88.1hPa | 2.7V | 00:00:00 | 01:27:50 | 00:00:00 | |
| DO3MHA-11 | 2026-09-04 11:46:14 | 51.44485 | 8.66684 | 97° | 38km/h | 17362m | 5.7m/s | -54.6°C | 4.4% | 88.2hPa | 2.7V | 00:00:00 | 01:27:49 | 00:00:00 | |
| DM0DOS-11 | 2026-09-04 11:46:13 | 51.44491 | 8.66636 | 103° | 38km/h | 17345m | 5.3m/s | -54.6°C | 4.4% | 88.4hPa | 2.7V | 08:30:00 | 01:27:46 | 00:00:00 | |
| HSKMA3-T | 2026-09-04 11:46:10 | 51.44493 | 8.66620 | 103° | 38km/h | 17340m | 4.7m/s | -54.5°C | 1% | 88.5hPa | 2.7V | 18:12:15 | 01:27:45 | 00:00:00 | |
| DB0DAN | 2026-09-04 11:46:10 | 51.44493 | 8.66620 | 103° | 37km/h | 17340m | 4.7m/s | -54.5°C | 1.5% | 88.52hPa | 2.7V | 00:00:00 | 00:00:00 | 00:00:00 | |
| DO2JMG | 2026-09-04 11:46:08 | 51.44498 | 8.66588 | 100° | 42km/h | 17330m | 4.3m/s | -54.4°C | 1% | 88.6hPa | 2.6V | 18:12:15 | 01:27:43 | 00:00:00 | |
| DL1XH-west | 2026-09-04 11:46:06 | 51.44500 | 8.66556 | 92° | 38km/h | 17321m | 5.9m/s | -54.4°C | 1% | 88.8hPa | 2.7V | 18:12:15 | 01:27:41 | 00:00:00 | |
| AA1-15 | 2026-09-04 11:46:04 | 51.44499 | 8.66526 | 85° | 38km/h | 17311m | 3.9m/s | -54.4°C | 1% | 88.9hPa | 2.6V | 18:12:15 | 01:27:39 | 00:00:00 | |
| DJ2KF-10 | 2026-09-04 11:46:03 | 51.44498 | 8.66510 | 86° | 49km/h | 17307m | 5.2m/s | -54.3°C | 4.2% | 89.0hPa | 2.6V | 00:00:00 | 01:27:38 | 08:30:00 | |
| DM0DOS-11 | 2026-09-04 11:46:02 | 51.44498 | 8.66475 | 94° | 46km/h | 17298m | 4.6m/s | -54.3°C | 4.2% | 89.1hPa | 2.7V | 08:30:00 | 01:27:36 | 00:00:00 | |
| HSKMA3-T | 2026-09-04 11:46:00 | 51.44500 | 8.66456 | 99° | 46km/h | 17293m | 5.1m/s | -54.3°C | 0.9% | 89.2hPa | 2.7V | 18:12:15 | 01:27:35 | 00:00:00 | |
| DO2JMG | 2026-09-04 11:45:58 | 51.44504 | 8.66419 | 102° | 49km/h | 17285m | 4.4m/s | -54.3°C | 0.9% | 89.3hPa | 2.6V | 18:12:15 | 01:27:33 | 00:00:00 | |
| DL1XH-west | 2026-09-04 11:45:57 | 51.44509 | 8.66379 | 100° | 51km/h | 17275m | 4.1m/s | -54.3°C | 0.9% | 89.4hPa | 2.7V | 18:12:15 | 01:27:31 | 00:00:00 | |
| GOEST3-10 | 2026-09-04 11:45:57 | 51.44509 | 8.66379 | 100° | 46km/h | 17275m | 4.0m/s | -54.2°C | 4.2% | 89.4hPa | 2.6V | 00:00:00 | 01:27:31 | 00:00:00 | |
| DL4XJ-10 | 2026-09-04 11:45:56 | 51.44509 | 8.66379 | 100° | 49km/h | 17275m | 4.0m/s | -54.9°C | 0% | 0hPa | 2.6V | 00:00:00 | 00:00:00 | 00:00:00 | |
| DL3OBA | 2026-09-04 11:45:55 | 51.44509 | 8.66379 | 101° | 51km/h | 17275m | 4.1m/s | -54.3°C | 1.4% | 89.4hPa | 2.6V | 00:00:00 | 00:00:00 | 00:00:00 | |
| DL1XH-15 | 2026-09-04 11:45:54 | 51.44516 | 8.66308 | 99° | 40km/h | 17258m | 3.8m/s | -54.4°C | 4.2% | 89.7hPa | 2.6V | 08:30:00 | 01:27:27 | 00:00:00 | |
| AA1-15 | 2026-09-04 11:45:54 | 51.44512 | 8.66341 | 99° | 44km/h | 17267m | 5.2m/s | -54.4°C | 0.9% | 89.5hPa | 2.7V | 18:12:15 | 01:27:29 | 00:00:00 | |
| BIOWL1-15 | 2026-09-04 11:45:53 | 51.44516 | 8.66308 | 99° | 40km/h | 17258m | 3.8m/s | -54.4°C | 1% | 89.7hPa | 2.6V | 18:12:15 | 01:27:27 | 00:00:00 | |
| DF8AY | 2026-09-04 11:45:50 | 51.44519 | 8.66274 | 99° | 46km/h | 17249m | 4.8m/s | -54.5°C | 1% | 89.8hPa | 2.7V | 18:12:15 | 01:27:25 | 00:00:00 | |
| HSKMA3-T | 2026-09-04 11:45:49 | 51.44521 | 8.66255 | 100° | 49km/h | 17244m | 4.8m/s | -54.5°C | 1% | 89.9hPa | 2.7V | 18:12:15 | 01:27:24 | 00:00:00 | |
| DO2JMG | 2026-09-04 11:45:47 | 51.44525 | 8.66214 | 98° | 53km/h | 17234m | 6m/s | -54.6°C | 1% | 90hPa | 2.6V | 18:12:15 | 01:27:22 | 00:00:00 | |
| DL1XH-west | 2026-09-04 11:45:46 | 51.44527 | 8.66193 | 97° | 51km/h | 17228m | 5m/s | -54.6°C | 1% | 90.1hPa | 2.7V | 18:12:15 | 01:27:21 | 00:00:00 | |
| GOEST3-10 | 2026-09-04 11:45:46 | 51.44527 | 8.66193 | 97° | 53km/h | 17228m | 4.9m/s | -54.5°C | 4.4% | 90.0hPa | 2.7V | 00:00:00 | 01:27:21 | 00:00:00 | |
| DO9LL-15 | 2026-09-04 11:45:45 | 51.44528 | 8.66172 | 97° | 58km/h | 17223m | 4.5m/s | -54.6°C | 4.4% | 90.1hPa | 2.6V | 00:00:00 | 01:27:20 | 00:00:00 | |
| DL1XH-15 | 2026-09-04 11:45:44 | 51.44533 | 8.66107 | 97° | 53km/h | 17208m | 4.9m/s | -54.6°C | 4.3% | 90.4hPa | 2.6V | 08:30:00 | 01:27:17 | 00:00:00 | |
| AA1-15 | 2026-09-04 11:45:43 | 51.44531 | 8.66129 | 97° | 55km/h | 17213m | 4.2m/s | -54.6°C | 1% | 90.3hPa | 2.6V | 18:12:15 | 01:27:18 | 00:00:00 | |
| DF8AY | 2026-09-04 11:45:40 | 51.44536 | 8.66065 | 97° | 53km/h | 17200m | 4.2m/s | -54.6°C | 1% | 90.5hPa | 2.7V | 18:12:15 | 01:27:15 | 00:00:00 | |
| HSKMA3-T | 2026-09-04 11:45:39 | 51.44538 | 8.66043 | 98° | 55km/h | 17195m | 5.5m/s | -54.6°C | 1.1% | 90.6hPa | 2.7V | 18:12:15 | 01:27:14 | 00:00:00 | |
| DL1XH-west | 2026-09-04 11:45:35 | 51.44546 | 8.65958 | 100° | 53km/h | 17176m | 3.7m/s | -54.7°C | 1% | 90.8hPa | 2.7V | 18:12:15 | 01:27:10 | 00:00:00 | |
| DB0ND-19 | 2026-09-04 11:45:35 | 51.44549 | 8.65936 | 99° | 55km/h | 17172m | 5.7m/s | -54.8°C | 1.5% | 90.9hPa | 2.6V | 00:00:00 | 00:00:00 | 00:00:00 | |
| DL1XH-15 | 2026-09-04 11:45:34 | 51.44553 | 8.65890 | 99° | 60km/h | 17162m | 4.2m/s | -54.8°C | 4.4% | 91hPa | 2.6V | 08:30:00 | 01:27:07 | 00:00:00 | |
| DL1NUX | 2026-09-04 11:45:34 | 51.44556 | 8.65867 | 99° | 58km/h | 17157m | 5.3m/s | -54.8°C | 4.4% | 91.1hPa | 2.6V | 08:30:00 | 01:27:06 | 00:00:00 | |
| BIOWL1-15 | 2026-09-04 11:45:32 | 51.44554 | 8.65890 | 100° | 60km/h | 17162m | 4.2m/s | -54.8°C | 1% | 91hPa | 2.6V | 18:12:15 | 01:27:07 | 00:00:00 | |
| DF8AY | 2026-09-04 11:45:29 | 51.44561 | 8.65821 | 99° | 57km/h | 17148m | 3.6m/s | -54.9°C | 1.1% | 91.2hPa | 2.7V | 18:12:15 | 01:27:04 | 00:00:00 | |
| HSKMA3-T | 2026-09-04 11:45:28 | 51.44564 | 8.65798 | 99° | 58km/h | 17144m | 5.2m/s | -54.9°C | 1.1% | 91.3hPa | 2.7V | 18:12:15 | 01:27:03 | 00:00:00 | |
| DL1XH-west | 2026-09-04 11:45:25 | 51.44569 | 8.65725 | 94° | 60km/h | 17129m | 5.4m/s | -54.8°C | 1.1% | 91.5hPa | 2.6V | 18:12:15 | 01:27:00 | 00:00:00 | |
| DL1XH-15 | 2026-09-04 11:45:25 | 51.44569 | 8.65650 | 87° | 66km/h | 17116m | 5.2m/s | -54.8°C | 4.4% | 91.7hPa | 2.7V | 08:30:00 | 01:26:57 | 00:00:00 | |
| EDDB2-11 | 2026-09-04 11:45:25 | 51.44569 | 8.65676 | 88° | 62km/h | 17121m | 5.0m/s | -54.8°C | 1.5% | 91.6hPa | 2.6V | 00:00:00 | 00:00:00 | 00:00:00 | |
| DL1XH1-15 | 2026-09-04 11:45:22 | 51.44568 | 8.65624 | 86° | 66km/h | 17111m | 4m/s | -54.7°C | 4.4% | 91.7hPa | 2.6V | 08:30:00 | 01:26:56 | 00:00:00 | |
| AA1-15 | 2026-09-04 11:45:22 | 51.44569 | 8.65650 | 88° | 66km/h | 17116m | 5.2m/s | -54.8°C | 1% | 91.7hPa | 2.7V | 18:12:15 | 01:26:57 | 00:00:00 | |
| DO2JMG | 2026-09-04 11:45:20 | 51.44567 | 8.65598 | 85° | 64km/h | 17107m | 5.4m/s | -54.7°C | 1.1% | 91.8hPa | 2.6V | 18:12:15 | 01:26:55 | 00:00:00 | |
| DF8AY | 2026-09-04 11:45:18 | 51.44564 | 8.65524 | 89° | 62km/h | 17093m | 5m/s | -54.6°C | 1% | 92hPa | 2.7V | 18:12:15 | 01:26:52 | 00:00:00 | |
| HSKMA3-T | 2026-09-04 11:45:18 | 51.44564 | 8.65548 | 87° | 60km/h | 17097m | 3.3m/s | -54.6°C | 1% | 91.9hPa | 2.7V | 18:12:15 | 01:26:53 | 00:00:00 | |
| DL1XH-west | 2026-09-04 11:45:14 | 51.44566 | 8.65447 | 96° | 64km/h | 17079m | 5m/s | -54.5°C | 1% | 92.2hPa | 2.6V | 18:12:15 | 01:26:49 | 00:00:00 | |
| DK9SH | 2026-09-04 11:45:13 | 51.44566 | 8.65447 | 97° | 64km/h | 17080m | 5.0m/s | -54.5°C | 1.5% | 92.2hPa | 2.7V | 00:00:00 | 00:00:00 | 00:00:00 | |
| DM0DOS-11 | 2026-09-04 11:45:12 | 51.44572 | 8.65371 | 97° | 64km/h | 17066m | 5.4m/s | -54.5°C | 4.3% | 92.4hPa | 2.7V | 08:30:00 | 01:26:46 | 00:00:00 | |
| BIOWL1-15 | 2026-09-04 11:45:12 | 51.44574 | 8.65345 | 97° | 64km/h | 17061m | 5m/s | -54.5°C | 1% | 92.5hPa | 2.6V | 18:12:15 | 01:26:45 | 00:00:00 | |
| AA1-15 | 2026-09-04 11:45:11 | 51.44572 | 8.65371 | 97° | 64km/h | 17066m | 5.4m/s | -54.5°C | 1% | 92.4hPa | 2.7V | 18:12:15 | 01:26:46 | 00:00:00 | |
| DB0DAN | 2026-09-04 11:45:10 | 51.44574 | 8.65345 | 97° | 62km/h | 17061m | 5m/s | -54.5°C | 1.5% | 92.49hPa | 2.6V | 00:00:00 | 00:00:00 | 00:00:00 | |
| DO2JMG | 2026-09-04 11:45:09 | 51.44576 | 8.65319 | 96° | 62km/h | 17056m | 4.9m/s | -54.5°C | 1% | 92.5hPa | 2.6V | 18:12:15 | 01:26:44 | 00:00:00 | |
| DF8AY | 2026-09-04 11:45:07 | 51.44579 | 8.65271 | 95° | 60km/h | 17046m | 4.3m/s | -54.4°C | 1% | 92.7hPa | 2.7V | 18:12:15 | 01:26:42 | 00:00:00 | |
| DL1XH-west | 2026-09-04 11:45:03 | 51.44583 | 8.65173 | 92° | 58km/h | 17027m | 5.3m/s | -54.6°C | 1% | 93hPa | 2.7V | 18:12:15 | 01:26:38 | 00:00:00 | |
| DM0DOS-11 | 2026-09-04 11:45:02 | 51.44585 | 8.65127 | 95° | 57km/h | 17018m | 4.6m/s | -54.6°C | 4.3% | 93.1hPa | 2.7V | 08:30:00 | 01:26:36 | 00:00:00 | |
| AA1-15 | 2026-09-04 11:45:00 | 51.44587 | 8.65104 | 98° | 58km/h | 17013m | 5.1m/s | -54.6°C | 1.1% | 93.2hPa | 2.6V | 18:12:15 | 01:26:35 | 00:00:00 | |
| BIOWL1-15 | 2026-09-04 11:44:59 | 51.44589 | 8.65081 | 101° | 60km/h | 17008m | 4.6m/s | -54.5°C | 1.1% | 93.3hPa | 2.6V | 18:12:15 | 01:26:34 | 00:00:00 | |
| DO2JMG | 2026-09-04 11:44:58 | 51.44592 | 8.65057 | 103° | 60km/h | 17004m | 5.2m/s | -54.6°C | 1% | 93.3hPa | 2.6V | 18:12:15 | 01:26:33 | 00:00:00 | |
| HSKMA3-T | 2026-09-04 11:44:57 | 51.44596 | 8.65034 | 105° | 58km/h | 16999m | 5m/s | -54.7°C | 1.1% | 93.4hPa | 2.7V | 18:12:15 | 01:26:32 | 00:00:00 | |
| DF8AY | 2026-09-04 11:44:56 | 51.44600 | 8.65011 | 105° | 60km/h | 16994m | 3.8m/s | -54.7°C | 1.1% | 93.5hPa | 2.7V | 18:12:15 | 01:26:31 | 00:00:00 | |
| DL1XH-west | 2026-09-04 11:44:53 | 51.44610 | 8.64938 | 98° | 62km/h | 16980m | 4.1m/s | -55°C | 1.1% | 93.7hPa | 2.6V | 18:12:15 | 01:26:28 | 00:00:00 | |
| DM0DOS-11 | 2026-09-04 11:44:52 | 51.44613 | 8.64890 | 95° | 58km/h | 16971m | 3.9m/s | -55°C | 4.5% | 93.8hPa | 2.7V | 08:30:00 | 01:26:26 | 00:00:00 | |
| AA1-15 | 2026-09-04 11:44:49 | 51.44617 | 8.64844 | 99° | 57km/h | 16962m | 5.4m/s | -55°C | 1.2% | 93.9hPa | 2.6V | 18:12:15 | 01:26:24 | 00:00:00 | |
| BIOWL1-15 | 2026-09-04 11:44:48 | 51.44619 | 8.64821 | 100° | 57km/h | 16958m | 4.5m/s | -55.1°C | 1.2% | 94hPa | 2.6V | 18:12:15 | 01:26:23 | 00:00:00 | |
| DO2JMG | 2026-09-04 11:44:47 | 51.44622 | 8.64799 | 100° | 57km/h | 16953m | 4.2m/s | -55.1°C | 1.1% | 94.1hPa | 2.7V | 18:12:15 | 01:26:22 | 00:00:00 | |
| HSKMA3-T | 2026-09-04 11:44:46 | 51.44624 | 8.64776 | 100° | 57km/h | 16948m | 5.1m/s | -55°C | 1.2% | 94.1hPa | 2.7V | 18:12:15 | 01:26:21 | 00:00:00 | |
| DL3AQ-11 | 2026-09-04 11:44:45 | 51.44628 | 8.64730 | 98° | 60km/h | 16940m | 5.4m/s | -55.0°C | 1.6% | 94.2hPa | 2.7V | 00:00:00 | 00:00:00 | 00:00:00 | |
| DL1XH-west | 2026-09-04 11:44:42 | 51.44633 | 8.64679 | 97° | 68km/h | 16930m | 4.1m/s | -54.9°C | 1.1% | 94.4hPa | 2.7V | 18:12:15 | 01:26:17 | 00:00:00 | |
| BIOWL1-15 | 2026-09-04 11:44:40 | 51.44639 | 8.64570 | 94° | 68km/h | 16912m | 4.8m/s | -54.8°C | 1.2% | 94.6hPa | 2.6V | 18:12:15 | 01:26:13 | 00:00:00 | |
| AA1-15 | 2026-09-04 11:44:39 | 51.44638 | 8.64597 | 93° | 68km/h | 16916m | 3.8m/s | -54.8°C | 1.2% | 94.6hPa | 2.6V | 18:12:15 | 01:26:14 | 00:00:00 | |
| DO2JMG | 2026-09-04 11:44:36 | 51.44642 | 8.64517 | 98° | 66km/h | 16903m | 4.2m/s | -54.7°C | 1.1% | 94.8hPa | 2.7V | 18:12:15 | 01:26:11 | 00:00:00 | |
| DF8AY | 2026-09-04 11:44:35 | 51.44646 | 8.64467 | 98° | 60km/h | 16893m | 4.2m/s | -54.6°C | 1.2% | 95hPa | 2.6V | 18:12:15 | 01:26:09 | 00:00:00 | |
| DL1XH-15 | 2026-09-04 11:44:34 | 51.44651 | 8.64419 | 98° | 60km/h | 16883m | 5.3m/s | -54.5°C | 4.4% | 95.1hPa | 2.7V | 08:30:00 | 01:26:07 | 00:00:00 | |
| DL1XH-west | 2026-09-04 11:44:32 | 51.44651 | 8.64419 | 99° | 60km/h | 16883m | 5.3m/s | -54.5°C | 1.1% | 95.1hPa | 2.7V | 18:12:15 | 01:26:07 | 00:00:00 | |
| AA1-15 | 2026-09-04 11:44:29 | 51.44656 | 8.64347 | 94° | 58km/h | 16869m | 4.5m/s | -54.4°C | 1.1% | 95.3hPa | 2.6V | 18:12:15 | 01:26:04 | 00:00:00 | |
| BIOWL1-15 | 2026-09-04 11:44:28 | 51.44657 | 8.64323 | 93° | 58km/h | 16865m | 3.6m/s | -54.4°C | 1.1% | 95.4hPa | 2.6V | 18:12:15 | 01:26:03 | 00:00:00 | |
| HSKMA3-T | 2026-09-04 11:44:26 | 51.44659 | 8.64274 | 94° | 60km/h | 16856m | 4.6m/s | -54.4°C | 1.1% | 95.5hPa | 2.7V | 18:12:15 | 01:26:01 | 00:00:00 | |
| DO2JMG | 2026-09-04 11:44:25 | 51.44660 | 8.64250 | 94° | 60km/h | 16851m | 4.6m/s | -54.3°C | 1.1% | 95.6hPa | 2.7V | 18:12:15 | 01:26:00 | 00:00:00 | |
| DL1XH-west | 2026-09-04 11:44:21 | 51.44665 | 8.64156 | 97° | 60km/h | 16833m | 4m/s | -54.6°C | 1.1% | 95.9hPa | 2.7V | 18:12:15 | 01:25:56 | 00:00:00 | |
| BIOWL1-15 | 2026-09-04 11:44:19 | 51.44671 | 8.64061 | 94° | 58km/h | 16815m | 4.3m/s | -54.8°C | 1.2% | 96.1hPa | 2.6V | 18:12:15 | 01:25:52 | 00:00:00 | |
| AA1-15 | 2026-09-04 11:44:18 | 51.44670 | 8.64085 | 94° | 58km/h | 16819m | 4.1m/s | -54.7°C | 1.2% | 96hPa | 2.6V | 18:12:15 | 01:25:53 | 00:00:00 | |
| HSKMA3-T | 2026-09-04 11:44:15 | 51.44673 | 8.64014 | 94° | 58km/h | 16805m | 4.8m/s | -54.9°C | 1.2% | 96.2hPa | 2.7V | 18:12:15 | 01:25:50 | 00:00:00 | |
| DO2JMG | 2026-09-04 11:44:14 | 51.44674 | 8.63991 | 92° | 58km/h | 16800m | 5.5m/s | -54.9°C | 1.2% | 96.3hPa | 2.7V | 18:12:15 | 01:25:49 | 00:00:00 | |
| DL4BBY-15 | 2026-09-04 11:44:13 | 51.44674 | 8.63967 | 90° | 57km/h | 16796m | 3.8m/s | -55.6°C | 0% | 0hPa | 2.6V | 00:00:00 | 00:00:00 | 00:00:00 | |
| DM0DOS-11 | 2026-09-04 11:44:12 | 51.44674 | 8.63920 | 90° | 60km/h | 16787m | 5.2m/s | -54.9°C | 4.6% | 96.5hPa | 2.6V | 08:30:00 | 01:25:46 | 00:00:00 | |
| DL1XH-west | 2026-09-04 11:44:10 | 51.44674 | 8.63896 | 91° | 60km/h | 16782m | 4.5m/s | -55°C | 1.3% | 96.6hPa | 2.7V | 18:12:15 | 01:25:45 | 00:00:00 | |
| AA1-15 | 2026-09-04 11:44:07 | 51.44674 | 8.63826 | 90° | 55km/h | 16768m | 4.2m/s | -55°C | 1.3% | 96.8hPa | 2.6V | 18:12:15 | 01:25:42 | 00:00:00 | |
| BIOWL1-15 | 2026-09-04 11:44:06 | 51.44674 | 8.63804 | 91° | 57km/h | 16763m | 5.6m/s | -54.9°C | 1.3% | 96.9hPa | 2.6V | 18:12:15 | 01:25:41 | 00:00:00 | |
| HSKMA3-T | 2026-09-04 11:44:05 | 51.44674 | 8.63781 | 92° | 55km/h | 16758m | 4.4m/s | -54.9°C | 1.3% | 97hPa | 2.6V | 18:12:15 | 01:25:40 | 00:00:00 | |
| DL3AQ-11 | 2026-09-04 11:44:05 | 51.44675 | 8.63759 | 90° | 53km/h | 16753m | 4.8m/s | -54.9°C | 1.6% | 97.0hPa | 2.7V | 00:00:00 | 00:00:00 | 00:00:00 | |
| DL1XH-15 | 2026-09-04 11:44:04 | 51.44675 | 8.63716 | 90° | 53km/h | 16744m | 3.9m/s | -54.8°C | 4.5% | 97.2hPa | 2.7V | 08:30:00 | 01:25:37 | 00:00:00 | |
| DF8AY | 2026-09-04 11:44:04 | 51.44675 | 8.63759 | 91° | 55km/h | 16753m | 4.8m/s | -54.9°C | 1.3% | 97hPa | 2.7V | 18:12:15 | 01:25:39 | 00:00:00 | |
| DO2JMG | 2026-09-04 11:44:03 | 51.44675 | 8.63737 | 89° | 53km/h | 16748m | 4.4m/s | -54.8°C | 1.3% | 97.1hPa | 2.7V | 18:12:15 | 01:25:38 | 00:00:00 | |
| DL1XH-west | 2026-09-04 11:43:59 | 51.44677 | 8.63649 | 96° | 57km/h | 16731m | 3.3m/s | -54.8°C | 1.3% | 97.4hPa | 2.6V | 18:12:15 | 01:25:34 | 00:00:00 | |
| AA1-15 | 2026-09-04 11:43:57 | 51.44680 | 8.63605 | 94° | 55km/h | 16723m | 4.5m/s | -54.8°C | 1.3% | 97.5hPa | 2.7V | 18:12:15 | 01:25:32 | 00:00:00 | |
| BIOWL1-15 | 2026-09-04 11:43:56 | 51.44681 | 8.63583 | 93° | 55km/h | 16718m | 4m/s | -54.8°C | 1.2% | 97.6hPa | 2.6V | 18:12:15 | 01:25:31 | 00:00:00 | |
| DB0DAN | 2026-09-04 11:43:55 | 51.44682 | 8.63561 | 94° | 51km/h | 16713m | 5.2m/s | -54.9°C | 0% | 97.61hPa | 2.6V | 00:00:00 | 00:00:00 | 00:00:00 | |
| HSKMA3-T | 2026-09-04 11:43:54 | 51.44683 | 8.63539 | 96° | 55km/h | 16708m | 4.9m/s | -54.8°C | 1.3% | 97.7hPa | 2.7V | 18:12:15 | 01:25:29 | 00:00:00 | |
| DO2JMG | 2026-09-04 11:43:53 | 51.44684 | 8.63516 | 95° | 57km/h | 16704m | 3.7m/s | -54.8°C | 1.2% | 97.8hPa | 2.7V | 18:12:15 | 01:25:28 | 00:00:00 | |
| DM0DOS-11 | 2026-09-04 11:43:52 | 51.44686 | 8.63470 | 93° | 58km/h | 16695m | 3.9m/s | -54.8°C | 4.5% | 97.9hPa | 2.6V | 08:30:00 | 01:25:26 | 00:00:00 | |
| DL1XH-west | 2026-09-04 11:43:49 | 51.44689 | 8.63423 | 96° | 57km/h | 16686m | 4.8m/s | -55°C | 1.2% | 98.1hPa | 2.7V | 18:12:15 | 01:25:24 | 00:00:00 | |
| AA1-15 | 2026-09-04 11:43:47 | 51.44692 | 8.63378 | 96° | 57km/h | 16677m | 5.2m/s | -55°C | 1.3% | 98.2hPa | 2.7V | 18:12:15 | 01:25:22 | 00:00:00 | |
| BIOWL1-15 | 2026-09-04 11:43:45 | 51.44694 | 8.63333 | 95° | 53km/h | 16668m | 4.2m/s | -55°C | 1.3% | 98.3hPa | 2.6V | 18:12:15 | 01:25:20 | 00:00:00 | |
| DO9LL-15 | 2026-09-04 11:43:45 | 51.44694 | 8.63333 | 96° | 62km/h | 16668m | 4.2m/s | -55.0°C | 4.6% | 98.3hPa | 2.6V | 00:00:00 | 01:25:20 | 08:30:00 | |
| DL1XH-15 | 2026-09-04 11:43:44 | 51.44698 | 8.63270 | 93° | 53km/h | 16655m | 4.9m/s | -55°C | 4.6% | 98.5hPa | 2.7V | 08:30:00 | 01:25:17 | 00:00:00 | |
| HSKMA3-T | 2026-09-04 11:43:44 | 51.44696 | 8.63312 | 96° | 51km/h | 16664m | 4.5m/s | -55°C | 1.3% | 98.4hPa | 2.6V | 18:12:15 | 01:25:19 | 00:00:00 | |
| DF8AY | 2026-09-04 11:43:43 | 51.44697 | 8.63291 | 95° | 51km/h | 16660m | 3.6m/s | -55°C | 1.3% | 98.5hPa | 2.7V | 18:12:15 | 01:25:18 | 00:00:00 | |
| DO2JMG | 2026-09-04 11:43:42 | 51.44698 | 8.63270 | 93° | 53km/h | 16655m | 4.9m/s | -55°C | 1.3% | 98.5hPa | 2.7V | 18:12:15 | 01:25:17 | 00:00:00 | |
| DL1XH-west | 2026-09-04 11:43:38 | 51.44702 | 8.63175 | 97° | 64km/h | 16638m | 4.3m/s | -55°C | 1.4% | 98.8hPa | 2.6V | 18:12:15 | 01:25:13 | 00:00:00 | |
| AA1-15 | 2026-09-04 11:43:36 | 51.44706 | 8.63122 | 97° | 68km/h | 16629m | 5.1m/s | -55°C | 1.4% | 98.9hPa | 2.7V | 18:12:15 | 01:25:11 | 00:00:00 | |
| BIOWL1-15 | 2026-09-04 11:43:36 | 51.44710 | 8.63069 | 97° | 66km/h | 16620m | 4.6m/s | -55°C | 1.4% | 99hPa | 2.6V | 18:12:15 | 01:25:09 | 00:00:00 | |
| DL4XJ-10 | 2026-09-04 11:43:36 | 51.44706 | 8.63122 | 98° | 66km/h | 16629m | 5.1m/s | -55.7°C | 0% | 0hPa | 2.7V | 00:00:00 | 00:00:00 | 00:00:00 | |
| HARRO8 | 2026-09-04 11:43:35 | 51.44708 | 8.63095 | 96° | 66km/h | 16625m | 3.6m/s | -55.0°C | 1.7% | 99.0hPa | 2.7V | 00:00:00 | 00:00:00 | 00:00:00 | |
| DL1XH-15 | 2026-09-04 11:43:34 | 51.44715 | 8.63018 | 98° | 60km/h | 16612m | 3.7m/s | -55°C | 4.7% | 99.2hPa | 2.7V | 08:30:00 | 01:25:07 | 00:00:00 | |
| DF8AY | 2026-09-04 11:43:33 | 51.44715 | 8.63018 | 99° | 60km/h | 16612m | 3.7m/s | -55°C | 1.3% | 99.2hPa | 2.7V | 18:12:15 | 01:25:07 | 00:00:00 | |
| HSKMA3-T | 2026-09-04 11:43:33 | 51.44713 | 8.63043 | 99° | 64km/h | 16616m | 4.7m/s | -55°C | 1.4% | 99.1hPa | 2.6V | 18:12:15 | 01:25:08 | 00:00:00 | |
| DJ2KF-10 | 2026-09-04 11:43:33 | 51.44713 | 8.63043 | 99° | 66km/h | 16616m | 4.6m/s | -54.9°C | 4.7% | 99.1hPa | 2.7V | 00:00:00 | 01:25:08 | 00:00:00 | |
| DL1XH1-15 | 2026-09-04 11:43:32 | 51.44717 | 8.62994 | 97° | 60km/h | 16608m | 4.5m/s | -55°C | 4.7% | 99.3hPa | 2.7V | 08:30:00 | 01:25:06 | 00:00:00 | |
| DO2JMG | 2026-09-04 11:43:31 | 51.44717 | 8.62994 | 98° | 60km/h | 16608m | 4.6m/s | -55°C | 1.4% | 99.3hPa | 2.7V | 18:12:15 | 01:25:06 | 00:00:00 | |
| DL1XH-west | 2026-09-04 11:43:28 | 51.44723 | 8.62918 | 97° | 64km/h | 16594m | 4.9m/s | -54.9°C | 1.3% | 99.5hPa | 2.6V | 18:12:15 | 01:25:03 | 00:00:00 | |
| AA1-15 | 2026-09-04 11:43:25 | 51.44730 | 8.62838 | 98° | 69km/h | 16581m | 5.2m/s | -54.9°C | 1.3% | 99.7hPa | 2.7V | 18:12:15 | 01:25:00 | 00:00:00 | |
| DL3AQ-11 | 2026-09-04 11:43:25 | 51.44733 | 8.62811 | 97° | 68km/h | 16576m | 4.5m/s | -54.9°C | 1.7% | 99.8hPa | 2.6V | 00:00:00 | 00:00:00 | 00:00:00 | |
| DL1XH-15 | 2026-09-04 11:43:24 | 51.44738 | 8.62757 | 98° | 66km/h | 16566m | 3.6m/s | -54.8°C | 4.6% | 99.9hPa | 2.6V | 08:30:00 | 01:24:57 | 00:00:00 | |
| DD8BA-10 | 2026-09-04 11:43:24 | 51.44732 | 8.62811 | 98° | 66km/h | 16576m | 4.4m/s | -54.8°C | 4.6% | 99.7hPa | 2.6V | 00:00:00 | 00:00:00 | 00:00:00 | |
| DO3MHA-11 | 2026-09-04 11:43:23 | 51.44735 | 8.62784 | 99° | 66km/h | 16571m | 5.3m/s | -54.8°C | 4.6% | 99.8hPa | 2.6V | 00:00:00 | 01:24:58 | 00:00:00 | |
| BIOWL1-15 | 2026-09-04 11:43:23 | 51.44735 | 8.62784 | 99° | 68km/h | 16571m | 5.3m/s | -54.8°C | 1.4% | 99.9hPa | 2.6V | 18:12:15 | 01:24:58 | 00:00:00 | |
| DM0DOS-11 | 2026-09-04 11:43:22 | 51.44740 | 8.62731 | 98° | 66km/h | 16563m | 4.1m/s | -54.8°C | 4.6% | 100hPa | 2.6V | 08:30:00 | 01:24:56 | 00:00:00 | |
| HSKMA3-T | 2026-09-04 11:43:22 | 51.44738 | 8.62757 | 99° | 66km/h | 16566m | 3.7m/s | -54.8°C | 1.4% | 99.9hPa | 2.6V | 18:12:15 | 01:24:57 | 00:00:00 | |
| DO2JMG | 2026-09-04 11:43:20 | 51.44742 | 8.62704 | 97° | 66km/h | 16558m | 4.8m/s | -54.8°C | 1.3% | 100.1hPa | 2.7V | 18:12:15 | 01:24:55 | 00:00:00 | |
| DL1XH-west | 2026-09-04 11:43:17 | 51.44748 | 8.62627 | 97° | 62km/h | 16545m | 3.4m/s | -54.7°C | 1.3% | 100.2hPa | 2.6V | 18:12:15 | 01:24:52 | 00:00:00 | |
| DL4XJ-10 | 2026-09-04 11:43:16 | 51.44749 | 8.62602 | 96° | 66km/h | 16541m | 4.5m/s | -55.4°C | 0% | 0hPa | 2.6V | 00:00:00 | 00:00:00 | 00:00:00 | |
| DO9LL-15 | 2026-09-04 11:43:15 | 51.44751 | 8.62576 | 94° | 64km/h | 16536m | 5.2m/s | -54.8°C | 4.6% | 100.3hPa | 2.6V | 00:00:00 | 01:24:50 | 00:00:00 | |
| DL1XH-15 | 2026-09-04 11:43:14 | 51.44753 | 8.62496 | 93° | 68km/h | 16521m | 4m/s | -54.8°C | 4.6% | 100.6hPa | 2.6V | 08:30:00 | 01:24:47 | 00:00:00 | |
| AA1-15 | 2026-09-04 11:43:14 | 51.44751 | 8.62550 | 92° | 68km/h | 16531m | 4.7m/s | -54.8°C | 1.3% | 100.5hPa | 2.6V | 18:12:15 | 01:24:49 | 00:00:00 | |
| DL3AQ-11 | 2026-09-04 11:43:14 | 51.44752 | 8.62523 | 92° | 66km/h | 16526m | 5.5m/s | -54.9°C | 1.7% | 100.5hPa | 2.7V | 00:00:00 | 00:00:00 | 00:00:00 | |
| DL4BBY-15 | 2026-09-04 11:43:13 | 51.44752 | 8.62523 | 93° | 64km/h | 16526m | 5.4m/s | -55.5°C | 0% | 0hPa | 2.7V | 00:00:00 | 00:00:00 | 00:00:00 | |
| DL1XH1-15 | 2026-09-04 11:43:12 | 51.44754 | 8.62469 | 92° | 68km/h | 16517m | 3.8m/s | -54.8°C | 4.5% | 100.7hPa | 2.7V | 08:30:00 | 01:24:46 | 00:00:00 | |
| HSKMA3-T | 2026-09-04 11:43:12 | 51.44753 | 8.62496 | 93° | 68km/h | 16521m | 4m/s | -54.8°C | 1.3% | 100.6hPa | 2.6V | 18:12:15 | 01:24:47 | 00:00:00 | |
| DO2JMG | 2026-09-04 11:43:09 | 51.44755 | 8.62413 | 91° | 68km/h | 16508m | 4.4m/s | -54.8°C | 1.3% | 100.8hPa | 2.7V | 18:12:15 | 01:24:44 | 00:00:00 | |
| DL1XH-west | 2026-09-04 11:43:07 | 51.44756 | 8.62360 | 92° | 64km/h | 16499m | 3.8m/s | -54.8°C | 1.3% | 101hPa | 2.6V | 18:12:15 | 01:24:42 | 00:00:00 | |
| AA1-15 | 2026-09-04 11:43:03 | 51.44756 | 8.62258 | 89° | 62km/h | 16482m | 4.9m/s | -55°C | 1.3% | 101.2hPa | 2.7V | 18:12:15 | 01:24:38 | 00:00:00 | |
| DO3MHA-11 | 2026-09-04 11:43:03 | 51.44756 | 8.62258 | 89° | 66km/h | 16482m | 4.8m/s | -54.9°C | 4.6% | 101.2hPa | 2.6V | 00:00:00 | 01:24:38 | 00:00:00 | |
| DO3DL | 2026-09-04 11:43:02 | 51.44756 | 8.62258 | 90° | 62km/h | 16482m | 4.9m/s | -55.0°C | 1.7% | 101.2hPa | 2.6V | 00:00:00 | 00:00:00 | 00:00:00 | |
| DM0DOS-11 | 2026-09-04 11:43:01 | 51.44756 | 8.62208 | 90° | 64km/h | 16473m | 3m/s | -54.9°C | 4.6% | 101.4hPa | 2.6V | 08:30:00 | 01:24:36 | 00:00:00 | |
| BIOWL1-15 | 2026-09-04 11:43:01 | 51.44756 | 8.62208 | 90° | 64km/h | 16473m | 3m/s | -54.9°C | 1.4% | 101.4hPa | 2.6V | 18:12:15 | 01:24:36 | 00:00:00 | |
| DO2JMG | 2026-09-04 11:42:59 | 51.44756 | 8.62153 | 89° | 69km/h | 16464m | 4.8m/s | -55°C | 1.4% | 101.5hPa | 2.7V | 18:12:15 | 01:24:34 | 00:00:00 | |
| DL1XH-west | 2026-09-04 11:42:57 | 51.44755 | 8.62097 | 88° | 69km/h | 16455m | 5.5m/s | -55°C | 1.4% | 101.7hPa | 2.6V | 18:12:15 | 01:24:32 | 00:00:00 | |
| DL4XJ-10 | 2026-09-04 11:42:56 | 51.44753 | 8.62069 | 87° | 64km/h | 16449m | 4.0m/s | -55.6°C | 0% | 0hPa | 2.7V | 00:00:00 | 00:00:00 | 00:00:00 | |
| DF2AP-13 | 2026-09-04 11:42:55 | 51.44752 | 8.62042 | 85° | 66km/h | 16446m | 3.2m/s | -54.9°C | 4.7% | 101.8hPa | 2.7V | 00:00:00 | 01:24:30 | 00:00:00 | |
| DL1XH-15 | 2026-09-04 11:42:54 | 51.44745 | 8.61965 | 79° | 62km/h | 16433m | 3.8m/s | -55.2°C | 4.7% | 102hPa | 2.7V | 08:30:00 | 01:24:27 | 00:00:00 | |
| AA1-15 | 2026-09-04 11:42:52 | 51.44745 | 8.61965 | 80° | 62km/h | 16433m | 3.8m/s | -55.2°C | 1.4% | 102hPa | 2.7V | 18:12:15 | 01:24:27 | 00:00:00 | |
| BIOWL1-15 | 2026-09-04 11:42:50 | 51.44740 | 8.61918 | 81° | 57km/h | 16424m | 3.8m/s | -55.3°C | 1.4% | 102.2hPa | 2.6V | 18:12:15 | 01:24:25 | 00:00:00 | |
| DO2JMG | 2026-09-04 11:42:48 | 51.44736 | 8.61873 | 82° | 57km/h | 16415m | 4.6m/s | -55.3°C | 1.5% | 102.3hPa | 2.8V | 18:12:15 | 01:24:23 | 00:00:00 | |
| DM0DOS-11 | 2026-09-04 11:42:46 | 51.44724 | 8.61693 | 84° | 73km/h | 16385m | 4.3m/s | -55.1°C | 4.7% | 102.8hPa | 2.7V | 08:30:00 | 01:24:16 | 00:00:00 | |
| DL1XH-west | 2026-09-04 11:42:46 | 51.44733 | 8.61827 | 85° | 58km/h | 16407m | 4.7m/s | -55.3°C | 1.4% | 102.5hPa | 2.7V | 18:12:15 | 01:24:21 | 00:00:00 | |
| DL3AQ-11 | 2026-09-04 11:42:45 | 51.44732 | 8.61803 | 85° | 60km/h | 16403m | 3.8m/s | -55.2°C | 1.8% | 102.5hPa | 2.7V | 00:00:00 | 00:00:00 | 00:00:00 | |
| BIOWL9-15 | 2026-09-04 11:42:44 | 51.44730 | 8.61777 | 84° | 64km/h | 16399m | 4.9m/s | -55.2°C | 1.8% | 102.6hPa | 2.7V | 00:00:00 | 00:00:00 | 00:00:00 | |
| AA1-15 | 2026-09-04 11:42:42 | 51.44726 | 8.61722 | 84° | 71km/h | 16389m | 4.6m/s | -55.2°C | 1.4% | 102.7hPa | 2.7V | 18:12:15 | 01:24:17 | 00:00:00 | |
| BIOWL1-15 | 2026-09-04 11:42:41 | 51.44720 | 8.61635 | 82° | 73km/h | 16377m | 4.9m/s | -55.2°C | 1.5% | 102.9hPa | 2.6V | 18:12:15 | 01:24:14 | 00:00:00 | |
| HSKMA3-T | 2026-09-04 11:42:40 | 51.44722 | 8.61664 | 83° | 73km/h | 16381m | 2.9m/s | -55.1°C | 1.4% | 102.8hPa | 2.6V | 18:12:15 | 01:24:15 | 00:00:00 | |
| DO2JMG | 2026-09-04 11:42:38 | 51.44718 | 8.61606 | 81° | 71km/h | 16373m | 4.3m/s | -55.2°C | 1.5% | 103hPa | 2.7V | 18:12:15 | 01:24:13 | 00:00:00 | |
| DF8AY | 2026-09-04 11:42:37 | 51.44715 | 8.61578 | 81° | 69km/h | 16369m | 3.3m/s | -55.2°C | 1.5% | 103.1hPa | 2.7V | 18:12:15 | 01:24:12 | 00:00:00 | |
| DL1XH-west | 2026-09-04 11:42:35 | 51.44711 | 8.61525 | 85° | 64km/h | 16360m | 2.8m/s | -55.1°C | 1.5% | 103.2hPa | 2.6V | 18:12:15 | 01:24:10 | 00:00:00 | |
| AU51GT2 | 2026-09-04 11:42:35 | 51.44709 | 8.61499 | 84° | 64km/h | 16357m | 3.6m/s | -55.1°C | 1.8% | 103.2hPa | 2.7V | 00:00:00 | 00:00:00 | 00:00:00 | |
| DL1XH-15 | 2026-09-04 11:42:34 | 51.44706 | 8.61446 | 83° | 68km/h | 16348m | 3.9m/s | -55.1°C | 4.7% | 103.4hPa | 2.7V | 08:30:00 | 01:24:07 | 00:00:00 | |
| AA1-15 | 2026-09-04 11:42:31 | 51.44704 | 8.61419 | 84° | 69km/h | 16344m | 4.3m/s | -55°C | 1.5% | 103.4hPa | 2.7V | 18:12:15 | 01:24:06 | 00:00:00 | |
| BIOWL1-15 | 2026-09-04 11:42:29 | 51.44701 | 8.61364 | 86° | 68km/h | 16335m | 4.5m/s | -55°C | 1.4% | 103.6hPa | 2.6V | 18:12:15 | 01:24:04 | 00:00:00 | |
| DO2JMG | 2026-09-04 11:42:28 | 51.44699 | 8.61337 | 86° | 66km/h | 16331m | 3.4m/s | -54.9°C | 1.4% | 103.7hPa | 2.6V | 18:12:15 | 01:24:03 | 00:00:00 | |
| DF8AY | 2026-09-04 11:42:27 | 51.44696 | 8.61284 | 82° | 66km/h | 16323m | 4.2m/s | -55°C | 1.5% | 103.8hPa | 2.7V | 18:12:15 | 01:24:01 | 00:00:00 | |
| DL1XH-west | 2026-09-04 11:42:24 | 51.44692 | 8.61233 | 84° | 62km/h | 16314m | 4.7m/s | -55°C | 1.5% | 104hPa | 2.6V | 18:12:15 | 01:23:59 | 00:00:00 | |
| DL1XH-15 | 2026-09-04 11:42:22 | 51.44689 | 8.61183 | 84° | 64km/h | 16306m | 5m/s | -55°C | 4.6% | 104.1hPa | 2.6V | 08:30:00 | 01:23:57 | 00:00:00 | |
| AA1-15 | 2026-09-04 11:42:20 | 51.44686 | 8.61131 | 87° | 66km/h | 16296m | 4.9m/s | -55°C | 1.5% | 104.2hPa | 2.7V | 18:12:15 | 01:23:55 | 00:00:00 | |
| BIOWL1-15 | 2026-09-04 11:42:19 | 51.44686 | 8.61105 | 89° | 66km/h | 16292m | 4.1m/s | -55°C | 1.5% | 104.3hPa | 2.6V | 18:12:15 | 01:23:54 | 00:00:00 | |
| HSKMA3-T | 2026-09-04 11:42:18 | 51.44686 | 8.61079 | 89° | 64km/h | 16288m | 3.5m/s | -55°C | 1.6% | 104.4hPa | 2.6V | 18:12:15 | 01:23:53 | 00:00:00 | |
| DO2JMG | 2026-09-04 11:42:17 | 51.44685 | 8.61053 | 88° | 64km/h | 16284m | 5m/s | -55.1°C | 1.5% | 104.5hPa | 2.6V | 18:12:15 | 01:23:52 | 00:00:00 | |
| DL1NUX | 2026-09-04 11:42:16 | 51.44685 | 8.60907 | 90° | 58km/h | 16259m | 5m/s | -55.3°C | 4.8% | 104.9hPa | 2.6V | 08:30:00 | 01:23:46 | 00:00:00 | |
| DF8AY | 2026-09-04 11:42:15 | 51.44684 | 8.61002 | 88° | 62km/h | 16276m | 3.8m/s | -55.1°C | 1.5% | 104.6hPa | 2.8V | 18:12:15 | 01:23:50 | 00:00:00 | |
| DL1XH-west | 2026-09-04 11:42:14 | 51.44684 | 8.60978 | 90° | 58km/h | 16272m | 4.7m/s | -55.1°C | 1.5% | 104.6hPa | 2.7V | 18:12:15 | 01:23:49 | 00:00:00 | |
| DL4BBY-15 | 2026-09-04 11:42:13 | 51.44684 | 8.60954 | 92° | 64km/h | 16268m | 3.7m/s | -55.8°C | 0% | 0hPa | 2.8V | 00:00:00 | 00:00:00 | 00:00:00 | |
| DJ2DS-15 | 2026-09-04 11:42:12 | 51.44684 | 8.60931 | 92° | 62km/h | 16264m | 3.8m/s | -55.2°C | 4.7% | 104.7hPa | 2.8V | 00:00:00 | 01:23:47 | 00:00:00 | |
| DB0DAN | 2026-09-04 11:42:10 | 51.44684 | 8.60883 | 89° | 57km/h | 16254m | 4.2m/s | -55.2°C | 0% | 104.95hPa | 2.8V | 00:00:00 | 00:00:00 | 00:00:00 | |
| AA1-15 | 2026-09-04 11:42:09 | 51.44684 | 8.60859 | 89° | 60km/h | 16250m | 4.2m/s | -55.3°C | 1.6% | 105hPa | 2.7V | 18:12:15 | 01:23:44 | 00:00:00 | |
| BIOWL1-15 | 2026-09-04 11:42:08 | 51.44684 | 8.60835 | 89° | 60km/h | 16246m | 4m/s | -55.3°C | 1.6% | 105.1hPa | 2.7V | 18:12:15 | 01:23:43 | 00:00:00 | |
| DO2JMG | 2026-09-04 11:42:07 | 51.44683 | 8.60811 | 88° | 60km/h | 16242m | 3.4m/s | -55.3°C | 1.6% | 105.1hPa | 2.6V | 18:12:15 | 01:23:42 | 00:00:00 | |
| DF8AY | 2026-09-04 11:42:05 | 51.44682 | 8.60761 | 86° | 64km/h | 16234m | 4.1m/s | -55.3°C | 1.6% | 105.3hPa | 2.6V | 18:12:15 | 01:23:40 | 00:00:00 | |
| DL1XH-west | 2026-09-04 11:42:03 | 51.44681 | 8.60709 | 89° | 62km/h | 16225m | 4.3m/s | -55.4°C | 1.6% | 105.4hPa | 2.7V | 18:12:15 | 01:23:38 | 00:00:00 | |
| BIOWL1-15 | 2026-09-04 11:41:59 | 51.44684 | 8.60552 | 92° | 66km/h | 16199m | 3.3m/s | -55.7°C | 1.7% | 105.8hPa | 2.6V | 18:12:15 | 01:23:32 | 00:00:00 | |
| AA1-15 | 2026-09-04 11:41:59 | 51.44682 | 8.60605 | 93° | 66km/h | 16208m | 4.5m/s | -55.6°C | 1.6% | 105.7hPa | 2.7V | 18:12:15 | 01:23:34 | 00:00:00 | |
| DO2JMG | 2026-09-04 11:41:56 | 51.44684 | 8.60525 | 91° | 66km/h | 16195m | 5.1m/s | -55.7°C | 1.6% | 105.9hPa | 2.6V | 18:12:15 | 01:23:31 | 00:00:00 | |
| DF8AY | 2026-09-04 11:41:54 | 51.44684 | 8.60472 | 88° | 64km/h | 16187m | 4.2m/s | -55.7°C | 1.7% | 106hPa | 2.7V | 18:12:15 | 01:23:29 | 00:00:00 | |
| DL1XH-west | 2026-09-04 11:41:53 | 51.44683 | 8.60447 | 87° | 62km/h | 16183m | 3.9m/s | -55.7°C | 1.7% | 106.1hPa | 2.7V | 18:12:15 | 01:23:28 | 00:00:00 | |
| DO3MHA-11 | 2026-09-04 11:41:53 | 51.44683 | 8.60447 | 88° | 64km/h | 16183m | 3.8m/s | -55.7°C | 4.8% | 106.1hPa | 2.6V | 00:00:00 | 01:23:28 | 00:00:00 | |
| DL1NUX | 2026-09-04 11:41:52 | 51.44681 | 8.60398 | 85° | 62km/h | 16175m | 5.1m/s | -55.9°C | 4.9% | 106.3hPa | 2.6V | 08:30:00 | 01:23:26 | 00:00:00 | |
| AA1-15 | 2026-09-04 11:41:49 | 51.44679 | 8.60347 | 87° | 64km/h | 16166m | 3.5m/s | -56.1°C | 1.7% | 106.4hPa | 2.8V | 18:12:15 | 01:23:24 | 00:00:00 | |
| BIOWL1-15 | 2026-09-04 11:41:49 | 51.44678 | 8.60295 | 90° | 64km/h | 16158m | 3.7m/s | -56.2°C | 1.8% | 106.5hPa | 2.7V | 18:12:15 | 01:23:22 | 00:00:00 | |
| HSKMA3-T | 2026-09-04 11:41:46 | 51.44678 | 8.60269 | 90° | 66km/h | 16154m | 4.3m/s | -56.2°C | 1.8% | 106.6hPa | 2.6V | 18:12:15 | 01:23:21 | 00:00:00 | |
| DO2JMG | 2026-09-04 11:41:45 | 51.44678 | 8.60243 | 89° | 68km/h | 16149m | 4.3m/s | -56.2°C | 1.8% | 106.7hPa | 2.6V | 18:12:15 | 01:23:20 | 00:00:00 | |
| DF8AY | 2026-09-04 11:41:43 | 51.44677 | 8.60188 | 89° | 68km/h | 16142m | 4.1m/s | -56.2°C | 1.8% | 106.8hPa | 2.7V | 18:12:15 | 01:23:18 | 00:00:00 | |
| DL1XH-west | 2026-09-04 11:41:42 | 51.44677 | 8.60161 | 90° | 66km/h | 16138m | 4.1m/s | -56.2°C | 1.9% | 106.9hPa | 2.7V | 18:12:15 | 01:23:17 | 00:00:00 | |
| AA1-15 | 2026-09-04 11:41:39 | 51.44679 | 8.60080 | 92° | 69km/h | 16127m | 4.5m/s | -56.3°C | 1.8% | 107hPa | 2.6V | 18:12:15 | 01:23:14 | 00:00:00 | |
| DL3AQ-11 | 2026-09-04 11:41:38 | 51.44681 | 8.60023 | 92° | 69km/h | 16119m | 4.4m/s | -56.4°C | 2.0% | 107.2hPa | 2.8V | 00:00:00 | 00:00:00 | 00:00:00 | |
| DB0NH | 2026-09-04 11:41:37 | 51.44680 | 8.60023 | 93° | 75km/h | 16119m | 4.3m/s | -56.3°C | 5.1% | 107.1hPa | 2.8V | 00:00:00 | 01:23:12 | 00:00:00 | |
| DL1NUX | 2026-09-04 11:41:36 | 51.44680 | 8.59855 | 87° | 69km/h | 16094m | 3.7m/s | -56.4°C | 5.2% | 107.6hPa | 2.8V | 08:30:00 | 01:23:06 | 00:00:00 | |
| HSKMA3-T | 2026-09-04 11:41:36 | 51.44681 | 8.59995 | 92° | 69km/h | 16114m | 4.6m/s | -56.4°C | 1.9% | 107.3hPa | 2.7V | 18:12:15 | 01:23:11 | 00:00:00 | |
| DO2JMG | 2026-09-04 11:41:34 | 51.44682 | 8.59939 | 89° | 69km/h | 16106m | 4.6m/s | -56.4°C | 1.9% | 107.4hPa | 2.6V | 18:12:15 | 01:23:09 | 00:00:00 | |
| DF8AY | 2026-09-04 11:41:32 | 51.44678 | 8.59738 | 91° | 75km/h | 16079m | 3.4m/s | -56.5°C | 1.9% | 107.9hPa | 2.6V | 18:12:15 | 01:23:02 | 00:00:00 | |
| DL1XH-west | 2026-09-04 11:41:31 | 51.44680 | 8.59855 | 88° | 69km/h | 16094m | 3.7m/s | -56.4°C | 1.9% | 107.6hPa | 2.8V | 18:12:15 | 01:23:06 | 00:00:00 | |
| AA1-15 | 2026-09-04 11:41:28 | 51.44678 | 8.59769 | 89° | 75km/h | 16083m | 3.9m/s | -56.4°C | 1.9% | 107.8hPa | 2.6V | 18:12:15 | 01:23:03 | 00:00:00 | |
| BIOWL1-15 | 2026-09-04 11:41:26 | 51.44679 | 8.59708 | 92° | 75km/h | 16075m | 5.1m/s | -56.5°C | 1.9% | 108hPa | 2.8V | 18:12:15 | 01:23:01 | 00:00:00 | |
| HSKMA3-T | 2026-09-04 11:41:25 | 51.44680 | 8.59677 | 94° | 75km/h | 16070m | 3.9m/s | -56.6°C | 2% | 108hPa | 2.7V | 18:12:15 | 01:23:00 | 00:00:00 | |
| DO2JMG | 2026-09-04 11:41:23 | 51.44681 | 8.59616 | 92° | 75km/h | 16062m | 2.6m/s | -56.6°C | 2% | 108.2hPa | 2.6V | 18:12:15 | 01:22:58 | 00:00:00 | |
| DL1XH-west | 2026-09-04 11:41:20 | 51.44683 | 8.59529 | 90° | 69km/h | 16050m | 3.7m/s | -56.6°C | 2% | 108.4hPa | 2.6V | 18:12:15 | 01:22:55 | 00:00:00 | |
| AA1-15 | 2026-09-04 11:41:18 | 51.44682 | 8.59470 | 87° | 75km/h | 16041m | 3.4m/s | -56.5°C | 2% | 108.5hPa | 2.6V | 18:12:15 | 01:22:53 | 00:00:00 | |
| BIOWL1-15 | 2026-09-04 11:41:18 | 51.44680 | 8.59407 | 88° | 78km/h | 16034m | 4.9m/s | -56.5°C | 2% | 108.7hPa | 2.8V | 18:12:15 | 01:22:51 | 00:00:00 | |
| DF8AY | 2026-09-04 11:41:17 | 51.44681 | 8.59439 | 87° | 78km/h | 16038m | 3.4m/s | -56.5°C | 2% | 108.6hPa | 2.8V | 18:12:15 | 01:22:52 | 00:00:00 | |
| HSKMA3-T | 2026-09-04 11:41:14 | 51.44679 | 8.59343 | 90° | 82km/h | 16025m | 4.5m/s | -56.4°C | 2% | 108.8hPa | 2.6V | 18:12:15 | 01:22:49 | 00:00:00 | |
| DO2JMG | 2026-09-04 11:41:12 | 51.44679 | 8.59275 | 90° | 84km/h | 16017m | 2.7m/s | -56.4°C | 2% | 108.9hPa | 2.6V | 18:12:15 | 01:22:47 | 00:00:00 | |
| DL1XH-west | 2026-09-04 11:41:10 | 51.44680 | 8.59207 | 92° | 80km/h | 16009m | 4.2m/s | -56.3°C | 1.9% | 109.1hPa | 2.7V | 18:12:15 | 01:22:45 | 00:00:00 | |
| DB0DAN | 2026-09-04 11:41:10 | 51.44680 | 8.59207 | 92° | 77km/h | 16009m | 4.2m/s | -56.3°C | 0% | 109.08hPa | 2.7V | 00:00:00 | 00:00:00 | 00:00:00 | |
| AA1-15 | 2026-09-04 11:41:07 | 51.44682 | 8.59112 | 91° | 78km/h | 15997m | 4.2m/s | -56.4°C | 2% | 109.3hPa | 2.6V | 18:12:15 | 01:22:42 | 00:00:00 | |
| DF8AY | 2026-09-04 11:41:07 | 51.44682 | 8.59080 | 89° | 78km/h | 15994m | 3.3m/s | -56.4°C | 2% | 109.3hPa | 2.6V | 18:12:15 | 01:22:41 | 00:00:00 | |
| BIOWL1-15 | 2026-09-04 11:41:05 | 51.44682 | 8.59048 | 89° | 78km/h | 15990m | 3.8m/s | -56.4°C | 1.9% | 109.4hPa | 2.8V | 18:12:15 | 01:22:40 | 00:00:00 | |
| HSKMA3-T | 2026-09-04 11:41:03 | 51.44681 | 8.58987 | 88° | 75km/h | 15982m | 3.1m/s | -56.4°C | 2.1% | 109.6hPa | 2.6V | 18:12:15 | 01:22:38 | 00:00:00 | |
| DO2JMG | 2026-09-04 11:41:01 | 51.44680 | 8.58925 | 86° | 77km/h | 15974m | 3.4m/s | -56.3°C | 2% | 109.7hPa | 2.8V | 18:12:15 | 01:22:36 | 00:00:00 | |
| DL1XH-west | 2026-09-04 11:40:59 | 51.44677 | 8.58862 | 87° | 77km/h | 15966m | 4.4m/s | -56.4°C | 2% | 109.8hPa | 2.6V | 18:12:15 | 01:22:34 | 00:00:00 | |
| AA1-15 | 2026-09-04 11:40:57 | 51.44675 | 8.58800 | 87° | 78km/h | 15957m | 4.7m/s | -56.4°C | 2% | 110hPa | 2.6V | 18:12:15 | 01:22:32 | 00:00:00 | |
| BIOWL1-15 | 2026-09-04 11:40:57 | 51.44673 | 8.58735 | 88° | 80km/h | 15950m | 3.3m/s | -56.4°C | 2% | 110.1hPa | 2.8V | 18:12:15 | 01:22:30 | 00:00:00 | |
| DF8AY | 2026-09-04 11:40:56 | 51.44674 | 8.58768 | 87° | 80km/h | 15954m | 3.5m/s | -56.4°C | 2.1% | 110hPa | 2.8V | 18:12:15 | 01:22:31 | 00:00:00 | |
| HSKMA3-T | 2026-09-04 11:40:52 | 51.44673 | 8.58640 | 90° | 78km/h | 15937m | 4.7m/s | -56.4°C | 2% | 110.3hPa | 2.6V | 18:12:15 | 01:22:27 | 00:00:00 | |
| DO2JMG | 2026-09-04 11:40:51 | 51.44673 | 8.58608 | 90° | 78km/h | 15933m | 3.5m/s | -56.4°C | 2.1% | 110.4hPa | 2.6V | 18:12:15 | 01:22:26 | 00:00:00 | |
| DL1XH-west | 2026-09-04 11:40:48 | 51.44674 | 8.58514 | 91° | 77km/h | 15921m | 3.6m/s | -56.6°C | 2% | 110.6hPa | 2.7V | 18:12:15 | 01:22:23 | 00:00:00 | |
| AA1-15 | 2026-09-04 11:40:46 | 51.44673 | 8.58451 | 89° | 78km/h | 15912m | 3.6m/s | -56.6°C | 2.1% | 110.7hPa | 2.6V | 18:12:15 | 01:22:21 | 00:00:00 | |
| DF8AY | 2026-09-04 11:40:45 | 51.44673 | 8.58420 | 89° | 78km/h | 15908m | 4.8m/s | -56.7°C | 2.1% | 110.8hPa | 2.6V | 18:12:15 | 01:22:20 | 00:00:00 | |
| BIOWL1-15 | 2026-09-04 11:40:44 | 51.44672 | 8.58388 | 88° | 78km/h | 15904m | 3.8m/s | -56.6°C | 2.2% | 110.9hPa | 2.8V | 18:12:15 | 01:22:19 | 00:00:00 | |
| HSKMA3-T | 2026-09-04 11:40:41 | 51.44670 | 8.58291 | 87° | 82km/h | 15892m | 3.8m/s | -56.7°C | 2.1% | 111.1hPa | 2.6V | 18:12:15 | 01:22:16 | 00:00:00 | |
| DO2JMG | 2026-09-04 11:40:40 | 51.44669 | 8.58259 | 88° | 80km/h | 15887m | 4.6m/s | -56.7°C | 2.1% | 111.2hPa | 2.8V | 18:12:15 | 01:22:15 | 00:00:00 | |
| DL1XH-west | 2026-09-04 11:40:37 | 51.44668 | 8.58164 | 91° | 78km/h | 15875m | 3.8m/s | -56.6°C | 2.1% | 111.4hPa | 2.6V | 18:12:15 | 01:22:12 | 00:00:00 | |
| AA1-15 | 2026-09-04 11:40:36 | 51.44669 | 8.58132 | 92° | 77km/h | 15872m | 3.2m/s | -56.6°C | 2.1% | 111.5hPa | 2.6V | 18:12:15 | 01:22:11 | 00:00:00 | |
| DF8AY | 2026-09-04 11:40:35 | 51.44670 | 8.58102 | 92° | 75km/h | 15867m | 5.3m/s | -56.6°C | 2.1% | 111.5hPa | 2.8V | 18:12:15 | 01:22:10 | 00:00:00 | |
| BIOWL1-15 | 2026-09-04 11:40:35 | 51.44670 | 8.58042 | 89° | 73km/h | 15859m | 4.2m/s | -56.9°C | 2.2% | 111.7hPa | 2.7V | 18:12:15 | 01:22:08 | 00:00:00 | |
| HSKMA3-T | 2026-09-04 11:40:31 | 51.44669 | 8.57982 | 86° | 77km/h | 15851m | 3.2m/s | -57°C | 2.2% | 111.8hPa | 2.6V | 18:12:15 | 01:22:06 | 00:00:00 | |
| DO2JMG | 2026-09-04 11:40:29 | 51.44665 | 8.57920 | 83° | 75km/h | 15842m | 4.6m/s | -57.1°C | 2.2% | 112hPa | 2.8V | 18:12:15 | 01:22:04 | 00:00:00 | |
| HARRO8 | 2026-09-04 11:40:29 | 51.44665 | 8.57920 | 82° | 75km/h | 15842m | 4.6m/s | -57.1°C | 2.2% | 112.0hPa | 2.8V | 00:00:00 | 00:00:00 | 00:00:00 | |
| BIOWL7-15 | 2026-09-04 11:40:28 | 51.44665 | 8.57920 | 84° | 75km/h | 15842m | 4.6m/s | -57.1°C | 2.2% | 112.0hPa | 2.8V | 00:00:00 | 00:00:00 | 00:00:00 | |
| DL1XH-15 | 2026-09-04 11:40:27 | 51.44661 | 8.57705 | 96° | 78km/h | 15812m | 5.3m/s | -57.8°C | 5.8% | 112.5hPa | 2.8V | 08:30:00 | 01:21:57 | 00:00:00 | |
| DL1XH-west | 2026-09-04 11:40:26 | 51.44659 | 8.57828 | 87° | 77km/h | 15829m | 3.2m/s | -57.3°C | 2.3% | 112.2hPa | 2.6V | 18:12:15 | 01:22:01 | 00:00:00 | |
| AA1-15 | 2026-09-04 11:40:25 | 51.44658 | 8.57797 | 89° | 77km/h | 15826m | 5m/s | -57.4°C | 2.3% | 112.2hPa | 2.6V | 18:12:15 | 01:22:00 | 00:00:00 | |
| BIOWL1-15 | 2026-09-04 11:40:25 | 51.44660 | 8.57736 | 95° | 75km/h | 15817m | 4m/s | -57.7°C | 2.4% | 112.4hPa | 2.8V | 18:12:15 | 01:21:58 | 00:00:00 | |
| HSKMA3-T | 2026-09-04 11:40:20 | 51.44666 | 8.57642 | 96° | 78km/h | 15805m | 2.6m/s | -57.9°C | 2.5% | 112.6hPa | 2.6V | 18:12:15 | 01:21:55 | 00:00:00 | |
| DO2JMG | 2026-09-04 11:40:19 | 51.44668 | 8.57611 | 96° | 77km/h | 15801m | 4.3m/s | -58°C | 2.6% | 112.7hPa | 2.8V | 18:12:15 | 01:21:54 | 00:00:00 | |
| DL3AQ-11 | 2026-09-04 11:40:18 | 51.44670 | 8.57581 | 93° | 71km/h | 15797m | 3.9m/s | -58.0°C | 2.5% | 112.8hPa | 2.8V | 00:00:00 | 00:00:00 | 00:00:00 | |
| DL1XH-15 | 2026-09-04 11:40:17 | 51.44663 | 8.57413 | 81° | 66km/h | 15773m | 4.4m/s | -58°C | 5.8% | 113.2hPa | 2.8V | 08:30:00 | 01:21:47 | 00:00:00 | |
| DL1XH-west | 2026-09-04 11:40:16 | 51.44670 | 8.57524 | 88° | 71km/h | 15790m | 4.6m/s | -58.1°C | 2.5% | 112.9hPa | 2.6V | 18:12:15 | 01:21:51 | 00:00:00 | |
| AA1-15 | 2026-09-04 11:40:15 | 51.44669 | 8.57495 | 86° | 71km/h | 15786m | 3.9m/s | -58°C | 2.5% | 113hPa | 2.6V | 18:12:15 | 01:21:50 | 00:00:00 | |
| DF8AY | 2026-09-04 11:40:14 | 51.44667 | 8.57467 | 84° | 69km/h | 15782m | 3.4m/s | -58.1°C | 2.5% | 113hPa | 2.8V | 18:12:15 | 01:21:49 | 00:00:00 | |
| HSKMA3-T | 2026-09-04 11:40:10 | 51.44659 | 8.57361 | 85° | 66km/h | 15766m | 4m/s | -58°C | 2.5% | 113.3hPa | 2.6V | 18:12:15 | 01:21:45 | 00:00:00 | |
| DO2JMG | 2026-09-04 11:40:08 | 51.44657 | 8.57305 | 91° | 69km/h | 15758m | 4.2m/s | -57.9°C | 2.6% | 113.5hPa | 2.8V | 18:12:15 | 01:21:43 | 00:00:00 | |
| DL1XH-15 | 2026-09-04 11:40:07 | 51.44668 | 8.57129 | 95° | 73km/h | 15733m | 4.9m/s | -57.9°C | 5.9% | 114hPa | 2.8V | 08:30:00 | 01:21:37 | 00:00:00 | |
| DB0NH | 2026-09-04 11:40:07 | 51.44658 | 8.57277 | 94° | 71km/h | 15754m | 4.8m/s | -57.9°C | 5.9% | 113.5hPa | 2.8V | 00:00:00 | 01:21:42 | 00:00:00 | |
| DL1NUX | 2026-09-04 11:40:06 | 51.44670 | 8.57100 | 93° | 69km/h | 15729m | 3.6m/s | -57.8°C | 5.9% | 114hPa | 2.8V | 08:30:00 | 01:21:36 | 00:00:00 | |
| DL1XH-west | 2026-09-04 11:40:05 | 51.44662 | 8.57219 | 97° | 75km/h | 15745m | 4.3m/s | -57.9°C | 2.6% | 113.8hPa | 2.6V | 18:12:15 | 01:21:40 | 00:00:00 | |
| AA1-15 | 2026-09-04 11:40:04 | 51.44664 | 8.57189 | 97° | 75km/h | 15740m | 4.4m/s | -57.8°C | 2.6% | 113.8hPa | 2.6V | 18:12:15 | 01:21:39 | 00:00:00 | |
| DF8AY | 2026-09-04 11:40:03 | 51.44666 | 8.57158 | 96° | 75km/h | 15737m | 3m/s | -57.8°C | 2.5% | 113.9hPa | 2.6V | 18:12:15 | 01:21:38 | 00:00:00 | |
| HSKMA3-T | 2026-09-04 11:39:59 | 51.44671 | 8.57045 | 91° | 68km/h | 15721m | 4.4m/s | -57.8°C | 2.6% | 114.2hPa | 2.6V | 18:12:15 | 01:21:34 | 00:00:00 | |
| DO2JMG | 2026-09-04 11:39:57 | 51.44672 | 8.56989 | 93° | 69km/h | 15714m | 3.4m/s | -57.7°C | 2.6% | 114.3hPa | 2.8V | 18:12:15 | 01:21:32 | 00:00:00 | |
| DL1XH-west | 2026-09-04 11:39:55 | 51.44675 | 8.56934 | 97° | 69km/h | 15705m | 4.2m/s | -57.7°C | 2.6% | 114.5hPa | 2.6V | 18:12:15 | 01:21:30 | 00:00:00 | |
| DO3MHA-12 | 2026-09-04 11:39:55 | 51.44675 | 8.56934 | 98° | 73km/h | 15705m | 4.1m/s | -57.7°C | 5.9% | 114.4hPa | 2.7V | 00:00:00 | 01:21:30 | 00:00:00 | |
| DM0DOS-11 | 2026-09-04 11:39:54 | 51.44686 | 8.56819 | 99° | 73km/h | 15688m | 4.5m/s | -57.6°C | 5.9% | 114.8hPa | 2.7V | 08:30:00 | 01:21:26 | 00:00:00 | |
| AA1-15 | 2026-09-04 11:39:53 | 51.44680 | 8.56877 | 98° | 73km/h | 15697m | 3.9m/s | -57.6°C | 2.6% | 114.6hPa | 2.8V | 18:12:15 | 01:21:28 | 00:00:00 | |
| Es werden nur die letzten 3500 von 5598 Frames angezeigt. GPX/KML und Diagramme bleiben verfügbar. | |||||||||||||||